<?xml version="1.0" encoding="UTF-8" standalone="no" ?>
<gpx xmlns="http://www.topografix.com/GPX/1/1" xmlns:xsi="http://www.w3.org/2001/XMLSchema-instance" xsi:schemaLocation="http://www.topografix.com/GPX/1/1 http://www.topografix.com/GPX/1/1/gpx.xsd" version="1.1" creator="VisuGPX - https://www.visugpx.com">
  <metadata>
    <name>Boucle Laragne Vantavon Rourebeau Ribiers Laragne</name>
    <desc><![CDATA[Boucle de 47 km avec peu de dénivelé (275 m). Ce parcours est agréable pour le paysage et la faible circulation de voitures. ]]></desc>
  </metadata>
  <trk>
    <name><![CDATA[Boucle Laragne Vantavon Rourebeau Ribiers Laragne_1]]></name>
    <trkseg>
      <trkpt lat="44.31602" lon="5.82954">
        <ele>584</ele>
        <time>2019-08-17T07:47:12Z</time>
      </trkpt>
      <trkpt lat="44.31579" lon="5.82931">
        <ele>577</ele>
        <time>2019-08-17T07:47:48Z</time>
      </trkpt>
      <trkpt lat="44.31576" lon="5.82929">
        <ele>577</ele>
        <time>2019-08-17T07:47:49Z</time>
      </trkpt>
      <trkpt lat="44.31573" lon="5.82927">
        <ele>576</ele>
        <time>2019-08-17T07:47:50Z</time>
      </trkpt>
      <trkpt lat="44.3157" lon="5.82925">
        <ele>576</ele>
        <time>2019-08-17T07:47:51Z</time>
      </trkpt>
      <trkpt lat="44.31567" lon="5.82923">
        <ele>576</ele>
        <time>2019-08-17T07:47:52Z</time>
      </trkpt>
      <trkpt lat="44.31564" lon="5.82921">
        <ele>576</ele>
        <time>2019-08-17T07:47:53Z</time>
      </trkpt>
      <trkpt lat="44.3156" lon="5.82918">
        <ele>576</ele>
        <time>2019-08-17T07:47:54Z</time>
      </trkpt>
      <trkpt lat="44.31557" lon="5.82916">
        <ele>576</ele>
        <time>2019-08-17T07:47:55Z</time>
      </trkpt>
      <trkpt lat="44.31554" lon="5.82914">
        <ele>576</ele>
        <time>2019-08-17T07:47:56Z</time>
      </trkpt>
      <trkpt lat="44.31552" lon="5.82912">
        <ele>576</ele>
        <time>2019-08-17T07:47:57Z</time>
      </trkpt>
      <trkpt lat="44.31549" lon="5.8291">
        <ele>576</ele>
        <time>2019-08-17T07:47:58Z</time>
      </trkpt>
      <trkpt lat="44.31547" lon="5.82909">
        <ele>576</ele>
        <time>2019-08-17T07:47:59Z</time>
      </trkpt>
      <trkpt lat="44.31544" lon="5.82907">
        <ele>576</ele>
        <time>2019-08-17T07:48:00Z</time>
      </trkpt>
      <trkpt lat="44.31541" lon="5.82904">
        <ele>576</ele>
        <time>2019-08-17T07:48:01Z</time>
      </trkpt>
      <trkpt lat="44.31539" lon="5.82901">
        <ele>576</ele>
        <time>2019-08-17T07:48:02Z</time>
      </trkpt>
      <trkpt lat="44.31536" lon="5.82898">
        <ele>576</ele>
        <time>2019-08-17T07:48:03Z</time>
      </trkpt>
      <trkpt lat="44.31533" lon="5.82894">
        <ele>576</ele>
        <time>2019-08-17T07:48:04Z</time>
      </trkpt>
      <trkpt lat="44.3153" lon="5.82892">
        <ele>576</ele>
        <time>2019-08-17T07:48:05Z</time>
      </trkpt>
      <trkpt lat="44.31528" lon="5.8289">
        <ele>576</ele>
        <time>2019-08-17T07:48:06Z</time>
      </trkpt>
      <trkpt lat="44.31525" lon="5.82887">
        <ele>576</ele>
        <time>2019-08-17T07:48:07Z</time>
      </trkpt>
      <trkpt lat="44.31523" lon="5.82885">
        <ele>576</ele>
        <time>2019-08-17T07:48:08Z</time>
      </trkpt>
      <trkpt lat="44.31521" lon="5.82883">
        <ele>576</ele>
        <time>2019-08-17T07:48:09Z</time>
      </trkpt>
      <trkpt lat="44.31518" lon="5.8288">
        <ele>576</ele>
        <time>2019-08-17T07:48:10Z</time>
      </trkpt>
      <trkpt lat="44.31516" lon="5.82878">
        <ele>576</ele>
        <time>2019-08-17T07:48:11Z</time>
      </trkpt>
      <trkpt lat="44.31513" lon="5.82875">
        <ele>576</ele>
        <time>2019-08-17T07:48:12Z</time>
      </trkpt>
      <trkpt lat="44.3151" lon="5.82873">
        <ele>576</ele>
        <time>2019-08-17T07:48:13Z</time>
      </trkpt>
      <trkpt lat="44.31506" lon="5.82871">
        <ele>576</ele>
        <time>2019-08-17T07:48:14Z</time>
      </trkpt>
      <trkpt lat="44.31502" lon="5.82872">
        <ele>576</ele>
        <time>2019-08-17T07:48:15Z</time>
      </trkpt>
      <trkpt lat="44.31498" lon="5.82874">
        <ele>576</ele>
        <time>2019-08-17T07:48:16Z</time>
      </trkpt>
      <trkpt lat="44.31496" lon="5.82878">
        <ele>575</ele>
        <time>2019-08-17T07:48:17Z</time>
      </trkpt>
      <trkpt lat="44.31493" lon="5.82881">
        <ele>575</ele>
        <time>2019-08-17T07:48:18Z</time>
      </trkpt>
      <trkpt lat="44.3149" lon="5.82885">
        <ele>575</ele>
        <time>2019-08-17T07:48:19Z</time>
      </trkpt>
      <trkpt lat="44.31487" lon="5.82889">
        <ele>575</ele>
        <time>2019-08-17T07:48:20Z</time>
      </trkpt>
      <trkpt lat="44.31485" lon="5.82894">
        <ele>575</ele>
        <time>2019-08-17T07:48:21Z</time>
      </trkpt>
      <trkpt lat="44.31483" lon="5.82898">
        <ele>575</ele>
        <time>2019-08-17T07:48:22Z</time>
      </trkpt>
      <trkpt lat="44.3148" lon="5.82902">
        <ele>575</ele>
        <time>2019-08-17T07:48:23Z</time>
      </trkpt>
      <trkpt lat="44.31478" lon="5.82906">
        <ele>575</ele>
        <time>2019-08-17T07:48:24Z</time>
      </trkpt>
      <trkpt lat="44.31475" lon="5.8291">
        <ele>575</ele>
        <time>2019-08-17T07:48:25Z</time>
      </trkpt>
      <trkpt lat="44.31473" lon="5.82914">
        <ele>575</ele>
        <time>2019-08-17T07:48:26Z</time>
      </trkpt>
      <trkpt lat="44.3147" lon="5.82918">
        <ele>575</ele>
        <time>2019-08-17T07:48:27Z</time>
      </trkpt>
      <trkpt lat="44.31467" lon="5.82922">
        <ele>575</ele>
        <time>2019-08-17T07:48:28Z</time>
      </trkpt>
      <trkpt lat="44.31464" lon="5.82926">
        <ele>575</ele>
        <time>2019-08-17T07:48:29Z</time>
      </trkpt>
      <trkpt lat="44.31462" lon="5.8293">
        <ele>575</ele>
        <time>2019-08-17T07:48:30Z</time>
      </trkpt>
      <trkpt lat="44.31459" lon="5.82935">
        <ele>574</ele>
        <time>2019-08-17T07:48:31Z</time>
      </trkpt>
      <trkpt lat="44.31456" lon="5.82939">
        <ele>574</ele>
        <time>2019-08-17T07:48:32Z</time>
      </trkpt>
      <trkpt lat="44.31453" lon="5.82944">
        <ele>574</ele>
        <time>2019-08-17T07:48:33Z</time>
      </trkpt>
      <trkpt lat="44.3145" lon="5.82948">
        <ele>574</ele>
        <time>2019-08-17T07:48:34Z</time>
      </trkpt>
      <trkpt lat="44.31446" lon="5.82953">
        <ele>574</ele>
        <time>2019-08-17T07:48:35Z</time>
      </trkpt>
      <trkpt lat="44.31443" lon="5.82958">
        <ele>574</ele>
        <time>2019-08-17T07:48:36Z</time>
      </trkpt>
      <trkpt lat="44.3144" lon="5.82962">
        <ele>574</ele>
        <time>2019-08-17T07:48:37Z</time>
      </trkpt>
      <trkpt lat="44.31436" lon="5.82967">
        <ele>574</ele>
        <time>2019-08-17T07:48:38Z</time>
      </trkpt>
      <trkpt lat="44.31433" lon="5.82972">
        <ele>574</ele>
        <time>2019-08-17T07:48:39Z</time>
      </trkpt>
      <trkpt lat="44.3143" lon="5.82977">
        <ele>574</ele>
        <time>2019-08-17T07:48:40Z</time>
      </trkpt>
      <trkpt lat="44.31427" lon="5.82982">
        <ele>574</ele>
        <time>2019-08-17T07:48:41Z</time>
      </trkpt>
      <trkpt lat="44.31424" lon="5.82987">
        <ele>573</ele>
        <time>2019-08-17T07:48:42Z</time>
      </trkpt>
      <trkpt lat="44.31421" lon="5.82992">
        <ele>573</ele>
        <time>2019-08-17T07:48:43Z</time>
      </trkpt>
      <trkpt lat="44.31418" lon="5.82996">
        <ele>573</ele>
        <time>2019-08-17T07:48:44Z</time>
      </trkpt>
      <trkpt lat="44.31415" lon="5.83001">
        <ele>573</ele>
        <time>2019-08-17T07:48:45Z</time>
      </trkpt>
      <trkpt lat="44.31411" lon="5.83006">
        <ele>573</ele>
        <time>2019-08-17T07:48:46Z</time>
      </trkpt>
      <trkpt lat="44.31408" lon="5.8301">
        <ele>573</ele>
        <time>2019-08-17T07:48:47Z</time>
      </trkpt>
      <trkpt lat="44.31405" lon="5.83015">
        <ele>573</ele>
        <time>2019-08-17T07:48:48Z</time>
      </trkpt>
      <trkpt lat="44.31402" lon="5.83019">
        <ele>573</ele>
        <time>2019-08-17T07:48:49Z</time>
      </trkpt>
      <trkpt lat="44.31399" lon="5.83024">
        <ele>573</ele>
        <time>2019-08-17T07:48:50Z</time>
      </trkpt>
      <trkpt lat="44.31396" lon="5.83028">
        <ele>573</ele>
        <time>2019-08-17T07:48:51Z</time>
      </trkpt>
      <trkpt lat="44.31393" lon="5.83033">
        <ele>573</ele>
        <time>2019-08-17T07:48:52Z</time>
      </trkpt>
      <trkpt lat="44.3139" lon="5.83037">
        <ele>573</ele>
        <time>2019-08-17T07:48:53Z</time>
      </trkpt>
      <trkpt lat="44.31387" lon="5.83041">
        <ele>573</ele>
        <time>2019-08-17T07:48:54Z</time>
      </trkpt>
      <trkpt lat="44.31384" lon="5.83045">
        <ele>573</ele>
        <time>2019-08-17T07:48:55Z</time>
      </trkpt>
      <trkpt lat="44.31382" lon="5.83049">
        <ele>573</ele>
        <time>2019-08-17T07:48:56Z</time>
      </trkpt>
      <trkpt lat="44.31379" lon="5.83053">
        <ele>573</ele>
        <time>2019-08-17T07:48:57Z</time>
      </trkpt>
      <trkpt lat="44.31377" lon="5.83057">
        <ele>573</ele>
        <time>2019-08-17T07:48:58Z</time>
      </trkpt>
      <trkpt lat="44.31375" lon="5.83061">
        <ele>573</ele>
        <time>2019-08-17T07:48:59Z</time>
      </trkpt>
      <trkpt lat="44.31373" lon="5.83065">
        <ele>573</ele>
        <time>2019-08-17T07:49:00Z</time>
      </trkpt>
      <trkpt lat="44.31371" lon="5.83069">
        <ele>573</ele>
        <time>2019-08-17T07:49:01Z</time>
      </trkpt>
      <trkpt lat="44.31369" lon="5.83073">
        <ele>573</ele>
        <time>2019-08-17T07:49:02Z</time>
      </trkpt>
      <trkpt lat="44.31367" lon="5.83076">
        <ele>573</ele>
        <time>2019-08-17T07:49:03Z</time>
      </trkpt>
      <trkpt lat="44.31366" lon="5.8308">
        <ele>573</ele>
        <time>2019-08-17T07:49:04Z</time>
      </trkpt>
      <trkpt lat="44.31364" lon="5.83085">
        <ele>573</ele>
        <time>2019-08-17T07:49:05Z</time>
      </trkpt>
      <trkpt lat="44.31364" lon="5.83089">
        <ele>573</ele>
        <time>2019-08-17T07:49:06Z</time>
      </trkpt>
      <trkpt lat="44.31363" lon="5.83092">
        <ele>573</ele>
        <time>2019-08-17T07:49:07Z</time>
      </trkpt>
      <trkpt lat="44.31361" lon="5.83095">
        <ele>573</ele>
        <time>2019-08-17T07:49:08Z</time>
      </trkpt>
      <trkpt lat="44.31359" lon="5.83097">
        <ele>573</ele>
        <time>2019-08-17T07:49:09Z</time>
      </trkpt>
      <trkpt lat="44.31357" lon="5.83099">
        <ele>573</ele>
        <time>2019-08-17T07:49:10Z</time>
      </trkpt>
      <trkpt lat="44.31354" lon="5.831">
        <ele>573</ele>
        <time>2019-08-17T07:49:11Z</time>
      </trkpt>
      <trkpt lat="44.31351" lon="5.83099">
        <ele>573</ele>
        <time>2019-08-17T07:49:12Z</time>
      </trkpt>
      <trkpt lat="44.31349" lon="5.83098">
        <ele>573</ele>
        <time>2019-08-17T07:49:13Z</time>
      </trkpt>
      <trkpt lat="44.31348" lon="5.83095">
        <ele>573</ele>
        <time>2019-08-17T07:49:14Z</time>
      </trkpt>
      <trkpt lat="44.31347" lon="5.83091">
        <ele>573</ele>
        <time>2019-08-17T07:49:15Z</time>
      </trkpt>
      <trkpt lat="44.31347" lon="5.83087">
        <ele>573</ele>
        <time>2019-08-17T07:49:16Z</time>
      </trkpt>
      <trkpt lat="44.31346" lon="5.83083">
        <ele>573</ele>
        <time>2019-08-17T07:49:17Z</time>
      </trkpt>
      <trkpt lat="44.31346" lon="5.83078">
        <ele>573</ele>
        <time>2019-08-17T07:49:18Z</time>
      </trkpt>
      <trkpt lat="44.31346" lon="5.83074">
        <ele>573</ele>
        <time>2019-08-17T07:49:19Z</time>
      </trkpt>
      <trkpt lat="44.31346" lon="5.8307">
        <ele>573</ele>
        <time>2019-08-17T07:49:20Z</time>
      </trkpt>
      <trkpt lat="44.31347" lon="5.83065">
        <ele>573</ele>
        <time>2019-08-17T07:49:21Z</time>
      </trkpt>
      <trkpt lat="44.31348" lon="5.8306">
        <ele>573</ele>
        <time>2019-08-17T07:49:22Z</time>
      </trkpt>
      <trkpt lat="44.31349" lon="5.83055">
        <ele>573</ele>
        <time>2019-08-17T07:49:23Z</time>
      </trkpt>
      <trkpt lat="44.3135" lon="5.83049">
        <ele>573</ele>
        <time>2019-08-17T07:49:24Z</time>
      </trkpt>
      <trkpt lat="44.31351" lon="5.83044">
        <ele>573</ele>
        <time>2019-08-17T07:49:25Z</time>
      </trkpt>
      <trkpt lat="44.31352" lon="5.83038">
        <ele>573</ele>
        <time>2019-08-17T07:49:26Z</time>
      </trkpt>
      <trkpt lat="44.31353" lon="5.83032">
        <ele>573</ele>
        <time>2019-08-17T07:49:27Z</time>
      </trkpt>
      <trkpt lat="44.31354" lon="5.83026">
        <ele>573</ele>
        <time>2019-08-17T07:49:28Z</time>
      </trkpt>
      <trkpt lat="44.31355" lon="5.8302">
        <ele>573</ele>
        <time>2019-08-17T07:49:29Z</time>
      </trkpt>
      <trkpt lat="44.31355" lon="5.83014">
        <ele>573</ele>
        <time>2019-08-17T07:49:30Z</time>
      </trkpt>
      <trkpt lat="44.31356" lon="5.83007">
        <ele>573</ele>
        <time>2019-08-17T07:49:31Z</time>
      </trkpt>
      <trkpt lat="44.31357" lon="5.83001">
        <ele>573</ele>
        <time>2019-08-17T07:49:32Z</time>
      </trkpt>
      <trkpt lat="44.31358" lon="5.82995">
        <ele>573</ele>
        <time>2019-08-17T07:49:33Z</time>
      </trkpt>
      <trkpt lat="44.31359" lon="5.82988">
        <ele>573</ele>
        <time>2019-08-17T07:49:34Z</time>
      </trkpt>
      <trkpt lat="44.3136" lon="5.8298">
        <ele>573</ele>
        <time>2019-08-17T07:49:35Z</time>
      </trkpt>
      <trkpt lat="44.31361" lon="5.82973">
        <ele>573</ele>
        <time>2019-08-17T07:49:36Z</time>
      </trkpt>
      <trkpt lat="44.31361" lon="5.82966">
        <ele>573</ele>
        <time>2019-08-17T07:49:37Z</time>
      </trkpt>
      <trkpt lat="44.31362" lon="5.82958">
        <ele>573</ele>
        <time>2019-08-17T07:49:38Z</time>
      </trkpt>
      <trkpt lat="44.31363" lon="5.8295">
        <ele>572</ele>
        <time>2019-08-17T07:49:39Z</time>
      </trkpt>
      <trkpt lat="44.31364" lon="5.82942">
        <ele>572</ele>
        <time>2019-08-17T07:49:40Z</time>
      </trkpt>
      <trkpt lat="44.31366" lon="5.82934">
        <ele>572</ele>
        <time>2019-08-17T07:49:41Z</time>
      </trkpt>
      <trkpt lat="44.31366" lon="5.82927">
        <ele>572</ele>
        <time>2019-08-17T07:49:42Z</time>
      </trkpt>
      <trkpt lat="44.31367" lon="5.82919">
        <ele>572</ele>
        <time>2019-08-17T07:49:43Z</time>
      </trkpt>
      <trkpt lat="44.31368" lon="5.82911">
        <ele>572</ele>
        <time>2019-08-17T07:49:44Z</time>
      </trkpt>
      <trkpt lat="44.31369" lon="5.82903">
        <ele>571</ele>
        <time>2019-08-17T07:49:45Z</time>
      </trkpt>
      <trkpt lat="44.3137" lon="5.82896">
        <ele>571</ele>
        <time>2019-08-17T07:49:46Z</time>
      </trkpt>
      <trkpt lat="44.31371" lon="5.82889">
        <ele>571</ele>
        <time>2019-08-17T07:49:47Z</time>
      </trkpt>
      <trkpt lat="44.31372" lon="5.82881">
        <ele>571</ele>
        <time>2019-08-17T07:49:48Z</time>
      </trkpt>
      <trkpt lat="44.31372" lon="5.82874">
        <ele>571</ele>
        <time>2019-08-17T07:49:49Z</time>
      </trkpt>
      <trkpt lat="44.31373" lon="5.82867">
        <ele>571</ele>
        <time>2019-08-17T07:49:50Z</time>
      </trkpt>
      <trkpt lat="44.31374" lon="5.8286">
        <ele>571</ele>
        <time>2019-08-17T07:49:51Z</time>
      </trkpt>
      <trkpt lat="44.31375" lon="5.82853">
        <ele>570</ele>
        <time>2019-08-17T07:49:52Z</time>
      </trkpt>
      <trkpt lat="44.31376" lon="5.82845">
        <ele>570</ele>
        <time>2019-08-17T07:49:53Z</time>
      </trkpt>
      <trkpt lat="44.31376" lon="5.82838">
        <ele>570</ele>
        <time>2019-08-17T07:49:54Z</time>
      </trkpt>
      <trkpt lat="44.31377" lon="5.8283">
        <ele>570</ele>
        <time>2019-08-17T07:49:55Z</time>
      </trkpt>
      <trkpt lat="44.31377" lon="5.82824">
        <ele>570</ele>
        <time>2019-08-17T07:49:56Z</time>
      </trkpt>
      <trkpt lat="44.31378" lon="5.82817">
        <ele>570</ele>
        <time>2019-08-17T07:49:57Z</time>
      </trkpt>
      <trkpt lat="44.31378" lon="5.82809">
        <ele>570</ele>
        <time>2019-08-17T07:49:58Z</time>
      </trkpt>
      <trkpt lat="44.31379" lon="5.82802">
        <ele>569</ele>
        <time>2019-08-17T07:49:59Z</time>
      </trkpt>
      <trkpt lat="44.31379" lon="5.82795">
        <ele>569</ele>
        <time>2019-08-17T07:50:00Z</time>
      </trkpt>
      <trkpt lat="44.3138" lon="5.82788">
        <ele>569</ele>
        <time>2019-08-17T07:50:01Z</time>
      </trkpt>
      <trkpt lat="44.3138" lon="5.82781">
        <ele>569</ele>
        <time>2019-08-17T07:50:02Z</time>
      </trkpt>
      <trkpt lat="44.3138" lon="5.82774">
        <ele>569</ele>
        <time>2019-08-17T07:50:03Z</time>
      </trkpt>
      <trkpt lat="44.3138" lon="5.82767">
        <ele>569</ele>
        <time>2019-08-17T07:50:04Z</time>
      </trkpt>
      <trkpt lat="44.3138" lon="5.8276">
        <ele>569</ele>
        <time>2019-08-17T07:50:05Z</time>
      </trkpt>
      <trkpt lat="44.31379" lon="5.82754">
        <ele>569</ele>
        <time>2019-08-17T07:50:06Z</time>
      </trkpt>
      <trkpt lat="44.31379" lon="5.82747">
        <ele>569</ele>
        <time>2019-08-17T07:50:07Z</time>
      </trkpt>
      <trkpt lat="44.31379" lon="5.8274">
        <ele>568</ele>
        <time>2019-08-17T07:50:08Z</time>
      </trkpt>
      <trkpt lat="44.31379" lon="5.82734">
        <ele>568</ele>
        <time>2019-08-17T07:50:09Z</time>
      </trkpt>
      <trkpt lat="44.31378" lon="5.82727">
        <ele>568</ele>
        <time>2019-08-17T07:50:10Z</time>
      </trkpt>
      <trkpt lat="44.31377" lon="5.8272">
        <ele>568</ele>
        <time>2019-08-17T07:50:11Z</time>
      </trkpt>
      <trkpt lat="44.31377" lon="5.82714">
        <ele>568</ele>
        <time>2019-08-17T07:50:12Z</time>
      </trkpt>
      <trkpt lat="44.31377" lon="5.82709">
        <ele>568</ele>
        <time>2019-08-17T07:50:13Z</time>
      </trkpt>
      <trkpt lat="44.31377" lon="5.82704">
        <ele>568</ele>
        <time>2019-08-17T07:50:14Z</time>
      </trkpt>
      <trkpt lat="44.31377" lon="5.82698">
        <ele>568</ele>
        <time>2019-08-17T07:50:15Z</time>
      </trkpt>
      <trkpt lat="44.31377" lon="5.82693">
        <ele>568</ele>
        <time>2019-08-17T07:50:16Z</time>
      </trkpt>
      <trkpt lat="44.31377" lon="5.82687">
        <ele>568</ele>
        <time>2019-08-17T07:50:17Z</time>
      </trkpt>
      <trkpt lat="44.31379" lon="5.8268">
        <ele>568</ele>
        <time>2019-08-17T07:50:18Z</time>
      </trkpt>
      <trkpt lat="44.31381" lon="5.82674">
        <ele>568</ele>
        <time>2019-08-17T07:50:19Z</time>
      </trkpt>
      <trkpt lat="44.31384" lon="5.82667">
        <ele>568</ele>
        <time>2019-08-17T07:50:20Z</time>
      </trkpt>
      <trkpt lat="44.31387" lon="5.8266">
        <ele>568</ele>
        <time>2019-08-17T07:50:21Z</time>
      </trkpt>
      <trkpt lat="44.31391" lon="5.82653">
        <ele>568</ele>
        <time>2019-08-17T07:50:22Z</time>
      </trkpt>
      <trkpt lat="44.31394" lon="5.82646">
        <ele>568</ele>
        <time>2019-08-17T07:50:23Z</time>
      </trkpt>
      <trkpt lat="44.31396" lon="5.82639">
        <ele>568</ele>
        <time>2019-08-17T07:50:24Z</time>
      </trkpt>
      <trkpt lat="44.31399" lon="5.82631">
        <ele>568</ele>
        <time>2019-08-17T07:50:25Z</time>
      </trkpt>
      <trkpt lat="44.31401" lon="5.82623">
        <ele>568</ele>
        <time>2019-08-17T07:50:26Z</time>
      </trkpt>
      <trkpt lat="44.31402" lon="5.82615">
        <ele>568</ele>
        <time>2019-08-17T07:50:27Z</time>
      </trkpt>
      <trkpt lat="44.31404" lon="5.82607">
        <ele>568</ele>
        <time>2019-08-17T07:50:28Z</time>
      </trkpt>
      <trkpt lat="44.31406" lon="5.82599">
        <ele>568</ele>
        <time>2019-08-17T07:50:29Z</time>
      </trkpt>
      <trkpt lat="44.31408" lon="5.82591">
        <ele>568</ele>
        <time>2019-08-17T07:50:30Z</time>
      </trkpt>
      <trkpt lat="44.31409" lon="5.82583">
        <ele>568</ele>
        <time>2019-08-17T07:50:31Z</time>
      </trkpt>
      <trkpt lat="44.31411" lon="5.82575">
        <ele>568</ele>
        <time>2019-08-17T07:50:32Z</time>
      </trkpt>
      <trkpt lat="44.31413" lon="5.82567">
        <ele>568</ele>
        <time>2019-08-17T07:50:33Z</time>
      </trkpt>
      <trkpt lat="44.31415" lon="5.82559">
        <ele>568</ele>
        <time>2019-08-17T07:50:34Z</time>
      </trkpt>
      <trkpt lat="44.31417" lon="5.82551">
        <ele>568</ele>
        <time>2019-08-17T07:50:35Z</time>
      </trkpt>
      <trkpt lat="44.31419" lon="5.82543">
        <ele>568</ele>
        <time>2019-08-17T07:50:36Z</time>
      </trkpt>
      <trkpt lat="44.3142" lon="5.82535">
        <ele>568</ele>
        <time>2019-08-17T07:50:37Z</time>
      </trkpt>
      <trkpt lat="44.31422" lon="5.82527">
        <ele>568</ele>
        <time>2019-08-17T07:50:38Z</time>
      </trkpt>
      <trkpt lat="44.31424" lon="5.82518">
        <ele>568</ele>
        <time>2019-08-17T07:50:39Z</time>
      </trkpt>
      <trkpt lat="44.31426" lon="5.8251">
        <ele>568</ele>
        <time>2019-08-17T07:50:40Z</time>
      </trkpt>
      <trkpt lat="44.31428" lon="5.82502">
        <ele>568</ele>
        <time>2019-08-17T07:50:41Z</time>
      </trkpt>
      <trkpt lat="44.3143" lon="5.82494">
        <ele>568</ele>
        <time>2019-08-17T07:50:42Z</time>
      </trkpt>
      <trkpt lat="44.31432" lon="5.82485">
        <ele>568</ele>
        <time>2019-08-17T07:50:43Z</time>
      </trkpt>
      <trkpt lat="44.31434" lon="5.82477">
        <ele>568</ele>
        <time>2019-08-17T07:50:44Z</time>
      </trkpt>
      <trkpt lat="44.31437" lon="5.82469">
        <ele>568</ele>
        <time>2019-08-17T07:50:45Z</time>
      </trkpt>
      <trkpt lat="44.31438" lon="5.82461">
        <ele>568</ele>
        <time>2019-08-17T07:50:46Z</time>
      </trkpt>
      <trkpt lat="44.3144" lon="5.82451">
        <ele>568</ele>
        <time>2019-08-17T07:50:47Z</time>
      </trkpt>
      <trkpt lat="44.31441" lon="5.82443">
        <ele>568</ele>
        <time>2019-08-17T07:50:48Z</time>
      </trkpt>
      <trkpt lat="44.31443" lon="5.82436">
        <ele>568</ele>
        <time>2019-08-17T07:50:49Z</time>
      </trkpt>
      <trkpt lat="44.31443" lon="5.82428">
        <ele>568</ele>
        <time>2019-08-17T07:50:50Z</time>
      </trkpt>
      <trkpt lat="44.31444" lon="5.82421">
        <ele>568</ele>
        <time>2019-08-17T07:50:51Z</time>
      </trkpt>
      <trkpt lat="44.31444" lon="5.82413">
        <ele>568</ele>
        <time>2019-08-17T07:50:52Z</time>
      </trkpt>
      <trkpt lat="44.31443" lon="5.82406">
        <ele>568</ele>
        <time>2019-08-17T07:50:53Z</time>
      </trkpt>
      <trkpt lat="44.31444" lon="5.824">
        <ele>568</ele>
        <time>2019-08-17T07:50:54Z</time>
      </trkpt>
      <trkpt lat="44.31443" lon="5.82395">
        <ele>568</ele>
        <time>2019-08-17T07:50:55Z</time>
      </trkpt>
      <trkpt lat="44.31443" lon="5.8239">
        <ele>568</ele>
        <time>2019-08-17T07:50:56Z</time>
      </trkpt>
      <trkpt lat="44.31443" lon="5.82385">
        <ele>568</ele>
        <time>2019-08-17T07:50:57Z</time>
      </trkpt>
      <trkpt lat="44.31442" lon="5.8238">
        <ele>568</ele>
        <time>2019-08-17T07:50:58Z</time>
      </trkpt>
      <trkpt lat="44.31442" lon="5.82375">
        <ele>568</ele>
        <time>2019-08-17T07:50:59Z</time>
      </trkpt>
      <trkpt lat="44.31442" lon="5.8237">
        <ele>568</ele>
        <time>2019-08-17T07:51:00Z</time>
      </trkpt>
      <trkpt lat="44.3144" lon="5.82363">
        <ele>569</ele>
        <time>2019-08-17T07:51:01Z</time>
      </trkpt>
      <trkpt lat="44.31441" lon="5.82361">
        <ele>570</ele>
        <time>2019-08-17T07:51:02Z</time>
      </trkpt>
      <trkpt lat="44.31444" lon="5.82362">
        <ele>571</ele>
        <time>2019-08-17T07:51:03Z</time>
      </trkpt>
      <trkpt lat="44.31448" lon="5.82367">
        <ele>571</ele>
        <time>2019-08-17T07:51:04Z</time>
      </trkpt>
      <trkpt lat="44.31454" lon="5.82373">
        <ele>572</ele>
        <time>2019-08-17T07:51:05Z</time>
      </trkpt>
      <trkpt lat="44.31459" lon="5.82378">
        <ele>572</ele>
        <time>2019-08-17T07:51:06Z</time>
      </trkpt>
      <trkpt lat="44.31463" lon="5.82383">
        <ele>572</ele>
        <time>2019-08-17T07:51:07Z</time>
      </trkpt>
      <trkpt lat="44.31466" lon="5.82389">
        <ele>572</ele>
        <time>2019-08-17T07:51:08Z</time>
      </trkpt>
      <trkpt lat="44.3147" lon="5.82394">
        <ele>572</ele>
        <time>2019-08-17T07:51:09Z</time>
      </trkpt>
      <trkpt lat="44.31474" lon="5.824">
        <ele>572</ele>
        <time>2019-08-17T07:51:10Z</time>
      </trkpt>
      <trkpt lat="44.31478" lon="5.82406">
        <ele>572</ele>
        <time>2019-08-17T07:51:11Z</time>
      </trkpt>
      <trkpt lat="44.31482" lon="5.82412">
        <ele>572</ele>
        <time>2019-08-17T07:51:12Z</time>
      </trkpt>
      <trkpt lat="44.31487" lon="5.82418">
        <ele>572</ele>
        <time>2019-08-17T07:51:13Z</time>
      </trkpt>
      <trkpt lat="44.31492" lon="5.82423">
        <ele>572</ele>
        <time>2019-08-17T07:51:14Z</time>
      </trkpt>
      <trkpt lat="44.31497" lon="5.82428">
        <ele>572</ele>
        <time>2019-08-17T07:51:15Z</time>
      </trkpt>
      <trkpt lat="44.31503" lon="5.82434">
        <ele>572</ele>
        <time>2019-08-17T07:51:16Z</time>
      </trkpt>
      <trkpt lat="44.31509" lon="5.8244">
        <ele>572</ele>
        <time>2019-08-17T07:51:17Z</time>
      </trkpt>
      <trkpt lat="44.31515" lon="5.82444">
        <ele>572</ele>
        <time>2019-08-17T07:51:18Z</time>
      </trkpt>
      <trkpt lat="44.31521" lon="5.8245">
        <ele>572</ele>
        <time>2019-08-17T07:51:19Z</time>
      </trkpt>
      <trkpt lat="44.31526" lon="5.82455">
        <ele>572</ele>
        <time>2019-08-17T07:51:20Z</time>
      </trkpt>
      <trkpt lat="44.31532" lon="5.82461">
        <ele>572</ele>
        <time>2019-08-17T07:51:21Z</time>
      </trkpt>
      <trkpt lat="44.31537" lon="5.82467">
        <ele>571</ele>
        <time>2019-08-17T07:51:22Z</time>
      </trkpt>
      <trkpt lat="44.31542" lon="5.82472">
        <ele>571</ele>
        <time>2019-08-17T07:51:23Z</time>
      </trkpt>
      <trkpt lat="44.31547" lon="5.82477">
        <ele>571</ele>
        <time>2019-08-17T07:51:24Z</time>
      </trkpt>
      <trkpt lat="44.31552" lon="5.82482">
        <ele>571</ele>
        <time>2019-08-17T07:51:25Z</time>
      </trkpt>
      <trkpt lat="44.31557" lon="5.82487">
        <ele>571</ele>
        <time>2019-08-17T07:51:26Z</time>
      </trkpt>
      <trkpt lat="44.31563" lon="5.82492">
        <ele>571</ele>
        <time>2019-08-17T07:51:27Z</time>
      </trkpt>
      <trkpt lat="44.31568" lon="5.82497">
        <ele>570</ele>
        <time>2019-08-17T07:51:28Z</time>
      </trkpt>
      <trkpt lat="44.31573" lon="5.82501">
        <ele>570</ele>
        <time>2019-08-17T07:51:29Z</time>
      </trkpt>
      <trkpt lat="44.31578" lon="5.82506">
        <ele>570</ele>
        <time>2019-08-17T07:51:30Z</time>
      </trkpt>
      <trkpt lat="44.31583" lon="5.82511">
        <ele>570</ele>
        <time>2019-08-17T07:51:31Z</time>
      </trkpt>
      <trkpt lat="44.31588" lon="5.82515">
        <ele>569</ele>
        <time>2019-08-17T07:51:32Z</time>
      </trkpt>
      <trkpt lat="44.31593" lon="5.8252">
        <ele>569</ele>
        <time>2019-08-17T07:51:33Z</time>
      </trkpt>
      <trkpt lat="44.31598" lon="5.82525">
        <ele>569</ele>
        <time>2019-08-17T07:51:34Z</time>
      </trkpt>
      <trkpt lat="44.31603" lon="5.82529">
        <ele>569</ele>
        <time>2019-08-17T07:51:35Z</time>
      </trkpt>
      <trkpt lat="44.31608" lon="5.82533">
        <ele>569</ele>
        <time>2019-08-17T07:51:36Z</time>
      </trkpt>
      <trkpt lat="44.31612" lon="5.82538">
        <ele>569</ele>
        <time>2019-08-17T07:51:37Z</time>
      </trkpt>
      <trkpt lat="44.31617" lon="5.82542">
        <ele>569</ele>
        <time>2019-08-17T07:51:38Z</time>
      </trkpt>
      <trkpt lat="44.3162" lon="5.82546">
        <ele>569</ele>
        <time>2019-08-17T07:51:39Z</time>
      </trkpt>
      <trkpt lat="44.31625" lon="5.8255">
        <ele>569</ele>
        <time>2019-08-17T07:51:40Z</time>
      </trkpt>
      <trkpt lat="44.3163" lon="5.82555">
        <ele>569</ele>
        <time>2019-08-17T07:51:41Z</time>
      </trkpt>
      <trkpt lat="44.31634" lon="5.82559">
        <ele>569</ele>
        <time>2019-08-17T07:51:42Z</time>
      </trkpt>
      <trkpt lat="44.31638" lon="5.82564">
        <ele>569</ele>
        <time>2019-08-17T07:51:43Z</time>
      </trkpt>
      <trkpt lat="44.31643" lon="5.82569">
        <ele>569</ele>
        <time>2019-08-17T07:51:44Z</time>
      </trkpt>
      <trkpt lat="44.31647" lon="5.82574">
        <ele>569</ele>
        <time>2019-08-17T07:51:45Z</time>
      </trkpt>
      <trkpt lat="44.31651" lon="5.82578">
        <ele>569</ele>
        <time>2019-08-17T07:51:46Z</time>
      </trkpt>
      <trkpt lat="44.31656" lon="5.82582">
        <ele>569</ele>
        <time>2019-08-17T07:51:47Z</time>
      </trkpt>
      <trkpt lat="44.3166" lon="5.82587">
        <ele>569</ele>
        <time>2019-08-17T07:51:48Z</time>
      </trkpt>
      <trkpt lat="44.31665" lon="5.82591">
        <ele>569</ele>
        <time>2019-08-17T07:51:49Z</time>
      </trkpt>
      <trkpt lat="44.31669" lon="5.82596">
        <ele>569</ele>
        <time>2019-08-17T07:51:50Z</time>
      </trkpt>
      <trkpt lat="44.31673" lon="5.826">
        <ele>569</ele>
        <time>2019-08-17T07:51:51Z</time>
      </trkpt>
      <trkpt lat="44.31677" lon="5.82605">
        <ele>569</ele>
        <time>2019-08-17T07:51:52Z</time>
      </trkpt>
      <trkpt lat="44.31682" lon="5.8261">
        <ele>569</ele>
        <time>2019-08-17T07:51:53Z</time>
      </trkpt>
      <trkpt lat="44.31686" lon="5.82614">
        <ele>569</ele>
        <time>2019-08-17T07:51:54Z</time>
      </trkpt>
      <trkpt lat="44.31691" lon="5.82618">
        <ele>569</ele>
        <time>2019-08-17T07:51:55Z</time>
      </trkpt>
      <trkpt lat="44.31695" lon="5.82622">
        <ele>569</ele>
        <time>2019-08-17T07:51:56Z</time>
      </trkpt>
      <trkpt lat="44.31699" lon="5.82627">
        <ele>569</ele>
        <time>2019-08-17T07:51:57Z</time>
      </trkpt>
      <trkpt lat="44.31704" lon="5.82631">
        <ele>569</ele>
        <time>2019-08-17T07:51:58Z</time>
      </trkpt>
      <trkpt lat="44.31708" lon="5.82635">
        <ele>569</ele>
        <time>2019-08-17T07:51:59Z</time>
      </trkpt>
      <trkpt lat="44.31712" lon="5.8264">
        <ele>569</ele>
        <time>2019-08-17T07:52:00Z</time>
      </trkpt>
      <trkpt lat="44.31716" lon="5.82644">
        <ele>569</ele>
        <time>2019-08-17T07:52:01Z</time>
      </trkpt>
      <trkpt lat="44.31721" lon="5.82649">
        <ele>569</ele>
        <time>2019-08-17T07:52:02Z</time>
      </trkpt>
      <trkpt lat="44.31725" lon="5.82653">
        <ele>569</ele>
        <time>2019-08-17T07:52:03Z</time>
      </trkpt>
      <trkpt lat="44.3173" lon="5.82657">
        <ele>569</ele>
        <time>2019-08-17T07:52:04Z</time>
      </trkpt>
      <trkpt lat="44.31734" lon="5.82661">
        <ele>569</ele>
        <time>2019-08-17T07:52:05Z</time>
      </trkpt>
      <trkpt lat="44.31738" lon="5.82666">
        <ele>569</ele>
        <time>2019-08-17T07:52:06Z</time>
      </trkpt>
      <trkpt lat="44.31743" lon="5.8267">
        <ele>569</ele>
        <time>2019-08-17T07:52:07Z</time>
      </trkpt>
      <trkpt lat="44.31747" lon="5.82674">
        <ele>569</ele>
        <time>2019-08-17T07:52:08Z</time>
      </trkpt>
      <trkpt lat="44.31751" lon="5.82679">
        <ele>569</ele>
        <time>2019-08-17T07:52:09Z</time>
      </trkpt>
      <trkpt lat="44.31756" lon="5.82683">
        <ele>569</ele>
        <time>2019-08-17T07:52:10Z</time>
      </trkpt>
      <trkpt lat="44.3176" lon="5.82688">
        <ele>569</ele>
        <time>2019-08-17T07:52:11Z</time>
      </trkpt>
      <trkpt lat="44.31765" lon="5.82692">
        <ele>569</ele>
        <time>2019-08-17T07:52:12Z</time>
      </trkpt>
      <trkpt lat="44.31769" lon="5.82697">
        <ele>569</ele>
        <time>2019-08-17T07:52:13Z</time>
      </trkpt>
      <trkpt lat="44.31774" lon="5.82701">
        <ele>569</ele>
        <time>2019-08-17T07:52:14Z</time>
      </trkpt>
      <trkpt lat="44.31778" lon="5.82706">
        <ele>569</ele>
        <time>2019-08-17T07:52:15Z</time>
      </trkpt>
      <trkpt lat="44.31782" lon="5.8271">
        <ele>569</ele>
        <time>2019-08-17T07:52:16Z</time>
      </trkpt>
      <trkpt lat="44.31787" lon="5.82715">
        <ele>569</ele>
        <time>2019-08-17T07:52:17Z</time>
      </trkpt>
      <trkpt lat="44.31791" lon="5.8272">
        <ele>569</ele>
        <time>2019-08-17T07:52:18Z</time>
      </trkpt>
      <trkpt lat="44.31796" lon="5.82724">
        <ele>569</ele>
        <time>2019-08-17T07:52:19Z</time>
      </trkpt>
      <trkpt lat="44.318" lon="5.82729">
        <ele>569</ele>
        <time>2019-08-17T07:52:20Z</time>
      </trkpt>
      <trkpt lat="44.31805" lon="5.82733">
        <ele>569</ele>
        <time>2019-08-17T07:52:21Z</time>
      </trkpt>
      <trkpt lat="44.31809" lon="5.82738">
        <ele>569</ele>
        <time>2019-08-17T07:52:22Z</time>
      </trkpt>
      <trkpt lat="44.31814" lon="5.82743">
        <ele>569</ele>
        <time>2019-08-17T07:52:23Z</time>
      </trkpt>
      <trkpt lat="44.31819" lon="5.82747">
        <ele>569</ele>
        <time>2019-08-17T07:52:24Z</time>
      </trkpt>
      <trkpt lat="44.31823" lon="5.82751">
        <ele>569</ele>
        <time>2019-08-17T07:52:25Z</time>
      </trkpt>
      <trkpt lat="44.31828" lon="5.82755">
        <ele>569</ele>
        <time>2019-08-17T07:52:26Z</time>
      </trkpt>
      <trkpt lat="44.31833" lon="5.82758">
        <ele>569</ele>
        <time>2019-08-17T07:52:27Z</time>
      </trkpt>
      <trkpt lat="44.31838" lon="5.82761">
        <ele>569</ele>
        <time>2019-08-17T07:52:28Z</time>
      </trkpt>
      <trkpt lat="44.31843" lon="5.82764">
        <ele>569</ele>
        <time>2019-08-17T07:52:29Z</time>
      </trkpt>
      <trkpt lat="44.31848" lon="5.82766">
        <ele>569</ele>
        <time>2019-08-17T07:52:30Z</time>
      </trkpt>
      <trkpt lat="44.31853" lon="5.82768">
        <ele>569</ele>
        <time>2019-08-17T07:52:31Z</time>
      </trkpt>
      <trkpt lat="44.31859" lon="5.8277">
        <ele>569</ele>
        <time>2019-08-17T07:52:32Z</time>
      </trkpt>
      <trkpt lat="44.31864" lon="5.82772">
        <ele>569</ele>
        <time>2019-08-17T07:52:33Z</time>
      </trkpt>
      <trkpt lat="44.31869" lon="5.82773">
        <ele>569</ele>
        <time>2019-08-17T07:52:34Z</time>
      </trkpt>
      <trkpt lat="44.31874" lon="5.82774">
        <ele>569</ele>
        <time>2019-08-17T07:52:35Z</time>
      </trkpt>
      <trkpt lat="44.3188" lon="5.82775">
        <ele>569</ele>
        <time>2019-08-17T07:52:36Z</time>
      </trkpt>
      <trkpt lat="44.31885" lon="5.82775">
        <ele>569</ele>
        <time>2019-08-17T07:52:37Z</time>
      </trkpt>
      <trkpt lat="44.3189" lon="5.82776">
        <ele>569</ele>
        <time>2019-08-17T07:52:38Z</time>
      </trkpt>
      <trkpt lat="44.31896" lon="5.82776">
        <ele>569</ele>
        <time>2019-08-17T07:52:39Z</time>
      </trkpt>
      <trkpt lat="44.31901" lon="5.82777">
        <ele>569</ele>
        <time>2019-08-17T07:52:40Z</time>
      </trkpt>
      <trkpt lat="44.31906" lon="5.82777">
        <ele>569</ele>
        <time>2019-08-17T07:52:41Z</time>
      </trkpt>
      <trkpt lat="44.31912" lon="5.82777">
        <ele>569</ele>
        <time>2019-08-17T07:52:42Z</time>
      </trkpt>
      <trkpt lat="44.31917" lon="5.82778">
        <ele>569</ele>
        <time>2019-08-17T07:52:43Z</time>
      </trkpt>
      <trkpt lat="44.31922" lon="5.82778">
        <ele>569</ele>
        <time>2019-08-17T07:52:44Z</time>
      </trkpt>
      <trkpt lat="44.31927" lon="5.82778">
        <ele>569</ele>
        <time>2019-08-17T07:52:45Z</time>
      </trkpt>
      <trkpt lat="44.31932" lon="5.82779">
        <ele>569</ele>
        <time>2019-08-17T07:52:46Z</time>
      </trkpt>
      <trkpt lat="44.31937" lon="5.8278">
        <ele>569</ele>
        <time>2019-08-17T07:52:47Z</time>
      </trkpt>
      <trkpt lat="44.31942" lon="5.82781">
        <ele>569</ele>
        <time>2019-08-17T07:52:48Z</time>
      </trkpt>
      <trkpt lat="44.31947" lon="5.82782">
        <ele>569</ele>
        <time>2019-08-17T07:52:49Z</time>
      </trkpt>
      <trkpt lat="44.31952" lon="5.82784">
        <ele>569</ele>
        <time>2019-08-17T07:52:50Z</time>
      </trkpt>
      <trkpt lat="44.31956" lon="5.82786">
        <ele>569</ele>
        <time>2019-08-17T07:52:51Z</time>
      </trkpt>
      <trkpt lat="44.31961" lon="5.82788">
        <ele>570</ele>
        <time>2019-08-17T07:52:52Z</time>
      </trkpt>
      <trkpt lat="44.31966" lon="5.8279">
        <ele>570</ele>
        <time>2019-08-17T07:52:53Z</time>
      </trkpt>
      <trkpt lat="44.31971" lon="5.82792">
        <ele>570</ele>
        <time>2019-08-17T07:52:54Z</time>
      </trkpt>
      <trkpt lat="44.31976" lon="5.82794">
        <ele>570</ele>
        <time>2019-08-17T07:52:55Z</time>
      </trkpt>
      <trkpt lat="44.31981" lon="5.82796">
        <ele>570</ele>
        <time>2019-08-17T07:52:56Z</time>
      </trkpt>
      <trkpt lat="44.31986" lon="5.82797">
        <ele>570</ele>
        <time>2019-08-17T07:52:57Z</time>
      </trkpt>
      <trkpt lat="44.31991" lon="5.82799">
        <ele>570</ele>
        <time>2019-08-17T07:52:58Z</time>
      </trkpt>
      <trkpt lat="44.31996" lon="5.82801">
        <ele>570</ele>
        <time>2019-08-17T07:52:59Z</time>
      </trkpt>
      <trkpt lat="44.32001" lon="5.82803">
        <ele>571</ele>
        <time>2019-08-17T07:53:00Z</time>
      </trkpt>
      <trkpt lat="44.32005" lon="5.82805">
        <ele>571</ele>
        <time>2019-08-17T07:53:01Z</time>
      </trkpt>
      <trkpt lat="44.3201" lon="5.82807">
        <ele>571</ele>
        <time>2019-08-17T07:53:02Z</time>
      </trkpt>
      <trkpt lat="44.32014" lon="5.82809">
        <ele>572</ele>
        <time>2019-08-17T07:53:03Z</time>
      </trkpt>
      <trkpt lat="44.32018" lon="5.82811">
        <ele>572</ele>
        <time>2019-08-17T07:53:04Z</time>
      </trkpt>
      <trkpt lat="44.32022" lon="5.82814">
        <ele>572</ele>
        <time>2019-08-17T07:53:05Z</time>
      </trkpt>
      <trkpt lat="44.32026" lon="5.82816">
        <ele>573</ele>
        <time>2019-08-17T07:53:06Z</time>
      </trkpt>
      <trkpt lat="44.32029" lon="5.82819">
        <ele>573</ele>
        <time>2019-08-17T07:53:07Z</time>
      </trkpt>
      <trkpt lat="44.32033" lon="5.82821">
        <ele>573</ele>
        <time>2019-08-17T07:53:08Z</time>
      </trkpt>
      <trkpt lat="44.32037" lon="5.82823">
        <ele>573</ele>
        <time>2019-08-17T07:53:09Z</time>
      </trkpt>
      <trkpt lat="44.3204" lon="5.82826">
        <ele>574</ele>
        <time>2019-08-17T07:53:10Z</time>
      </trkpt>
      <trkpt lat="44.32043" lon="5.82829">
        <ele>574</ele>
        <time>2019-08-17T07:53:11Z</time>
      </trkpt>
      <trkpt lat="44.32047" lon="5.82831">
        <ele>574</ele>
        <time>2019-08-17T07:53:12Z</time>
      </trkpt>
      <trkpt lat="44.3205" lon="5.82834">
        <ele>575</ele>
        <time>2019-08-17T07:53:13Z</time>
      </trkpt>
      <trkpt lat="44.32054" lon="5.82836">
        <ele>575</ele>
        <time>2019-08-17T07:53:14Z</time>
      </trkpt>
      <trkpt lat="44.32057" lon="5.82838">
        <ele>575</ele>
        <time>2019-08-17T07:53:15Z</time>
      </trkpt>
      <trkpt lat="44.32061" lon="5.82841">
        <ele>575</ele>
        <time>2019-08-17T07:53:16Z</time>
      </trkpt>
      <trkpt lat="44.32064" lon="5.82843">
        <ele>576</ele>
        <time>2019-08-17T07:53:17Z</time>
      </trkpt>
      <trkpt lat="44.32067" lon="5.82845">
        <ele>576</ele>
        <time>2019-08-17T07:53:18Z</time>
      </trkpt>
      <trkpt lat="44.3207" lon="5.82847">
        <ele>576</ele>
        <time>2019-08-17T07:53:19Z</time>
      </trkpt>
      <trkpt lat="44.32074" lon="5.82849">
        <ele>576</ele>
        <time>2019-08-17T07:53:20Z</time>
      </trkpt>
      <trkpt lat="44.32077" lon="5.8285">
        <ele>577</ele>
        <time>2019-08-17T07:53:21Z</time>
      </trkpt>
      <trkpt lat="44.3208" lon="5.82852">
        <ele>577</ele>
        <time>2019-08-17T07:53:22Z</time>
      </trkpt>
      <trkpt lat="44.32084" lon="5.82853">
        <ele>577</ele>
        <time>2019-08-17T07:53:23Z</time>
      </trkpt>
      <trkpt lat="44.32087" lon="5.82855">
        <ele>578</ele>
        <time>2019-08-17T07:53:24Z</time>
      </trkpt>
      <trkpt lat="44.32091" lon="5.82856">
        <ele>578</ele>
        <time>2019-08-17T07:53:25Z</time>
      </trkpt>
      <trkpt lat="44.32094" lon="5.82857">
        <ele>578</ele>
        <time>2019-08-17T07:53:26Z</time>
      </trkpt>
      <trkpt lat="44.32098" lon="5.82859">
        <ele>578</ele>
        <time>2019-08-17T07:53:27Z</time>
      </trkpt>
      <trkpt lat="44.32102" lon="5.8286">
        <ele>579</ele>
        <time>2019-08-17T07:53:28Z</time>
      </trkpt>
      <trkpt lat="44.32106" lon="5.82861">
        <ele>579</ele>
        <time>2019-08-17T07:53:29Z</time>
      </trkpt>
      <trkpt lat="44.32109" lon="5.82862">
        <ele>579</ele>
        <time>2019-08-17T07:53:30Z</time>
      </trkpt>
      <trkpt lat="44.32113" lon="5.82863">
        <ele>579</ele>
        <time>2019-08-17T07:53:31Z</time>
      </trkpt>
      <trkpt lat="44.32117" lon="5.82863">
        <ele>579</ele>
        <time>2019-08-17T07:53:32Z</time>
      </trkpt>
      <trkpt lat="44.32121" lon="5.82864">
        <ele>579</ele>
        <time>2019-08-17T07:53:33Z</time>
      </trkpt>
      <trkpt lat="44.32125" lon="5.82865">
        <ele>579</ele>
        <time>2019-08-17T07:53:34Z</time>
      </trkpt>
      <trkpt lat="44.3213" lon="5.82866">
        <ele>579</ele>
        <time>2019-08-17T07:53:35Z</time>
      </trkpt>
      <trkpt lat="44.32133" lon="5.82867">
        <ele>579</ele>
        <time>2019-08-17T07:53:36Z</time>
      </trkpt>
      <trkpt lat="44.32138" lon="5.82869">
        <ele>579</ele>
        <time>2019-08-17T07:53:37Z</time>
      </trkpt>
      <trkpt lat="44.32142" lon="5.82871">
        <ele>579</ele>
        <time>2019-08-17T07:53:38Z</time>
      </trkpt>
      <trkpt lat="44.32146" lon="5.82873">
        <ele>579</ele>
        <time>2019-08-17T07:53:39Z</time>
      </trkpt>
      <trkpt lat="44.3215" lon="5.82874">
        <ele>579</ele>
        <time>2019-08-17T07:53:40Z</time>
      </trkpt>
      <trkpt lat="44.32154" lon="5.82876">
        <ele>579</ele>
        <time>2019-08-17T07:53:41Z</time>
      </trkpt>
      <trkpt lat="44.32158" lon="5.82877">
        <ele>579</ele>
        <time>2019-08-17T07:53:42Z</time>
      </trkpt>
      <trkpt lat="44.32163" lon="5.82879">
        <ele>579</ele>
        <time>2019-08-17T07:53:43Z</time>
      </trkpt>
      <trkpt lat="44.32167" lon="5.82881">
        <ele>579</ele>
        <time>2019-08-17T07:53:44Z</time>
      </trkpt>
      <trkpt lat="44.32171" lon="5.82884">
        <ele>579</ele>
        <time>2019-08-17T07:53:45Z</time>
      </trkpt>
      <trkpt lat="44.32176" lon="5.82886">
        <ele>579</ele>
        <time>2019-08-17T07:53:46Z</time>
      </trkpt>
      <trkpt lat="44.3218" lon="5.82888">
        <ele>579</ele>
        <time>2019-08-17T07:53:47Z</time>
      </trkpt>
      <trkpt lat="44.32185" lon="5.82891">
        <ele>579</ele>
        <time>2019-08-17T07:53:48Z</time>
      </trkpt>
      <trkpt lat="44.3219" lon="5.82893">
        <ele>579</ele>
        <time>2019-08-17T07:53:49Z</time>
      </trkpt>
      <trkpt lat="44.32194" lon="5.82895">
        <ele>579</ele>
        <time>2019-08-17T07:53:50Z</time>
      </trkpt>
      <trkpt lat="44.32199" lon="5.82898">
        <ele>579</ele>
        <time>2019-08-17T07:53:51Z</time>
      </trkpt>
      <trkpt lat="44.32203" lon="5.829">
        <ele>579</ele>
        <time>2019-08-17T07:53:52Z</time>
      </trkpt>
      <trkpt lat="44.32208" lon="5.82902">
        <ele>579</ele>
        <time>2019-08-17T07:53:53Z</time>
      </trkpt>
      <trkpt lat="44.32213" lon="5.82904">
        <ele>579</ele>
        <time>2019-08-17T07:53:54Z</time>
      </trkpt>
      <trkpt lat="44.32218" lon="5.82906">
        <ele>579</ele>
        <time>2019-08-17T07:53:55Z</time>
      </trkpt>
      <trkpt lat="44.32223" lon="5.82909">
        <ele>579</ele>
        <time>2019-08-17T07:53:56Z</time>
      </trkpt>
      <trkpt lat="44.32228" lon="5.82912">
        <ele>579</ele>
        <time>2019-08-17T07:53:57Z</time>
      </trkpt>
      <trkpt lat="44.32232" lon="5.82914">
        <ele>579</ele>
        <time>2019-08-17T07:53:58Z</time>
      </trkpt>
      <trkpt lat="44.32238" lon="5.82917">
        <ele>579</ele>
        <time>2019-08-17T07:53:59Z</time>
      </trkpt>
      <trkpt lat="44.32243" lon="5.8292">
        <ele>579</ele>
        <time>2019-08-17T07:54:00Z</time>
      </trkpt>
      <trkpt lat="44.32248" lon="5.82923">
        <ele>579</ele>
        <time>2019-08-17T07:54:01Z</time>
      </trkpt>
      <trkpt lat="44.32253" lon="5.82925">
        <ele>580</ele>
        <time>2019-08-17T07:54:02Z</time>
      </trkpt>
      <trkpt lat="44.32257" lon="5.82927">
        <ele>580</ele>
        <time>2019-08-17T07:54:03Z</time>
      </trkpt>
      <trkpt lat="44.32262" lon="5.8293">
        <ele>580</ele>
        <time>2019-08-17T07:54:04Z</time>
      </trkpt>
      <trkpt lat="44.32267" lon="5.82932">
        <ele>580</ele>
        <time>2019-08-17T07:54:05Z</time>
      </trkpt>
      <trkpt lat="44.32271" lon="5.82934">
        <ele>580</ele>
        <time>2019-08-17T07:54:06Z</time>
      </trkpt>
      <trkpt lat="44.32276" lon="5.82937">
        <ele>580</ele>
        <time>2019-08-17T07:54:07Z</time>
      </trkpt>
      <trkpt lat="44.32281" lon="5.82939">
        <ele>580</ele>
        <time>2019-08-17T07:54:08Z</time>
      </trkpt>
      <trkpt lat="44.32286" lon="5.82941">
        <ele>580</ele>
        <time>2019-08-17T07:54:09Z</time>
      </trkpt>
      <trkpt lat="44.3229" lon="5.82943">
        <ele>580</ele>
        <time>2019-08-17T07:54:10Z</time>
      </trkpt>
      <trkpt lat="44.32295" lon="5.82946">
        <ele>581</ele>
        <time>2019-08-17T07:54:11Z</time>
      </trkpt>
      <trkpt lat="44.32299" lon="5.82948">
        <ele>581</ele>
        <time>2019-08-17T07:54:12Z</time>
      </trkpt>
      <trkpt lat="44.32304" lon="5.8295">
        <ele>581</ele>
        <time>2019-08-17T07:54:13Z</time>
      </trkpt>
      <trkpt lat="44.32309" lon="5.82953">
        <ele>581</ele>
        <time>2019-08-17T07:54:14Z</time>
      </trkpt>
      <trkpt lat="44.32313" lon="5.82956">
        <ele>581</ele>
        <time>2019-08-17T07:54:15Z</time>
      </trkpt>
      <trkpt lat="44.32317" lon="5.82958">
        <ele>581</ele>
        <time>2019-08-17T07:54:16Z</time>
      </trkpt>
      <trkpt lat="44.32322" lon="5.8296">
        <ele>581</ele>
        <time>2019-08-17T07:54:17Z</time>
      </trkpt>
      <trkpt lat="44.32326" lon="5.82963">
        <ele>582</ele>
        <time>2019-08-17T07:54:18Z</time>
      </trkpt>
      <trkpt lat="44.32331" lon="5.82966">
        <ele>582</ele>
        <time>2019-08-17T07:54:19Z</time>
      </trkpt>
      <trkpt lat="44.32336" lon="5.82969">
        <ele>582</ele>
        <time>2019-08-17T07:54:20Z</time>
      </trkpt>
      <trkpt lat="44.3234" lon="5.82972">
        <ele>582</ele>
        <time>2019-08-17T07:54:21Z</time>
      </trkpt>
      <trkpt lat="44.32344" lon="5.82975">
        <ele>582</ele>
        <time>2019-08-17T07:54:22Z</time>
      </trkpt>
      <trkpt lat="44.32348" lon="5.82979">
        <ele>582</ele>
        <time>2019-08-17T07:54:23Z</time>
      </trkpt>
      <trkpt lat="44.32352" lon="5.82984">
        <ele>583</ele>
        <time>2019-08-17T07:54:24Z</time>
      </trkpt>
      <trkpt lat="44.32356" lon="5.82989">
        <ele>583</ele>
        <time>2019-08-17T07:54:25Z</time>
      </trkpt>
      <trkpt lat="44.32359" lon="5.82994">
        <ele>583</ele>
        <time>2019-08-17T07:54:26Z</time>
      </trkpt>
      <trkpt lat="44.32362" lon="5.82999">
        <ele>583</ele>
        <time>2019-08-17T07:54:27Z</time>
      </trkpt>
      <trkpt lat="44.32365" lon="5.83005">
        <ele>583</ele>
        <time>2019-08-17T07:54:28Z</time>
      </trkpt>
      <trkpt lat="44.32367" lon="5.83011">
        <ele>583</ele>
        <time>2019-08-17T07:54:29Z</time>
      </trkpt>
      <trkpt lat="44.32369" lon="5.83017">
        <ele>583</ele>
        <time>2019-08-17T07:54:30Z</time>
      </trkpt>
      <trkpt lat="44.32371" lon="5.83024">
        <ele>583</ele>
        <time>2019-08-17T07:54:31Z</time>
      </trkpt>
      <trkpt lat="44.32373" lon="5.8303">
        <ele>583</ele>
        <time>2019-08-17T07:54:32Z</time>
      </trkpt>
      <trkpt lat="44.32375" lon="5.83037">
        <ele>583</ele>
        <time>2019-08-17T07:54:33Z</time>
      </trkpt>
      <trkpt lat="44.32376" lon="5.83044">
        <ele>583</ele>
        <time>2019-08-17T07:54:34Z</time>
      </trkpt>
      <trkpt lat="44.32379" lon="5.83051">
        <ele>583</ele>
        <time>2019-08-17T07:54:35Z</time>
      </trkpt>
      <trkpt lat="44.32381" lon="5.83058">
        <ele>583</ele>
        <time>2019-08-17T07:54:36Z</time>
      </trkpt>
      <trkpt lat="44.32384" lon="5.83065">
        <ele>583</ele>
        <time>2019-08-17T07:54:37Z</time>
      </trkpt>
      <trkpt lat="44.32386" lon="5.83072">
        <ele>583</ele>
        <time>2019-08-17T07:54:38Z</time>
      </trkpt>
      <trkpt lat="44.3239" lon="5.83079">
        <ele>583</ele>
        <time>2019-08-17T07:54:39Z</time>
      </trkpt>
      <trkpt lat="44.32394" lon="5.83086">
        <ele>583</ele>
        <time>2019-08-17T07:54:40Z</time>
      </trkpt>
      <trkpt lat="44.32397" lon="5.83093">
        <ele>583</ele>
        <time>2019-08-17T07:54:41Z</time>
      </trkpt>
      <trkpt lat="44.32401" lon="5.831">
        <ele>583</ele>
        <time>2019-08-17T07:54:42Z</time>
      </trkpt>
      <trkpt lat="44.32406" lon="5.83106">
        <ele>583</ele>
        <time>2019-08-17T07:54:43Z</time>
      </trkpt>
      <trkpt lat="44.3241" lon="5.83112">
        <ele>583</ele>
        <time>2019-08-17T07:54:44Z</time>
      </trkpt>
      <trkpt lat="44.32415" lon="5.83117">
        <ele>583</ele>
        <time>2019-08-17T07:54:45Z</time>
      </trkpt>
      <trkpt lat="44.3242" lon="5.83123">
        <ele>583</ele>
        <time>2019-08-17T07:54:46Z</time>
      </trkpt>
      <trkpt lat="44.32425" lon="5.83127">
        <ele>583</ele>
        <time>2019-08-17T07:54:47Z</time>
      </trkpt>
      <trkpt lat="44.3243" lon="5.83132">
        <ele>583</ele>
        <time>2019-08-17T07:54:48Z</time>
      </trkpt>
      <trkpt lat="44.32435" lon="5.83137">
        <ele>583</ele>
        <time>2019-08-17T07:54:49Z</time>
      </trkpt>
      <trkpt lat="44.3244" lon="5.83141">
        <ele>583</ele>
        <time>2019-08-17T07:54:50Z</time>
      </trkpt>
      <trkpt lat="44.32444" lon="5.83145">
        <ele>583</ele>
        <time>2019-08-17T07:54:51Z</time>
      </trkpt>
      <trkpt lat="44.32449" lon="5.83149">
        <ele>583</ele>
        <time>2019-08-17T07:54:52Z</time>
      </trkpt>
      <trkpt lat="44.32454" lon="5.83153">
        <ele>583</ele>
        <time>2019-08-17T07:54:53Z</time>
      </trkpt>
      <trkpt lat="44.32458" lon="5.83158">
        <ele>583</ele>
        <time>2019-08-17T07:54:54Z</time>
      </trkpt>
      <trkpt lat="44.32463" lon="5.83162">
        <ele>583</ele>
        <time>2019-08-17T07:54:55Z</time>
      </trkpt>
      <trkpt lat="44.32468" lon="5.83166">
        <ele>583</ele>
        <time>2019-08-17T07:54:56Z</time>
      </trkpt>
      <trkpt lat="44.32473" lon="5.8317">
        <ele>583</ele>
        <time>2019-08-17T07:54:57Z</time>
      </trkpt>
      <trkpt lat="44.32478" lon="5.83173">
        <ele>583</ele>
        <time>2019-08-17T07:54:58Z</time>
      </trkpt>
      <trkpt lat="44.32484" lon="5.83177">
        <ele>583</ele>
        <time>2019-08-17T07:54:59Z</time>
      </trkpt>
      <trkpt lat="44.32489" lon="5.8318">
        <ele>583</ele>
        <time>2019-08-17T07:55:00Z</time>
      </trkpt>
      <trkpt lat="44.32494" lon="5.83183">
        <ele>583</ele>
        <time>2019-08-17T07:55:01Z</time>
      </trkpt>
      <trkpt lat="44.325" lon="5.83186">
        <ele>583</ele>
        <time>2019-08-17T07:55:02Z</time>
      </trkpt>
      <trkpt lat="44.32506" lon="5.83189">
        <ele>583</ele>
        <time>2019-08-17T07:55:03Z</time>
      </trkpt>
      <trkpt lat="44.32512" lon="5.83192">
        <ele>583</ele>
        <time>2019-08-17T07:55:04Z</time>
      </trkpt>
      <trkpt lat="44.32518" lon="5.83195">
        <ele>583</ele>
        <time>2019-08-17T07:55:05Z</time>
      </trkpt>
      <trkpt lat="44.32523" lon="5.83197">
        <ele>583</ele>
        <time>2019-08-17T07:55:06Z</time>
      </trkpt>
      <trkpt lat="44.32529" lon="5.832">
        <ele>583</ele>
        <time>2019-08-17T07:55:07Z</time>
      </trkpt>
      <trkpt lat="44.32535" lon="5.83203">
        <ele>583</ele>
        <time>2019-08-17T07:55:08Z</time>
      </trkpt>
      <trkpt lat="44.32541" lon="5.83205">
        <ele>583</ele>
        <time>2019-08-17T07:55:09Z</time>
      </trkpt>
      <trkpt lat="44.32546" lon="5.83208">
        <ele>583</ele>
        <time>2019-08-17T07:55:10Z</time>
      </trkpt>
      <trkpt lat="44.32552" lon="5.8321">
        <ele>583</ele>
        <time>2019-08-17T07:55:11Z</time>
      </trkpt>
      <trkpt lat="44.32558" lon="5.83213">
        <ele>583</ele>
        <time>2019-08-17T07:55:12Z</time>
      </trkpt>
      <trkpt lat="44.32563" lon="5.83215">
        <ele>583</ele>
        <time>2019-08-17T07:55:13Z</time>
      </trkpt>
      <trkpt lat="44.32569" lon="5.83218">
        <ele>583</ele>
        <time>2019-08-17T07:55:14Z</time>
      </trkpt>
      <trkpt lat="44.32574" lon="5.8322">
        <ele>583</ele>
        <time>2019-08-17T07:55:15Z</time>
      </trkpt>
      <trkpt lat="44.3258" lon="5.83223">
        <ele>583</ele>
        <time>2019-08-17T07:55:16Z</time>
      </trkpt>
      <trkpt lat="44.32586" lon="5.83225">
        <ele>583</ele>
        <time>2019-08-17T07:55:17Z</time>
      </trkpt>
      <trkpt lat="44.32591" lon="5.83228">
        <ele>583</ele>
        <time>2019-08-17T07:55:18Z</time>
      </trkpt>
      <trkpt lat="44.32596" lon="5.83231">
        <ele>583</ele>
        <time>2019-08-17T07:55:19Z</time>
      </trkpt>
      <trkpt lat="44.32602" lon="5.83235">
        <ele>583</ele>
        <time>2019-08-17T07:55:20Z</time>
      </trkpt>
      <trkpt lat="44.32607" lon="5.83238">
        <ele>583</ele>
        <time>2019-08-17T07:55:21Z</time>
      </trkpt>
      <trkpt lat="44.32612" lon="5.83242">
        <ele>583</ele>
        <time>2019-08-17T07:55:22Z</time>
      </trkpt>
      <trkpt lat="44.32617" lon="5.83246">
        <ele>583</ele>
        <time>2019-08-17T07:55:23Z</time>
      </trkpt>
      <trkpt lat="44.32622" lon="5.83249">
        <ele>583</ele>
        <time>2019-08-17T07:55:24Z</time>
      </trkpt>
      <trkpt lat="44.32627" lon="5.83252">
        <ele>583</ele>
        <time>2019-08-17T07:55:25Z</time>
      </trkpt>
      <trkpt lat="44.32632" lon="5.83256">
        <ele>583</ele>
        <time>2019-08-17T07:55:26Z</time>
      </trkpt>
      <trkpt lat="44.32637" lon="5.83259">
        <ele>583</ele>
        <time>2019-08-17T07:55:27Z</time>
      </trkpt>
      <trkpt lat="44.32642" lon="5.83263">
        <ele>583</ele>
        <time>2019-08-17T07:55:28Z</time>
      </trkpt>
      <trkpt lat="44.32647" lon="5.83266">
        <ele>583</ele>
        <time>2019-08-17T07:55:29Z</time>
      </trkpt>
      <trkpt lat="44.32652" lon="5.8327">
        <ele>583</ele>
        <time>2019-08-17T07:55:30Z</time>
      </trkpt>
      <trkpt lat="44.32656" lon="5.83273">
        <ele>583</ele>
        <time>2019-08-17T07:55:31Z</time>
      </trkpt>
      <trkpt lat="44.32661" lon="5.83277">
        <ele>583</ele>
        <time>2019-08-17T07:55:32Z</time>
      </trkpt>
      <trkpt lat="44.32666" lon="5.8328">
        <ele>583</ele>
        <time>2019-08-17T07:55:33Z</time>
      </trkpt>
      <trkpt lat="44.32671" lon="5.83283">
        <ele>583</ele>
        <time>2019-08-17T07:55:34Z</time>
      </trkpt>
      <trkpt lat="44.32675" lon="5.83287">
        <ele>583</ele>
        <time>2019-08-17T07:55:35Z</time>
      </trkpt>
      <trkpt lat="44.3268" lon="5.8329">
        <ele>583</ele>
        <time>2019-08-17T07:55:36Z</time>
      </trkpt>
      <trkpt lat="44.32685" lon="5.83293">
        <ele>583</ele>
        <time>2019-08-17T07:55:37Z</time>
      </trkpt>
      <trkpt lat="44.3269" lon="5.83296">
        <ele>583</ele>
        <time>2019-08-17T07:55:38Z</time>
      </trkpt>
      <trkpt lat="44.32695" lon="5.83299">
        <ele>583</ele>
        <time>2019-08-17T07:55:39Z</time>
      </trkpt>
      <trkpt lat="44.327" lon="5.83303">
        <ele>583</ele>
        <time>2019-08-17T07:55:40Z</time>
      </trkpt>
      <trkpt lat="44.32705" lon="5.83306">
        <ele>583</ele>
        <time>2019-08-17T07:55:41Z</time>
      </trkpt>
      <trkpt lat="44.3271" lon="5.8331">
        <ele>583</ele>
        <time>2019-08-17T07:55:42Z</time>
      </trkpt>
      <trkpt lat="44.32715" lon="5.83314">
        <ele>583</ele>
        <time>2019-08-17T07:55:43Z</time>
      </trkpt>
      <trkpt lat="44.32721" lon="5.83317">
        <ele>584</ele>
        <time>2019-08-17T07:55:44Z</time>
      </trkpt>
      <trkpt lat="44.32726" lon="5.83321">
        <ele>584</ele>
        <time>2019-08-17T07:55:45Z</time>
      </trkpt>
      <trkpt lat="44.3273" lon="5.83324">
        <ele>584</ele>
        <time>2019-08-17T07:55:46Z</time>
      </trkpt>
      <trkpt lat="44.32735" lon="5.83328">
        <ele>584</ele>
        <time>2019-08-17T07:55:47Z</time>
      </trkpt>
      <trkpt lat="44.3274" lon="5.83332">
        <ele>584</ele>
        <time>2019-08-17T07:55:48Z</time>
      </trkpt>
      <trkpt lat="44.32745" lon="5.83336">
        <ele>584</ele>
        <time>2019-08-17T07:55:49Z</time>
      </trkpt>
      <trkpt lat="44.3275" lon="5.83339">
        <ele>584</ele>
        <time>2019-08-17T07:55:50Z</time>
      </trkpt>
      <trkpt lat="44.32755" lon="5.83343">
        <ele>584</ele>
        <time>2019-08-17T07:55:51Z</time>
      </trkpt>
      <trkpt lat="44.32761" lon="5.83347">
        <ele>585</ele>
        <time>2019-08-17T07:55:52Z</time>
      </trkpt>
      <trkpt lat="44.32766" lon="5.8335">
        <ele>585</ele>
        <time>2019-08-17T07:55:53Z</time>
      </trkpt>
      <trkpt lat="44.32771" lon="5.83354">
        <ele>585</ele>
        <time>2019-08-17T07:55:54Z</time>
      </trkpt>
      <trkpt lat="44.32775" lon="5.83357">
        <ele>585</ele>
        <time>2019-08-17T07:55:55Z</time>
      </trkpt>
      <trkpt lat="44.3278" lon="5.83361">
        <ele>585</ele>
        <time>2019-08-17T07:55:56Z</time>
      </trkpt>
      <trkpt lat="44.32785" lon="5.83364">
        <ele>585</ele>
        <time>2019-08-17T07:55:57Z</time>
      </trkpt>
      <trkpt lat="44.3279" lon="5.83367">
        <ele>585</ele>
        <time>2019-08-17T07:55:58Z</time>
      </trkpt>
      <trkpt lat="44.32795" lon="5.8337">
        <ele>585</ele>
        <time>2019-08-17T07:55:59Z</time>
      </trkpt>
      <trkpt lat="44.32799" lon="5.83373">
        <ele>585</ele>
        <time>2019-08-17T07:56:00Z</time>
      </trkpt>
      <trkpt lat="44.32804" lon="5.83376">
        <ele>586</ele>
        <time>2019-08-17T07:56:01Z</time>
      </trkpt>
      <trkpt lat="44.32809" lon="5.83379">
        <ele>586</ele>
        <time>2019-08-17T07:56:02Z</time>
      </trkpt>
      <trkpt lat="44.32813" lon="5.83381">
        <ele>586</ele>
        <time>2019-08-17T07:56:03Z</time>
      </trkpt>
      <trkpt lat="44.32818" lon="5.83383">
        <ele>586</ele>
        <time>2019-08-17T07:56:04Z</time>
      </trkpt>
      <trkpt lat="44.32823" lon="5.83385">
        <ele>586</ele>
        <time>2019-08-17T07:56:05Z</time>
      </trkpt>
      <trkpt lat="44.32828" lon="5.83386">
        <ele>587</ele>
        <time>2019-08-17T07:56:06Z</time>
      </trkpt>
      <trkpt lat="44.32833" lon="5.83388">
        <ele>587</ele>
        <time>2019-08-17T07:56:07Z</time>
      </trkpt>
      <trkpt lat="44.32838" lon="5.83389">
        <ele>587</ele>
        <time>2019-08-17T07:56:08Z</time>
      </trkpt>
      <trkpt lat="44.32842" lon="5.83389">
        <ele>587</ele>
        <time>2019-08-17T07:56:09Z</time>
      </trkpt>
      <trkpt lat="44.32847" lon="5.8339">
        <ele>588</ele>
        <time>2019-08-17T07:56:10Z</time>
      </trkpt>
      <trkpt lat="44.32852" lon="5.8339">
        <ele>588</ele>
        <time>2019-08-17T07:56:11Z</time>
      </trkpt>
      <trkpt lat="44.32857" lon="5.83391">
        <ele>588</ele>
        <time>2019-08-17T07:56:12Z</time>
      </trkpt>
      <trkpt lat="44.32862" lon="5.83391">
        <ele>588</ele>
        <time>2019-08-17T07:56:13Z</time>
      </trkpt>
      <trkpt lat="44.32867" lon="5.83392">
        <ele>588</ele>
        <time>2019-08-17T07:56:14Z</time>
      </trkpt>
      <trkpt lat="44.32871" lon="5.83392">
        <ele>588</ele>
        <time>2019-08-17T07:56:15Z</time>
      </trkpt>
      <trkpt lat="44.32876" lon="5.83392">
        <ele>588</ele>
        <time>2019-08-17T07:56:16Z</time>
      </trkpt>
      <trkpt lat="44.3288" lon="5.83392">
        <ele>589</ele>
        <time>2019-08-17T07:56:17Z</time>
      </trkpt>
      <trkpt lat="44.32885" lon="5.83393">
        <ele>589</ele>
        <time>2019-08-17T07:56:18Z</time>
      </trkpt>
      <trkpt lat="44.32889" lon="5.83393">
        <ele>589</ele>
        <time>2019-08-17T07:56:19Z</time>
      </trkpt>
      <trkpt lat="44.32894" lon="5.83393">
        <ele>589</ele>
        <time>2019-08-17T07:56:20Z</time>
      </trkpt>
      <trkpt lat="44.32898" lon="5.83393">
        <ele>589</ele>
        <time>2019-08-17T07:56:21Z</time>
      </trkpt>
      <trkpt lat="44.32902" lon="5.83394">
        <ele>589</ele>
        <time>2019-08-17T07:56:22Z</time>
      </trkpt>
      <trkpt lat="44.32906" lon="5.83394">
        <ele>590</ele>
        <time>2019-08-17T07:56:23Z</time>
      </trkpt>
      <trkpt lat="44.32911" lon="5.83394">
        <ele>590</ele>
        <time>2019-08-17T07:56:24Z</time>
      </trkpt>
      <trkpt lat="44.32915" lon="5.83394">
        <ele>590</ele>
        <time>2019-08-17T07:56:25Z</time>
      </trkpt>
      <trkpt lat="44.32919" lon="5.83395">
        <ele>590</ele>
        <time>2019-08-17T07:56:26Z</time>
      </trkpt>
      <trkpt lat="44.32924" lon="5.83395">
        <ele>590</ele>
        <time>2019-08-17T07:56:27Z</time>
      </trkpt>
      <trkpt lat="44.32928" lon="5.83395">
        <ele>590</ele>
        <time>2019-08-17T07:56:28Z</time>
      </trkpt>
      <trkpt lat="44.32932" lon="5.83395">
        <ele>590</ele>
        <time>2019-08-17T07:56:29Z</time>
      </trkpt>
      <trkpt lat="44.32936" lon="5.83396">
        <ele>591</ele>
        <time>2019-08-17T07:56:30Z</time>
      </trkpt>
      <trkpt lat="44.32941" lon="5.83396">
        <ele>591</ele>
        <time>2019-08-17T07:56:31Z</time>
      </trkpt>
      <trkpt lat="44.32945" lon="5.83396">
        <ele>591</ele>
        <time>2019-08-17T07:56:32Z</time>
      </trkpt>
      <trkpt lat="44.32949" lon="5.83397">
        <ele>591</ele>
        <time>2019-08-17T07:56:33Z</time>
      </trkpt>
      <trkpt lat="44.32954" lon="5.83397">
        <ele>591</ele>
        <time>2019-08-17T07:56:34Z</time>
      </trkpt>
      <trkpt lat="44.32958" lon="5.83397">
        <ele>591</ele>
        <time>2019-08-17T07:56:35Z</time>
      </trkpt>
      <trkpt lat="44.32963" lon="5.83397">
        <ele>591</ele>
        <time>2019-08-17T07:56:36Z</time>
      </trkpt>
      <trkpt lat="44.32967" lon="5.83397">
        <ele>591</ele>
        <time>2019-08-17T07:56:37Z</time>
      </trkpt>
      <trkpt lat="44.32972" lon="5.83397">
        <ele>591</ele>
        <time>2019-08-17T07:56:38Z</time>
      </trkpt>
      <trkpt lat="44.32976" lon="5.83398">
        <ele>592</ele>
        <time>2019-08-17T07:56:39Z</time>
      </trkpt>
      <trkpt lat="44.32981" lon="5.83398">
        <ele>592</ele>
        <time>2019-08-17T07:56:40Z</time>
      </trkpt>
      <trkpt lat="44.32986" lon="5.83398">
        <ele>592</ele>
        <time>2019-08-17T07:56:41Z</time>
      </trkpt>
      <trkpt lat="44.32991" lon="5.83398">
        <ele>592</ele>
        <time>2019-08-17T07:56:42Z</time>
      </trkpt>
      <trkpt lat="44.32995" lon="5.83398">
        <ele>592</ele>
        <time>2019-08-17T07:56:43Z</time>
      </trkpt>
      <trkpt lat="44.33" lon="5.83399">
        <ele>592</ele>
        <time>2019-08-17T07:56:44Z</time>
      </trkpt>
      <trkpt lat="44.33005" lon="5.83399">
        <ele>592</ele>
        <time>2019-08-17T07:56:45Z</time>
      </trkpt>
      <trkpt lat="44.3301" lon="5.83399">
        <ele>592</ele>
        <time>2019-08-17T07:56:46Z</time>
      </trkpt>
      <trkpt lat="44.33015" lon="5.834">
        <ele>592</ele>
        <time>2019-08-17T07:56:47Z</time>
      </trkpt>
      <trkpt lat="44.3302" lon="5.834">
        <ele>592</ele>
        <time>2019-08-17T07:56:48Z</time>
      </trkpt>
      <trkpt lat="44.33025" lon="5.834">
        <ele>592</ele>
        <time>2019-08-17T07:56:49Z</time>
      </trkpt>
      <trkpt lat="44.33031" lon="5.83401">
        <ele>592</ele>
        <time>2019-08-17T07:56:50Z</time>
      </trkpt>
      <trkpt lat="44.33036" lon="5.83401">
        <ele>592</ele>
        <time>2019-08-17T07:56:51Z</time>
      </trkpt>
      <trkpt lat="44.33041" lon="5.83401">
        <ele>592</ele>
        <time>2019-08-17T07:56:52Z</time>
      </trkpt>
      <trkpt lat="44.33047" lon="5.83401">
        <ele>592</ele>
        <time>2019-08-17T07:56:53Z</time>
      </trkpt>
      <trkpt lat="44.33053" lon="5.83402">
        <ele>592</ele>
        <time>2019-08-17T07:56:54Z</time>
      </trkpt>
      <trkpt lat="44.33059" lon="5.83402">
        <ele>592</ele>
        <time>2019-08-17T07:56:55Z</time>
      </trkpt>
      <trkpt lat="44.33065" lon="5.83402">
        <ele>592</ele>
        <time>2019-08-17T07:56:56Z</time>
      </trkpt>
      <trkpt lat="44.3307" lon="5.83402">
        <ele>592</ele>
        <time>2019-08-17T07:56:57Z</time>
      </trkpt>
      <trkpt lat="44.33077" lon="5.83402">
        <ele>592</ele>
        <time>2019-08-17T07:56:58Z</time>
      </trkpt>
      <trkpt lat="44.33083" lon="5.83402">
        <ele>592</ele>
        <time>2019-08-17T07:56:59Z</time>
      </trkpt>
      <trkpt lat="44.33089" lon="5.83402">
        <ele>592</ele>
        <time>2019-08-17T07:57:00Z</time>
      </trkpt>
      <trkpt lat="44.33095" lon="5.83401">
        <ele>592</ele>
        <time>2019-08-17T07:57:01Z</time>
      </trkpt>
      <trkpt lat="44.33101" lon="5.83401">
        <ele>592</ele>
        <time>2019-08-17T07:57:02Z</time>
      </trkpt>
      <trkpt lat="44.33107" lon="5.834">
        <ele>592</ele>
        <time>2019-08-17T07:57:03Z</time>
      </trkpt>
      <trkpt lat="44.33113" lon="5.834">
        <ele>592</ele>
        <time>2019-08-17T07:57:04Z</time>
      </trkpt>
      <trkpt lat="44.33119" lon="5.83399">
        <ele>592</ele>
        <time>2019-08-17T07:57:05Z</time>
      </trkpt>
      <trkpt lat="44.33125" lon="5.83398">
        <ele>592</ele>
        <time>2019-08-17T07:57:06Z</time>
      </trkpt>
      <trkpt lat="44.3313" lon="5.83398">
        <ele>592</ele>
        <time>2019-08-17T07:57:07Z</time>
      </trkpt>
      <trkpt lat="44.33136" lon="5.83397">
        <ele>592</ele>
        <time>2019-08-17T07:57:08Z</time>
      </trkpt>
      <trkpt lat="44.33141" lon="5.83396">
        <ele>592</ele>
        <time>2019-08-17T07:57:09Z</time>
      </trkpt>
      <trkpt lat="44.33147" lon="5.83395">
        <ele>592</ele>
        <time>2019-08-17T07:57:10Z</time>
      </trkpt>
      <trkpt lat="44.33152" lon="5.83394">
        <ele>592</ele>
        <time>2019-08-17T07:57:11Z</time>
      </trkpt>
      <trkpt lat="44.33157" lon="5.83393">
        <ele>592</ele>
        <time>2019-08-17T07:57:12Z</time>
      </trkpt>
      <trkpt lat="44.33162" lon="5.83392">
        <ele>592</ele>
        <time>2019-08-17T07:57:13Z</time>
      </trkpt>
      <trkpt lat="44.33168" lon="5.83391">
        <ele>592</ele>
        <time>2019-08-17T07:57:14Z</time>
      </trkpt>
      <trkpt lat="44.33173" lon="5.83391">
        <ele>592</ele>
        <time>2019-08-17T07:57:15Z</time>
      </trkpt>
      <trkpt lat="44.33178" lon="5.8339">
        <ele>592</ele>
        <time>2019-08-17T07:57:16Z</time>
      </trkpt>
      <trkpt lat="44.33183" lon="5.83389">
        <ele>592</ele>
        <time>2019-08-17T07:57:17Z</time>
      </trkpt>
      <trkpt lat="44.33187" lon="5.83388">
        <ele>592</ele>
        <time>2019-08-17T07:57:18Z</time>
      </trkpt>
      <trkpt lat="44.33192" lon="5.83387">
        <ele>592</ele>
        <time>2019-08-17T07:57:19Z</time>
      </trkpt>
      <trkpt lat="44.33197" lon="5.83386">
        <ele>592</ele>
        <time>2019-08-17T07:57:20Z</time>
      </trkpt>
      <trkpt lat="44.33202" lon="5.83386">
        <ele>592</ele>
        <time>2019-08-17T07:57:21Z</time>
      </trkpt>
      <trkpt lat="44.33207" lon="5.83385">
        <ele>592</ele>
        <time>2019-08-17T07:57:22Z</time>
      </trkpt>
      <trkpt lat="44.33213" lon="5.83384">
        <ele>592</ele>
        <time>2019-08-17T07:57:23Z</time>
      </trkpt>
      <trkpt lat="44.33218" lon="5.83384">
        <ele>592</ele>
        <time>2019-08-17T07:57:24Z</time>
      </trkpt>
      <trkpt lat="44.33223" lon="5.83383">
        <ele>592</ele>
        <time>2019-08-17T07:57:25Z</time>
      </trkpt>
      <trkpt lat="44.33227" lon="5.83382">
        <ele>592</ele>
        <time>2019-08-17T07:57:26Z</time>
      </trkpt>
      <trkpt lat="44.33232" lon="5.83381">
        <ele>592</ele>
        <time>2019-08-17T07:57:27Z</time>
      </trkpt>
      <trkpt lat="44.33237" lon="5.8338">
        <ele>592</ele>
        <time>2019-08-17T07:57:28Z</time>
      </trkpt>
      <trkpt lat="44.33242" lon="5.83379">
        <ele>592</ele>
        <time>2019-08-17T07:57:29Z</time>
      </trkpt>
      <trkpt lat="44.33247" lon="5.83379">
        <ele>592</ele>
        <time>2019-08-17T07:57:30Z</time>
      </trkpt>
      <trkpt lat="44.33252" lon="5.83378">
        <ele>592</ele>
        <time>2019-08-17T07:57:31Z</time>
      </trkpt>
      <trkpt lat="44.33257" lon="5.83377">
        <ele>592</ele>
        <time>2019-08-17T07:57:32Z</time>
      </trkpt>
      <trkpt lat="44.33263" lon="5.83376">
        <ele>592</ele>
        <time>2019-08-17T07:57:33Z</time>
      </trkpt>
      <trkpt lat="44.33268" lon="5.83376">
        <ele>592</ele>
        <time>2019-08-17T07:57:34Z</time>
      </trkpt>
      <trkpt lat="44.33272" lon="5.83375">
        <ele>592</ele>
        <time>2019-08-17T07:57:35Z</time>
      </trkpt>
      <trkpt lat="44.33277" lon="5.83374">
        <ele>592</ele>
        <time>2019-08-17T07:57:36Z</time>
      </trkpt>
      <trkpt lat="44.33282" lon="5.83373">
        <ele>592</ele>
        <time>2019-08-17T07:57:37Z</time>
      </trkpt>
      <trkpt lat="44.33287" lon="5.83372">
        <ele>592</ele>
        <time>2019-08-17T07:57:38Z</time>
      </trkpt>
      <trkpt lat="44.33292" lon="5.83371">
        <ele>592</ele>
        <time>2019-08-17T07:57:39Z</time>
      </trkpt>
      <trkpt lat="44.33297" lon="5.83371">
        <ele>592</ele>
        <time>2019-08-17T07:57:40Z</time>
      </trkpt>
      <trkpt lat="44.33303" lon="5.8337">
        <ele>592</ele>
        <time>2019-08-17T07:57:41Z</time>
      </trkpt>
      <trkpt lat="44.33308" lon="5.83369">
        <ele>592</ele>
        <time>2019-08-17T07:57:42Z</time>
      </trkpt>
      <trkpt lat="44.33313" lon="5.83369">
        <ele>592</ele>
        <time>2019-08-17T07:57:43Z</time>
      </trkpt>
      <trkpt lat="44.33318" lon="5.83368">
        <ele>592</ele>
        <time>2019-08-17T07:57:44Z</time>
      </trkpt>
      <trkpt lat="44.33323" lon="5.83367">
        <ele>592</ele>
        <time>2019-08-17T07:57:45Z</time>
      </trkpt>
      <trkpt lat="44.33328" lon="5.83367">
        <ele>592</ele>
        <time>2019-08-17T07:57:46Z</time>
      </trkpt>
      <trkpt lat="44.33333" lon="5.83366">
        <ele>592</ele>
        <time>2019-08-17T07:57:47Z</time>
      </trkpt>
      <trkpt lat="44.33338" lon="5.83365">
        <ele>592</ele>
        <time>2019-08-17T07:57:48Z</time>
      </trkpt>
      <trkpt lat="44.33343" lon="5.83364">
        <ele>592</ele>
        <time>2019-08-17T07:57:49Z</time>
      </trkpt>
      <trkpt lat="44.33348" lon="5.83363">
        <ele>592</ele>
        <time>2019-08-17T07:57:50Z</time>
      </trkpt>
      <trkpt lat="44.33353" lon="5.83362">
        <ele>592</ele>
        <time>2019-08-17T07:57:51Z</time>
      </trkpt>
      <trkpt lat="44.33359" lon="5.83362">
        <ele>592</ele>
        <time>2019-08-17T07:57:52Z</time>
      </trkpt>
      <trkpt lat="44.33364" lon="5.83361">
        <ele>592</ele>
        <time>2019-08-17T07:57:53Z</time>
      </trkpt>
      <trkpt lat="44.33369" lon="5.8336">
        <ele>592</ele>
        <time>2019-08-17T07:57:54Z</time>
      </trkpt>
      <trkpt lat="44.33374" lon="5.83359">
        <ele>592</ele>
        <time>2019-08-17T07:57:55Z</time>
      </trkpt>
      <trkpt lat="44.33379" lon="5.83358">
        <ele>592</ele>
        <time>2019-08-17T07:57:56Z</time>
      </trkpt>
      <trkpt lat="44.33384" lon="5.83357">
        <ele>593</ele>
        <time>2019-08-17T07:57:57Z</time>
      </trkpt>
      <trkpt lat="44.33389" lon="5.83357">
        <ele>593</ele>
        <time>2019-08-17T07:57:58Z</time>
      </trkpt>
      <trkpt lat="44.33394" lon="5.83356">
        <ele>593</ele>
        <time>2019-08-17T07:57:59Z</time>
      </trkpt>
      <trkpt lat="44.334" lon="5.83355">
        <ele>593</ele>
        <time>2019-08-17T07:58:00Z</time>
      </trkpt>
      <trkpt lat="44.33405" lon="5.83355">
        <ele>593</ele>
        <time>2019-08-17T07:58:01Z</time>
      </trkpt>
      <trkpt lat="44.33415" lon="5.83353">
        <ele>593</ele>
        <time>2019-08-17T07:58:03Z</time>
      </trkpt>
      <trkpt lat="44.3342" lon="5.83352">
        <ele>593</ele>
        <time>2019-08-17T07:58:04Z</time>
      </trkpt>
      <trkpt lat="44.33425" lon="5.83352">
        <ele>593</ele>
        <time>2019-08-17T07:58:05Z</time>
      </trkpt>
      <trkpt lat="44.3343" lon="5.83351">
        <ele>593</ele>
        <time>2019-08-17T07:58:06Z</time>
      </trkpt>
      <trkpt lat="44.33435" lon="5.8335">
        <ele>594</ele>
        <time>2019-08-17T07:58:07Z</time>
      </trkpt>
      <trkpt lat="44.3344" lon="5.83349">
        <ele>594</ele>
        <time>2019-08-17T07:58:08Z</time>
      </trkpt>
      <trkpt lat="44.33445" lon="5.83349">
        <ele>594</ele>
        <time>2019-08-17T07:58:09Z</time>
      </trkpt>
      <trkpt lat="44.3345" lon="5.83348">
        <ele>594</ele>
        <time>2019-08-17T07:58:10Z</time>
      </trkpt>
      <trkpt lat="44.33455" lon="5.83348">
        <ele>594</ele>
        <time>2019-08-17T07:58:11Z</time>
      </trkpt>
      <trkpt lat="44.33461" lon="5.83347">
        <ele>594</ele>
        <time>2019-08-17T07:58:12Z</time>
      </trkpt>
      <trkpt lat="44.33466" lon="5.83347">
        <ele>594</ele>
        <time>2019-08-17T07:58:13Z</time>
      </trkpt>
      <trkpt lat="44.33471" lon="5.83348">
        <ele>594</ele>
        <time>2019-08-17T07:58:14Z</time>
      </trkpt>
      <trkpt lat="44.33476" lon="5.83348">
        <ele>595</ele>
        <time>2019-08-17T07:58:15Z</time>
      </trkpt>
      <trkpt lat="44.33481" lon="5.83348">
        <ele>595</ele>
        <time>2019-08-17T07:58:16Z</time>
      </trkpt>
      <trkpt lat="44.33486" lon="5.83348">
        <ele>595</ele>
        <time>2019-08-17T07:58:17Z</time>
      </trkpt>
      <trkpt lat="44.33491" lon="5.83349">
        <ele>595</ele>
        <time>2019-08-17T07:58:18Z</time>
      </trkpt>
      <trkpt lat="44.33496" lon="5.83349">
        <ele>595</ele>
        <time>2019-08-17T07:58:19Z</time>
      </trkpt>
      <trkpt lat="44.33501" lon="5.8335">
        <ele>595</ele>
        <time>2019-08-17T07:58:20Z</time>
      </trkpt>
      <trkpt lat="44.33506" lon="5.83351">
        <ele>595</ele>
        <time>2019-08-17T07:58:21Z</time>
      </trkpt>
      <trkpt lat="44.33511" lon="5.83351">
        <ele>595</ele>
        <time>2019-08-17T07:58:22Z</time>
      </trkpt>
      <trkpt lat="44.33516" lon="5.83352">
        <ele>595</ele>
        <time>2019-08-17T07:58:23Z</time>
      </trkpt>
      <trkpt lat="44.33521" lon="5.83353">
        <ele>596</ele>
        <time>2019-08-17T07:58:24Z</time>
      </trkpt>
      <trkpt lat="44.33526" lon="5.83354">
        <ele>596</ele>
        <time>2019-08-17T07:58:25Z</time>
      </trkpt>
      <trkpt lat="44.33531" lon="5.83354">
        <ele>596</ele>
        <time>2019-08-17T07:58:26Z</time>
      </trkpt>
      <trkpt lat="44.33536" lon="5.83355">
        <ele>596</ele>
        <time>2019-08-17T07:58:27Z</time>
      </trkpt>
      <trkpt lat="44.33541" lon="5.83355">
        <ele>596</ele>
        <time>2019-08-17T07:58:28Z</time>
      </trkpt>
      <trkpt lat="44.33546" lon="5.83356">
        <ele>596</ele>
        <time>2019-08-17T07:58:29Z</time>
      </trkpt>
      <trkpt lat="44.33551" lon="5.83357">
        <ele>597</ele>
        <time>2019-08-17T07:58:30Z</time>
      </trkpt>
      <trkpt lat="44.33555" lon="5.83357">
        <ele>597</ele>
        <time>2019-08-17T07:58:31Z</time>
      </trkpt>
      <trkpt lat="44.3356" lon="5.83357">
        <ele>597</ele>
        <time>2019-08-17T07:58:32Z</time>
      </trkpt>
      <trkpt lat="44.33565" lon="5.83358">
        <ele>597</ele>
        <time>2019-08-17T07:58:33Z</time>
      </trkpt>
      <trkpt lat="44.33569" lon="5.83359">
        <ele>597</ele>
        <time>2019-08-17T07:58:34Z</time>
      </trkpt>
      <trkpt lat="44.33574" lon="5.8336">
        <ele>597</ele>
        <time>2019-08-17T07:58:35Z</time>
      </trkpt>
      <trkpt lat="44.33579" lon="5.8336">
        <ele>597</ele>
        <time>2019-08-17T07:58:36Z</time>
      </trkpt>
      <trkpt lat="44.33584" lon="5.8336">
        <ele>597</ele>
        <time>2019-08-17T07:58:37Z</time>
      </trkpt>
      <trkpt lat="44.33588" lon="5.83361">
        <ele>598</ele>
        <time>2019-08-17T07:58:38Z</time>
      </trkpt>
      <trkpt lat="44.33593" lon="5.83361">
        <ele>598</ele>
        <time>2019-08-17T07:58:39Z</time>
      </trkpt>
      <trkpt lat="44.33598" lon="5.83362">
        <ele>598</ele>
        <time>2019-08-17T07:58:40Z</time>
      </trkpt>
      <trkpt lat="44.33602" lon="5.83362">
        <ele>598</ele>
        <time>2019-08-17T07:58:41Z</time>
      </trkpt>
      <trkpt lat="44.33606" lon="5.83363">
        <ele>598</ele>
        <time>2019-08-17T07:58:42Z</time>
      </trkpt>
      <trkpt lat="44.33611" lon="5.83363">
        <ele>598</ele>
        <time>2019-08-17T07:58:43Z</time>
      </trkpt>
      <trkpt lat="44.33615" lon="5.83363">
        <ele>598</ele>
        <time>2019-08-17T07:58:44Z</time>
      </trkpt>
      <trkpt lat="44.3362" lon="5.83364">
        <ele>599</ele>
        <time>2019-08-17T07:58:45Z</time>
      </trkpt>
      <trkpt lat="44.33625" lon="5.83365">
        <ele>599</ele>
        <time>2019-08-17T07:58:46Z</time>
      </trkpt>
      <trkpt lat="44.33629" lon="5.83365">
        <ele>599</ele>
        <time>2019-08-17T07:58:47Z</time>
      </trkpt>
      <trkpt lat="44.33633" lon="5.83366">
        <ele>599</ele>
        <time>2019-08-17T07:58:48Z</time>
      </trkpt>
      <trkpt lat="44.33638" lon="5.83367">
        <ele>599</ele>
        <time>2019-08-17T07:58:49Z</time>
      </trkpt>
      <trkpt lat="44.33642" lon="5.83367">
        <ele>599</ele>
        <time>2019-08-17T07:58:50Z</time>
      </trkpt>
      <trkpt lat="44.33646" lon="5.83368">
        <ele>600</ele>
        <time>2019-08-17T07:58:51Z</time>
      </trkpt>
      <trkpt lat="44.33651" lon="5.83368">
        <ele>600</ele>
        <time>2019-08-17T07:58:52Z</time>
      </trkpt>
      <trkpt lat="44.33656" lon="5.83369">
        <ele>600</ele>
        <time>2019-08-17T07:58:53Z</time>
      </trkpt>
      <trkpt lat="44.3366" lon="5.83369">
        <ele>600</ele>
        <time>2019-08-17T07:58:54Z</time>
      </trkpt>
      <trkpt lat="44.33665" lon="5.83369">
        <ele>600</ele>
        <time>2019-08-17T07:58:55Z</time>
      </trkpt>
      <trkpt lat="44.33669" lon="5.8337">
        <ele>600</ele>
        <time>2019-08-17T07:58:56Z</time>
      </trkpt>
      <trkpt lat="44.33674" lon="5.83371">
        <ele>600</ele>
        <time>2019-08-17T07:58:57Z</time>
      </trkpt>
      <trkpt lat="44.33678" lon="5.83371">
        <ele>600</ele>
        <time>2019-08-17T07:58:58Z</time>
      </trkpt>
      <trkpt lat="44.33683" lon="5.83372">
        <ele>600</ele>
        <time>2019-08-17T07:58:59Z</time>
      </trkpt>
      <trkpt lat="44.33688" lon="5.83372">
        <ele>600</ele>
        <time>2019-08-17T07:59:00Z</time>
      </trkpt>
      <trkpt lat="44.33692" lon="5.83372">
        <ele>601</ele>
        <time>2019-08-17T07:59:01Z</time>
      </trkpt>
      <trkpt lat="44.33697" lon="5.83373">
        <ele>601</ele>
        <time>2019-08-17T07:59:02Z</time>
      </trkpt>
      <trkpt lat="44.33701" lon="5.83374">
        <ele>601</ele>
        <time>2019-08-17T07:59:03Z</time>
      </trkpt>
      <trkpt lat="44.33706" lon="5.83374">
        <ele>601</ele>
        <time>2019-08-17T07:59:04Z</time>
      </trkpt>
      <trkpt lat="44.3371" lon="5.83375">
        <ele>601</ele>
        <time>2019-08-17T07:59:05Z</time>
      </trkpt>
      <trkpt lat="44.33715" lon="5.83375">
        <ele>602</ele>
        <time>2019-08-17T07:59:06Z</time>
      </trkpt>
      <trkpt lat="44.3372" lon="5.83376">
        <ele>602</ele>
        <time>2019-08-17T07:59:07Z</time>
      </trkpt>
      <trkpt lat="44.33725" lon="5.83376">
        <ele>602</ele>
        <time>2019-08-17T07:59:08Z</time>
      </trkpt>
      <trkpt lat="44.33729" lon="5.83377">
        <ele>602</ele>
        <time>2019-08-17T07:59:09Z</time>
      </trkpt>
      <trkpt lat="44.33734" lon="5.83377">
        <ele>602</ele>
        <time>2019-08-17T07:59:10Z</time>
      </trkpt>
      <trkpt lat="44.33738" lon="5.83378">
        <ele>602</ele>
        <time>2019-08-17T07:59:11Z</time>
      </trkpt>
      <trkpt lat="44.33743" lon="5.83378">
        <ele>603</ele>
        <time>2019-08-17T07:59:12Z</time>
      </trkpt>
      <trkpt lat="44.33748" lon="5.83379">
        <ele>603</ele>
        <time>2019-08-17T07:59:13Z</time>
      </trkpt>
      <trkpt lat="44.33752" lon="5.83379">
        <ele>603</ele>
        <time>2019-08-17T07:59:14Z</time>
      </trkpt>
      <trkpt lat="44.33757" lon="5.8338">
        <ele>603</ele>
        <time>2019-08-17T07:59:15Z</time>
      </trkpt>
      <trkpt lat="44.33762" lon="5.83381">
        <ele>603</ele>
        <time>2019-08-17T07:59:16Z</time>
      </trkpt>
      <trkpt lat="44.33767" lon="5.83381">
        <ele>603</ele>
        <time>2019-08-17T07:59:17Z</time>
      </trkpt>
      <trkpt lat="44.33772" lon="5.83382">
        <ele>603</ele>
        <time>2019-08-17T07:59:18Z</time>
      </trkpt>
      <trkpt lat="44.33776" lon="5.83383">
        <ele>603</ele>
        <time>2019-08-17T07:59:19Z</time>
      </trkpt>
      <trkpt lat="44.33781" lon="5.83384">
        <ele>604</ele>
        <time>2019-08-17T07:59:20Z</time>
      </trkpt>
      <trkpt lat="44.33786" lon="5.83385">
        <ele>604</ele>
        <time>2019-08-17T07:59:21Z</time>
      </trkpt>
      <trkpt lat="44.3379" lon="5.83386">
        <ele>604</ele>
        <time>2019-08-17T07:59:22Z</time>
      </trkpt>
      <trkpt lat="44.33795" lon="5.83387">
        <ele>604</ele>
        <time>2019-08-17T07:59:23Z</time>
      </trkpt>
      <trkpt lat="44.338" lon="5.83388">
        <ele>604</ele>
        <time>2019-08-17T07:59:24Z</time>
      </trkpt>
      <trkpt lat="44.33804" lon="5.83389">
        <ele>604</ele>
        <time>2019-08-17T07:59:25Z</time>
      </trkpt>
      <trkpt lat="44.33809" lon="5.8339">
        <ele>604</ele>
        <time>2019-08-17T07:59:26Z</time>
      </trkpt>
      <trkpt lat="44.33814" lon="5.83391">
        <ele>604</ele>
        <time>2019-08-17T07:59:27Z</time>
      </trkpt>
      <trkpt lat="44.33818" lon="5.83392">
        <ele>605</ele>
        <time>2019-08-17T07:59:28Z</time>
      </trkpt>
      <trkpt lat="44.33823" lon="5.83393">
        <ele>605</ele>
        <time>2019-08-17T07:59:29Z</time>
      </trkpt>
      <trkpt lat="44.33828" lon="5.83394">
        <ele>605</ele>
        <time>2019-08-17T07:59:30Z</time>
      </trkpt>
      <trkpt lat="44.33832" lon="5.83395">
        <ele>605</ele>
        <time>2019-08-17T07:59:31Z</time>
      </trkpt>
      <trkpt lat="44.33837" lon="5.83396">
        <ele>605</ele>
        <time>2019-08-17T07:59:32Z</time>
      </trkpt>
      <trkpt lat="44.33841" lon="5.83397">
        <ele>605</ele>
        <time>2019-08-17T07:59:33Z</time>
      </trkpt>
      <trkpt lat="44.33846" lon="5.83398">
        <ele>605</ele>
        <time>2019-08-17T07:59:34Z</time>
      </trkpt>
      <trkpt lat="44.33851" lon="5.83399">
        <ele>605</ele>
        <time>2019-08-17T07:59:35Z</time>
      </trkpt>
      <trkpt lat="44.33856" lon="5.834">
        <ele>605</ele>
        <time>2019-08-17T07:59:36Z</time>
      </trkpt>
      <trkpt lat="44.3386" lon="5.83401">
        <ele>605</ele>
        <time>2019-08-17T07:59:37Z</time>
      </trkpt>
      <trkpt lat="44.33865" lon="5.83402">
        <ele>606</ele>
        <time>2019-08-17T07:59:38Z</time>
      </trkpt>
      <trkpt lat="44.3387" lon="5.83403">
        <ele>606</ele>
        <time>2019-08-17T07:59:39Z</time>
      </trkpt>
      <trkpt lat="44.33875" lon="5.83404">
        <ele>606</ele>
        <time>2019-08-17T07:59:40Z</time>
      </trkpt>
      <trkpt lat="44.33879" lon="5.83405">
        <ele>606</ele>
        <time>2019-08-17T07:59:41Z</time>
      </trkpt>
      <trkpt lat="44.33884" lon="5.83406">
        <ele>606</ele>
        <time>2019-08-17T07:59:42Z</time>
      </trkpt>
      <trkpt lat="44.33888" lon="5.83407">
        <ele>606</ele>
        <time>2019-08-17T07:59:43Z</time>
      </trkpt>
      <trkpt lat="44.33893" lon="5.83408">
        <ele>606</ele>
        <time>2019-08-17T07:59:44Z</time>
      </trkpt>
      <trkpt lat="44.33897" lon="5.83409">
        <ele>607</ele>
        <time>2019-08-17T07:59:45Z</time>
      </trkpt>
      <trkpt lat="44.33902" lon="5.8341">
        <ele>607</ele>
        <time>2019-08-17T07:59:46Z</time>
      </trkpt>
      <trkpt lat="44.33907" lon="5.83411">
        <ele>607</ele>
        <time>2019-08-17T07:59:47Z</time>
      </trkpt>
      <trkpt lat="44.33911" lon="5.83412">
        <ele>607</ele>
        <time>2019-08-17T07:59:48Z</time>
      </trkpt>
      <trkpt lat="44.33916" lon="5.83413">
        <ele>607</ele>
        <time>2019-08-17T07:59:49Z</time>
      </trkpt>
      <trkpt lat="44.3392" lon="5.83414">
        <ele>607</ele>
        <time>2019-08-17T07:59:50Z</time>
      </trkpt>
      <trkpt lat="44.33925" lon="5.83415">
        <ele>607</ele>
        <time>2019-08-17T07:59:51Z</time>
      </trkpt>
      <trkpt lat="44.33929" lon="5.83416">
        <ele>608</ele>
        <time>2019-08-17T07:59:52Z</time>
      </trkpt>
      <trkpt lat="44.33934" lon="5.83418">
        <ele>608</ele>
        <time>2019-08-17T07:59:53Z</time>
      </trkpt>
      <trkpt lat="44.33938" lon="5.83419">
        <ele>608</ele>
        <time>2019-08-17T07:59:54Z</time>
      </trkpt>
      <trkpt lat="44.33943" lon="5.83421">
        <ele>608</ele>
        <time>2019-08-17T07:59:55Z</time>
      </trkpt>
      <trkpt lat="44.33947" lon="5.83423">
        <ele>608</ele>
        <time>2019-08-17T07:59:56Z</time>
      </trkpt>
      <trkpt lat="44.33952" lon="5.83425">
        <ele>608</ele>
        <time>2019-08-17T07:59:57Z</time>
      </trkpt>
      <trkpt lat="44.33956" lon="5.83427">
        <ele>608</ele>
        <time>2019-08-17T07:59:58Z</time>
      </trkpt>
      <trkpt lat="44.3396" lon="5.8343">
        <ele>608</ele>
        <time>2019-08-17T07:59:59Z</time>
      </trkpt>
      <trkpt lat="44.33965" lon="5.83433">
        <ele>609</ele>
        <time>2019-08-17T08:00:00Z</time>
      </trkpt>
      <trkpt lat="44.33969" lon="5.83437">
        <ele>609</ele>
        <time>2019-08-17T08:00:01Z</time>
      </trkpt>
      <trkpt lat="44.33973" lon="5.8344">
        <ele>609</ele>
        <time>2019-08-17T08:00:02Z</time>
      </trkpt>
      <trkpt lat="44.33977" lon="5.83444">
        <ele>609</ele>
        <time>2019-08-17T08:00:03Z</time>
      </trkpt>
      <trkpt lat="44.33981" lon="5.83448">
        <ele>609</ele>
        <time>2019-08-17T08:00:04Z</time>
      </trkpt>
      <trkpt lat="44.33985" lon="5.83451">
        <ele>610</ele>
        <time>2019-08-17T08:00:05Z</time>
      </trkpt>
      <trkpt lat="44.33989" lon="5.83455">
        <ele>610</ele>
        <time>2019-08-17T08:00:06Z</time>
      </trkpt>
      <trkpt lat="44.33993" lon="5.83459">
        <ele>610</ele>
        <time>2019-08-17T08:00:07Z</time>
      </trkpt>
      <trkpt lat="44.33997" lon="5.83463">
        <ele>610</ele>
        <time>2019-08-17T08:00:08Z</time>
      </trkpt>
      <trkpt lat="44.34" lon="5.83466">
        <ele>610</ele>
        <time>2019-08-17T08:00:09Z</time>
      </trkpt>
      <trkpt lat="44.34004" lon="5.8347">
        <ele>610</ele>
        <time>2019-08-17T08:00:10Z</time>
      </trkpt>
      <trkpt lat="44.34008" lon="5.83474">
        <ele>611</ele>
        <time>2019-08-17T08:00:11Z</time>
      </trkpt>
      <trkpt lat="44.34012" lon="5.83478">
        <ele>611</ele>
        <time>2019-08-17T08:00:12Z</time>
      </trkpt>
      <trkpt lat="44.34016" lon="5.83482">
        <ele>611</ele>
        <time>2019-08-17T08:00:13Z</time>
      </trkpt>
      <trkpt lat="44.34019" lon="5.83486">
        <ele>611</ele>
        <time>2019-08-17T08:00:14Z</time>
      </trkpt>
      <trkpt lat="44.34023" lon="5.83489">
        <ele>611</ele>
        <time>2019-08-17T08:00:15Z</time>
      </trkpt>
      <trkpt lat="44.34027" lon="5.83493">
        <ele>611</ele>
        <time>2019-08-17T08:00:16Z</time>
      </trkpt>
      <trkpt lat="44.34031" lon="5.83497">
        <ele>611</ele>
        <time>2019-08-17T08:00:17Z</time>
      </trkpt>
      <trkpt lat="44.34035" lon="5.83501">
        <ele>611</ele>
        <time>2019-08-17T08:00:18Z</time>
      </trkpt>
      <trkpt lat="44.34039" lon="5.83504">
        <ele>612</ele>
        <time>2019-08-17T08:00:19Z</time>
      </trkpt>
      <trkpt lat="44.34042" lon="5.83508">
        <ele>612</ele>
        <time>2019-08-17T08:00:20Z</time>
      </trkpt>
      <trkpt lat="44.34046" lon="5.83512">
        <ele>612</ele>
        <time>2019-08-17T08:00:21Z</time>
      </trkpt>
      <trkpt lat="44.3405" lon="5.83516">
        <ele>612</ele>
        <time>2019-08-17T08:00:22Z</time>
      </trkpt>
      <trkpt lat="44.34054" lon="5.83519">
        <ele>612</ele>
        <time>2019-08-17T08:00:23Z</time>
      </trkpt>
      <trkpt lat="44.34058" lon="5.83523">
        <ele>612</ele>
        <time>2019-08-17T08:00:24Z</time>
      </trkpt>
      <trkpt lat="44.34062" lon="5.83527">
        <ele>612</ele>
        <time>2019-08-17T08:00:25Z</time>
      </trkpt>
      <trkpt lat="44.34066" lon="5.83531">
        <ele>612</ele>
        <time>2019-08-17T08:00:26Z</time>
      </trkpt>
      <trkpt lat="44.34069" lon="5.83535">
        <ele>613</ele>
        <time>2019-08-17T08:00:27Z</time>
      </trkpt>
      <trkpt lat="44.34073" lon="5.83538">
        <ele>613</ele>
        <time>2019-08-17T08:00:28Z</time>
      </trkpt>
      <trkpt lat="44.34077" lon="5.83542">
        <ele>613</ele>
        <time>2019-08-17T08:00:29Z</time>
      </trkpt>
      <trkpt lat="44.34081" lon="5.83546">
        <ele>613</ele>
        <time>2019-08-17T08:00:30Z</time>
      </trkpt>
      <trkpt lat="44.34085" lon="5.83549">
        <ele>613</ele>
        <time>2019-08-17T08:00:31Z</time>
      </trkpt>
      <trkpt lat="44.34089" lon="5.83553">
        <ele>613</ele>
        <time>2019-08-17T08:00:32Z</time>
      </trkpt>
      <trkpt lat="44.34092" lon="5.83557">
        <ele>614</ele>
        <time>2019-08-17T08:00:33Z</time>
      </trkpt>
      <trkpt lat="44.34096" lon="5.83561">
        <ele>614</ele>
        <time>2019-08-17T08:00:34Z</time>
      </trkpt>
      <trkpt lat="44.341" lon="5.83565">
        <ele>614</ele>
        <time>2019-08-17T08:00:35Z</time>
      </trkpt>
      <trkpt lat="44.34104" lon="5.83569">
        <ele>614</ele>
        <time>2019-08-17T08:00:36Z</time>
      </trkpt>
      <trkpt lat="44.34108" lon="5.83573">
        <ele>614</ele>
        <time>2019-08-17T08:00:37Z</time>
      </trkpt>
      <trkpt lat="44.34112" lon="5.83576">
        <ele>614</ele>
        <time>2019-08-17T08:00:38Z</time>
      </trkpt>
      <trkpt lat="44.34116" lon="5.8358">
        <ele>614</ele>
        <time>2019-08-17T08:00:39Z</time>
      </trkpt>
      <trkpt lat="44.3412" lon="5.83584">
        <ele>614</ele>
        <time>2019-08-17T08:00:40Z</time>
      </trkpt>
      <trkpt lat="44.34124" lon="5.83588">
        <ele>614</ele>
        <time>2019-08-17T08:00:41Z</time>
      </trkpt>
      <trkpt lat="44.34128" lon="5.83593">
        <ele>614</ele>
        <time>2019-08-17T08:00:42Z</time>
      </trkpt>
      <trkpt lat="44.34132" lon="5.83597">
        <ele>614</ele>
        <time>2019-08-17T08:00:43Z</time>
      </trkpt>
      <trkpt lat="44.34137" lon="5.83601">
        <ele>614</ele>
        <time>2019-08-17T08:00:44Z</time>
      </trkpt>
      <trkpt lat="44.34142" lon="5.83605">
        <ele>614</ele>
        <time>2019-08-17T08:00:45Z</time>
      </trkpt>
      <trkpt lat="44.34146" lon="5.8361">
        <ele>614</ele>
        <time>2019-08-17T08:00:46Z</time>
      </trkpt>
      <trkpt lat="44.34151" lon="5.83615">
        <ele>614</ele>
        <time>2019-08-17T08:00:47Z</time>
      </trkpt>
      <trkpt lat="44.34156" lon="5.8362">
        <ele>614</ele>
        <time>2019-08-17T08:00:48Z</time>
      </trkpt>
      <trkpt lat="44.34161" lon="5.83625">
        <ele>614</ele>
        <time>2019-08-17T08:00:49Z</time>
      </trkpt>
      <trkpt lat="44.34166" lon="5.8363">
        <ele>614</ele>
        <time>2019-08-17T08:00:50Z</time>
      </trkpt>
      <trkpt lat="44.34171" lon="5.83635">
        <ele>614</ele>
        <time>2019-08-17T08:00:51Z</time>
      </trkpt>
      <trkpt lat="44.34175" lon="5.83639">
        <ele>614</ele>
        <time>2019-08-17T08:00:52Z</time>
      </trkpt>
      <trkpt lat="44.3418" lon="5.83644">
        <ele>614</ele>
        <time>2019-08-17T08:00:53Z</time>
      </trkpt>
      <trkpt lat="44.34185" lon="5.83649">
        <ele>614</ele>
        <time>2019-08-17T08:00:54Z</time>
      </trkpt>
      <trkpt lat="44.3419" lon="5.83655">
        <ele>614</ele>
        <time>2019-08-17T08:00:55Z</time>
      </trkpt>
      <trkpt lat="44.34194" lon="5.8366">
        <ele>614</ele>
        <time>2019-08-17T08:00:56Z</time>
      </trkpt>
      <trkpt lat="44.34199" lon="5.83665">
        <ele>614</ele>
        <time>2019-08-17T08:00:57Z</time>
      </trkpt>
      <trkpt lat="44.34203" lon="5.8367">
        <ele>614</ele>
        <time>2019-08-17T08:00:58Z</time>
      </trkpt>
      <trkpt lat="44.34207" lon="5.83675">
        <ele>614</ele>
        <time>2019-08-17T08:00:59Z</time>
      </trkpt>
      <trkpt lat="44.34211" lon="5.8368">
        <ele>614</ele>
        <time>2019-08-17T08:01:00Z</time>
      </trkpt>
      <trkpt lat="44.34216" lon="5.83685">
        <ele>614</ele>
        <time>2019-08-17T08:01:01Z</time>
      </trkpt>
      <trkpt lat="44.34219" lon="5.8369">
        <ele>614</ele>
        <time>2019-08-17T08:01:02Z</time>
      </trkpt>
      <trkpt lat="44.34223" lon="5.83695">
        <ele>614</ele>
        <time>2019-08-17T08:01:03Z</time>
      </trkpt>
      <trkpt lat="44.34227" lon="5.837">
        <ele>614</ele>
        <time>2019-08-17T08:01:04Z</time>
      </trkpt>
      <trkpt lat="44.34231" lon="5.83705">
        <ele>614</ele>
        <time>2019-08-17T08:01:05Z</time>
      </trkpt>
      <trkpt lat="44.34235" lon="5.8371">
        <ele>614</ele>
        <time>2019-08-17T08:01:06Z</time>
      </trkpt>
      <trkpt lat="44.34238" lon="5.83714">
        <ele>614</ele>
        <time>2019-08-17T08:01:07Z</time>
      </trkpt>
      <trkpt lat="44.34242" lon="5.83719">
        <ele>614</ele>
        <time>2019-08-17T08:01:08Z</time>
      </trkpt>
      <trkpt lat="44.34246" lon="5.83724">
        <ele>614</ele>
        <time>2019-08-17T08:01:09Z</time>
      </trkpt>
      <trkpt lat="44.34249" lon="5.83729">
        <ele>614</ele>
        <time>2019-08-17T08:01:10Z</time>
      </trkpt>
      <trkpt lat="44.34253" lon="5.83734">
        <ele>614</ele>
        <time>2019-08-17T08:01:11Z</time>
      </trkpt>
      <trkpt lat="44.34257" lon="5.83738">
        <ele>614</ele>
        <time>2019-08-17T08:01:12Z</time>
      </trkpt>
      <trkpt lat="44.3426" lon="5.83743">
        <ele>614</ele>
        <time>2019-08-17T08:01:13Z</time>
      </trkpt>
      <trkpt lat="44.34264" lon="5.83748">
        <ele>614</ele>
        <time>2019-08-17T08:01:14Z</time>
      </trkpt>
      <trkpt lat="44.34267" lon="5.83752">
        <ele>614</ele>
        <time>2019-08-17T08:01:15Z</time>
      </trkpt>
      <trkpt lat="44.34271" lon="5.83757">
        <ele>614</ele>
        <time>2019-08-17T08:01:16Z</time>
      </trkpt>
      <trkpt lat="44.34275" lon="5.83762">
        <ele>614</ele>
        <time>2019-08-17T08:01:17Z</time>
      </trkpt>
      <trkpt lat="44.34278" lon="5.83766">
        <ele>614</ele>
        <time>2019-08-17T08:01:18Z</time>
      </trkpt>
      <trkpt lat="44.34282" lon="5.83771">
        <ele>614</ele>
        <time>2019-08-17T08:01:19Z</time>
      </trkpt>
      <trkpt lat="44.34285" lon="5.83775">
        <ele>614</ele>
        <time>2019-08-17T08:01:20Z</time>
      </trkpt>
      <trkpt lat="44.34289" lon="5.8378">
        <ele>614</ele>
        <time>2019-08-17T08:01:21Z</time>
      </trkpt>
      <trkpt lat="44.34292" lon="5.83784">
        <ele>614</ele>
        <time>2019-08-17T08:01:22Z</time>
      </trkpt>
      <trkpt lat="44.34296" lon="5.83789">
        <ele>614</ele>
        <time>2019-08-17T08:01:23Z</time>
      </trkpt>
      <trkpt lat="44.34299" lon="5.83793">
        <ele>614</ele>
        <time>2019-08-17T08:01:24Z</time>
      </trkpt>
      <trkpt lat="44.34303" lon="5.83798">
        <ele>614</ele>
        <time>2019-08-17T08:01:25Z</time>
      </trkpt>
      <trkpt lat="44.34306" lon="5.83803">
        <ele>614</ele>
        <time>2019-08-17T08:01:26Z</time>
      </trkpt>
      <trkpt lat="44.3431" lon="5.83808">
        <ele>614</ele>
        <time>2019-08-17T08:01:27Z</time>
      </trkpt>
      <trkpt lat="44.34313" lon="5.83813">
        <ele>614</ele>
        <time>2019-08-17T08:01:28Z</time>
      </trkpt>
      <trkpt lat="44.34317" lon="5.83817">
        <ele>614</ele>
        <time>2019-08-17T08:01:29Z</time>
      </trkpt>
      <trkpt lat="44.3432" lon="5.83822">
        <ele>614</ele>
        <time>2019-08-17T08:01:30Z</time>
      </trkpt>
      <trkpt lat="44.34324" lon="5.83827">
        <ele>614</ele>
        <time>2019-08-17T08:01:31Z</time>
      </trkpt>
      <trkpt lat="44.34327" lon="5.83832">
        <ele>614</ele>
        <time>2019-08-17T08:01:32Z</time>
      </trkpt>
      <trkpt lat="44.34331" lon="5.83836">
        <ele>614</ele>
        <time>2019-08-17T08:01:33Z</time>
      </trkpt>
      <trkpt lat="44.34335" lon="5.83841">
        <ele>614</ele>
        <time>2019-08-17T08:01:34Z</time>
      </trkpt>
      <trkpt lat="44.34338" lon="5.83846">
        <ele>614</ele>
        <time>2019-08-17T08:01:35Z</time>
      </trkpt>
      <trkpt lat="44.34342" lon="5.8385">
        <ele>614</ele>
        <time>2019-08-17T08:01:36Z</time>
      </trkpt>
      <trkpt lat="44.34346" lon="5.83855">
        <ele>614</ele>
        <time>2019-08-17T08:01:37Z</time>
      </trkpt>
      <trkpt lat="44.34349" lon="5.8386">
        <ele>614</ele>
        <time>2019-08-17T08:01:38Z</time>
      </trkpt>
      <trkpt lat="44.34353" lon="5.83865">
        <ele>614</ele>
        <time>2019-08-17T08:01:39Z</time>
      </trkpt>
      <trkpt lat="44.34357" lon="5.8387">
        <ele>614</ele>
        <time>2019-08-17T08:01:40Z</time>
      </trkpt>
      <trkpt lat="44.3436" lon="5.83875">
        <ele>614</ele>
        <time>2019-08-17T08:01:41Z</time>
      </trkpt>
      <trkpt lat="44.34364" lon="5.83879">
        <ele>614</ele>
        <time>2019-08-17T08:01:42Z</time>
      </trkpt>
      <trkpt lat="44.34368" lon="5.83884">
        <ele>614</ele>
        <time>2019-08-17T08:01:43Z</time>
      </trkpt>
      <trkpt lat="44.34371" lon="5.83889">
        <ele>614</ele>
        <time>2019-08-17T08:01:44Z</time>
      </trkpt>
      <trkpt lat="44.34375" lon="5.83893">
        <ele>615</ele>
        <time>2019-08-17T08:01:45Z</time>
      </trkpt>
      <trkpt lat="44.34379" lon="5.83898">
        <ele>615</ele>
        <time>2019-08-17T08:01:46Z</time>
      </trkpt>
      <trkpt lat="44.34383" lon="5.83903">
        <ele>615</ele>
        <time>2019-08-17T08:01:47Z</time>
      </trkpt>
      <trkpt lat="44.34387" lon="5.83908">
        <ele>615</ele>
        <time>2019-08-17T08:01:48Z</time>
      </trkpt>
      <trkpt lat="44.34391" lon="5.83913">
        <ele>615</ele>
        <time>2019-08-17T08:01:49Z</time>
      </trkpt>
      <trkpt lat="44.34394" lon="5.83918">
        <ele>615</ele>
        <time>2019-08-17T08:01:50Z</time>
      </trkpt>
      <trkpt lat="44.34399" lon="5.83923">
        <ele>615</ele>
        <time>2019-08-17T08:01:51Z</time>
      </trkpt>
      <trkpt lat="44.34402" lon="5.83928">
        <ele>615</ele>
        <time>2019-08-17T08:01:52Z</time>
      </trkpt>
      <trkpt lat="44.34406" lon="5.83933">
        <ele>615</ele>
        <time>2019-08-17T08:01:53Z</time>
      </trkpt>
      <trkpt lat="44.3441" lon="5.83938">
        <ele>615</ele>
        <time>2019-08-17T08:01:54Z</time>
      </trkpt>
      <trkpt lat="44.34414" lon="5.83944">
        <ele>615</ele>
        <time>2019-08-17T08:01:55Z</time>
      </trkpt>
      <trkpt lat="44.34418" lon="5.83949">
        <ele>615</ele>
        <time>2019-08-17T08:01:56Z</time>
      </trkpt>
      <trkpt lat="44.34422" lon="5.83954">
        <ele>615</ele>
        <time>2019-08-17T08:01:57Z</time>
      </trkpt>
      <trkpt lat="44.34426" lon="5.83959">
        <ele>615</ele>
        <time>2019-08-17T08:01:58Z</time>
      </trkpt>
      <trkpt lat="44.3443" lon="5.83965">
        <ele>615</ele>
        <time>2019-08-17T08:01:59Z</time>
      </trkpt>
      <trkpt lat="44.34434" lon="5.8397">
        <ele>615</ele>
        <time>2019-08-17T08:02:00Z</time>
      </trkpt>
      <trkpt lat="44.34438" lon="5.83975">
        <ele>615</ele>
        <time>2019-08-17T08:02:01Z</time>
      </trkpt>
      <trkpt lat="44.34442" lon="5.83981">
        <ele>615</ele>
        <time>2019-08-17T08:02:02Z</time>
      </trkpt>
      <trkpt lat="44.34446" lon="5.83986">
        <ele>615</ele>
        <time>2019-08-17T08:02:03Z</time>
      </trkpt>
      <trkpt lat="44.3445" lon="5.83991">
        <ele>615</ele>
        <time>2019-08-17T08:02:04Z</time>
      </trkpt>
      <trkpt lat="44.34454" lon="5.83997">
        <ele>615</ele>
        <time>2019-08-17T08:02:05Z</time>
      </trkpt>
      <trkpt lat="44.34458" lon="5.84002">
        <ele>615</ele>
        <time>2019-08-17T08:02:06Z</time>
      </trkpt>
      <trkpt lat="44.34462" lon="5.84007">
        <ele>615</ele>
        <time>2019-08-17T08:02:07Z</time>
      </trkpt>
      <trkpt lat="44.34467" lon="5.84013">
        <ele>615</ele>
        <time>2019-08-17T08:02:08Z</time>
      </trkpt>
      <trkpt lat="44.34471" lon="5.84019">
        <ele>615</ele>
        <time>2019-08-17T08:02:09Z</time>
      </trkpt>
      <trkpt lat="44.34475" lon="5.84024">
        <ele>615</ele>
        <time>2019-08-17T08:02:10Z</time>
      </trkpt>
      <trkpt lat="44.34479" lon="5.8403">
        <ele>615</ele>
        <time>2019-08-17T08:02:11Z</time>
      </trkpt>
      <trkpt lat="44.34483" lon="5.84035">
        <ele>615</ele>
        <time>2019-08-17T08:02:12Z</time>
      </trkpt>
      <trkpt lat="44.34488" lon="5.84041">
        <ele>615</ele>
        <time>2019-08-17T08:02:13Z</time>
      </trkpt>
      <trkpt lat="44.34493" lon="5.84047">
        <ele>615</ele>
        <time>2019-08-17T08:02:14Z</time>
      </trkpt>
      <trkpt lat="44.34497" lon="5.84053">
        <ele>615</ele>
        <time>2019-08-17T08:02:15Z</time>
      </trkpt>
      <trkpt lat="44.34502" lon="5.84059">
        <ele>615</ele>
        <time>2019-08-17T08:02:16Z</time>
      </trkpt>
      <trkpt lat="44.34507" lon="5.84064">
        <ele>615</ele>
        <time>2019-08-17T08:02:17Z</time>
      </trkpt>
      <trkpt lat="44.34511" lon="5.8407">
        <ele>615</ele>
        <time>2019-08-17T08:02:18Z</time>
      </trkpt>
      <trkpt lat="44.34516" lon="5.84076">
        <ele>615</ele>
        <time>2019-08-17T08:02:19Z</time>
      </trkpt>
      <trkpt lat="44.3452" lon="5.84082">
        <ele>615</ele>
        <time>2019-08-17T08:02:20Z</time>
      </trkpt>
      <trkpt lat="44.34525" lon="5.84088">
        <ele>615</ele>
        <time>2019-08-17T08:02:21Z</time>
      </trkpt>
      <trkpt lat="44.3453" lon="5.84094">
        <ele>615</ele>
        <time>2019-08-17T08:02:22Z</time>
      </trkpt>
      <trkpt lat="44.34534" lon="5.84099">
        <ele>615</ele>
        <time>2019-08-17T08:02:23Z</time>
      </trkpt>
      <trkpt lat="44.34538" lon="5.84105">
        <ele>615</ele>
        <time>2019-08-17T08:02:24Z</time>
      </trkpt>
      <trkpt lat="44.34542" lon="5.84111">
        <ele>615</ele>
        <time>2019-08-17T08:02:25Z</time>
      </trkpt>
      <trkpt lat="44.34547" lon="5.84117">
        <ele>615</ele>
        <time>2019-08-17T08:02:26Z</time>
      </trkpt>
      <trkpt lat="44.34551" lon="5.84122">
        <ele>615</ele>
        <time>2019-08-17T08:02:27Z</time>
      </trkpt>
      <trkpt lat="44.34555" lon="5.84128">
        <ele>615</ele>
        <time>2019-08-17T08:02:28Z</time>
      </trkpt>
      <trkpt lat="44.3456" lon="5.84134">
        <ele>615</ele>
        <time>2019-08-17T08:02:29Z</time>
      </trkpt>
      <trkpt lat="44.34564" lon="5.8414">
        <ele>615</ele>
        <time>2019-08-17T08:02:30Z</time>
      </trkpt>
      <trkpt lat="44.34568" lon="5.84145">
        <ele>615</ele>
        <time>2019-08-17T08:02:31Z</time>
      </trkpt>
      <trkpt lat="44.34572" lon="5.84152">
        <ele>615</ele>
        <time>2019-08-17T08:02:32Z</time>
      </trkpt>
      <trkpt lat="44.34577" lon="5.84158">
        <ele>615</ele>
        <time>2019-08-17T08:02:33Z</time>
      </trkpt>
      <trkpt lat="44.34581" lon="5.84164">
        <ele>615</ele>
        <time>2019-08-17T08:02:34Z</time>
      </trkpt>
      <trkpt lat="44.34584" lon="5.8417">
        <ele>615</ele>
        <time>2019-08-17T08:02:35Z</time>
      </trkpt>
      <trkpt lat="44.34588" lon="5.84176">
        <ele>615</ele>
        <time>2019-08-17T08:02:36Z</time>
      </trkpt>
      <trkpt lat="44.34592" lon="5.84183">
        <ele>615</ele>
        <time>2019-08-17T08:02:37Z</time>
      </trkpt>
      <trkpt lat="44.34595" lon="5.8419">
        <ele>615</ele>
        <time>2019-08-17T08:02:38Z</time>
      </trkpt>
      <trkpt lat="44.34599" lon="5.84196">
        <ele>615</ele>
        <time>2019-08-17T08:02:39Z</time>
      </trkpt>
      <trkpt lat="44.34602" lon="5.84203">
        <ele>615</ele>
        <time>2019-08-17T08:02:40Z</time>
      </trkpt>
      <trkpt lat="44.34605" lon="5.8421">
        <ele>615</ele>
        <time>2019-08-17T08:02:41Z</time>
      </trkpt>
      <trkpt lat="44.34607" lon="5.84217">
        <ele>615</ele>
        <time>2019-08-17T08:02:42Z</time>
      </trkpt>
      <trkpt lat="44.3461" lon="5.84225">
        <ele>615</ele>
        <time>2019-08-17T08:02:43Z</time>
      </trkpt>
      <trkpt lat="44.34612" lon="5.84232">
        <ele>615</ele>
        <time>2019-08-17T08:02:44Z</time>
      </trkpt>
      <trkpt lat="44.34614" lon="5.84239">
        <ele>615</ele>
        <time>2019-08-17T08:02:45Z</time>
      </trkpt>
      <trkpt lat="44.34616" lon="5.84246">
        <ele>615</ele>
        <time>2019-08-17T08:02:46Z</time>
      </trkpt>
      <trkpt lat="44.34618" lon="5.84254">
        <ele>615</ele>
        <time>2019-08-17T08:02:47Z</time>
      </trkpt>
      <trkpt lat="44.3462" lon="5.84262">
        <ele>615</ele>
        <time>2019-08-17T08:02:48Z</time>
      </trkpt>
      <trkpt lat="44.34621" lon="5.84269">
        <ele>616</ele>
        <time>2019-08-17T08:02:49Z</time>
      </trkpt>
      <trkpt lat="44.34623" lon="5.84276">
        <ele>616</ele>
        <time>2019-08-17T08:02:50Z</time>
      </trkpt>
      <trkpt lat="44.34624" lon="5.84284">
        <ele>616</ele>
        <time>2019-08-17T08:02:51Z</time>
      </trkpt>
      <trkpt lat="44.34626" lon="5.84292">
        <ele>616</ele>
        <time>2019-08-17T08:02:52Z</time>
      </trkpt>
      <trkpt lat="44.34627" lon="5.84299">
        <ele>617</ele>
        <time>2019-08-17T08:02:53Z</time>
      </trkpt>
      <trkpt lat="44.34629" lon="5.84306">
        <ele>617</ele>
        <time>2019-08-17T08:02:54Z</time>
      </trkpt>
      <trkpt lat="44.3463" lon="5.84314">
        <ele>617</ele>
        <time>2019-08-17T08:02:55Z</time>
      </trkpt>
      <trkpt lat="44.34632" lon="5.84321">
        <ele>617</ele>
        <time>2019-08-17T08:02:56Z</time>
      </trkpt>
      <trkpt lat="44.34633" lon="5.84328">
        <ele>617</ele>
        <time>2019-08-17T08:02:57Z</time>
      </trkpt>
      <trkpt lat="44.34635" lon="5.84335">
        <ele>618</ele>
        <time>2019-08-17T08:02:58Z</time>
      </trkpt>
      <trkpt lat="44.34637" lon="5.84342">
        <ele>618</ele>
        <time>2019-08-17T08:02:59Z</time>
      </trkpt>
      <trkpt lat="44.34638" lon="5.84349">
        <ele>618</ele>
        <time>2019-08-17T08:03:00Z</time>
      </trkpt>
      <trkpt lat="44.34641" lon="5.84355">
        <ele>618</ele>
        <time>2019-08-17T08:03:01Z</time>
      </trkpt>
      <trkpt lat="44.34643" lon="5.84361">
        <ele>619</ele>
        <time>2019-08-17T08:03:02Z</time>
      </trkpt>
      <trkpt lat="44.34645" lon="5.84368">
        <ele>619</ele>
        <time>2019-08-17T08:03:03Z</time>
      </trkpt>
      <trkpt lat="44.34648" lon="5.84374">
        <ele>619</ele>
        <time>2019-08-17T08:03:04Z</time>
      </trkpt>
      <trkpt lat="44.3465" lon="5.8438">
        <ele>619</ele>
        <time>2019-08-17T08:03:05Z</time>
      </trkpt>
      <trkpt lat="44.34653" lon="5.84386">
        <ele>619</ele>
        <time>2019-08-17T08:03:06Z</time>
      </trkpt>
      <trkpt lat="44.34656" lon="5.84392">
        <ele>620</ele>
        <time>2019-08-17T08:03:07Z</time>
      </trkpt>
      <trkpt lat="44.34659" lon="5.84399">
        <ele>620</ele>
        <time>2019-08-17T08:03:08Z</time>
      </trkpt>
      <trkpt lat="44.34662" lon="5.84405">
        <ele>620</ele>
        <time>2019-08-17T08:03:09Z</time>
      </trkpt>
      <trkpt lat="44.34665" lon="5.8441">
        <ele>620</ele>
        <time>2019-08-17T08:03:10Z</time>
      </trkpt>
      <trkpt lat="44.34668" lon="5.84416">
        <ele>620</ele>
        <time>2019-08-17T08:03:11Z</time>
      </trkpt>
      <trkpt lat="44.34672" lon="5.84421">
        <ele>620</ele>
        <time>2019-08-17T08:03:12Z</time>
      </trkpt>
      <trkpt lat="44.34676" lon="5.84426">
        <ele>620</ele>
        <time>2019-08-17T08:03:13Z</time>
      </trkpt>
      <trkpt lat="44.34679" lon="5.84431">
        <ele>621</ele>
        <time>2019-08-17T08:03:14Z</time>
      </trkpt>
      <trkpt lat="44.34683" lon="5.84436">
        <ele>621</ele>
        <time>2019-08-17T08:03:15Z</time>
      </trkpt>
      <trkpt lat="44.34687" lon="5.84441">
        <ele>621</ele>
        <time>2019-08-17T08:03:16Z</time>
      </trkpt>
      <trkpt lat="44.34691" lon="5.84445">
        <ele>621</ele>
        <time>2019-08-17T08:03:17Z</time>
      </trkpt>
      <trkpt lat="44.34695" lon="5.8445">
        <ele>621</ele>
        <time>2019-08-17T08:03:18Z</time>
      </trkpt>
      <trkpt lat="44.34699" lon="5.84454">
        <ele>621</ele>
        <time>2019-08-17T08:03:19Z</time>
      </trkpt>
      <trkpt lat="44.34703" lon="5.84459">
        <ele>622</ele>
        <time>2019-08-17T08:03:20Z</time>
      </trkpt>
      <trkpt lat="44.34707" lon="5.84463">
        <ele>622</ele>
        <time>2019-08-17T08:03:21Z</time>
      </trkpt>
      <trkpt lat="44.34711" lon="5.84468">
        <ele>622</ele>
        <time>2019-08-17T08:03:22Z</time>
      </trkpt>
      <trkpt lat="44.34715" lon="5.84473">
        <ele>622</ele>
        <time>2019-08-17T08:03:23Z</time>
      </trkpt>
      <trkpt lat="44.34719" lon="5.84477">
        <ele>622</ele>
        <time>2019-08-17T08:03:24Z</time>
      </trkpt>
      <trkpt lat="44.34723" lon="5.84482">
        <ele>622</ele>
        <time>2019-08-17T08:03:25Z</time>
      </trkpt>
      <trkpt lat="44.34727" lon="5.84487">
        <ele>622</ele>
        <time>2019-08-17T08:03:26Z</time>
      </trkpt>
      <trkpt lat="44.34731" lon="5.84491">
        <ele>623</ele>
        <time>2019-08-17T08:03:27Z</time>
      </trkpt>
      <trkpt lat="44.34735" lon="5.84496">
        <ele>623</ele>
        <time>2019-08-17T08:03:28Z</time>
      </trkpt>
      <trkpt lat="44.34739" lon="5.84501">
        <ele>623</ele>
        <time>2019-08-17T08:03:29Z</time>
      </trkpt>
      <trkpt lat="44.34743" lon="5.84505">
        <ele>623</ele>
        <time>2019-08-17T08:03:30Z</time>
      </trkpt>
      <trkpt lat="44.34747" lon="5.8451">
        <ele>623</ele>
        <time>2019-08-17T08:03:31Z</time>
      </trkpt>
      <trkpt lat="44.34752" lon="5.84515">
        <ele>623</ele>
        <time>2019-08-17T08:03:32Z</time>
      </trkpt>
      <trkpt lat="44.34756" lon="5.84519">
        <ele>623</ele>
        <time>2019-08-17T08:03:33Z</time>
      </trkpt>
      <trkpt lat="44.3476" lon="5.84524">
        <ele>623</ele>
        <time>2019-08-17T08:03:34Z</time>
      </trkpt>
      <trkpt lat="44.34764" lon="5.84529">
        <ele>624</ele>
        <time>2019-08-17T08:03:35Z</time>
      </trkpt>
      <trkpt lat="44.34768" lon="5.84534">
        <ele>624</ele>
        <time>2019-08-17T08:03:36Z</time>
      </trkpt>
      <trkpt lat="44.34772" lon="5.84539">
        <ele>624</ele>
        <time>2019-08-17T08:03:37Z</time>
      </trkpt>
      <trkpt lat="44.34776" lon="5.84544">
        <ele>624</ele>
        <time>2019-08-17T08:03:38Z</time>
      </trkpt>
      <trkpt lat="44.3478" lon="5.84548">
        <ele>624</ele>
        <time>2019-08-17T08:03:39Z</time>
      </trkpt>
      <trkpt lat="44.34784" lon="5.84553">
        <ele>624</ele>
        <time>2019-08-17T08:03:40Z</time>
      </trkpt>
      <trkpt lat="44.34788" lon="5.84557">
        <ele>624</ele>
        <time>2019-08-17T08:03:41Z</time>
      </trkpt>
      <trkpt lat="44.34792" lon="5.84562">
        <ele>624</ele>
        <time>2019-08-17T08:03:42Z</time>
      </trkpt>
      <trkpt lat="44.34796" lon="5.84566">
        <ele>625</ele>
        <time>2019-08-17T08:03:43Z</time>
      </trkpt>
      <trkpt lat="44.348" lon="5.84571">
        <ele>625</ele>
        <time>2019-08-17T08:03:44Z</time>
      </trkpt>
      <trkpt lat="44.34803" lon="5.84576">
        <ele>625</ele>
        <time>2019-08-17T08:03:45Z</time>
      </trkpt>
      <trkpt lat="44.34808" lon="5.84581">
        <ele>625</ele>
        <time>2019-08-17T08:03:46Z</time>
      </trkpt>
      <trkpt lat="44.34811" lon="5.84586">
        <ele>625</ele>
        <time>2019-08-17T08:03:47Z</time>
      </trkpt>
      <trkpt lat="44.34816" lon="5.8459">
        <ele>625</ele>
        <time>2019-08-17T08:03:48Z</time>
      </trkpt>
      <trkpt lat="44.34819" lon="5.84595">
        <ele>625</ele>
        <time>2019-08-17T08:03:49Z</time>
      </trkpt>
      <trkpt lat="44.34823" lon="5.846">
        <ele>625</ele>
        <time>2019-08-17T08:03:50Z</time>
      </trkpt>
      <trkpt lat="44.34827" lon="5.84605">
        <ele>625</ele>
        <time>2019-08-17T08:03:51Z</time>
      </trkpt>
      <trkpt lat="44.34831" lon="5.8461">
        <ele>626</ele>
        <time>2019-08-17T08:03:52Z</time>
      </trkpt>
      <trkpt lat="44.34835" lon="5.84616">
        <ele>626</ele>
        <time>2019-08-17T08:03:53Z</time>
      </trkpt>
      <trkpt lat="44.34838" lon="5.84621">
        <ele>626</ele>
        <time>2019-08-17T08:03:54Z</time>
      </trkpt>
      <trkpt lat="44.34842" lon="5.84626">
        <ele>626</ele>
        <time>2019-08-17T08:03:55Z</time>
      </trkpt>
      <trkpt lat="44.34845" lon="5.84632">
        <ele>626</ele>
        <time>2019-08-17T08:03:56Z</time>
      </trkpt>
      <trkpt lat="44.34849" lon="5.84638">
        <ele>626</ele>
        <time>2019-08-17T08:03:57Z</time>
      </trkpt>
      <trkpt lat="44.34852" lon="5.84644">
        <ele>626</ele>
        <time>2019-08-17T08:03:58Z</time>
      </trkpt>
      <trkpt lat="44.34856" lon="5.8465">
        <ele>626</ele>
        <time>2019-08-17T08:03:59Z</time>
      </trkpt>
      <trkpt lat="44.34859" lon="5.84656">
        <ele>626</ele>
        <time>2019-08-17T08:04:00Z</time>
      </trkpt>
      <trkpt lat="44.34863" lon="5.84661">
        <ele>627</ele>
        <time>2019-08-17T08:04:01Z</time>
      </trkpt>
      <trkpt lat="44.34866" lon="5.84667">
        <ele>627</ele>
        <time>2019-08-17T08:04:02Z</time>
      </trkpt>
      <trkpt lat="44.34869" lon="5.84673">
        <ele>627</ele>
        <time>2019-08-17T08:04:03Z</time>
      </trkpt>
      <trkpt lat="44.34872" lon="5.84679">
        <ele>627</ele>
        <time>2019-08-17T08:04:04Z</time>
      </trkpt>
      <trkpt lat="44.34876" lon="5.84685">
        <ele>627</ele>
        <time>2019-08-17T08:04:05Z</time>
      </trkpt>
      <trkpt lat="44.34879" lon="5.8469">
        <ele>627</ele>
        <time>2019-08-17T08:04:06Z</time>
      </trkpt>
      <trkpt lat="44.34882" lon="5.84696">
        <ele>627</ele>
        <time>2019-08-17T08:04:07Z</time>
      </trkpt>
      <trkpt lat="44.34885" lon="5.84701">
        <ele>628</ele>
        <time>2019-08-17T08:04:08Z</time>
      </trkpt>
      <trkpt lat="44.34889" lon="5.84707">
        <ele>628</ele>
        <time>2019-08-17T08:04:09Z</time>
      </trkpt>
      <trkpt lat="44.34893" lon="5.84712">
        <ele>628</ele>
        <time>2019-08-17T08:04:10Z</time>
      </trkpt>
      <trkpt lat="44.34896" lon="5.84718">
        <ele>628</ele>
        <time>2019-08-17T08:04:11Z</time>
      </trkpt>
      <trkpt lat="44.349" lon="5.84723">
        <ele>628</ele>
        <time>2019-08-17T08:04:12Z</time>
      </trkpt>
      <trkpt lat="44.34904" lon="5.84728">
        <ele>628</ele>
        <time>2019-08-17T08:04:13Z</time>
      </trkpt>
      <trkpt lat="44.34908" lon="5.84732">
        <ele>629</ele>
        <time>2019-08-17T08:04:14Z</time>
      </trkpt>
      <trkpt lat="44.34912" lon="5.84737">
        <ele>629</ele>
        <time>2019-08-17T08:04:15Z</time>
      </trkpt>
      <trkpt lat="44.34917" lon="5.84741">
        <ele>629</ele>
        <time>2019-08-17T08:04:16Z</time>
      </trkpt>
      <trkpt lat="44.34921" lon="5.84746">
        <ele>629</ele>
        <time>2019-08-17T08:04:17Z</time>
      </trkpt>
      <trkpt lat="44.34925" lon="5.8475">
        <ele>629</ele>
        <time>2019-08-17T08:04:18Z</time>
      </trkpt>
      <trkpt lat="44.3493" lon="5.84754">
        <ele>629</ele>
        <time>2019-08-17T08:04:19Z</time>
      </trkpt>
      <trkpt lat="44.34934" lon="5.84758">
        <ele>629</ele>
        <time>2019-08-17T08:04:20Z</time>
      </trkpt>
      <trkpt lat="44.34939" lon="5.84762">
        <ele>629</ele>
        <time>2019-08-17T08:04:21Z</time>
      </trkpt>
      <trkpt lat="44.34943" lon="5.84766">
        <ele>629</ele>
        <time>2019-08-17T08:04:22Z</time>
      </trkpt>
      <trkpt lat="44.34948" lon="5.8477">
        <ele>630</ele>
        <time>2019-08-17T08:04:23Z</time>
      </trkpt>
      <trkpt lat="44.34952" lon="5.84774">
        <ele>630</ele>
        <time>2019-08-17T08:04:24Z</time>
      </trkpt>
      <trkpt lat="44.34956" lon="5.84778">
        <ele>630</ele>
        <time>2019-08-17T08:04:25Z</time>
      </trkpt>
      <trkpt lat="44.34961" lon="5.84782">
        <ele>630</ele>
        <time>2019-08-17T08:04:26Z</time>
      </trkpt>
      <trkpt lat="44.34965" lon="5.84785">
        <ele>630</ele>
        <time>2019-08-17T08:04:27Z</time>
      </trkpt>
      <trkpt lat="44.34969" lon="5.84789">
        <ele>630</ele>
        <time>2019-08-17T08:04:28Z</time>
      </trkpt>
      <trkpt lat="44.34974" lon="5.84793">
        <ele>630</ele>
        <time>2019-08-17T08:04:29Z</time>
      </trkpt>
      <trkpt lat="44.34978" lon="5.84796">
        <ele>630</ele>
        <time>2019-08-17T08:04:30Z</time>
      </trkpt>
      <trkpt lat="44.34982" lon="5.848">
        <ele>630</ele>
        <time>2019-08-17T08:04:31Z</time>
      </trkpt>
      <trkpt lat="44.34986" lon="5.84804">
        <ele>630</ele>
        <time>2019-08-17T08:04:32Z</time>
      </trkpt>
      <trkpt lat="44.34991" lon="5.84808">
        <ele>630</ele>
        <time>2019-08-17T08:04:33Z</time>
      </trkpt>
      <trkpt lat="44.34995" lon="5.84812">
        <ele>630</ele>
        <time>2019-08-17T08:04:34Z</time>
      </trkpt>
      <trkpt lat="44.34999" lon="5.84816">
        <ele>630</ele>
        <time>2019-08-17T08:04:35Z</time>
      </trkpt>
      <trkpt lat="44.35004" lon="5.8482">
        <ele>630</ele>
        <time>2019-08-17T08:04:36Z</time>
      </trkpt>
      <trkpt lat="44.35008" lon="5.84824">
        <ele>630</ele>
        <time>2019-08-17T08:04:37Z</time>
      </trkpt>
      <trkpt lat="44.35012" lon="5.84829">
        <ele>631</ele>
        <time>2019-08-17T08:04:38Z</time>
      </trkpt>
      <trkpt lat="44.35016" lon="5.84833">
        <ele>631</ele>
        <time>2019-08-17T08:04:39Z</time>
      </trkpt>
      <trkpt lat="44.3502" lon="5.84838">
        <ele>631</ele>
        <time>2019-08-17T08:04:40Z</time>
      </trkpt>
      <trkpt lat="44.35025" lon="5.84842">
        <ele>631</ele>
        <time>2019-08-17T08:04:41Z</time>
      </trkpt>
      <trkpt lat="44.35028" lon="5.84847">
        <ele>631</ele>
        <time>2019-08-17T08:04:42Z</time>
      </trkpt>
      <trkpt lat="44.35032" lon="5.84852">
        <ele>631</ele>
        <time>2019-08-17T08:04:43Z</time>
      </trkpt>
      <trkpt lat="44.35036" lon="5.84856">
        <ele>631</ele>
        <time>2019-08-17T08:04:44Z</time>
      </trkpt>
      <trkpt lat="44.3504" lon="5.84861">
        <ele>631</ele>
        <time>2019-08-17T08:04:45Z</time>
      </trkpt>
      <trkpt lat="44.35044" lon="5.84867">
        <ele>632</ele>
        <time>2019-08-17T08:04:46Z</time>
      </trkpt>
      <trkpt lat="44.35048" lon="5.84872">
        <ele>632</ele>
        <time>2019-08-17T08:04:47Z</time>
      </trkpt>
      <trkpt lat="44.35051" lon="5.84877">
        <ele>632</ele>
        <time>2019-08-17T08:04:48Z</time>
      </trkpt>
      <trkpt lat="44.35055" lon="5.84882">
        <ele>632</ele>
        <time>2019-08-17T08:04:49Z</time>
      </trkpt>
      <trkpt lat="44.35058" lon="5.84888">
        <ele>632</ele>
        <time>2019-08-17T08:04:50Z</time>
      </trkpt>
      <trkpt lat="44.35062" lon="5.84893">
        <ele>632</ele>
        <time>2019-08-17T08:04:51Z</time>
      </trkpt>
      <trkpt lat="44.35065" lon="5.84899">
        <ele>632</ele>
        <time>2019-08-17T08:04:52Z</time>
      </trkpt>
      <trkpt lat="44.35069" lon="5.84904">
        <ele>632</ele>
        <time>2019-08-17T08:04:53Z</time>
      </trkpt>
      <trkpt lat="44.35072" lon="5.8491">
        <ele>632</ele>
        <time>2019-08-17T08:04:54Z</time>
      </trkpt>
      <trkpt lat="44.35075" lon="5.84915">
        <ele>633</ele>
        <time>2019-08-17T08:04:55Z</time>
      </trkpt>
      <trkpt lat="44.35079" lon="5.84921">
        <ele>633</ele>
        <time>2019-08-17T08:04:56Z</time>
      </trkpt>
      <trkpt lat="44.35082" lon="5.84927">
        <ele>633</ele>
        <time>2019-08-17T08:04:57Z</time>
      </trkpt>
      <trkpt lat="44.35085" lon="5.84933">
        <ele>633</ele>
        <time>2019-08-17T08:04:58Z</time>
      </trkpt>
      <trkpt lat="44.35088" lon="5.84939">
        <ele>633</ele>
        <time>2019-08-17T08:04:59Z</time>
      </trkpt>
      <trkpt lat="44.35091" lon="5.84945">
        <ele>633</ele>
        <time>2019-08-17T08:05:00Z</time>
      </trkpt>
      <trkpt lat="44.35094" lon="5.84951">
        <ele>634</ele>
        <time>2019-08-17T08:05:01Z</time>
      </trkpt>
      <trkpt lat="44.35097" lon="5.84957">
        <ele>634</ele>
        <time>2019-08-17T08:05:02Z</time>
      </trkpt>
      <trkpt lat="44.35099" lon="5.84963">
        <ele>634</ele>
        <time>2019-08-17T08:05:03Z</time>
      </trkpt>
      <trkpt lat="44.35102" lon="5.84969">
        <ele>634</ele>
        <time>2019-08-17T08:05:04Z</time>
      </trkpt>
      <trkpt lat="44.35105" lon="5.84975">
        <ele>634</ele>
        <time>2019-08-17T08:05:05Z</time>
      </trkpt>
      <trkpt lat="44.35107" lon="5.84981">
        <ele>634</ele>
        <time>2019-08-17T08:05:06Z</time>
      </trkpt>
      <trkpt lat="44.3511" lon="5.84987">
        <ele>634</ele>
        <time>2019-08-17T08:05:07Z</time>
      </trkpt>
      <trkpt lat="44.35112" lon="5.84993">
        <ele>634</ele>
        <time>2019-08-17T08:05:08Z</time>
      </trkpt>
      <trkpt lat="44.35115" lon="5.84999">
        <ele>635</ele>
        <time>2019-08-17T08:05:09Z</time>
      </trkpt>
      <trkpt lat="44.35117" lon="5.85005">
        <ele>635</ele>
        <time>2019-08-17T08:05:10Z</time>
      </trkpt>
      <trkpt lat="44.3512" lon="5.85011">
        <ele>635</ele>
        <time>2019-08-17T08:05:11Z</time>
      </trkpt>
      <trkpt lat="44.35123" lon="5.85017">
        <ele>635</ele>
        <time>2019-08-17T08:05:12Z</time>
      </trkpt>
      <trkpt lat="44.35125" lon="5.85023">
        <ele>635</ele>
        <time>2019-08-17T08:05:13Z</time>
      </trkpt>
      <trkpt lat="44.35128" lon="5.85029">
        <ele>635</ele>
        <time>2019-08-17T08:05:14Z</time>
      </trkpt>
      <trkpt lat="44.3513" lon="5.85035">
        <ele>635</ele>
        <time>2019-08-17T08:05:15Z</time>
      </trkpt>
      <trkpt lat="44.35133" lon="5.8504">
        <ele>635</ele>
        <time>2019-08-17T08:05:16Z</time>
      </trkpt>
      <trkpt lat="44.35136" lon="5.85046">
        <ele>635</ele>
        <time>2019-08-17T08:05:17Z</time>
      </trkpt>
      <trkpt lat="44.3514" lon="5.85051">
        <ele>635</ele>
        <time>2019-08-17T08:05:18Z</time>
      </trkpt>
      <trkpt lat="44.35143" lon="5.85057">
        <ele>635</ele>
        <time>2019-08-17T08:05:19Z</time>
      </trkpt>
      <trkpt lat="44.35147" lon="5.85062">
        <ele>635</ele>
        <time>2019-08-17T08:05:20Z</time>
      </trkpt>
      <trkpt lat="44.35151" lon="5.85067">
        <ele>635</ele>
        <time>2019-08-17T08:05:21Z</time>
      </trkpt>
      <trkpt lat="44.35155" lon="5.85072">
        <ele>635</ele>
        <time>2019-08-17T08:05:22Z</time>
      </trkpt>
      <trkpt lat="44.35159" lon="5.85076">
        <ele>635</ele>
        <time>2019-08-17T08:05:23Z</time>
      </trkpt>
      <trkpt lat="44.35163" lon="5.85081">
        <ele>635</ele>
        <time>2019-08-17T08:05:24Z</time>
      </trkpt>
      <trkpt lat="44.35167" lon="5.85085">
        <ele>635</ele>
        <time>2019-08-17T08:05:25Z</time>
      </trkpt>
      <trkpt lat="44.35172" lon="5.8509">
        <ele>636</ele>
        <time>2019-08-17T08:05:26Z</time>
      </trkpt>
      <trkpt lat="44.35176" lon="5.85095">
        <ele>636</ele>
        <time>2019-08-17T08:05:27Z</time>
      </trkpt>
      <trkpt lat="44.3518" lon="5.851">
        <ele>636</ele>
        <time>2019-08-17T08:05:28Z</time>
      </trkpt>
      <trkpt lat="44.35184" lon="5.85105">
        <ele>636</ele>
        <time>2019-08-17T08:05:29Z</time>
      </trkpt>
      <trkpt lat="44.35188" lon="5.8511">
        <ele>636</ele>
        <time>2019-08-17T08:05:30Z</time>
      </trkpt>
      <trkpt lat="44.35193" lon="5.85115">
        <ele>636</ele>
        <time>2019-08-17T08:05:31Z</time>
      </trkpt>
      <trkpt lat="44.35197" lon="5.8512">
        <ele>636</ele>
        <time>2019-08-17T08:05:32Z</time>
      </trkpt>
      <trkpt lat="44.35201" lon="5.85125">
        <ele>636</ele>
        <time>2019-08-17T08:05:33Z</time>
      </trkpt>
      <trkpt lat="44.35205" lon="5.8513">
        <ele>636</ele>
        <time>2019-08-17T08:05:34Z</time>
      </trkpt>
      <trkpt lat="44.35209" lon="5.85135">
        <ele>636</ele>
        <time>2019-08-17T08:05:35Z</time>
      </trkpt>
      <trkpt lat="44.35213" lon="5.85141">
        <ele>636</ele>
        <time>2019-08-17T08:05:36Z</time>
      </trkpt>
      <trkpt lat="44.35216" lon="5.85147">
        <ele>636</ele>
        <time>2019-08-17T08:05:37Z</time>
      </trkpt>
      <trkpt lat="44.3522" lon="5.85153">
        <ele>636</ele>
        <time>2019-08-17T08:05:38Z</time>
      </trkpt>
      <trkpt lat="44.35223" lon="5.85159">
        <ele>637</ele>
        <time>2019-08-17T08:05:39Z</time>
      </trkpt>
      <trkpt lat="44.35226" lon="5.85166">
        <ele>637</ele>
        <time>2019-08-17T08:05:40Z</time>
      </trkpt>
      <trkpt lat="44.35228" lon="5.85173">
        <ele>637</ele>
        <time>2019-08-17T08:05:41Z</time>
      </trkpt>
      <trkpt lat="44.35231" lon="5.8518">
        <ele>637</ele>
        <time>2019-08-17T08:05:42Z</time>
      </trkpt>
      <trkpt lat="44.35233" lon="5.85186">
        <ele>637</ele>
        <time>2019-08-17T08:05:43Z</time>
      </trkpt>
      <trkpt lat="44.35235" lon="5.85193">
        <ele>637</ele>
        <time>2019-08-17T08:05:44Z</time>
      </trkpt>
      <trkpt lat="44.35237" lon="5.85199">
        <ele>638</ele>
        <time>2019-08-17T08:05:45Z</time>
      </trkpt>
      <trkpt lat="44.35239" lon="5.85206">
        <ele>638</ele>
        <time>2019-08-17T08:05:46Z</time>
      </trkpt>
      <trkpt lat="44.35241" lon="5.85212">
        <ele>638</ele>
        <time>2019-08-17T08:05:47Z</time>
      </trkpt>
      <trkpt lat="44.35243" lon="5.85219">
        <ele>638</ele>
        <time>2019-08-17T08:05:48Z</time>
      </trkpt>
      <trkpt lat="44.35245" lon="5.85225">
        <ele>638</ele>
        <time>2019-08-17T08:05:49Z</time>
      </trkpt>
      <trkpt lat="44.35247" lon="5.85232">
        <ele>638</ele>
        <time>2019-08-17T08:05:50Z</time>
      </trkpt>
      <trkpt lat="44.35249" lon="5.85238">
        <ele>639</ele>
        <time>2019-08-17T08:05:51Z</time>
      </trkpt>
      <trkpt lat="44.3525" lon="5.85244">
        <ele>639</ele>
        <time>2019-08-17T08:05:52Z</time>
      </trkpt>
      <trkpt lat="44.35252" lon="5.85251">
        <ele>639</ele>
        <time>2019-08-17T08:05:53Z</time>
      </trkpt>
      <trkpt lat="44.35255" lon="5.85257">
        <ele>639</ele>
        <time>2019-08-17T08:05:54Z</time>
      </trkpt>
      <trkpt lat="44.35257" lon="5.85263">
        <ele>639</ele>
        <time>2019-08-17T08:05:55Z</time>
      </trkpt>
      <trkpt lat="44.35258" lon="5.85269">
        <ele>640</ele>
        <time>2019-08-17T08:05:56Z</time>
      </trkpt>
      <trkpt lat="44.3526" lon="5.85275">
        <ele>640</ele>
        <time>2019-08-17T08:05:57Z</time>
      </trkpt>
      <trkpt lat="44.35262" lon="5.85281">
        <ele>640</ele>
        <time>2019-08-17T08:05:58Z</time>
      </trkpt>
      <trkpt lat="44.35264" lon="5.85287">
        <ele>640</ele>
        <time>2019-08-17T08:05:59Z</time>
      </trkpt>
      <trkpt lat="44.35266" lon="5.85293">
        <ele>640</ele>
        <time>2019-08-17T08:06:00Z</time>
      </trkpt>
      <trkpt lat="44.35268" lon="5.85299">
        <ele>640</ele>
        <time>2019-08-17T08:06:01Z</time>
      </trkpt>
      <trkpt lat="44.35269" lon="5.85306">
        <ele>641</ele>
        <time>2019-08-17T08:06:02Z</time>
      </trkpt>
      <trkpt lat="44.35271" lon="5.85311">
        <ele>641</ele>
        <time>2019-08-17T08:06:03Z</time>
      </trkpt>
      <trkpt lat="44.35273" lon="5.85317">
        <ele>641</ele>
        <time>2019-08-17T08:06:04Z</time>
      </trkpt>
      <trkpt lat="44.35275" lon="5.85323">
        <ele>641</ele>
        <time>2019-08-17T08:06:05Z</time>
      </trkpt>
      <trkpt lat="44.35276" lon="5.85329">
        <ele>641</ele>
        <time>2019-08-17T08:06:06Z</time>
      </trkpt>
      <trkpt lat="44.35278" lon="5.85335">
        <ele>641</ele>
        <time>2019-08-17T08:06:07Z</time>
      </trkpt>
      <trkpt lat="44.35281" lon="5.85341">
        <ele>641</ele>
        <time>2019-08-17T08:06:08Z</time>
      </trkpt>
      <trkpt lat="44.35283" lon="5.85347">
        <ele>641</ele>
        <time>2019-08-17T08:06:09Z</time>
      </trkpt>
      <trkpt lat="44.35284" lon="5.85354">
        <ele>641</ele>
        <time>2019-08-17T08:06:10Z</time>
      </trkpt>
      <trkpt lat="44.35286" lon="5.8536">
        <ele>641</ele>
        <time>2019-08-17T08:06:11Z</time>
      </trkpt>
      <trkpt lat="44.35289" lon="5.85366">
        <ele>641</ele>
        <time>2019-08-17T08:06:12Z</time>
      </trkpt>
      <trkpt lat="44.35291" lon="5.85372">
        <ele>641</ele>
        <time>2019-08-17T08:06:13Z</time>
      </trkpt>
      <trkpt lat="44.35293" lon="5.85379">
        <ele>641</ele>
        <time>2019-08-17T08:06:14Z</time>
      </trkpt>
      <trkpt lat="44.35295" lon="5.85385">
        <ele>641</ele>
        <time>2019-08-17T08:06:15Z</time>
      </trkpt>
      <trkpt lat="44.35297" lon="5.85392">
        <ele>641</ele>
        <time>2019-08-17T08:06:16Z</time>
      </trkpt>
      <trkpt lat="44.353" lon="5.85398">
        <ele>641</ele>
        <time>2019-08-17T08:06:17Z</time>
      </trkpt>
      <trkpt lat="44.35302" lon="5.85405">
        <ele>641</ele>
        <time>2019-08-17T08:06:18Z</time>
      </trkpt>
      <trkpt lat="44.35305" lon="5.85411">
        <ele>641</ele>
        <time>2019-08-17T08:06:19Z</time>
      </trkpt>
      <trkpt lat="44.35307" lon="5.85417">
        <ele>642</ele>
        <time>2019-08-17T08:06:20Z</time>
      </trkpt>
      <trkpt lat="44.3531" lon="5.85424">
        <ele>642</ele>
        <time>2019-08-17T08:06:21Z</time>
      </trkpt>
      <trkpt lat="44.35313" lon="5.85429">
        <ele>642</ele>
        <time>2019-08-17T08:06:22Z</time>
      </trkpt>
      <trkpt lat="44.35316" lon="5.85435">
        <ele>642</ele>
        <time>2019-08-17T08:06:23Z</time>
      </trkpt>
      <trkpt lat="44.35319" lon="5.85441">
        <ele>643</ele>
        <time>2019-08-17T08:06:24Z</time>
      </trkpt>
      <trkpt lat="44.35322" lon="5.85447">
        <ele>643</ele>
        <time>2019-08-17T08:06:25Z</time>
      </trkpt>
      <trkpt lat="44.35326" lon="5.85453">
        <ele>643</ele>
        <time>2019-08-17T08:06:26Z</time>
      </trkpt>
      <trkpt lat="44.3533" lon="5.85458">
        <ele>643</ele>
        <time>2019-08-17T08:06:27Z</time>
      </trkpt>
      <trkpt lat="44.35334" lon="5.85463">
        <ele>643</ele>
        <time>2019-08-17T08:06:28Z</time>
      </trkpt>
      <trkpt lat="44.35338" lon="5.85468">
        <ele>643</ele>
        <time>2019-08-17T08:06:29Z</time>
      </trkpt>
      <trkpt lat="44.35343" lon="5.85472">
        <ele>643</ele>
        <time>2019-08-17T08:06:30Z</time>
      </trkpt>
      <trkpt lat="44.35347" lon="5.85477">
        <ele>643</ele>
        <time>2019-08-17T08:06:31Z</time>
      </trkpt>
      <trkpt lat="44.35351" lon="5.85481">
        <ele>643</ele>
        <time>2019-08-17T08:06:32Z</time>
      </trkpt>
      <trkpt lat="44.35355" lon="5.85486">
        <ele>643</ele>
        <time>2019-08-17T08:06:33Z</time>
      </trkpt>
      <trkpt lat="44.3536" lon="5.8549">
        <ele>643</ele>
        <time>2019-08-17T08:06:34Z</time>
      </trkpt>
      <trkpt lat="44.35364" lon="5.85495">
        <ele>643</ele>
        <time>2019-08-17T08:06:35Z</time>
      </trkpt>
      <trkpt lat="44.35368" lon="5.85499">
        <ele>644</ele>
        <time>2019-08-17T08:06:36Z</time>
      </trkpt>
      <trkpt lat="44.35372" lon="5.85504">
        <ele>644</ele>
        <time>2019-08-17T08:06:37Z</time>
      </trkpt>
      <trkpt lat="44.35376" lon="5.85508">
        <ele>644</ele>
        <time>2019-08-17T08:06:38Z</time>
      </trkpt>
      <trkpt lat="44.3538" lon="5.85513">
        <ele>644</ele>
        <time>2019-08-17T08:06:39Z</time>
      </trkpt>
      <trkpt lat="44.35384" lon="5.85517">
        <ele>644</ele>
        <time>2019-08-17T08:06:40Z</time>
      </trkpt>
      <trkpt lat="44.35388" lon="5.85522">
        <ele>644</ele>
        <time>2019-08-17T08:06:41Z</time>
      </trkpt>
      <trkpt lat="44.35392" lon="5.85526">
        <ele>645</ele>
        <time>2019-08-17T08:06:42Z</time>
      </trkpt>
      <trkpt lat="44.35396" lon="5.8553">
        <ele>645</ele>
        <time>2019-08-17T08:06:43Z</time>
      </trkpt>
      <trkpt lat="44.354" lon="5.85534">
        <ele>645</ele>
        <time>2019-08-17T08:06:44Z</time>
      </trkpt>
      <trkpt lat="44.35404" lon="5.85539">
        <ele>645</ele>
        <time>2019-08-17T08:06:45Z</time>
      </trkpt>
      <trkpt lat="44.35408" lon="5.85543">
        <ele>645</ele>
        <time>2019-08-17T08:06:46Z</time>
      </trkpt>
      <trkpt lat="44.35412" lon="5.85548">
        <ele>646</ele>
        <time>2019-08-17T08:06:47Z</time>
      </trkpt>
      <trkpt lat="44.35416" lon="5.85552">
        <ele>646</ele>
        <time>2019-08-17T08:06:48Z</time>
      </trkpt>
      <trkpt lat="44.3542" lon="5.85557">
        <ele>646</ele>
        <time>2019-08-17T08:06:49Z</time>
      </trkpt>
      <trkpt lat="44.35424" lon="5.85561">
        <ele>646</ele>
        <time>2019-08-17T08:06:50Z</time>
      </trkpt>
      <trkpt lat="44.35428" lon="5.85565">
        <ele>646</ele>
        <time>2019-08-17T08:06:51Z</time>
      </trkpt>
      <trkpt lat="44.35432" lon="5.85569">
        <ele>646</ele>
        <time>2019-08-17T08:06:52Z</time>
      </trkpt>
      <trkpt lat="44.35435" lon="5.85573">
        <ele>647</ele>
        <time>2019-08-17T08:06:53Z</time>
      </trkpt>
      <trkpt lat="44.35439" lon="5.85577">
        <ele>647</ele>
        <time>2019-08-17T08:06:54Z</time>
      </trkpt>
      <trkpt lat="44.35443" lon="5.85581">
        <ele>647</ele>
        <time>2019-08-17T08:06:55Z</time>
      </trkpt>
      <trkpt lat="44.35446" lon="5.85585">
        <ele>647</ele>
        <time>2019-08-17T08:06:56Z</time>
      </trkpt>
      <trkpt lat="44.3545" lon="5.85589">
        <ele>647</ele>
        <time>2019-08-17T08:06:57Z</time>
      </trkpt>
      <trkpt lat="44.35453" lon="5.85593">
        <ele>648</ele>
        <time>2019-08-17T08:06:58Z</time>
      </trkpt>
      <trkpt lat="44.35457" lon="5.85596">
        <ele>648</ele>
        <time>2019-08-17T08:06:59Z</time>
      </trkpt>
      <trkpt lat="44.3546" lon="5.856">
        <ele>648</ele>
        <time>2019-08-17T08:07:00Z</time>
      </trkpt>
      <trkpt lat="44.35463" lon="5.85604">
        <ele>648</ele>
        <time>2019-08-17T08:07:01Z</time>
      </trkpt>
      <trkpt lat="44.35467" lon="5.85608">
        <ele>648</ele>
        <time>2019-08-17T08:07:02Z</time>
      </trkpt>
      <trkpt lat="44.35471" lon="5.85611">
        <ele>648</ele>
        <time>2019-08-17T08:07:03Z</time>
      </trkpt>
      <trkpt lat="44.35474" lon="5.85615">
        <ele>649</ele>
        <time>2019-08-17T08:07:04Z</time>
      </trkpt>
      <trkpt lat="44.35477" lon="5.85619">
        <ele>649</ele>
        <time>2019-08-17T08:07:05Z</time>
      </trkpt>
      <trkpt lat="44.35481" lon="5.85623">
        <ele>649</ele>
        <time>2019-08-17T08:07:06Z</time>
      </trkpt>
      <trkpt lat="44.35484" lon="5.85627">
        <ele>649</ele>
        <time>2019-08-17T08:07:07Z</time>
      </trkpt>
      <trkpt lat="44.35487" lon="5.85631">
        <ele>649</ele>
        <time>2019-08-17T08:07:08Z</time>
      </trkpt>
      <trkpt lat="44.35491" lon="5.85634">
        <ele>649</ele>
        <time>2019-08-17T08:07:09Z</time>
      </trkpt>
      <trkpt lat="44.35494" lon="5.85638">
        <ele>650</ele>
        <time>2019-08-17T08:07:10Z</time>
      </trkpt>
      <trkpt lat="44.35498" lon="5.85642">
        <ele>650</ele>
        <time>2019-08-17T08:07:11Z</time>
      </trkpt>
      <trkpt lat="44.35501" lon="5.85645">
        <ele>650</ele>
        <time>2019-08-17T08:07:12Z</time>
      </trkpt>
      <trkpt lat="44.35505" lon="5.85649">
        <ele>650</ele>
        <time>2019-08-17T08:07:13Z</time>
      </trkpt>
      <trkpt lat="44.35508" lon="5.85653">
        <ele>650</ele>
        <time>2019-08-17T08:07:14Z</time>
      </trkpt>
      <trkpt lat="44.35511" lon="5.85656">
        <ele>650</ele>
        <time>2019-08-17T08:07:15Z</time>
      </trkpt>
      <trkpt lat="44.35515" lon="5.8566">
        <ele>650</ele>
        <time>2019-08-17T08:07:16Z</time>
      </trkpt>
      <trkpt lat="44.35518" lon="5.85664">
        <ele>651</ele>
        <time>2019-08-17T08:07:17Z</time>
      </trkpt>
      <trkpt lat="44.35522" lon="5.85668">
        <ele>651</ele>
        <time>2019-08-17T08:07:18Z</time>
      </trkpt>
      <trkpt lat="44.35525" lon="5.85671">
        <ele>651</ele>
        <time>2019-08-17T08:07:19Z</time>
      </trkpt>
      <trkpt lat="44.35529" lon="5.85675">
        <ele>651</ele>
        <time>2019-08-17T08:07:20Z</time>
      </trkpt>
      <trkpt lat="44.35532" lon="5.85679">
        <ele>651</ele>
        <time>2019-08-17T08:07:21Z</time>
      </trkpt>
      <trkpt lat="44.35535" lon="5.85683">
        <ele>651</ele>
        <time>2019-08-17T08:07:22Z</time>
      </trkpt>
      <trkpt lat="44.35538" lon="5.85686">
        <ele>651</ele>
        <time>2019-08-17T08:07:23Z</time>
      </trkpt>
      <trkpt lat="44.35542" lon="5.8569">
        <ele>651</ele>
        <time>2019-08-17T08:07:24Z</time>
      </trkpt>
      <trkpt lat="44.35545" lon="5.85694">
        <ele>652</ele>
        <time>2019-08-17T08:07:25Z</time>
      </trkpt>
      <trkpt lat="44.35548" lon="5.85698">
        <ele>652</ele>
        <time>2019-08-17T08:07:26Z</time>
      </trkpt>
      <trkpt lat="44.35552" lon="5.85701">
        <ele>652</ele>
        <time>2019-08-17T08:07:27Z</time>
      </trkpt>
      <trkpt lat="44.35555" lon="5.85705">
        <ele>652</ele>
        <time>2019-08-17T08:07:28Z</time>
      </trkpt>
      <trkpt lat="44.35558" lon="5.85709">
        <ele>652</ele>
        <time>2019-08-17T08:07:29Z</time>
      </trkpt>
      <trkpt lat="44.35561" lon="5.85712">
        <ele>652</ele>
        <time>2019-08-17T08:07:30Z</time>
      </trkpt>
      <trkpt lat="44.35565" lon="5.85716">
        <ele>652</ele>
        <time>2019-08-17T08:07:31Z</time>
      </trkpt>
      <trkpt lat="44.35568" lon="5.85719">
        <ele>653</ele>
        <time>2019-08-17T08:07:32Z</time>
      </trkpt>
      <trkpt lat="44.35571" lon="5.85723">
        <ele>653</ele>
        <time>2019-08-17T08:07:33Z</time>
      </trkpt>
      <trkpt lat="44.35574" lon="5.85727">
        <ele>653</ele>
        <time>2019-08-17T08:07:34Z</time>
      </trkpt>
      <trkpt lat="44.35578" lon="5.8573">
        <ele>653</ele>
        <time>2019-08-17T08:07:35Z</time>
      </trkpt>
      <trkpt lat="44.35581" lon="5.85734">
        <ele>653</ele>
        <time>2019-08-17T08:07:36Z</time>
      </trkpt>
      <trkpt lat="44.35584" lon="5.85738">
        <ele>653</ele>
        <time>2019-08-17T08:07:37Z</time>
      </trkpt>
      <trkpt lat="44.35588" lon="5.85741">
        <ele>653</ele>
        <time>2019-08-17T08:07:38Z</time>
      </trkpt>
      <trkpt lat="44.35591" lon="5.85745">
        <ele>654</ele>
        <time>2019-08-17T08:07:39Z</time>
      </trkpt>
      <trkpt lat="44.35594" lon="5.85748">
        <ele>654</ele>
        <time>2019-08-17T08:07:40Z</time>
      </trkpt>
      <trkpt lat="44.35597" lon="5.85752">
        <ele>654</ele>
        <time>2019-08-17T08:07:41Z</time>
      </trkpt>
      <trkpt lat="44.35601" lon="5.85756">
        <ele>654</ele>
        <time>2019-08-17T08:07:42Z</time>
      </trkpt>
      <trkpt lat="44.35604" lon="5.8576">
        <ele>654</ele>
        <time>2019-08-17T08:07:43Z</time>
      </trkpt>
      <trkpt lat="44.35607" lon="5.85765">
        <ele>655</ele>
        <time>2019-08-17T08:07:44Z</time>
      </trkpt>
      <trkpt lat="44.3561" lon="5.85769">
        <ele>655</ele>
        <time>2019-08-17T08:07:45Z</time>
      </trkpt>
      <trkpt lat="44.35614" lon="5.85773">
        <ele>655</ele>
        <time>2019-08-17T08:07:46Z</time>
      </trkpt>
      <trkpt lat="44.35617" lon="5.85777">
        <ele>655</ele>
        <time>2019-08-17T08:07:47Z</time>
      </trkpt>
      <trkpt lat="44.3562" lon="5.85782">
        <ele>655</ele>
        <time>2019-08-17T08:07:48Z</time>
      </trkpt>
      <trkpt lat="44.35623" lon="5.85786">
        <ele>656</ele>
        <time>2019-08-17T08:07:49Z</time>
      </trkpt>
      <trkpt lat="44.35626" lon="5.85791">
        <ele>656</ele>
        <time>2019-08-17T08:07:50Z</time>
      </trkpt>
      <trkpt lat="44.35629" lon="5.85796">
        <ele>656</ele>
        <time>2019-08-17T08:07:51Z</time>
      </trkpt>
      <trkpt lat="44.35632" lon="5.85801">
        <ele>656</ele>
        <time>2019-08-17T08:07:52Z</time>
      </trkpt>
      <trkpt lat="44.35635" lon="5.85806">
        <ele>656</ele>
        <time>2019-08-17T08:07:53Z</time>
      </trkpt>
      <trkpt lat="44.35638" lon="5.8581">
        <ele>656</ele>
        <time>2019-08-17T08:07:54Z</time>
      </trkpt>
      <trkpt lat="44.35641" lon="5.85815">
        <ele>656</ele>
        <time>2019-08-17T08:07:55Z</time>
      </trkpt>
      <trkpt lat="44.35644" lon="5.8582">
        <ele>657</ele>
        <time>2019-08-17T08:07:56Z</time>
      </trkpt>
      <trkpt lat="44.35647" lon="5.85825">
        <ele>657</ele>
        <time>2019-08-17T08:07:57Z</time>
      </trkpt>
      <trkpt lat="44.3565" lon="5.85829">
        <ele>657</ele>
        <time>2019-08-17T08:07:58Z</time>
      </trkpt>
      <trkpt lat="44.35653" lon="5.85834">
        <ele>657</ele>
        <time>2019-08-17T08:07:59Z</time>
      </trkpt>
      <trkpt lat="44.35656" lon="5.85838">
        <ele>657</ele>
        <time>2019-08-17T08:08:00Z</time>
      </trkpt>
      <trkpt lat="44.35659" lon="5.85843">
        <ele>657</ele>
        <time>2019-08-17T08:08:01Z</time>
      </trkpt>
      <trkpt lat="44.35661" lon="5.85847">
        <ele>657</ele>
        <time>2019-08-17T08:08:02Z</time>
      </trkpt>
      <trkpt lat="44.35664" lon="5.85852">
        <ele>657</ele>
        <time>2019-08-17T08:08:03Z</time>
      </trkpt>
      <trkpt lat="44.35667" lon="5.85857">
        <ele>657</ele>
        <time>2019-08-17T08:08:04Z</time>
      </trkpt>
      <trkpt lat="44.3567" lon="5.85861">
        <ele>657</ele>
        <time>2019-08-17T08:08:05Z</time>
      </trkpt>
      <trkpt lat="44.35674" lon="5.85866">
        <ele>658</ele>
        <time>2019-08-17T08:08:06Z</time>
      </trkpt>
      <trkpt lat="44.35676" lon="5.85871">
        <ele>658</ele>
        <time>2019-08-17T08:08:07Z</time>
      </trkpt>
      <trkpt lat="44.35679" lon="5.85876">
        <ele>658</ele>
        <time>2019-08-17T08:08:08Z</time>
      </trkpt>
      <trkpt lat="44.35682" lon="5.8588">
        <ele>658</ele>
        <time>2019-08-17T08:08:09Z</time>
      </trkpt>
      <trkpt lat="44.35685" lon="5.85885">
        <ele>658</ele>
        <time>2019-08-17T08:08:10Z</time>
      </trkpt>
      <trkpt lat="44.35688" lon="5.85889">
        <ele>658</ele>
        <time>2019-08-17T08:08:11Z</time>
      </trkpt>
      <trkpt lat="44.35691" lon="5.85893">
        <ele>658</ele>
        <time>2019-08-17T08:08:12Z</time>
      </trkpt>
      <trkpt lat="44.35694" lon="5.85898">
        <ele>659</ele>
        <time>2019-08-17T08:08:13Z</time>
      </trkpt>
      <trkpt lat="44.35697" lon="5.85903">
        <ele>659</ele>
        <time>2019-08-17T08:08:14Z</time>
      </trkpt>
      <trkpt lat="44.357" lon="5.85908">
        <ele>659</ele>
        <time>2019-08-17T08:08:15Z</time>
      </trkpt>
      <trkpt lat="44.35703" lon="5.85913">
        <ele>659</ele>
        <time>2019-08-17T08:08:16Z</time>
      </trkpt>
      <trkpt lat="44.35706" lon="5.85918">
        <ele>659</ele>
        <time>2019-08-17T08:08:17Z</time>
      </trkpt>
      <trkpt lat="44.35709" lon="5.85922">
        <ele>659</ele>
        <time>2019-08-17T08:08:18Z</time>
      </trkpt>
      <trkpt lat="44.35712" lon="5.85927">
        <ele>659</ele>
        <time>2019-08-17T08:08:19Z</time>
      </trkpt>
      <trkpt lat="44.35714" lon="5.85932">
        <ele>660</ele>
        <time>2019-08-17T08:08:20Z</time>
      </trkpt>
      <trkpt lat="44.35717" lon="5.85937">
        <ele>660</ele>
        <time>2019-08-17T08:08:21Z</time>
      </trkpt>
      <trkpt lat="44.35721" lon="5.85941">
        <ele>660</ele>
        <time>2019-08-17T08:08:22Z</time>
      </trkpt>
      <trkpt lat="44.35724" lon="5.85946">
        <ele>660</ele>
        <time>2019-08-17T08:08:23Z</time>
      </trkpt>
      <trkpt lat="44.35727" lon="5.85951">
        <ele>660</ele>
        <time>2019-08-17T08:08:24Z</time>
      </trkpt>
      <trkpt lat="44.3573" lon="5.85956">
        <ele>661</ele>
        <time>2019-08-17T08:08:25Z</time>
      </trkpt>
      <trkpt lat="44.35733" lon="5.85961">
        <ele>661</ele>
        <time>2019-08-17T08:08:26Z</time>
      </trkpt>
      <trkpt lat="44.35735" lon="5.85966">
        <ele>661</ele>
        <time>2019-08-17T08:08:27Z</time>
      </trkpt>
      <trkpt lat="44.35738" lon="5.85971">
        <ele>661</ele>
        <time>2019-08-17T08:08:28Z</time>
      </trkpt>
      <trkpt lat="44.35741" lon="5.85976">
        <ele>661</ele>
        <time>2019-08-17T08:08:29Z</time>
      </trkpt>
      <trkpt lat="44.35744" lon="5.85981">
        <ele>661</ele>
        <time>2019-08-17T08:08:30Z</time>
      </trkpt>
      <trkpt lat="44.35748" lon="5.85986">
        <ele>661</ele>
        <time>2019-08-17T08:08:31Z</time>
      </trkpt>
      <trkpt lat="44.35751" lon="5.8599">
        <ele>662</ele>
        <time>2019-08-17T08:08:32Z</time>
      </trkpt>
      <trkpt lat="44.35754" lon="5.85995">
        <ele>662</ele>
        <time>2019-08-17T08:08:33Z</time>
      </trkpt>
      <trkpt lat="44.35757" lon="5.86001">
        <ele>662</ele>
        <time>2019-08-17T08:08:34Z</time>
      </trkpt>
      <trkpt lat="44.35761" lon="5.86006">
        <ele>662</ele>
        <time>2019-08-17T08:08:35Z</time>
      </trkpt>
      <trkpt lat="44.35764" lon="5.86012">
        <ele>662</ele>
        <time>2019-08-17T08:08:36Z</time>
      </trkpt>
      <trkpt lat="44.35767" lon="5.86018">
        <ele>662</ele>
        <time>2019-08-17T08:08:37Z</time>
      </trkpt>
      <trkpt lat="44.3577" lon="5.86024">
        <ele>663</ele>
        <time>2019-08-17T08:08:38Z</time>
      </trkpt>
      <trkpt lat="44.35773" lon="5.8603">
        <ele>663</ele>
        <time>2019-08-17T08:08:39Z</time>
      </trkpt>
      <trkpt lat="44.35777" lon="5.86036">
        <ele>663</ele>
        <time>2019-08-17T08:08:40Z</time>
      </trkpt>
      <trkpt lat="44.35779" lon="5.86043">
        <ele>663</ele>
        <time>2019-08-17T08:08:41Z</time>
      </trkpt>
      <trkpt lat="44.35782" lon="5.8605">
        <ele>663</ele>
        <time>2019-08-17T08:08:42Z</time>
      </trkpt>
      <trkpt lat="44.35784" lon="5.86057">
        <ele>663</ele>
        <time>2019-08-17T08:08:43Z</time>
      </trkpt>
      <trkpt lat="44.35786" lon="5.86063">
        <ele>663</ele>
        <time>2019-08-17T08:08:44Z</time>
      </trkpt>
      <trkpt lat="44.35788" lon="5.86071">
        <ele>664</ele>
        <time>2019-08-17T08:08:45Z</time>
      </trkpt>
      <trkpt lat="44.35789" lon="5.86078">
        <ele>664</ele>
        <time>2019-08-17T08:08:46Z</time>
      </trkpt>
      <trkpt lat="44.35791" lon="5.86085">
        <ele>664</ele>
        <time>2019-08-17T08:08:47Z</time>
      </trkpt>
      <trkpt lat="44.35792" lon="5.86092">
        <ele>664</ele>
        <time>2019-08-17T08:08:48Z</time>
      </trkpt>
      <trkpt lat="44.35793" lon="5.86098">
        <ele>664</ele>
        <time>2019-08-17T08:08:49Z</time>
      </trkpt>
      <trkpt lat="44.35794" lon="5.86105">
        <ele>664</ele>
        <time>2019-08-17T08:08:50Z</time>
      </trkpt>
      <trkpt lat="44.35796" lon="5.86112">
        <ele>664</ele>
        <time>2019-08-17T08:08:51Z</time>
      </trkpt>
      <trkpt lat="44.35797" lon="5.86119">
        <ele>664</ele>
        <time>2019-08-17T08:08:52Z</time>
      </trkpt>
      <trkpt lat="44.35798" lon="5.86126">
        <ele>664</ele>
        <time>2019-08-17T08:08:53Z</time>
      </trkpt>
      <trkpt lat="44.35799" lon="5.86132">
        <ele>664</ele>
        <time>2019-08-17T08:08:54Z</time>
      </trkpt>
      <trkpt lat="44.35801" lon="5.86139">
        <ele>664</ele>
        <time>2019-08-17T08:08:55Z</time>
      </trkpt>
      <trkpt lat="44.35802" lon="5.86146">
        <ele>664</ele>
        <time>2019-08-17T08:08:56Z</time>
      </trkpt>
      <trkpt lat="44.35803" lon="5.86153">
        <ele>664</ele>
        <time>2019-08-17T08:08:57Z</time>
      </trkpt>
      <trkpt lat="44.35805" lon="5.8616">
        <ele>664</ele>
        <time>2019-08-17T08:08:58Z</time>
      </trkpt>
      <trkpt lat="44.35806" lon="5.86167">
        <ele>664</ele>
        <time>2019-08-17T08:08:59Z</time>
      </trkpt>
      <trkpt lat="44.35807" lon="5.86174">
        <ele>664</ele>
        <time>2019-08-17T08:09:00Z</time>
      </trkpt>
      <trkpt lat="44.35809" lon="5.86181">
        <ele>664</ele>
        <time>2019-08-17T08:09:01Z</time>
      </trkpt>
      <trkpt lat="44.3581" lon="5.86188">
        <ele>665</ele>
        <time>2019-08-17T08:09:02Z</time>
      </trkpt>
      <trkpt lat="44.35812" lon="5.86194">
        <ele>665</ele>
        <time>2019-08-17T08:09:03Z</time>
      </trkpt>
      <trkpt lat="44.35814" lon="5.86201">
        <ele>665</ele>
        <time>2019-08-17T08:09:04Z</time>
      </trkpt>
      <trkpt lat="44.35815" lon="5.86208">
        <ele>665</ele>
        <time>2019-08-17T08:09:05Z</time>
      </trkpt>
      <trkpt lat="44.35817" lon="5.86215">
        <ele>665</ele>
        <time>2019-08-17T08:09:06Z</time>
      </trkpt>
      <trkpt lat="44.35819" lon="5.86222">
        <ele>665</ele>
        <time>2019-08-17T08:09:07Z</time>
      </trkpt>
      <trkpt lat="44.35822" lon="5.86228">
        <ele>665</ele>
        <time>2019-08-17T08:09:08Z</time>
      </trkpt>
      <trkpt lat="44.35824" lon="5.86235">
        <ele>665</ele>
        <time>2019-08-17T08:09:09Z</time>
      </trkpt>
      <trkpt lat="44.35826" lon="5.86242">
        <ele>665</ele>
        <time>2019-08-17T08:09:10Z</time>
      </trkpt>
      <trkpt lat="44.35829" lon="5.86249">
        <ele>665</ele>
        <time>2019-08-17T08:09:11Z</time>
      </trkpt>
      <trkpt lat="44.35832" lon="5.86255">
        <ele>665</ele>
        <time>2019-08-17T08:09:12Z</time>
      </trkpt>
      <trkpt lat="44.35835" lon="5.86262">
        <ele>665</ele>
        <time>2019-08-17T08:09:13Z</time>
      </trkpt>
      <trkpt lat="44.35838" lon="5.86268">
        <ele>665</ele>
        <time>2019-08-17T08:09:14Z</time>
      </trkpt>
      <trkpt lat="44.35841" lon="5.86275">
        <ele>665</ele>
        <time>2019-08-17T08:09:15Z</time>
      </trkpt>
      <trkpt lat="44.35844" lon="5.86281">
        <ele>665</ele>
        <time>2019-08-17T08:09:16Z</time>
      </trkpt>
      <trkpt lat="44.35847" lon="5.86287">
        <ele>665</ele>
        <time>2019-08-17T08:09:17Z</time>
      </trkpt>
      <trkpt lat="44.3585" lon="5.86294">
        <ele>666</ele>
        <time>2019-08-17T08:09:18Z</time>
      </trkpt>
      <trkpt lat="44.35853" lon="5.863">
        <ele>666</ele>
        <time>2019-08-17T08:09:19Z</time>
      </trkpt>
      <trkpt lat="44.35856" lon="5.86306">
        <ele>666</ele>
        <time>2019-08-17T08:09:20Z</time>
      </trkpt>
      <trkpt lat="44.35859" lon="5.86313">
        <ele>666</ele>
        <time>2019-08-17T08:09:21Z</time>
      </trkpt>
      <trkpt lat="44.35862" lon="5.8632">
        <ele>666</ele>
        <time>2019-08-17T08:09:22Z</time>
      </trkpt>
      <trkpt lat="44.35864" lon="5.86327">
        <ele>666</ele>
        <time>2019-08-17T08:09:23Z</time>
      </trkpt>
      <trkpt lat="44.35866" lon="5.86333">
        <ele>666</ele>
        <time>2019-08-17T08:09:24Z</time>
      </trkpt>
      <trkpt lat="44.35868" lon="5.8634">
        <ele>666</ele>
        <time>2019-08-17T08:09:25Z</time>
      </trkpt>
      <trkpt lat="44.35871" lon="5.86347">
        <ele>666</ele>
        <time>2019-08-17T08:09:26Z</time>
      </trkpt>
      <trkpt lat="44.35873" lon="5.86354">
        <ele>666</ele>
        <time>2019-08-17T08:09:27Z</time>
      </trkpt>
      <trkpt lat="44.35875" lon="5.86362">
        <ele>666</ele>
        <time>2019-08-17T08:09:28Z</time>
      </trkpt>
      <trkpt lat="44.35876" lon="5.86369">
        <ele>666</ele>
        <time>2019-08-17T08:09:29Z</time>
      </trkpt>
      <trkpt lat="44.35878" lon="5.86377">
        <ele>666</ele>
        <time>2019-08-17T08:09:30Z</time>
      </trkpt>
      <trkpt lat="44.3588" lon="5.86384">
        <ele>667</ele>
        <time>2019-08-17T08:09:31Z</time>
      </trkpt>
      <trkpt lat="44.35882" lon="5.86392">
        <ele>667</ele>
        <time>2019-08-17T08:09:32Z</time>
      </trkpt>
      <trkpt lat="44.35883" lon="5.864">
        <ele>667</ele>
        <time>2019-08-17T08:09:33Z</time>
      </trkpt>
      <trkpt lat="44.35885" lon="5.86408">
        <ele>667</ele>
        <time>2019-08-17T08:09:34Z</time>
      </trkpt>
      <trkpt lat="44.35887" lon="5.86415">
        <ele>667</ele>
        <time>2019-08-17T08:09:35Z</time>
      </trkpt>
      <trkpt lat="44.35889" lon="5.86423">
        <ele>667</ele>
        <time>2019-08-17T08:09:36Z</time>
      </trkpt>
      <trkpt lat="44.3589" lon="5.86432">
        <ele>667</ele>
        <time>2019-08-17T08:09:37Z</time>
      </trkpt>
      <trkpt lat="44.35892" lon="5.8644">
        <ele>667</ele>
        <time>2019-08-17T08:09:38Z</time>
      </trkpt>
      <trkpt lat="44.35894" lon="5.86448">
        <ele>667</ele>
        <time>2019-08-17T08:09:39Z</time>
      </trkpt>
      <trkpt lat="44.35896" lon="5.86456">
        <ele>667</ele>
        <time>2019-08-17T08:09:40Z</time>
      </trkpt>
      <trkpt lat="44.35897" lon="5.86465">
        <ele>667</ele>
        <time>2019-08-17T08:09:41Z</time>
      </trkpt>
      <trkpt lat="44.35899" lon="5.86473">
        <ele>667</ele>
        <time>2019-08-17T08:09:42Z</time>
      </trkpt>
      <trkpt lat="44.35901" lon="5.86482">
        <ele>667</ele>
        <time>2019-08-17T08:09:43Z</time>
      </trkpt>
      <trkpt lat="44.35903" lon="5.8649">
        <ele>667</ele>
        <time>2019-08-17T08:09:44Z</time>
      </trkpt>
      <trkpt lat="44.35905" lon="5.86499">
        <ele>667</ele>
        <time>2019-08-17T08:09:45Z</time>
      </trkpt>
      <trkpt lat="44.35907" lon="5.86508">
        <ele>667</ele>
        <time>2019-08-17T08:09:46Z</time>
      </trkpt>
      <trkpt lat="44.35909" lon="5.86516">
        <ele>667</ele>
        <time>2019-08-17T08:09:47Z</time>
      </trkpt>
      <trkpt lat="44.3591" lon="5.86525">
        <ele>667</ele>
        <time>2019-08-17T08:09:48Z</time>
      </trkpt>
      <trkpt lat="44.35912" lon="5.86534">
        <ele>667</ele>
        <time>2019-08-17T08:09:49Z</time>
      </trkpt>
      <trkpt lat="44.35914" lon="5.86543">
        <ele>667</ele>
        <time>2019-08-17T08:09:50Z</time>
      </trkpt>
      <trkpt lat="44.35916" lon="5.86551">
        <ele>667</ele>
        <time>2019-08-17T08:09:51Z</time>
      </trkpt>
      <trkpt lat="44.35918" lon="5.8656">
        <ele>667</ele>
        <time>2019-08-17T08:09:52Z</time>
      </trkpt>
      <trkpt lat="44.3592" lon="5.86569">
        <ele>667</ele>
        <time>2019-08-17T08:09:53Z</time>
      </trkpt>
      <trkpt lat="44.35922" lon="5.86578">
        <ele>667</ele>
        <time>2019-08-17T08:09:54Z</time>
      </trkpt>
      <trkpt lat="44.35924" lon="5.86587">
        <ele>667</ele>
        <time>2019-08-17T08:09:55Z</time>
      </trkpt>
      <trkpt lat="44.35926" lon="5.86596">
        <ele>667</ele>
        <time>2019-08-17T08:09:56Z</time>
      </trkpt>
      <trkpt lat="44.35928" lon="5.86605">
        <ele>667</ele>
        <time>2019-08-17T08:09:57Z</time>
      </trkpt>
      <trkpt lat="44.35929" lon="5.86614">
        <ele>667</ele>
        <time>2019-08-17T08:09:58Z</time>
      </trkpt>
      <trkpt lat="44.35931" lon="5.86623">
        <ele>667</ele>
        <time>2019-08-17T08:09:59Z</time>
      </trkpt>
      <trkpt lat="44.35933" lon="5.86633">
        <ele>667</ele>
        <time>2019-08-17T08:10:00Z</time>
      </trkpt>
      <trkpt lat="44.35936" lon="5.86642">
        <ele>667</ele>
        <time>2019-08-17T08:10:01Z</time>
      </trkpt>
      <trkpt lat="44.35938" lon="5.86652">
        <ele>667</ele>
        <time>2019-08-17T08:10:02Z</time>
      </trkpt>
      <trkpt lat="44.3594" lon="5.86661">
        <ele>667</ele>
        <time>2019-08-17T08:10:03Z</time>
      </trkpt>
      <trkpt lat="44.35942" lon="5.8667">
        <ele>667</ele>
        <time>2019-08-17T08:10:04Z</time>
      </trkpt>
      <trkpt lat="44.35945" lon="5.8668">
        <ele>667</ele>
        <time>2019-08-17T08:10:05Z</time>
      </trkpt>
      <trkpt lat="44.35948" lon="5.86689">
        <ele>667</ele>
        <time>2019-08-17T08:10:06Z</time>
      </trkpt>
      <trkpt lat="44.35951" lon="5.86698">
        <ele>667</ele>
        <time>2019-08-17T08:10:07Z</time>
      </trkpt>
      <trkpt lat="44.35955" lon="5.86708">
        <ele>667</ele>
        <time>2019-08-17T08:10:08Z</time>
      </trkpt>
      <trkpt lat="44.35958" lon="5.86717">
        <ele>667</ele>
        <time>2019-08-17T08:10:09Z</time>
      </trkpt>
      <trkpt lat="44.35963" lon="5.86726">
        <ele>667</ele>
        <time>2019-08-17T08:10:10Z</time>
      </trkpt>
      <trkpt lat="44.35967" lon="5.86735">
        <ele>667</ele>
        <time>2019-08-17T08:10:11Z</time>
      </trkpt>
      <trkpt lat="44.35971" lon="5.86744">
        <ele>667</ele>
        <time>2019-08-17T08:10:12Z</time>
      </trkpt>
      <trkpt lat="44.35976" lon="5.86754">
        <ele>667</ele>
        <time>2019-08-17T08:10:13Z</time>
      </trkpt>
      <trkpt lat="44.35981" lon="5.86763">
        <ele>667</ele>
        <time>2019-08-17T08:10:14Z</time>
      </trkpt>
      <trkpt lat="44.35985" lon="5.86773">
        <ele>667</ele>
        <time>2019-08-17T08:10:15Z</time>
      </trkpt>
      <trkpt lat="44.3599" lon="5.86783">
        <ele>667</ele>
        <time>2019-08-17T08:10:16Z</time>
      </trkpt>
      <trkpt lat="44.35995" lon="5.86793">
        <ele>667</ele>
        <time>2019-08-17T08:10:17Z</time>
      </trkpt>
      <trkpt lat="44.36" lon="5.86802">
        <ele>666</ele>
        <time>2019-08-17T08:10:18Z</time>
      </trkpt>
      <trkpt lat="44.36004" lon="5.86813">
        <ele>666</ele>
        <time>2019-08-17T08:10:19Z</time>
      </trkpt>
      <trkpt lat="44.36009" lon="5.86823">
        <ele>666</ele>
        <time>2019-08-17T08:10:20Z</time>
      </trkpt>
      <trkpt lat="44.36014" lon="5.86833">
        <ele>665</ele>
        <time>2019-08-17T08:10:21Z</time>
      </trkpt>
      <trkpt lat="44.36019" lon="5.86843">
        <ele>665</ele>
        <time>2019-08-17T08:10:22Z</time>
      </trkpt>
      <trkpt lat="44.36024" lon="5.86854">
        <ele>664</ele>
        <time>2019-08-17T08:10:23Z</time>
      </trkpt>
      <trkpt lat="44.3603" lon="5.86865">
        <ele>664</ele>
        <time>2019-08-17T08:10:24Z</time>
      </trkpt>
      <trkpt lat="44.36035" lon="5.86876">
        <ele>664</ele>
        <time>2019-08-17T08:10:25Z</time>
      </trkpt>
      <trkpt lat="44.3604" lon="5.86887">
        <ele>663</ele>
        <time>2019-08-17T08:10:26Z</time>
      </trkpt>
      <trkpt lat="44.36045" lon="5.86898">
        <ele>663</ele>
        <time>2019-08-17T08:10:27Z</time>
      </trkpt>
      <trkpt lat="44.36051" lon="5.86909">
        <ele>662</ele>
        <time>2019-08-17T08:10:28Z</time>
      </trkpt>
      <trkpt lat="44.36056" lon="5.86921">
        <ele>662</ele>
        <time>2019-08-17T08:10:29Z</time>
      </trkpt>
      <trkpt lat="44.36062" lon="5.86932">
        <ele>662</ele>
        <time>2019-08-17T08:10:30Z</time>
      </trkpt>
      <trkpt lat="44.36067" lon="5.86944">
        <ele>661</ele>
        <time>2019-08-17T08:10:30Z</time>
      </trkpt>
      <trkpt lat="44.36073" lon="5.86956">
        <ele>661</ele>
        <time>2019-08-17T08:10:31Z</time>
      </trkpt>
      <trkpt lat="44.36079" lon="5.86968">
        <ele>660</ele>
        <time>2019-08-17T08:10:32Z</time>
      </trkpt>
      <trkpt lat="44.36084" lon="5.86981">
        <ele>659</ele>
        <time>2019-08-17T08:10:33Z</time>
      </trkpt>
      <trkpt lat="44.3609" lon="5.86994">
        <ele>659</ele>
        <time>2019-08-17T08:10:35Z</time>
      </trkpt>
      <trkpt lat="44.36095" lon="5.87008">
        <ele>658</ele>
        <time>2019-08-17T08:10:35Z</time>
      </trkpt>
      <trkpt lat="44.361" lon="5.87023">
        <ele>657</ele>
        <time>2019-08-17T08:10:36Z</time>
      </trkpt>
      <trkpt lat="44.36104" lon="5.87039">
        <ele>656</ele>
        <time>2019-08-17T08:10:37Z</time>
      </trkpt>
      <trkpt lat="44.36107" lon="5.87054">
        <ele>656</ele>
        <time>2019-08-17T08:10:38Z</time>
      </trkpt>
      <trkpt lat="44.36111" lon="5.87071">
        <ele>655</ele>
        <time>2019-08-17T08:10:40Z</time>
      </trkpt>
      <trkpt lat="44.36113" lon="5.87087">
        <ele>654</ele>
        <time>2019-08-17T08:10:40Z</time>
      </trkpt>
      <trkpt lat="44.36116" lon="5.87105">
        <ele>653</ele>
        <time>2019-08-17T08:10:41Z</time>
      </trkpt>
      <trkpt lat="44.36118" lon="5.87122">
        <ele>652</ele>
        <time>2019-08-17T08:10:42Z</time>
      </trkpt>
      <trkpt lat="44.36121" lon="5.87139">
        <ele>652</ele>
        <time>2019-08-17T08:10:43Z</time>
      </trkpt>
      <trkpt lat="44.36124" lon="5.87156">
        <ele>651</ele>
        <time>2019-08-17T08:10:45Z</time>
      </trkpt>
      <trkpt lat="44.36126" lon="5.87174">
        <ele>650</ele>
        <time>2019-08-17T08:10:45Z</time>
      </trkpt>
      <trkpt lat="44.36129" lon="5.87192">
        <ele>649</ele>
        <time>2019-08-17T08:10:46Z</time>
      </trkpt>
      <trkpt lat="44.36132" lon="5.8721">
        <ele>648</ele>
        <time>2019-08-17T08:10:47Z</time>
      </trkpt>
      <trkpt lat="44.36135" lon="5.87227">
        <ele>647</ele>
        <time>2019-08-17T08:10:48Z</time>
      </trkpt>
      <trkpt lat="44.36139" lon="5.87245">
        <ele>646</ele>
        <time>2019-08-17T08:10:50Z</time>
      </trkpt>
      <trkpt lat="44.36145" lon="5.87262">
        <ele>645</ele>
        <time>2019-08-17T08:10:50Z</time>
      </trkpt>
      <trkpt lat="44.36153" lon="5.87278">
        <ele>644</ele>
        <time>2019-08-17T08:10:51Z</time>
      </trkpt>
      <trkpt lat="44.36161" lon="5.87294">
        <ele>643</ele>
        <time>2019-08-17T08:10:52Z</time>
      </trkpt>
      <trkpt lat="44.3617" lon="5.87309">
        <ele>642</ele>
        <time>2019-08-17T08:10:53Z</time>
      </trkpt>
      <trkpt lat="44.36179" lon="5.87324">
        <ele>641</ele>
        <time>2019-08-17T08:10:55Z</time>
      </trkpt>
      <trkpt lat="44.36188" lon="5.8734">
        <ele>640</ele>
        <time>2019-08-17T08:10:55Z</time>
      </trkpt>
      <trkpt lat="44.36196" lon="5.87355">
        <ele>639</ele>
        <time>2019-08-17T08:10:56Z</time>
      </trkpt>
      <trkpt lat="44.36201" lon="5.87372">
        <ele>638</ele>
        <time>2019-08-17T08:10:57Z</time>
      </trkpt>
      <trkpt lat="44.36205" lon="5.87389">
        <ele>637</ele>
        <time>2019-08-17T08:10:58Z</time>
      </trkpt>
      <trkpt lat="44.36205" lon="5.87405">
        <ele>636</ele>
        <time>2019-08-17T08:11:00Z</time>
      </trkpt>
      <trkpt lat="44.36201" lon="5.87421">
        <ele>636</ele>
        <time>2019-08-17T08:11:00Z</time>
      </trkpt>
      <trkpt lat="44.36197" lon="5.87437">
        <ele>635</ele>
        <time>2019-08-17T08:11:01Z</time>
      </trkpt>
      <trkpt lat="44.36193" lon="5.87453">
        <ele>634</ele>
        <time>2019-08-17T08:11:02Z</time>
      </trkpt>
      <trkpt lat="44.3619" lon="5.87469">
        <ele>634</ele>
        <time>2019-08-17T08:11:03Z</time>
      </trkpt>
      <trkpt lat="44.3619" lon="5.87485">
        <ele>634</ele>
        <time>2019-08-17T08:11:05Z</time>
      </trkpt>
      <trkpt lat="44.3619" lon="5.87501">
        <ele>633</ele>
        <time>2019-08-17T08:11:05Z</time>
      </trkpt>
      <trkpt lat="44.36191" lon="5.87517">
        <ele>633</ele>
        <time>2019-08-17T08:11:06Z</time>
      </trkpt>
      <trkpt lat="44.36193" lon="5.87533">
        <ele>633</ele>
        <time>2019-08-17T08:11:07Z</time>
      </trkpt>
      <trkpt lat="44.36194" lon="5.87549">
        <ele>632</ele>
        <time>2019-08-17T08:11:08Z</time>
      </trkpt>
      <trkpt lat="44.36196" lon="5.87564">
        <ele>632</ele>
        <time>2019-08-17T08:11:09Z</time>
      </trkpt>
      <trkpt lat="44.36198" lon="5.87579">
        <ele>632</ele>
        <time>2019-08-17T08:11:10Z</time>
      </trkpt>
      <trkpt lat="44.36201" lon="5.87594">
        <ele>631</ele>
        <time>2019-08-17T08:11:11Z</time>
      </trkpt>
      <trkpt lat="44.36205" lon="5.87608">
        <ele>631</ele>
        <time>2019-08-17T08:11:13Z</time>
      </trkpt>
      <trkpt lat="44.36209" lon="5.87624">
        <ele>630</ele>
        <time>2019-08-17T08:11:13Z</time>
      </trkpt>
      <trkpt lat="44.36213" lon="5.87639">
        <ele>629</ele>
        <time>2019-08-17T08:11:15Z</time>
      </trkpt>
      <trkpt lat="44.36215" lon="5.87654">
        <ele>629</ele>
        <time>2019-08-17T08:11:15Z</time>
      </trkpt>
      <trkpt lat="44.36216" lon="5.8767">
        <ele>628</ele>
        <time>2019-08-17T08:11:16Z</time>
      </trkpt>
      <trkpt lat="44.36216" lon="5.87686">
        <ele>628</ele>
        <time>2019-08-17T08:11:17Z</time>
      </trkpt>
      <trkpt lat="44.36216" lon="5.87703">
        <ele>627</ele>
        <time>2019-08-17T08:11:18Z</time>
      </trkpt>
      <trkpt lat="44.36217" lon="5.87719">
        <ele>626</ele>
        <time>2019-08-17T08:11:20Z</time>
      </trkpt>
      <trkpt lat="44.36217" lon="5.87735">
        <ele>626</ele>
        <time>2019-08-17T08:11:20Z</time>
      </trkpt>
      <trkpt lat="44.36219" lon="5.8775">
        <ele>625</ele>
        <time>2019-08-17T08:11:21Z</time>
      </trkpt>
      <trkpt lat="44.36221" lon="5.87766">
        <ele>625</ele>
        <time>2019-08-17T08:11:22Z</time>
      </trkpt>
      <trkpt lat="44.36224" lon="5.87781">
        <ele>625</ele>
        <time>2019-08-17T08:11:23Z</time>
      </trkpt>
      <trkpt lat="44.36228" lon="5.87795">
        <ele>624</ele>
        <time>2019-08-17T08:11:24Z</time>
      </trkpt>
      <trkpt lat="44.36231" lon="5.8781">
        <ele>624</ele>
        <time>2019-08-17T08:11:25Z</time>
      </trkpt>
      <trkpt lat="44.36235" lon="5.87824">
        <ele>624</ele>
        <time>2019-08-17T08:11:26Z</time>
      </trkpt>
      <trkpt lat="44.36238" lon="5.87838">
        <ele>623</ele>
        <time>2019-08-17T08:11:27Z</time>
      </trkpt>
      <trkpt lat="44.36241" lon="5.87852">
        <ele>623</ele>
        <time>2019-08-17T08:11:28Z</time>
      </trkpt>
      <trkpt lat="44.36243" lon="5.87866">
        <ele>623</ele>
        <time>2019-08-17T08:11:30Z</time>
      </trkpt>
      <trkpt lat="44.36245" lon="5.8788">
        <ele>623</ele>
        <time>2019-08-17T08:11:31Z</time>
      </trkpt>
      <trkpt lat="44.36245" lon="5.87893">
        <ele>623</ele>
        <time>2019-08-17T08:11:32Z</time>
      </trkpt>
      <trkpt lat="44.36245" lon="5.87906">
        <ele>623</ele>
        <time>2019-08-17T08:11:33Z</time>
      </trkpt>
      <trkpt lat="44.36245" lon="5.87919">
        <ele>623</ele>
        <time>2019-08-17T08:11:34Z</time>
      </trkpt>
      <trkpt lat="44.36244" lon="5.87931">
        <ele>623</ele>
        <time>2019-08-17T08:11:35Z</time>
      </trkpt>
      <trkpt lat="44.36243" lon="5.87943">
        <ele>623</ele>
        <time>2019-08-17T08:11:36Z</time>
      </trkpt>
      <trkpt lat="44.36243" lon="5.87955">
        <ele>623</ele>
        <time>2019-08-17T08:11:37Z</time>
      </trkpt>
      <trkpt lat="44.36243" lon="5.87968">
        <ele>623</ele>
        <time>2019-08-17T08:11:38Z</time>
      </trkpt>
      <trkpt lat="44.36244" lon="5.87981">
        <ele>622</ele>
        <time>2019-08-17T08:11:39Z</time>
      </trkpt>
      <trkpt lat="44.36246" lon="5.87993">
        <ele>622</ele>
        <time>2019-08-17T08:11:40Z</time>
      </trkpt>
      <trkpt lat="44.36249" lon="5.88006">
        <ele>622</ele>
        <time>2019-08-17T08:11:41Z</time>
      </trkpt>
      <trkpt lat="44.36252" lon="5.88018">
        <ele>621</ele>
        <time>2019-08-17T08:11:42Z</time>
      </trkpt>
      <trkpt lat="44.36256" lon="5.8803">
        <ele>621</ele>
        <time>2019-08-17T08:11:43Z</time>
      </trkpt>
      <trkpt lat="44.36261" lon="5.88042">
        <ele>620</ele>
        <time>2019-08-17T08:11:44Z</time>
      </trkpt>
      <trkpt lat="44.36265" lon="5.88055">
        <ele>619</ele>
        <time>2019-08-17T08:11:45Z</time>
      </trkpt>
      <trkpt lat="44.36269" lon="5.88068">
        <ele>619</ele>
        <time>2019-08-17T08:11:46Z</time>
      </trkpt>
      <trkpt lat="44.36273" lon="5.88081">
        <ele>618</ele>
        <time>2019-08-17T08:11:47Z</time>
      </trkpt>
      <trkpt lat="44.36277" lon="5.88093">
        <ele>618</ele>
        <time>2019-08-17T08:11:48Z</time>
      </trkpt>
      <trkpt lat="44.3628" lon="5.88105">
        <ele>618</ele>
        <time>2019-08-17T08:11:49Z</time>
      </trkpt>
      <trkpt lat="44.36284" lon="5.88117">
        <ele>618</ele>
        <time>2019-08-17T08:11:50Z</time>
      </trkpt>
      <trkpt lat="44.36287" lon="5.88128">
        <ele>618</ele>
        <time>2019-08-17T08:11:51Z</time>
      </trkpt>
      <trkpt lat="44.3629" lon="5.88139">
        <ele>618</ele>
        <time>2019-08-17T08:11:52Z</time>
      </trkpt>
      <trkpt lat="44.36292" lon="5.88149">
        <ele>618</ele>
        <time>2019-08-17T08:11:53Z</time>
      </trkpt>
      <trkpt lat="44.36295" lon="5.8816">
        <ele>618</ele>
        <time>2019-08-17T08:11:54Z</time>
      </trkpt>
      <trkpt lat="44.36298" lon="5.88171">
        <ele>618</ele>
        <time>2019-08-17T08:11:55Z</time>
      </trkpt>
      <trkpt lat="44.363" lon="5.88181">
        <ele>618</ele>
        <time>2019-08-17T08:11:56Z</time>
      </trkpt>
      <trkpt lat="44.36303" lon="5.88192">
        <ele>618</ele>
        <time>2019-08-17T08:11:57Z</time>
      </trkpt>
      <trkpt lat="44.36306" lon="5.88202">
        <ele>618</ele>
        <time>2019-08-17T08:11:58Z</time>
      </trkpt>
      <trkpt lat="44.36308" lon="5.88213">
        <ele>617</ele>
        <time>2019-08-17T08:11:59Z</time>
      </trkpt>
      <trkpt lat="44.3631" lon="5.88224">
        <ele>617</ele>
        <time>2019-08-17T08:12:00Z</time>
      </trkpt>
      <trkpt lat="44.36313" lon="5.88235">
        <ele>617</ele>
        <time>2019-08-17T08:12:01Z</time>
      </trkpt>
      <trkpt lat="44.36315" lon="5.88246">
        <ele>617</ele>
        <time>2019-08-17T08:12:02Z</time>
      </trkpt>
      <trkpt lat="44.36317" lon="5.88258">
        <ele>617</ele>
        <time>2019-08-17T08:12:03Z</time>
      </trkpt>
      <trkpt lat="44.36318" lon="5.88269">
        <ele>617</ele>
        <time>2019-08-17T08:12:04Z</time>
      </trkpt>
      <trkpt lat="44.3632" lon="5.8828">
        <ele>616</ele>
        <time>2019-08-17T08:12:05Z</time>
      </trkpt>
      <trkpt lat="44.36322" lon="5.88292">
        <ele>616</ele>
        <time>2019-08-17T08:12:06Z</time>
      </trkpt>
      <trkpt lat="44.36324" lon="5.88304">
        <ele>615</ele>
        <time>2019-08-17T08:12:07Z</time>
      </trkpt>
      <trkpt lat="44.36327" lon="5.88315">
        <ele>615</ele>
        <time>2019-08-17T08:12:08Z</time>
      </trkpt>
      <trkpt lat="44.36331" lon="5.88327">
        <ele>614</ele>
        <time>2019-08-17T08:12:09Z</time>
      </trkpt>
      <trkpt lat="44.36336" lon="5.88339">
        <ele>614</ele>
        <time>2019-08-17T08:12:10Z</time>
      </trkpt>
      <trkpt lat="44.3634" lon="5.88351">
        <ele>613</ele>
        <time>2019-08-17T08:12:11Z</time>
      </trkpt>
      <trkpt lat="44.36345" lon="5.88363">
        <ele>613</ele>
        <time>2019-08-17T08:12:12Z</time>
      </trkpt>
      <trkpt lat="44.3635" lon="5.88376">
        <ele>612</ele>
        <time>2019-08-17T08:12:13Z</time>
      </trkpt>
      <trkpt lat="44.36354" lon="5.88387">
        <ele>612</ele>
        <time>2019-08-17T08:12:14Z</time>
      </trkpt>
      <trkpt lat="44.36358" lon="5.88399">
        <ele>612</ele>
        <time>2019-08-17T08:12:15Z</time>
      </trkpt>
      <trkpt lat="44.36361" lon="5.8841">
        <ele>612</ele>
        <time>2019-08-17T08:12:16Z</time>
      </trkpt>
      <trkpt lat="44.36364" lon="5.88421">
        <ele>612</ele>
        <time>2019-08-17T08:12:17Z</time>
      </trkpt>
      <trkpt lat="44.36367" lon="5.88432">
        <ele>612</ele>
        <time>2019-08-17T08:12:18Z</time>
      </trkpt>
      <trkpt lat="44.36368" lon="5.88443">
        <ele>612</ele>
        <time>2019-08-17T08:12:19Z</time>
      </trkpt>
      <trkpt lat="44.3637" lon="5.88453">
        <ele>612</ele>
        <time>2019-08-17T08:12:20Z</time>
      </trkpt>
      <trkpt lat="44.3637" lon="5.88463">
        <ele>612</ele>
        <time>2019-08-17T08:12:21Z</time>
      </trkpt>
      <trkpt lat="44.36371" lon="5.88473">
        <ele>612</ele>
        <time>2019-08-17T08:12:22Z</time>
      </trkpt>
      <trkpt lat="44.36371" lon="5.88483">
        <ele>612</ele>
        <time>2019-08-17T08:12:23Z</time>
      </trkpt>
      <trkpt lat="44.36372" lon="5.88492">
        <ele>612</ele>
        <time>2019-08-17T08:12:24Z</time>
      </trkpt>
      <trkpt lat="44.36372" lon="5.88501">
        <ele>612</ele>
        <time>2019-08-17T08:12:25Z</time>
      </trkpt>
      <trkpt lat="44.36372" lon="5.88509">
        <ele>612</ele>
        <time>2019-08-17T08:12:26Z</time>
      </trkpt>
      <trkpt lat="44.36372" lon="5.88517">
        <ele>612</ele>
        <time>2019-08-17T08:12:27Z</time>
      </trkpt>
      <trkpt lat="44.36372" lon="5.88525">
        <ele>612</ele>
        <time>2019-08-17T08:12:28Z</time>
      </trkpt>
      <trkpt lat="44.36371" lon="5.88534">
        <ele>612</ele>
        <time>2019-08-17T08:12:29Z</time>
      </trkpt>
      <trkpt lat="44.36371" lon="5.88542">
        <ele>612</ele>
        <time>2019-08-17T08:12:30Z</time>
      </trkpt>
      <trkpt lat="44.36371" lon="5.88551">
        <ele>612</ele>
        <time>2019-08-17T08:12:31Z</time>
      </trkpt>
      <trkpt lat="44.36371" lon="5.8856">
        <ele>612</ele>
        <time>2019-08-17T08:12:32Z</time>
      </trkpt>
      <trkpt lat="44.36371" lon="5.88569">
        <ele>612</ele>
        <time>2019-08-17T08:12:33Z</time>
      </trkpt>
      <trkpt lat="44.36371" lon="5.88578">
        <ele>612</ele>
        <time>2019-08-17T08:12:34Z</time>
      </trkpt>
      <trkpt lat="44.36371" lon="5.88587">
        <ele>612</ele>
        <time>2019-08-17T08:12:35Z</time>
      </trkpt>
      <trkpt lat="44.36371" lon="5.88596">
        <ele>612</ele>
        <time>2019-08-17T08:12:36Z</time>
      </trkpt>
      <trkpt lat="44.36371" lon="5.88606">
        <ele>612</ele>
        <time>2019-08-17T08:12:37Z</time>
      </trkpt>
      <trkpt lat="44.3637" lon="5.88615">
        <ele>612</ele>
        <time>2019-08-17T08:12:38Z</time>
      </trkpt>
      <trkpt lat="44.36369" lon="5.88624">
        <ele>612</ele>
        <time>2019-08-17T08:12:39Z</time>
      </trkpt>
      <trkpt lat="44.36368" lon="5.88633">
        <ele>612</ele>
        <time>2019-08-17T08:12:40Z</time>
      </trkpt>
      <trkpt lat="44.36367" lon="5.88643">
        <ele>612</ele>
        <time>2019-08-17T08:12:41Z</time>
      </trkpt>
      <trkpt lat="44.36364" lon="5.88652">
        <ele>612</ele>
        <time>2019-08-17T08:12:42Z</time>
      </trkpt>
      <trkpt lat="44.36362" lon="5.88661">
        <ele>612</ele>
        <time>2019-08-17T08:12:43Z</time>
      </trkpt>
      <trkpt lat="44.36359" lon="5.8867">
        <ele>612</ele>
        <time>2019-08-17T08:12:44Z</time>
      </trkpt>
      <trkpt lat="44.36356" lon="5.88678">
        <ele>612</ele>
        <time>2019-08-17T08:12:45Z</time>
      </trkpt>
      <trkpt lat="44.36353" lon="5.88686">
        <ele>612</ele>
        <time>2019-08-17T08:12:46Z</time>
      </trkpt>
      <trkpt lat="44.3635" lon="5.88694">
        <ele>612</ele>
        <time>2019-08-17T08:12:47Z</time>
      </trkpt>
      <trkpt lat="44.36347" lon="5.88701">
        <ele>612</ele>
        <time>2019-08-17T08:12:48Z</time>
      </trkpt>
      <trkpt lat="44.36345" lon="5.88708">
        <ele>612</ele>
        <time>2019-08-17T08:12:49Z</time>
      </trkpt>
      <trkpt lat="44.36343" lon="5.88716">
        <ele>612</ele>
        <time>2019-08-17T08:12:50Z</time>
      </trkpt>
      <trkpt lat="44.3634" lon="5.88724">
        <ele>612</ele>
        <time>2019-08-17T08:12:51Z</time>
      </trkpt>
      <trkpt lat="44.36339" lon="5.88732">
        <ele>612</ele>
        <time>2019-08-17T08:12:52Z</time>
      </trkpt>
      <trkpt lat="44.36338" lon="5.8874">
        <ele>612</ele>
        <time>2019-08-17T08:12:53Z</time>
      </trkpt>
      <trkpt lat="44.36337" lon="5.88749">
        <ele>612</ele>
        <time>2019-08-17T08:12:54Z</time>
      </trkpt>
      <trkpt lat="44.36337" lon="5.88757">
        <ele>612</ele>
        <time>2019-08-17T08:12:55Z</time>
      </trkpt>
      <trkpt lat="44.36338" lon="5.88766">
        <ele>613</ele>
        <time>2019-08-17T08:12:56Z</time>
      </trkpt>
      <trkpt lat="44.36339" lon="5.88775">
        <ele>613</ele>
        <time>2019-08-17T08:12:57Z</time>
      </trkpt>
      <trkpt lat="44.3634" lon="5.88783">
        <ele>613</ele>
        <time>2019-08-17T08:12:58Z</time>
      </trkpt>
      <trkpt lat="44.36343" lon="5.88792">
        <ele>613</ele>
        <time>2019-08-17T08:12:59Z</time>
      </trkpt>
      <trkpt lat="44.36346" lon="5.88801">
        <ele>613</ele>
        <time>2019-08-17T08:13:00Z</time>
      </trkpt>
      <trkpt lat="44.36349" lon="5.88811">
        <ele>613</ele>
        <time>2019-08-17T08:13:01Z</time>
      </trkpt>
      <trkpt lat="44.36353" lon="5.88821">
        <ele>613</ele>
        <time>2019-08-17T08:13:02Z</time>
      </trkpt>
      <trkpt lat="44.36356" lon="5.88831">
        <ele>613</ele>
        <time>2019-08-17T08:13:03Z</time>
      </trkpt>
      <trkpt lat="44.3636" lon="5.8884">
        <ele>613</ele>
        <time>2019-08-17T08:13:04Z</time>
      </trkpt>
      <trkpt lat="44.36364" lon="5.8885">
        <ele>613</ele>
        <time>2019-08-17T08:13:05Z</time>
      </trkpt>
      <trkpt lat="44.36367" lon="5.8886">
        <ele>613</ele>
        <time>2019-08-17T08:13:06Z</time>
      </trkpt>
      <trkpt lat="44.36371" lon="5.88869">
        <ele>613</ele>
        <time>2019-08-17T08:13:07Z</time>
      </trkpt>
      <trkpt lat="44.36375" lon="5.88879">
        <ele>613</ele>
        <time>2019-08-17T08:13:08Z</time>
      </trkpt>
      <trkpt lat="44.36378" lon="5.88889">
        <ele>613</ele>
        <time>2019-08-17T08:13:09Z</time>
      </trkpt>
      <trkpt lat="44.36382" lon="5.88898">
        <ele>613</ele>
        <time>2019-08-17T08:13:10Z</time>
      </trkpt>
      <trkpt lat="44.36385" lon="5.88908">
        <ele>613</ele>
        <time>2019-08-17T08:13:11Z</time>
      </trkpt>
      <trkpt lat="44.36389" lon="5.88918">
        <ele>613</ele>
        <time>2019-08-17T08:13:12Z</time>
      </trkpt>
      <trkpt lat="44.36393" lon="5.88929">
        <ele>613</ele>
        <time>2019-08-17T08:13:13Z</time>
      </trkpt>
      <trkpt lat="44.36397" lon="5.8894">
        <ele>613</ele>
        <time>2019-08-17T08:13:14Z</time>
      </trkpt>
      <trkpt lat="44.36401" lon="5.8895">
        <ele>613</ele>
        <time>2019-08-17T08:13:15Z</time>
      </trkpt>
      <trkpt lat="44.36404" lon="5.88961">
        <ele>613</ele>
        <time>2019-08-17T08:13:16Z</time>
      </trkpt>
      <trkpt lat="44.36408" lon="5.88971">
        <ele>612</ele>
        <time>2019-08-17T08:13:17Z</time>
      </trkpt>
      <trkpt lat="44.36412" lon="5.88981">
        <ele>612</ele>
        <time>2019-08-17T08:13:18Z</time>
      </trkpt>
      <trkpt lat="44.36416" lon="5.8899">
        <ele>612</ele>
        <time>2019-08-17T08:13:19Z</time>
      </trkpt>
      <trkpt lat="44.36419" lon="5.88999">
        <ele>612</ele>
        <time>2019-08-17T08:13:20Z</time>
      </trkpt>
      <trkpt lat="44.36423" lon="5.89008">
        <ele>612</ele>
        <time>2019-08-17T08:13:21Z</time>
      </trkpt>
      <trkpt lat="44.36426" lon="5.89016">
        <ele>612</ele>
        <time>2019-08-17T08:13:22Z</time>
      </trkpt>
      <trkpt lat="44.36429" lon="5.89024">
        <ele>612</ele>
        <time>2019-08-17T08:13:23Z</time>
      </trkpt>
      <trkpt lat="44.36432" lon="5.89033">
        <ele>612</ele>
        <time>2019-08-17T08:13:24Z</time>
      </trkpt>
      <trkpt lat="44.36435" lon="5.89041">
        <ele>612</ele>
        <time>2019-08-17T08:13:25Z</time>
      </trkpt>
      <trkpt lat="44.36439" lon="5.8905">
        <ele>612</ele>
        <time>2019-08-17T08:13:26Z</time>
      </trkpt>
      <trkpt lat="44.36442" lon="5.89059">
        <ele>612</ele>
        <time>2019-08-17T08:13:27Z</time>
      </trkpt>
      <trkpt lat="44.36446" lon="5.89068">
        <ele>612</ele>
        <time>2019-08-17T08:13:28Z</time>
      </trkpt>
      <trkpt lat="44.36449" lon="5.89078">
        <ele>612</ele>
        <time>2019-08-17T08:13:29Z</time>
      </trkpt>
      <trkpt lat="44.36453" lon="5.89088">
        <ele>612</ele>
        <time>2019-08-17T08:13:30Z</time>
      </trkpt>
      <trkpt lat="44.36457" lon="5.89098">
        <ele>612</ele>
        <time>2019-08-17T08:13:31Z</time>
      </trkpt>
      <trkpt lat="44.3646" lon="5.89109">
        <ele>611</ele>
        <time>2019-08-17T08:13:32Z</time>
      </trkpt>
      <trkpt lat="44.36464" lon="5.8912">
        <ele>611</ele>
        <time>2019-08-17T08:13:33Z</time>
      </trkpt>
      <trkpt lat="44.36469" lon="5.8913">
        <ele>611</ele>
        <time>2019-08-17T08:13:34Z</time>
      </trkpt>
      <trkpt lat="44.36473" lon="5.89141">
        <ele>610</ele>
        <time>2019-08-17T08:13:35Z</time>
      </trkpt>
      <trkpt lat="44.36477" lon="5.89151">
        <ele>610</ele>
        <time>2019-08-17T08:13:36Z</time>
      </trkpt>
      <trkpt lat="44.36481" lon="5.89162">
        <ele>610</ele>
        <time>2019-08-17T08:13:37Z</time>
      </trkpt>
      <trkpt lat="44.36485" lon="5.89172">
        <ele>609</ele>
        <time>2019-08-17T08:13:38Z</time>
      </trkpt>
      <trkpt lat="44.36489" lon="5.89182">
        <ele>609</ele>
        <time>2019-08-17T08:13:39Z</time>
      </trkpt>
      <trkpt lat="44.36493" lon="5.89193">
        <ele>609</ele>
        <time>2019-08-17T08:13:40Z</time>
      </trkpt>
      <trkpt lat="44.36497" lon="5.89203">
        <ele>609</ele>
        <time>2019-08-17T08:13:41Z</time>
      </trkpt>
      <trkpt lat="44.36501" lon="5.89213">
        <ele>609</ele>
        <time>2019-08-17T08:13:42Z</time>
      </trkpt>
      <trkpt lat="44.36505" lon="5.89224">
        <ele>608</ele>
        <time>2019-08-17T08:13:43Z</time>
      </trkpt>
      <trkpt lat="44.36509" lon="5.89234">
        <ele>608</ele>
        <time>2019-08-17T08:13:44Z</time>
      </trkpt>
      <trkpt lat="44.36513" lon="5.89244">
        <ele>608</ele>
        <time>2019-08-17T08:13:45Z</time>
      </trkpt>
      <trkpt lat="44.36517" lon="5.89255">
        <ele>607</ele>
        <time>2019-08-17T08:13:46Z</time>
      </trkpt>
      <trkpt lat="44.36521" lon="5.89266">
        <ele>607</ele>
        <time>2019-08-17T08:13:47Z</time>
      </trkpt>
      <trkpt lat="44.36525" lon="5.89277">
        <ele>606</ele>
        <time>2019-08-17T08:13:48Z</time>
      </trkpt>
      <trkpt lat="44.36528" lon="5.89289">
        <ele>606</ele>
        <time>2019-08-17T08:13:49Z</time>
      </trkpt>
      <trkpt lat="44.36532" lon="5.893">
        <ele>605</ele>
        <time>2019-08-17T08:13:50Z</time>
      </trkpt>
      <trkpt lat="44.36535" lon="5.89313">
        <ele>605</ele>
        <time>2019-08-17T08:13:51Z</time>
      </trkpt>
      <trkpt lat="44.36539" lon="5.89326">
        <ele>604</ele>
        <time>2019-08-17T08:13:52Z</time>
      </trkpt>
      <trkpt lat="44.36541" lon="5.89339">
        <ele>604</ele>
        <time>2019-08-17T08:13:53Z</time>
      </trkpt>
      <trkpt lat="44.36543" lon="5.89352">
        <ele>604</ele>
        <time>2019-08-17T08:13:54Z</time>
      </trkpt>
      <trkpt lat="44.36545" lon="5.89365">
        <ele>603</ele>
        <time>2019-08-17T08:13:55Z</time>
      </trkpt>
      <trkpt lat="44.36546" lon="5.89377">
        <ele>603</ele>
        <time>2019-08-17T08:13:56Z</time>
      </trkpt>
      <trkpt lat="44.36548" lon="5.89389">
        <ele>603</ele>
        <time>2019-08-17T08:13:57Z</time>
      </trkpt>
      <trkpt lat="44.3655" lon="5.894">
        <ele>603</ele>
        <time>2019-08-17T08:13:58Z</time>
      </trkpt>
      <trkpt lat="44.36552" lon="5.89411">
        <ele>603</ele>
        <time>2019-08-17T08:13:59Z</time>
      </trkpt>
      <trkpt lat="44.36554" lon="5.89421">
        <ele>603</ele>
        <time>2019-08-17T08:14:00Z</time>
      </trkpt>
      <trkpt lat="44.36557" lon="5.89431">
        <ele>603</ele>
        <time>2019-08-17T08:14:01Z</time>
      </trkpt>
      <trkpt lat="44.36561" lon="5.8944">
        <ele>603</ele>
        <time>2019-08-17T08:14:02Z</time>
      </trkpt>
      <trkpt lat="44.36565" lon="5.89449">
        <ele>603</ele>
        <time>2019-08-17T08:14:03Z</time>
      </trkpt>
      <trkpt lat="44.36569" lon="5.89457">
        <ele>603</ele>
        <time>2019-08-17T08:14:04Z</time>
      </trkpt>
      <trkpt lat="44.36573" lon="5.89466">
        <ele>603</ele>
        <time>2019-08-17T08:14:05Z</time>
      </trkpt>
      <trkpt lat="44.36578" lon="5.89473">
        <ele>603</ele>
        <time>2019-08-17T08:14:06Z</time>
      </trkpt>
      <trkpt lat="44.36583" lon="5.89481">
        <ele>603</ele>
        <time>2019-08-17T08:14:07Z</time>
      </trkpt>
      <trkpt lat="44.36588" lon="5.89488">
        <ele>603</ele>
        <time>2019-08-17T08:14:08Z</time>
      </trkpt>
      <trkpt lat="44.36593" lon="5.89495">
        <ele>603</ele>
        <time>2019-08-17T08:14:09Z</time>
      </trkpt>
      <trkpt lat="44.36598" lon="5.89502">
        <ele>603</ele>
        <time>2019-08-17T08:14:10Z</time>
      </trkpt>
      <trkpt lat="44.36603" lon="5.8951">
        <ele>602</ele>
        <time>2019-08-17T08:14:11Z</time>
      </trkpt>
      <trkpt lat="44.36608" lon="5.89517">
        <ele>602</ele>
        <time>2019-08-17T08:14:12Z</time>
      </trkpt>
      <trkpt lat="44.36613" lon="5.89525">
        <ele>602</ele>
        <time>2019-08-17T08:14:13Z</time>
      </trkpt>
      <trkpt lat="44.36618" lon="5.89532">
        <ele>602</ele>
        <time>2019-08-17T08:14:14Z</time>
      </trkpt>
      <trkpt lat="44.36623" lon="5.8954">
        <ele>601</ele>
        <time>2019-08-17T08:14:15Z</time>
      </trkpt>
      <trkpt lat="44.36628" lon="5.89548">
        <ele>601</ele>
        <time>2019-08-17T08:14:16Z</time>
      </trkpt>
      <trkpt lat="44.36634" lon="5.89557">
        <ele>601</ele>
        <time>2019-08-17T08:14:17Z</time>
      </trkpt>
      <trkpt lat="44.36639" lon="5.89565">
        <ele>601</ele>
        <time>2019-08-17T08:14:18Z</time>
      </trkpt>
      <trkpt lat="44.36644" lon="5.89573">
        <ele>601</ele>
        <time>2019-08-17T08:14:19Z</time>
      </trkpt>
      <trkpt lat="44.36649" lon="5.8958">
        <ele>601</ele>
        <time>2019-08-17T08:14:20Z</time>
      </trkpt>
      <trkpt lat="44.36655" lon="5.89588">
        <ele>601</ele>
        <time>2019-08-17T08:14:21Z</time>
      </trkpt>
      <trkpt lat="44.3666" lon="5.89595">
        <ele>601</ele>
        <time>2019-08-17T08:14:22Z</time>
      </trkpt>
      <trkpt lat="44.36665" lon="5.89603">
        <ele>601</ele>
        <time>2019-08-17T08:14:23Z</time>
      </trkpt>
      <trkpt lat="44.36669" lon="5.8961">
        <ele>601</ele>
        <time>2019-08-17T08:14:24Z</time>
      </trkpt>
      <trkpt lat="44.36674" lon="5.89617">
        <ele>601</ele>
        <time>2019-08-17T08:14:25Z</time>
      </trkpt>
      <trkpt lat="44.36678" lon="5.89624">
        <ele>601</ele>
        <time>2019-08-17T08:14:26Z</time>
      </trkpt>
      <trkpt lat="44.36683" lon="5.89631">
        <ele>601</ele>
        <time>2019-08-17T08:14:27Z</time>
      </trkpt>
      <trkpt lat="44.36687" lon="5.89637">
        <ele>601</ele>
        <time>2019-08-17T08:14:28Z</time>
      </trkpt>
      <trkpt lat="44.36692" lon="5.89644">
        <ele>601</ele>
        <time>2019-08-17T08:14:29Z</time>
      </trkpt>
      <trkpt lat="44.36696" lon="5.8965">
        <ele>601</ele>
        <time>2019-08-17T08:14:30Z</time>
      </trkpt>
      <trkpt lat="44.367" lon="5.89657">
        <ele>601</ele>
        <time>2019-08-17T08:14:31Z</time>
      </trkpt>
      <trkpt lat="44.36705" lon="5.89664">
        <ele>601</ele>
        <time>2019-08-17T08:14:32Z</time>
      </trkpt>
      <trkpt lat="44.36709" lon="5.8967">
        <ele>601</ele>
        <time>2019-08-17T08:14:33Z</time>
      </trkpt>
      <trkpt lat="44.36714" lon="5.89677">
        <ele>601</ele>
        <time>2019-08-17T08:14:34Z</time>
      </trkpt>
      <trkpt lat="44.36718" lon="5.89684">
        <ele>601</ele>
        <time>2019-08-17T08:14:35Z</time>
      </trkpt>
      <trkpt lat="44.36723" lon="5.89691">
        <ele>601</ele>
        <time>2019-08-17T08:14:36Z</time>
      </trkpt>
      <trkpt lat="44.36727" lon="5.89698">
        <ele>601</ele>
        <time>2019-08-17T08:14:37Z</time>
      </trkpt>
      <trkpt lat="44.36731" lon="5.89705">
        <ele>601</ele>
        <time>2019-08-17T08:14:38Z</time>
      </trkpt>
      <trkpt lat="44.36736" lon="5.89712">
        <ele>601</ele>
        <time>2019-08-17T08:14:39Z</time>
      </trkpt>
      <trkpt lat="44.3674" lon="5.89719">
        <ele>601</ele>
        <time>2019-08-17T08:14:40Z</time>
      </trkpt>
      <trkpt lat="44.36745" lon="5.89726">
        <ele>601</ele>
        <time>2019-08-17T08:14:41Z</time>
      </trkpt>
      <trkpt lat="44.36749" lon="5.89733">
        <ele>601</ele>
        <time>2019-08-17T08:14:42Z</time>
      </trkpt>
      <trkpt lat="44.36753" lon="5.8974">
        <ele>601</ele>
        <time>2019-08-17T08:14:43Z</time>
      </trkpt>
      <trkpt lat="44.36758" lon="5.89747">
        <ele>601</ele>
        <time>2019-08-17T08:14:44Z</time>
      </trkpt>
      <trkpt lat="44.36762" lon="5.89754">
        <ele>601</ele>
        <time>2019-08-17T08:14:45Z</time>
      </trkpt>
      <trkpt lat="44.36766" lon="5.89761">
        <ele>601</ele>
        <time>2019-08-17T08:14:46Z</time>
      </trkpt>
      <trkpt lat="44.36769" lon="5.89769">
        <ele>601</ele>
        <time>2019-08-17T08:14:47Z</time>
      </trkpt>
      <trkpt lat="44.36773" lon="5.89776">
        <ele>601</ele>
        <time>2019-08-17T08:14:48Z</time>
      </trkpt>
      <trkpt lat="44.36777" lon="5.89784">
        <ele>601</ele>
        <time>2019-08-17T08:14:49Z</time>
      </trkpt>
      <trkpt lat="44.3678" lon="5.89792">
        <ele>601</ele>
        <time>2019-08-17T08:14:50Z</time>
      </trkpt>
      <trkpt lat="44.36784" lon="5.89801">
        <ele>601</ele>
        <time>2019-08-17T08:14:51Z</time>
      </trkpt>
      <trkpt lat="44.36787" lon="5.89809">
        <ele>601</ele>
        <time>2019-08-17T08:14:52Z</time>
      </trkpt>
      <trkpt lat="44.3679" lon="5.89818">
        <ele>601</ele>
        <time>2019-08-17T08:14:53Z</time>
      </trkpt>
      <trkpt lat="44.36793" lon="5.89827">
        <ele>601</ele>
        <time>2019-08-17T08:14:54Z</time>
      </trkpt>
      <trkpt lat="44.36796" lon="5.89836">
        <ele>601</ele>
        <time>2019-08-17T08:14:55Z</time>
      </trkpt>
      <trkpt lat="44.368" lon="5.89845">
        <ele>601</ele>
        <time>2019-08-17T08:14:56Z</time>
      </trkpt>
      <trkpt lat="44.36805" lon="5.89854">
        <ele>601</ele>
        <time>2019-08-17T08:14:57Z</time>
      </trkpt>
      <trkpt lat="44.3681" lon="5.89862">
        <ele>601</ele>
        <time>2019-08-17T08:14:58Z</time>
      </trkpt>
      <trkpt lat="44.36816" lon="5.89871">
        <ele>601</ele>
        <time>2019-08-17T08:14:59Z</time>
      </trkpt>
      <trkpt lat="44.36823" lon="5.89879">
        <ele>601</ele>
        <time>2019-08-17T08:15:00Z</time>
      </trkpt>
      <trkpt lat="44.3683" lon="5.89887">
        <ele>601</ele>
        <time>2019-08-17T08:15:01Z</time>
      </trkpt>
      <trkpt lat="44.36837" lon="5.89895">
        <ele>601</ele>
        <time>2019-08-17T08:15:02Z</time>
      </trkpt>
      <trkpt lat="44.36844" lon="5.89903">
        <ele>601</ele>
        <time>2019-08-17T08:15:03Z</time>
      </trkpt>
      <trkpt lat="44.36851" lon="5.8991">
        <ele>601</ele>
        <time>2019-08-17T08:15:04Z</time>
      </trkpt>
      <trkpt lat="44.36858" lon="5.89916">
        <ele>601</ele>
        <time>2019-08-17T08:15:05Z</time>
      </trkpt>
      <trkpt lat="44.36865" lon="5.89921">
        <ele>601</ele>
        <time>2019-08-17T08:15:06Z</time>
      </trkpt>
      <trkpt lat="44.36872" lon="5.89926">
        <ele>601</ele>
        <time>2019-08-17T08:15:07Z</time>
      </trkpt>
      <trkpt lat="44.36879" lon="5.8993">
        <ele>601</ele>
        <time>2019-08-17T08:15:08Z</time>
      </trkpt>
      <trkpt lat="44.36885" lon="5.89934">
        <ele>601</ele>
        <time>2019-08-17T08:15:09Z</time>
      </trkpt>
      <trkpt lat="44.36891" lon="5.89938">
        <ele>601</ele>
        <time>2019-08-17T08:15:10Z</time>
      </trkpt>
      <trkpt lat="44.36897" lon="5.89941">
        <ele>601</ele>
        <time>2019-08-17T08:15:11Z</time>
      </trkpt>
      <trkpt lat="44.36902" lon="5.89945">
        <ele>601</ele>
        <time>2019-08-17T08:15:12Z</time>
      </trkpt>
      <trkpt lat="44.36908" lon="5.89948">
        <ele>601</ele>
        <time>2019-08-17T08:15:13Z</time>
      </trkpt>
      <trkpt lat="44.36913" lon="5.89952">
        <ele>601</ele>
        <time>2019-08-17T08:15:14Z</time>
      </trkpt>
      <trkpt lat="44.36919" lon="5.89955">
        <ele>601</ele>
        <time>2019-08-17T08:15:15Z</time>
      </trkpt>
      <trkpt lat="44.36924" lon="5.89958">
        <ele>601</ele>
        <time>2019-08-17T08:15:16Z</time>
      </trkpt>
      <trkpt lat="44.3693" lon="5.89961">
        <ele>601</ele>
        <time>2019-08-17T08:15:17Z</time>
      </trkpt>
      <trkpt lat="44.36935" lon="5.89965">
        <ele>601</ele>
        <time>2019-08-17T08:15:18Z</time>
      </trkpt>
      <trkpt lat="44.3694" lon="5.89968">
        <ele>601</ele>
        <time>2019-08-17T08:15:19Z</time>
      </trkpt>
      <trkpt lat="44.36945" lon="5.89971">
        <ele>601</ele>
        <time>2019-08-17T08:15:20Z</time>
      </trkpt>
      <trkpt lat="44.36951" lon="5.89974">
        <ele>601</ele>
        <time>2019-08-17T08:15:21Z</time>
      </trkpt>
      <trkpt lat="44.36956" lon="5.89977">
        <ele>601</ele>
        <time>2019-08-17T08:15:22Z</time>
      </trkpt>
      <trkpt lat="44.36961" lon="5.89979">
        <ele>601</ele>
        <time>2019-08-17T08:15:23Z</time>
      </trkpt>
      <trkpt lat="44.36966" lon="5.89982">
        <ele>601</ele>
        <time>2019-08-17T08:15:24Z</time>
      </trkpt>
      <trkpt lat="44.36971" lon="5.89985">
        <ele>601</ele>
        <time>2019-08-17T08:15:25Z</time>
      </trkpt>
      <trkpt lat="44.36976" lon="5.89987">
        <ele>601</ele>
        <time>2019-08-17T08:15:26Z</time>
      </trkpt>
      <trkpt lat="44.36981" lon="5.8999">
        <ele>602</ele>
        <time>2019-08-17T08:15:27Z</time>
      </trkpt>
      <trkpt lat="44.36986" lon="5.89992">
        <ele>602</ele>
        <time>2019-08-17T08:15:28Z</time>
      </trkpt>
      <trkpt lat="44.36991" lon="5.89994">
        <ele>603</ele>
        <time>2019-08-17T08:15:29Z</time>
      </trkpt>
      <trkpt lat="44.36995" lon="5.89997">
        <ele>603</ele>
        <time>2019-08-17T08:15:30Z</time>
      </trkpt>
      <trkpt lat="44.37" lon="5.89999">
        <ele>603</ele>
        <time>2019-08-17T08:15:31Z</time>
      </trkpt>
      <trkpt lat="44.37005" lon="5.90001">
        <ele>604</ele>
        <time>2019-08-17T08:15:32Z</time>
      </trkpt>
      <trkpt lat="44.3701" lon="5.90003">
        <ele>604</ele>
        <time>2019-08-17T08:15:33Z</time>
      </trkpt>
      <trkpt lat="44.37015" lon="5.90005">
        <ele>604</ele>
        <time>2019-08-17T08:15:34Z</time>
      </trkpt>
      <trkpt lat="44.3702" lon="5.90007">
        <ele>605</ele>
        <time>2019-08-17T08:15:35Z</time>
      </trkpt>
      <trkpt lat="44.37025" lon="5.90009">
        <ele>605</ele>
        <time>2019-08-17T08:15:36Z</time>
      </trkpt>
      <trkpt lat="44.3703" lon="5.9001">
        <ele>605</ele>
        <time>2019-08-17T08:15:37Z</time>
      </trkpt>
      <trkpt lat="44.37035" lon="5.90011">
        <ele>605</ele>
        <time>2019-08-17T08:15:38Z</time>
      </trkpt>
      <trkpt lat="44.37041" lon="5.90012">
        <ele>605</ele>
        <time>2019-08-17T08:15:39Z</time>
      </trkpt>
      <trkpt lat="44.37046" lon="5.90013">
        <ele>605</ele>
        <time>2019-08-17T08:15:40Z</time>
      </trkpt>
      <trkpt lat="44.37052" lon="5.90013">
        <ele>605</ele>
        <time>2019-08-17T08:15:41Z</time>
      </trkpt>
      <trkpt lat="44.37059" lon="5.90011">
        <ele>605</ele>
        <time>2019-08-17T08:15:42Z</time>
      </trkpt>
      <trkpt lat="44.37065" lon="5.90008">
        <ele>605</ele>
        <time>2019-08-17T08:15:43Z</time>
      </trkpt>
      <trkpt lat="44.37072" lon="5.90004">
        <ele>605</ele>
        <time>2019-08-17T08:15:44Z</time>
      </trkpt>
      <trkpt lat="44.37079" lon="5.9">
        <ele>605</ele>
        <time>2019-08-17T08:15:45Z</time>
      </trkpt>
      <trkpt lat="44.37086" lon="5.89994">
        <ele>605</ele>
        <time>2019-08-17T08:15:46Z</time>
      </trkpt>
      <trkpt lat="44.37093" lon="5.89988">
        <ele>605</ele>
        <time>2019-08-17T08:15:47Z</time>
      </trkpt>
      <trkpt lat="44.371" lon="5.89981">
        <ele>605</ele>
        <time>2019-08-17T08:15:48Z</time>
      </trkpt>
      <trkpt lat="44.37107" lon="5.89973">
        <ele>605</ele>
        <time>2019-08-17T08:15:49Z</time>
      </trkpt>
      <trkpt lat="44.37114" lon="5.89965">
        <ele>605</ele>
        <time>2019-08-17T08:15:50Z</time>
      </trkpt>
      <trkpt lat="44.37122" lon="5.89959">
        <ele>605</ele>
        <time>2019-08-17T08:15:51Z</time>
      </trkpt>
      <trkpt lat="44.3713" lon="5.89953">
        <ele>605</ele>
        <time>2019-08-17T08:15:52Z</time>
      </trkpt>
      <trkpt lat="44.37138" lon="5.89949">
        <ele>605</ele>
        <time>2019-08-17T08:15:53Z</time>
      </trkpt>
      <trkpt lat="44.37147" lon="5.89948">
        <ele>605</ele>
        <time>2019-08-17T08:15:54Z</time>
      </trkpt>
      <trkpt lat="44.37156" lon="5.89949">
        <ele>605</ele>
        <time>2019-08-17T08:15:55Z</time>
      </trkpt>
      <trkpt lat="44.37164" lon="5.89953">
        <ele>605</ele>
        <time>2019-08-17T08:15:56Z</time>
      </trkpt>
      <trkpt lat="44.37172" lon="5.89958">
        <ele>605</ele>
        <time>2019-08-17T08:15:57Z</time>
      </trkpt>
      <trkpt lat="44.37179" lon="5.89963">
        <ele>605</ele>
        <time>2019-08-17T08:15:58Z</time>
      </trkpt>
      <trkpt lat="44.37186" lon="5.8997">
        <ele>605</ele>
        <time>2019-08-17T08:15:59Z</time>
      </trkpt>
      <trkpt lat="44.37192" lon="5.89978">
        <ele>605</ele>
        <time>2019-08-17T08:16:00Z</time>
      </trkpt>
      <trkpt lat="44.37198" lon="5.89986">
        <ele>605</ele>
        <time>2019-08-17T08:16:01Z</time>
      </trkpt>
      <trkpt lat="44.37203" lon="5.89993">
        <ele>605</ele>
        <time>2019-08-17T08:16:02Z</time>
      </trkpt>
      <trkpt lat="44.37209" lon="5.9">
        <ele>605</ele>
        <time>2019-08-17T08:16:03Z</time>
      </trkpt>
      <trkpt lat="44.37214" lon="5.90008">
        <ele>605</ele>
        <time>2019-08-17T08:16:04Z</time>
      </trkpt>
      <trkpt lat="44.37219" lon="5.90015">
        <ele>605</ele>
        <time>2019-08-17T08:16:05Z</time>
      </trkpt>
      <trkpt lat="44.37223" lon="5.90022">
        <ele>605</ele>
        <time>2019-08-17T08:16:06Z</time>
      </trkpt>
      <trkpt lat="44.37228" lon="5.90028">
        <ele>605</ele>
        <time>2019-08-17T08:16:07Z</time>
      </trkpt>
      <trkpt lat="44.37232" lon="5.90035">
        <ele>605</ele>
        <time>2019-08-17T08:16:08Z</time>
      </trkpt>
      <trkpt lat="44.37236" lon="5.90042">
        <ele>605</ele>
        <time>2019-08-17T08:16:09Z</time>
      </trkpt>
      <trkpt lat="44.37241" lon="5.90048">
        <ele>605</ele>
        <time>2019-08-17T08:16:10Z</time>
      </trkpt>
      <trkpt lat="44.37245" lon="5.90054">
        <ele>605</ele>
        <time>2019-08-17T08:16:11Z</time>
      </trkpt>
      <trkpt lat="44.37249" lon="5.90061">
        <ele>605</ele>
        <time>2019-08-17T08:16:12Z</time>
      </trkpt>
      <trkpt lat="44.37253" lon="5.90066">
        <ele>605</ele>
        <time>2019-08-17T08:16:13Z</time>
      </trkpt>
      <trkpt lat="44.37257" lon="5.90072">
        <ele>605</ele>
        <time>2019-08-17T08:16:14Z</time>
      </trkpt>
      <trkpt lat="44.37261" lon="5.90077">
        <ele>605</ele>
        <time>2019-08-17T08:16:15Z</time>
      </trkpt>
      <trkpt lat="44.37265" lon="5.90083">
        <ele>605</ele>
        <time>2019-08-17T08:16:16Z</time>
      </trkpt>
      <trkpt lat="44.37269" lon="5.90089">
        <ele>605</ele>
        <time>2019-08-17T08:16:17Z</time>
      </trkpt>
      <trkpt lat="44.37273" lon="5.90094">
        <ele>605</ele>
        <time>2019-08-17T08:16:18Z</time>
      </trkpt>
      <trkpt lat="44.37278" lon="5.901">
        <ele>605</ele>
        <time>2019-08-17T08:16:19Z</time>
      </trkpt>
      <trkpt lat="44.37282" lon="5.90105">
        <ele>605</ele>
        <time>2019-08-17T08:16:20Z</time>
      </trkpt>
      <trkpt lat="44.37286" lon="5.90111">
        <ele>605</ele>
        <time>2019-08-17T08:16:21Z</time>
      </trkpt>
      <trkpt lat="44.37291" lon="5.90116">
        <ele>605</ele>
        <time>2019-08-17T08:16:22Z</time>
      </trkpt>
      <trkpt lat="44.37295" lon="5.90122">
        <ele>605</ele>
        <time>2019-08-17T08:16:23Z</time>
      </trkpt>
      <trkpt lat="44.37299" lon="5.90127">
        <ele>605</ele>
        <time>2019-08-17T08:16:24Z</time>
      </trkpt>
      <trkpt lat="44.37303" lon="5.90132">
        <ele>605</ele>
        <time>2019-08-17T08:16:25Z</time>
      </trkpt>
      <trkpt lat="44.37307" lon="5.90137">
        <ele>605</ele>
        <time>2019-08-17T08:16:26Z</time>
      </trkpt>
      <trkpt lat="44.37311" lon="5.90143">
        <ele>605</ele>
        <time>2019-08-17T08:16:27Z</time>
      </trkpt>
      <trkpt lat="44.37315" lon="5.90148">
        <ele>605</ele>
        <time>2019-08-17T08:16:28Z</time>
      </trkpt>
      <trkpt lat="44.37319" lon="5.90154">
        <ele>605</ele>
        <time>2019-08-17T08:16:29Z</time>
      </trkpt>
      <trkpt lat="44.37323" lon="5.90159">
        <ele>605</ele>
        <time>2019-08-17T08:16:30Z</time>
      </trkpt>
      <trkpt lat="44.37327" lon="5.90164">
        <ele>606</ele>
        <time>2019-08-17T08:16:31Z</time>
      </trkpt>
      <trkpt lat="44.37331" lon="5.90169">
        <ele>606</ele>
        <time>2019-08-17T08:16:32Z</time>
      </trkpt>
      <trkpt lat="44.37336" lon="5.90174">
        <ele>606</ele>
        <time>2019-08-17T08:16:33Z</time>
      </trkpt>
      <trkpt lat="44.37339" lon="5.90179">
        <ele>606</ele>
        <time>2019-08-17T08:16:34Z</time>
      </trkpt>
      <trkpt lat="44.37343" lon="5.90184">
        <ele>606</ele>
        <time>2019-08-17T08:16:35Z</time>
      </trkpt>
      <trkpt lat="44.37347" lon="5.90189">
        <ele>607</ele>
        <time>2019-08-17T08:16:36Z</time>
      </trkpt>
      <trkpt lat="44.37351" lon="5.90194">
        <ele>607</ele>
        <time>2019-08-17T08:16:37Z</time>
      </trkpt>
      <trkpt lat="44.37355" lon="5.90199">
        <ele>607</ele>
        <time>2019-08-17T08:16:38Z</time>
      </trkpt>
      <trkpt lat="44.37359" lon="5.90204">
        <ele>607</ele>
        <time>2019-08-17T08:16:39Z</time>
      </trkpt>
      <trkpt lat="44.37363" lon="5.90209">
        <ele>608</ele>
        <time>2019-08-17T08:16:40Z</time>
      </trkpt>
      <trkpt lat="44.37366" lon="5.90214">
        <ele>608</ele>
        <time>2019-08-17T08:16:41Z</time>
      </trkpt>
      <trkpt lat="44.3737" lon="5.90219">
        <ele>608</ele>
        <time>2019-08-17T08:16:42Z</time>
      </trkpt>
      <trkpt lat="44.37374" lon="5.90225">
        <ele>608</ele>
        <time>2019-08-17T08:16:43Z</time>
      </trkpt>
      <trkpt lat="44.37378" lon="5.9023">
        <ele>608</ele>
        <time>2019-08-17T08:16:44Z</time>
      </trkpt>
      <trkpt lat="44.37382" lon="5.90235">
        <ele>608</ele>
        <time>2019-08-17T08:16:45Z</time>
      </trkpt>
      <trkpt lat="44.37386" lon="5.9024">
        <ele>609</ele>
        <time>2019-08-17T08:16:46Z</time>
      </trkpt>
      <trkpt lat="44.37391" lon="5.90245">
        <ele>609</ele>
        <time>2019-08-17T08:16:47Z</time>
      </trkpt>
      <trkpt lat="44.37395" lon="5.9025">
        <ele>609</ele>
        <time>2019-08-17T08:16:48Z</time>
      </trkpt>
      <trkpt lat="44.37399" lon="5.90255">
        <ele>609</ele>
        <time>2019-08-17T08:16:49Z</time>
      </trkpt>
      <trkpt lat="44.37403" lon="5.90261">
        <ele>609</ele>
        <time>2019-08-17T08:16:50Z</time>
      </trkpt>
      <trkpt lat="44.37407" lon="5.90266">
        <ele>609</ele>
        <time>2019-08-17T08:16:51Z</time>
      </trkpt>
      <trkpt lat="44.3741" lon="5.90271">
        <ele>609</ele>
        <time>2019-08-17T08:16:52Z</time>
      </trkpt>
      <trkpt lat="44.37415" lon="5.90276">
        <ele>610</ele>
        <time>2019-08-17T08:16:53Z</time>
      </trkpt>
      <trkpt lat="44.37418" lon="5.90281">
        <ele>610</ele>
        <time>2019-08-17T08:16:54Z</time>
      </trkpt>
      <trkpt lat="44.37423" lon="5.90286">
        <ele>610</ele>
        <time>2019-08-17T08:16:55Z</time>
      </trkpt>
      <trkpt lat="44.37427" lon="5.90291">
        <ele>610</ele>
        <time>2019-08-17T08:16:56Z</time>
      </trkpt>
      <trkpt lat="44.37431" lon="5.90296">
        <ele>610</ele>
        <time>2019-08-17T08:16:57Z</time>
      </trkpt>
      <trkpt lat="44.37435" lon="5.90301">
        <ele>610</ele>
        <time>2019-08-17T08:16:58Z</time>
      </trkpt>
      <trkpt lat="44.37439" lon="5.90306">
        <ele>611</ele>
        <time>2019-08-17T08:16:59Z</time>
      </trkpt>
      <trkpt lat="44.37443" lon="5.90311">
        <ele>611</ele>
        <time>2019-08-17T08:17:00Z</time>
      </trkpt>
      <trkpt lat="44.37447" lon="5.90316">
        <ele>611</ele>
        <time>2019-08-17T08:17:01Z</time>
      </trkpt>
      <trkpt lat="44.37451" lon="5.90321">
        <ele>611</ele>
        <time>2019-08-17T08:17:02Z</time>
      </trkpt>
      <trkpt lat="44.37455" lon="5.90326">
        <ele>611</ele>
        <time>2019-08-17T08:17:03Z</time>
      </trkpt>
      <trkpt lat="44.37459" lon="5.90331">
        <ele>612</ele>
        <time>2019-08-17T08:17:04Z</time>
      </trkpt>
      <trkpt lat="44.37463" lon="5.90336">
        <ele>612</ele>
        <time>2019-08-17T08:17:05Z</time>
      </trkpt>
      <trkpt lat="44.37466" lon="5.90341">
        <ele>612</ele>
        <time>2019-08-17T08:17:06Z</time>
      </trkpt>
      <trkpt lat="44.3747" lon="5.90345">
        <ele>612</ele>
        <time>2019-08-17T08:17:07Z</time>
      </trkpt>
      <trkpt lat="44.37474" lon="5.9035">
        <ele>612</ele>
        <time>2019-08-17T08:17:08Z</time>
      </trkpt>
      <trkpt lat="44.37478" lon="5.90355">
        <ele>612</ele>
        <time>2019-08-17T08:17:09Z</time>
      </trkpt>
      <trkpt lat="44.37482" lon="5.9036">
        <ele>613</ele>
        <time>2019-08-17T08:17:10Z</time>
      </trkpt>
      <trkpt lat="44.37486" lon="5.90366">
        <ele>613</ele>
        <time>2019-08-17T08:17:11Z</time>
      </trkpt>
      <trkpt lat="44.37489" lon="5.90371">
        <ele>613</ele>
        <time>2019-08-17T08:17:12Z</time>
      </trkpt>
      <trkpt lat="44.37494" lon="5.90376">
        <ele>613</ele>
        <time>2019-08-17T08:17:13Z</time>
      </trkpt>
      <trkpt lat="44.37497" lon="5.90381">
        <ele>613</ele>
        <time>2019-08-17T08:17:14Z</time>
      </trkpt>
      <trkpt lat="44.37501" lon="5.90386">
        <ele>613</ele>
        <time>2019-08-17T08:17:15Z</time>
      </trkpt>
      <trkpt lat="44.37505" lon="5.90391">
        <ele>613</ele>
        <time>2019-08-17T08:17:16Z</time>
      </trkpt>
      <trkpt lat="44.37509" lon="5.90396">
        <ele>613</ele>
        <time>2019-08-17T08:17:17Z</time>
      </trkpt>
      <trkpt lat="44.37513" lon="5.90401">
        <ele>613</ele>
        <time>2019-08-17T08:17:18Z</time>
      </trkpt>
      <trkpt lat="44.37517" lon="5.90406">
        <ele>613</ele>
        <time>2019-08-17T08:17:19Z</time>
      </trkpt>
      <trkpt lat="44.37521" lon="5.90411">
        <ele>613</ele>
        <time>2019-08-17T08:17:20Z</time>
      </trkpt>
      <trkpt lat="44.37525" lon="5.90416">
        <ele>614</ele>
        <time>2019-08-17T08:17:21Z</time>
      </trkpt>
      <trkpt lat="44.37529" lon="5.9042">
        <ele>614</ele>
        <time>2019-08-17T08:17:22Z</time>
      </trkpt>
      <trkpt lat="44.37533" lon="5.90425">
        <ele>614</ele>
        <time>2019-08-17T08:17:23Z</time>
      </trkpt>
      <trkpt lat="44.37537" lon="5.9043">
        <ele>614</ele>
        <time>2019-08-17T08:17:24Z</time>
      </trkpt>
      <trkpt lat="44.37541" lon="5.90435">
        <ele>614</ele>
        <time>2019-08-17T08:17:25Z</time>
      </trkpt>
      <trkpt lat="44.37545" lon="5.90439">
        <ele>614</ele>
        <time>2019-08-17T08:17:26Z</time>
      </trkpt>
      <trkpt lat="44.37549" lon="5.90444">
        <ele>614</ele>
        <time>2019-08-17T08:17:27Z</time>
      </trkpt>
      <trkpt lat="44.37553" lon="5.90448">
        <ele>614</ele>
        <time>2019-08-17T08:17:28Z</time>
      </trkpt>
      <trkpt lat="44.37558" lon="5.90452">
        <ele>614</ele>
        <time>2019-08-17T08:17:29Z</time>
      </trkpt>
      <trkpt lat="44.37563" lon="5.90456">
        <ele>614</ele>
        <time>2019-08-17T08:17:30Z</time>
      </trkpt>
      <trkpt lat="44.37568" lon="5.9046">
        <ele>614</ele>
        <time>2019-08-17T08:17:31Z</time>
      </trkpt>
      <trkpt lat="44.37573" lon="5.90463">
        <ele>614</ele>
        <time>2019-08-17T08:17:32Z</time>
      </trkpt>
      <trkpt lat="44.37578" lon="5.90467">
        <ele>614</ele>
        <time>2019-08-17T08:17:33Z</time>
      </trkpt>
      <trkpt lat="44.37583" lon="5.90471">
        <ele>614</ele>
        <time>2019-08-17T08:17:34Z</time>
      </trkpt>
      <trkpt lat="44.37589" lon="5.90474">
        <ele>614</ele>
        <time>2019-08-17T08:17:35Z</time>
      </trkpt>
      <trkpt lat="44.37594" lon="5.90478">
        <ele>614</ele>
        <time>2019-08-17T08:17:36Z</time>
      </trkpt>
      <trkpt lat="44.376" lon="5.90482">
        <ele>614</ele>
        <time>2019-08-17T08:17:37Z</time>
      </trkpt>
      <trkpt lat="44.37605" lon="5.90485">
        <ele>614</ele>
        <time>2019-08-17T08:17:38Z</time>
      </trkpt>
      <trkpt lat="44.37611" lon="5.90489">
        <ele>614</ele>
        <time>2019-08-17T08:17:39Z</time>
      </trkpt>
      <trkpt lat="44.37616" lon="5.90492">
        <ele>614</ele>
        <time>2019-08-17T08:17:40Z</time>
      </trkpt>
      <trkpt lat="44.37622" lon="5.90496">
        <ele>614</ele>
        <time>2019-08-17T08:17:41Z</time>
      </trkpt>
      <trkpt lat="44.37628" lon="5.90499">
        <ele>614</ele>
        <time>2019-08-17T08:17:42Z</time>
      </trkpt>
      <trkpt lat="44.37633" lon="5.90503">
        <ele>614</ele>
        <time>2019-08-17T08:17:43Z</time>
      </trkpt>
      <trkpt lat="44.37639" lon="5.90507">
        <ele>614</ele>
        <time>2019-08-17T08:17:44Z</time>
      </trkpt>
      <trkpt lat="44.37644" lon="5.9051">
        <ele>614</ele>
        <time>2019-08-17T08:17:45Z</time>
      </trkpt>
      <trkpt lat="44.3765" lon="5.90514">
        <ele>614</ele>
        <time>2019-08-17T08:17:46Z</time>
      </trkpt>
      <trkpt lat="44.37655" lon="5.90518">
        <ele>614</ele>
        <time>2019-08-17T08:17:47Z</time>
      </trkpt>
      <trkpt lat="44.37661" lon="5.90521">
        <ele>614</ele>
        <time>2019-08-17T08:17:48Z</time>
      </trkpt>
      <trkpt lat="44.37666" lon="5.90525">
        <ele>614</ele>
        <time>2019-08-17T08:17:49Z</time>
      </trkpt>
      <trkpt lat="44.37672" lon="5.90529">
        <ele>614</ele>
        <time>2019-08-17T08:17:50Z</time>
      </trkpt>
      <trkpt lat="44.37677" lon="5.90533">
        <ele>614</ele>
        <time>2019-08-17T08:17:51Z</time>
      </trkpt>
      <trkpt lat="44.37682" lon="5.90537">
        <ele>614</ele>
        <time>2019-08-17T08:17:52Z</time>
      </trkpt>
      <trkpt lat="44.37688" lon="5.90542">
        <ele>614</ele>
        <time>2019-08-17T08:17:53Z</time>
      </trkpt>
      <trkpt lat="44.37693" lon="5.90547">
        <ele>614</ele>
        <time>2019-08-17T08:17:54Z</time>
      </trkpt>
      <trkpt lat="44.37698" lon="5.90552">
        <ele>614</ele>
        <time>2019-08-17T08:17:55Z</time>
      </trkpt>
      <trkpt lat="44.37703" lon="5.90558">
        <ele>614</ele>
        <time>2019-08-17T08:17:56Z</time>
      </trkpt>
      <trkpt lat="44.37707" lon="5.90564">
        <ele>614</ele>
        <time>2019-08-17T08:17:57Z</time>
      </trkpt>
      <trkpt lat="44.37712" lon="5.9057">
        <ele>614</ele>
        <time>2019-08-17T08:17:58Z</time>
      </trkpt>
      <trkpt lat="44.37716" lon="5.90576">
        <ele>614</ele>
        <time>2019-08-17T08:17:59Z</time>
      </trkpt>
      <trkpt lat="44.37721" lon="5.90582">
        <ele>614</ele>
        <time>2019-08-17T08:18:00Z</time>
      </trkpt>
      <trkpt lat="44.37725" lon="5.90589">
        <ele>614</ele>
        <time>2019-08-17T08:18:01Z</time>
      </trkpt>
      <trkpt lat="44.37729" lon="5.90595">
        <ele>614</ele>
        <time>2019-08-17T08:18:02Z</time>
      </trkpt>
      <trkpt lat="44.37733" lon="5.90601">
        <ele>614</ele>
        <time>2019-08-17T08:18:03Z</time>
      </trkpt>
      <trkpt lat="44.37737" lon="5.90608">
        <ele>614</ele>
        <time>2019-08-17T08:18:04Z</time>
      </trkpt>
      <trkpt lat="44.37741" lon="5.90615">
        <ele>614</ele>
        <time>2019-08-17T08:18:05Z</time>
      </trkpt>
      <trkpt lat="44.37745" lon="5.90621">
        <ele>614</ele>
        <time>2019-08-17T08:18:06Z</time>
      </trkpt>
      <trkpt lat="44.3775" lon="5.90627">
        <ele>614</ele>
        <time>2019-08-17T08:18:07Z</time>
      </trkpt>
      <trkpt lat="44.37755" lon="5.90633">
        <ele>614</ele>
        <time>2019-08-17T08:18:08Z</time>
      </trkpt>
      <trkpt lat="44.3776" lon="5.90639">
        <ele>614</ele>
        <time>2019-08-17T08:18:09Z</time>
      </trkpt>
      <trkpt lat="44.37765" lon="5.90645">
        <ele>614</ele>
        <time>2019-08-17T08:18:10Z</time>
      </trkpt>
      <trkpt lat="44.37771" lon="5.90651">
        <ele>614</ele>
        <time>2019-08-17T08:18:11Z</time>
      </trkpt>
      <trkpt lat="44.37777" lon="5.90656">
        <ele>614</ele>
        <time>2019-08-17T08:18:12Z</time>
      </trkpt>
      <trkpt lat="44.37783" lon="5.90661">
        <ele>614</ele>
        <time>2019-08-17T08:18:13Z</time>
      </trkpt>
      <trkpt lat="44.37788" lon="5.90667">
        <ele>614</ele>
        <time>2019-08-17T08:18:14Z</time>
      </trkpt>
      <trkpt lat="44.37794" lon="5.90672">
        <ele>614</ele>
        <time>2019-08-17T08:18:15Z</time>
      </trkpt>
      <trkpt lat="44.37799" lon="5.90677">
        <ele>614</ele>
        <time>2019-08-17T08:18:16Z</time>
      </trkpt>
      <trkpt lat="44.37805" lon="5.90683">
        <ele>614</ele>
        <time>2019-08-17T08:18:17Z</time>
      </trkpt>
      <trkpt lat="44.3781" lon="5.90688">
        <ele>614</ele>
        <time>2019-08-17T08:18:18Z</time>
      </trkpt>
      <trkpt lat="44.37816" lon="5.90693">
        <ele>614</ele>
        <time>2019-08-17T08:18:19Z</time>
      </trkpt>
      <trkpt lat="44.37822" lon="5.90698">
        <ele>614</ele>
        <time>2019-08-17T08:18:20Z</time>
      </trkpt>
      <trkpt lat="44.37827" lon="5.90703">
        <ele>614</ele>
        <time>2019-08-17T08:18:21Z</time>
      </trkpt>
      <trkpt lat="44.37833" lon="5.90708">
        <ele>614</ele>
        <time>2019-08-17T08:18:22Z</time>
      </trkpt>
      <trkpt lat="44.37838" lon="5.90713">
        <ele>614</ele>
        <time>2019-08-17T08:18:23Z</time>
      </trkpt>
      <trkpt lat="44.37844" lon="5.90718">
        <ele>614</ele>
        <time>2019-08-17T08:18:24Z</time>
      </trkpt>
      <trkpt lat="44.37849" lon="5.90723">
        <ele>614</ele>
        <time>2019-08-17T08:18:25Z</time>
      </trkpt>
      <trkpt lat="44.37855" lon="5.90729">
        <ele>614</ele>
        <time>2019-08-17T08:18:26Z</time>
      </trkpt>
      <trkpt lat="44.3786" lon="5.90734">
        <ele>614</ele>
        <time>2019-08-17T08:18:27Z</time>
      </trkpt>
      <trkpt lat="44.37866" lon="5.90739">
        <ele>614</ele>
        <time>2019-08-17T08:18:28Z</time>
      </trkpt>
      <trkpt lat="44.37871" lon="5.90744">
        <ele>614</ele>
        <time>2019-08-17T08:18:29Z</time>
      </trkpt>
      <trkpt lat="44.37877" lon="5.90749">
        <ele>614</ele>
        <time>2019-08-17T08:18:30Z</time>
      </trkpt>
      <trkpt lat="44.37882" lon="5.90755">
        <ele>614</ele>
        <time>2019-08-17T08:18:31Z</time>
      </trkpt>
      <trkpt lat="44.37888" lon="5.9076">
        <ele>614</ele>
        <time>2019-08-17T08:18:32Z</time>
      </trkpt>
      <trkpt lat="44.37893" lon="5.90765">
        <ele>614</ele>
        <time>2019-08-17T08:18:33Z</time>
      </trkpt>
      <trkpt lat="44.37899" lon="5.9077">
        <ele>614</ele>
        <time>2019-08-17T08:18:34Z</time>
      </trkpt>
      <trkpt lat="44.37904" lon="5.90775">
        <ele>614</ele>
        <time>2019-08-17T08:18:35Z</time>
      </trkpt>
      <trkpt lat="44.37909" lon="5.9078">
        <ele>614</ele>
        <time>2019-08-17T08:18:36Z</time>
      </trkpt>
      <trkpt lat="44.37914" lon="5.90786">
        <ele>614</ele>
        <time>2019-08-17T08:18:37Z</time>
      </trkpt>
      <trkpt lat="44.37919" lon="5.90793">
        <ele>614</ele>
        <time>2019-08-17T08:18:38Z</time>
      </trkpt>
      <trkpt lat="44.37924" lon="5.90799">
        <ele>614</ele>
        <time>2019-08-17T08:18:39Z</time>
      </trkpt>
      <trkpt lat="44.37929" lon="5.90805">
        <ele>614</ele>
        <time>2019-08-17T08:18:40Z</time>
      </trkpt>
      <trkpt lat="44.37934" lon="5.90812">
        <ele>614</ele>
        <time>2019-08-17T08:18:41Z</time>
      </trkpt>
      <trkpt lat="44.37939" lon="5.90818">
        <ele>614</ele>
        <time>2019-08-17T08:18:42Z</time>
      </trkpt>
      <trkpt lat="44.37943" lon="5.90826">
        <ele>614</ele>
        <time>2019-08-17T08:18:43Z</time>
      </trkpt>
      <trkpt lat="44.37946" lon="5.90834">
        <ele>614</ele>
        <time>2019-08-17T08:18:44Z</time>
      </trkpt>
      <trkpt lat="44.3795" lon="5.90843">
        <ele>614</ele>
        <time>2019-08-17T08:18:45Z</time>
      </trkpt>
      <trkpt lat="44.37953" lon="5.90851">
        <ele>614</ele>
        <time>2019-08-17T08:18:46Z</time>
      </trkpt>
      <trkpt lat="44.37957" lon="5.9086">
        <ele>614</ele>
        <time>2019-08-17T08:18:47Z</time>
      </trkpt>
      <trkpt lat="44.3796" lon="5.90869">
        <ele>614</ele>
        <time>2019-08-17T08:18:48Z</time>
      </trkpt>
      <trkpt lat="44.37964" lon="5.90877">
        <ele>614</ele>
        <time>2019-08-17T08:18:49Z</time>
      </trkpt>
      <trkpt lat="44.37968" lon="5.90886">
        <ele>614</ele>
        <time>2019-08-17T08:18:50Z</time>
      </trkpt>
      <trkpt lat="44.37971" lon="5.90895">
        <ele>614</ele>
        <time>2019-08-17T08:18:51Z</time>
      </trkpt>
      <trkpt lat="44.37975" lon="5.90904">
        <ele>614</ele>
        <time>2019-08-17T08:18:52Z</time>
      </trkpt>
      <trkpt lat="44.37978" lon="5.90913">
        <ele>614</ele>
        <time>2019-08-17T08:18:53Z</time>
      </trkpt>
      <trkpt lat="44.37982" lon="5.90921">
        <ele>614</ele>
        <time>2019-08-17T08:18:54Z</time>
      </trkpt>
      <trkpt lat="44.37986" lon="5.9093">
        <ele>614</ele>
        <time>2019-08-17T08:18:55Z</time>
      </trkpt>
      <trkpt lat="44.37989" lon="5.90939">
        <ele>614</ele>
        <time>2019-08-17T08:18:56Z</time>
      </trkpt>
      <trkpt lat="44.37993" lon="5.90947">
        <ele>614</ele>
        <time>2019-08-17T08:18:57Z</time>
      </trkpt>
      <trkpt lat="44.37997" lon="5.90956">
        <ele>614</ele>
        <time>2019-08-17T08:18:58Z</time>
      </trkpt>
      <trkpt lat="44.38001" lon="5.90964">
        <ele>614</ele>
        <time>2019-08-17T08:18:59Z</time>
      </trkpt>
      <trkpt lat="44.38005" lon="5.90973">
        <ele>614</ele>
        <time>2019-08-17T08:19:00Z</time>
      </trkpt>
      <trkpt lat="44.38008" lon="5.90981">
        <ele>614</ele>
        <time>2019-08-17T08:19:01Z</time>
      </trkpt>
      <trkpt lat="44.38012" lon="5.90989">
        <ele>614</ele>
        <time>2019-08-17T08:19:02Z</time>
      </trkpt>
      <trkpt lat="44.38015" lon="5.90997">
        <ele>614</ele>
        <time>2019-08-17T08:19:03Z</time>
      </trkpt>
      <trkpt lat="44.38018" lon="5.91005">
        <ele>614</ele>
        <time>2019-08-17T08:19:04Z</time>
      </trkpt>
      <trkpt lat="44.38022" lon="5.91013">
        <ele>614</ele>
        <time>2019-08-17T08:19:05Z</time>
      </trkpt>
      <trkpt lat="44.38025" lon="5.91021">
        <ele>614</ele>
        <time>2019-08-17T08:19:06Z</time>
      </trkpt>
      <trkpt lat="44.38028" lon="5.91029">
        <ele>614</ele>
        <time>2019-08-17T08:19:07Z</time>
      </trkpt>
      <trkpt lat="44.38031" lon="5.91037">
        <ele>614</ele>
        <time>2019-08-17T08:19:08Z</time>
      </trkpt>
      <trkpt lat="44.38035" lon="5.91045">
        <ele>614</ele>
        <time>2019-08-17T08:19:09Z</time>
      </trkpt>
      <trkpt lat="44.38038" lon="5.91053">
        <ele>614</ele>
        <time>2019-08-17T08:19:10Z</time>
      </trkpt>
      <trkpt lat="44.38041" lon="5.91061">
        <ele>614</ele>
        <time>2019-08-17T08:19:11Z</time>
      </trkpt>
      <trkpt lat="44.38044" lon="5.91069">
        <ele>614</ele>
        <time>2019-08-17T08:19:12Z</time>
      </trkpt>
      <trkpt lat="44.38047" lon="5.91076">
        <ele>614</ele>
        <time>2019-08-17T08:19:13Z</time>
      </trkpt>
      <trkpt lat="44.3805" lon="5.91084">
        <ele>614</ele>
        <time>2019-08-17T08:19:14Z</time>
      </trkpt>
      <trkpt lat="44.38053" lon="5.91091">
        <ele>614</ele>
        <time>2019-08-17T08:19:15Z</time>
      </trkpt>
      <trkpt lat="44.38056" lon="5.91099">
        <ele>614</ele>
        <time>2019-08-17T08:19:16Z</time>
      </trkpt>
      <trkpt lat="44.38059" lon="5.91107">
        <ele>614</ele>
        <time>2019-08-17T08:19:17Z</time>
      </trkpt>
      <trkpt lat="44.38063" lon="5.91115">
        <ele>614</ele>
        <time>2019-08-17T08:19:18Z</time>
      </trkpt>
      <trkpt lat="44.38066" lon="5.91123">
        <ele>614</ele>
        <time>2019-08-17T08:19:19Z</time>
      </trkpt>
      <trkpt lat="44.38069" lon="5.91131">
        <ele>614</ele>
        <time>2019-08-17T08:19:20Z</time>
      </trkpt>
      <trkpt lat="44.38072" lon="5.91139">
        <ele>614</ele>
        <time>2019-08-17T08:19:21Z</time>
      </trkpt>
      <trkpt lat="44.38076" lon="5.91147">
        <ele>614</ele>
        <time>2019-08-17T08:19:22Z</time>
      </trkpt>
      <trkpt lat="44.38079" lon="5.91155">
        <ele>614</ele>
        <time>2019-08-17T08:19:23Z</time>
      </trkpt>
      <trkpt lat="44.38082" lon="5.91164">
        <ele>614</ele>
        <time>2019-08-17T08:19:24Z</time>
      </trkpt>
      <trkpt lat="44.38085" lon="5.91172">
        <ele>614</ele>
        <time>2019-08-17T08:19:25Z</time>
      </trkpt>
      <trkpt lat="44.38089" lon="5.9118">
        <ele>614</ele>
        <time>2019-08-17T08:19:26Z</time>
      </trkpt>
      <trkpt lat="44.38092" lon="5.91189">
        <ele>614</ele>
        <time>2019-08-17T08:19:27Z</time>
      </trkpt>
      <trkpt lat="44.38095" lon="5.91197">
        <ele>614</ele>
        <time>2019-08-17T08:19:28Z</time>
      </trkpt>
      <trkpt lat="44.38099" lon="5.91205">
        <ele>614</ele>
        <time>2019-08-17T08:19:29Z</time>
      </trkpt>
      <trkpt lat="44.38102" lon="5.91213">
        <ele>614</ele>
        <time>2019-08-17T08:19:30Z</time>
      </trkpt>
      <trkpt lat="44.38105" lon="5.91222">
        <ele>614</ele>
        <time>2019-08-17T08:19:31Z</time>
      </trkpt>
      <trkpt lat="44.38108" lon="5.9123">
        <ele>614</ele>
        <time>2019-08-17T08:19:32Z</time>
      </trkpt>
      <trkpt lat="44.38111" lon="5.91238">
        <ele>614</ele>
        <time>2019-08-17T08:19:33Z</time>
      </trkpt>
      <trkpt lat="44.38115" lon="5.91246">
        <ele>614</ele>
        <time>2019-08-17T08:19:34Z</time>
      </trkpt>
      <trkpt lat="44.38118" lon="5.91254">
        <ele>614</ele>
        <time>2019-08-17T08:19:35Z</time>
      </trkpt>
      <trkpt lat="44.38121" lon="5.91262">
        <ele>614</ele>
        <time>2019-08-17T08:19:36Z</time>
      </trkpt>
      <trkpt lat="44.38124" lon="5.9127">
        <ele>614</ele>
        <time>2019-08-17T08:19:37Z</time>
      </trkpt>
      <trkpt lat="44.38128" lon="5.91278">
        <ele>614</ele>
        <time>2019-08-17T08:19:38Z</time>
      </trkpt>
      <trkpt lat="44.38131" lon="5.91286">
        <ele>614</ele>
        <time>2019-08-17T08:19:39Z</time>
      </trkpt>
      <trkpt lat="44.38134" lon="5.91294">
        <ele>614</ele>
        <time>2019-08-17T08:19:40Z</time>
      </trkpt>
      <trkpt lat="44.38137" lon="5.91302">
        <ele>614</ele>
        <time>2019-08-17T08:19:41Z</time>
      </trkpt>
      <trkpt lat="44.3814" lon="5.9131">
        <ele>613</ele>
        <time>2019-08-17T08:19:42Z</time>
      </trkpt>
      <trkpt lat="44.38144" lon="5.91318">
        <ele>613</ele>
        <time>2019-08-17T08:19:43Z</time>
      </trkpt>
      <trkpt lat="44.38147" lon="5.91326">
        <ele>613</ele>
        <time>2019-08-17T08:19:44Z</time>
      </trkpt>
      <trkpt lat="44.3815" lon="5.91334">
        <ele>613</ele>
        <time>2019-08-17T08:19:45Z</time>
      </trkpt>
      <trkpt lat="44.38153" lon="5.91342">
        <ele>613</ele>
        <time>2019-08-17T08:19:46Z</time>
      </trkpt>
      <trkpt lat="44.38157" lon="5.9135">
        <ele>613</ele>
        <time>2019-08-17T08:19:47Z</time>
      </trkpt>
      <trkpt lat="44.3816" lon="5.91358">
        <ele>613</ele>
        <time>2019-08-17T08:19:48Z</time>
      </trkpt>
      <trkpt lat="44.38163" lon="5.91365">
        <ele>613</ele>
        <time>2019-08-17T08:19:49Z</time>
      </trkpt>
      <trkpt lat="44.38167" lon="5.91373">
        <ele>613</ele>
        <time>2019-08-17T08:19:50Z</time>
      </trkpt>
      <trkpt lat="44.38171" lon="5.91381">
        <ele>613</ele>
        <time>2019-08-17T08:19:51Z</time>
      </trkpt>
      <trkpt lat="44.38175" lon="5.91388">
        <ele>613</ele>
        <time>2019-08-17T08:19:52Z</time>
      </trkpt>
      <trkpt lat="44.38179" lon="5.91395">
        <ele>613</ele>
        <time>2019-08-17T08:19:53Z</time>
      </trkpt>
      <trkpt lat="44.38183" lon="5.91403">
        <ele>613</ele>
        <time>2019-08-17T08:19:54Z</time>
      </trkpt>
      <trkpt lat="44.38187" lon="5.9141">
        <ele>613</ele>
        <time>2019-08-17T08:19:55Z</time>
      </trkpt>
      <trkpt lat="44.38191" lon="5.91418">
        <ele>613</ele>
        <time>2019-08-17T08:19:56Z</time>
      </trkpt>
      <trkpt lat="44.38195" lon="5.91426">
        <ele>612</ele>
        <time>2019-08-17T08:19:57Z</time>
      </trkpt>
      <trkpt lat="44.38199" lon="5.91433">
        <ele>612</ele>
        <time>2019-08-17T08:19:58Z</time>
      </trkpt>
      <trkpt lat="44.38203" lon="5.91441">
        <ele>612</ele>
        <time>2019-08-17T08:19:59Z</time>
      </trkpt>
      <trkpt lat="44.38208" lon="5.91448">
        <ele>612</ele>
        <time>2019-08-17T08:20:00Z</time>
      </trkpt>
      <trkpt lat="44.38211" lon="5.91456">
        <ele>612</ele>
        <time>2019-08-17T08:20:01Z</time>
      </trkpt>
      <trkpt lat="44.38216" lon="5.91464">
        <ele>612</ele>
        <time>2019-08-17T08:20:02Z</time>
      </trkpt>
      <trkpt lat="44.3822" lon="5.91471">
        <ele>612</ele>
        <time>2019-08-17T08:20:03Z</time>
      </trkpt>
      <trkpt lat="44.38224" lon="5.91479">
        <ele>612</ele>
        <time>2019-08-17T08:20:04Z</time>
      </trkpt>
      <trkpt lat="44.38228" lon="5.91486">
        <ele>612</ele>
        <time>2019-08-17T08:20:05Z</time>
      </trkpt>
      <trkpt lat="44.38232" lon="5.91494">
        <ele>612</ele>
        <time>2019-08-17T08:20:06Z</time>
      </trkpt>
      <trkpt lat="44.38236" lon="5.91501">
        <ele>612</ele>
        <time>2019-08-17T08:20:07Z</time>
      </trkpt>
      <trkpt lat="44.3824" lon="5.91509">
        <ele>612</ele>
        <time>2019-08-17T08:20:08Z</time>
      </trkpt>
      <trkpt lat="44.38244" lon="5.91516">
        <ele>612</ele>
        <time>2019-08-17T08:20:09Z</time>
      </trkpt>
      <trkpt lat="44.38248" lon="5.91523">
        <ele>612</ele>
        <time>2019-08-17T08:20:10Z</time>
      </trkpt>
      <trkpt lat="44.38252" lon="5.91531">
        <ele>612</ele>
        <time>2019-08-17T08:20:11Z</time>
      </trkpt>
      <trkpt lat="44.38255" lon="5.91538">
        <ele>612</ele>
        <time>2019-08-17T08:20:12Z</time>
      </trkpt>
      <trkpt lat="44.38259" lon="5.91545">
        <ele>612</ele>
        <time>2019-08-17T08:20:13Z</time>
      </trkpt>
      <trkpt lat="44.38263" lon="5.91552">
        <ele>612</ele>
        <time>2019-08-17T08:20:14Z</time>
      </trkpt>
      <trkpt lat="44.38267" lon="5.91559">
        <ele>612</ele>
        <time>2019-08-17T08:20:15Z</time>
      </trkpt>
      <trkpt lat="44.38271" lon="5.91566">
        <ele>612</ele>
        <time>2019-08-17T08:20:16Z</time>
      </trkpt>
      <trkpt lat="44.38274" lon="5.91573">
        <ele>612</ele>
        <time>2019-08-17T08:20:17Z</time>
      </trkpt>
      <trkpt lat="44.38278" lon="5.9158">
        <ele>612</ele>
        <time>2019-08-17T08:20:18Z</time>
      </trkpt>
      <trkpt lat="44.38282" lon="5.91587">
        <ele>612</ele>
        <time>2019-08-17T08:20:19Z</time>
      </trkpt>
      <trkpt lat="44.38286" lon="5.91595">
        <ele>612</ele>
        <time>2019-08-17T08:20:20Z</time>
      </trkpt>
      <trkpt lat="44.3829" lon="5.91602">
        <ele>612</ele>
        <time>2019-08-17T08:20:21Z</time>
      </trkpt>
      <trkpt lat="44.38294" lon="5.91609">
        <ele>612</ele>
        <time>2019-08-17T08:20:22Z</time>
      </trkpt>
      <trkpt lat="44.38298" lon="5.91616">
        <ele>612</ele>
        <time>2019-08-17T08:20:23Z</time>
      </trkpt>
      <trkpt lat="44.38301" lon="5.91623">
        <ele>612</ele>
        <time>2019-08-17T08:20:24Z</time>
      </trkpt>
      <trkpt lat="44.38305" lon="5.91631">
        <ele>612</ele>
        <time>2019-08-17T08:20:25Z</time>
      </trkpt>
      <trkpt lat="44.38309" lon="5.91638">
        <ele>612</ele>
        <time>2019-08-17T08:20:26Z</time>
      </trkpt>
      <trkpt lat="44.38313" lon="5.91646">
        <ele>612</ele>
        <time>2019-08-17T08:20:27Z</time>
      </trkpt>
      <trkpt lat="44.38316" lon="5.91653">
        <ele>612</ele>
        <time>2019-08-17T08:20:28Z</time>
      </trkpt>
      <trkpt lat="44.38321" lon="5.9166">
        <ele>612</ele>
        <time>2019-08-17T08:20:29Z</time>
      </trkpt>
      <trkpt lat="44.38324" lon="5.91667">
        <ele>612</ele>
        <time>2019-08-17T08:20:30Z</time>
      </trkpt>
      <trkpt lat="44.38329" lon="5.91675">
        <ele>612</ele>
        <time>2019-08-17T08:20:31Z</time>
      </trkpt>
      <trkpt lat="44.38332" lon="5.91682">
        <ele>612</ele>
        <time>2019-08-17T08:20:32Z</time>
      </trkpt>
      <trkpt lat="44.38337" lon="5.91689">
        <ele>612</ele>
        <time>2019-08-17T08:20:33Z</time>
      </trkpt>
      <trkpt lat="44.38341" lon="5.91697">
        <ele>612</ele>
        <time>2019-08-17T08:20:34Z</time>
      </trkpt>
      <trkpt lat="44.38345" lon="5.91705">
        <ele>612</ele>
        <time>2019-08-17T08:20:35Z</time>
      </trkpt>
      <trkpt lat="44.38349" lon="5.91712">
        <ele>612</ele>
        <time>2019-08-17T08:20:36Z</time>
      </trkpt>
      <trkpt lat="44.38353" lon="5.9172">
        <ele>612</ele>
        <time>2019-08-17T08:20:37Z</time>
      </trkpt>
      <trkpt lat="44.38357" lon="5.91727">
        <ele>612</ele>
        <time>2019-08-17T08:20:38Z</time>
      </trkpt>
      <trkpt lat="44.38361" lon="5.91735">
        <ele>612</ele>
        <time>2019-08-17T08:20:39Z</time>
      </trkpt>
      <trkpt lat="44.38365" lon="5.91742">
        <ele>612</ele>
        <time>2019-08-17T08:20:40Z</time>
      </trkpt>
      <trkpt lat="44.38369" lon="5.91749">
        <ele>612</ele>
        <time>2019-08-17T08:20:41Z</time>
      </trkpt>
      <trkpt lat="44.38373" lon="5.91757">
        <ele>611</ele>
        <time>2019-08-17T08:20:42Z</time>
      </trkpt>
      <trkpt lat="44.38377" lon="5.91765">
        <ele>611</ele>
        <time>2019-08-17T08:20:43Z</time>
      </trkpt>
      <trkpt lat="44.38381" lon="5.91773">
        <ele>611</ele>
        <time>2019-08-17T08:20:44Z</time>
      </trkpt>
      <trkpt lat="44.38385" lon="5.9178">
        <ele>611</ele>
        <time>2019-08-17T08:20:45Z</time>
      </trkpt>
      <trkpt lat="44.38389" lon="5.91788">
        <ele>611</ele>
        <time>2019-08-17T08:20:46Z</time>
      </trkpt>
      <trkpt lat="44.38393" lon="5.91795">
        <ele>611</ele>
        <time>2019-08-17T08:20:47Z</time>
      </trkpt>
      <trkpt lat="44.38397" lon="5.91804">
        <ele>611</ele>
        <time>2019-08-17T08:20:48Z</time>
      </trkpt>
      <trkpt lat="44.38401" lon="5.91811">
        <ele>611</ele>
        <time>2019-08-17T08:20:49Z</time>
      </trkpt>
      <trkpt lat="44.38406" lon="5.91819">
        <ele>611</ele>
        <time>2019-08-17T08:20:50Z</time>
      </trkpt>
      <trkpt lat="44.3841" lon="5.91827">
        <ele>611</ele>
        <time>2019-08-17T08:20:51Z</time>
      </trkpt>
      <trkpt lat="44.38414" lon="5.91834">
        <ele>611</ele>
        <time>2019-08-17T08:20:52Z</time>
      </trkpt>
      <trkpt lat="44.38419" lon="5.91843">
        <ele>611</ele>
        <time>2019-08-17T08:20:53Z</time>
      </trkpt>
      <trkpt lat="44.38423" lon="5.91851">
        <ele>611</ele>
        <time>2019-08-17T08:20:54Z</time>
      </trkpt>
      <trkpt lat="44.38427" lon="5.91859">
        <ele>611</ele>
        <time>2019-08-17T08:20:55Z</time>
      </trkpt>
      <trkpt lat="44.38432" lon="5.91867">
        <ele>611</ele>
        <time>2019-08-17T08:20:56Z</time>
      </trkpt>
      <trkpt lat="44.38436" lon="5.91876">
        <ele>611</ele>
        <time>2019-08-17T08:20:57Z</time>
      </trkpt>
      <trkpt lat="44.38441" lon="5.91884">
        <ele>610</ele>
        <time>2019-08-17T08:20:58Z</time>
      </trkpt>
      <trkpt lat="44.38446" lon="5.91893">
        <ele>610</ele>
        <time>2019-08-17T08:20:59Z</time>
      </trkpt>
      <trkpt lat="44.3845" lon="5.91901">
        <ele>610</ele>
        <time>2019-08-17T08:21:00Z</time>
      </trkpt>
      <trkpt lat="44.38455" lon="5.9191">
        <ele>610</ele>
        <time>2019-08-17T08:21:01Z</time>
      </trkpt>
      <trkpt lat="44.38459" lon="5.91919">
        <ele>610</ele>
        <time>2019-08-17T08:21:02Z</time>
      </trkpt>
      <trkpt lat="44.38464" lon="5.91928">
        <ele>609</ele>
        <time>2019-08-17T08:21:03Z</time>
      </trkpt>
      <trkpt lat="44.38469" lon="5.91936">
        <ele>609</ele>
        <time>2019-08-17T08:21:04Z</time>
      </trkpt>
      <trkpt lat="44.38474" lon="5.91945">
        <ele>609</ele>
        <time>2019-08-17T08:21:05Z</time>
      </trkpt>
      <trkpt lat="44.38478" lon="5.91954">
        <ele>609</ele>
        <time>2019-08-17T08:21:06Z</time>
      </trkpt>
      <trkpt lat="44.38483" lon="5.91963">
        <ele>609</ele>
        <time>2019-08-17T08:21:07Z</time>
      </trkpt>
      <trkpt lat="44.38488" lon="5.91971">
        <ele>608</ele>
        <time>2019-08-17T08:21:08Z</time>
      </trkpt>
      <trkpt lat="44.38492" lon="5.9198">
        <ele>608</ele>
        <time>2019-08-17T08:21:09Z</time>
      </trkpt>
      <trkpt lat="44.38497" lon="5.91989">
        <ele>608</ele>
        <time>2019-08-17T08:21:10Z</time>
      </trkpt>
      <trkpt lat="44.38502" lon="5.91998">
        <ele>608</ele>
        <time>2019-08-17T08:21:11Z</time>
      </trkpt>
      <trkpt lat="44.38507" lon="5.92007">
        <ele>608</ele>
        <time>2019-08-17T08:21:12Z</time>
      </trkpt>
      <trkpt lat="44.38512" lon="5.92016">
        <ele>607</ele>
        <time>2019-08-17T08:21:13Z</time>
      </trkpt>
      <trkpt lat="44.38517" lon="5.92025">
        <ele>607</ele>
        <time>2019-08-17T08:21:14Z</time>
      </trkpt>
      <trkpt lat="44.38522" lon="5.92034">
        <ele>607</ele>
        <time>2019-08-17T08:21:15Z</time>
      </trkpt>
      <trkpt lat="44.38526" lon="5.92043">
        <ele>607</ele>
        <time>2019-08-17T08:21:16Z</time>
      </trkpt>
      <trkpt lat="44.38531" lon="5.92053">
        <ele>607</ele>
        <time>2019-08-17T08:21:17Z</time>
      </trkpt>
      <trkpt lat="44.38536" lon="5.92062">
        <ele>606</ele>
        <time>2019-08-17T08:21:18Z</time>
      </trkpt>
      <trkpt lat="44.38541" lon="5.9207">
        <ele>606</ele>
        <time>2019-08-17T08:21:19Z</time>
      </trkpt>
      <trkpt lat="44.38545" lon="5.92079">
        <ele>606</ele>
        <time>2019-08-17T08:21:20Z</time>
      </trkpt>
      <trkpt lat="44.3855" lon="5.92088">
        <ele>606</ele>
        <time>2019-08-17T08:21:21Z</time>
      </trkpt>
      <trkpt lat="44.38554" lon="5.92097">
        <ele>606</ele>
        <time>2019-08-17T08:21:22Z</time>
      </trkpt>
      <trkpt lat="44.38559" lon="5.92106">
        <ele>606</ele>
        <time>2019-08-17T08:21:23Z</time>
      </trkpt>
      <trkpt lat="44.38562" lon="5.92115">
        <ele>606</ele>
        <time>2019-08-17T08:21:24Z</time>
      </trkpt>
      <trkpt lat="44.38566" lon="5.92125">
        <ele>606</ele>
        <time>2019-08-17T08:21:25Z</time>
      </trkpt>
      <trkpt lat="44.38569" lon="5.92134">
        <ele>606</ele>
        <time>2019-08-17T08:21:26Z</time>
      </trkpt>
      <trkpt lat="44.38572" lon="5.92144">
        <ele>606</ele>
        <time>2019-08-17T08:21:27Z</time>
      </trkpt>
      <trkpt lat="44.38575" lon="5.92154">
        <ele>606</ele>
        <time>2019-08-17T08:21:28Z</time>
      </trkpt>
      <trkpt lat="44.38578" lon="5.92163">
        <ele>606</ele>
        <time>2019-08-17T08:21:29Z</time>
      </trkpt>
      <trkpt lat="44.38581" lon="5.92172">
        <ele>606</ele>
        <time>2019-08-17T08:21:30Z</time>
      </trkpt>
      <trkpt lat="44.38583" lon="5.92181">
        <ele>606</ele>
        <time>2019-08-17T08:21:31Z</time>
      </trkpt>
      <trkpt lat="44.38586" lon="5.9219">
        <ele>606</ele>
        <time>2019-08-17T08:21:32Z</time>
      </trkpt>
      <trkpt lat="44.38588" lon="5.92199">
        <ele>606</ele>
        <time>2019-08-17T08:21:33Z</time>
      </trkpt>
      <trkpt lat="44.38591" lon="5.92208">
        <ele>606</ele>
        <time>2019-08-17T08:21:34Z</time>
      </trkpt>
      <trkpt lat="44.38594" lon="5.92216">
        <ele>606</ele>
        <time>2019-08-17T08:21:35Z</time>
      </trkpt>
      <trkpt lat="44.38596" lon="5.92225">
        <ele>606</ele>
        <time>2019-08-17T08:21:36Z</time>
      </trkpt>
      <trkpt lat="44.38599" lon="5.92233">
        <ele>606</ele>
        <time>2019-08-17T08:21:37Z</time>
      </trkpt>
      <trkpt lat="44.38601" lon="5.92241">
        <ele>606</ele>
        <time>2019-08-17T08:21:38Z</time>
      </trkpt>
      <trkpt lat="44.38604" lon="5.92249">
        <ele>606</ele>
        <time>2019-08-17T08:21:39Z</time>
      </trkpt>
      <trkpt lat="44.38606" lon="5.92257">
        <ele>606</ele>
        <time>2019-08-17T08:21:40Z</time>
      </trkpt>
      <trkpt lat="44.38609" lon="5.92265">
        <ele>606</ele>
        <time>2019-08-17T08:21:41Z</time>
      </trkpt>
      <trkpt lat="44.38612" lon="5.92272">
        <ele>606</ele>
        <time>2019-08-17T08:21:42Z</time>
      </trkpt>
      <trkpt lat="44.38615" lon="5.92279">
        <ele>606</ele>
        <time>2019-08-17T08:21:43Z</time>
      </trkpt>
      <trkpt lat="44.38618" lon="5.92287">
        <ele>606</ele>
        <time>2019-08-17T08:21:44Z</time>
      </trkpt>
      <trkpt lat="44.38621" lon="5.92294">
        <ele>606</ele>
        <time>2019-08-17T08:21:45Z</time>
      </trkpt>
      <trkpt lat="44.38623" lon="5.92301">
        <ele>606</ele>
        <time>2019-08-17T08:21:46Z</time>
      </trkpt>
      <trkpt lat="44.38626" lon="5.92308">
        <ele>606</ele>
        <time>2019-08-17T08:21:47Z</time>
      </trkpt>
      <trkpt lat="44.38629" lon="5.92315">
        <ele>606</ele>
        <time>2019-08-17T08:21:48Z</time>
      </trkpt>
      <trkpt lat="44.38632" lon="5.92322">
        <ele>606</ele>
        <time>2019-08-17T08:21:49Z</time>
      </trkpt>
      <trkpt lat="44.38635" lon="5.9233">
        <ele>606</ele>
        <time>2019-08-17T08:21:50Z</time>
      </trkpt>
      <trkpt lat="44.38638" lon="5.92337">
        <ele>606</ele>
        <time>2019-08-17T08:21:51Z</time>
      </trkpt>
      <trkpt lat="44.3864" lon="5.92345">
        <ele>606</ele>
        <time>2019-08-17T08:21:52Z</time>
      </trkpt>
      <trkpt lat="44.38643" lon="5.92353">
        <ele>606</ele>
        <time>2019-08-17T08:21:53Z</time>
      </trkpt>
      <trkpt lat="44.38645" lon="5.92361">
        <ele>606</ele>
        <time>2019-08-17T08:21:54Z</time>
      </trkpt>
      <trkpt lat="44.38647" lon="5.92369">
        <ele>606</ele>
        <time>2019-08-17T08:21:55Z</time>
      </trkpt>
      <trkpt lat="44.38649" lon="5.92377">
        <ele>606</ele>
        <time>2019-08-17T08:21:56Z</time>
      </trkpt>
      <trkpt lat="44.38651" lon="5.92385">
        <ele>606</ele>
        <time>2019-08-17T08:21:57Z</time>
      </trkpt>
      <trkpt lat="44.38652" lon="5.92394">
        <ele>606</ele>
        <time>2019-08-17T08:21:58Z</time>
      </trkpt>
      <trkpt lat="44.38654" lon="5.92402">
        <ele>606</ele>
        <time>2019-08-17T08:21:59Z</time>
      </trkpt>
      <trkpt lat="44.38655" lon="5.92411">
        <ele>606</ele>
        <time>2019-08-17T08:22:00Z</time>
      </trkpt>
      <trkpt lat="44.38655" lon="5.9242">
        <ele>606</ele>
        <time>2019-08-17T08:22:01Z</time>
      </trkpt>
      <trkpt lat="44.38656" lon="5.92428">
        <ele>606</ele>
        <time>2019-08-17T08:22:02Z</time>
      </trkpt>
      <trkpt lat="44.38657" lon="5.92438">
        <ele>606</ele>
        <time>2019-08-17T08:22:03Z</time>
      </trkpt>
      <trkpt lat="44.38657" lon="5.92447">
        <ele>606</ele>
        <time>2019-08-17T08:22:04Z</time>
      </trkpt>
      <trkpt lat="44.38658" lon="5.92456">
        <ele>606</ele>
        <time>2019-08-17T08:22:05Z</time>
      </trkpt>
      <trkpt lat="44.38658" lon="5.92465">
        <ele>606</ele>
        <time>2019-08-17T08:22:06Z</time>
      </trkpt>
      <trkpt lat="44.38658" lon="5.92474">
        <ele>606</ele>
        <time>2019-08-17T08:22:07Z</time>
      </trkpt>
      <trkpt lat="44.38659" lon="5.92484">
        <ele>606</ele>
        <time>2019-08-17T08:22:08Z</time>
      </trkpt>
      <trkpt lat="44.38659" lon="5.92493">
        <ele>606</ele>
        <time>2019-08-17T08:22:09Z</time>
      </trkpt>
      <trkpt lat="44.38659" lon="5.92502">
        <ele>606</ele>
        <time>2019-08-17T08:22:10Z</time>
      </trkpt>
      <trkpt lat="44.3866" lon="5.92512">
        <ele>606</ele>
        <time>2019-08-17T08:22:11Z</time>
      </trkpt>
      <trkpt lat="44.3866" lon="5.92521">
        <ele>606</ele>
        <time>2019-08-17T08:22:12Z</time>
      </trkpt>
      <trkpt lat="44.3866" lon="5.92531">
        <ele>606</ele>
        <time>2019-08-17T08:22:13Z</time>
      </trkpt>
      <trkpt lat="44.38661" lon="5.92541">
        <ele>606</ele>
        <time>2019-08-17T08:22:14Z</time>
      </trkpt>
      <trkpt lat="44.38662" lon="5.9255">
        <ele>606</ele>
        <time>2019-08-17T08:22:15Z</time>
      </trkpt>
      <trkpt lat="44.38664" lon="5.9256">
        <ele>606</ele>
        <time>2019-08-17T08:22:16Z</time>
      </trkpt>
      <trkpt lat="44.38666" lon="5.92571">
        <ele>606</ele>
        <time>2019-08-17T08:22:17Z</time>
      </trkpt>
      <trkpt lat="44.38668" lon="5.92582">
        <ele>606</ele>
        <time>2019-08-17T08:22:18Z</time>
      </trkpt>
      <trkpt lat="44.3867" lon="5.92592">
        <ele>606</ele>
        <time>2019-08-17T08:22:19Z</time>
      </trkpt>
      <trkpt lat="44.38673" lon="5.92603">
        <ele>606</ele>
        <time>2019-08-17T08:22:20Z</time>
      </trkpt>
      <trkpt lat="44.38675" lon="5.92615">
        <ele>606</ele>
        <time>2019-08-17T08:22:21Z</time>
      </trkpt>
      <trkpt lat="44.38678" lon="5.92626">
        <ele>606</ele>
        <time>2019-08-17T08:22:22Z</time>
      </trkpt>
      <trkpt lat="44.38681" lon="5.92637">
        <ele>606</ele>
        <time>2019-08-17T08:22:23Z</time>
      </trkpt>
      <trkpt lat="44.38684" lon="5.92649">
        <ele>605</ele>
        <time>2019-08-17T08:22:24Z</time>
      </trkpt>
      <trkpt lat="44.38686" lon="5.92661">
        <ele>605</ele>
        <time>2019-08-17T08:22:25Z</time>
      </trkpt>
      <trkpt lat="44.38689" lon="5.92673">
        <ele>605</ele>
        <time>2019-08-17T08:22:26Z</time>
      </trkpt>
      <trkpt lat="44.38692" lon="5.92685">
        <ele>604</ele>
        <time>2019-08-17T08:22:27Z</time>
      </trkpt>
      <trkpt lat="44.38694" lon="5.92697">
        <ele>604</ele>
        <time>2019-08-17T08:22:28Z</time>
      </trkpt>
      <trkpt lat="44.38695" lon="5.9271">
        <ele>603</ele>
        <time>2019-08-17T08:22:29Z</time>
      </trkpt>
      <trkpt lat="44.38695" lon="5.92722">
        <ele>603</ele>
        <time>2019-08-17T08:22:30Z</time>
      </trkpt>
      <trkpt lat="44.38694" lon="5.92735">
        <ele>603</ele>
        <time>2019-08-17T08:22:31Z</time>
      </trkpt>
      <trkpt lat="44.38693" lon="5.92747">
        <ele>602</ele>
        <time>2019-08-17T08:22:32Z</time>
      </trkpt>
      <trkpt lat="44.38691" lon="5.92759">
        <ele>602</ele>
        <time>2019-08-17T08:22:33Z</time>
      </trkpt>
      <trkpt lat="44.38689" lon="5.92771">
        <ele>602</ele>
        <time>2019-08-17T08:22:34Z</time>
      </trkpt>
      <trkpt lat="44.38687" lon="5.92782">
        <ele>602</ele>
        <time>2019-08-17T08:22:35Z</time>
      </trkpt>
      <trkpt lat="44.38685" lon="5.92794">
        <ele>602</ele>
        <time>2019-08-17T08:22:36Z</time>
      </trkpt>
      <trkpt lat="44.38683" lon="5.92805">
        <ele>601</ele>
        <time>2019-08-17T08:22:37Z</time>
      </trkpt>
      <trkpt lat="44.38682" lon="5.92816">
        <ele>601</ele>
        <time>2019-08-17T08:22:38Z</time>
      </trkpt>
      <trkpt lat="44.38682" lon="5.92827">
        <ele>601</ele>
        <time>2019-08-17T08:22:39Z</time>
      </trkpt>
      <trkpt lat="44.38682" lon="5.92838">
        <ele>601</ele>
        <time>2019-08-17T08:22:40Z</time>
      </trkpt>
      <trkpt lat="44.38682" lon="5.92849">
        <ele>601</ele>
        <time>2019-08-17T08:22:41Z</time>
      </trkpt>
      <trkpt lat="44.38682" lon="5.9286">
        <ele>601</ele>
        <time>2019-08-17T08:22:42Z</time>
      </trkpt>
      <trkpt lat="44.38682" lon="5.92871">
        <ele>601</ele>
        <time>2019-08-17T08:22:43Z</time>
      </trkpt>
      <trkpt lat="44.38682" lon="5.92881">
        <ele>601</ele>
        <time>2019-08-17T08:22:44Z</time>
      </trkpt>
      <trkpt lat="44.38681" lon="5.92892">
        <ele>601</ele>
        <time>2019-08-17T08:22:45Z</time>
      </trkpt>
      <trkpt lat="44.3868" lon="5.92903">
        <ele>601</ele>
        <time>2019-08-17T08:22:46Z</time>
      </trkpt>
      <trkpt lat="44.38678" lon="5.92914">
        <ele>601</ele>
        <time>2019-08-17T08:22:47Z</time>
      </trkpt>
      <trkpt lat="44.38677" lon="5.92925">
        <ele>600</ele>
        <time>2019-08-17T08:22:48Z</time>
      </trkpt>
      <trkpt lat="44.38675" lon="5.92935">
        <ele>600</ele>
        <time>2019-08-17T08:22:49Z</time>
      </trkpt>
      <trkpt lat="44.38672" lon="5.92946">
        <ele>600</ele>
        <time>2019-08-17T08:22:50Z</time>
      </trkpt>
      <trkpt lat="44.3867" lon="5.92956">
        <ele>600</ele>
        <time>2019-08-17T08:22:51Z</time>
      </trkpt>
      <trkpt lat="44.38667" lon="5.92967">
        <ele>600</ele>
        <time>2019-08-17T08:22:52Z</time>
      </trkpt>
      <trkpt lat="44.38665" lon="5.92978">
        <ele>600</ele>
        <time>2019-08-17T08:22:53Z</time>
      </trkpt>
      <trkpt lat="44.38664" lon="5.92988">
        <ele>600</ele>
        <time>2019-08-17T08:22:54Z</time>
      </trkpt>
      <trkpt lat="44.38663" lon="5.93">
        <ele>600</ele>
        <time>2019-08-17T08:22:55Z</time>
      </trkpt>
      <trkpt lat="44.38663" lon="5.93011">
        <ele>600</ele>
        <time>2019-08-17T08:22:56Z</time>
      </trkpt>
      <trkpt lat="44.38664" lon="5.93021">
        <ele>600</ele>
        <time>2019-08-17T08:22:57Z</time>
      </trkpt>
      <trkpt lat="44.38665" lon="5.93032">
        <ele>599</ele>
        <time>2019-08-17T08:22:58Z</time>
      </trkpt>
      <trkpt lat="44.38667" lon="5.93043">
        <ele>599</ele>
        <time>2019-08-17T08:22:59Z</time>
      </trkpt>
      <trkpt lat="44.38668" lon="5.93053">
        <ele>599</ele>
        <time>2019-08-17T08:23:00Z</time>
      </trkpt>
      <trkpt lat="44.3867" lon="5.93063">
        <ele>599</ele>
        <time>2019-08-17T08:23:01Z</time>
      </trkpt>
      <trkpt lat="44.38672" lon="5.93074">
        <ele>599</ele>
        <time>2019-08-17T08:23:02Z</time>
      </trkpt>
      <trkpt lat="44.38674" lon="5.93084">
        <ele>599</ele>
        <time>2019-08-17T08:23:03Z</time>
      </trkpt>
      <trkpt lat="44.38676" lon="5.93094">
        <ele>599</ele>
        <time>2019-08-17T08:23:04Z</time>
      </trkpt>
      <trkpt lat="44.38678" lon="5.93104">
        <ele>598</ele>
        <time>2019-08-17T08:23:05Z</time>
      </trkpt>
      <trkpt lat="44.38679" lon="5.93115">
        <ele>598</ele>
        <time>2019-08-17T08:23:06Z</time>
      </trkpt>
      <trkpt lat="44.38681" lon="5.93125">
        <ele>598</ele>
        <time>2019-08-17T08:23:07Z</time>
      </trkpt>
      <trkpt lat="44.38683" lon="5.93136">
        <ele>598</ele>
        <time>2019-08-17T08:23:08Z</time>
      </trkpt>
      <trkpt lat="44.38685" lon="5.93146">
        <ele>598</ele>
        <time>2019-08-17T08:23:09Z</time>
      </trkpt>
      <trkpt lat="44.38687" lon="5.93157">
        <ele>598</ele>
        <time>2019-08-17T08:23:10Z</time>
      </trkpt>
      <trkpt lat="44.38689" lon="5.93167">
        <ele>598</ele>
        <time>2019-08-17T08:23:11Z</time>
      </trkpt>
      <trkpt lat="44.38691" lon="5.93178">
        <ele>597</ele>
        <time>2019-08-17T08:23:12Z</time>
      </trkpt>
      <trkpt lat="44.38694" lon="5.93188">
        <ele>597</ele>
        <time>2019-08-17T08:23:13Z</time>
      </trkpt>
      <trkpt lat="44.38697" lon="5.93198">
        <ele>597</ele>
        <time>2019-08-17T08:23:14Z</time>
      </trkpt>
      <trkpt lat="44.38699" lon="5.93208">
        <ele>597</ele>
        <time>2019-08-17T08:23:15Z</time>
      </trkpt>
      <trkpt lat="44.38702" lon="5.93218">
        <ele>597</ele>
        <time>2019-08-17T08:23:16Z</time>
      </trkpt>
      <trkpt lat="44.38705" lon="5.93228">
        <ele>597</ele>
        <time>2019-08-17T08:23:17Z</time>
      </trkpt>
      <trkpt lat="44.38707" lon="5.93239">
        <ele>596</ele>
        <time>2019-08-17T08:23:18Z</time>
      </trkpt>
      <trkpt lat="44.3871" lon="5.93249">
        <ele>596</ele>
        <time>2019-08-17T08:23:19Z</time>
      </trkpt>
      <trkpt lat="44.38712" lon="5.9326">
        <ele>596</ele>
        <time>2019-08-17T08:23:20Z</time>
      </trkpt>
      <trkpt lat="44.38715" lon="5.93271">
        <ele>596</ele>
        <time>2019-08-17T08:23:21Z</time>
      </trkpt>
      <trkpt lat="44.38717" lon="5.93282">
        <ele>595</ele>
        <time>2019-08-17T08:23:22Z</time>
      </trkpt>
      <trkpt lat="44.38719" lon="5.93293">
        <ele>595</ele>
        <time>2019-08-17T08:23:23Z</time>
      </trkpt>
      <trkpt lat="44.3872" lon="5.93304">
        <ele>595</ele>
        <time>2019-08-17T08:23:24Z</time>
      </trkpt>
      <trkpt lat="44.38721" lon="5.93316">
        <ele>595</ele>
        <time>2019-08-17T08:23:25Z</time>
      </trkpt>
      <trkpt lat="44.38722" lon="5.93328">
        <ele>594</ele>
        <time>2019-08-17T08:23:26Z</time>
      </trkpt>
      <trkpt lat="44.38722" lon="5.93339">
        <ele>594</ele>
        <time>2019-08-17T08:23:27Z</time>
      </trkpt>
      <trkpt lat="44.38721" lon="5.93351">
        <ele>594</ele>
        <time>2019-08-17T08:23:28Z</time>
      </trkpt>
      <trkpt lat="44.38721" lon="5.93362">
        <ele>594</ele>
        <time>2019-08-17T08:23:29Z</time>
      </trkpt>
      <trkpt lat="44.3872" lon="5.93373">
        <ele>593</ele>
        <time>2019-08-17T08:23:30Z</time>
      </trkpt>
      <trkpt lat="44.3872" lon="5.93385">
        <ele>593</ele>
        <time>2019-08-17T08:23:31Z</time>
      </trkpt>
      <trkpt lat="44.38719" lon="5.93397">
        <ele>593</ele>
        <time>2019-08-17T08:23:32Z</time>
      </trkpt>
      <trkpt lat="44.38718" lon="5.93408">
        <ele>592</ele>
        <time>2019-08-17T08:23:33Z</time>
      </trkpt>
      <trkpt lat="44.38718" lon="5.9342">
        <ele>592</ele>
        <time>2019-08-17T08:23:34Z</time>
      </trkpt>
      <trkpt lat="44.38717" lon="5.93432">
        <ele>591</ele>
        <time>2019-08-17T08:23:35Z</time>
      </trkpt>
      <trkpt lat="44.38716" lon="5.93445">
        <ele>591</ele>
        <time>2019-08-17T08:23:36Z</time>
      </trkpt>
      <trkpt lat="44.38715" lon="5.93457">
        <ele>590</ele>
        <time>2019-08-17T08:23:37Z</time>
      </trkpt>
      <trkpt lat="44.38714" lon="5.9347">
        <ele>590</ele>
        <time>2019-08-17T08:23:38Z</time>
      </trkpt>
      <trkpt lat="44.38713" lon="5.93483">
        <ele>589</ele>
        <time>2019-08-17T08:23:39Z</time>
      </trkpt>
      <trkpt lat="44.38712" lon="5.93496">
        <ele>589</ele>
        <time>2019-08-17T08:23:40Z</time>
      </trkpt>
      <trkpt lat="44.38712" lon="5.93509">
        <ele>588</ele>
        <time>2019-08-17T08:23:41Z</time>
      </trkpt>
      <trkpt lat="44.38711" lon="5.93522">
        <ele>588</ele>
        <time>2019-08-17T08:23:42Z</time>
      </trkpt>
      <trkpt lat="44.3871" lon="5.93536">
        <ele>587</ele>
        <time>2019-08-17T08:23:43Z</time>
      </trkpt>
      <trkpt lat="44.38709" lon="5.93548">
        <ele>587</ele>
        <time>2019-08-17T08:23:44Z</time>
      </trkpt>
      <trkpt lat="44.38709" lon="5.9356">
        <ele>587</ele>
        <time>2019-08-17T08:23:45Z</time>
      </trkpt>
      <trkpt lat="44.38708" lon="5.93571">
        <ele>586</ele>
        <time>2019-08-17T08:23:46Z</time>
      </trkpt>
      <trkpt lat="44.38708" lon="5.93579">
        <ele>586</ele>
        <time>2019-08-17T08:23:47Z</time>
      </trkpt>
      <trkpt lat="44.38707" lon="5.93585">
        <ele>586</ele>
        <time>2019-08-17T08:23:48Z</time>
      </trkpt>
      <trkpt lat="44.38704" lon="5.93589">
        <ele>585</ele>
        <time>2019-08-17T08:23:49Z</time>
      </trkpt>
      <trkpt lat="44.387" lon="5.93589">
        <ele>585</ele>
        <time>2019-08-17T08:23:50Z</time>
      </trkpt>
      <trkpt lat="44.38695" lon="5.93587">
        <ele>584</ele>
        <time>2019-08-17T08:23:51Z</time>
      </trkpt>
      <trkpt lat="44.38691" lon="5.93584">
        <ele>584</ele>
        <time>2019-08-17T08:23:52Z</time>
      </trkpt>
      <trkpt lat="44.38686" lon="5.9358">
        <ele>584</ele>
        <time>2019-08-17T08:23:53Z</time>
      </trkpt>
      <trkpt lat="44.38681" lon="5.93577">
        <ele>583</ele>
        <time>2019-08-17T08:23:54Z</time>
      </trkpt>
      <trkpt lat="44.38675" lon="5.93573">
        <ele>583</ele>
        <time>2019-08-17T08:23:55Z</time>
      </trkpt>
      <trkpt lat="44.3867" lon="5.93569">
        <ele>583</ele>
        <time>2019-08-17T08:23:56Z</time>
      </trkpt>
      <trkpt lat="44.38664" lon="5.93565">
        <ele>583</ele>
        <time>2019-08-17T08:23:57Z</time>
      </trkpt>
      <trkpt lat="44.38658" lon="5.9356">
        <ele>582</ele>
        <time>2019-08-17T08:23:58Z</time>
      </trkpt>
      <trkpt lat="44.38652" lon="5.93556">
        <ele>582</ele>
        <time>2019-08-17T08:23:59Z</time>
      </trkpt>
      <trkpt lat="44.38646" lon="5.93551">
        <ele>582</ele>
        <time>2019-08-17T08:24:00Z</time>
      </trkpt>
      <trkpt lat="44.3864" lon="5.93547">
        <ele>581</ele>
        <time>2019-08-17T08:24:01Z</time>
      </trkpt>
      <trkpt lat="44.38633" lon="5.93542">
        <ele>581</ele>
        <time>2019-08-17T08:24:02Z</time>
      </trkpt>
      <trkpt lat="44.38626" lon="5.93538">
        <ele>580</ele>
        <time>2019-08-17T08:24:02Z</time>
      </trkpt>
      <trkpt lat="44.3862" lon="5.93533">
        <ele>580</ele>
        <time>2019-08-17T08:24:04Z</time>
      </trkpt>
      <trkpt lat="44.38613" lon="5.93528">
        <ele>579</ele>
        <time>2019-08-17T08:24:05Z</time>
      </trkpt>
      <trkpt lat="44.38607" lon="5.93523">
        <ele>579</ele>
        <time>2019-08-17T08:24:06Z</time>
      </trkpt>
      <trkpt lat="44.386" lon="5.93518">
        <ele>579</ele>
        <time>2019-08-17T08:24:07Z</time>
      </trkpt>
      <trkpt lat="44.38593" lon="5.93513">
        <ele>579</ele>
        <time>2019-08-17T08:24:08Z</time>
      </trkpt>
      <trkpt lat="44.38587" lon="5.93508">
        <ele>578</ele>
        <time>2019-08-17T08:24:09Z</time>
      </trkpt>
      <trkpt lat="44.3858" lon="5.93502">
        <ele>578</ele>
        <time>2019-08-17T08:24:10Z</time>
      </trkpt>
      <trkpt lat="44.38573" lon="5.93497">
        <ele>577</ele>
        <time>2019-08-17T08:24:11Z</time>
      </trkpt>
      <trkpt lat="44.38566" lon="5.93492">
        <ele>577</ele>
        <time>2019-08-17T08:24:12Z</time>
      </trkpt>
      <trkpt lat="44.38559" lon="5.93486">
        <ele>577</ele>
        <time>2019-08-17T08:24:13Z</time>
      </trkpt>
      <trkpt lat="44.38552" lon="5.93481">
        <ele>576</ele>
        <time>2019-08-17T08:24:14Z</time>
      </trkpt>
      <trkpt lat="44.38546" lon="5.93475">
        <ele>576</ele>
        <time>2019-08-17T08:24:15Z</time>
      </trkpt>
      <trkpt lat="44.38539" lon="5.9347">
        <ele>576</ele>
        <time>2019-08-17T08:24:16Z</time>
      </trkpt>
      <trkpt lat="44.38532" lon="5.93465">
        <ele>576</ele>
        <time>2019-08-17T08:24:17Z</time>
      </trkpt>
      <trkpt lat="44.38525" lon="5.9346">
        <ele>576</ele>
        <time>2019-08-17T08:24:18Z</time>
      </trkpt>
      <trkpt lat="44.38518" lon="5.93455">
        <ele>576</ele>
        <time>2019-08-17T08:24:19Z</time>
      </trkpt>
      <trkpt lat="44.38511" lon="5.9345">
        <ele>576</ele>
        <time>2019-08-17T08:24:20Z</time>
      </trkpt>
      <trkpt lat="44.38504" lon="5.93445">
        <ele>576</ele>
        <time>2019-08-17T08:24:21Z</time>
      </trkpt>
      <trkpt lat="44.38497" lon="5.93441">
        <ele>576</ele>
        <time>2019-08-17T08:24:22Z</time>
      </trkpt>
      <trkpt lat="44.38491" lon="5.93436">
        <ele>576</ele>
        <time>2019-08-17T08:24:23Z</time>
      </trkpt>
      <trkpt lat="44.38484" lon="5.93431">
        <ele>576</ele>
        <time>2019-08-17T08:24:24Z</time>
      </trkpt>
      <trkpt lat="44.38477" lon="5.93426">
        <ele>575</ele>
        <time>2019-08-17T08:24:25Z</time>
      </trkpt>
      <trkpt lat="44.38471" lon="5.93422">
        <ele>575</ele>
        <time>2019-08-17T08:24:26Z</time>
      </trkpt>
      <trkpt lat="44.38464" lon="5.93417">
        <ele>575</ele>
        <time>2019-08-17T08:24:27Z</time>
      </trkpt>
      <trkpt lat="44.38458" lon="5.93412">
        <ele>575</ele>
        <time>2019-08-17T08:24:28Z</time>
      </trkpt>
      <trkpt lat="44.38451" lon="5.93408">
        <ele>575</ele>
        <time>2019-08-17T08:24:29Z</time>
      </trkpt>
      <trkpt lat="44.38445" lon="5.93403">
        <ele>575</ele>
        <time>2019-08-17T08:24:30Z</time>
      </trkpt>
      <trkpt lat="44.38439" lon="5.93399">
        <ele>575</ele>
        <time>2019-08-17T08:24:30Z</time>
      </trkpt>
      <trkpt lat="44.38433" lon="5.93394">
        <ele>575</ele>
        <time>2019-08-17T08:24:32Z</time>
      </trkpt>
      <trkpt lat="44.38427" lon="5.9339">
        <ele>574</ele>
        <time>2019-08-17T08:24:33Z</time>
      </trkpt>
      <trkpt lat="44.3842" lon="5.93385">
        <ele>574</ele>
        <time>2019-08-17T08:24:34Z</time>
      </trkpt>
      <trkpt lat="44.38414" lon="5.93381">
        <ele>574</ele>
        <time>2019-08-17T08:24:35Z</time>
      </trkpt>
      <trkpt lat="44.38408" lon="5.93376">
        <ele>574</ele>
        <time>2019-08-17T08:24:36Z</time>
      </trkpt>
      <trkpt lat="44.38402" lon="5.93372">
        <ele>574</ele>
        <time>2019-08-17T08:24:37Z</time>
      </trkpt>
      <trkpt lat="44.38395" lon="5.93367">
        <ele>574</ele>
        <time>2019-08-17T08:24:38Z</time>
      </trkpt>
      <trkpt lat="44.3839" lon="5.93363">
        <ele>574</ele>
        <time>2019-08-17T08:24:39Z</time>
      </trkpt>
      <trkpt lat="44.38383" lon="5.93358">
        <ele>574</ele>
        <time>2019-08-17T08:24:40Z</time>
      </trkpt>
      <trkpt lat="44.38377" lon="5.93354">
        <ele>574</ele>
        <time>2019-08-17T08:24:41Z</time>
      </trkpt>
      <trkpt lat="44.38372" lon="5.9335">
        <ele>574</ele>
        <time>2019-08-17T08:24:42Z</time>
      </trkpt>
      <trkpt lat="44.38366" lon="5.93346">
        <ele>574</ele>
        <time>2019-08-17T08:24:43Z</time>
      </trkpt>
      <trkpt lat="44.3836" lon="5.93342">
        <ele>574</ele>
        <time>2019-08-17T08:24:44Z</time>
      </trkpt>
      <trkpt lat="44.38354" lon="5.93338">
        <ele>574</ele>
        <time>2019-08-17T08:24:45Z</time>
      </trkpt>
      <trkpt lat="44.38348" lon="5.93334">
        <ele>574</ele>
        <time>2019-08-17T08:24:46Z</time>
      </trkpt>
      <trkpt lat="44.38342" lon="5.93331">
        <ele>574</ele>
        <time>2019-08-17T08:24:47Z</time>
      </trkpt>
      <trkpt lat="44.38336" lon="5.93327">
        <ele>574</ele>
        <time>2019-08-17T08:24:48Z</time>
      </trkpt>
      <trkpt lat="44.3833" lon="5.93323">
        <ele>574</ele>
        <time>2019-08-17T08:24:49Z</time>
      </trkpt>
      <trkpt lat="44.38325" lon="5.9332">
        <ele>574</ele>
        <time>2019-08-17T08:24:50Z</time>
      </trkpt>
      <trkpt lat="44.38319" lon="5.93316">
        <ele>574</ele>
        <time>2019-08-17T08:24:51Z</time>
      </trkpt>
      <trkpt lat="44.38314" lon="5.93312">
        <ele>574</ele>
        <time>2019-08-17T08:24:52Z</time>
      </trkpt>
      <trkpt lat="44.38308" lon="5.93309">
        <ele>574</ele>
        <time>2019-08-17T08:24:53Z</time>
      </trkpt>
      <trkpt lat="44.38303" lon="5.93305">
        <ele>574</ele>
        <time>2019-08-17T08:24:54Z</time>
      </trkpt>
      <trkpt lat="44.38298" lon="5.93301">
        <ele>574</ele>
        <time>2019-08-17T08:24:55Z</time>
      </trkpt>
      <trkpt lat="44.38292" lon="5.93297">
        <ele>574</ele>
        <time>2019-08-17T08:24:56Z</time>
      </trkpt>
      <trkpt lat="44.38287" lon="5.93294">
        <ele>574</ele>
        <time>2019-08-17T08:24:57Z</time>
      </trkpt>
      <trkpt lat="44.38282" lon="5.9329">
        <ele>574</ele>
        <time>2019-08-17T08:24:58Z</time>
      </trkpt>
      <trkpt lat="44.38277" lon="5.93287">
        <ele>574</ele>
        <time>2019-08-17T08:24:59Z</time>
      </trkpt>
      <trkpt lat="44.38271" lon="5.93283">
        <ele>574</ele>
        <time>2019-08-17T08:25:00Z</time>
      </trkpt>
      <trkpt lat="44.38266" lon="5.9328">
        <ele>574</ele>
        <time>2019-08-17T08:25:01Z</time>
      </trkpt>
      <trkpt lat="44.38261" lon="5.93276">
        <ele>574</ele>
        <time>2019-08-17T08:25:02Z</time>
      </trkpt>
      <trkpt lat="44.38255" lon="5.93273">
        <ele>574</ele>
        <time>2019-08-17T08:25:02Z</time>
      </trkpt>
      <trkpt lat="44.3825" lon="5.93269">
        <ele>574</ele>
        <time>2019-08-17T08:25:04Z</time>
      </trkpt>
      <trkpt lat="44.38245" lon="5.93266">
        <ele>574</ele>
        <time>2019-08-17T08:25:05Z</time>
      </trkpt>
      <trkpt lat="44.3824" lon="5.93263">
        <ele>574</ele>
        <time>2019-08-17T08:25:06Z</time>
      </trkpt>
      <trkpt lat="44.38235" lon="5.9326">
        <ele>574</ele>
        <time>2019-08-17T08:25:06Z</time>
      </trkpt>
      <trkpt lat="44.3823" lon="5.93256">
        <ele>574</ele>
        <time>2019-08-17T08:25:08Z</time>
      </trkpt>
      <trkpt lat="44.38225" lon="5.93253">
        <ele>574</ele>
        <time>2019-08-17T08:25:09Z</time>
      </trkpt>
      <trkpt lat="44.3822" lon="5.93249">
        <ele>574</ele>
        <time>2019-08-17T08:25:10Z</time>
      </trkpt>
      <trkpt lat="44.38215" lon="5.93246">
        <ele>574</ele>
        <time>2019-08-17T08:25:11Z</time>
      </trkpt>
      <trkpt lat="44.3821" lon="5.93242">
        <ele>574</ele>
        <time>2019-08-17T08:25:12Z</time>
      </trkpt>
      <trkpt lat="44.38205" lon="5.93239">
        <ele>574</ele>
        <time>2019-08-17T08:25:13Z</time>
      </trkpt>
      <trkpt lat="44.382" lon="5.93235">
        <ele>574</ele>
        <time>2019-08-17T08:25:13Z</time>
      </trkpt>
      <trkpt lat="44.38196" lon="5.93232">
        <ele>574</ele>
        <time>2019-08-17T08:25:14Z</time>
      </trkpt>
      <trkpt lat="44.38191" lon="5.93228">
        <ele>574</ele>
        <time>2019-08-17T08:25:16Z</time>
      </trkpt>
      <trkpt lat="44.38186" lon="5.93225">
        <ele>574</ele>
        <time>2019-08-17T08:25:17Z</time>
      </trkpt>
      <trkpt lat="44.3818" lon="5.93222">
        <ele>574</ele>
        <time>2019-08-17T08:25:18Z</time>
      </trkpt>
      <trkpt lat="44.38175" lon="5.93218">
        <ele>574</ele>
        <time>2019-08-17T08:25:19Z</time>
      </trkpt>
      <trkpt lat="44.3817" lon="5.93215">
        <ele>574</ele>
        <time>2019-08-17T08:25:20Z</time>
      </trkpt>
      <trkpt lat="44.38165" lon="5.93211">
        <ele>574</ele>
        <time>2019-08-17T08:25:21Z</time>
      </trkpt>
      <trkpt lat="44.38159" lon="5.93208">
        <ele>574</ele>
        <time>2019-08-17T08:25:22Z</time>
      </trkpt>
      <trkpt lat="44.38154" lon="5.93204">
        <ele>574</ele>
        <time>2019-08-17T08:25:23Z</time>
      </trkpt>
      <trkpt lat="44.38148" lon="5.932">
        <ele>574</ele>
        <time>2019-08-17T08:25:23Z</time>
      </trkpt>
      <trkpt lat="44.38143" lon="5.93196">
        <ele>574</ele>
        <time>2019-08-17T08:25:25Z</time>
      </trkpt>
      <trkpt lat="44.38138" lon="5.93192">
        <ele>574</ele>
        <time>2019-08-17T08:25:26Z</time>
      </trkpt>
      <trkpt lat="44.38132" lon="5.93188">
        <ele>574</ele>
        <time>2019-08-17T08:25:26Z</time>
      </trkpt>
      <trkpt lat="44.38127" lon="5.93185">
        <ele>574</ele>
        <time>2019-08-17T08:25:28Z</time>
      </trkpt>
      <trkpt lat="44.38121" lon="5.93181">
        <ele>574</ele>
        <time>2019-08-17T08:25:29Z</time>
      </trkpt>
      <trkpt lat="44.38115" lon="5.93177">
        <ele>574</ele>
        <time>2019-08-17T08:25:30Z</time>
      </trkpt>
      <trkpt lat="44.3811" lon="5.93173">
        <ele>574</ele>
        <time>2019-08-17T08:25:30Z</time>
      </trkpt>
      <trkpt lat="44.38104" lon="5.93169">
        <ele>574</ele>
        <time>2019-08-17T08:25:32Z</time>
      </trkpt>
      <trkpt lat="44.38098" lon="5.93165">
        <ele>574</ele>
        <time>2019-08-17T08:25:33Z</time>
      </trkpt>
      <trkpt lat="44.38092" lon="5.93161">
        <ele>574</ele>
        <time>2019-08-17T08:25:34Z</time>
      </trkpt>
      <trkpt lat="44.38087" lon="5.93157">
        <ele>574</ele>
        <time>2019-08-17T08:25:35Z</time>
      </trkpt>
      <trkpt lat="44.38081" lon="5.93153">
        <ele>574</ele>
        <time>2019-08-17T08:25:36Z</time>
      </trkpt>
      <trkpt lat="44.38076" lon="5.93149">
        <ele>574</ele>
        <time>2019-08-17T08:25:37Z</time>
      </trkpt>
      <trkpt lat="44.3807" lon="5.93146">
        <ele>574</ele>
        <time>2019-08-17T08:25:38Z</time>
      </trkpt>
      <trkpt lat="44.38064" lon="5.93142">
        <ele>574</ele>
        <time>2019-08-17T08:25:39Z</time>
      </trkpt>
      <trkpt lat="44.38058" lon="5.93138">
        <ele>574</ele>
        <time>2019-08-17T08:25:40Z</time>
      </trkpt>
      <trkpt lat="44.38053" lon="5.93133">
        <ele>574</ele>
        <time>2019-08-17T08:25:41Z</time>
      </trkpt>
      <trkpt lat="44.38047" lon="5.93129">
        <ele>574</ele>
        <time>2019-08-17T08:25:42Z</time>
      </trkpt>
      <trkpt lat="44.38041" lon="5.93125">
        <ele>574</ele>
        <time>2019-08-17T08:25:42Z</time>
      </trkpt>
      <trkpt lat="44.38036" lon="5.93121">
        <ele>574</ele>
        <time>2019-08-17T08:25:44Z</time>
      </trkpt>
      <trkpt lat="44.3803" lon="5.93117">
        <ele>574</ele>
        <time>2019-08-17T08:25:45Z</time>
      </trkpt>
      <trkpt lat="44.38024" lon="5.93113">
        <ele>574</ele>
        <time>2019-08-17T08:25:46Z</time>
      </trkpt>
      <trkpt lat="44.38018" lon="5.93109">
        <ele>574</ele>
        <time>2019-08-17T08:25:47Z</time>
      </trkpt>
      <trkpt lat="44.38013" lon="5.93105">
        <ele>574</ele>
        <time>2019-08-17T08:25:48Z</time>
      </trkpt>
      <trkpt lat="44.38007" lon="5.931">
        <ele>574</ele>
        <time>2019-08-17T08:25:48Z</time>
      </trkpt>
      <trkpt lat="44.38001" lon="5.93096">
        <ele>574</ele>
        <time>2019-08-17T08:25:50Z</time>
      </trkpt>
      <trkpt lat="44.37995" lon="5.93092">
        <ele>574</ele>
        <time>2019-08-17T08:25:50Z</time>
      </trkpt>
      <trkpt lat="44.37989" lon="5.93088">
        <ele>574</ele>
        <time>2019-08-17T08:25:52Z</time>
      </trkpt>
      <trkpt lat="44.37984" lon="5.93084">
        <ele>574</ele>
        <time>2019-08-17T08:25:53Z</time>
      </trkpt>
      <trkpt lat="44.37978" lon="5.9308">
        <ele>574</ele>
        <time>2019-08-17T08:25:54Z</time>
      </trkpt>
      <trkpt lat="44.37972" lon="5.93076">
        <ele>574</ele>
        <time>2019-08-17T08:25:54Z</time>
      </trkpt>
      <trkpt lat="44.37967" lon="5.93071">
        <ele>574</ele>
        <time>2019-08-17T08:25:56Z</time>
      </trkpt>
      <trkpt lat="44.37961" lon="5.93067">
        <ele>574</ele>
        <time>2019-08-17T08:25:56Z</time>
      </trkpt>
      <trkpt lat="44.37955" lon="5.93063">
        <ele>574</ele>
        <time>2019-08-17T08:25:57Z</time>
      </trkpt>
      <trkpt lat="44.37949" lon="5.93059">
        <ele>574</ele>
        <time>2019-08-17T08:25:59Z</time>
      </trkpt>
      <trkpt lat="44.37943" lon="5.93055">
        <ele>574</ele>
        <time>2019-08-17T08:26:00Z</time>
      </trkpt>
      <trkpt lat="44.37938" lon="5.93051">
        <ele>574</ele>
        <time>2019-08-17T08:26:00Z</time>
      </trkpt>
      <trkpt lat="44.37932" lon="5.93047">
        <ele>574</ele>
        <time>2019-08-17T08:26:02Z</time>
      </trkpt>
      <trkpt lat="44.37926" lon="5.93043">
        <ele>574</ele>
        <time>2019-08-17T08:26:02Z</time>
      </trkpt>
      <trkpt lat="44.3792" lon="5.93039">
        <ele>574</ele>
        <time>2019-08-17T08:26:04Z</time>
      </trkpt>
      <trkpt lat="44.37915" lon="5.93035">
        <ele>574</ele>
        <time>2019-08-17T08:26:05Z</time>
      </trkpt>
      <trkpt lat="44.37909" lon="5.93031">
        <ele>574</ele>
        <time>2019-08-17T08:26:05Z</time>
      </trkpt>
      <trkpt lat="44.37903" lon="5.93027">
        <ele>574</ele>
        <time>2019-08-17T08:26:06Z</time>
      </trkpt>
      <trkpt lat="44.37897" lon="5.93023">
        <ele>574</ele>
        <time>2019-08-17T08:26:08Z</time>
      </trkpt>
      <trkpt lat="44.37891" lon="5.93019">
        <ele>574</ele>
        <time>2019-08-17T08:26:08Z</time>
      </trkpt>
      <trkpt lat="44.37885" lon="5.93014">
        <ele>574</ele>
        <time>2019-08-17T08:26:10Z</time>
      </trkpt>
      <trkpt lat="44.37879" lon="5.93011">
        <ele>574</ele>
        <time>2019-08-17T08:26:10Z</time>
      </trkpt>
      <trkpt lat="44.37873" lon="5.93006">
        <ele>574</ele>
        <time>2019-08-17T08:26:12Z</time>
      </trkpt>
      <trkpt lat="44.37867" lon="5.93002">
        <ele>574</ele>
        <time>2019-08-17T08:26:13Z</time>
      </trkpt>
      <trkpt lat="44.37861" lon="5.92998">
        <ele>574</ele>
        <time>2019-08-17T08:26:14Z</time>
      </trkpt>
      <trkpt lat="44.37855" lon="5.92993">
        <ele>574</ele>
        <time>2019-08-17T08:26:15Z</time>
      </trkpt>
      <trkpt lat="44.37849" lon="5.92989">
        <ele>574</ele>
        <time>2019-08-17T08:26:16Z</time>
      </trkpt>
      <trkpt lat="44.37843" lon="5.92985">
        <ele>574</ele>
        <time>2019-08-17T08:26:17Z</time>
      </trkpt>
      <trkpt lat="44.37838" lon="5.92981">
        <ele>574</ele>
        <time>2019-08-17T08:26:18Z</time>
      </trkpt>
      <trkpt lat="44.37832" lon="5.92977">
        <ele>574</ele>
        <time>2019-08-17T08:26:18Z</time>
      </trkpt>
      <trkpt lat="44.37826" lon="5.92973">
        <ele>574</ele>
        <time>2019-08-17T08:26:20Z</time>
      </trkpt>
      <trkpt lat="44.3782" lon="5.92969">
        <ele>574</ele>
        <time>2019-08-17T08:26:20Z</time>
      </trkpt>
      <trkpt lat="44.37814" lon="5.92965">
        <ele>574</ele>
        <time>2019-08-17T08:26:21Z</time>
      </trkpt>
      <trkpt lat="44.37809" lon="5.92961">
        <ele>574</ele>
        <time>2019-08-17T08:26:23Z</time>
      </trkpt>
      <trkpt lat="44.37803" lon="5.92957">
        <ele>574</ele>
        <time>2019-08-17T08:26:23Z</time>
      </trkpt>
      <trkpt lat="44.37797" lon="5.92953">
        <ele>574</ele>
        <time>2019-08-17T08:26:25Z</time>
      </trkpt>
      <trkpt lat="44.37791" lon="5.92949">
        <ele>574</ele>
        <time>2019-08-17T08:26:25Z</time>
      </trkpt>
      <trkpt lat="44.37786" lon="5.92946">
        <ele>574</ele>
        <time>2019-08-17T08:26:27Z</time>
      </trkpt>
      <trkpt lat="44.3778" lon="5.92942">
        <ele>574</ele>
        <time>2019-08-17T08:26:27Z</time>
      </trkpt>
      <trkpt lat="44.37775" lon="5.92938">
        <ele>574</ele>
        <time>2019-08-17T08:26:29Z</time>
      </trkpt>
      <trkpt lat="44.37769" lon="5.92934">
        <ele>574</ele>
        <time>2019-08-17T08:26:29Z</time>
      </trkpt>
      <trkpt lat="44.37763" lon="5.92931">
        <ele>574</ele>
        <time>2019-08-17T08:26:31Z</time>
      </trkpt>
      <trkpt lat="44.37758" lon="5.92927">
        <ele>574</ele>
        <time>2019-08-17T08:26:31Z</time>
      </trkpt>
      <trkpt lat="44.37752" lon="5.92923">
        <ele>574</ele>
        <time>2019-08-17T08:26:33Z</time>
      </trkpt>
      <trkpt lat="44.37746" lon="5.92919">
        <ele>574</ele>
        <time>2019-08-17T08:26:33Z</time>
      </trkpt>
      <trkpt lat="44.3774" lon="5.92916">
        <ele>574</ele>
        <time>2019-08-17T08:26:34Z</time>
      </trkpt>
      <trkpt lat="44.37735" lon="5.92912">
        <ele>574</ele>
        <time>2019-08-17T08:26:36Z</time>
      </trkpt>
      <trkpt lat="44.37729" lon="5.92907">
        <ele>574</ele>
        <time>2019-08-17T08:26:36Z</time>
      </trkpt>
      <trkpt lat="44.37724" lon="5.92904">
        <ele>574</ele>
        <time>2019-08-17T08:26:37Z</time>
      </trkpt>
      <trkpt lat="44.37718" lon="5.92899">
        <ele>574</ele>
        <time>2019-08-17T08:26:38Z</time>
      </trkpt>
      <trkpt lat="44.37712" lon="5.92895">
        <ele>574</ele>
        <time>2019-08-17T08:26:39Z</time>
      </trkpt>
      <trkpt lat="44.37707" lon="5.92891">
        <ele>574</ele>
        <time>2019-08-17T08:26:41Z</time>
      </trkpt>
      <trkpt lat="44.37701" lon="5.92887">
        <ele>574</ele>
        <time>2019-08-17T08:26:41Z</time>
      </trkpt>
      <trkpt lat="44.37696" lon="5.92883">
        <ele>574</ele>
        <time>2019-08-17T08:26:42Z</time>
      </trkpt>
      <trkpt lat="44.3769" lon="5.9288">
        <ele>574</ele>
        <time>2019-08-17T08:26:43Z</time>
      </trkpt>
      <trkpt lat="44.37685" lon="5.92876">
        <ele>574</ele>
        <time>2019-08-17T08:26:44Z</time>
      </trkpt>
      <trkpt lat="44.37679" lon="5.92872">
        <ele>574</ele>
        <time>2019-08-17T08:26:45Z</time>
      </trkpt>
      <trkpt lat="44.37673" lon="5.92869">
        <ele>574</ele>
        <time>2019-08-17T08:26:47Z</time>
      </trkpt>
      <trkpt lat="44.37668" lon="5.92865">
        <ele>574</ele>
        <time>2019-08-17T08:26:47Z</time>
      </trkpt>
      <trkpt lat="44.37663" lon="5.92861">
        <ele>574</ele>
        <time>2019-08-17T08:26:48Z</time>
      </trkpt>
      <trkpt lat="44.37657" lon="5.92857">
        <ele>574</ele>
        <time>2019-08-17T08:26:50Z</time>
      </trkpt>
      <trkpt lat="44.37651" lon="5.92853">
        <ele>574</ele>
        <time>2019-08-17T08:26:50Z</time>
      </trkpt>
      <trkpt lat="44.37646" lon="5.92849">
        <ele>574</ele>
        <time>2019-08-17T08:26:52Z</time>
      </trkpt>
      <trkpt lat="44.3764" lon="5.92845">
        <ele>574</ele>
        <time>2019-08-17T08:26:52Z</time>
      </trkpt>
      <trkpt lat="44.37635" lon="5.92841">
        <ele>574</ele>
        <time>2019-08-17T08:26:53Z</time>
      </trkpt>
      <trkpt lat="44.37629" lon="5.92837">
        <ele>574</ele>
        <time>2019-08-17T08:26:54Z</time>
      </trkpt>
      <trkpt lat="44.37623" lon="5.92834">
        <ele>574</ele>
        <time>2019-08-17T08:26:55Z</time>
      </trkpt>
      <trkpt lat="44.37617" lon="5.92831">
        <ele>574</ele>
        <time>2019-08-17T08:26:57Z</time>
      </trkpt>
      <trkpt lat="44.37612" lon="5.92827">
        <ele>574</ele>
        <time>2019-08-17T08:26:57Z</time>
      </trkpt>
      <trkpt lat="44.37606" lon="5.92823">
        <ele>574</ele>
        <time>2019-08-17T08:26:58Z</time>
      </trkpt>
      <trkpt lat="44.376" lon="5.92819">
        <ele>574</ele>
        <time>2019-08-17T08:26:59Z</time>
      </trkpt>
      <trkpt lat="44.37594" lon="5.92815">
        <ele>574</ele>
        <time>2019-08-17T08:27:00Z</time>
      </trkpt>
      <trkpt lat="44.37589" lon="5.92811">
        <ele>574</ele>
        <time>2019-08-17T08:27:02Z</time>
      </trkpt>
      <trkpt lat="44.37583" lon="5.92807">
        <ele>574</ele>
        <time>2019-08-17T08:27:02Z</time>
      </trkpt>
      <trkpt lat="44.37577" lon="5.92803">
        <ele>574</ele>
        <time>2019-08-17T08:27:04Z</time>
      </trkpt>
      <trkpt lat="44.37571" lon="5.928">
        <ele>574</ele>
        <time>2019-08-17T08:27:05Z</time>
      </trkpt>
      <trkpt lat="44.37566" lon="5.92796">
        <ele>574</ele>
        <time>2019-08-17T08:27:05Z</time>
      </trkpt>
      <trkpt lat="44.3756" lon="5.92792">
        <ele>574</ele>
        <time>2019-08-17T08:27:07Z</time>
      </trkpt>
      <trkpt lat="44.37555" lon="5.92788">
        <ele>574</ele>
        <time>2019-08-17T08:27:07Z</time>
      </trkpt>
      <trkpt lat="44.37549" lon="5.92785">
        <ele>574</ele>
        <time>2019-08-17T08:27:08Z</time>
      </trkpt>
      <trkpt lat="44.37543" lon="5.92781">
        <ele>574</ele>
        <time>2019-08-17T08:27:09Z</time>
      </trkpt>
      <trkpt lat="44.37538" lon="5.92777">
        <ele>574</ele>
        <time>2019-08-17T08:27:11Z</time>
      </trkpt>
      <trkpt lat="44.37532" lon="5.92773">
        <ele>574</ele>
        <time>2019-08-17T08:27:12Z</time>
      </trkpt>
      <trkpt lat="44.37526" lon="5.92769">
        <ele>574</ele>
        <time>2019-08-17T08:27:13Z</time>
      </trkpt>
      <trkpt lat="44.37521" lon="5.92765">
        <ele>574</ele>
        <time>2019-08-17T08:27:13Z</time>
      </trkpt>
      <trkpt lat="44.37516" lon="5.92761">
        <ele>574</ele>
        <time>2019-08-17T08:27:14Z</time>
      </trkpt>
      <trkpt lat="44.3751" lon="5.92757">
        <ele>574</ele>
        <time>2019-08-17T08:27:15Z</time>
      </trkpt>
      <trkpt lat="44.37504" lon="5.92754">
        <ele>574</ele>
        <time>2019-08-17T08:27:17Z</time>
      </trkpt>
      <trkpt lat="44.37498" lon="5.9275">
        <ele>574</ele>
        <time>2019-08-17T08:27:17Z</time>
      </trkpt>
      <trkpt lat="44.37493" lon="5.92746">
        <ele>574</ele>
        <time>2019-08-17T08:27:18Z</time>
      </trkpt>
      <trkpt lat="44.37487" lon="5.92742">
        <ele>574</ele>
        <time>2019-08-17T08:27:20Z</time>
      </trkpt>
      <trkpt lat="44.37482" lon="5.92739">
        <ele>574</ele>
        <time>2019-08-17T08:27:20Z</time>
      </trkpt>
      <trkpt lat="44.37476" lon="5.92735">
        <ele>574</ele>
        <time>2019-08-17T08:27:22Z</time>
      </trkpt>
      <trkpt lat="44.37471" lon="5.92732">
        <ele>574</ele>
        <time>2019-08-17T08:27:23Z</time>
      </trkpt>
      <trkpt lat="44.37465" lon="5.92728">
        <ele>574</ele>
        <time>2019-08-17T08:27:23Z</time>
      </trkpt>
      <trkpt lat="44.3746" lon="5.92724">
        <ele>574</ele>
        <time>2019-08-17T08:27:24Z</time>
      </trkpt>
      <trkpt lat="44.37454" lon="5.9272">
        <ele>574</ele>
        <time>2019-08-17T08:27:25Z</time>
      </trkpt>
      <trkpt lat="44.37449" lon="5.92717">
        <ele>574</ele>
        <time>2019-08-17T08:27:27Z</time>
      </trkpt>
      <trkpt lat="44.37443" lon="5.92713">
        <ele>574</ele>
        <time>2019-08-17T08:27:27Z</time>
      </trkpt>
      <trkpt lat="44.37437" lon="5.92709">
        <ele>574</ele>
        <time>2019-08-17T08:27:28Z</time>
      </trkpt>
      <trkpt lat="44.37432" lon="5.92706">
        <ele>574</ele>
        <time>2019-08-17T08:27:29Z</time>
      </trkpt>
      <trkpt lat="44.37426" lon="5.92702">
        <ele>574</ele>
        <time>2019-08-17T08:27:30Z</time>
      </trkpt>
      <trkpt lat="44.37421" lon="5.92698">
        <ele>574</ele>
        <time>2019-08-17T08:27:32Z</time>
      </trkpt>
      <trkpt lat="44.37415" lon="5.92694">
        <ele>574</ele>
        <time>2019-08-17T08:27:32Z</time>
      </trkpt>
      <trkpt lat="44.3741" lon="5.92691">
        <ele>574</ele>
        <time>2019-08-17T08:27:33Z</time>
      </trkpt>
      <trkpt lat="44.37404" lon="5.92687">
        <ele>574</ele>
        <time>2019-08-17T08:27:34Z</time>
      </trkpt>
      <trkpt lat="44.37399" lon="5.92683">
        <ele>574</ele>
        <time>2019-08-17T08:27:35Z</time>
      </trkpt>
      <trkpt lat="44.37393" lon="5.92679">
        <ele>574</ele>
        <time>2019-08-17T08:27:36Z</time>
      </trkpt>
      <trkpt lat="44.37388" lon="5.92675">
        <ele>574</ele>
        <time>2019-08-17T08:27:38Z</time>
      </trkpt>
      <trkpt lat="44.37383" lon="5.9267">
        <ele>574</ele>
        <time>2019-08-17T08:27:38Z</time>
      </trkpt>
      <trkpt lat="44.37377" lon="5.92666">
        <ele>574</ele>
        <time>2019-08-17T08:27:39Z</time>
      </trkpt>
      <trkpt lat="44.37372" lon="5.92663">
        <ele>574</ele>
        <time>2019-08-17T08:27:40Z</time>
      </trkpt>
      <trkpt lat="44.37366" lon="5.92659">
        <ele>574</ele>
        <time>2019-08-17T08:27:41Z</time>
      </trkpt>
      <trkpt lat="44.37361" lon="5.92654">
        <ele>574</ele>
        <time>2019-08-17T08:27:43Z</time>
      </trkpt>
      <trkpt lat="44.37355" lon="5.9265">
        <ele>574</ele>
        <time>2019-08-17T08:27:43Z</time>
      </trkpt>
      <trkpt lat="44.3735" lon="5.92645">
        <ele>574</ele>
        <time>2019-08-17T08:27:44Z</time>
      </trkpt>
      <trkpt lat="44.37344" lon="5.92641">
        <ele>574</ele>
        <time>2019-08-17T08:27:45Z</time>
      </trkpt>
      <trkpt lat="44.37339" lon="5.92636">
        <ele>574</ele>
        <time>2019-08-17T08:27:46Z</time>
      </trkpt>
      <trkpt lat="44.37333" lon="5.92631">
        <ele>574</ele>
        <time>2019-08-17T08:27:48Z</time>
      </trkpt>
      <trkpt lat="44.37326" lon="5.92626">
        <ele>574</ele>
        <time>2019-08-17T08:27:48Z</time>
      </trkpt>
      <trkpt lat="44.3732" lon="5.92622">
        <ele>574</ele>
        <time>2019-08-17T08:27:49Z</time>
      </trkpt>
      <trkpt lat="44.37314" lon="5.92616">
        <ele>574</ele>
        <time>2019-08-17T08:27:50Z</time>
      </trkpt>
      <trkpt lat="44.37308" lon="5.92611">
        <ele>574</ele>
        <time>2019-08-17T08:27:51Z</time>
      </trkpt>
      <trkpt lat="44.37302" lon="5.92605">
        <ele>574</ele>
        <time>2019-08-17T08:27:53Z</time>
      </trkpt>
      <trkpt lat="44.37296" lon="5.926">
        <ele>574</ele>
        <time>2019-08-17T08:27:53Z</time>
      </trkpt>
      <trkpt lat="44.3729" lon="5.92594">
        <ele>574</ele>
        <time>2019-08-17T08:27:54Z</time>
      </trkpt>
      <trkpt lat="44.37283" lon="5.92589">
        <ele>574</ele>
        <time>2019-08-17T08:27:55Z</time>
      </trkpt>
      <trkpt lat="44.37277" lon="5.92583">
        <ele>574</ele>
        <time>2019-08-17T08:27:56Z</time>
      </trkpt>
      <trkpt lat="44.37271" lon="5.92577">
        <ele>574</ele>
        <time>2019-08-17T08:27:58Z</time>
      </trkpt>
      <trkpt lat="44.37265" lon="5.92571">
        <ele>574</ele>
        <time>2019-08-17T08:27:58Z</time>
      </trkpt>
      <trkpt lat="44.37259" lon="5.92565">
        <ele>574</ele>
        <time>2019-08-17T08:27:59Z</time>
      </trkpt>
      <trkpt lat="44.37253" lon="5.92559">
        <ele>574</ele>
        <time>2019-08-17T08:28:00Z</time>
      </trkpt>
      <trkpt lat="44.37247" lon="5.92554">
        <ele>574</ele>
        <time>2019-08-17T08:28:01Z</time>
      </trkpt>
      <trkpt lat="44.37241" lon="5.92548">
        <ele>574</ele>
        <time>2019-08-17T08:28:03Z</time>
      </trkpt>
      <trkpt lat="44.37235" lon="5.92542">
        <ele>574</ele>
        <time>2019-08-17T08:28:03Z</time>
      </trkpt>
      <trkpt lat="44.37228" lon="5.92536">
        <ele>574</ele>
        <time>2019-08-17T08:28:04Z</time>
      </trkpt>
      <trkpt lat="44.37222" lon="5.92531">
        <ele>574</ele>
        <time>2019-08-17T08:28:05Z</time>
      </trkpt>
      <trkpt lat="44.37216" lon="5.92525">
        <ele>574</ele>
        <time>2019-08-17T08:28:06Z</time>
      </trkpt>
      <trkpt lat="44.37209" lon="5.92519">
        <ele>574</ele>
        <time>2019-08-17T08:28:08Z</time>
      </trkpt>
      <trkpt lat="44.37203" lon="5.92513">
        <ele>574</ele>
        <time>2019-08-17T08:28:08Z</time>
      </trkpt>
      <trkpt lat="44.37197" lon="5.92507">
        <ele>574</ele>
        <time>2019-08-17T08:28:09Z</time>
      </trkpt>
      <trkpt lat="44.37191" lon="5.92501">
        <ele>574</ele>
        <time>2019-08-17T08:28:10Z</time>
      </trkpt>
      <trkpt lat="44.37184" lon="5.92496">
        <ele>574</ele>
        <time>2019-08-17T08:28:11Z</time>
      </trkpt>
      <trkpt lat="44.37178" lon="5.9249">
        <ele>574</ele>
        <time>2019-08-17T08:28:13Z</time>
      </trkpt>
      <trkpt lat="44.37172" lon="5.92485">
        <ele>574</ele>
        <time>2019-08-17T08:28:13Z</time>
      </trkpt>
      <trkpt lat="44.37166" lon="5.9248">
        <ele>574</ele>
        <time>2019-08-17T08:28:14Z</time>
      </trkpt>
      <trkpt lat="44.37159" lon="5.92475">
        <ele>574</ele>
        <time>2019-08-17T08:28:15Z</time>
      </trkpt>
      <trkpt lat="44.37154" lon="5.9247">
        <ele>574</ele>
        <time>2019-08-17T08:28:16Z</time>
      </trkpt>
      <trkpt lat="44.37148" lon="5.92465">
        <ele>574</ele>
        <time>2019-08-17T08:28:17Z</time>
      </trkpt>
      <trkpt lat="44.37142" lon="5.9246">
        <ele>574</ele>
        <time>2019-08-17T08:28:19Z</time>
      </trkpt>
      <trkpt lat="44.37136" lon="5.92455">
        <ele>574</ele>
        <time>2019-08-17T08:28:19Z</time>
      </trkpt>
      <trkpt lat="44.3713" lon="5.9245">
        <ele>574</ele>
        <time>2019-08-17T08:28:20Z</time>
      </trkpt>
      <trkpt lat="44.37125" lon="5.92445">
        <ele>574</ele>
        <time>2019-08-17T08:28:21Z</time>
      </trkpt>
      <trkpt lat="44.37119" lon="5.92439">
        <ele>574</ele>
        <time>2019-08-17T08:28:22Z</time>
      </trkpt>
      <trkpt lat="44.37113" lon="5.92434">
        <ele>574</ele>
        <time>2019-08-17T08:28:24Z</time>
      </trkpt>
      <trkpt lat="44.37108" lon="5.92429">
        <ele>574</ele>
        <time>2019-08-17T08:28:24Z</time>
      </trkpt>
      <trkpt lat="44.37102" lon="5.92424">
        <ele>574</ele>
        <time>2019-08-17T08:28:25Z</time>
      </trkpt>
      <trkpt lat="44.37096" lon="5.92419">
        <ele>574</ele>
        <time>2019-08-17T08:28:26Z</time>
      </trkpt>
      <trkpt lat="44.37091" lon="5.92414">
        <ele>574</ele>
        <time>2019-08-17T08:28:27Z</time>
      </trkpt>
      <trkpt lat="44.37085" lon="5.9241">
        <ele>574</ele>
        <time>2019-08-17T08:28:29Z</time>
      </trkpt>
      <trkpt lat="44.37079" lon="5.92405">
        <ele>574</ele>
        <time>2019-08-17T08:28:29Z</time>
      </trkpt>
      <trkpt lat="44.37074" lon="5.924">
        <ele>574</ele>
        <time>2019-08-17T08:28:30Z</time>
      </trkpt>
      <trkpt lat="44.37068" lon="5.92395">
        <ele>574</ele>
        <time>2019-08-17T08:28:31Z</time>
      </trkpt>
      <trkpt lat="44.37063" lon="5.9239">
        <ele>574</ele>
        <time>2019-08-17T08:28:32Z</time>
      </trkpt>
      <trkpt lat="44.37057" lon="5.92386">
        <ele>574</ele>
        <time>2019-08-17T08:28:34Z</time>
      </trkpt>
      <trkpt lat="44.37052" lon="5.92381">
        <ele>574</ele>
        <time>2019-08-17T08:28:34Z</time>
      </trkpt>
      <trkpt lat="44.37046" lon="5.92377">
        <ele>574</ele>
        <time>2019-08-17T08:28:35Z</time>
      </trkpt>
      <trkpt lat="44.37041" lon="5.92373">
        <ele>574</ele>
        <time>2019-08-17T08:28:36Z</time>
      </trkpt>
      <trkpt lat="44.37036" lon="5.92368">
        <ele>574</ele>
        <time>2019-08-17T08:28:37Z</time>
      </trkpt>
      <trkpt lat="44.3703" lon="5.92364">
        <ele>574</ele>
        <time>2019-08-17T08:28:39Z</time>
      </trkpt>
      <trkpt lat="44.37025" lon="5.9236">
        <ele>574</ele>
        <time>2019-08-17T08:28:39Z</time>
      </trkpt>
      <trkpt lat="44.3702" lon="5.92355">
        <ele>574</ele>
        <time>2019-08-17T08:28:40Z</time>
      </trkpt>
      <trkpt lat="44.37016" lon="5.92351">
        <ele>574</ele>
        <time>2019-08-17T08:28:41Z</time>
      </trkpt>
      <trkpt lat="44.37011" lon="5.92347">
        <ele>574</ele>
        <time>2019-08-17T08:28:42Z</time>
      </trkpt>
      <trkpt lat="44.37006" lon="5.92343">
        <ele>574</ele>
        <time>2019-08-17T08:28:44Z</time>
      </trkpt>
      <trkpt lat="44.37001" lon="5.92339">
        <ele>574</ele>
        <time>2019-08-17T08:28:44Z</time>
      </trkpt>
      <trkpt lat="44.36996" lon="5.92335">
        <ele>574</ele>
        <time>2019-08-17T08:28:45Z</time>
      </trkpt>
      <trkpt lat="44.36991" lon="5.92331">
        <ele>574</ele>
        <time>2019-08-17T08:28:46Z</time>
      </trkpt>
      <trkpt lat="44.36986" lon="5.92327">
        <ele>574</ele>
        <time>2019-08-17T08:28:47Z</time>
      </trkpt>
      <trkpt lat="44.36981" lon="5.92323">
        <ele>574</ele>
        <time>2019-08-17T08:28:49Z</time>
      </trkpt>
      <trkpt lat="44.36976" lon="5.92319">
        <ele>574</ele>
        <time>2019-08-17T08:28:49Z</time>
      </trkpt>
      <trkpt lat="44.36971" lon="5.92315">
        <ele>574</ele>
        <time>2019-08-17T08:28:50Z</time>
      </trkpt>
      <trkpt lat="44.36966" lon="5.92311">
        <ele>574</ele>
        <time>2019-08-17T08:28:51Z</time>
      </trkpt>
      <trkpt lat="44.36962" lon="5.92307">
        <ele>574</ele>
        <time>2019-08-17T08:28:52Z</time>
      </trkpt>
      <trkpt lat="44.36957" lon="5.92303">
        <ele>574</ele>
        <time>2019-08-17T08:28:54Z</time>
      </trkpt>
      <trkpt lat="44.36952" lon="5.923">
        <ele>574</ele>
        <time>2019-08-17T08:28:54Z</time>
      </trkpt>
      <trkpt lat="44.36947" lon="5.92296">
        <ele>574</ele>
        <time>2019-08-17T08:28:55Z</time>
      </trkpt>
      <trkpt lat="44.36942" lon="5.92293">
        <ele>574</ele>
        <time>2019-08-17T08:28:56Z</time>
      </trkpt>
      <trkpt lat="44.36937" lon="5.92289">
        <ele>574</ele>
        <time>2019-08-17T08:28:57Z</time>
      </trkpt>
      <trkpt lat="44.36932" lon="5.92285">
        <ele>574</ele>
        <time>2019-08-17T08:28:59Z</time>
      </trkpt>
      <trkpt lat="44.36927" lon="5.92282">
        <ele>574</ele>
        <time>2019-08-17T08:28:59Z</time>
      </trkpt>
      <trkpt lat="44.36922" lon="5.92278">
        <ele>574</ele>
        <time>2019-08-17T08:29:00Z</time>
      </trkpt>
      <trkpt lat="44.36918" lon="5.92274">
        <ele>574</ele>
        <time>2019-08-17T08:29:01Z</time>
      </trkpt>
      <trkpt lat="44.36913" lon="5.92271">
        <ele>574</ele>
        <time>2019-08-17T08:29:02Z</time>
      </trkpt>
      <trkpt lat="44.36908" lon="5.92267">
        <ele>574</ele>
        <time>2019-08-17T08:29:04Z</time>
      </trkpt>
      <trkpt lat="44.36903" lon="5.92264">
        <ele>574</ele>
        <time>2019-08-17T08:29:04Z</time>
      </trkpt>
      <trkpt lat="44.36898" lon="5.92261">
        <ele>574</ele>
        <time>2019-08-17T08:29:05Z</time>
      </trkpt>
      <trkpt lat="44.36893" lon="5.92258">
        <ele>574</ele>
        <time>2019-08-17T08:29:06Z</time>
      </trkpt>
      <trkpt lat="44.36889" lon="5.92255">
        <ele>574</ele>
        <time>2019-08-17T08:29:07Z</time>
      </trkpt>
      <trkpt lat="44.36884" lon="5.92252">
        <ele>574</ele>
        <time>2019-08-17T08:29:09Z</time>
      </trkpt>
      <trkpt lat="44.36879" lon="5.92249">
        <ele>574</ele>
        <time>2019-08-17T08:29:09Z</time>
      </trkpt>
      <trkpt lat="44.36874" lon="5.92246">
        <ele>575</ele>
        <time>2019-08-17T08:29:10Z</time>
      </trkpt>
      <trkpt lat="44.36869" lon="5.92243">
        <ele>575</ele>
        <time>2019-08-17T08:29:11Z</time>
      </trkpt>
      <trkpt lat="44.36864" lon="5.9224">
        <ele>575</ele>
        <time>2019-08-17T08:29:13Z</time>
      </trkpt>
      <trkpt lat="44.36859" lon="5.92237">
        <ele>575</ele>
        <time>2019-08-17T08:29:14Z</time>
      </trkpt>
      <trkpt lat="44.36855" lon="5.92234">
        <ele>575</ele>
        <time>2019-08-17T08:29:14Z</time>
      </trkpt>
      <trkpt lat="44.3685" lon="5.92231">
        <ele>575</ele>
        <time>2019-08-17T08:29:15Z</time>
      </trkpt>
      <trkpt lat="44.36845" lon="5.92228">
        <ele>576</ele>
        <time>2019-08-17T08:29:16Z</time>
      </trkpt>
      <trkpt lat="44.36841" lon="5.92225">
        <ele>576</ele>
        <time>2019-08-17T08:29:17Z</time>
      </trkpt>
      <trkpt lat="44.36837" lon="5.92223">
        <ele>576</ele>
        <time>2019-08-17T08:29:19Z</time>
      </trkpt>
      <trkpt lat="44.36834" lon="5.92221">
        <ele>576</ele>
        <time>2019-08-17T08:29:19Z</time>
      </trkpt>
      <trkpt lat="44.36831" lon="5.92219">
        <ele>577</ele>
        <time>2019-08-17T08:29:20Z</time>
      </trkpt>
      <trkpt lat="44.36828" lon="5.92217">
        <ele>577</ele>
        <time>2019-08-17T08:29:21Z</time>
      </trkpt>
      <trkpt lat="44.36824" lon="5.92215">
        <ele>577</ele>
        <time>2019-08-17T08:29:22Z</time>
      </trkpt>
      <trkpt lat="44.3682" lon="5.92213">
        <ele>577</ele>
        <time>2019-08-17T08:29:23Z</time>
      </trkpt>
      <trkpt lat="44.36816" lon="5.92211">
        <ele>577</ele>
        <time>2019-08-17T08:29:24Z</time>
      </trkpt>
      <trkpt lat="44.36811" lon="5.92209">
        <ele>577</ele>
        <time>2019-08-17T08:29:25Z</time>
      </trkpt>
      <trkpt lat="44.36806" lon="5.92206">
        <ele>577</ele>
        <time>2019-08-17T08:29:26Z</time>
      </trkpt>
      <trkpt lat="44.368" lon="5.92203">
        <ele>577</ele>
        <time>2019-08-17T08:29:27Z</time>
      </trkpt>
      <trkpt lat="44.36794" lon="5.922">
        <ele>577</ele>
        <time>2019-08-17T08:29:29Z</time>
      </trkpt>
      <trkpt lat="44.36787" lon="5.92196">
        <ele>577</ele>
        <time>2019-08-17T08:29:29Z</time>
      </trkpt>
      <trkpt lat="44.36779" lon="5.92192">
        <ele>577</ele>
        <time>2019-08-17T08:29:30Z</time>
      </trkpt>
      <trkpt lat="44.36771" lon="5.92189">
        <ele>577</ele>
        <time>2019-08-17T08:29:31Z</time>
      </trkpt>
      <trkpt lat="44.36763" lon="5.92186">
        <ele>577</ele>
        <time>2019-08-17T08:29:32Z</time>
      </trkpt>
      <trkpt lat="44.36755" lon="5.92183">
        <ele>577</ele>
        <time>2019-08-17T08:29:34Z</time>
      </trkpt>
      <trkpt lat="44.36747" lon="5.9218">
        <ele>577</ele>
        <time>2019-08-17T08:29:34Z</time>
      </trkpt>
      <trkpt lat="44.36739" lon="5.92177">
        <ele>577</ele>
        <time>2019-08-17T08:29:35Z</time>
      </trkpt>
      <trkpt lat="44.36731" lon="5.92175">
        <ele>577</ele>
        <time>2019-08-17T08:29:36Z</time>
      </trkpt>
      <trkpt lat="44.36723" lon="5.92173">
        <ele>577</ele>
        <time>2019-08-17T08:29:37Z</time>
      </trkpt>
      <trkpt lat="44.36715" lon="5.92171">
        <ele>577</ele>
        <time>2019-08-17T08:29:39Z</time>
      </trkpt>
      <trkpt lat="44.36707" lon="5.92168">
        <ele>577</ele>
        <time>2019-08-17T08:29:39Z</time>
      </trkpt>
      <trkpt lat="44.367" lon="5.92166">
        <ele>577</ele>
        <time>2019-08-17T08:29:40Z</time>
      </trkpt>
      <trkpt lat="44.36692" lon="5.92163">
        <ele>577</ele>
        <time>2019-08-17T08:29:41Z</time>
      </trkpt>
      <trkpt lat="44.36685" lon="5.92161">
        <ele>577</ele>
        <time>2019-08-17T08:29:42Z</time>
      </trkpt>
      <trkpt lat="44.36678" lon="5.92159">
        <ele>577</ele>
        <time>2019-08-17T08:29:44Z</time>
      </trkpt>
      <trkpt lat="44.36671" lon="5.92158">
        <ele>577</ele>
        <time>2019-08-17T08:29:44Z</time>
      </trkpt>
      <trkpt lat="44.36663" lon="5.92156">
        <ele>577</ele>
        <time>2019-08-17T08:29:45Z</time>
      </trkpt>
      <trkpt lat="44.36656" lon="5.92154">
        <ele>577</ele>
        <time>2019-08-17T08:29:46Z</time>
      </trkpt>
      <trkpt lat="44.36649" lon="5.92152">
        <ele>577</ele>
        <time>2019-08-17T08:29:47Z</time>
      </trkpt>
      <trkpt lat="44.36642" lon="5.92149">
        <ele>577</ele>
        <time>2019-08-17T08:29:49Z</time>
      </trkpt>
      <trkpt lat="44.36635" lon="5.92147">
        <ele>577</ele>
        <time>2019-08-17T08:29:49Z</time>
      </trkpt>
      <trkpt lat="44.36628" lon="5.92145">
        <ele>577</ele>
        <time>2019-08-17T08:29:50Z</time>
      </trkpt>
      <trkpt lat="44.36622" lon="5.92142">
        <ele>577</ele>
        <time>2019-08-17T08:29:51Z</time>
      </trkpt>
      <trkpt lat="44.36615" lon="5.92139">
        <ele>577</ele>
        <time>2019-08-17T08:29:52Z</time>
      </trkpt>
      <trkpt lat="44.36609" lon="5.92136">
        <ele>577</ele>
        <time>2019-08-17T08:29:54Z</time>
      </trkpt>
      <trkpt lat="44.36602" lon="5.92133">
        <ele>577</ele>
        <time>2019-08-17T08:29:54Z</time>
      </trkpt>
      <trkpt lat="44.36596" lon="5.92129">
        <ele>577</ele>
        <time>2019-08-17T08:29:55Z</time>
      </trkpt>
      <trkpt lat="44.36589" lon="5.92125">
        <ele>577</ele>
        <time>2019-08-17T08:29:56Z</time>
      </trkpt>
      <trkpt lat="44.36582" lon="5.92122">
        <ele>577</ele>
        <time>2019-08-17T08:29:57Z</time>
      </trkpt>
      <trkpt lat="44.36576" lon="5.92118">
        <ele>577</ele>
        <time>2019-08-17T08:29:59Z</time>
      </trkpt>
      <trkpt lat="44.3657" lon="5.92113">
        <ele>577</ele>
        <time>2019-08-17T08:29:59Z</time>
      </trkpt>
      <trkpt lat="44.36563" lon="5.92109">
        <ele>577</ele>
        <time>2019-08-17T08:30:00Z</time>
      </trkpt>
      <trkpt lat="44.36557" lon="5.92105">
        <ele>577</ele>
        <time>2019-08-17T08:30:01Z</time>
      </trkpt>
      <trkpt lat="44.36551" lon="5.92101">
        <ele>577</ele>
        <time>2019-08-17T08:30:03Z</time>
      </trkpt>
      <trkpt lat="44.36545" lon="5.92097">
        <ele>577</ele>
        <time>2019-08-17T08:30:04Z</time>
      </trkpt>
      <trkpt lat="44.36538" lon="5.92093">
        <ele>577</ele>
        <time>2019-08-17T08:30:04Z</time>
      </trkpt>
      <trkpt lat="44.36532" lon="5.92088">
        <ele>577</ele>
        <time>2019-08-17T08:30:05Z</time>
      </trkpt>
      <trkpt lat="44.36526" lon="5.92084">
        <ele>577</ele>
        <time>2019-08-17T08:30:06Z</time>
      </trkpt>
      <trkpt lat="44.3652" lon="5.92079">
        <ele>577</ele>
        <time>2019-08-17T08:30:07Z</time>
      </trkpt>
      <trkpt lat="44.36514" lon="5.92075">
        <ele>577</ele>
        <time>2019-08-17T08:30:08Z</time>
      </trkpt>
      <trkpt lat="44.36508" lon="5.92071">
        <ele>577</ele>
        <time>2019-08-17T08:30:09Z</time>
      </trkpt>
      <trkpt lat="44.36502" lon="5.92067">
        <ele>577</ele>
        <time>2019-08-17T08:30:10Z</time>
      </trkpt>
      <trkpt lat="44.36496" lon="5.92063">
        <ele>577</ele>
        <time>2019-08-17T08:30:11Z</time>
      </trkpt>
      <trkpt lat="44.36489" lon="5.92059">
        <ele>577</ele>
        <time>2019-08-17T08:30:13Z</time>
      </trkpt>
      <trkpt lat="44.36483" lon="5.92055">
        <ele>577</ele>
        <time>2019-08-17T08:30:14Z</time>
      </trkpt>
      <trkpt lat="44.36477" lon="5.92051">
        <ele>577</ele>
        <time>2019-08-17T08:30:14Z</time>
      </trkpt>
      <trkpt lat="44.36471" lon="5.92046">
        <ele>577</ele>
        <time>2019-08-17T08:30:15Z</time>
      </trkpt>
      <trkpt lat="44.36464" lon="5.92042">
        <ele>577</ele>
        <time>2019-08-17T08:30:16Z</time>
      </trkpt>
      <trkpt lat="44.36459" lon="5.92038">
        <ele>577</ele>
        <time>2019-08-17T08:30:17Z</time>
      </trkpt>
      <trkpt lat="44.36452" lon="5.92034">
        <ele>577</ele>
        <time>2019-08-17T08:30:18Z</time>
      </trkpt>
      <trkpt lat="44.36446" lon="5.92029">
        <ele>577</ele>
        <time>2019-08-17T08:30:19Z</time>
      </trkpt>
      <trkpt lat="44.3644" lon="5.92025">
        <ele>577</ele>
        <time>2019-08-17T08:30:20Z</time>
      </trkpt>
      <trkpt lat="44.36434" lon="5.92021">
        <ele>577</ele>
        <time>2019-08-17T08:30:21Z</time>
      </trkpt>
      <trkpt lat="44.36428" lon="5.92016">
        <ele>577</ele>
        <time>2019-08-17T08:30:22Z</time>
      </trkpt>
      <trkpt lat="44.36422" lon="5.92012">
        <ele>577</ele>
        <time>2019-08-17T08:30:24Z</time>
      </trkpt>
      <trkpt lat="44.36416" lon="5.92008">
        <ele>577</ele>
        <time>2019-08-17T08:30:24Z</time>
      </trkpt>
      <trkpt lat="44.3641" lon="5.92004">
        <ele>577</ele>
        <time>2019-08-17T08:30:25Z</time>
      </trkpt>
      <trkpt lat="44.36404" lon="5.91999">
        <ele>577</ele>
        <time>2019-08-17T08:30:26Z</time>
      </trkpt>
      <trkpt lat="44.36398" lon="5.91995">
        <ele>577</ele>
        <time>2019-08-17T08:30:27Z</time>
      </trkpt>
      <trkpt lat="44.36392" lon="5.91991">
        <ele>577</ele>
        <time>2019-08-17T08:30:29Z</time>
      </trkpt>
      <trkpt lat="44.36386" lon="5.91987">
        <ele>577</ele>
        <time>2019-08-17T08:30:29Z</time>
      </trkpt>
      <trkpt lat="44.3638" lon="5.91983">
        <ele>577</ele>
        <time>2019-08-17T08:30:30Z</time>
      </trkpt>
      <trkpt lat="44.36374" lon="5.91979">
        <ele>577</ele>
        <time>2019-08-17T08:30:31Z</time>
      </trkpt>
      <trkpt lat="44.36368" lon="5.91975">
        <ele>577</ele>
        <time>2019-08-17T08:30:32Z</time>
      </trkpt>
      <trkpt lat="44.36362" lon="5.91971">
        <ele>577</ele>
        <time>2019-08-17T08:30:34Z</time>
      </trkpt>
      <trkpt lat="44.36356" lon="5.91967">
        <ele>577</ele>
        <time>2019-08-17T08:30:34Z</time>
      </trkpt>
      <trkpt lat="44.3635" lon="5.91963">
        <ele>577</ele>
        <time>2019-08-17T08:30:35Z</time>
      </trkpt>
      <trkpt lat="44.36344" lon="5.91958">
        <ele>577</ele>
        <time>2019-08-17T08:30:36Z</time>
      </trkpt>
      <trkpt lat="44.36338" lon="5.91954">
        <ele>577</ele>
        <time>2019-08-17T08:30:37Z</time>
      </trkpt>
      <trkpt lat="44.36332" lon="5.9195">
        <ele>577</ele>
        <time>2019-08-17T08:30:38Z</time>
      </trkpt>
      <trkpt lat="44.36325" lon="5.91946">
        <ele>577</ele>
        <time>2019-08-17T08:30:39Z</time>
      </trkpt>
      <trkpt lat="44.36319" lon="5.91941">
        <ele>577</ele>
        <time>2019-08-17T08:30:40Z</time>
      </trkpt>
      <trkpt lat="44.36313" lon="5.91937">
        <ele>577</ele>
        <time>2019-08-17T08:30:41Z</time>
      </trkpt>
      <trkpt lat="44.36306" lon="5.91933">
        <ele>577</ele>
        <time>2019-08-17T08:30:42Z</time>
      </trkpt>
      <trkpt lat="44.363" lon="5.91929">
        <ele>577</ele>
        <time>2019-08-17T08:30:43Z</time>
      </trkpt>
      <trkpt lat="44.36293" lon="5.91925">
        <ele>577</ele>
        <time>2019-08-17T08:30:44Z</time>
      </trkpt>
      <trkpt lat="44.36287" lon="5.91921">
        <ele>577</ele>
        <time>2019-08-17T08:30:45Z</time>
      </trkpt>
      <trkpt lat="44.36281" lon="5.91916">
        <ele>577</ele>
        <time>2019-08-17T08:30:46Z</time>
      </trkpt>
      <trkpt lat="44.36275" lon="5.91912">
        <ele>577</ele>
        <time>2019-08-17T08:30:47Z</time>
      </trkpt>
      <trkpt lat="44.36269" lon="5.91908">
        <ele>577</ele>
        <time>2019-08-17T08:30:49Z</time>
      </trkpt>
      <trkpt lat="44.36262" lon="5.91903">
        <ele>577</ele>
        <time>2019-08-17T08:30:49Z</time>
      </trkpt>
      <trkpt lat="44.36256" lon="5.91899">
        <ele>577</ele>
        <time>2019-08-17T08:30:50Z</time>
      </trkpt>
      <trkpt lat="44.3625" lon="5.91895">
        <ele>577</ele>
        <time>2019-08-17T08:30:51Z</time>
      </trkpt>
      <trkpt lat="44.36244" lon="5.91891">
        <ele>577</ele>
        <time>2019-08-17T08:30:52Z</time>
      </trkpt>
      <trkpt lat="44.36238" lon="5.91887">
        <ele>577</ele>
        <time>2019-08-17T08:30:54Z</time>
      </trkpt>
      <trkpt lat="44.36232" lon="5.91883">
        <ele>577</ele>
        <time>2019-08-17T08:30:54Z</time>
      </trkpt>
      <trkpt lat="44.36226" lon="5.91879">
        <ele>577</ele>
        <time>2019-08-17T08:30:55Z</time>
      </trkpt>
      <trkpt lat="44.3622" lon="5.91875">
        <ele>577</ele>
        <time>2019-08-17T08:30:56Z</time>
      </trkpt>
      <trkpt lat="44.36214" lon="5.91871">
        <ele>577</ele>
        <time>2019-08-17T08:30:57Z</time>
      </trkpt>
      <trkpt lat="44.36208" lon="5.91867">
        <ele>577</ele>
        <time>2019-08-17T08:30:59Z</time>
      </trkpt>
      <trkpt lat="44.36201" lon="5.91863">
        <ele>577</ele>
        <time>2019-08-17T08:30:59Z</time>
      </trkpt>
      <trkpt lat="44.36195" lon="5.91859">
        <ele>577</ele>
        <time>2019-08-17T08:31:00Z</time>
      </trkpt>
      <trkpt lat="44.36189" lon="5.91854">
        <ele>577</ele>
        <time>2019-08-17T08:31:01Z</time>
      </trkpt>
      <trkpt lat="44.36183" lon="5.9185">
        <ele>577</ele>
        <time>2019-08-17T08:31:02Z</time>
      </trkpt>
      <trkpt lat="44.36177" lon="5.91846">
        <ele>577</ele>
        <time>2019-08-17T08:31:03Z</time>
      </trkpt>
      <trkpt lat="44.36171" lon="5.91842">
        <ele>577</ele>
        <time>2019-08-17T08:31:04Z</time>
      </trkpt>
      <trkpt lat="44.36164" lon="5.91837">
        <ele>577</ele>
        <time>2019-08-17T08:31:05Z</time>
      </trkpt>
      <trkpt lat="44.36158" lon="5.91833">
        <ele>577</ele>
        <time>2019-08-17T08:31:06Z</time>
      </trkpt>
      <trkpt lat="44.36152" lon="5.91829">
        <ele>577</ele>
        <time>2019-08-17T08:31:07Z</time>
      </trkpt>
      <trkpt lat="44.36145" lon="5.91824">
        <ele>577</ele>
        <time>2019-08-17T08:31:08Z</time>
      </trkpt>
      <trkpt lat="44.36139" lon="5.9182">
        <ele>577</ele>
        <time>2019-08-17T08:31:09Z</time>
      </trkpt>
      <trkpt lat="44.36133" lon="5.91816">
        <ele>577</ele>
        <time>2019-08-17T08:31:10Z</time>
      </trkpt>
      <trkpt lat="44.36126" lon="5.91811">
        <ele>577</ele>
        <time>2019-08-17T08:31:11Z</time>
      </trkpt>
      <trkpt lat="44.3612" lon="5.91806">
        <ele>577</ele>
        <time>2019-08-17T08:31:13Z</time>
      </trkpt>
      <trkpt lat="44.36114" lon="5.91802">
        <ele>577</ele>
        <time>2019-08-17T08:31:13Z</time>
      </trkpt>
      <trkpt lat="44.36107" lon="5.91797">
        <ele>577</ele>
        <time>2019-08-17T08:31:14Z</time>
      </trkpt>
      <trkpt lat="44.36101" lon="5.91792">
        <ele>577</ele>
        <time>2019-08-17T08:31:15Z</time>
      </trkpt>
      <trkpt lat="44.36094" lon="5.91788">
        <ele>577</ele>
        <time>2019-08-17T08:31:16Z</time>
      </trkpt>
      <trkpt lat="44.36088" lon="5.91784">
        <ele>577</ele>
        <time>2019-08-17T08:31:17Z</time>
      </trkpt>
      <trkpt lat="44.36081" lon="5.91779">
        <ele>577</ele>
        <time>2019-08-17T08:31:18Z</time>
      </trkpt>
      <trkpt lat="44.36074" lon="5.91774">
        <ele>577</ele>
        <time>2019-08-17T08:31:19Z</time>
      </trkpt>
      <trkpt lat="44.36068" lon="5.9177">
        <ele>577</ele>
        <time>2019-08-17T08:31:20Z</time>
      </trkpt>
      <trkpt lat="44.36061" lon="5.91765">
        <ele>577</ele>
        <time>2019-08-17T08:31:21Z</time>
      </trkpt>
      <trkpt lat="44.36055" lon="5.9176">
        <ele>577</ele>
        <time>2019-08-17T08:31:22Z</time>
      </trkpt>
      <trkpt lat="44.36048" lon="5.91755">
        <ele>577</ele>
        <time>2019-08-17T08:31:23Z</time>
      </trkpt>
      <trkpt lat="44.36041" lon="5.91751">
        <ele>577</ele>
        <time>2019-08-17T08:31:24Z</time>
      </trkpt>
      <trkpt lat="44.36035" lon="5.91747">
        <ele>577</ele>
        <time>2019-08-17T08:31:25Z</time>
      </trkpt>
      <trkpt lat="44.36028" lon="5.91742">
        <ele>577</ele>
        <time>2019-08-17T08:31:26Z</time>
      </trkpt>
      <trkpt lat="44.36022" lon="5.91737">
        <ele>577</ele>
        <time>2019-08-17T08:31:27Z</time>
      </trkpt>
      <trkpt lat="44.36015" lon="5.91733">
        <ele>577</ele>
        <time>2019-08-17T08:31:28Z</time>
      </trkpt>
      <trkpt lat="44.36009" lon="5.91728">
        <ele>577</ele>
        <time>2019-08-17T08:31:29Z</time>
      </trkpt>
      <trkpt lat="44.36002" lon="5.91724">
        <ele>577</ele>
        <time>2019-08-17T08:31:30Z</time>
      </trkpt>
      <trkpt lat="44.35996" lon="5.9172">
        <ele>577</ele>
        <time>2019-08-17T08:31:31Z</time>
      </trkpt>
      <trkpt lat="44.35989" lon="5.91716">
        <ele>577</ele>
        <time>2019-08-17T08:31:32Z</time>
      </trkpt>
      <trkpt lat="44.35982" lon="5.91712">
        <ele>577</ele>
        <time>2019-08-17T08:31:33Z</time>
      </trkpt>
      <trkpt lat="44.35976" lon="5.91708">
        <ele>577</ele>
        <time>2019-08-17T08:31:34Z</time>
      </trkpt>
      <trkpt lat="44.3597" lon="5.91703">
        <ele>577</ele>
        <time>2019-08-17T08:31:35Z</time>
      </trkpt>
      <trkpt lat="44.35963" lon="5.91698">
        <ele>577</ele>
        <time>2019-08-17T08:31:36Z</time>
      </trkpt>
      <trkpt lat="44.35957" lon="5.91692">
        <ele>577</ele>
        <time>2019-08-17T08:31:37Z</time>
      </trkpt>
      <trkpt lat="44.3595" lon="5.91687">
        <ele>577</ele>
        <time>2019-08-17T08:31:38Z</time>
      </trkpt>
      <trkpt lat="44.35944" lon="5.91682">
        <ele>577</ele>
        <time>2019-08-17T08:31:39Z</time>
      </trkpt>
      <trkpt lat="44.35937" lon="5.91678">
        <ele>577</ele>
        <time>2019-08-17T08:31:40Z</time>
      </trkpt>
      <trkpt lat="44.3593" lon="5.91673">
        <ele>577</ele>
        <time>2019-08-17T08:31:41Z</time>
      </trkpt>
      <trkpt lat="44.35923" lon="5.91669">
        <ele>577</ele>
        <time>2019-08-17T08:31:42Z</time>
      </trkpt>
      <trkpt lat="44.35917" lon="5.91664">
        <ele>577</ele>
        <time>2019-08-17T08:31:43Z</time>
      </trkpt>
      <trkpt lat="44.3591" lon="5.91659">
        <ele>577</ele>
        <time>2019-08-17T08:31:44Z</time>
      </trkpt>
      <trkpt lat="44.35903" lon="5.91654">
        <ele>577</ele>
        <time>2019-08-17T08:31:45Z</time>
      </trkpt>
      <trkpt lat="44.35897" lon="5.91649">
        <ele>577</ele>
        <time>2019-08-17T08:31:46Z</time>
      </trkpt>
      <trkpt lat="44.3589" lon="5.91645">
        <ele>577</ele>
        <time>2019-08-17T08:31:47Z</time>
      </trkpt>
      <trkpt lat="44.35883" lon="5.9164">
        <ele>577</ele>
        <time>2019-08-17T08:31:48Z</time>
      </trkpt>
      <trkpt lat="44.35876" lon="5.91636">
        <ele>577</ele>
        <time>2019-08-17T08:31:49Z</time>
      </trkpt>
      <trkpt lat="44.3587" lon="5.91631">
        <ele>577</ele>
        <time>2019-08-17T08:31:50Z</time>
      </trkpt>
      <trkpt lat="44.35863" lon="5.91626">
        <ele>577</ele>
        <time>2019-08-17T08:31:51Z</time>
      </trkpt>
      <trkpt lat="44.35857" lon="5.91622">
        <ele>577</ele>
        <time>2019-08-17T08:31:52Z</time>
      </trkpt>
      <trkpt lat="44.3585" lon="5.91617">
        <ele>577</ele>
        <time>2019-08-17T08:31:53Z</time>
      </trkpt>
      <trkpt lat="44.35843" lon="5.91613">
        <ele>577</ele>
        <time>2019-08-17T08:31:54Z</time>
      </trkpt>
      <trkpt lat="44.35837" lon="5.91609">
        <ele>577</ele>
        <time>2019-08-17T08:31:55Z</time>
      </trkpt>
      <trkpt lat="44.3583" lon="5.91605">
        <ele>577</ele>
        <time>2019-08-17T08:31:56Z</time>
      </trkpt>
      <trkpt lat="44.35823" lon="5.916">
        <ele>577</ele>
        <time>2019-08-17T08:31:57Z</time>
      </trkpt>
      <trkpt lat="44.35817" lon="5.91596">
        <ele>577</ele>
        <time>2019-08-17T08:31:58Z</time>
      </trkpt>
      <trkpt lat="44.3581" lon="5.91592">
        <ele>577</ele>
        <time>2019-08-17T08:31:59Z</time>
      </trkpt>
      <trkpt lat="44.35804" lon="5.91587">
        <ele>577</ele>
        <time>2019-08-17T08:32:00Z</time>
      </trkpt>
      <trkpt lat="44.35798" lon="5.91583">
        <ele>577</ele>
        <time>2019-08-17T08:32:01Z</time>
      </trkpt>
      <trkpt lat="44.35791" lon="5.91579">
        <ele>577</ele>
        <time>2019-08-17T08:32:02Z</time>
      </trkpt>
      <trkpt lat="44.35785" lon="5.91574">
        <ele>577</ele>
        <time>2019-08-17T08:32:03Z</time>
      </trkpt>
      <trkpt lat="44.35778" lon="5.9157">
        <ele>577</ele>
        <time>2019-08-17T08:32:04Z</time>
      </trkpt>
      <trkpt lat="44.35772" lon="5.91565">
        <ele>577</ele>
        <time>2019-08-17T08:32:05Z</time>
      </trkpt>
      <trkpt lat="44.35765" lon="5.9156">
        <ele>577</ele>
        <time>2019-08-17T08:32:06Z</time>
      </trkpt>
      <trkpt lat="44.35759" lon="5.91556">
        <ele>577</ele>
        <time>2019-08-17T08:32:07Z</time>
      </trkpt>
      <trkpt lat="44.35752" lon="5.91551">
        <ele>577</ele>
        <time>2019-08-17T08:32:08Z</time>
      </trkpt>
      <trkpt lat="44.35746" lon="5.91547">
        <ele>577</ele>
        <time>2019-08-17T08:32:09Z</time>
      </trkpt>
      <trkpt lat="44.35739" lon="5.91542">
        <ele>577</ele>
        <time>2019-08-17T08:32:10Z</time>
      </trkpt>
      <trkpt lat="44.35733" lon="5.91538">
        <ele>577</ele>
        <time>2019-08-17T08:32:11Z</time>
      </trkpt>
      <trkpt lat="44.35726" lon="5.91533">
        <ele>577</ele>
        <time>2019-08-17T08:32:13Z</time>
      </trkpt>
      <trkpt lat="44.3572" lon="5.91529">
        <ele>577</ele>
        <time>2019-08-17T08:32:13Z</time>
      </trkpt>
      <trkpt lat="44.35714" lon="5.91524">
        <ele>577</ele>
        <time>2019-08-17T08:32:14Z</time>
      </trkpt>
      <trkpt lat="44.35707" lon="5.91519">
        <ele>577</ele>
        <time>2019-08-17T08:32:15Z</time>
      </trkpt>
      <trkpt lat="44.35701" lon="5.91515">
        <ele>577</ele>
        <time>2019-08-17T08:32:16Z</time>
      </trkpt>
      <trkpt lat="44.35694" lon="5.9151">
        <ele>577</ele>
        <time>2019-08-17T08:32:17Z</time>
      </trkpt>
      <trkpt lat="44.35688" lon="5.91506">
        <ele>577</ele>
        <time>2019-08-17T08:32:18Z</time>
      </trkpt>
      <trkpt lat="44.35682" lon="5.91501">
        <ele>577</ele>
        <time>2019-08-17T08:32:19Z</time>
      </trkpt>
      <trkpt lat="44.35675" lon="5.91497">
        <ele>577</ele>
        <time>2019-08-17T08:32:20Z</time>
      </trkpt>
      <trkpt lat="44.35669" lon="5.91493">
        <ele>577</ele>
        <time>2019-08-17T08:32:21Z</time>
      </trkpt>
      <trkpt lat="44.35662" lon="5.91489">
        <ele>577</ele>
        <time>2019-08-17T08:32:22Z</time>
      </trkpt>
      <trkpt lat="44.35656" lon="5.91485">
        <ele>577</ele>
        <time>2019-08-17T08:32:23Z</time>
      </trkpt>
      <trkpt lat="44.3565" lon="5.9148">
        <ele>577</ele>
        <time>2019-08-17T08:32:24Z</time>
      </trkpt>
      <trkpt lat="44.35644" lon="5.91476">
        <ele>577</ele>
        <time>2019-08-17T08:32:25Z</time>
      </trkpt>
      <trkpt lat="44.35638" lon="5.91472">
        <ele>577</ele>
        <time>2019-08-17T08:32:26Z</time>
      </trkpt>
      <trkpt lat="44.35632" lon="5.91468">
        <ele>577</ele>
        <time>2019-08-17T08:32:27Z</time>
      </trkpt>
      <trkpt lat="44.35626" lon="5.91464">
        <ele>577</ele>
        <time>2019-08-17T08:32:28Z</time>
      </trkpt>
      <trkpt lat="44.3562" lon="5.91461">
        <ele>577</ele>
        <time>2019-08-17T08:32:29Z</time>
      </trkpt>
      <trkpt lat="44.35614" lon="5.91457">
        <ele>577</ele>
        <time>2019-08-17T08:32:30Z</time>
      </trkpt>
      <trkpt lat="44.35608" lon="5.91453">
        <ele>577</ele>
        <time>2019-08-17T08:32:31Z</time>
      </trkpt>
      <trkpt lat="44.35602" lon="5.91449">
        <ele>577</ele>
        <time>2019-08-17T08:32:32Z</time>
      </trkpt>
      <trkpt lat="44.35597" lon="5.91445">
        <ele>577</ele>
        <time>2019-08-17T08:32:33Z</time>
      </trkpt>
      <trkpt lat="44.35591" lon="5.91441">
        <ele>577</ele>
        <time>2019-08-17T08:32:34Z</time>
      </trkpt>
      <trkpt lat="44.35585" lon="5.91437">
        <ele>577</ele>
        <time>2019-08-17T08:32:35Z</time>
      </trkpt>
      <trkpt lat="44.3558" lon="5.91433">
        <ele>577</ele>
        <time>2019-08-17T08:32:36Z</time>
      </trkpt>
      <trkpt lat="44.35574" lon="5.91429">
        <ele>577</ele>
        <time>2019-08-17T08:32:37Z</time>
      </trkpt>
      <trkpt lat="44.35569" lon="5.91425">
        <ele>577</ele>
        <time>2019-08-17T08:32:38Z</time>
      </trkpt>
      <trkpt lat="44.35563" lon="5.91422">
        <ele>577</ele>
        <time>2019-08-17T08:32:39Z</time>
      </trkpt>
      <trkpt lat="44.35558" lon="5.91418">
        <ele>577</ele>
        <time>2019-08-17T08:32:40Z</time>
      </trkpt>
      <trkpt lat="44.35552" lon="5.91415">
        <ele>577</ele>
        <time>2019-08-17T08:32:41Z</time>
      </trkpt>
      <trkpt lat="44.35546" lon="5.91411">
        <ele>577</ele>
        <time>2019-08-17T08:32:42Z</time>
      </trkpt>
      <trkpt lat="44.35541" lon="5.91407">
        <ele>577</ele>
        <time>2019-08-17T08:32:43Z</time>
      </trkpt>
      <trkpt lat="44.35535" lon="5.91404">
        <ele>578</ele>
        <time>2019-08-17T08:32:44Z</time>
      </trkpt>
      <trkpt lat="44.3553" lon="5.914">
        <ele>578</ele>
        <time>2019-08-17T08:32:45Z</time>
      </trkpt>
      <trkpt lat="44.35524" lon="5.91397">
        <ele>578</ele>
        <time>2019-08-17T08:32:46Z</time>
      </trkpt>
      <trkpt lat="44.35519" lon="5.91393">
        <ele>578</ele>
        <time>2019-08-17T08:32:47Z</time>
      </trkpt>
      <trkpt lat="44.35513" lon="5.9139">
        <ele>578</ele>
        <time>2019-08-17T08:32:48Z</time>
      </trkpt>
      <trkpt lat="44.35508" lon="5.91387">
        <ele>578</ele>
        <time>2019-08-17T08:32:49Z</time>
      </trkpt>
      <trkpt lat="44.35502" lon="5.91383">
        <ele>578</ele>
        <time>2019-08-17T08:32:50Z</time>
      </trkpt>
      <trkpt lat="44.35496" lon="5.9138">
        <ele>578</ele>
        <time>2019-08-17T08:32:51Z</time>
      </trkpt>
      <trkpt lat="44.3549" lon="5.91376">
        <ele>578</ele>
        <time>2019-08-17T08:32:52Z</time>
      </trkpt>
      <trkpt lat="44.35484" lon="5.91372">
        <ele>578</ele>
        <time>2019-08-17T08:32:53Z</time>
      </trkpt>
      <trkpt lat="44.35477" lon="5.91369">
        <ele>578</ele>
        <time>2019-08-17T08:32:54Z</time>
      </trkpt>
      <trkpt lat="44.35471" lon="5.91364">
        <ele>578</ele>
        <time>2019-08-17T08:32:55Z</time>
      </trkpt>
      <trkpt lat="44.35465" lon="5.9136">
        <ele>578</ele>
        <time>2019-08-17T08:32:56Z</time>
      </trkpt>
      <trkpt lat="44.35459" lon="5.91356">
        <ele>578</ele>
        <time>2019-08-17T08:32:57Z</time>
      </trkpt>
      <trkpt lat="44.35452" lon="5.91352">
        <ele>578</ele>
        <time>2019-08-17T08:32:58Z</time>
      </trkpt>
      <trkpt lat="44.35445" lon="5.91348">
        <ele>578</ele>
        <time>2019-08-17T08:32:59Z</time>
      </trkpt>
      <trkpt lat="44.35439" lon="5.91343">
        <ele>578</ele>
        <time>2019-08-17T08:33:00Z</time>
      </trkpt>
      <trkpt lat="44.35432" lon="5.91339">
        <ele>578</ele>
        <time>2019-08-17T08:33:01Z</time>
      </trkpt>
      <trkpt lat="44.35426" lon="5.91334">
        <ele>578</ele>
        <time>2019-08-17T08:33:02Z</time>
      </trkpt>
      <trkpt lat="44.35419" lon="5.91329">
        <ele>578</ele>
        <time>2019-08-17T08:33:03Z</time>
      </trkpt>
      <trkpt lat="44.35413" lon="5.91324">
        <ele>578</ele>
        <time>2019-08-17T08:33:04Z</time>
      </trkpt>
      <trkpt lat="44.35406" lon="5.91319">
        <ele>578</ele>
        <time>2019-08-17T08:33:05Z</time>
      </trkpt>
      <trkpt lat="44.354" lon="5.91314">
        <ele>578</ele>
        <time>2019-08-17T08:33:06Z</time>
      </trkpt>
      <trkpt lat="44.35394" lon="5.91309">
        <ele>578</ele>
        <time>2019-08-17T08:33:07Z</time>
      </trkpt>
      <trkpt lat="44.35388" lon="5.91305">
        <ele>578</ele>
        <time>2019-08-17T08:33:08Z</time>
      </trkpt>
      <trkpt lat="44.35382" lon="5.913">
        <ele>578</ele>
        <time>2019-08-17T08:33:09Z</time>
      </trkpt>
      <trkpt lat="44.35376" lon="5.91295">
        <ele>578</ele>
        <time>2019-08-17T08:33:10Z</time>
      </trkpt>
      <trkpt lat="44.35369" lon="5.91291">
        <ele>578</ele>
        <time>2019-08-17T08:33:11Z</time>
      </trkpt>
      <trkpt lat="44.35363" lon="5.91285">
        <ele>578</ele>
        <time>2019-08-17T08:33:13Z</time>
      </trkpt>
      <trkpt lat="44.35357" lon="5.9128">
        <ele>578</ele>
        <time>2019-08-17T08:33:13Z</time>
      </trkpt>
      <trkpt lat="44.35351" lon="5.91275">
        <ele>578</ele>
        <time>2019-08-17T08:33:14Z</time>
      </trkpt>
      <trkpt lat="44.35344" lon="5.9127">
        <ele>578</ele>
        <time>2019-08-17T08:33:15Z</time>
      </trkpt>
      <trkpt lat="44.35338" lon="5.91264">
        <ele>578</ele>
        <time>2019-08-17T08:33:16Z</time>
      </trkpt>
      <trkpt lat="44.35332" lon="5.91259">
        <ele>578</ele>
        <time>2019-08-17T08:33:17Z</time>
      </trkpt>
      <trkpt lat="44.35325" lon="5.91254">
        <ele>578</ele>
        <time>2019-08-17T08:33:18Z</time>
      </trkpt>
      <trkpt lat="44.35318" lon="5.9125">
        <ele>578</ele>
        <time>2019-08-17T08:33:19Z</time>
      </trkpt>
      <trkpt lat="44.35312" lon="5.91245">
        <ele>578</ele>
        <time>2019-08-17T08:33:20Z</time>
      </trkpt>
      <trkpt lat="44.35305" lon="5.9124">
        <ele>578</ele>
        <time>2019-08-17T08:33:21Z</time>
      </trkpt>
      <trkpt lat="44.35299" lon="5.91235">
        <ele>578</ele>
        <time>2019-08-17T08:33:22Z</time>
      </trkpt>
      <trkpt lat="44.35292" lon="5.9123">
        <ele>578</ele>
        <time>2019-08-17T08:33:23Z</time>
      </trkpt>
      <trkpt lat="44.35286" lon="5.91225">
        <ele>578</ele>
        <time>2019-08-17T08:33:24Z</time>
      </trkpt>
      <trkpt lat="44.3528" lon="5.9122">
        <ele>578</ele>
        <time>2019-08-17T08:33:25Z</time>
      </trkpt>
      <trkpt lat="44.35273" lon="5.91215">
        <ele>578</ele>
        <time>2019-08-17T08:33:26Z</time>
      </trkpt>
      <trkpt lat="44.35267" lon="5.91209">
        <ele>578</ele>
        <time>2019-08-17T08:33:27Z</time>
      </trkpt>
      <trkpt lat="44.3526" lon="5.91203">
        <ele>578</ele>
        <time>2019-08-17T08:33:28Z</time>
      </trkpt>
      <trkpt lat="44.35254" lon="5.91198">
        <ele>578</ele>
        <time>2019-08-17T08:33:29Z</time>
      </trkpt>
      <trkpt lat="44.35248" lon="5.91192">
        <ele>578</ele>
        <time>2019-08-17T08:33:30Z</time>
      </trkpt>
      <trkpt lat="44.35241" lon="5.91186">
        <ele>578</ele>
        <time>2019-08-17T08:33:31Z</time>
      </trkpt>
      <trkpt lat="44.35235" lon="5.91181">
        <ele>578</ele>
        <time>2019-08-17T08:33:32Z</time>
      </trkpt>
      <trkpt lat="44.35228" lon="5.91175">
        <ele>578</ele>
        <time>2019-08-17T08:33:33Z</time>
      </trkpt>
      <trkpt lat="44.35221" lon="5.9117">
        <ele>578</ele>
        <time>2019-08-17T08:33:34Z</time>
      </trkpt>
      <trkpt lat="44.35215" lon="5.91164">
        <ele>578</ele>
        <time>2019-08-17T08:33:35Z</time>
      </trkpt>
      <trkpt lat="44.35209" lon="5.91158">
        <ele>578</ele>
        <time>2019-08-17T08:33:36Z</time>
      </trkpt>
      <trkpt lat="44.35202" lon="5.91152">
        <ele>578</ele>
        <time>2019-08-17T08:33:37Z</time>
      </trkpt>
      <trkpt lat="44.35196" lon="5.91146">
        <ele>578</ele>
        <time>2019-08-17T08:33:38Z</time>
      </trkpt>
      <trkpt lat="44.35189" lon="5.91139">
        <ele>578</ele>
        <time>2019-08-17T08:33:39Z</time>
      </trkpt>
      <trkpt lat="44.35183" lon="5.91133">
        <ele>578</ele>
        <time>2019-08-17T08:33:40Z</time>
      </trkpt>
      <trkpt lat="44.35176" lon="5.91127">
        <ele>578</ele>
        <time>2019-08-17T08:33:41Z</time>
      </trkpt>
      <trkpt lat="44.35169" lon="5.9112">
        <ele>578</ele>
        <time>2019-08-17T08:33:42Z</time>
      </trkpt>
      <trkpt lat="44.35162" lon="5.91114">
        <ele>578</ele>
        <time>2019-08-17T08:33:43Z</time>
      </trkpt>
      <trkpt lat="44.35155" lon="5.91107">
        <ele>578</ele>
        <time>2019-08-17T08:33:44Z</time>
      </trkpt>
      <trkpt lat="44.35149" lon="5.91101">
        <ele>578</ele>
        <time>2019-08-17T08:33:45Z</time>
      </trkpt>
      <trkpt lat="44.35141" lon="5.91094">
        <ele>578</ele>
        <time>2019-08-17T08:33:46Z</time>
      </trkpt>
      <trkpt lat="44.35134" lon="5.91087">
        <ele>578</ele>
        <time>2019-08-17T08:33:47Z</time>
      </trkpt>
      <trkpt lat="44.35127" lon="5.91081">
        <ele>578</ele>
        <time>2019-08-17T08:33:48Z</time>
      </trkpt>
      <trkpt lat="44.3512" lon="5.91074">
        <ele>577</ele>
        <time>2019-08-17T08:33:49Z</time>
      </trkpt>
      <trkpt lat="44.35113" lon="5.91068">
        <ele>577</ele>
        <time>2019-08-17T08:33:50Z</time>
      </trkpt>
      <trkpt lat="44.35106" lon="5.91061">
        <ele>577</ele>
        <time>2019-08-17T08:33:51Z</time>
      </trkpt>
      <trkpt lat="44.35099" lon="5.91055">
        <ele>577</ele>
        <time>2019-08-17T08:33:52Z</time>
      </trkpt>
      <trkpt lat="44.35092" lon="5.91048">
        <ele>576</ele>
        <time>2019-08-17T08:33:53Z</time>
      </trkpt>
      <trkpt lat="44.35085" lon="5.91042">
        <ele>576</ele>
        <time>2019-08-17T08:33:54Z</time>
      </trkpt>
      <trkpt lat="44.35077" lon="5.91035">
        <ele>576</ele>
        <time>2019-08-17T08:33:55Z</time>
      </trkpt>
      <trkpt lat="44.3507" lon="5.91028">
        <ele>576</ele>
        <time>2019-08-17T08:33:56Z</time>
      </trkpt>
      <trkpt lat="44.35063" lon="5.91021">
        <ele>575</ele>
        <time>2019-08-17T08:33:57Z</time>
      </trkpt>
      <trkpt lat="44.35056" lon="5.91015">
        <ele>575</ele>
        <time>2019-08-17T08:33:58Z</time>
      </trkpt>
      <trkpt lat="44.35049" lon="5.91008">
        <ele>575</ele>
        <time>2019-08-17T08:33:59Z</time>
      </trkpt>
      <trkpt lat="44.35042" lon="5.91001">
        <ele>575</ele>
        <time>2019-08-17T08:34:00Z</time>
      </trkpt>
      <trkpt lat="44.35035" lon="5.90995">
        <ele>574</ele>
        <time>2019-08-17T08:34:01Z</time>
      </trkpt>
      <trkpt lat="44.35027" lon="5.90988">
        <ele>574</ele>
        <time>2019-08-17T08:34:02Z</time>
      </trkpt>
      <trkpt lat="44.3502" lon="5.90981">
        <ele>573</ele>
        <time>2019-08-17T08:34:03Z</time>
      </trkpt>
      <trkpt lat="44.35013" lon="5.90974">
        <ele>573</ele>
        <time>2019-08-17T08:34:04Z</time>
      </trkpt>
      <trkpt lat="44.35006" lon="5.90967">
        <ele>573</ele>
        <time>2019-08-17T08:34:05Z</time>
      </trkpt>
      <trkpt lat="44.34999" lon="5.9096">
        <ele>572</ele>
        <time>2019-08-17T08:34:06Z</time>
      </trkpt>
      <trkpt lat="44.34991" lon="5.90953">
        <ele>572</ele>
        <time>2019-08-17T08:34:07Z</time>
      </trkpt>
      <trkpt lat="44.34984" lon="5.90947">
        <ele>572</ele>
        <time>2019-08-17T08:34:08Z</time>
      </trkpt>
      <trkpt lat="44.34977" lon="5.9094">
        <ele>571</ele>
        <time>2019-08-17T08:34:09Z</time>
      </trkpt>
      <trkpt lat="44.34969" lon="5.90933">
        <ele>571</ele>
        <time>2019-08-17T08:34:10Z</time>
      </trkpt>
      <trkpt lat="44.34961" lon="5.90927">
        <ele>571</ele>
        <time>2019-08-17T08:34:11Z</time>
      </trkpt>
      <trkpt lat="44.34954" lon="5.9092">
        <ele>570</ele>
        <time>2019-08-17T08:34:13Z</time>
      </trkpt>
      <trkpt lat="44.34946" lon="5.90913">
        <ele>570</ele>
        <time>2019-08-17T08:34:13Z</time>
      </trkpt>
      <trkpt lat="44.34938" lon="5.90907">
        <ele>570</ele>
        <time>2019-08-17T08:34:14Z</time>
      </trkpt>
      <trkpt lat="44.34931" lon="5.90901">
        <ele>570</ele>
        <time>2019-08-17T08:34:15Z</time>
      </trkpt>
      <trkpt lat="44.34924" lon="5.90896">
        <ele>570</ele>
        <time>2019-08-17T08:34:16Z</time>
      </trkpt>
      <trkpt lat="44.34917" lon="5.90891">
        <ele>570</ele>
        <time>2019-08-17T08:34:17Z</time>
      </trkpt>
      <trkpt lat="44.3491" lon="5.90886">
        <ele>570</ele>
        <time>2019-08-17T08:34:18Z</time>
      </trkpt>
      <trkpt lat="44.34903" lon="5.90881">
        <ele>570</ele>
        <time>2019-08-17T08:34:19Z</time>
      </trkpt>
      <trkpt lat="44.34896" lon="5.90877">
        <ele>570</ele>
        <time>2019-08-17T08:34:20Z</time>
      </trkpt>
      <trkpt lat="44.3489" lon="5.90872">
        <ele>570</ele>
        <time>2019-08-17T08:34:21Z</time>
      </trkpt>
      <trkpt lat="44.34883" lon="5.90868">
        <ele>570</ele>
        <time>2019-08-17T08:34:22Z</time>
      </trkpt>
      <trkpt lat="44.34877" lon="5.90863">
        <ele>570</ele>
        <time>2019-08-17T08:34:23Z</time>
      </trkpt>
      <trkpt lat="44.34872" lon="5.90858">
        <ele>570</ele>
        <time>2019-08-17T08:34:24Z</time>
      </trkpt>
      <trkpt lat="44.34865" lon="5.90854">
        <ele>570</ele>
        <time>2019-08-17T08:34:25Z</time>
      </trkpt>
      <trkpt lat="44.34859" lon="5.90849">
        <ele>570</ele>
        <time>2019-08-17T08:34:26Z</time>
      </trkpt>
      <trkpt lat="44.34853" lon="5.90845">
        <ele>570</ele>
        <time>2019-08-17T08:34:27Z</time>
      </trkpt>
      <trkpt lat="44.34847" lon="5.9084">
        <ele>570</ele>
        <time>2019-08-17T08:34:28Z</time>
      </trkpt>
      <trkpt lat="44.3484" lon="5.90835">
        <ele>570</ele>
        <time>2019-08-17T08:34:29Z</time>
      </trkpt>
      <trkpt lat="44.34834" lon="5.9083">
        <ele>570</ele>
        <time>2019-08-17T08:34:30Z</time>
      </trkpt>
      <trkpt lat="44.34828" lon="5.90825">
        <ele>570</ele>
        <time>2019-08-17T08:34:31Z</time>
      </trkpt>
      <trkpt lat="44.34822" lon="5.90821">
        <ele>570</ele>
        <time>2019-08-17T08:34:32Z</time>
      </trkpt>
      <trkpt lat="44.34816" lon="5.90815">
        <ele>570</ele>
        <time>2019-08-17T08:34:33Z</time>
      </trkpt>
      <trkpt lat="44.3481" lon="5.90811">
        <ele>570</ele>
        <time>2019-08-17T08:34:34Z</time>
      </trkpt>
      <trkpt lat="44.34804" lon="5.90806">
        <ele>570</ele>
        <time>2019-08-17T08:34:35Z</time>
      </trkpt>
      <trkpt lat="44.34798" lon="5.90801">
        <ele>570</ele>
        <time>2019-08-17T08:34:36Z</time>
      </trkpt>
      <trkpt lat="44.34792" lon="5.90796">
        <ele>570</ele>
        <time>2019-08-17T08:34:37Z</time>
      </trkpt>
      <trkpt lat="44.34786" lon="5.90791">
        <ele>570</ele>
        <time>2019-08-17T08:34:38Z</time>
      </trkpt>
      <trkpt lat="44.3478" lon="5.90787">
        <ele>570</ele>
        <time>2019-08-17T08:34:39Z</time>
      </trkpt>
      <trkpt lat="44.34775" lon="5.90782">
        <ele>570</ele>
        <time>2019-08-17T08:34:40Z</time>
      </trkpt>
      <trkpt lat="44.34769" lon="5.90777">
        <ele>570</ele>
        <time>2019-08-17T08:34:41Z</time>
      </trkpt>
      <trkpt lat="44.34763" lon="5.90773">
        <ele>570</ele>
        <time>2019-08-17T08:34:42Z</time>
      </trkpt>
      <trkpt lat="44.34758" lon="5.90768">
        <ele>570</ele>
        <time>2019-08-17T08:34:43Z</time>
      </trkpt>
      <trkpt lat="44.34752" lon="5.90763">
        <ele>570</ele>
        <time>2019-08-17T08:34:44Z</time>
      </trkpt>
      <trkpt lat="44.34747" lon="5.90759">
        <ele>570</ele>
        <time>2019-08-17T08:34:45Z</time>
      </trkpt>
      <trkpt lat="44.34741" lon="5.90754">
        <ele>570</ele>
        <time>2019-08-17T08:34:46Z</time>
      </trkpt>
      <trkpt lat="44.34735" lon="5.90749">
        <ele>570</ele>
        <time>2019-08-17T08:34:47Z</time>
      </trkpt>
      <trkpt lat="44.3473" lon="5.90745">
        <ele>570</ele>
        <time>2019-08-17T08:34:48Z</time>
      </trkpt>
      <trkpt lat="44.34724" lon="5.9074">
        <ele>570</ele>
        <time>2019-08-17T08:34:49Z</time>
      </trkpt>
      <trkpt lat="44.34718" lon="5.90736">
        <ele>570</ele>
        <time>2019-08-17T08:34:50Z</time>
      </trkpt>
      <trkpt lat="44.34713" lon="5.90732">
        <ele>570</ele>
        <time>2019-08-17T08:34:51Z</time>
      </trkpt>
      <trkpt lat="44.34707" lon="5.90729">
        <ele>570</ele>
        <time>2019-08-17T08:34:52Z</time>
      </trkpt>
      <trkpt lat="44.34702" lon="5.90725">
        <ele>570</ele>
        <time>2019-08-17T08:34:53Z</time>
      </trkpt>
      <trkpt lat="44.34696" lon="5.90721">
        <ele>570</ele>
        <time>2019-08-17T08:34:54Z</time>
      </trkpt>
      <trkpt lat="44.34691" lon="5.90718">
        <ele>570</ele>
        <time>2019-08-17T08:34:55Z</time>
      </trkpt>
      <trkpt lat="44.34686" lon="5.90714">
        <ele>570</ele>
        <time>2019-08-17T08:34:56Z</time>
      </trkpt>
      <trkpt lat="44.3468" lon="5.90711">
        <ele>570</ele>
        <time>2019-08-17T08:34:57Z</time>
      </trkpt>
      <trkpt lat="44.34675" lon="5.90707">
        <ele>570</ele>
        <time>2019-08-17T08:34:58Z</time>
      </trkpt>
      <trkpt lat="44.3467" lon="5.90704">
        <ele>571</ele>
        <time>2019-08-17T08:34:59Z</time>
      </trkpt>
      <trkpt lat="44.34665" lon="5.90701">
        <ele>571</ele>
        <time>2019-08-17T08:35:00Z</time>
      </trkpt>
      <trkpt lat="44.3466" lon="5.90698">
        <ele>571</ele>
        <time>2019-08-17T08:35:01Z</time>
      </trkpt>
      <trkpt lat="44.34655" lon="5.90694">
        <ele>572</ele>
        <time>2019-08-17T08:35:02Z</time>
      </trkpt>
      <trkpt lat="44.3465" lon="5.90691">
        <ele>572</ele>
        <time>2019-08-17T08:35:03Z</time>
      </trkpt>
      <trkpt lat="44.34645" lon="5.90688">
        <ele>572</ele>
        <time>2019-08-17T08:35:04Z</time>
      </trkpt>
      <trkpt lat="44.34641" lon="5.90685">
        <ele>573</ele>
        <time>2019-08-17T08:35:05Z</time>
      </trkpt>
      <trkpt lat="44.34636" lon="5.90682">
        <ele>573</ele>
        <time>2019-08-17T08:35:06Z</time>
      </trkpt>
      <trkpt lat="44.34632" lon="5.90679">
        <ele>574</ele>
        <time>2019-08-17T08:35:07Z</time>
      </trkpt>
      <trkpt lat="44.34627" lon="5.90675">
        <ele>574</ele>
        <time>2019-08-17T08:35:08Z</time>
      </trkpt>
      <trkpt lat="44.34623" lon="5.90672">
        <ele>574</ele>
        <time>2019-08-17T08:35:09Z</time>
      </trkpt>
      <trkpt lat="44.34618" lon="5.90668">
        <ele>574</ele>
        <time>2019-08-17T08:35:10Z</time>
      </trkpt>
      <trkpt lat="44.34614" lon="5.90664">
        <ele>575</ele>
        <time>2019-08-17T08:35:11Z</time>
      </trkpt>
      <trkpt lat="44.34609" lon="5.9066">
        <ele>575</ele>
        <time>2019-08-17T08:35:13Z</time>
      </trkpt>
      <trkpt lat="44.34604" lon="5.90656">
        <ele>575</ele>
        <time>2019-08-17T08:35:13Z</time>
      </trkpt>
      <trkpt lat="44.346" lon="5.90652">
        <ele>575</ele>
        <time>2019-08-17T08:35:14Z</time>
      </trkpt>
      <trkpt lat="44.34595" lon="5.90648">
        <ele>576</ele>
        <time>2019-08-17T08:35:15Z</time>
      </trkpt>
      <trkpt lat="44.3459" lon="5.90644">
        <ele>576</ele>
        <time>2019-08-17T08:35:16Z</time>
      </trkpt>
      <trkpt lat="44.34584" lon="5.9064">
        <ele>576</ele>
        <time>2019-08-17T08:35:17Z</time>
      </trkpt>
      <trkpt lat="44.34579" lon="5.90636">
        <ele>576</ele>
        <time>2019-08-17T08:35:18Z</time>
      </trkpt>
      <trkpt lat="44.34574" lon="5.90631">
        <ele>576</ele>
        <time>2019-08-17T08:35:19Z</time>
      </trkpt>
      <trkpt lat="44.34569" lon="5.90627">
        <ele>576</ele>
        <time>2019-08-17T08:35:20Z</time>
      </trkpt>
      <trkpt lat="44.34564" lon="5.90623">
        <ele>576</ele>
        <time>2019-08-17T08:35:21Z</time>
      </trkpt>
      <trkpt lat="44.34558" lon="5.90618">
        <ele>576</ele>
        <time>2019-08-17T08:35:22Z</time>
      </trkpt>
      <trkpt lat="44.34553" lon="5.90614">
        <ele>576</ele>
        <time>2019-08-17T08:35:23Z</time>
      </trkpt>
      <trkpt lat="44.34548" lon="5.90609">
        <ele>576</ele>
        <time>2019-08-17T08:35:24Z</time>
      </trkpt>
      <trkpt lat="44.34543" lon="5.90605">
        <ele>576</ele>
        <time>2019-08-17T08:35:25Z</time>
      </trkpt>
      <trkpt lat="44.34538" lon="5.906">
        <ele>576</ele>
        <time>2019-08-17T08:35:26Z</time>
      </trkpt>
      <trkpt lat="44.34533" lon="5.90596">
        <ele>576</ele>
        <time>2019-08-17T08:35:27Z</time>
      </trkpt>
      <trkpt lat="44.34527" lon="5.90591">
        <ele>576</ele>
        <time>2019-08-17T08:35:28Z</time>
      </trkpt>
      <trkpt lat="44.34522" lon="5.90587">
        <ele>576</ele>
        <time>2019-08-17T08:35:29Z</time>
      </trkpt>
      <trkpt lat="44.34516" lon="5.90582">
        <ele>576</ele>
        <time>2019-08-17T08:35:30Z</time>
      </trkpt>
      <trkpt lat="44.34511" lon="5.90578">
        <ele>576</ele>
        <time>2019-08-17T08:35:31Z</time>
      </trkpt>
      <trkpt lat="44.34505" lon="5.90573">
        <ele>576</ele>
        <time>2019-08-17T08:35:32Z</time>
      </trkpt>
      <trkpt lat="44.345" lon="5.90569">
        <ele>576</ele>
        <time>2019-08-17T08:35:33Z</time>
      </trkpt>
      <trkpt lat="44.34494" lon="5.90564">
        <ele>576</ele>
        <time>2019-08-17T08:35:34Z</time>
      </trkpt>
      <trkpt lat="44.34488" lon="5.90559">
        <ele>576</ele>
        <time>2019-08-17T08:35:35Z</time>
      </trkpt>
      <trkpt lat="44.34483" lon="5.90555">
        <ele>576</ele>
        <time>2019-08-17T08:35:36Z</time>
      </trkpt>
      <trkpt lat="44.34477" lon="5.9055">
        <ele>576</ele>
        <time>2019-08-17T08:35:37Z</time>
      </trkpt>
      <trkpt lat="44.34472" lon="5.90545">
        <ele>576</ele>
        <time>2019-08-17T08:35:38Z</time>
      </trkpt>
      <trkpt lat="44.34466" lon="5.9054">
        <ele>576</ele>
        <time>2019-08-17T08:35:39Z</time>
      </trkpt>
      <trkpt lat="44.3446" lon="5.90535">
        <ele>576</ele>
        <time>2019-08-17T08:35:40Z</time>
      </trkpt>
      <trkpt lat="44.34455" lon="5.9053">
        <ele>576</ele>
        <time>2019-08-17T08:35:41Z</time>
      </trkpt>
      <trkpt lat="44.3445" lon="5.90525">
        <ele>576</ele>
        <time>2019-08-17T08:35:42Z</time>
      </trkpt>
      <trkpt lat="44.34444" lon="5.9052">
        <ele>576</ele>
        <time>2019-08-17T08:35:43Z</time>
      </trkpt>
      <trkpt lat="44.34439" lon="5.90515">
        <ele>576</ele>
        <time>2019-08-17T08:35:44Z</time>
      </trkpt>
      <trkpt lat="44.34434" lon="5.9051">
        <ele>576</ele>
        <time>2019-08-17T08:35:45Z</time>
      </trkpt>
      <trkpt lat="44.34429" lon="5.90506">
        <ele>576</ele>
        <time>2019-08-17T08:35:46Z</time>
      </trkpt>
      <trkpt lat="44.34424" lon="5.905">
        <ele>576</ele>
        <time>2019-08-17T08:35:47Z</time>
      </trkpt>
      <trkpt lat="44.3442" lon="5.90495">
        <ele>576</ele>
        <time>2019-08-17T08:35:48Z</time>
      </trkpt>
      <trkpt lat="44.34416" lon="5.90489">
        <ele>577</ele>
        <time>2019-08-17T08:35:49Z</time>
      </trkpt>
      <trkpt lat="44.34412" lon="5.90483">
        <ele>577</ele>
        <time>2019-08-17T08:35:50Z</time>
      </trkpt>
      <trkpt lat="44.34409" lon="5.90476">
        <ele>577</ele>
        <time>2019-08-17T08:35:51Z</time>
      </trkpt>
      <trkpt lat="44.34406" lon="5.9047">
        <ele>578</ele>
        <time>2019-08-17T08:35:52Z</time>
      </trkpt>
      <trkpt lat="44.34401" lon="5.90465">
        <ele>578</ele>
        <time>2019-08-17T08:35:53Z</time>
      </trkpt>
      <trkpt lat="44.34397" lon="5.90461">
        <ele>578</ele>
        <time>2019-08-17T08:35:54Z</time>
      </trkpt>
      <trkpt lat="44.34392" lon="5.90458">
        <ele>578</ele>
        <time>2019-08-17T08:35:55Z</time>
      </trkpt>
      <trkpt lat="44.34387" lon="5.90455">
        <ele>579</ele>
        <time>2019-08-17T08:35:56Z</time>
      </trkpt>
      <trkpt lat="44.34382" lon="5.90452">
        <ele>579</ele>
        <time>2019-08-17T08:35:57Z</time>
      </trkpt>
      <trkpt lat="44.34375" lon="5.90449">
        <ele>579</ele>
        <time>2019-08-17T08:35:58Z</time>
      </trkpt>
      <trkpt lat="44.34369" lon="5.90445">
        <ele>579</ele>
        <time>2019-08-17T08:35:59Z</time>
      </trkpt>
      <trkpt lat="44.34362" lon="5.90441">
        <ele>579</ele>
        <time>2019-08-17T08:36:00Z</time>
      </trkpt>
      <trkpt lat="44.34355" lon="5.90437">
        <ele>579</ele>
        <time>2019-08-17T08:36:01Z</time>
      </trkpt>
      <trkpt lat="44.34347" lon="5.90433">
        <ele>579</ele>
        <time>2019-08-17T08:36:02Z</time>
      </trkpt>
      <trkpt lat="44.3434" lon="5.90428">
        <ele>579</ele>
        <time>2019-08-17T08:36:03Z</time>
      </trkpt>
      <trkpt lat="44.34332" lon="5.90423">
        <ele>579</ele>
        <time>2019-08-17T08:36:04Z</time>
      </trkpt>
      <trkpt lat="44.34325" lon="5.90417">
        <ele>579</ele>
        <time>2019-08-17T08:36:05Z</time>
      </trkpt>
      <trkpt lat="44.34318" lon="5.90411">
        <ele>579</ele>
        <time>2019-08-17T08:36:06Z</time>
      </trkpt>
      <trkpt lat="44.34311" lon="5.90405">
        <ele>579</ele>
        <time>2019-08-17T08:36:07Z</time>
      </trkpt>
      <trkpt lat="44.34305" lon="5.90399">
        <ele>579</ele>
        <time>2019-08-17T08:36:08Z</time>
      </trkpt>
      <trkpt lat="44.34298" lon="5.90393">
        <ele>579</ele>
        <time>2019-08-17T08:36:09Z</time>
      </trkpt>
      <trkpt lat="44.34292" lon="5.90387">
        <ele>579</ele>
        <time>2019-08-17T08:36:10Z</time>
      </trkpt>
      <trkpt lat="44.34286" lon="5.9038">
        <ele>579</ele>
        <time>2019-08-17T08:36:11Z</time>
      </trkpt>
      <trkpt lat="44.34281" lon="5.90374">
        <ele>579</ele>
        <time>2019-08-17T08:36:13Z</time>
      </trkpt>
      <trkpt lat="44.34275" lon="5.90368">
        <ele>579</ele>
        <time>2019-08-17T08:36:13Z</time>
      </trkpt>
      <trkpt lat="44.3427" lon="5.90362">
        <ele>579</ele>
        <time>2019-08-17T08:36:14Z</time>
      </trkpt>
      <trkpt lat="44.34265" lon="5.90356">
        <ele>579</ele>
        <time>2019-08-17T08:36:15Z</time>
      </trkpt>
      <trkpt lat="44.3426" lon="5.9035">
        <ele>579</ele>
        <time>2019-08-17T08:36:16Z</time>
      </trkpt>
      <trkpt lat="44.34255" lon="5.90344">
        <ele>579</ele>
        <time>2019-08-17T08:36:17Z</time>
      </trkpt>
      <trkpt lat="44.34251" lon="5.90339">
        <ele>579</ele>
        <time>2019-08-17T08:36:18Z</time>
      </trkpt>
      <trkpt lat="44.34247" lon="5.90333">
        <ele>579</ele>
        <time>2019-08-17T08:36:19Z</time>
      </trkpt>
      <trkpt lat="44.34243" lon="5.90328">
        <ele>579</ele>
        <time>2019-08-17T08:36:20Z</time>
      </trkpt>
      <trkpt lat="44.34238" lon="5.90323">
        <ele>579</ele>
        <time>2019-08-17T08:36:21Z</time>
      </trkpt>
      <trkpt lat="44.34235" lon="5.90318">
        <ele>579</ele>
        <time>2019-08-17T08:36:22Z</time>
      </trkpt>
      <trkpt lat="44.34231" lon="5.90313">
        <ele>579</ele>
        <time>2019-08-17T08:36:23Z</time>
      </trkpt>
      <trkpt lat="44.34227" lon="5.90308">
        <ele>579</ele>
        <time>2019-08-17T08:36:24Z</time>
      </trkpt>
      <trkpt lat="44.34223" lon="5.90303">
        <ele>580</ele>
        <time>2019-08-17T08:36:25Z</time>
      </trkpt>
      <trkpt lat="44.34219" lon="5.90299">
        <ele>580</ele>
        <time>2019-08-17T08:36:26Z</time>
      </trkpt>
      <trkpt lat="44.34216" lon="5.90294">
        <ele>581</ele>
        <time>2019-08-17T08:36:27Z</time>
      </trkpt>
      <trkpt lat="44.34212" lon="5.90289">
        <ele>581</ele>
        <time>2019-08-17T08:36:28Z</time>
      </trkpt>
      <trkpt lat="44.34209" lon="5.90284">
        <ele>581</ele>
        <time>2019-08-17T08:36:29Z</time>
      </trkpt>
      <trkpt lat="44.34205" lon="5.90279">
        <ele>582</ele>
        <time>2019-08-17T08:36:30Z</time>
      </trkpt>
      <trkpt lat="44.34201" lon="5.90274">
        <ele>582</ele>
        <time>2019-08-17T08:36:31Z</time>
      </trkpt>
      <trkpt lat="44.34198" lon="5.9027">
        <ele>582</ele>
        <time>2019-08-17T08:36:32Z</time>
      </trkpt>
      <trkpt lat="44.34194" lon="5.90265">
        <ele>583</ele>
        <time>2019-08-17T08:36:33Z</time>
      </trkpt>
      <trkpt lat="44.34191" lon="5.90261">
        <ele>583</ele>
        <time>2019-08-17T08:36:34Z</time>
      </trkpt>
      <trkpt lat="44.34187" lon="5.90256">
        <ele>583</ele>
        <time>2019-08-17T08:36:35Z</time>
      </trkpt>
      <trkpt lat="44.34184" lon="5.90251">
        <ele>583</ele>
        <time>2019-08-17T08:36:36Z</time>
      </trkpt>
      <trkpt lat="44.3418" lon="5.90247">
        <ele>583</ele>
        <time>2019-08-17T08:36:37Z</time>
      </trkpt>
      <trkpt lat="44.34177" lon="5.90242">
        <ele>583</ele>
        <time>2019-08-17T08:36:38Z</time>
      </trkpt>
      <trkpt lat="44.34173" lon="5.90238">
        <ele>584</ele>
        <time>2019-08-17T08:36:39Z</time>
      </trkpt>
      <trkpt lat="44.34169" lon="5.90233">
        <ele>584</ele>
        <time>2019-08-17T08:36:40Z</time>
      </trkpt>
      <trkpt lat="44.34166" lon="5.90229">
        <ele>584</ele>
        <time>2019-08-17T08:36:41Z</time>
      </trkpt>
      <trkpt lat="44.34163" lon="5.90225">
        <ele>584</ele>
        <time>2019-08-17T08:36:42Z</time>
      </trkpt>
      <trkpt lat="44.34159" lon="5.9022">
        <ele>584</ele>
        <time>2019-08-17T08:36:43Z</time>
      </trkpt>
      <trkpt lat="44.34156" lon="5.90216">
        <ele>584</ele>
        <time>2019-08-17T08:36:44Z</time>
      </trkpt>
      <trkpt lat="44.34152" lon="5.90211">
        <ele>584</ele>
        <time>2019-08-17T08:36:45Z</time>
      </trkpt>
      <trkpt lat="44.34148" lon="5.90207">
        <ele>585</ele>
        <time>2019-08-17T08:36:46Z</time>
      </trkpt>
      <trkpt lat="44.34144" lon="5.90202">
        <ele>585</ele>
        <time>2019-08-17T08:36:47Z</time>
      </trkpt>
      <trkpt lat="44.3414" lon="5.90198">
        <ele>585</ele>
        <time>2019-08-17T08:36:48Z</time>
      </trkpt>
      <trkpt lat="44.34135" lon="5.90193">
        <ele>585</ele>
        <time>2019-08-17T08:36:49Z</time>
      </trkpt>
      <trkpt lat="44.34131" lon="5.90187">
        <ele>585</ele>
        <time>2019-08-17T08:36:50Z</time>
      </trkpt>
      <trkpt lat="44.34127" lon="5.90182">
        <ele>585</ele>
        <time>2019-08-17T08:36:51Z</time>
      </trkpt>
      <trkpt lat="44.34122" lon="5.90178">
        <ele>585</ele>
        <time>2019-08-17T08:36:52Z</time>
      </trkpt>
      <trkpt lat="44.34117" lon="5.90173">
        <ele>585</ele>
        <time>2019-08-17T08:36:53Z</time>
      </trkpt>
      <trkpt lat="44.34112" lon="5.90169">
        <ele>585</ele>
        <time>2019-08-17T08:36:54Z</time>
      </trkpt>
      <trkpt lat="44.34107" lon="5.90164">
        <ele>585</ele>
        <time>2019-08-17T08:36:55Z</time>
      </trkpt>
      <trkpt lat="44.34102" lon="5.90159">
        <ele>585</ele>
        <time>2019-08-17T08:36:56Z</time>
      </trkpt>
      <trkpt lat="44.34096" lon="5.90154">
        <ele>585</ele>
        <time>2019-08-17T08:36:57Z</time>
      </trkpt>
      <trkpt lat="44.3409" lon="5.90149">
        <ele>585</ele>
        <time>2019-08-17T08:36:58Z</time>
      </trkpt>
      <trkpt lat="44.34084" lon="5.90143">
        <ele>585</ele>
        <time>2019-08-17T08:36:59Z</time>
      </trkpt>
      <trkpt lat="44.34078" lon="5.90138">
        <ele>585</ele>
        <time>2019-08-17T08:37:00Z</time>
      </trkpt>
      <trkpt lat="44.34071" lon="5.90132">
        <ele>585</ele>
        <time>2019-08-17T08:37:01Z</time>
      </trkpt>
      <trkpt lat="44.34064" lon="5.90127">
        <ele>585</ele>
        <time>2019-08-17T08:37:02Z</time>
      </trkpt>
      <trkpt lat="44.34057" lon="5.9012">
        <ele>585</ele>
        <time>2019-08-17T08:37:03Z</time>
      </trkpt>
      <trkpt lat="44.3405" lon="5.90113">
        <ele>585</ele>
        <time>2019-08-17T08:37:04Z</time>
      </trkpt>
      <trkpt lat="44.34042" lon="5.90106">
        <ele>585</ele>
        <time>2019-08-17T08:37:05Z</time>
      </trkpt>
      <trkpt lat="44.34034" lon="5.90099">
        <ele>585</ele>
        <time>2019-08-17T08:37:06Z</time>
      </trkpt>
      <trkpt lat="44.34026" lon="5.90092">
        <ele>585</ele>
        <time>2019-08-17T08:37:07Z</time>
      </trkpt>
      <trkpt lat="44.34018" lon="5.90085">
        <ele>585</ele>
        <time>2019-08-17T08:37:08Z</time>
      </trkpt>
      <trkpt lat="44.3401" lon="5.90077">
        <ele>585</ele>
        <time>2019-08-17T08:37:09Z</time>
      </trkpt>
      <trkpt lat="44.34002" lon="5.9007">
        <ele>584</ele>
        <time>2019-08-17T08:37:10Z</time>
      </trkpt>
      <trkpt lat="44.33994" lon="5.90062">
        <ele>584</ele>
        <time>2019-08-17T08:37:11Z</time>
      </trkpt>
      <trkpt lat="44.33986" lon="5.90054">
        <ele>584</ele>
        <time>2019-08-17T08:37:13Z</time>
      </trkpt>
      <trkpt lat="44.33979" lon="5.90046">
        <ele>583</ele>
        <time>2019-08-17T08:37:13Z</time>
      </trkpt>
      <trkpt lat="44.33971" lon="5.90038">
        <ele>583</ele>
        <time>2019-08-17T08:37:14Z</time>
      </trkpt>
      <trkpt lat="44.33964" lon="5.9003">
        <ele>583</ele>
        <time>2019-08-17T08:37:15Z</time>
      </trkpt>
      <trkpt lat="44.33957" lon="5.90023">
        <ele>583</ele>
        <time>2019-08-17T08:37:16Z</time>
      </trkpt>
      <trkpt lat="44.3395" lon="5.90015">
        <ele>583</ele>
        <time>2019-08-17T08:37:17Z</time>
      </trkpt>
      <trkpt lat="44.33944" lon="5.90008">
        <ele>583</ele>
        <time>2019-08-17T08:37:18Z</time>
      </trkpt>
      <trkpt lat="44.33938" lon="5.90001">
        <ele>583</ele>
        <time>2019-08-17T08:37:19Z</time>
      </trkpt>
      <trkpt lat="44.33933" lon="5.89994">
        <ele>583</ele>
        <time>2019-08-17T08:37:20Z</time>
      </trkpt>
      <trkpt lat="44.33927" lon="5.89988">
        <ele>583</ele>
        <time>2019-08-17T08:37:21Z</time>
      </trkpt>
      <trkpt lat="44.33922" lon="5.89982">
        <ele>583</ele>
        <time>2019-08-17T08:37:22Z</time>
      </trkpt>
      <trkpt lat="44.33916" lon="5.89977">
        <ele>583</ele>
        <time>2019-08-17T08:37:23Z</time>
      </trkpt>
      <trkpt lat="44.3391" lon="5.8997">
        <ele>583</ele>
        <time>2019-08-17T08:37:24Z</time>
      </trkpt>
      <trkpt lat="44.33904" lon="5.89964">
        <ele>583</ele>
        <time>2019-08-17T08:37:25Z</time>
      </trkpt>
      <trkpt lat="44.33898" lon="5.89958">
        <ele>583</ele>
        <time>2019-08-17T08:37:26Z</time>
      </trkpt>
      <trkpt lat="44.33892" lon="5.89952">
        <ele>583</ele>
        <time>2019-08-17T08:37:27Z</time>
      </trkpt>
      <trkpt lat="44.33886" lon="5.89946">
        <ele>583</ele>
        <time>2019-08-17T08:37:28Z</time>
      </trkpt>
      <trkpt lat="44.33879" lon="5.89939">
        <ele>583</ele>
        <time>2019-08-17T08:37:29Z</time>
      </trkpt>
      <trkpt lat="44.33873" lon="5.89933">
        <ele>583</ele>
        <time>2019-08-17T08:37:30Z</time>
      </trkpt>
      <trkpt lat="44.33867" lon="5.89927">
        <ele>583</ele>
        <time>2019-08-17T08:37:31Z</time>
      </trkpt>
      <trkpt lat="44.3386" lon="5.89922">
        <ele>583</ele>
        <time>2019-08-17T08:37:32Z</time>
      </trkpt>
      <trkpt lat="44.33854" lon="5.89916">
        <ele>583</ele>
        <time>2019-08-17T08:37:33Z</time>
      </trkpt>
      <trkpt lat="44.33847" lon="5.89911">
        <ele>583</ele>
        <time>2019-08-17T08:37:34Z</time>
      </trkpt>
      <trkpt lat="44.33839" lon="5.89905">
        <ele>583</ele>
        <time>2019-08-17T08:37:35Z</time>
      </trkpt>
      <trkpt lat="44.33832" lon="5.89899">
        <ele>583</ele>
        <time>2019-08-17T08:37:36Z</time>
      </trkpt>
      <trkpt lat="44.33824" lon="5.89894">
        <ele>582</ele>
        <time>2019-08-17T08:37:37Z</time>
      </trkpt>
      <trkpt lat="44.33816" lon="5.89888">
        <ele>582</ele>
        <time>2019-08-17T08:37:38Z</time>
      </trkpt>
      <trkpt lat="44.33808" lon="5.89882">
        <ele>581</ele>
        <time>2019-08-17T08:37:39Z</time>
      </trkpt>
      <trkpt lat="44.338" lon="5.89876">
        <ele>581</ele>
        <time>2019-08-17T08:37:40Z</time>
      </trkpt>
      <trkpt lat="44.33791" lon="5.8987">
        <ele>581</ele>
        <time>2019-08-17T08:37:41Z</time>
      </trkpt>
      <trkpt lat="44.33783" lon="5.89863">
        <ele>580</ele>
        <time>2019-08-17T08:37:42Z</time>
      </trkpt>
      <trkpt lat="44.33775" lon="5.89856">
        <ele>580</ele>
        <time>2019-08-17T08:37:43Z</time>
      </trkpt>
      <trkpt lat="44.33766" lon="5.8985">
        <ele>579</ele>
        <time>2019-08-17T08:37:44Z</time>
      </trkpt>
      <trkpt lat="44.33758" lon="5.89843">
        <ele>579</ele>
        <time>2019-08-17T08:37:45Z</time>
      </trkpt>
      <trkpt lat="44.33749" lon="5.89836">
        <ele>579</ele>
        <time>2019-08-17T08:37:46Z</time>
      </trkpt>
      <trkpt lat="44.33741" lon="5.89828">
        <ele>578</ele>
        <time>2019-08-17T08:37:47Z</time>
      </trkpt>
      <trkpt lat="44.33733" lon="5.89822">
        <ele>578</ele>
        <time>2019-08-17T08:37:48Z</time>
      </trkpt>
      <trkpt lat="44.33725" lon="5.89816">
        <ele>578</ele>
        <time>2019-08-17T08:37:49Z</time>
      </trkpt>
      <trkpt lat="44.33717" lon="5.89811">
        <ele>578</ele>
        <time>2019-08-17T08:37:50Z</time>
      </trkpt>
      <trkpt lat="44.33709" lon="5.89806">
        <ele>578</ele>
        <time>2019-08-17T08:37:51Z</time>
      </trkpt>
      <trkpt lat="44.33701" lon="5.89802">
        <ele>578</ele>
        <time>2019-08-17T08:37:52Z</time>
      </trkpt>
      <trkpt lat="44.33694" lon="5.89798">
        <ele>578</ele>
        <time>2019-08-17T08:37:53Z</time>
      </trkpt>
      <trkpt lat="44.33687" lon="5.89794">
        <ele>578</ele>
        <time>2019-08-17T08:37:54Z</time>
      </trkpt>
      <trkpt lat="44.3368" lon="5.8979">
        <ele>578</ele>
        <time>2019-08-17T08:37:55Z</time>
      </trkpt>
      <trkpt lat="44.33674" lon="5.89787">
        <ele>578</ele>
        <time>2019-08-17T08:37:56Z</time>
      </trkpt>
      <trkpt lat="44.33667" lon="5.89783">
        <ele>578</ele>
        <time>2019-08-17T08:37:57Z</time>
      </trkpt>
      <trkpt lat="44.33661" lon="5.8978">
        <ele>578</ele>
        <time>2019-08-17T08:37:58Z</time>
      </trkpt>
      <trkpt lat="44.33654" lon="5.89777">
        <ele>578</ele>
        <time>2019-08-17T08:37:59Z</time>
      </trkpt>
      <trkpt lat="44.33648" lon="5.89773">
        <ele>578</ele>
        <time>2019-08-17T08:38:00Z</time>
      </trkpt>
      <trkpt lat="44.33642" lon="5.89769">
        <ele>578</ele>
        <time>2019-08-17T08:38:01Z</time>
      </trkpt>
      <trkpt lat="44.33635" lon="5.89765">
        <ele>578</ele>
        <time>2019-08-17T08:38:02Z</time>
      </trkpt>
      <trkpt lat="44.33629" lon="5.89761">
        <ele>578</ele>
        <time>2019-08-17T08:38:03Z</time>
      </trkpt>
      <trkpt lat="44.33623" lon="5.89758">
        <ele>578</ele>
        <time>2019-08-17T08:38:04Z</time>
      </trkpt>
      <trkpt lat="44.33616" lon="5.89754">
        <ele>578</ele>
        <time>2019-08-17T08:38:05Z</time>
      </trkpt>
      <trkpt lat="44.3361" lon="5.89751">
        <ele>578</ele>
        <time>2019-08-17T08:38:06Z</time>
      </trkpt>
      <trkpt lat="44.33603" lon="5.89748">
        <ele>578</ele>
        <time>2019-08-17T08:38:07Z</time>
      </trkpt>
      <trkpt lat="44.33597" lon="5.89745">
        <ele>578</ele>
        <time>2019-08-17T08:38:08Z</time>
      </trkpt>
      <trkpt lat="44.3359" lon="5.89741">
        <ele>578</ele>
        <time>2019-08-17T08:38:09Z</time>
      </trkpt>
      <trkpt lat="44.33584" lon="5.89738">
        <ele>578</ele>
        <time>2019-08-17T08:38:10Z</time>
      </trkpt>
      <trkpt lat="44.33577" lon="5.89735">
        <ele>578</ele>
        <time>2019-08-17T08:38:11Z</time>
      </trkpt>
      <trkpt lat="44.33571" lon="5.89732">
        <ele>578</ele>
        <time>2019-08-17T08:38:12Z</time>
      </trkpt>
      <trkpt lat="44.33564" lon="5.89729">
        <ele>578</ele>
        <time>2019-08-17T08:38:13Z</time>
      </trkpt>
      <trkpt lat="44.33558" lon="5.89726">
        <ele>578</ele>
        <time>2019-08-17T08:38:14Z</time>
      </trkpt>
      <trkpt lat="44.33551" lon="5.89723">
        <ele>578</ele>
        <time>2019-08-17T08:38:15Z</time>
      </trkpt>
      <trkpt lat="44.33545" lon="5.8972">
        <ele>578</ele>
        <time>2019-08-17T08:38:16Z</time>
      </trkpt>
      <trkpt lat="44.33538" lon="5.89717">
        <ele>578</ele>
        <time>2019-08-17T08:38:17Z</time>
      </trkpt>
      <trkpt lat="44.33532" lon="5.89713">
        <ele>578</ele>
        <time>2019-08-17T08:38:18Z</time>
      </trkpt>
      <trkpt lat="44.33525" lon="5.8971">
        <ele>577</ele>
        <time>2019-08-17T08:38:19Z</time>
      </trkpt>
      <trkpt lat="44.33519" lon="5.89706">
        <ele>577</ele>
        <time>2019-08-17T08:38:20Z</time>
      </trkpt>
      <trkpt lat="44.33513" lon="5.89703">
        <ele>577</ele>
        <time>2019-08-17T08:38:21Z</time>
      </trkpt>
      <trkpt lat="44.33506" lon="5.897">
        <ele>577</ele>
        <time>2019-08-17T08:38:22Z</time>
      </trkpt>
      <trkpt lat="44.335" lon="5.89697">
        <ele>577</ele>
        <time>2019-08-17T08:38:23Z</time>
      </trkpt>
      <trkpt lat="44.33494" lon="5.89694">
        <ele>577</ele>
        <time>2019-08-17T08:38:24Z</time>
      </trkpt>
      <trkpt lat="44.33487" lon="5.89691">
        <ele>577</ele>
        <time>2019-08-17T08:38:25Z</time>
      </trkpt>
      <trkpt lat="44.3348" lon="5.89688">
        <ele>577</ele>
        <time>2019-08-17T08:38:26Z</time>
      </trkpt>
      <trkpt lat="44.33473" lon="5.89685">
        <ele>577</ele>
        <time>2019-08-17T08:38:27Z</time>
      </trkpt>
      <trkpt lat="44.33466" lon="5.89682">
        <ele>577</ele>
        <time>2019-08-17T08:38:28Z</time>
      </trkpt>
      <trkpt lat="44.33459" lon="5.89679">
        <ele>577</ele>
        <time>2019-08-17T08:38:29Z</time>
      </trkpt>
      <trkpt lat="44.33452" lon="5.89677">
        <ele>577</ele>
        <time>2019-08-17T08:38:30Z</time>
      </trkpt>
      <trkpt lat="44.33446" lon="5.89673">
        <ele>577</ele>
        <time>2019-08-17T08:38:31Z</time>
      </trkpt>
      <trkpt lat="44.3344" lon="5.8967">
        <ele>577</ele>
        <time>2019-08-17T08:38:32Z</time>
      </trkpt>
      <trkpt lat="44.33433" lon="5.89666">
        <ele>577</ele>
        <time>2019-08-17T08:38:33Z</time>
      </trkpt>
      <trkpt lat="44.33427" lon="5.89663">
        <ele>577</ele>
        <time>2019-08-17T08:38:34Z</time>
      </trkpt>
      <trkpt lat="44.3342" lon="5.8966">
        <ele>577</ele>
        <time>2019-08-17T08:38:35Z</time>
      </trkpt>
      <trkpt lat="44.33414" lon="5.89656">
        <ele>577</ele>
        <time>2019-08-17T08:38:36Z</time>
      </trkpt>
      <trkpt lat="44.33407" lon="5.89653">
        <ele>577</ele>
        <time>2019-08-17T08:38:37Z</time>
      </trkpt>
      <trkpt lat="44.33401" lon="5.8965">
        <ele>577</ele>
        <time>2019-08-17T08:38:38Z</time>
      </trkpt>
      <trkpt lat="44.33394" lon="5.89647">
        <ele>577</ele>
        <time>2019-08-17T08:38:39Z</time>
      </trkpt>
      <trkpt lat="44.33387" lon="5.89644">
        <ele>577</ele>
        <time>2019-08-17T08:38:40Z</time>
      </trkpt>
      <trkpt lat="44.33381" lon="5.89641">
        <ele>577</ele>
        <time>2019-08-17T08:38:41Z</time>
      </trkpt>
      <trkpt lat="44.33374" lon="5.89638">
        <ele>577</ele>
        <time>2019-08-17T08:38:42Z</time>
      </trkpt>
      <trkpt lat="44.33368" lon="5.89635">
        <ele>577</ele>
        <time>2019-08-17T08:38:43Z</time>
      </trkpt>
      <trkpt lat="44.33361" lon="5.89632">
        <ele>577</ele>
        <time>2019-08-17T08:38:44Z</time>
      </trkpt>
      <trkpt lat="44.33354" lon="5.89629">
        <ele>577</ele>
        <time>2019-08-17T08:38:45Z</time>
      </trkpt>
      <trkpt lat="44.33348" lon="5.89626">
        <ele>577</ele>
        <time>2019-08-17T08:38:46Z</time>
      </trkpt>
      <trkpt lat="44.33341" lon="5.89622">
        <ele>577</ele>
        <time>2019-08-17T08:38:47Z</time>
      </trkpt>
      <trkpt lat="44.33334" lon="5.8962">
        <ele>577</ele>
        <time>2019-08-17T08:38:48Z</time>
      </trkpt>
      <trkpt lat="44.33328" lon="5.89617">
        <ele>577</ele>
        <time>2019-08-17T08:38:49Z</time>
      </trkpt>
      <trkpt lat="44.33321" lon="5.89614">
        <ele>577</ele>
        <time>2019-08-17T08:38:50Z</time>
      </trkpt>
      <trkpt lat="44.33314" lon="5.89611">
        <ele>577</ele>
        <time>2019-08-17T08:38:51Z</time>
      </trkpt>
      <trkpt lat="44.33307" lon="5.89608">
        <ele>577</ele>
        <time>2019-08-17T08:38:52Z</time>
      </trkpt>
      <trkpt lat="44.333" lon="5.89606">
        <ele>577</ele>
        <time>2019-08-17T08:38:53Z</time>
      </trkpt>
      <trkpt lat="44.33293" lon="5.89603">
        <ele>577</ele>
        <time>2019-08-17T08:38:54Z</time>
      </trkpt>
      <trkpt lat="44.33286" lon="5.89601">
        <ele>577</ele>
        <time>2019-08-17T08:38:55Z</time>
      </trkpt>
      <trkpt lat="44.33279" lon="5.89598">
        <ele>577</ele>
        <time>2019-08-17T08:38:56Z</time>
      </trkpt>
      <trkpt lat="44.33273" lon="5.89595">
        <ele>577</ele>
        <time>2019-08-17T08:38:57Z</time>
      </trkpt>
      <trkpt lat="44.33266" lon="5.89593">
        <ele>577</ele>
        <time>2019-08-17T08:38:58Z</time>
      </trkpt>
      <trkpt lat="44.3326" lon="5.8959">
        <ele>577</ele>
        <time>2019-08-17T08:38:59Z</time>
      </trkpt>
      <trkpt lat="44.33253" lon="5.89587">
        <ele>577</ele>
        <time>2019-08-17T08:39:00Z</time>
      </trkpt>
      <trkpt lat="44.33246" lon="5.89585">
        <ele>577</ele>
        <time>2019-08-17T08:39:01Z</time>
      </trkpt>
      <trkpt lat="44.33239" lon="5.89582">
        <ele>577</ele>
        <time>2019-08-17T08:39:02Z</time>
      </trkpt>
      <trkpt lat="44.33232" lon="5.8958">
        <ele>577</ele>
        <time>2019-08-17T08:39:03Z</time>
      </trkpt>
      <trkpt lat="44.33226" lon="5.89577">
        <ele>577</ele>
        <time>2019-08-17T08:39:04Z</time>
      </trkpt>
      <trkpt lat="44.33219" lon="5.89575">
        <ele>577</ele>
        <time>2019-08-17T08:39:05Z</time>
      </trkpt>
      <trkpt lat="44.33212" lon="5.89572">
        <ele>577</ele>
        <time>2019-08-17T08:39:06Z</time>
      </trkpt>
      <trkpt lat="44.33205" lon="5.8957">
        <ele>577</ele>
        <time>2019-08-17T08:39:07Z</time>
      </trkpt>
      <trkpt lat="44.33198" lon="5.89568">
        <ele>577</ele>
        <time>2019-08-17T08:39:08Z</time>
      </trkpt>
      <trkpt lat="44.33191" lon="5.89566">
        <ele>577</ele>
        <time>2019-08-17T08:39:09Z</time>
      </trkpt>
      <trkpt lat="44.33184" lon="5.89563">
        <ele>577</ele>
        <time>2019-08-17T08:39:10Z</time>
      </trkpt>
      <trkpt lat="44.33177" lon="5.89561">
        <ele>577</ele>
        <time>2019-08-17T08:39:11Z</time>
      </trkpt>
      <trkpt lat="44.3317" lon="5.89559">
        <ele>577</ele>
        <time>2019-08-17T08:39:13Z</time>
      </trkpt>
      <trkpt lat="44.33163" lon="5.89556">
        <ele>577</ele>
        <time>2019-08-17T08:39:13Z</time>
      </trkpt>
      <trkpt lat="44.33157" lon="5.89554">
        <ele>577</ele>
        <time>2019-08-17T08:39:14Z</time>
      </trkpt>
      <trkpt lat="44.33149" lon="5.89552">
        <ele>577</ele>
        <time>2019-08-17T08:39:15Z</time>
      </trkpt>
      <trkpt lat="44.33142" lon="5.89549">
        <ele>577</ele>
        <time>2019-08-17T08:39:16Z</time>
      </trkpt>
      <trkpt lat="44.33135" lon="5.89547">
        <ele>577</ele>
        <time>2019-08-17T08:39:17Z</time>
      </trkpt>
      <trkpt lat="44.33128" lon="5.89545">
        <ele>577</ele>
        <time>2019-08-17T08:39:18Z</time>
      </trkpt>
      <trkpt lat="44.33121" lon="5.89543">
        <ele>577</ele>
        <time>2019-08-17T08:39:19Z</time>
      </trkpt>
      <trkpt lat="44.33114" lon="5.8954">
        <ele>577</ele>
        <time>2019-08-17T08:39:20Z</time>
      </trkpt>
      <trkpt lat="44.33107" lon="5.89538">
        <ele>577</ele>
        <time>2019-08-17T08:39:21Z</time>
      </trkpt>
      <trkpt lat="44.331" lon="5.89536">
        <ele>577</ele>
        <time>2019-08-17T08:39:22Z</time>
      </trkpt>
      <trkpt lat="44.33094" lon="5.89534">
        <ele>577</ele>
        <time>2019-08-17T08:39:23Z</time>
      </trkpt>
      <trkpt lat="44.33087" lon="5.89531">
        <ele>577</ele>
        <time>2019-08-17T08:39:24Z</time>
      </trkpt>
      <trkpt lat="44.3308" lon="5.89529">
        <ele>577</ele>
        <time>2019-08-17T08:39:25Z</time>
      </trkpt>
      <trkpt lat="44.33074" lon="5.89527">
        <ele>577</ele>
        <time>2019-08-17T08:39:26Z</time>
      </trkpt>
      <trkpt lat="44.33067" lon="5.89525">
        <ele>577</ele>
        <time>2019-08-17T08:39:27Z</time>
      </trkpt>
      <trkpt lat="44.3306" lon="5.89523">
        <ele>577</ele>
        <time>2019-08-17T08:39:28Z</time>
      </trkpt>
      <trkpt lat="44.33054" lon="5.89521">
        <ele>577</ele>
        <time>2019-08-17T08:39:29Z</time>
      </trkpt>
      <trkpt lat="44.33047" lon="5.89519">
        <ele>577</ele>
        <time>2019-08-17T08:39:30Z</time>
      </trkpt>
      <trkpt lat="44.33041" lon="5.89517">
        <ele>577</ele>
        <time>2019-08-17T08:39:31Z</time>
      </trkpt>
      <trkpt lat="44.33034" lon="5.89514">
        <ele>577</ele>
        <time>2019-08-17T08:39:32Z</time>
      </trkpt>
      <trkpt lat="44.33027" lon="5.89512">
        <ele>577</ele>
        <time>2019-08-17T08:39:33Z</time>
      </trkpt>
      <trkpt lat="44.3302" lon="5.89509">
        <ele>577</ele>
        <time>2019-08-17T08:39:34Z</time>
      </trkpt>
      <trkpt lat="44.33014" lon="5.89507">
        <ele>577</ele>
        <time>2019-08-17T08:39:35Z</time>
      </trkpt>
      <trkpt lat="44.33007" lon="5.89504">
        <ele>577</ele>
        <time>2019-08-17T08:39:36Z</time>
      </trkpt>
      <trkpt lat="44.33001" lon="5.89502">
        <ele>577</ele>
        <time>2019-08-17T08:39:37Z</time>
      </trkpt>
      <trkpt lat="44.32994" lon="5.89499">
        <ele>577</ele>
        <time>2019-08-17T08:39:38Z</time>
      </trkpt>
      <trkpt lat="44.32987" lon="5.89496">
        <ele>577</ele>
        <time>2019-08-17T08:39:39Z</time>
      </trkpt>
      <trkpt lat="44.32981" lon="5.89493">
        <ele>577</ele>
        <time>2019-08-17T08:39:40Z</time>
      </trkpt>
      <trkpt lat="44.32974" lon="5.8949">
        <ele>577</ele>
        <time>2019-08-17T08:39:41Z</time>
      </trkpt>
      <trkpt lat="44.32967" lon="5.89487">
        <ele>577</ele>
        <time>2019-08-17T08:39:42Z</time>
      </trkpt>
      <trkpt lat="44.32961" lon="5.89484">
        <ele>577</ele>
        <time>2019-08-17T08:39:43Z</time>
      </trkpt>
      <trkpt lat="44.32954" lon="5.8948">
        <ele>577</ele>
        <time>2019-08-17T08:39:44Z</time>
      </trkpt>
      <trkpt lat="44.32948" lon="5.89477">
        <ele>577</ele>
        <time>2019-08-17T08:39:45Z</time>
      </trkpt>
      <trkpt lat="44.32941" lon="5.89473">
        <ele>577</ele>
        <time>2019-08-17T08:39:46Z</time>
      </trkpt>
      <trkpt lat="44.32935" lon="5.8947">
        <ele>577</ele>
        <time>2019-08-17T08:39:47Z</time>
      </trkpt>
      <trkpt lat="44.32928" lon="5.89466">
        <ele>577</ele>
        <time>2019-08-17T08:39:48Z</time>
      </trkpt>
      <trkpt lat="44.32922" lon="5.89461">
        <ele>577</ele>
        <time>2019-08-17T08:39:49Z</time>
      </trkpt>
      <trkpt lat="44.32915" lon="5.89457">
        <ele>577</ele>
        <time>2019-08-17T08:39:50Z</time>
      </trkpt>
      <trkpt lat="44.32909" lon="5.89453">
        <ele>577</ele>
        <time>2019-08-17T08:39:51Z</time>
      </trkpt>
      <trkpt lat="44.32903" lon="5.89448">
        <ele>577</ele>
        <time>2019-08-17T08:39:52Z</time>
      </trkpt>
      <trkpt lat="44.32897" lon="5.89444">
        <ele>577</ele>
        <time>2019-08-17T08:39:53Z</time>
      </trkpt>
      <trkpt lat="44.32891" lon="5.89439">
        <ele>577</ele>
        <time>2019-08-17T08:39:54Z</time>
      </trkpt>
      <trkpt lat="44.32885" lon="5.89435">
        <ele>577</ele>
        <time>2019-08-17T08:39:55Z</time>
      </trkpt>
      <trkpt lat="44.32878" lon="5.89431">
        <ele>577</ele>
        <time>2019-08-17T08:39:56Z</time>
      </trkpt>
      <trkpt lat="44.32872" lon="5.89427">
        <ele>577</ele>
        <time>2019-08-17T08:39:57Z</time>
      </trkpt>
      <trkpt lat="44.32866" lon="5.89422">
        <ele>577</ele>
        <time>2019-08-17T08:39:58Z</time>
      </trkpt>
      <trkpt lat="44.3286" lon="5.89418">
        <ele>577</ele>
        <time>2019-08-17T08:39:59Z</time>
      </trkpt>
      <trkpt lat="44.32854" lon="5.89413">
        <ele>577</ele>
        <time>2019-08-17T08:40:00Z</time>
      </trkpt>
      <trkpt lat="44.32848" lon="5.89409">
        <ele>577</ele>
        <time>2019-08-17T08:40:01Z</time>
      </trkpt>
      <trkpt lat="44.32841" lon="5.89404">
        <ele>577</ele>
        <time>2019-08-17T08:40:02Z</time>
      </trkpt>
      <trkpt lat="44.32835" lon="5.894">
        <ele>577</ele>
        <time>2019-08-17T08:40:03Z</time>
      </trkpt>
      <trkpt lat="44.32829" lon="5.89396">
        <ele>577</ele>
        <time>2019-08-17T08:40:04Z</time>
      </trkpt>
      <trkpt lat="44.32823" lon="5.89392">
        <ele>577</ele>
        <time>2019-08-17T08:40:05Z</time>
      </trkpt>
      <trkpt lat="44.32816" lon="5.89387">
        <ele>577</ele>
        <time>2019-08-17T08:40:06Z</time>
      </trkpt>
      <trkpt lat="44.3281" lon="5.89383">
        <ele>577</ele>
        <time>2019-08-17T08:40:07Z</time>
      </trkpt>
      <trkpt lat="44.32804" lon="5.89378">
        <ele>577</ele>
        <time>2019-08-17T08:40:08Z</time>
      </trkpt>
      <trkpt lat="44.32798" lon="5.89374">
        <ele>577</ele>
        <time>2019-08-17T08:40:09Z</time>
      </trkpt>
      <trkpt lat="44.32791" lon="5.89369">
        <ele>577</ele>
        <time>2019-08-17T08:40:10Z</time>
      </trkpt>
      <trkpt lat="44.32785" lon="5.89365">
        <ele>577</ele>
        <time>2019-08-17T08:40:11Z</time>
      </trkpt>
      <trkpt lat="44.32779" lon="5.89361">
        <ele>577</ele>
        <time>2019-08-17T08:40:13Z</time>
      </trkpt>
      <trkpt lat="44.32773" lon="5.89357">
        <ele>577</ele>
        <time>2019-08-17T08:40:13Z</time>
      </trkpt>
      <trkpt lat="44.32767" lon="5.89352">
        <ele>577</ele>
        <time>2019-08-17T08:40:14Z</time>
      </trkpt>
      <trkpt lat="44.32761" lon="5.89348">
        <ele>577</ele>
        <time>2019-08-17T08:40:15Z</time>
      </trkpt>
      <trkpt lat="44.32755" lon="5.89344">
        <ele>577</ele>
        <time>2019-08-17T08:40:16Z</time>
      </trkpt>
      <trkpt lat="44.32749" lon="5.89339">
        <ele>577</ele>
        <time>2019-08-17T08:40:17Z</time>
      </trkpt>
      <trkpt lat="44.32743" lon="5.89334">
        <ele>577</ele>
        <time>2019-08-17T08:40:18Z</time>
      </trkpt>
      <trkpt lat="44.32737" lon="5.8933">
        <ele>577</ele>
        <time>2019-08-17T08:40:19Z</time>
      </trkpt>
      <trkpt lat="44.32731" lon="5.89326">
        <ele>577</ele>
        <time>2019-08-17T08:40:20Z</time>
      </trkpt>
      <trkpt lat="44.32725" lon="5.89321">
        <ele>577</ele>
        <time>2019-08-17T08:40:21Z</time>
      </trkpt>
      <trkpt lat="44.32719" lon="5.89317">
        <ele>577</ele>
        <time>2019-08-17T08:40:22Z</time>
      </trkpt>
      <trkpt lat="44.32712" lon="5.89313">
        <ele>577</ele>
        <time>2019-08-17T08:40:23Z</time>
      </trkpt>
      <trkpt lat="44.32706" lon="5.89309">
        <ele>577</ele>
        <time>2019-08-17T08:40:24Z</time>
      </trkpt>
      <trkpt lat="44.327" lon="5.89305">
        <ele>577</ele>
        <time>2019-08-17T08:40:25Z</time>
      </trkpt>
      <trkpt lat="44.32694" lon="5.893">
        <ele>577</ele>
        <time>2019-08-17T08:40:26Z</time>
      </trkpt>
      <trkpt lat="44.32688" lon="5.89296">
        <ele>577</ele>
        <time>2019-08-17T08:40:27Z</time>
      </trkpt>
      <trkpt lat="44.32682" lon="5.89291">
        <ele>577</ele>
        <time>2019-08-17T08:40:28Z</time>
      </trkpt>
      <trkpt lat="44.32675" lon="5.89287">
        <ele>577</ele>
        <time>2019-08-17T08:40:29Z</time>
      </trkpt>
      <trkpt lat="44.32669" lon="5.89283">
        <ele>577</ele>
        <time>2019-08-17T08:40:30Z</time>
      </trkpt>
      <trkpt lat="44.32663" lon="5.89278">
        <ele>577</ele>
        <time>2019-08-17T08:40:31Z</time>
      </trkpt>
      <trkpt lat="44.32657" lon="5.89273">
        <ele>577</ele>
        <time>2019-08-17T08:40:32Z</time>
      </trkpt>
      <trkpt lat="44.32651" lon="5.89268">
        <ele>577</ele>
        <time>2019-08-17T08:40:33Z</time>
      </trkpt>
      <trkpt lat="44.32646" lon="5.89263">
        <ele>577</ele>
        <time>2019-08-17T08:40:34Z</time>
      </trkpt>
      <trkpt lat="44.3264" lon="5.89258">
        <ele>577</ele>
        <time>2019-08-17T08:40:35Z</time>
      </trkpt>
      <trkpt lat="44.32635" lon="5.89254">
        <ele>577</ele>
        <time>2019-08-17T08:40:36Z</time>
      </trkpt>
      <trkpt lat="44.32629" lon="5.89251">
        <ele>577</ele>
        <time>2019-08-17T08:40:37Z</time>
      </trkpt>
      <trkpt lat="44.32624" lon="5.89247">
        <ele>577</ele>
        <time>2019-08-17T08:40:38Z</time>
      </trkpt>
      <trkpt lat="44.32618" lon="5.89244">
        <ele>577</ele>
        <time>2019-08-17T08:40:39Z</time>
      </trkpt>
      <trkpt lat="44.32611" lon="5.8924">
        <ele>577</ele>
        <time>2019-08-17T08:40:40Z</time>
      </trkpt>
      <trkpt lat="44.32605" lon="5.89237">
        <ele>577</ele>
        <time>2019-08-17T08:40:41Z</time>
      </trkpt>
      <trkpt lat="44.32599" lon="5.89233">
        <ele>577</ele>
        <time>2019-08-17T08:40:42Z</time>
      </trkpt>
      <trkpt lat="44.32593" lon="5.89229">
        <ele>577</ele>
        <time>2019-08-17T08:40:43Z</time>
      </trkpt>
      <trkpt lat="44.32587" lon="5.89226">
        <ele>577</ele>
        <time>2019-08-17T08:40:44Z</time>
      </trkpt>
      <trkpt lat="44.3258" lon="5.89222">
        <ele>577</ele>
        <time>2019-08-17T08:40:45Z</time>
      </trkpt>
      <trkpt lat="44.32574" lon="5.89219">
        <ele>577</ele>
        <time>2019-08-17T08:40:46Z</time>
      </trkpt>
      <trkpt lat="44.32567" lon="5.89215">
        <ele>577</ele>
        <time>2019-08-17T08:40:47Z</time>
      </trkpt>
      <trkpt lat="44.32561" lon="5.89212">
        <ele>577</ele>
        <time>2019-08-17T08:40:48Z</time>
      </trkpt>
      <trkpt lat="44.32554" lon="5.89209">
        <ele>577</ele>
        <time>2019-08-17T08:40:49Z</time>
      </trkpt>
      <trkpt lat="44.32547" lon="5.89206">
        <ele>577</ele>
        <time>2019-08-17T08:40:50Z</time>
      </trkpt>
      <trkpt lat="44.32541" lon="5.89203">
        <ele>577</ele>
        <time>2019-08-17T08:40:51Z</time>
      </trkpt>
      <trkpt lat="44.32534" lon="5.892">
        <ele>577</ele>
        <time>2019-08-17T08:40:52Z</time>
      </trkpt>
      <trkpt lat="44.32527" lon="5.89197">
        <ele>577</ele>
        <time>2019-08-17T08:40:53Z</time>
      </trkpt>
      <trkpt lat="44.3252" lon="5.89195">
        <ele>577</ele>
        <time>2019-08-17T08:40:54Z</time>
      </trkpt>
      <trkpt lat="44.32513" lon="5.89193">
        <ele>577</ele>
        <time>2019-08-17T08:40:55Z</time>
      </trkpt>
      <trkpt lat="44.32506" lon="5.89191">
        <ele>577</ele>
        <time>2019-08-17T08:40:56Z</time>
      </trkpt>
      <trkpt lat="44.32499" lon="5.89188">
        <ele>577</ele>
        <time>2019-08-17T08:40:57Z</time>
      </trkpt>
      <trkpt lat="44.32492" lon="5.89186">
        <ele>577</ele>
        <time>2019-08-17T08:40:58Z</time>
      </trkpt>
      <trkpt lat="44.32485" lon="5.89185">
        <ele>577</ele>
        <time>2019-08-17T08:40:59Z</time>
      </trkpt>
      <trkpt lat="44.32478" lon="5.89182">
        <ele>577</ele>
        <time>2019-08-17T08:41:00Z</time>
      </trkpt>
      <trkpt lat="44.32471" lon="5.8918">
        <ele>577</ele>
        <time>2019-08-17T08:41:01Z</time>
      </trkpt>
      <trkpt lat="44.32464" lon="5.89177">
        <ele>577</ele>
        <time>2019-08-17T08:41:02Z</time>
      </trkpt>
      <trkpt lat="44.32458" lon="5.89175">
        <ele>577</ele>
        <time>2019-08-17T08:41:03Z</time>
      </trkpt>
      <trkpt lat="44.32451" lon="5.89173">
        <ele>577</ele>
        <time>2019-08-17T08:41:04Z</time>
      </trkpt>
      <trkpt lat="44.32444" lon="5.89171">
        <ele>577</ele>
        <time>2019-08-17T08:41:05Z</time>
      </trkpt>
      <trkpt lat="44.32438" lon="5.89169">
        <ele>577</ele>
        <time>2019-08-17T08:41:06Z</time>
      </trkpt>
      <trkpt lat="44.32431" lon="5.89167">
        <ele>577</ele>
        <time>2019-08-17T08:41:07Z</time>
      </trkpt>
      <trkpt lat="44.32425" lon="5.89164">
        <ele>577</ele>
        <time>2019-08-17T08:41:08Z</time>
      </trkpt>
      <trkpt lat="44.32418" lon="5.89162">
        <ele>577</ele>
        <time>2019-08-17T08:41:09Z</time>
      </trkpt>
      <trkpt lat="44.32411" lon="5.8916">
        <ele>577</ele>
        <time>2019-08-17T08:41:10Z</time>
      </trkpt>
      <trkpt lat="44.32405" lon="5.89158">
        <ele>577</ele>
        <time>2019-08-17T08:41:11Z</time>
      </trkpt>
      <trkpt lat="44.32399" lon="5.89156">
        <ele>577</ele>
        <time>2019-08-17T08:41:13Z</time>
      </trkpt>
      <trkpt lat="44.32392" lon="5.89154">
        <ele>577</ele>
        <time>2019-08-17T08:41:13Z</time>
      </trkpt>
      <trkpt lat="44.32385" lon="5.89152">
        <ele>577</ele>
        <time>2019-08-17T08:41:14Z</time>
      </trkpt>
      <trkpt lat="44.32379" lon="5.8915">
        <ele>577</ele>
        <time>2019-08-17T08:41:15Z</time>
      </trkpt>
      <trkpt lat="44.32372" lon="5.89148">
        <ele>577</ele>
        <time>2019-08-17T08:41:16Z</time>
      </trkpt>
      <trkpt lat="44.32366" lon="5.89146">
        <ele>577</ele>
        <time>2019-08-17T08:41:17Z</time>
      </trkpt>
      <trkpt lat="44.32359" lon="5.89144">
        <ele>577</ele>
        <time>2019-08-17T08:41:18Z</time>
      </trkpt>
      <trkpt lat="44.32353" lon="5.89142">
        <ele>577</ele>
        <time>2019-08-17T08:41:19Z</time>
      </trkpt>
      <trkpt lat="44.32346" lon="5.89139">
        <ele>577</ele>
        <time>2019-08-17T08:41:20Z</time>
      </trkpt>
      <trkpt lat="44.32339" lon="5.89137">
        <ele>577</ele>
        <time>2019-08-17T08:41:21Z</time>
      </trkpt>
      <trkpt lat="44.32333" lon="5.89135">
        <ele>577</ele>
        <time>2019-08-17T08:41:22Z</time>
      </trkpt>
      <trkpt lat="44.32326" lon="5.89133">
        <ele>577</ele>
        <time>2019-08-17T08:41:23Z</time>
      </trkpt>
      <trkpt lat="44.32319" lon="5.89131">
        <ele>577</ele>
        <time>2019-08-17T08:41:24Z</time>
      </trkpt>
      <trkpt lat="44.32312" lon="5.89129">
        <ele>577</ele>
        <time>2019-08-17T08:41:25Z</time>
      </trkpt>
      <trkpt lat="44.32306" lon="5.89127">
        <ele>577</ele>
        <time>2019-08-17T08:41:26Z</time>
      </trkpt>
      <trkpt lat="44.32299" lon="5.89124">
        <ele>577</ele>
        <time>2019-08-17T08:41:27Z</time>
      </trkpt>
      <trkpt lat="44.32293" lon="5.89122">
        <ele>577</ele>
        <time>2019-08-17T08:41:28Z</time>
      </trkpt>
      <trkpt lat="44.32286" lon="5.8912">
        <ele>577</ele>
        <time>2019-08-17T08:41:29Z</time>
      </trkpt>
      <trkpt lat="44.3228" lon="5.89117">
        <ele>577</ele>
        <time>2019-08-17T08:41:30Z</time>
      </trkpt>
      <trkpt lat="44.32273" lon="5.89115">
        <ele>576</ele>
        <time>2019-08-17T08:41:31Z</time>
      </trkpt>
      <trkpt lat="44.32267" lon="5.89113">
        <ele>576</ele>
        <time>2019-08-17T08:41:32Z</time>
      </trkpt>
      <trkpt lat="44.3226" lon="5.89111">
        <ele>576</ele>
        <time>2019-08-17T08:41:33Z</time>
      </trkpt>
      <trkpt lat="44.32254" lon="5.89109">
        <ele>576</ele>
        <time>2019-08-17T08:41:34Z</time>
      </trkpt>
      <trkpt lat="44.32247" lon="5.89107">
        <ele>576</ele>
        <time>2019-08-17T08:41:35Z</time>
      </trkpt>
      <trkpt lat="44.32241" lon="5.89105">
        <ele>576</ele>
        <time>2019-08-17T08:41:36Z</time>
      </trkpt>
      <trkpt lat="44.32234" lon="5.89102">
        <ele>576</ele>
        <time>2019-08-17T08:41:37Z</time>
      </trkpt>
      <trkpt lat="44.32228" lon="5.89101">
        <ele>576</ele>
        <time>2019-08-17T08:41:38Z</time>
      </trkpt>
      <trkpt lat="44.32221" lon="5.89099">
        <ele>576</ele>
        <time>2019-08-17T08:41:39Z</time>
      </trkpt>
      <trkpt lat="44.32215" lon="5.89096">
        <ele>575</ele>
        <time>2019-08-17T08:41:40Z</time>
      </trkpt>
      <trkpt lat="44.32209" lon="5.89094">
        <ele>575</ele>
        <time>2019-08-17T08:41:41Z</time>
      </trkpt>
      <trkpt lat="44.32202" lon="5.89092">
        <ele>575</ele>
        <time>2019-08-17T08:41:42Z</time>
      </trkpt>
      <trkpt lat="44.32196" lon="5.8909">
        <ele>575</ele>
        <time>2019-08-17T08:41:43Z</time>
      </trkpt>
      <trkpt lat="44.32189" lon="5.89088">
        <ele>575</ele>
        <time>2019-08-17T08:41:44Z</time>
      </trkpt>
      <trkpt lat="44.32183" lon="5.89086">
        <ele>575</ele>
        <time>2019-08-17T08:41:45Z</time>
      </trkpt>
      <trkpt lat="44.32176" lon="5.89084">
        <ele>575</ele>
        <time>2019-08-17T08:41:46Z</time>
      </trkpt>
      <trkpt lat="44.3217" lon="5.89082">
        <ele>575</ele>
        <time>2019-08-17T08:41:47Z</time>
      </trkpt>
      <trkpt lat="44.32163" lon="5.8908">
        <ele>575</ele>
        <time>2019-08-17T08:41:48Z</time>
      </trkpt>
      <trkpt lat="44.32156" lon="5.89078">
        <ele>575</ele>
        <time>2019-08-17T08:41:49Z</time>
      </trkpt>
      <trkpt lat="44.3215" lon="5.89077">
        <ele>575</ele>
        <time>2019-08-17T08:41:50Z</time>
      </trkpt>
      <trkpt lat="44.32143" lon="5.89075">
        <ele>575</ele>
        <time>2019-08-17T08:41:51Z</time>
      </trkpt>
      <trkpt lat="44.32136" lon="5.89074">
        <ele>575</ele>
        <time>2019-08-17T08:41:52Z</time>
      </trkpt>
      <trkpt lat="44.3213" lon="5.89072">
        <ele>575</ele>
        <time>2019-08-17T08:41:53Z</time>
      </trkpt>
      <trkpt lat="44.32123" lon="5.89071">
        <ele>575</ele>
        <time>2019-08-17T08:41:54Z</time>
      </trkpt>
      <trkpt lat="44.32116" lon="5.8907">
        <ele>575</ele>
        <time>2019-08-17T08:41:55Z</time>
      </trkpt>
      <trkpt lat="44.3211" lon="5.89068">
        <ele>575</ele>
        <time>2019-08-17T08:41:56Z</time>
      </trkpt>
      <trkpt lat="44.32103" lon="5.89067">
        <ele>575</ele>
        <time>2019-08-17T08:41:57Z</time>
      </trkpt>
      <trkpt lat="44.32097" lon="5.89065">
        <ele>575</ele>
        <time>2019-08-17T08:41:58Z</time>
      </trkpt>
      <trkpt lat="44.32091" lon="5.89064">
        <ele>575</ele>
        <time>2019-08-17T08:41:59Z</time>
      </trkpt>
      <trkpt lat="44.32085" lon="5.89063">
        <ele>575</ele>
        <time>2019-08-17T08:42:00Z</time>
      </trkpt>
      <trkpt lat="44.32079" lon="5.89062">
        <ele>575</ele>
        <time>2019-08-17T08:42:01Z</time>
      </trkpt>
      <trkpt lat="44.32073" lon="5.89061">
        <ele>575</ele>
        <time>2019-08-17T08:42:02Z</time>
      </trkpt>
      <trkpt lat="44.32067" lon="5.89061">
        <ele>575</ele>
        <time>2019-08-17T08:42:03Z</time>
      </trkpt>
      <trkpt lat="44.32061" lon="5.8906">
        <ele>575</ele>
        <time>2019-08-17T08:42:04Z</time>
      </trkpt>
      <trkpt lat="44.32055" lon="5.89059">
        <ele>575</ele>
        <time>2019-08-17T08:42:05Z</time>
      </trkpt>
      <trkpt lat="44.3205" lon="5.89058">
        <ele>575</ele>
        <time>2019-08-17T08:42:06Z</time>
      </trkpt>
      <trkpt lat="44.32044" lon="5.89057">
        <ele>575</ele>
        <time>2019-08-17T08:42:07Z</time>
      </trkpt>
      <trkpt lat="44.32039" lon="5.89055">
        <ele>575</ele>
        <time>2019-08-17T08:42:08Z</time>
      </trkpt>
      <trkpt lat="44.32033" lon="5.89053">
        <ele>575</ele>
        <time>2019-08-17T08:42:09Z</time>
      </trkpt>
      <trkpt lat="44.32028" lon="5.89051">
        <ele>575</ele>
        <time>2019-08-17T08:42:10Z</time>
      </trkpt>
      <trkpt lat="44.32023" lon="5.89049">
        <ele>575</ele>
        <time>2019-08-17T08:42:11Z</time>
      </trkpt>
      <trkpt lat="44.32018" lon="5.89046">
        <ele>575</ele>
        <time>2019-08-17T08:42:13Z</time>
      </trkpt>
      <trkpt lat="44.32012" lon="5.89044">
        <ele>575</ele>
        <time>2019-08-17T08:42:13Z</time>
      </trkpt>
      <trkpt lat="44.32007" lon="5.89041">
        <ele>575</ele>
        <time>2019-08-17T08:42:14Z</time>
      </trkpt>
      <trkpt lat="44.32003" lon="5.89038">
        <ele>575</ele>
        <time>2019-08-17T08:42:15Z</time>
      </trkpt>
      <trkpt lat="44.31998" lon="5.89034">
        <ele>575</ele>
        <time>2019-08-17T08:42:16Z</time>
      </trkpt>
      <trkpt lat="44.31993" lon="5.8903">
        <ele>575</ele>
        <time>2019-08-17T08:42:17Z</time>
      </trkpt>
      <trkpt lat="44.31989" lon="5.89026">
        <ele>575</ele>
        <time>2019-08-17T08:42:18Z</time>
      </trkpt>
      <trkpt lat="44.31984" lon="5.89021">
        <ele>576</ele>
        <time>2019-08-17T08:42:19Z</time>
      </trkpt>
      <trkpt lat="44.3198" lon="5.89017">
        <ele>576</ele>
        <time>2019-08-17T08:42:20Z</time>
      </trkpt>
      <trkpt lat="44.31975" lon="5.89013">
        <ele>577</ele>
        <time>2019-08-17T08:42:21Z</time>
      </trkpt>
      <trkpt lat="44.3197" lon="5.8901">
        <ele>577</ele>
        <time>2019-08-17T08:42:22Z</time>
      </trkpt>
      <trkpt lat="44.31965" lon="5.89006">
        <ele>578</ele>
        <time>2019-08-17T08:42:23Z</time>
      </trkpt>
      <trkpt lat="44.3196" lon="5.89003">
        <ele>578</ele>
        <time>2019-08-17T08:42:24Z</time>
      </trkpt>
      <trkpt lat="44.31955" lon="5.89001">
        <ele>578</ele>
        <time>2019-08-17T08:42:25Z</time>
      </trkpt>
      <trkpt lat="44.3195" lon="5.88998">
        <ele>579</ele>
        <time>2019-08-17T08:42:26Z</time>
      </trkpt>
      <trkpt lat="44.31945" lon="5.88996">
        <ele>579</ele>
        <time>2019-08-17T08:42:27Z</time>
      </trkpt>
      <trkpt lat="44.31939" lon="5.88995">
        <ele>579</ele>
        <time>2019-08-17T08:42:28Z</time>
      </trkpt>
      <trkpt lat="44.31934" lon="5.88993">
        <ele>580</ele>
        <time>2019-08-17T08:42:29Z</time>
      </trkpt>
      <trkpt lat="44.31928" lon="5.88992">
        <ele>580</ele>
        <time>2019-08-17T08:42:30Z</time>
      </trkpt>
      <trkpt lat="44.31923" lon="5.8899">
        <ele>580</ele>
        <time>2019-08-17T08:42:31Z</time>
      </trkpt>
      <trkpt lat="44.31917" lon="5.8899">
        <ele>580</ele>
        <time>2019-08-17T08:42:32Z</time>
      </trkpt>
      <trkpt lat="44.31911" lon="5.88989">
        <ele>581</ele>
        <time>2019-08-17T08:42:33Z</time>
      </trkpt>
      <trkpt lat="44.31906" lon="5.8899">
        <ele>581</ele>
        <time>2019-08-17T08:42:34Z</time>
      </trkpt>
      <trkpt lat="44.319" lon="5.8899">
        <ele>581</ele>
        <time>2019-08-17T08:42:35Z</time>
      </trkpt>
      <trkpt lat="44.31894" lon="5.88991">
        <ele>581</ele>
        <time>2019-08-17T08:42:36Z</time>
      </trkpt>
      <trkpt lat="44.31889" lon="5.88992">
        <ele>582</ele>
        <time>2019-08-17T08:42:37Z</time>
      </trkpt>
      <trkpt lat="44.31883" lon="5.88994">
        <ele>582</ele>
        <time>2019-08-17T08:42:38Z</time>
      </trkpt>
      <trkpt lat="44.31877" lon="5.88995">
        <ele>582</ele>
        <time>2019-08-17T08:42:39Z</time>
      </trkpt>
      <trkpt lat="44.31871" lon="5.88997">
        <ele>582</ele>
        <time>2019-08-17T08:42:40Z</time>
      </trkpt>
      <trkpt lat="44.31866" lon="5.89">
        <ele>583</ele>
        <time>2019-08-17T08:42:41Z</time>
      </trkpt>
      <trkpt lat="44.3186" lon="5.89002">
        <ele>583</ele>
        <time>2019-08-17T08:42:42Z</time>
      </trkpt>
      <trkpt lat="44.31854" lon="5.89005">
        <ele>583</ele>
        <time>2019-08-17T08:42:43Z</time>
      </trkpt>
      <trkpt lat="44.31849" lon="5.89008">
        <ele>583</ele>
        <time>2019-08-17T08:42:44Z</time>
      </trkpt>
      <trkpt lat="44.31843" lon="5.89011">
        <ele>583</ele>
        <time>2019-08-17T08:42:45Z</time>
      </trkpt>
      <trkpt lat="44.31838" lon="5.89014">
        <ele>584</ele>
        <time>2019-08-17T08:42:46Z</time>
      </trkpt>
      <trkpt lat="44.31833" lon="5.89018">
        <ele>584</ele>
        <time>2019-08-17T08:42:47Z</time>
      </trkpt>
      <trkpt lat="44.31827" lon="5.89021">
        <ele>584</ele>
        <time>2019-08-17T08:42:48Z</time>
      </trkpt>
      <trkpt lat="44.31822" lon="5.89025">
        <ele>584</ele>
        <time>2019-08-17T08:42:49Z</time>
      </trkpt>
      <trkpt lat="44.31817" lon="5.89029">
        <ele>584</ele>
        <time>2019-08-17T08:42:50Z</time>
      </trkpt>
      <trkpt lat="44.31811" lon="5.89032">
        <ele>585</ele>
        <time>2019-08-17T08:42:51Z</time>
      </trkpt>
      <trkpt lat="44.31806" lon="5.89036">
        <ele>585</ele>
        <time>2019-08-17T08:42:52Z</time>
      </trkpt>
      <trkpt lat="44.31801" lon="5.89039">
        <ele>585</ele>
        <time>2019-08-17T08:42:53Z</time>
      </trkpt>
      <trkpt lat="44.31796" lon="5.89043">
        <ele>585</ele>
        <time>2019-08-17T08:42:54Z</time>
      </trkpt>
      <trkpt lat="44.3179" lon="5.89046">
        <ele>585</ele>
        <time>2019-08-17T08:42:55Z</time>
      </trkpt>
      <trkpt lat="44.31785" lon="5.8905">
        <ele>585</ele>
        <time>2019-08-17T08:42:56Z</time>
      </trkpt>
      <trkpt lat="44.3178" lon="5.89054">
        <ele>586</ele>
        <time>2019-08-17T08:42:57Z</time>
      </trkpt>
      <trkpt lat="44.31775" lon="5.89057">
        <ele>586</ele>
        <time>2019-08-17T08:42:58Z</time>
      </trkpt>
      <trkpt lat="44.3177" lon="5.89061">
        <ele>586</ele>
        <time>2019-08-17T08:42:59Z</time>
      </trkpt>
      <trkpt lat="44.31765" lon="5.89064">
        <ele>586</ele>
        <time>2019-08-17T08:43:00Z</time>
      </trkpt>
      <trkpt lat="44.31759" lon="5.89067">
        <ele>586</ele>
        <time>2019-08-17T08:43:01Z</time>
      </trkpt>
      <trkpt lat="44.31754" lon="5.8907">
        <ele>586</ele>
        <time>2019-08-17T08:43:02Z</time>
      </trkpt>
      <trkpt lat="44.31749" lon="5.89073">
        <ele>586</ele>
        <time>2019-08-17T08:43:03Z</time>
      </trkpt>
      <trkpt lat="44.31744" lon="5.89076">
        <ele>586</ele>
        <time>2019-08-17T08:43:04Z</time>
      </trkpt>
      <trkpt lat="44.31739" lon="5.89079">
        <ele>587</ele>
        <time>2019-08-17T08:43:05Z</time>
      </trkpt>
      <trkpt lat="44.31733" lon="5.89081">
        <ele>587</ele>
        <time>2019-08-17T08:43:06Z</time>
      </trkpt>
      <trkpt lat="44.31728" lon="5.89083">
        <ele>587</ele>
        <time>2019-08-17T08:43:07Z</time>
      </trkpt>
      <trkpt lat="44.31723" lon="5.89085">
        <ele>587</ele>
        <time>2019-08-17T08:43:08Z</time>
      </trkpt>
      <trkpt lat="44.31718" lon="5.89086">
        <ele>587</ele>
        <time>2019-08-17T08:43:09Z</time>
      </trkpt>
      <trkpt lat="44.31712" lon="5.89088">
        <ele>587</ele>
        <time>2019-08-17T08:43:10Z</time>
      </trkpt>
      <trkpt lat="44.31707" lon="5.8909">
        <ele>587</ele>
        <time>2019-08-17T08:43:11Z</time>
      </trkpt>
      <trkpt lat="44.31702" lon="5.89091">
        <ele>588</ele>
        <time>2019-08-17T08:43:13Z</time>
      </trkpt>
      <trkpt lat="44.31696" lon="5.89092">
        <ele>588</ele>
        <time>2019-08-17T08:43:13Z</time>
      </trkpt>
      <trkpt lat="44.31691" lon="5.89093">
        <ele>588</ele>
        <time>2019-08-17T08:43:14Z</time>
      </trkpt>
      <trkpt lat="44.31686" lon="5.89094">
        <ele>588</ele>
        <time>2019-08-17T08:43:15Z</time>
      </trkpt>
      <trkpt lat="44.3168" lon="5.89095">
        <ele>588</ele>
        <time>2019-08-17T08:43:16Z</time>
      </trkpt>
      <trkpt lat="44.31675" lon="5.89096">
        <ele>588</ele>
        <time>2019-08-17T08:43:17Z</time>
      </trkpt>
      <trkpt lat="44.31669" lon="5.89096">
        <ele>588</ele>
        <time>2019-08-17T08:43:18Z</time>
      </trkpt>
      <trkpt lat="44.31664" lon="5.89096">
        <ele>589</ele>
        <time>2019-08-17T08:43:19Z</time>
      </trkpt>
      <trkpt lat="44.31659" lon="5.89096">
        <ele>589</ele>
        <time>2019-08-17T08:43:20Z</time>
      </trkpt>
      <trkpt lat="44.31653" lon="5.89096">
        <ele>589</ele>
        <time>2019-08-17T08:43:21Z</time>
      </trkpt>
      <trkpt lat="44.31648" lon="5.89096">
        <ele>589</ele>
        <time>2019-08-17T08:43:22Z</time>
      </trkpt>
      <trkpt lat="44.31643" lon="5.89096">
        <ele>589</ele>
        <time>2019-08-17T08:43:23Z</time>
      </trkpt>
      <trkpt lat="44.31638" lon="5.89096">
        <ele>589</ele>
        <time>2019-08-17T08:43:24Z</time>
      </trkpt>
      <trkpt lat="44.31633" lon="5.89096">
        <ele>589</ele>
        <time>2019-08-17T08:43:25Z</time>
      </trkpt>
      <trkpt lat="44.31628" lon="5.89096">
        <ele>590</ele>
        <time>2019-08-17T08:43:26Z</time>
      </trkpt>
      <trkpt lat="44.31623" lon="5.89096">
        <ele>590</ele>
        <time>2019-08-17T08:43:27Z</time>
      </trkpt>
      <trkpt lat="44.31618" lon="5.89096">
        <ele>590</ele>
        <time>2019-08-17T08:43:28Z</time>
      </trkpt>
      <trkpt lat="44.31612" lon="5.89095">
        <ele>590</ele>
        <time>2019-08-17T08:43:29Z</time>
      </trkpt>
      <trkpt lat="44.31607" lon="5.89095">
        <ele>590</ele>
        <time>2019-08-17T08:43:30Z</time>
      </trkpt>
      <trkpt lat="44.31602" lon="5.89095">
        <ele>590</ele>
        <time>2019-08-17T08:43:31Z</time>
      </trkpt>
      <trkpt lat="44.31597" lon="5.89095">
        <ele>590</ele>
        <time>2019-08-17T08:43:32Z</time>
      </trkpt>
      <trkpt lat="44.31592" lon="5.89095">
        <ele>591</ele>
        <time>2019-08-17T08:43:33Z</time>
      </trkpt>
      <trkpt lat="44.31587" lon="5.89094">
        <ele>591</ele>
        <time>2019-08-17T08:43:34Z</time>
      </trkpt>
      <trkpt lat="44.31583" lon="5.89095">
        <ele>591</ele>
        <time>2019-08-17T08:43:35Z</time>
      </trkpt>
      <trkpt lat="44.31578" lon="5.89095">
        <ele>591</ele>
        <time>2019-08-17T08:43:36Z</time>
      </trkpt>
      <trkpt lat="44.31573" lon="5.89095">
        <ele>591</ele>
        <time>2019-08-17T08:43:37Z</time>
      </trkpt>
      <trkpt lat="44.31568" lon="5.89095">
        <ele>591</ele>
        <time>2019-08-17T08:43:38Z</time>
      </trkpt>
      <trkpt lat="44.31563" lon="5.89094">
        <ele>591</ele>
        <time>2019-08-17T08:43:39Z</time>
      </trkpt>
      <trkpt lat="44.31559" lon="5.89094">
        <ele>591</ele>
        <time>2019-08-17T08:43:40Z</time>
      </trkpt>
      <trkpt lat="44.31554" lon="5.89094">
        <ele>591</ele>
        <time>2019-08-17T08:43:41Z</time>
      </trkpt>
      <trkpt lat="44.31549" lon="5.89094">
        <ele>592</ele>
        <time>2019-08-17T08:43:42Z</time>
      </trkpt>
      <trkpt lat="44.31545" lon="5.89094">
        <ele>592</ele>
        <time>2019-08-17T08:43:43Z</time>
      </trkpt>
      <trkpt lat="44.3154" lon="5.89094">
        <ele>592</ele>
        <time>2019-08-17T08:43:44Z</time>
      </trkpt>
      <trkpt lat="44.31535" lon="5.89094">
        <ele>592</ele>
        <time>2019-08-17T08:43:45Z</time>
      </trkpt>
      <trkpt lat="44.31531" lon="5.89093">
        <ele>592</ele>
        <time>2019-08-17T08:43:46Z</time>
      </trkpt>
      <trkpt lat="44.31526" lon="5.89093">
        <ele>593</ele>
        <time>2019-08-17T08:43:47Z</time>
      </trkpt>
      <trkpt lat="44.31521" lon="5.89093">
        <ele>593</ele>
        <time>2019-08-17T08:43:48Z</time>
      </trkpt>
      <trkpt lat="44.31516" lon="5.89093">
        <ele>593</ele>
        <time>2019-08-17T08:43:49Z</time>
      </trkpt>
      <trkpt lat="44.31511" lon="5.89093">
        <ele>593</ele>
        <time>2019-08-17T08:43:50Z</time>
      </trkpt>
      <trkpt lat="44.31505" lon="5.89093">
        <ele>593</ele>
        <time>2019-08-17T08:43:51Z</time>
      </trkpt>
      <trkpt lat="44.315" lon="5.89093">
        <ele>593</ele>
        <time>2019-08-17T08:43:52Z</time>
      </trkpt>
      <trkpt lat="44.31495" lon="5.89094">
        <ele>594</ele>
        <time>2019-08-17T08:43:53Z</time>
      </trkpt>
      <trkpt lat="44.31489" lon="5.89094">
        <ele>594</ele>
        <time>2019-08-17T08:43:54Z</time>
      </trkpt>
      <trkpt lat="44.31483" lon="5.89095">
        <ele>594</ele>
        <time>2019-08-17T08:43:55Z</time>
      </trkpt>
      <trkpt lat="44.31477" lon="5.89095">
        <ele>594</ele>
        <time>2019-08-17T08:43:56Z</time>
      </trkpt>
      <trkpt lat="44.31471" lon="5.89096">
        <ele>594</ele>
        <time>2019-08-17T08:43:57Z</time>
      </trkpt>
      <trkpt lat="44.31465" lon="5.89097">
        <ele>594</ele>
        <time>2019-08-17T08:43:58Z</time>
      </trkpt>
      <trkpt lat="44.31459" lon="5.89097">
        <ele>594</ele>
        <time>2019-08-17T08:43:59Z</time>
      </trkpt>
      <trkpt lat="44.31453" lon="5.89098">
        <ele>594</ele>
        <time>2019-08-17T08:44:00Z</time>
      </trkpt>
      <trkpt lat="44.31447" lon="5.89099">
        <ele>594</ele>
        <time>2019-08-17T08:44:01Z</time>
      </trkpt>
      <trkpt lat="44.31441" lon="5.891">
        <ele>594</ele>
        <time>2019-08-17T08:44:02Z</time>
      </trkpt>
      <trkpt lat="44.31435" lon="5.89101">
        <ele>594</ele>
        <time>2019-08-17T08:44:03Z</time>
      </trkpt>
      <trkpt lat="44.3143" lon="5.89102">
        <ele>594</ele>
        <time>2019-08-17T08:44:04Z</time>
      </trkpt>
      <trkpt lat="44.31424" lon="5.89103">
        <ele>594</ele>
        <time>2019-08-17T08:44:05Z</time>
      </trkpt>
      <trkpt lat="44.31418" lon="5.89104">
        <ele>594</ele>
        <time>2019-08-17T08:44:06Z</time>
      </trkpt>
      <trkpt lat="44.31412" lon="5.89105">
        <ele>594</ele>
        <time>2019-08-17T08:44:07Z</time>
      </trkpt>
      <trkpt lat="44.31406" lon="5.89106">
        <ele>594</ele>
        <time>2019-08-17T08:44:08Z</time>
      </trkpt>
      <trkpt lat="44.314" lon="5.89107">
        <ele>594</ele>
        <time>2019-08-17T08:44:09Z</time>
      </trkpt>
      <trkpt lat="44.31394" lon="5.89108">
        <ele>594</ele>
        <time>2019-08-17T08:44:10Z</time>
      </trkpt>
      <trkpt lat="44.31388" lon="5.89109">
        <ele>594</ele>
        <time>2019-08-17T08:44:11Z</time>
      </trkpt>
      <trkpt lat="44.31382" lon="5.89109">
        <ele>594</ele>
        <time>2019-08-17T08:44:12Z</time>
      </trkpt>
      <trkpt lat="44.31376" lon="5.8911">
        <ele>594</ele>
        <time>2019-08-17T08:44:13Z</time>
      </trkpt>
      <trkpt lat="44.3137" lon="5.89111">
        <ele>594</ele>
        <time>2019-08-17T08:44:14Z</time>
      </trkpt>
      <trkpt lat="44.31364" lon="5.89112">
        <ele>594</ele>
        <time>2019-08-17T08:44:15Z</time>
      </trkpt>
      <trkpt lat="44.31358" lon="5.89113">
        <ele>594</ele>
        <time>2019-08-17T08:44:16Z</time>
      </trkpt>
      <trkpt lat="44.31352" lon="5.89114">
        <ele>594</ele>
        <time>2019-08-17T08:44:17Z</time>
      </trkpt>
      <trkpt lat="44.31346" lon="5.89115">
        <ele>594</ele>
        <time>2019-08-17T08:44:18Z</time>
      </trkpt>
      <trkpt lat="44.3134" lon="5.89116">
        <ele>594</ele>
        <time>2019-08-17T08:44:19Z</time>
      </trkpt>
      <trkpt lat="44.31334" lon="5.89117">
        <ele>594</ele>
        <time>2019-08-17T08:44:20Z</time>
      </trkpt>
      <trkpt lat="44.31328" lon="5.89118">
        <ele>594</ele>
        <time>2019-08-17T08:44:21Z</time>
      </trkpt>
      <trkpt lat="44.31322" lon="5.89119">
        <ele>594</ele>
        <time>2019-08-17T08:44:22Z</time>
      </trkpt>
      <trkpt lat="44.31316" lon="5.8912">
        <ele>594</ele>
        <time>2019-08-17T08:44:23Z</time>
      </trkpt>
      <trkpt lat="44.3131" lon="5.89121">
        <ele>594</ele>
        <time>2019-08-17T08:44:24Z</time>
      </trkpt>
      <trkpt lat="44.31304" lon="5.89123">
        <ele>594</ele>
        <time>2019-08-17T08:44:25Z</time>
      </trkpt>
      <trkpt lat="44.31298" lon="5.89124">
        <ele>594</ele>
        <time>2019-08-17T08:44:26Z</time>
      </trkpt>
      <trkpt lat="44.31292" lon="5.89125">
        <ele>594</ele>
        <time>2019-08-17T08:44:27Z</time>
      </trkpt>
      <trkpt lat="44.31286" lon="5.89126">
        <ele>595</ele>
        <time>2019-08-17T08:44:28Z</time>
      </trkpt>
      <trkpt lat="44.31279" lon="5.89127">
        <ele>595</ele>
        <time>2019-08-17T08:44:29Z</time>
      </trkpt>
      <trkpt lat="44.31273" lon="5.89127">
        <ele>595</ele>
        <time>2019-08-17T08:44:30Z</time>
      </trkpt>
      <trkpt lat="44.31267" lon="5.89128">
        <ele>595</ele>
        <time>2019-08-17T08:44:31Z</time>
      </trkpt>
      <trkpt lat="44.3126" lon="5.89129">
        <ele>595</ele>
        <time>2019-08-17T08:44:32Z</time>
      </trkpt>
      <trkpt lat="44.31253" lon="5.8913">
        <ele>595</ele>
        <time>2019-08-17T08:44:33Z</time>
      </trkpt>
      <trkpt lat="44.31247" lon="5.89131">
        <ele>595</ele>
        <time>2019-08-17T08:44:34Z</time>
      </trkpt>
      <trkpt lat="44.3124" lon="5.89132">
        <ele>595</ele>
        <time>2019-08-17T08:44:35Z</time>
      </trkpt>
      <trkpt lat="44.31233" lon="5.89133">
        <ele>595</ele>
        <time>2019-08-17T08:44:36Z</time>
      </trkpt>
      <trkpt lat="44.31226" lon="5.89134">
        <ele>595</ele>
        <time>2019-08-17T08:44:37Z</time>
      </trkpt>
      <trkpt lat="44.31219" lon="5.89135">
        <ele>595</ele>
        <time>2019-08-17T08:44:38Z</time>
      </trkpt>
      <trkpt lat="44.31211" lon="5.89136">
        <ele>595</ele>
        <time>2019-08-17T08:44:39Z</time>
      </trkpt>
      <trkpt lat="44.31204" lon="5.89138">
        <ele>595</ele>
        <time>2019-08-17T08:44:40Z</time>
      </trkpt>
      <trkpt lat="44.31197" lon="5.89139">
        <ele>595</ele>
        <time>2019-08-17T08:44:41Z</time>
      </trkpt>
      <trkpt lat="44.3119" lon="5.8914">
        <ele>595</ele>
        <time>2019-08-17T08:44:42Z</time>
      </trkpt>
      <trkpt lat="44.31183" lon="5.89141">
        <ele>595</ele>
        <time>2019-08-17T08:44:43Z</time>
      </trkpt>
      <trkpt lat="44.31176" lon="5.89142">
        <ele>595</ele>
        <time>2019-08-17T08:44:44Z</time>
      </trkpt>
      <trkpt lat="44.31169" lon="5.89143">
        <ele>595</ele>
        <time>2019-08-17T08:44:45Z</time>
      </trkpt>
      <trkpt lat="44.31162" lon="5.89144">
        <ele>595</ele>
        <time>2019-08-17T08:44:46Z</time>
      </trkpt>
      <trkpt lat="44.31155" lon="5.89144">
        <ele>595</ele>
        <time>2019-08-17T08:44:47Z</time>
      </trkpt>
      <trkpt lat="44.31148" lon="5.89145">
        <ele>595</ele>
        <time>2019-08-17T08:44:48Z</time>
      </trkpt>
      <trkpt lat="44.31141" lon="5.89146">
        <ele>595</ele>
        <time>2019-08-17T08:44:49Z</time>
      </trkpt>
      <trkpt lat="44.31134" lon="5.89146">
        <ele>595</ele>
        <time>2019-08-17T08:44:50Z</time>
      </trkpt>
      <trkpt lat="44.31127" lon="5.89147">
        <ele>595</ele>
        <time>2019-08-17T08:44:51Z</time>
      </trkpt>
      <trkpt lat="44.3112" lon="5.89148">
        <ele>595</ele>
        <time>2019-08-17T08:44:52Z</time>
      </trkpt>
      <trkpt lat="44.31113" lon="5.89149">
        <ele>595</ele>
        <time>2019-08-17T08:44:53Z</time>
      </trkpt>
      <trkpt lat="44.31105" lon="5.8915">
        <ele>595</ele>
        <time>2019-08-17T08:44:54Z</time>
      </trkpt>
      <trkpt lat="44.31098" lon="5.89151">
        <ele>595</ele>
        <time>2019-08-17T08:44:55Z</time>
      </trkpt>
      <trkpt lat="44.31091" lon="5.89153">
        <ele>595</ele>
        <time>2019-08-17T08:44:56Z</time>
      </trkpt>
      <trkpt lat="44.31084" lon="5.89154">
        <ele>595</ele>
        <time>2019-08-17T08:44:57Z</time>
      </trkpt>
      <trkpt lat="44.31077" lon="5.89155">
        <ele>595</ele>
        <time>2019-08-17T08:44:58Z</time>
      </trkpt>
      <trkpt lat="44.3107" lon="5.89156">
        <ele>595</ele>
        <time>2019-08-17T08:44:59Z</time>
      </trkpt>
      <trkpt lat="44.31062" lon="5.89157">
        <ele>595</ele>
        <time>2019-08-17T08:45:00Z</time>
      </trkpt>
      <trkpt lat="44.31055" lon="5.89158">
        <ele>595</ele>
        <time>2019-08-17T08:45:01Z</time>
      </trkpt>
      <trkpt lat="44.31048" lon="5.89159">
        <ele>595</ele>
        <time>2019-08-17T08:45:02Z</time>
      </trkpt>
      <trkpt lat="44.31041" lon="5.8916">
        <ele>595</ele>
        <time>2019-08-17T08:45:03Z</time>
      </trkpt>
      <trkpt lat="44.31034" lon="5.89161">
        <ele>595</ele>
        <time>2019-08-17T08:45:04Z</time>
      </trkpt>
      <trkpt lat="44.31027" lon="5.89162">
        <ele>595</ele>
        <time>2019-08-17T08:45:05Z</time>
      </trkpt>
      <trkpt lat="44.3102" lon="5.89163">
        <ele>595</ele>
        <time>2019-08-17T08:45:06Z</time>
      </trkpt>
      <trkpt lat="44.31013" lon="5.89165">
        <ele>595</ele>
        <time>2019-08-17T08:45:07Z</time>
      </trkpt>
      <trkpt lat="44.31006" lon="5.89166">
        <ele>595</ele>
        <time>2019-08-17T08:45:08Z</time>
      </trkpt>
      <trkpt lat="44.30999" lon="5.89168">
        <ele>595</ele>
        <time>2019-08-17T08:45:09Z</time>
      </trkpt>
      <trkpt lat="44.30992" lon="5.8917">
        <ele>595</ele>
        <time>2019-08-17T08:45:10Z</time>
      </trkpt>
      <trkpt lat="44.30984" lon="5.89172">
        <ele>595</ele>
        <time>2019-08-17T08:45:11Z</time>
      </trkpt>
      <trkpt lat="44.30977" lon="5.89174">
        <ele>595</ele>
        <time>2019-08-17T08:45:13Z</time>
      </trkpt>
      <trkpt lat="44.30969" lon="5.89176">
        <ele>595</ele>
        <time>2019-08-17T08:45:13Z</time>
      </trkpt>
      <trkpt lat="44.30962" lon="5.89178">
        <ele>595</ele>
        <time>2019-08-17T08:45:14Z</time>
      </trkpt>
      <trkpt lat="44.30953" lon="5.89181">
        <ele>595</ele>
        <time>2019-08-17T08:45:15Z</time>
      </trkpt>
      <trkpt lat="44.30945" lon="5.89183">
        <ele>595</ele>
        <time>2019-08-17T08:45:16Z</time>
      </trkpt>
      <trkpt lat="44.30936" lon="5.89186">
        <ele>595</ele>
        <time>2019-08-17T08:45:17Z</time>
      </trkpt>
      <trkpt lat="44.30928" lon="5.89189">
        <ele>595</ele>
        <time>2019-08-17T08:45:18Z</time>
      </trkpt>
      <trkpt lat="44.30919" lon="5.89192">
        <ele>595</ele>
        <time>2019-08-17T08:45:19Z</time>
      </trkpt>
      <trkpt lat="44.3091" lon="5.89194">
        <ele>594</ele>
        <time>2019-08-17T08:45:20Z</time>
      </trkpt>
      <trkpt lat="44.30901" lon="5.89197">
        <ele>594</ele>
        <time>2019-08-17T08:45:21Z</time>
      </trkpt>
      <trkpt lat="44.30892" lon="5.892">
        <ele>594</ele>
        <time>2019-08-17T08:45:22Z</time>
      </trkpt>
      <trkpt lat="44.30883" lon="5.89203">
        <ele>594</ele>
        <time>2019-08-17T08:45:23Z</time>
      </trkpt>
      <trkpt lat="44.30874" lon="5.89205">
        <ele>593</ele>
        <time>2019-08-17T08:45:24Z</time>
      </trkpt>
      <trkpt lat="44.30865" lon="5.89208">
        <ele>593</ele>
        <time>2019-08-17T08:45:25Z</time>
      </trkpt>
      <trkpt lat="44.30856" lon="5.89211">
        <ele>593</ele>
        <time>2019-08-17T08:45:26Z</time>
      </trkpt>
      <trkpt lat="44.30846" lon="5.89214">
        <ele>593</ele>
        <time>2019-08-17T08:45:27Z</time>
      </trkpt>
      <trkpt lat="44.30837" lon="5.89217">
        <ele>592</ele>
        <time>2019-08-17T08:45:28Z</time>
      </trkpt>
      <trkpt lat="44.30828" lon="5.8922">
        <ele>592</ele>
        <time>2019-08-17T08:45:29Z</time>
      </trkpt>
      <trkpt lat="44.30819" lon="5.89222">
        <ele>591</ele>
        <time>2019-08-17T08:45:30Z</time>
      </trkpt>
      <trkpt lat="44.30809" lon="5.89225">
        <ele>591</ele>
        <time>2019-08-17T08:45:31Z</time>
      </trkpt>
      <trkpt lat="44.308" lon="5.89228">
        <ele>591</ele>
        <time>2019-08-17T08:45:32Z</time>
      </trkpt>
      <trkpt lat="44.3079" lon="5.89231">
        <ele>590</ele>
        <time>2019-08-17T08:45:33Z</time>
      </trkpt>
      <trkpt lat="44.30781" lon="5.89234">
        <ele>590</ele>
        <time>2019-08-17T08:45:34Z</time>
      </trkpt>
      <trkpt lat="44.30772" lon="5.89236">
        <ele>589</ele>
        <time>2019-08-17T08:45:35Z</time>
      </trkpt>
      <trkpt lat="44.30762" lon="5.8924">
        <ele>589</ele>
        <time>2019-08-17T08:45:36Z</time>
      </trkpt>
      <trkpt lat="44.30753" lon="5.89242">
        <ele>589</ele>
        <time>2019-08-17T08:45:37Z</time>
      </trkpt>
      <trkpt lat="44.30744" lon="5.89245">
        <ele>589</ele>
        <time>2019-08-17T08:45:38Z</time>
      </trkpt>
      <trkpt lat="44.30735" lon="5.89248">
        <ele>589</ele>
        <time>2019-08-17T08:45:39Z</time>
      </trkpt>
      <trkpt lat="44.30726" lon="5.8925">
        <ele>589</ele>
        <time>2019-08-17T08:45:40Z</time>
      </trkpt>
      <trkpt lat="44.30717" lon="5.89253">
        <ele>589</ele>
        <time>2019-08-17T08:45:41Z</time>
      </trkpt>
      <trkpt lat="44.30709" lon="5.89256">
        <ele>589</ele>
        <time>2019-08-17T08:45:42Z</time>
      </trkpt>
      <trkpt lat="44.30701" lon="5.89258">
        <ele>589</ele>
        <time>2019-08-17T08:45:43Z</time>
      </trkpt>
      <trkpt lat="44.30692" lon="5.8926">
        <ele>589</ele>
        <time>2019-08-17T08:45:44Z</time>
      </trkpt>
      <trkpt lat="44.30684" lon="5.89263">
        <ele>589</ele>
        <time>2019-08-17T08:45:45Z</time>
      </trkpt>
      <trkpt lat="44.30676" lon="5.89265">
        <ele>589</ele>
        <time>2019-08-17T08:45:46Z</time>
      </trkpt>
      <trkpt lat="44.30669" lon="5.89267">
        <ele>589</ele>
        <time>2019-08-17T08:45:47Z</time>
      </trkpt>
      <trkpt lat="44.30661" lon="5.8927">
        <ele>589</ele>
        <time>2019-08-17T08:45:48Z</time>
      </trkpt>
      <trkpt lat="44.30653" lon="5.89272">
        <ele>589</ele>
        <time>2019-08-17T08:45:49Z</time>
      </trkpt>
      <trkpt lat="44.30645" lon="5.89274">
        <ele>589</ele>
        <time>2019-08-17T08:45:50Z</time>
      </trkpt>
      <trkpt lat="44.30638" lon="5.89276">
        <ele>589</ele>
        <time>2019-08-17T08:45:51Z</time>
      </trkpt>
      <trkpt lat="44.3063" lon="5.89279">
        <ele>589</ele>
        <time>2019-08-17T08:45:52Z</time>
      </trkpt>
      <trkpt lat="44.30623" lon="5.89281">
        <ele>589</ele>
        <time>2019-08-17T08:45:53Z</time>
      </trkpt>
      <trkpt lat="44.30615" lon="5.89284">
        <ele>589</ele>
        <time>2019-08-17T08:45:54Z</time>
      </trkpt>
      <trkpt lat="44.30608" lon="5.89286">
        <ele>589</ele>
        <time>2019-08-17T08:45:55Z</time>
      </trkpt>
      <trkpt lat="44.306" lon="5.89288">
        <ele>589</ele>
        <time>2019-08-17T08:45:56Z</time>
      </trkpt>
      <trkpt lat="44.30593" lon="5.89291">
        <ele>589</ele>
        <time>2019-08-17T08:45:57Z</time>
      </trkpt>
      <trkpt lat="44.30585" lon="5.89292">
        <ele>589</ele>
        <time>2019-08-17T08:45:58Z</time>
      </trkpt>
      <trkpt lat="44.30578" lon="5.89294">
        <ele>589</ele>
        <time>2019-08-17T08:45:59Z</time>
      </trkpt>
      <trkpt lat="44.30571" lon="5.89297">
        <ele>589</ele>
        <time>2019-08-17T08:46:00Z</time>
      </trkpt>
      <trkpt lat="44.30563" lon="5.89299">
        <ele>589</ele>
        <time>2019-08-17T08:46:01Z</time>
      </trkpt>
      <trkpt lat="44.30556" lon="5.89301">
        <ele>589</ele>
        <time>2019-08-17T08:46:02Z</time>
      </trkpt>
      <trkpt lat="44.30548" lon="5.89303">
        <ele>589</ele>
        <time>2019-08-17T08:46:03Z</time>
      </trkpt>
      <trkpt lat="44.30541" lon="5.89305">
        <ele>589</ele>
        <time>2019-08-17T08:46:04Z</time>
      </trkpt>
      <trkpt lat="44.30534" lon="5.89308">
        <ele>589</ele>
        <time>2019-08-17T08:46:05Z</time>
      </trkpt>
      <trkpt lat="44.30526" lon="5.8931">
        <ele>589</ele>
        <time>2019-08-17T08:46:06Z</time>
      </trkpt>
      <trkpt lat="44.30519" lon="5.89312">
        <ele>589</ele>
        <time>2019-08-17T08:46:07Z</time>
      </trkpt>
      <trkpt lat="44.30512" lon="5.89315">
        <ele>589</ele>
        <time>2019-08-17T08:46:08Z</time>
      </trkpt>
      <trkpt lat="44.30504" lon="5.89317">
        <ele>589</ele>
        <time>2019-08-17T08:46:09Z</time>
      </trkpt>
      <trkpt lat="44.30497" lon="5.8932">
        <ele>589</ele>
        <time>2019-08-17T08:46:10Z</time>
      </trkpt>
      <trkpt lat="44.3049" lon="5.89322">
        <ele>589</ele>
        <time>2019-08-17T08:46:11Z</time>
      </trkpt>
      <trkpt lat="44.30483" lon="5.89324">
        <ele>589</ele>
        <time>2019-08-17T08:46:13Z</time>
      </trkpt>
      <trkpt lat="44.30476" lon="5.89327">
        <ele>589</ele>
        <time>2019-08-17T08:46:13Z</time>
      </trkpt>
      <trkpt lat="44.30469" lon="5.89329">
        <ele>589</ele>
        <time>2019-08-17T08:46:14Z</time>
      </trkpt>
      <trkpt lat="44.30462" lon="5.89331">
        <ele>589</ele>
        <time>2019-08-17T08:46:15Z</time>
      </trkpt>
      <trkpt lat="44.30455" lon="5.89333">
        <ele>589</ele>
        <time>2019-08-17T08:46:16Z</time>
      </trkpt>
      <trkpt lat="44.30448" lon="5.89335">
        <ele>589</ele>
        <time>2019-08-17T08:46:17Z</time>
      </trkpt>
      <trkpt lat="44.30442" lon="5.89337">
        <ele>589</ele>
        <time>2019-08-17T08:46:18Z</time>
      </trkpt>
      <trkpt lat="44.30435" lon="5.89339">
        <ele>589</ele>
        <time>2019-08-17T08:46:19Z</time>
      </trkpt>
      <trkpt lat="44.30428" lon="5.89341">
        <ele>589</ele>
        <time>2019-08-17T08:46:20Z</time>
      </trkpt>
      <trkpt lat="44.30421" lon="5.89344">
        <ele>589</ele>
        <time>2019-08-17T08:46:21Z</time>
      </trkpt>
      <trkpt lat="44.30414" lon="5.89346">
        <ele>589</ele>
        <time>2019-08-17T08:46:22Z</time>
      </trkpt>
      <trkpt lat="44.30407" lon="5.89348">
        <ele>589</ele>
        <time>2019-08-17T08:46:23Z</time>
      </trkpt>
      <trkpt lat="44.30399" lon="5.8935">
        <ele>589</ele>
        <time>2019-08-17T08:46:24Z</time>
      </trkpt>
      <trkpt lat="44.30392" lon="5.89352">
        <ele>589</ele>
        <time>2019-08-17T08:46:25Z</time>
      </trkpt>
      <trkpt lat="44.30384" lon="5.89355">
        <ele>589</ele>
        <time>2019-08-17T08:46:26Z</time>
      </trkpt>
      <trkpt lat="44.30376" lon="5.89357">
        <ele>589</ele>
        <time>2019-08-17T08:46:27Z</time>
      </trkpt>
      <trkpt lat="44.30368" lon="5.89359">
        <ele>589</ele>
        <time>2019-08-17T08:46:28Z</time>
      </trkpt>
      <trkpt lat="44.3036" lon="5.89361">
        <ele>589</ele>
        <time>2019-08-17T08:46:29Z</time>
      </trkpt>
      <trkpt lat="44.30352" lon="5.89364">
        <ele>589</ele>
        <time>2019-08-17T08:46:30Z</time>
      </trkpt>
      <trkpt lat="44.30344" lon="5.89366">
        <ele>589</ele>
        <time>2019-08-17T08:46:31Z</time>
      </trkpt>
      <trkpt lat="44.30336" lon="5.89368">
        <ele>589</ele>
        <time>2019-08-17T08:46:32Z</time>
      </trkpt>
      <trkpt lat="44.30327" lon="5.8937">
        <ele>589</ele>
        <time>2019-08-17T08:46:33Z</time>
      </trkpt>
      <trkpt lat="44.30319" lon="5.89373">
        <ele>589</ele>
        <time>2019-08-17T08:46:34Z</time>
      </trkpt>
      <trkpt lat="44.3031" lon="5.89376">
        <ele>588</ele>
        <time>2019-08-17T08:46:35Z</time>
      </trkpt>
      <trkpt lat="44.30302" lon="5.89378">
        <ele>588</ele>
        <time>2019-08-17T08:46:36Z</time>
      </trkpt>
      <trkpt lat="44.30293" lon="5.89381">
        <ele>588</ele>
        <time>2019-08-17T08:46:37Z</time>
      </trkpt>
      <trkpt lat="44.30284" lon="5.89383">
        <ele>588</ele>
        <time>2019-08-17T08:46:38Z</time>
      </trkpt>
      <trkpt lat="44.30276" lon="5.89386">
        <ele>588</ele>
        <time>2019-08-17T08:46:39Z</time>
      </trkpt>
      <trkpt lat="44.30267" lon="5.89388">
        <ele>588</ele>
        <time>2019-08-17T08:46:40Z</time>
      </trkpt>
      <trkpt lat="44.30259" lon="5.89391">
        <ele>588</ele>
        <time>2019-08-17T08:46:41Z</time>
      </trkpt>
      <trkpt lat="44.30251" lon="5.89393">
        <ele>588</ele>
        <time>2019-08-17T08:46:42Z</time>
      </trkpt>
      <trkpt lat="44.30242" lon="5.89396">
        <ele>588</ele>
        <time>2019-08-17T08:46:43Z</time>
      </trkpt>
      <trkpt lat="44.30234" lon="5.89398">
        <ele>588</ele>
        <time>2019-08-17T08:46:44Z</time>
      </trkpt>
      <trkpt lat="44.30226" lon="5.894">
        <ele>588</ele>
        <time>2019-08-17T08:46:45Z</time>
      </trkpt>
      <trkpt lat="44.30218" lon="5.89403">
        <ele>588</ele>
        <time>2019-08-17T08:46:46Z</time>
      </trkpt>
      <trkpt lat="44.3021" lon="5.89405">
        <ele>588</ele>
        <time>2019-08-17T08:46:47Z</time>
      </trkpt>
      <trkpt lat="44.30202" lon="5.89407">
        <ele>588</ele>
        <time>2019-08-17T08:46:48Z</time>
      </trkpt>
      <trkpt lat="44.30195" lon="5.89409">
        <ele>588</ele>
        <time>2019-08-17T08:46:49Z</time>
      </trkpt>
      <trkpt lat="44.30187" lon="5.89412">
        <ele>588</ele>
        <time>2019-08-17T08:46:50Z</time>
      </trkpt>
      <trkpt lat="44.30179" lon="5.89414">
        <ele>588</ele>
        <time>2019-08-17T08:46:51Z</time>
      </trkpt>
      <trkpt lat="44.30172" lon="5.89417">
        <ele>588</ele>
        <time>2019-08-17T08:46:52Z</time>
      </trkpt>
      <trkpt lat="44.30164" lon="5.89419">
        <ele>588</ele>
        <time>2019-08-17T08:46:53Z</time>
      </trkpt>
      <trkpt lat="44.30156" lon="5.89421">
        <ele>588</ele>
        <time>2019-08-17T08:46:54Z</time>
      </trkpt>
      <trkpt lat="44.30149" lon="5.89423">
        <ele>588</ele>
        <time>2019-08-17T08:46:55Z</time>
      </trkpt>
      <trkpt lat="44.30142" lon="5.89425">
        <ele>588</ele>
        <time>2019-08-17T08:46:56Z</time>
      </trkpt>
      <trkpt lat="44.30134" lon="5.89428">
        <ele>588</ele>
        <time>2019-08-17T08:46:57Z</time>
      </trkpt>
      <trkpt lat="44.30127" lon="5.8943">
        <ele>588</ele>
        <time>2019-08-17T08:46:58Z</time>
      </trkpt>
      <trkpt lat="44.30119" lon="5.89433">
        <ele>588</ele>
        <time>2019-08-17T08:46:59Z</time>
      </trkpt>
      <trkpt lat="44.30112" lon="5.89435">
        <ele>588</ele>
        <time>2019-08-17T08:47:00Z</time>
      </trkpt>
      <trkpt lat="44.30105" lon="5.89437">
        <ele>588</ele>
        <time>2019-08-17T08:47:01Z</time>
      </trkpt>
      <trkpt lat="44.30097" lon="5.89439">
        <ele>588</ele>
        <time>2019-08-17T08:47:02Z</time>
      </trkpt>
      <trkpt lat="44.3009" lon="5.89441">
        <ele>588</ele>
        <time>2019-08-17T08:47:03Z</time>
      </trkpt>
      <trkpt lat="44.30083" lon="5.89443">
        <ele>588</ele>
        <time>2019-08-17T08:47:04Z</time>
      </trkpt>
      <trkpt lat="44.30075" lon="5.89446">
        <ele>588</ele>
        <time>2019-08-17T08:47:05Z</time>
      </trkpt>
      <trkpt lat="44.30068" lon="5.89448">
        <ele>588</ele>
        <time>2019-08-17T08:47:06Z</time>
      </trkpt>
      <trkpt lat="44.30061" lon="5.89451">
        <ele>588</ele>
        <time>2019-08-17T08:47:07Z</time>
      </trkpt>
      <trkpt lat="44.30053" lon="5.89454">
        <ele>587</ele>
        <time>2019-08-17T08:47:08Z</time>
      </trkpt>
      <trkpt lat="44.30046" lon="5.89456">
        <ele>587</ele>
        <time>2019-08-17T08:47:09Z</time>
      </trkpt>
      <trkpt lat="44.30038" lon="5.89458">
        <ele>587</ele>
        <time>2019-08-17T08:47:10Z</time>
      </trkpt>
      <trkpt lat="44.30031" lon="5.89461">
        <ele>587</ele>
        <time>2019-08-17T08:47:11Z</time>
      </trkpt>
      <trkpt lat="44.30023" lon="5.89463">
        <ele>587</ele>
        <time>2019-08-17T08:47:13Z</time>
      </trkpt>
      <trkpt lat="44.30016" lon="5.89466">
        <ele>587</ele>
        <time>2019-08-17T08:47:13Z</time>
      </trkpt>
      <trkpt lat="44.30008" lon="5.89467">
        <ele>587</ele>
        <time>2019-08-17T08:47:14Z</time>
      </trkpt>
      <trkpt lat="44.30001" lon="5.8947">
        <ele>587</ele>
        <time>2019-08-17T08:47:15Z</time>
      </trkpt>
      <trkpt lat="44.29993" lon="5.89472">
        <ele>587</ele>
        <time>2019-08-17T08:47:16Z</time>
      </trkpt>
      <trkpt lat="44.29986" lon="5.89474">
        <ele>587</ele>
        <time>2019-08-17T08:47:17Z</time>
      </trkpt>
      <trkpt lat="44.29979" lon="5.89476">
        <ele>587</ele>
        <time>2019-08-17T08:47:18Z</time>
      </trkpt>
      <trkpt lat="44.29972" lon="5.89478">
        <ele>587</ele>
        <time>2019-08-17T08:47:19Z</time>
      </trkpt>
      <trkpt lat="44.29964" lon="5.8948">
        <ele>587</ele>
        <time>2019-08-17T08:47:20Z</time>
      </trkpt>
      <trkpt lat="44.29958" lon="5.89482">
        <ele>587</ele>
        <time>2019-08-17T08:47:21Z</time>
      </trkpt>
      <trkpt lat="44.2995" lon="5.89484">
        <ele>587</ele>
        <time>2019-08-17T08:47:22Z</time>
      </trkpt>
      <trkpt lat="44.29944" lon="5.89486">
        <ele>587</ele>
        <time>2019-08-17T08:47:23Z</time>
      </trkpt>
      <trkpt lat="44.29937" lon="5.89488">
        <ele>587</ele>
        <time>2019-08-17T08:47:24Z</time>
      </trkpt>
      <trkpt lat="44.2993" lon="5.8949">
        <ele>587</ele>
        <time>2019-08-17T08:47:25Z</time>
      </trkpt>
      <trkpt lat="44.29923" lon="5.89492">
        <ele>587</ele>
        <time>2019-08-17T08:47:26Z</time>
      </trkpt>
      <trkpt lat="44.29916" lon="5.89494">
        <ele>587</ele>
        <time>2019-08-17T08:47:27Z</time>
      </trkpt>
      <trkpt lat="44.2991" lon="5.89496">
        <ele>587</ele>
        <time>2019-08-17T08:47:28Z</time>
      </trkpt>
      <trkpt lat="44.29903" lon="5.89498">
        <ele>587</ele>
        <time>2019-08-17T08:47:29Z</time>
      </trkpt>
      <trkpt lat="44.29897" lon="5.895">
        <ele>587</ele>
        <time>2019-08-17T08:47:30Z</time>
      </trkpt>
      <trkpt lat="44.2989" lon="5.89502">
        <ele>587</ele>
        <time>2019-08-17T08:47:31Z</time>
      </trkpt>
      <trkpt lat="44.29884" lon="5.89504">
        <ele>587</ele>
        <time>2019-08-17T08:47:32Z</time>
      </trkpt>
      <trkpt lat="44.29877" lon="5.89505">
        <ele>587</ele>
        <time>2019-08-17T08:47:33Z</time>
      </trkpt>
      <trkpt lat="44.29871" lon="5.89507">
        <ele>587</ele>
        <time>2019-08-17T08:47:34Z</time>
      </trkpt>
      <trkpt lat="44.29865" lon="5.89509">
        <ele>587</ele>
        <time>2019-08-17T08:47:35Z</time>
      </trkpt>
      <trkpt lat="44.29858" lon="5.89511">
        <ele>587</ele>
        <time>2019-08-17T08:47:36Z</time>
      </trkpt>
      <trkpt lat="44.29852" lon="5.89512">
        <ele>587</ele>
        <time>2019-08-17T08:47:37Z</time>
      </trkpt>
      <trkpt lat="44.29846" lon="5.89514">
        <ele>587</ele>
        <time>2019-08-17T08:47:38Z</time>
      </trkpt>
      <trkpt lat="44.29839" lon="5.89515">
        <ele>587</ele>
        <time>2019-08-17T08:47:39Z</time>
      </trkpt>
      <trkpt lat="44.29833" lon="5.89517">
        <ele>587</ele>
        <time>2019-08-17T08:47:40Z</time>
      </trkpt>
      <trkpt lat="44.29827" lon="5.89518">
        <ele>587</ele>
        <time>2019-08-17T08:47:41Z</time>
      </trkpt>
      <trkpt lat="44.2982" lon="5.89519">
        <ele>587</ele>
        <time>2019-08-17T08:47:42Z</time>
      </trkpt>
      <trkpt lat="44.29814" lon="5.89519">
        <ele>587</ele>
        <time>2019-08-17T08:47:43Z</time>
      </trkpt>
      <trkpt lat="44.29807" lon="5.89519">
        <ele>587</ele>
        <time>2019-08-17T08:47:44Z</time>
      </trkpt>
      <trkpt lat="44.29801" lon="5.89519">
        <ele>587</ele>
        <time>2019-08-17T08:47:45Z</time>
      </trkpt>
      <trkpt lat="44.29794" lon="5.89519">
        <ele>587</ele>
        <time>2019-08-17T08:47:46Z</time>
      </trkpt>
      <trkpt lat="44.29788" lon="5.89519">
        <ele>587</ele>
        <time>2019-08-17T08:47:47Z</time>
      </trkpt>
      <trkpt lat="44.29781" lon="5.89519">
        <ele>587</ele>
        <time>2019-08-17T08:47:48Z</time>
      </trkpt>
      <trkpt lat="44.29774" lon="5.89518">
        <ele>587</ele>
        <time>2019-08-17T08:47:49Z</time>
      </trkpt>
      <trkpt lat="44.29767" lon="5.89518">
        <ele>587</ele>
        <time>2019-08-17T08:47:50Z</time>
      </trkpt>
      <trkpt lat="44.2976" lon="5.89518">
        <ele>587</ele>
        <time>2019-08-17T08:47:51Z</time>
      </trkpt>
      <trkpt lat="44.29752" lon="5.89518">
        <ele>586</ele>
        <time>2019-08-17T08:47:52Z</time>
      </trkpt>
      <trkpt lat="44.29744" lon="5.89518">
        <ele>586</ele>
        <time>2019-08-17T08:47:53Z</time>
      </trkpt>
      <trkpt lat="44.29736" lon="5.89517">
        <ele>586</ele>
        <time>2019-08-17T08:47:54Z</time>
      </trkpt>
      <trkpt lat="44.29728" lon="5.89517">
        <ele>585</ele>
        <time>2019-08-17T08:47:55Z</time>
      </trkpt>
      <trkpt lat="44.2972" lon="5.89517">
        <ele>585</ele>
        <time>2019-08-17T08:47:56Z</time>
      </trkpt>
      <trkpt lat="44.29712" lon="5.89516">
        <ele>585</ele>
        <time>2019-08-17T08:47:57Z</time>
      </trkpt>
      <trkpt lat="44.29704" lon="5.89516">
        <ele>585</ele>
        <time>2019-08-17T08:47:58Z</time>
      </trkpt>
      <trkpt lat="44.29696" lon="5.89516">
        <ele>585</ele>
        <time>2019-08-17T08:47:59Z</time>
      </trkpt>
      <trkpt lat="44.29688" lon="5.89516">
        <ele>585</ele>
        <time>2019-08-17T08:48:00Z</time>
      </trkpt>
      <trkpt lat="44.2968" lon="5.89515">
        <ele>585</ele>
        <time>2019-08-17T08:48:01Z</time>
      </trkpt>
      <trkpt lat="44.29673" lon="5.89515">
        <ele>585</ele>
        <time>2019-08-17T08:48:02Z</time>
      </trkpt>
      <trkpt lat="44.29665" lon="5.89515">
        <ele>585</ele>
        <time>2019-08-17T08:48:03Z</time>
      </trkpt>
      <trkpt lat="44.29658" lon="5.89515">
        <ele>585</ele>
        <time>2019-08-17T08:48:04Z</time>
      </trkpt>
      <trkpt lat="44.29651" lon="5.89515">
        <ele>585</ele>
        <time>2019-08-17T08:48:05Z</time>
      </trkpt>
      <trkpt lat="44.29644" lon="5.89514">
        <ele>585</ele>
        <time>2019-08-17T08:48:06Z</time>
      </trkpt>
      <trkpt lat="44.29638" lon="5.89514">
        <ele>585</ele>
        <time>2019-08-17T08:48:07Z</time>
      </trkpt>
      <trkpt lat="44.29631" lon="5.89514">
        <ele>585</ele>
        <time>2019-08-17T08:48:08Z</time>
      </trkpt>
      <trkpt lat="44.29625" lon="5.89513">
        <ele>585</ele>
        <time>2019-08-17T08:48:09Z</time>
      </trkpt>
      <trkpt lat="44.29619" lon="5.89513">
        <ele>585</ele>
        <time>2019-08-17T08:48:10Z</time>
      </trkpt>
      <trkpt lat="44.29613" lon="5.89513">
        <ele>585</ele>
        <time>2019-08-17T08:48:11Z</time>
      </trkpt>
      <trkpt lat="44.29607" lon="5.89514">
        <ele>585</ele>
        <time>2019-08-17T08:48:12Z</time>
      </trkpt>
      <trkpt lat="44.29602" lon="5.89514">
        <ele>585</ele>
        <time>2019-08-17T08:48:13Z</time>
      </trkpt>
      <trkpt lat="44.29596" lon="5.89515">
        <ele>585</ele>
        <time>2019-08-17T08:48:14Z</time>
      </trkpt>
      <trkpt lat="44.29591" lon="5.89516">
        <ele>585</ele>
        <time>2019-08-17T08:48:15Z</time>
      </trkpt>
      <trkpt lat="44.29585" lon="5.89518">
        <ele>585</ele>
        <time>2019-08-17T08:48:16Z</time>
      </trkpt>
      <trkpt lat="44.2958" lon="5.8952">
        <ele>585</ele>
        <time>2019-08-17T08:48:17Z</time>
      </trkpt>
      <trkpt lat="44.29575" lon="5.89522">
        <ele>585</ele>
        <time>2019-08-17T08:48:18Z</time>
      </trkpt>
      <trkpt lat="44.2957" lon="5.89524">
        <ele>585</ele>
        <time>2019-08-17T08:48:19Z</time>
      </trkpt>
      <trkpt lat="44.29566" lon="5.89526">
        <ele>585</ele>
        <time>2019-08-17T08:48:20Z</time>
      </trkpt>
      <trkpt lat="44.29562" lon="5.89529">
        <ele>585</ele>
        <time>2019-08-17T08:48:21Z</time>
      </trkpt>
      <trkpt lat="44.29558" lon="5.89531">
        <ele>586</ele>
        <time>2019-08-17T08:48:22Z</time>
      </trkpt>
      <trkpt lat="44.29554" lon="5.89533">
        <ele>586</ele>
        <time>2019-08-17T08:48:23Z</time>
      </trkpt>
      <trkpt lat="44.29549" lon="5.89535">
        <ele>586</ele>
        <time>2019-08-17T08:48:24Z</time>
      </trkpt>
      <trkpt lat="44.29545" lon="5.89537">
        <ele>586</ele>
        <time>2019-08-17T08:48:25Z</time>
      </trkpt>
      <trkpt lat="44.29541" lon="5.8954">
        <ele>587</ele>
        <time>2019-08-17T08:48:26Z</time>
      </trkpt>
      <trkpt lat="44.29537" lon="5.89542">
        <ele>587</ele>
        <time>2019-08-17T08:48:27Z</time>
      </trkpt>
      <trkpt lat="44.29533" lon="5.89544">
        <ele>587</ele>
        <time>2019-08-17T08:48:28Z</time>
      </trkpt>
      <trkpt lat="44.29528" lon="5.89547">
        <ele>587</ele>
        <time>2019-08-17T08:48:29Z</time>
      </trkpt>
      <trkpt lat="44.29524" lon="5.89549">
        <ele>588</ele>
        <time>2019-08-17T08:48:30Z</time>
      </trkpt>
      <trkpt lat="44.2952" lon="5.89551">
        <ele>588</ele>
        <time>2019-08-17T08:48:31Z</time>
      </trkpt>
      <trkpt lat="44.29516" lon="5.89553">
        <ele>588</ele>
        <time>2019-08-17T08:48:32Z</time>
      </trkpt>
      <trkpt lat="44.29512" lon="5.89555">
        <ele>588</ele>
        <time>2019-08-17T08:48:33Z</time>
      </trkpt>
      <trkpt lat="44.29508" lon="5.89557">
        <ele>588</ele>
        <time>2019-08-17T08:48:34Z</time>
      </trkpt>
      <trkpt lat="44.29504" lon="5.89559">
        <ele>588</ele>
        <time>2019-08-17T08:48:35Z</time>
      </trkpt>
      <trkpt lat="44.295" lon="5.89561">
        <ele>588</ele>
        <time>2019-08-17T08:48:36Z</time>
      </trkpt>
      <trkpt lat="44.29496" lon="5.89563">
        <ele>588</ele>
        <time>2019-08-17T08:48:37Z</time>
      </trkpt>
      <trkpt lat="44.29492" lon="5.89564">
        <ele>588</ele>
        <time>2019-08-17T08:48:38Z</time>
      </trkpt>
      <trkpt lat="44.29488" lon="5.89565">
        <ele>589</ele>
        <time>2019-08-17T08:48:39Z</time>
      </trkpt>
      <trkpt lat="44.29483" lon="5.89566">
        <ele>589</ele>
        <time>2019-08-17T08:48:40Z</time>
      </trkpt>
      <trkpt lat="44.2948" lon="5.89567">
        <ele>589</ele>
        <time>2019-08-17T08:48:41Z</time>
      </trkpt>
      <trkpt lat="44.29476" lon="5.89568">
        <ele>589</ele>
        <time>2019-08-17T08:48:42Z</time>
      </trkpt>
      <trkpt lat="44.29472" lon="5.89569">
        <ele>590</ele>
        <time>2019-08-17T08:48:43Z</time>
      </trkpt>
      <trkpt lat="44.29467" lon="5.8957">
        <ele>590</ele>
        <time>2019-08-17T08:48:44Z</time>
      </trkpt>
      <trkpt lat="44.29463" lon="5.89571">
        <ele>590</ele>
        <time>2019-08-17T08:48:45Z</time>
      </trkpt>
      <trkpt lat="44.29459" lon="5.89571">
        <ele>590</ele>
        <time>2019-08-17T08:48:46Z</time>
      </trkpt>
      <trkpt lat="44.29454" lon="5.89572">
        <ele>590</ele>
        <time>2019-08-17T08:48:47Z</time>
      </trkpt>
      <trkpt lat="44.29449" lon="5.89572">
        <ele>590</ele>
        <time>2019-08-17T08:48:48Z</time>
      </trkpt>
      <trkpt lat="44.29444" lon="5.89572">
        <ele>590</ele>
        <time>2019-08-17T08:48:49Z</time>
      </trkpt>
      <trkpt lat="44.29439" lon="5.89572">
        <ele>590</ele>
        <time>2019-08-17T08:48:50Z</time>
      </trkpt>
      <trkpt lat="44.29434" lon="5.89573">
        <ele>590</ele>
        <time>2019-08-17T08:48:51Z</time>
      </trkpt>
      <trkpt lat="44.29428" lon="5.89573">
        <ele>590</ele>
        <time>2019-08-17T08:48:52Z</time>
      </trkpt>
      <trkpt lat="44.29423" lon="5.89573">
        <ele>590</ele>
        <time>2019-08-17T08:48:53Z</time>
      </trkpt>
      <trkpt lat="44.29417" lon="5.89574">
        <ele>590</ele>
        <time>2019-08-17T08:48:54Z</time>
      </trkpt>
      <trkpt lat="44.29412" lon="5.89574">
        <ele>590</ele>
        <time>2019-08-17T08:48:55Z</time>
      </trkpt>
      <trkpt lat="44.29406" lon="5.89574">
        <ele>590</ele>
        <time>2019-08-17T08:48:56Z</time>
      </trkpt>
      <trkpt lat="44.29401" lon="5.89575">
        <ele>591</ele>
        <time>2019-08-17T08:48:57Z</time>
      </trkpt>
      <trkpt lat="44.29395" lon="5.89575">
        <ele>591</ele>
        <time>2019-08-17T08:48:58Z</time>
      </trkpt>
      <trkpt lat="44.29389" lon="5.89576">
        <ele>591</ele>
        <time>2019-08-17T08:48:59Z</time>
      </trkpt>
      <trkpt lat="44.29383" lon="5.89576">
        <ele>591</ele>
        <time>2019-08-17T08:49:00Z</time>
      </trkpt>
      <trkpt lat="44.29378" lon="5.89576">
        <ele>591</ele>
        <time>2019-08-17T08:49:01Z</time>
      </trkpt>
      <trkpt lat="44.29372" lon="5.89576">
        <ele>591</ele>
        <time>2019-08-17T08:49:02Z</time>
      </trkpt>
      <trkpt lat="44.29367" lon="5.89577">
        <ele>592</ele>
        <time>2019-08-17T08:49:03Z</time>
      </trkpt>
      <trkpt lat="44.29361" lon="5.89577">
        <ele>592</ele>
        <time>2019-08-17T08:49:04Z</time>
      </trkpt>
      <trkpt lat="44.29355" lon="5.89578">
        <ele>592</ele>
        <time>2019-08-17T08:49:05Z</time>
      </trkpt>
      <trkpt lat="44.29349" lon="5.89578">
        <ele>592</ele>
        <time>2019-08-17T08:49:06Z</time>
      </trkpt>
      <trkpt lat="44.29343" lon="5.89579">
        <ele>592</ele>
        <time>2019-08-17T08:49:07Z</time>
      </trkpt>
      <trkpt lat="44.29338" lon="5.8958">
        <ele>592</ele>
        <time>2019-08-17T08:49:08Z</time>
      </trkpt>
      <trkpt lat="44.29332" lon="5.89581">
        <ele>592</ele>
        <time>2019-08-17T08:49:09Z</time>
      </trkpt>
      <trkpt lat="44.29326" lon="5.89583">
        <ele>592</ele>
        <time>2019-08-17T08:49:10Z</time>
      </trkpt>
      <trkpt lat="44.29319" lon="5.89584">
        <ele>592</ele>
        <time>2019-08-17T08:49:11Z</time>
      </trkpt>
      <trkpt lat="44.29313" lon="5.89586">
        <ele>592</ele>
        <time>2019-08-17T08:49:13Z</time>
      </trkpt>
      <trkpt lat="44.29308" lon="5.89589">
        <ele>593</ele>
        <time>2019-08-17T08:49:13Z</time>
      </trkpt>
      <trkpt lat="44.29302" lon="5.89592">
        <ele>593</ele>
        <time>2019-08-17T08:49:14Z</time>
      </trkpt>
      <trkpt lat="44.29297" lon="5.89595">
        <ele>593</ele>
        <time>2019-08-17T08:49:15Z</time>
      </trkpt>
      <trkpt lat="44.29292" lon="5.89598">
        <ele>594</ele>
        <time>2019-08-17T08:49:16Z</time>
      </trkpt>
      <trkpt lat="44.29287" lon="5.89601">
        <ele>594</ele>
        <time>2019-08-17T08:49:17Z</time>
      </trkpt>
      <trkpt lat="44.29281" lon="5.89604">
        <ele>594</ele>
        <time>2019-08-17T08:49:18Z</time>
      </trkpt>
      <trkpt lat="44.29276" lon="5.89608">
        <ele>594</ele>
        <time>2019-08-17T08:49:19Z</time>
      </trkpt>
      <trkpt lat="44.29271" lon="5.89611">
        <ele>594</ele>
        <time>2019-08-17T08:49:20Z</time>
      </trkpt>
      <trkpt lat="44.29266" lon="5.89615">
        <ele>595</ele>
        <time>2019-08-17T08:49:21Z</time>
      </trkpt>
      <trkpt lat="44.29261" lon="5.89619">
        <ele>595</ele>
        <time>2019-08-17T08:49:22Z</time>
      </trkpt>
      <trkpt lat="44.29257" lon="5.89624">
        <ele>595</ele>
        <time>2019-08-17T08:49:23Z</time>
      </trkpt>
      <trkpt lat="44.29253" lon="5.89629">
        <ele>595</ele>
        <time>2019-08-17T08:49:24Z</time>
      </trkpt>
      <trkpt lat="44.29248" lon="5.89635">
        <ele>595</ele>
        <time>2019-08-17T08:49:25Z</time>
      </trkpt>
      <trkpt lat="44.29244" lon="5.89641">
        <ele>595</ele>
        <time>2019-08-17T08:49:26Z</time>
      </trkpt>
      <trkpt lat="44.2924" lon="5.89647">
        <ele>595</ele>
        <time>2019-08-17T08:49:27Z</time>
      </trkpt>
      <trkpt lat="44.29237" lon="5.89653">
        <ele>595</ele>
        <time>2019-08-17T08:49:28Z</time>
      </trkpt>
      <trkpt lat="44.29232" lon="5.8966">
        <ele>595</ele>
        <time>2019-08-17T08:49:29Z</time>
      </trkpt>
      <trkpt lat="44.29228" lon="5.89668">
        <ele>595</ele>
        <time>2019-08-17T08:49:30Z</time>
      </trkpt>
      <trkpt lat="44.29224" lon="5.89675">
        <ele>595</ele>
        <time>2019-08-17T08:49:31Z</time>
      </trkpt>
      <trkpt lat="44.29219" lon="5.89682">
        <ele>595</ele>
        <time>2019-08-17T08:49:32Z</time>
      </trkpt>
      <trkpt lat="44.29215" lon="5.89689">
        <ele>595</ele>
        <time>2019-08-17T08:49:33Z</time>
      </trkpt>
      <trkpt lat="44.2921" lon="5.89697">
        <ele>595</ele>
        <time>2019-08-17T08:49:34Z</time>
      </trkpt>
      <trkpt lat="44.29206" lon="5.89704">
        <ele>595</ele>
        <time>2019-08-17T08:49:35Z</time>
      </trkpt>
      <trkpt lat="44.29201" lon="5.89712">
        <ele>595</ele>
        <time>2019-08-17T08:49:36Z</time>
      </trkpt>
      <trkpt lat="44.29197" lon="5.89719">
        <ele>595</ele>
        <time>2019-08-17T08:49:37Z</time>
      </trkpt>
      <trkpt lat="44.29192" lon="5.89726">
        <ele>595</ele>
        <time>2019-08-17T08:49:38Z</time>
      </trkpt>
      <trkpt lat="44.29187" lon="5.89734">
        <ele>595</ele>
        <time>2019-08-17T08:49:39Z</time>
      </trkpt>
      <trkpt lat="44.29181" lon="5.89741">
        <ele>595</ele>
        <time>2019-08-17T08:49:40Z</time>
      </trkpt>
      <trkpt lat="44.29174" lon="5.89747">
        <ele>595</ele>
        <time>2019-08-17T08:49:41Z</time>
      </trkpt>
      <trkpt lat="44.29166" lon="5.89752">
        <ele>595</ele>
        <time>2019-08-17T08:49:42Z</time>
      </trkpt>
      <trkpt lat="44.29158" lon="5.89756">
        <ele>595</ele>
        <time>2019-08-17T08:49:43Z</time>
      </trkpt>
      <trkpt lat="44.29148" lon="5.89758">
        <ele>594</ele>
        <time>2019-08-17T08:49:44Z</time>
      </trkpt>
      <trkpt lat="44.29139" lon="5.89759">
        <ele>593</ele>
        <time>2019-08-17T08:49:45Z</time>
      </trkpt>
      <trkpt lat="44.29129" lon="5.89758">
        <ele>592</ele>
        <time>2019-08-17T08:49:46Z</time>
      </trkpt>
      <trkpt lat="44.29119" lon="5.89756">
        <ele>591</ele>
        <time>2019-08-17T08:49:47Z</time>
      </trkpt>
      <trkpt lat="44.29109" lon="5.89755">
        <ele>590</ele>
        <time>2019-08-17T08:49:48Z</time>
      </trkpt>
      <trkpt lat="44.29098" lon="5.89754">
        <ele>590</ele>
        <time>2019-08-17T08:49:49Z</time>
      </trkpt>
      <trkpt lat="44.29088" lon="5.89753">
        <ele>589</ele>
        <time>2019-08-17T08:49:50Z</time>
      </trkpt>
      <trkpt lat="44.29077" lon="5.89752">
        <ele>588</ele>
        <time>2019-08-17T08:49:51Z</time>
      </trkpt>
      <trkpt lat="44.29066" lon="5.89751">
        <ele>587</ele>
        <time>2019-08-17T08:49:52Z</time>
      </trkpt>
      <trkpt lat="44.29055" lon="5.8975">
        <ele>586</ele>
        <time>2019-08-17T08:49:53Z</time>
      </trkpt>
      <trkpt lat="44.29045" lon="5.89749">
        <ele>586</ele>
        <time>2019-08-17T08:49:54Z</time>
      </trkpt>
      <trkpt lat="44.29034" lon="5.89748">
        <ele>585</ele>
        <time>2019-08-17T08:49:55Z</time>
      </trkpt>
      <trkpt lat="44.29023" lon="5.89747">
        <ele>584</ele>
        <time>2019-08-17T08:49:56Z</time>
      </trkpt>
      <trkpt lat="44.29012" lon="5.89747">
        <ele>583</ele>
        <time>2019-08-17T08:49:57Z</time>
      </trkpt>
      <trkpt lat="44.29002" lon="5.89746">
        <ele>583</ele>
        <time>2019-08-17T08:49:58Z</time>
      </trkpt>
      <trkpt lat="44.28991" lon="5.89746">
        <ele>582</ele>
        <time>2019-08-17T08:49:59Z</time>
      </trkpt>
      <trkpt lat="44.28981" lon="5.89746">
        <ele>582</ele>
        <time>2019-08-17T08:50:00Z</time>
      </trkpt>
      <trkpt lat="44.28972" lon="5.89746">
        <ele>581</ele>
        <time>2019-08-17T08:50:01Z</time>
      </trkpt>
      <trkpt lat="44.28962" lon="5.89747">
        <ele>581</ele>
        <time>2019-08-17T08:50:02Z</time>
      </trkpt>
      <trkpt lat="44.28953" lon="5.89747">
        <ele>581</ele>
        <time>2019-08-17T08:50:03Z</time>
      </trkpt>
      <trkpt lat="44.28945" lon="5.89748">
        <ele>581</ele>
        <time>2019-08-17T08:50:04Z</time>
      </trkpt>
      <trkpt lat="44.28936" lon="5.89749">
        <ele>581</ele>
        <time>2019-08-17T08:50:05Z</time>
      </trkpt>
      <trkpt lat="44.28928" lon="5.8975">
        <ele>581</ele>
        <time>2019-08-17T08:50:06Z</time>
      </trkpt>
      <trkpt lat="44.2892" lon="5.89752">
        <ele>581</ele>
        <time>2019-08-17T08:50:07Z</time>
      </trkpt>
      <trkpt lat="44.28913" lon="5.89753">
        <ele>581</ele>
        <time>2019-08-17T08:50:08Z</time>
      </trkpt>
      <trkpt lat="44.28906" lon="5.89754">
        <ele>581</ele>
        <time>2019-08-17T08:50:09Z</time>
      </trkpt>
      <trkpt lat="44.28899" lon="5.89756">
        <ele>581</ele>
        <time>2019-08-17T08:50:10Z</time>
      </trkpt>
      <trkpt lat="44.28892" lon="5.89757">
        <ele>581</ele>
        <time>2019-08-17T08:50:11Z</time>
      </trkpt>
      <trkpt lat="44.28885" lon="5.89758">
        <ele>581</ele>
        <time>2019-08-17T08:50:12Z</time>
      </trkpt>
      <trkpt lat="44.28878" lon="5.8976">
        <ele>581</ele>
        <time>2019-08-17T08:50:13Z</time>
      </trkpt>
      <trkpt lat="44.28872" lon="5.89761">
        <ele>581</ele>
        <time>2019-08-17T08:50:14Z</time>
      </trkpt>
      <trkpt lat="44.28865" lon="5.89762">
        <ele>581</ele>
        <time>2019-08-17T08:50:15Z</time>
      </trkpt>
      <trkpt lat="44.28858" lon="5.89763">
        <ele>581</ele>
        <time>2019-08-17T08:50:16Z</time>
      </trkpt>
      <trkpt lat="44.28852" lon="5.89764">
        <ele>581</ele>
        <time>2019-08-17T08:50:17Z</time>
      </trkpt>
      <trkpt lat="44.28845" lon="5.89765">
        <ele>581</ele>
        <time>2019-08-17T08:50:18Z</time>
      </trkpt>
      <trkpt lat="44.28838" lon="5.89766">
        <ele>581</ele>
        <time>2019-08-17T08:50:19Z</time>
      </trkpt>
      <trkpt lat="44.28832" lon="5.89767">
        <ele>581</ele>
        <time>2019-08-17T08:50:20Z</time>
      </trkpt>
      <trkpt lat="44.28825" lon="5.89768">
        <ele>581</ele>
        <time>2019-08-17T08:50:21Z</time>
      </trkpt>
      <trkpt lat="44.28819" lon="5.89769">
        <ele>581</ele>
        <time>2019-08-17T08:50:22Z</time>
      </trkpt>
      <trkpt lat="44.28812" lon="5.8977">
        <ele>581</ele>
        <time>2019-08-17T08:50:23Z</time>
      </trkpt>
      <trkpt lat="44.28806" lon="5.89771">
        <ele>581</ele>
        <time>2019-08-17T08:50:24Z</time>
      </trkpt>
      <trkpt lat="44.28799" lon="5.89772">
        <ele>581</ele>
        <time>2019-08-17T08:50:25Z</time>
      </trkpt>
      <trkpt lat="44.28793" lon="5.89773">
        <ele>581</ele>
        <time>2019-08-17T08:50:26Z</time>
      </trkpt>
      <trkpt lat="44.28787" lon="5.89774">
        <ele>581</ele>
        <time>2019-08-17T08:50:27Z</time>
      </trkpt>
      <trkpt lat="44.2878" lon="5.89776">
        <ele>581</ele>
        <time>2019-08-17T08:50:28Z</time>
      </trkpt>
      <trkpt lat="44.28774" lon="5.89777">
        <ele>581</ele>
        <time>2019-08-17T08:50:29Z</time>
      </trkpt>
      <trkpt lat="44.28768" lon="5.89778">
        <ele>581</ele>
        <time>2019-08-17T08:50:30Z</time>
      </trkpt>
      <trkpt lat="44.28762" lon="5.89779">
        <ele>581</ele>
        <time>2019-08-17T08:50:31Z</time>
      </trkpt>
      <trkpt lat="44.28755" lon="5.8978">
        <ele>581</ele>
        <time>2019-08-17T08:50:32Z</time>
      </trkpt>
      <trkpt lat="44.28749" lon="5.89781">
        <ele>581</ele>
        <time>2019-08-17T08:50:33Z</time>
      </trkpt>
      <trkpt lat="44.28743" lon="5.89782">
        <ele>581</ele>
        <time>2019-08-17T08:50:34Z</time>
      </trkpt>
      <trkpt lat="44.28737" lon="5.89783">
        <ele>581</ele>
        <time>2019-08-17T08:50:35Z</time>
      </trkpt>
      <trkpt lat="44.28732" lon="5.89784">
        <ele>581</ele>
        <time>2019-08-17T08:50:36Z</time>
      </trkpt>
      <trkpt lat="44.28726" lon="5.89785">
        <ele>581</ele>
        <time>2019-08-17T08:50:37Z</time>
      </trkpt>
      <trkpt lat="44.2872" lon="5.89786">
        <ele>581</ele>
        <time>2019-08-17T08:50:38Z</time>
      </trkpt>
      <trkpt lat="44.28716" lon="5.89785">
        <ele>581</ele>
        <time>2019-08-17T08:50:39Z</time>
      </trkpt>
      <trkpt lat="44.28712" lon="5.89781">
        <ele>581</ele>
        <time>2019-08-17T08:50:40Z</time>
      </trkpt>
      <trkpt lat="44.28711" lon="5.89775">
        <ele>581</ele>
        <time>2019-08-17T08:50:41Z</time>
      </trkpt>
      <trkpt lat="44.28711" lon="5.89768">
        <ele>581</ele>
        <time>2019-08-17T08:50:42Z</time>
      </trkpt>
      <trkpt lat="44.28712" lon="5.89761">
        <ele>581</ele>
        <time>2019-08-17T08:50:43Z</time>
      </trkpt>
      <trkpt lat="44.28712" lon="5.89754">
        <ele>581</ele>
        <time>2019-08-17T08:50:44Z</time>
      </trkpt>
      <trkpt lat="44.28713" lon="5.89746">
        <ele>581</ele>
        <time>2019-08-17T08:50:45Z</time>
      </trkpt>
      <trkpt lat="44.28714" lon="5.89738">
        <ele>581</ele>
        <time>2019-08-17T08:50:46Z</time>
      </trkpt>
      <trkpt lat="44.28714" lon="5.89728">
        <ele>581</ele>
        <time>2019-08-17T08:50:47Z</time>
      </trkpt>
      <trkpt lat="44.28715" lon="5.89718">
        <ele>581</ele>
        <time>2019-08-17T08:50:48Z</time>
      </trkpt>
      <trkpt lat="44.28716" lon="5.89708">
        <ele>581</ele>
        <time>2019-08-17T08:50:49Z</time>
      </trkpt>
      <trkpt lat="44.28716" lon="5.89696">
        <ele>581</ele>
        <time>2019-08-17T08:50:50Z</time>
      </trkpt>
      <trkpt lat="44.28716" lon="5.89684">
        <ele>580</ele>
        <time>2019-08-17T08:50:51Z</time>
      </trkpt>
      <trkpt lat="44.28716" lon="5.89672">
        <ele>580</ele>
        <time>2019-08-17T08:50:52Z</time>
      </trkpt>
      <trkpt lat="44.28716" lon="5.89659">
        <ele>579</ele>
        <time>2019-08-17T08:50:53Z</time>
      </trkpt>
      <trkpt lat="44.28715" lon="5.89645">
        <ele>578</ele>
        <time>2019-08-17T08:50:54Z</time>
      </trkpt>
      <trkpt lat="44.28715" lon="5.89632">
        <ele>577</ele>
        <time>2019-08-17T08:50:55Z</time>
      </trkpt>
      <trkpt lat="44.28714" lon="5.89618">
        <ele>577</ele>
        <time>2019-08-17T08:50:56Z</time>
      </trkpt>
      <trkpt lat="44.28714" lon="5.89604">
        <ele>576</ele>
        <time>2019-08-17T08:50:57Z</time>
      </trkpt>
      <trkpt lat="44.28713" lon="5.89589">
        <ele>575</ele>
        <time>2019-08-17T08:50:58Z</time>
      </trkpt>
      <trkpt lat="44.28712" lon="5.89574">
        <ele>574</ele>
        <time>2019-08-17T08:50:59Z</time>
      </trkpt>
      <trkpt lat="44.28711" lon="5.8956">
        <ele>574</ele>
        <time>2019-08-17T08:51:00Z</time>
      </trkpt>
      <trkpt lat="44.28711" lon="5.89546">
        <ele>573</ele>
        <time>2019-08-17T08:51:01Z</time>
      </trkpt>
      <trkpt lat="44.28711" lon="5.89532">
        <ele>573</ele>
        <time>2019-08-17T08:51:02Z</time>
      </trkpt>
      <trkpt lat="44.28711" lon="5.89519">
        <ele>573</ele>
        <time>2019-08-17T08:51:03Z</time>
      </trkpt>
      <trkpt lat="44.28711" lon="5.89506">
        <ele>572</ele>
        <time>2019-08-17T08:51:04Z</time>
      </trkpt>
      <trkpt lat="44.28711" lon="5.89494">
        <ele>572</ele>
        <time>2019-08-17T08:51:05Z</time>
      </trkpt>
      <trkpt lat="44.28711" lon="5.89482">
        <ele>572</ele>
        <time>2019-08-17T08:51:06Z</time>
      </trkpt>
      <trkpt lat="44.28709" lon="5.8947">
        <ele>572</ele>
        <time>2019-08-17T08:51:07Z</time>
      </trkpt>
      <trkpt lat="44.28704" lon="5.89461">
        <ele>572</ele>
        <time>2019-08-17T08:51:08Z</time>
      </trkpt>
      <trkpt lat="44.28698" lon="5.89455">
        <ele>571</ele>
        <time>2019-08-17T08:51:09Z</time>
      </trkpt>
      <trkpt lat="44.28689" lon="5.8945">
        <ele>571</ele>
        <time>2019-08-17T08:51:10Z</time>
      </trkpt>
      <trkpt lat="44.28681" lon="5.89447">
        <ele>571</ele>
        <time>2019-08-17T08:51:11Z</time>
      </trkpt>
      <trkpt lat="44.28672" lon="5.89443">
        <ele>571</ele>
        <time>2019-08-17T08:51:13Z</time>
      </trkpt>
      <trkpt lat="44.28664" lon="5.8944">
        <ele>571</ele>
        <time>2019-08-17T08:51:13Z</time>
      </trkpt>
      <trkpt lat="44.28655" lon="5.89435">
        <ele>571</ele>
        <time>2019-08-17T08:51:14Z</time>
      </trkpt>
      <trkpt lat="44.28648" lon="5.89431">
        <ele>570</ele>
        <time>2019-08-17T08:51:15Z</time>
      </trkpt>
      <trkpt lat="44.2864" lon="5.89426">
        <ele>570</ele>
        <time>2019-08-17T08:51:16Z</time>
      </trkpt>
      <trkpt lat="44.28634" lon="5.8942">
        <ele>570</ele>
        <time>2019-08-17T08:51:17Z</time>
      </trkpt>
      <trkpt lat="44.28628" lon="5.89413">
        <ele>570</ele>
        <time>2019-08-17T08:51:18Z</time>
      </trkpt>
      <trkpt lat="44.28622" lon="5.89405">
        <ele>569</ele>
        <time>2019-08-17T08:51:19Z</time>
      </trkpt>
      <trkpt lat="44.28616" lon="5.89398">
        <ele>569</ele>
        <time>2019-08-17T08:51:20Z</time>
      </trkpt>
      <trkpt lat="44.2861" lon="5.89391">
        <ele>569</ele>
        <time>2019-08-17T08:51:21Z</time>
      </trkpt>
      <trkpt lat="44.28603" lon="5.89384">
        <ele>569</ele>
        <time>2019-08-17T08:51:22Z</time>
      </trkpt>
      <trkpt lat="44.28597" lon="5.89378">
        <ele>569</ele>
        <time>2019-08-17T08:51:23Z</time>
      </trkpt>
      <trkpt lat="44.2859" lon="5.89373">
        <ele>569</ele>
        <time>2019-08-17T08:51:24Z</time>
      </trkpt>
      <trkpt lat="44.28583" lon="5.89369">
        <ele>569</ele>
        <time>2019-08-17T08:51:25Z</time>
      </trkpt>
      <trkpt lat="44.28576" lon="5.89364">
        <ele>569</ele>
        <time>2019-08-17T08:51:26Z</time>
      </trkpt>
      <trkpt lat="44.28569" lon="5.89361">
        <ele>569</ele>
        <time>2019-08-17T08:51:27Z</time>
      </trkpt>
      <trkpt lat="44.28563" lon="5.89357">
        <ele>569</ele>
        <time>2019-08-17T08:51:28Z</time>
      </trkpt>
      <trkpt lat="44.28556" lon="5.89354">
        <ele>569</ele>
        <time>2019-08-17T08:51:29Z</time>
      </trkpt>
      <trkpt lat="44.2855" lon="5.8935">
        <ele>569</ele>
        <time>2019-08-17T08:51:30Z</time>
      </trkpt>
      <trkpt lat="44.28543" lon="5.89346">
        <ele>569</ele>
        <time>2019-08-17T08:51:31Z</time>
      </trkpt>
      <trkpt lat="44.28537" lon="5.89341">
        <ele>569</ele>
        <time>2019-08-17T08:51:32Z</time>
      </trkpt>
      <trkpt lat="44.28532" lon="5.89336">
        <ele>569</ele>
        <time>2019-08-17T08:51:33Z</time>
      </trkpt>
      <trkpt lat="44.28527" lon="5.89331">
        <ele>569</ele>
        <time>2019-08-17T08:51:34Z</time>
      </trkpt>
      <trkpt lat="44.28521" lon="5.89325">
        <ele>569</ele>
        <time>2019-08-17T08:51:35Z</time>
      </trkpt>
      <trkpt lat="44.28516" lon="5.8932">
        <ele>569</ele>
        <time>2019-08-17T08:51:36Z</time>
      </trkpt>
      <trkpt lat="44.28511" lon="5.89314">
        <ele>569</ele>
        <time>2019-08-17T08:51:37Z</time>
      </trkpt>
      <trkpt lat="44.28506" lon="5.89309">
        <ele>569</ele>
        <time>2019-08-17T08:51:38Z</time>
      </trkpt>
      <trkpt lat="44.28501" lon="5.89304">
        <ele>569</ele>
        <time>2019-08-17T08:51:39Z</time>
      </trkpt>
      <trkpt lat="44.28496" lon="5.89299">
        <ele>569</ele>
        <time>2019-08-17T08:51:40Z</time>
      </trkpt>
      <trkpt lat="44.2849" lon="5.89295">
        <ele>569</ele>
        <time>2019-08-17T08:51:41Z</time>
      </trkpt>
      <trkpt lat="44.28485" lon="5.89291">
        <ele>569</ele>
        <time>2019-08-17T08:51:42Z</time>
      </trkpt>
      <trkpt lat="44.2848" lon="5.89288">
        <ele>569</ele>
        <time>2019-08-17T08:51:43Z</time>
      </trkpt>
      <trkpt lat="44.28474" lon="5.89284">
        <ele>569</ele>
        <time>2019-08-17T08:51:44Z</time>
      </trkpt>
      <trkpt lat="44.28469" lon="5.89281">
        <ele>569</ele>
        <time>2019-08-17T08:51:45Z</time>
      </trkpt>
      <trkpt lat="44.28464" lon="5.89278">
        <ele>569</ele>
        <time>2019-08-17T08:51:46Z</time>
      </trkpt>
      <trkpt lat="44.28458" lon="5.89275">
        <ele>569</ele>
        <time>2019-08-17T08:51:47Z</time>
      </trkpt>
      <trkpt lat="44.28453" lon="5.89272">
        <ele>569</ele>
        <time>2019-08-17T08:51:48Z</time>
      </trkpt>
      <trkpt lat="44.28447" lon="5.89269">
        <ele>569</ele>
        <time>2019-08-17T08:51:49Z</time>
      </trkpt>
      <trkpt lat="44.28442" lon="5.89267">
        <ele>569</ele>
        <time>2019-08-17T08:51:50Z</time>
      </trkpt>
      <trkpt lat="44.28437" lon="5.89264">
        <ele>569</ele>
        <time>2019-08-17T08:51:51Z</time>
      </trkpt>
      <trkpt lat="44.28432" lon="5.89261">
        <ele>569</ele>
        <time>2019-08-17T08:51:52Z</time>
      </trkpt>
      <trkpt lat="44.28426" lon="5.89258">
        <ele>569</ele>
        <time>2019-08-17T08:51:53Z</time>
      </trkpt>
      <trkpt lat="44.28421" lon="5.89256">
        <ele>569</ele>
        <time>2019-08-17T08:51:54Z</time>
      </trkpt>
      <trkpt lat="44.28416" lon="5.89252">
        <ele>569</ele>
        <time>2019-08-17T08:51:55Z</time>
      </trkpt>
      <trkpt lat="44.2841" lon="5.89249">
        <ele>569</ele>
        <time>2019-08-17T08:51:56Z</time>
      </trkpt>
      <trkpt lat="44.28405" lon="5.89245">
        <ele>569</ele>
        <time>2019-08-17T08:51:57Z</time>
      </trkpt>
      <trkpt lat="44.284" lon="5.89242">
        <ele>569</ele>
        <time>2019-08-17T08:51:58Z</time>
      </trkpt>
      <trkpt lat="44.28396" lon="5.89237">
        <ele>569</ele>
        <time>2019-08-17T08:51:59Z</time>
      </trkpt>
      <trkpt lat="44.28391" lon="5.89233">
        <ele>569</ele>
        <time>2019-08-17T08:52:00Z</time>
      </trkpt>
      <trkpt lat="44.28387" lon="5.8923">
        <ele>569</ele>
        <time>2019-08-17T08:52:01Z</time>
      </trkpt>
      <trkpt lat="44.28382" lon="5.89226">
        <ele>569</ele>
        <time>2019-08-17T08:52:02Z</time>
      </trkpt>
      <trkpt lat="44.28377" lon="5.89222">
        <ele>569</ele>
        <time>2019-08-17T08:52:03Z</time>
      </trkpt>
      <trkpt lat="44.28373" lon="5.89218">
        <ele>569</ele>
        <time>2019-08-17T08:52:04Z</time>
      </trkpt>
      <trkpt lat="44.28368" lon="5.89215">
        <ele>569</ele>
        <time>2019-08-17T08:52:05Z</time>
      </trkpt>
      <trkpt lat="44.28363" lon="5.89212">
        <ele>569</ele>
        <time>2019-08-17T08:52:06Z</time>
      </trkpt>
      <trkpt lat="44.28359" lon="5.89209">
        <ele>569</ele>
        <time>2019-08-17T08:52:07Z</time>
      </trkpt>
      <trkpt lat="44.28354" lon="5.89206">
        <ele>569</ele>
        <time>2019-08-17T08:52:08Z</time>
      </trkpt>
      <trkpt lat="44.2835" lon="5.89203">
        <ele>569</ele>
        <time>2019-08-17T08:52:09Z</time>
      </trkpt>
      <trkpt lat="44.28345" lon="5.89199">
        <ele>569</ele>
        <time>2019-08-17T08:52:10Z</time>
      </trkpt>
      <trkpt lat="44.2834" lon="5.89196">
        <ele>569</ele>
        <time>2019-08-17T08:52:11Z</time>
      </trkpt>
      <trkpt lat="44.28336" lon="5.89192">
        <ele>569</ele>
        <time>2019-08-17T08:52:12Z</time>
      </trkpt>
      <trkpt lat="44.28331" lon="5.89188">
        <ele>569</ele>
        <time>2019-08-17T08:52:13Z</time>
      </trkpt>
      <trkpt lat="44.28326" lon="5.89185">
        <ele>569</ele>
        <time>2019-08-17T08:52:14Z</time>
      </trkpt>
      <trkpt lat="44.2832" lon="5.89181">
        <ele>569</ele>
        <time>2019-08-17T08:52:15Z</time>
      </trkpt>
      <trkpt lat="44.28315" lon="5.89178">
        <ele>569</ele>
        <time>2019-08-17T08:52:16Z</time>
      </trkpt>
      <trkpt lat="44.2831" lon="5.89174">
        <ele>569</ele>
        <time>2019-08-17T08:52:17Z</time>
      </trkpt>
      <trkpt lat="44.28304" lon="5.8917">
        <ele>569</ele>
        <time>2019-08-17T08:52:18Z</time>
      </trkpt>
      <trkpt lat="44.28299" lon="5.89165">
        <ele>569</ele>
        <time>2019-08-17T08:52:19Z</time>
      </trkpt>
      <trkpt lat="44.28293" lon="5.89161">
        <ele>569</ele>
        <time>2019-08-17T08:52:20Z</time>
      </trkpt>
      <trkpt lat="44.28288" lon="5.89156">
        <ele>569</ele>
        <time>2019-08-17T08:52:21Z</time>
      </trkpt>
      <trkpt lat="44.28282" lon="5.8915">
        <ele>569</ele>
        <time>2019-08-17T08:52:22Z</time>
      </trkpt>
      <trkpt lat="44.28277" lon="5.89144">
        <ele>569</ele>
        <time>2019-08-17T08:52:23Z</time>
      </trkpt>
      <trkpt lat="44.28271" lon="5.89138">
        <ele>569</ele>
        <time>2019-08-17T08:52:24Z</time>
      </trkpt>
      <trkpt lat="44.28266" lon="5.89131">
        <ele>569</ele>
        <time>2019-08-17T08:52:25Z</time>
      </trkpt>
      <trkpt lat="44.2826" lon="5.89124">
        <ele>569</ele>
        <time>2019-08-17T08:52:26Z</time>
      </trkpt>
      <trkpt lat="44.28255" lon="5.89117">
        <ele>569</ele>
        <time>2019-08-17T08:52:27Z</time>
      </trkpt>
      <trkpt lat="44.28251" lon="5.8911">
        <ele>569</ele>
        <time>2019-08-17T08:52:28Z</time>
      </trkpt>
      <trkpt lat="44.28247" lon="5.89101">
        <ele>569</ele>
        <time>2019-08-17T08:52:29Z</time>
      </trkpt>
      <trkpt lat="44.28244" lon="5.89092">
        <ele>569</ele>
        <time>2019-08-17T08:52:30Z</time>
      </trkpt>
      <trkpt lat="44.28242" lon="5.89083">
        <ele>569</ele>
        <time>2019-08-17T08:52:31Z</time>
      </trkpt>
      <trkpt lat="44.28239" lon="5.89076">
        <ele>569</ele>
        <time>2019-08-17T08:52:32Z</time>
      </trkpt>
      <trkpt lat="44.28236" lon="5.8907">
        <ele>569</ele>
        <time>2019-08-17T08:52:33Z</time>
      </trkpt>
      <trkpt lat="44.28231" lon="5.89067">
        <ele>568</ele>
        <time>2019-08-17T08:52:34Z</time>
      </trkpt>
      <trkpt lat="44.28226" lon="5.89066">
        <ele>568</ele>
        <time>2019-08-17T08:52:35Z</time>
      </trkpt>
      <trkpt lat="44.2822" lon="5.89068">
        <ele>568</ele>
        <time>2019-08-17T08:52:36Z</time>
      </trkpt>
      <trkpt lat="44.28215" lon="5.8907">
        <ele>567</ele>
        <time>2019-08-17T08:52:37Z</time>
      </trkpt>
      <trkpt lat="44.28209" lon="5.89073">
        <ele>567</ele>
        <time>2019-08-17T08:52:38Z</time>
      </trkpt>
      <trkpt lat="44.28203" lon="5.89076">
        <ele>567</ele>
        <time>2019-08-17T08:52:39Z</time>
      </trkpt>
      <trkpt lat="44.28197" lon="5.89078">
        <ele>567</ele>
        <time>2019-08-17T08:52:40Z</time>
      </trkpt>
      <trkpt lat="44.28192" lon="5.89079">
        <ele>567</ele>
        <time>2019-08-17T08:52:41Z</time>
      </trkpt>
      <trkpt lat="44.28186" lon="5.89081">
        <ele>566</ele>
        <time>2019-08-17T08:52:42Z</time>
      </trkpt>
      <trkpt lat="44.2818" lon="5.89082">
        <ele>566</ele>
        <time>2019-08-17T08:52:43Z</time>
      </trkpt>
      <trkpt lat="44.28174" lon="5.89082">
        <ele>566</ele>
        <time>2019-08-17T08:52:44Z</time>
      </trkpt>
      <trkpt lat="44.28169" lon="5.8908">
        <ele>566</ele>
        <time>2019-08-17T08:52:45Z</time>
      </trkpt>
      <trkpt lat="44.28165" lon="5.89075">
        <ele>566</ele>
        <time>2019-08-17T08:52:46Z</time>
      </trkpt>
      <trkpt lat="44.28162" lon="5.89068">
        <ele>566</ele>
        <time>2019-08-17T08:52:47Z</time>
      </trkpt>
      <trkpt lat="44.28161" lon="5.89059">
        <ele>565</ele>
        <time>2019-08-17T08:52:48Z</time>
      </trkpt>
      <trkpt lat="44.28159" lon="5.8905">
        <ele>565</ele>
        <time>2019-08-17T08:52:49Z</time>
      </trkpt>
      <trkpt lat="44.28157" lon="5.8904">
        <ele>565</ele>
        <time>2019-08-17T08:52:50Z</time>
      </trkpt>
      <trkpt lat="44.28155" lon="5.8903">
        <ele>564</ele>
        <time>2019-08-17T08:52:51Z</time>
      </trkpt>
      <trkpt lat="44.28152" lon="5.8902">
        <ele>564</ele>
        <time>2019-08-17T08:52:52Z</time>
      </trkpt>
      <trkpt lat="44.2815" lon="5.89011">
        <ele>563</ele>
        <time>2019-08-17T08:52:53Z</time>
      </trkpt>
      <trkpt lat="44.28148" lon="5.89003">
        <ele>563</ele>
        <time>2019-08-17T08:52:54Z</time>
      </trkpt>
      <trkpt lat="44.28144" lon="5.88997">
        <ele>563</ele>
        <time>2019-08-17T08:52:55Z</time>
      </trkpt>
      <trkpt lat="44.2814" lon="5.88992">
        <ele>563</ele>
        <time>2019-08-17T08:52:56Z</time>
      </trkpt>
      <trkpt lat="44.28135" lon="5.88989">
        <ele>563</ele>
        <time>2019-08-17T08:52:57Z</time>
      </trkpt>
      <trkpt lat="44.28129" lon="5.88989">
        <ele>563</ele>
        <time>2019-08-17T08:52:58Z</time>
      </trkpt>
      <trkpt lat="44.28123" lon="5.88992">
        <ele>563</ele>
        <time>2019-08-17T08:52:59Z</time>
      </trkpt>
      <trkpt lat="44.28117" lon="5.88996">
        <ele>563</ele>
        <time>2019-08-17T08:53:00Z</time>
      </trkpt>
      <trkpt lat="44.28111" lon="5.89">
        <ele>563</ele>
        <time>2019-08-17T08:53:01Z</time>
      </trkpt>
      <trkpt lat="44.28104" lon="5.89004">
        <ele>562</ele>
        <time>2019-08-17T08:53:02Z</time>
      </trkpt>
      <trkpt lat="44.28098" lon="5.89008">
        <ele>562</ele>
        <time>2019-08-17T08:53:03Z</time>
      </trkpt>
      <trkpt lat="44.28092" lon="5.89012">
        <ele>562</ele>
        <time>2019-08-17T08:53:04Z</time>
      </trkpt>
      <trkpt lat="44.28085" lon="5.89016">
        <ele>562</ele>
        <time>2019-08-17T08:53:05Z</time>
      </trkpt>
      <trkpt lat="44.28078" lon="5.8902">
        <ele>562</ele>
        <time>2019-08-17T08:53:06Z</time>
      </trkpt>
      <trkpt lat="44.28072" lon="5.89024">
        <ele>562</ele>
        <time>2019-08-17T08:53:07Z</time>
      </trkpt>
      <trkpt lat="44.28065" lon="5.89027">
        <ele>562</ele>
        <time>2019-08-17T08:53:08Z</time>
      </trkpt>
      <trkpt lat="44.28057" lon="5.89029">
        <ele>562</ele>
        <time>2019-08-17T08:53:09Z</time>
      </trkpt>
      <trkpt lat="44.2805" lon="5.89029">
        <ele>561</ele>
        <time>2019-08-17T08:53:10Z</time>
      </trkpt>
      <trkpt lat="44.28043" lon="5.89029">
        <ele>561</ele>
        <time>2019-08-17T08:53:11Z</time>
      </trkpt>
      <trkpt lat="44.28035" lon="5.89027">
        <ele>561</ele>
        <time>2019-08-17T08:53:12Z</time>
      </trkpt>
      <trkpt lat="44.28028" lon="5.89026">
        <ele>561</ele>
        <time>2019-08-17T08:53:13Z</time>
      </trkpt>
      <trkpt lat="44.28021" lon="5.89025">
        <ele>561</ele>
        <time>2019-08-17T08:53:14Z</time>
      </trkpt>
      <trkpt lat="44.28013" lon="5.89023">
        <ele>561</ele>
        <time>2019-08-17T08:53:15Z</time>
      </trkpt>
      <trkpt lat="44.28006" lon="5.89022">
        <ele>561</ele>
        <time>2019-08-17T08:53:16Z</time>
      </trkpt>
      <trkpt lat="44.27999" lon="5.89021">
        <ele>560</ele>
        <time>2019-08-17T08:53:17Z</time>
      </trkpt>
      <trkpt lat="44.27992" lon="5.89021">
        <ele>560</ele>
        <time>2019-08-17T08:53:18Z</time>
      </trkpt>
      <trkpt lat="44.27985" lon="5.8902">
        <ele>560</ele>
        <time>2019-08-17T08:53:19Z</time>
      </trkpt>
      <trkpt lat="44.27978" lon="5.8902">
        <ele>560</ele>
        <time>2019-08-17T08:53:20Z</time>
      </trkpt>
      <trkpt lat="44.27971" lon="5.8902">
        <ele>559</ele>
        <time>2019-08-17T08:53:21Z</time>
      </trkpt>
      <trkpt lat="44.27964" lon="5.8902">
        <ele>559</ele>
        <time>2019-08-17T08:53:22Z</time>
      </trkpt>
      <trkpt lat="44.27956" lon="5.8902">
        <ele>559</ele>
        <time>2019-08-17T08:53:23Z</time>
      </trkpt>
      <trkpt lat="44.27949" lon="5.8902">
        <ele>558</ele>
        <time>2019-08-17T08:53:24Z</time>
      </trkpt>
      <trkpt lat="44.27942" lon="5.89021">
        <ele>558</ele>
        <time>2019-08-17T08:53:25Z</time>
      </trkpt>
      <trkpt lat="44.27934" lon="5.89022">
        <ele>558</ele>
        <time>2019-08-17T08:53:26Z</time>
      </trkpt>
      <trkpt lat="44.27927" lon="5.89023">
        <ele>558</ele>
        <time>2019-08-17T08:53:27Z</time>
      </trkpt>
      <trkpt lat="44.2792" lon="5.89024">
        <ele>558</ele>
        <time>2019-08-17T08:53:28Z</time>
      </trkpt>
      <trkpt lat="44.27913" lon="5.89022">
        <ele>557</ele>
        <time>2019-08-17T08:53:29Z</time>
      </trkpt>
      <trkpt lat="44.27907" lon="5.89018">
        <ele>557</ele>
        <time>2019-08-17T08:53:30Z</time>
      </trkpt>
      <trkpt lat="44.27903" lon="5.8901">
        <ele>557</ele>
        <time>2019-08-17T08:53:31Z</time>
      </trkpt>
      <trkpt lat="44.279" lon="5.89001">
        <ele>557</ele>
        <time>2019-08-17T08:53:32Z</time>
      </trkpt>
      <trkpt lat="44.27899" lon="5.88992">
        <ele>557</ele>
        <time>2019-08-17T08:53:33Z</time>
      </trkpt>
      <trkpt lat="44.27897" lon="5.88983">
        <ele>557</ele>
        <time>2019-08-17T08:53:34Z</time>
      </trkpt>
      <trkpt lat="44.27895" lon="5.88974">
        <ele>557</ele>
        <time>2019-08-17T08:53:35Z</time>
      </trkpt>
      <trkpt lat="44.27891" lon="5.88968">
        <ele>556</ele>
        <time>2019-08-17T08:53:36Z</time>
      </trkpt>
      <trkpt lat="44.27886" lon="5.88963">
        <ele>556</ele>
        <time>2019-08-17T08:53:37Z</time>
      </trkpt>
      <trkpt lat="44.2788" lon="5.88959">
        <ele>556</ele>
        <time>2019-08-17T08:53:38Z</time>
      </trkpt>
      <trkpt lat="44.27875" lon="5.88955">
        <ele>556</ele>
        <time>2019-08-17T08:53:39Z</time>
      </trkpt>
      <trkpt lat="44.2787" lon="5.8895">
        <ele>556</ele>
        <time>2019-08-17T08:53:40Z</time>
      </trkpt>
      <trkpt lat="44.27865" lon="5.88944">
        <ele>556</ele>
        <time>2019-08-17T08:53:41Z</time>
      </trkpt>
      <trkpt lat="44.27861" lon="5.88938">
        <ele>556</ele>
        <time>2019-08-17T08:53:42Z</time>
      </trkpt>
      <trkpt lat="44.27856" lon="5.88931">
        <ele>556</ele>
        <time>2019-08-17T08:53:43Z</time>
      </trkpt>
      <trkpt lat="44.27852" lon="5.88924">
        <ele>556</ele>
        <time>2019-08-17T08:53:44Z</time>
      </trkpt>
      <trkpt lat="44.27848" lon="5.88917">
        <ele>556</ele>
        <time>2019-08-17T08:53:45Z</time>
      </trkpt>
      <trkpt lat="44.27843" lon="5.8891">
        <ele>556</ele>
        <time>2019-08-17T08:53:46Z</time>
      </trkpt>
      <trkpt lat="44.27838" lon="5.88903">
        <ele>556</ele>
        <time>2019-08-17T08:53:47Z</time>
      </trkpt>
      <trkpt lat="44.27834" lon="5.88896">
        <ele>556</ele>
        <time>2019-08-17T08:53:48Z</time>
      </trkpt>
      <trkpt lat="44.27829" lon="5.88888">
        <ele>556</ele>
        <time>2019-08-17T08:53:49Z</time>
      </trkpt>
      <trkpt lat="44.27825" lon="5.88879">
        <ele>556</ele>
        <time>2019-08-17T08:53:50Z</time>
      </trkpt>
      <trkpt lat="44.27821" lon="5.88871">
        <ele>555</ele>
        <time>2019-08-17T08:53:51Z</time>
      </trkpt>
      <trkpt lat="44.27817" lon="5.88863">
        <ele>555</ele>
        <time>2019-08-17T08:53:52Z</time>
      </trkpt>
      <trkpt lat="44.27812" lon="5.88855">
        <ele>555</ele>
        <time>2019-08-17T08:53:53Z</time>
      </trkpt>
      <trkpt lat="44.27807" lon="5.88847">
        <ele>555</ele>
        <time>2019-08-17T08:53:54Z</time>
      </trkpt>
      <trkpt lat="44.27801" lon="5.88841">
        <ele>555</ele>
        <time>2019-08-17T08:53:55Z</time>
      </trkpt>
      <trkpt lat="44.27794" lon="5.88836">
        <ele>555</ele>
        <time>2019-08-17T08:53:56Z</time>
      </trkpt>
      <trkpt lat="44.27787" lon="5.88832">
        <ele>554</ele>
        <time>2019-08-17T08:53:57Z</time>
      </trkpt>
      <trkpt lat="44.27779" lon="5.8883">
        <ele>554</ele>
        <time>2019-08-17T08:53:58Z</time>
      </trkpt>
      <trkpt lat="44.27772" lon="5.88828">
        <ele>554</ele>
        <time>2019-08-17T08:53:59Z</time>
      </trkpt>
      <trkpt lat="44.27764" lon="5.88826">
        <ele>554</ele>
        <time>2019-08-17T08:54:00Z</time>
      </trkpt>
      <trkpt lat="44.27757" lon="5.88824">
        <ele>554</ele>
        <time>2019-08-17T08:54:01Z</time>
      </trkpt>
      <trkpt lat="44.2775" lon="5.88822">
        <ele>554</ele>
        <time>2019-08-17T08:54:02Z</time>
      </trkpt>
      <trkpt lat="44.27742" lon="5.88819">
        <ele>554</ele>
        <time>2019-08-17T08:54:03Z</time>
      </trkpt>
      <trkpt lat="44.27735" lon="5.88816">
        <ele>554</ele>
        <time>2019-08-17T08:54:04Z</time>
      </trkpt>
      <trkpt lat="44.27729" lon="5.88812">
        <ele>554</ele>
        <time>2019-08-17T08:54:05Z</time>
      </trkpt>
      <trkpt lat="44.27722" lon="5.88808">
        <ele>554</ele>
        <time>2019-08-17T08:54:06Z</time>
      </trkpt>
      <trkpt lat="44.27716" lon="5.88803">
        <ele>554</ele>
        <time>2019-08-17T08:54:07Z</time>
      </trkpt>
      <trkpt lat="44.2771" lon="5.88797">
        <ele>554</ele>
        <time>2019-08-17T08:54:08Z</time>
      </trkpt>
      <trkpt lat="44.27704" lon="5.88792">
        <ele>554</ele>
        <time>2019-08-17T08:54:09Z</time>
      </trkpt>
      <trkpt lat="44.27698" lon="5.88786">
        <ele>554</ele>
        <time>2019-08-17T08:54:10Z</time>
      </trkpt>
      <trkpt lat="44.27692" lon="5.8878">
        <ele>554</ele>
        <time>2019-08-17T08:54:11Z</time>
      </trkpt>
      <trkpt lat="44.27686" lon="5.88775">
        <ele>554</ele>
        <time>2019-08-17T08:54:12Z</time>
      </trkpt>
      <trkpt lat="44.27679" lon="5.8877">
        <ele>554</ele>
        <time>2019-08-17T08:54:13Z</time>
      </trkpt>
      <trkpt lat="44.27672" lon="5.88767">
        <ele>554</ele>
        <time>2019-08-17T08:54:14Z</time>
      </trkpt>
      <trkpt lat="44.27665" lon="5.88764">
        <ele>554</ele>
        <time>2019-08-17T08:54:15Z</time>
      </trkpt>
      <trkpt lat="44.27658" lon="5.88762">
        <ele>554</ele>
        <time>2019-08-17T08:54:16Z</time>
      </trkpt>
      <trkpt lat="44.2765" lon="5.8876">
        <ele>554</ele>
        <time>2019-08-17T08:54:17Z</time>
      </trkpt>
      <trkpt lat="44.27643" lon="5.88757">
        <ele>554</ele>
        <time>2019-08-17T08:54:18Z</time>
      </trkpt>
      <trkpt lat="44.27636" lon="5.88754">
        <ele>554</ele>
        <time>2019-08-17T08:54:19Z</time>
      </trkpt>
      <trkpt lat="44.2763" lon="5.8875">
        <ele>554</ele>
        <time>2019-08-17T08:54:20Z</time>
      </trkpt>
      <trkpt lat="44.27625" lon="5.88744">
        <ele>554</ele>
        <time>2019-08-17T08:54:21Z</time>
      </trkpt>
      <trkpt lat="44.2762" lon="5.88738">
        <ele>554</ele>
        <time>2019-08-17T08:54:22Z</time>
      </trkpt>
      <trkpt lat="44.27616" lon="5.8873">
        <ele>554</ele>
        <time>2019-08-17T08:54:23Z</time>
      </trkpt>
      <trkpt lat="44.27612" lon="5.88723">
        <ele>554</ele>
        <time>2019-08-17T08:54:24Z</time>
      </trkpt>
      <trkpt lat="44.27608" lon="5.88715">
        <ele>554</ele>
        <time>2019-08-17T08:54:25Z</time>
      </trkpt>
      <trkpt lat="44.27605" lon="5.88706">
        <ele>554</ele>
        <time>2019-08-17T08:54:26Z</time>
      </trkpt>
      <trkpt lat="44.27601" lon="5.88697">
        <ele>553</ele>
        <time>2019-08-17T08:54:27Z</time>
      </trkpt>
      <trkpt lat="44.27597" lon="5.88689">
        <ele>553</ele>
        <time>2019-08-17T08:54:28Z</time>
      </trkpt>
      <trkpt lat="44.27593" lon="5.88681">
        <ele>553</ele>
        <time>2019-08-17T08:54:29Z</time>
      </trkpt>
      <trkpt lat="44.27589" lon="5.88672">
        <ele>553</ele>
        <time>2019-08-17T08:54:30Z</time>
      </trkpt>
      <trkpt lat="44.27586" lon="5.88664">
        <ele>553</ele>
        <time>2019-08-17T08:54:31Z</time>
      </trkpt>
      <trkpt lat="44.27582" lon="5.88655">
        <ele>553</ele>
        <time>2019-08-17T08:54:32Z</time>
      </trkpt>
      <trkpt lat="44.27578" lon="5.88647">
        <ele>553</ele>
        <time>2019-08-17T08:54:33Z</time>
      </trkpt>
      <trkpt lat="44.27575" lon="5.88639">
        <ele>553</ele>
        <time>2019-08-17T08:54:34Z</time>
      </trkpt>
      <trkpt lat="44.27572" lon="5.88631">
        <ele>553</ele>
        <time>2019-08-17T08:54:35Z</time>
      </trkpt>
      <trkpt lat="44.27569" lon="5.88624">
        <ele>553</ele>
        <time>2019-08-17T08:54:36Z</time>
      </trkpt>
      <trkpt lat="44.27565" lon="5.88616">
        <ele>553</ele>
        <time>2019-08-17T08:54:37Z</time>
      </trkpt>
      <trkpt lat="44.27562" lon="5.8861">
        <ele>553</ele>
        <time>2019-08-17T08:54:38Z</time>
      </trkpt>
      <trkpt lat="44.27557" lon="5.88604">
        <ele>553</ele>
        <time>2019-08-17T08:54:39Z</time>
      </trkpt>
      <trkpt lat="44.27552" lon="5.886">
        <ele>553</ele>
        <time>2019-08-17T08:54:40Z</time>
      </trkpt>
      <trkpt lat="44.27547" lon="5.88598">
        <ele>553</ele>
        <time>2019-08-17T08:54:41Z</time>
      </trkpt>
      <trkpt lat="44.27541" lon="5.88597">
        <ele>553</ele>
        <time>2019-08-17T08:54:42Z</time>
      </trkpt>
      <trkpt lat="44.27535" lon="5.88596">
        <ele>553</ele>
        <time>2019-08-17T08:54:43Z</time>
      </trkpt>
      <trkpt lat="44.27529" lon="5.88596">
        <ele>553</ele>
        <time>2019-08-17T08:54:44Z</time>
      </trkpt>
      <trkpt lat="44.27522" lon="5.88596">
        <ele>553</ele>
        <time>2019-08-17T08:54:45Z</time>
      </trkpt>
      <trkpt lat="44.27515" lon="5.88596">
        <ele>553</ele>
        <time>2019-08-17T08:54:46Z</time>
      </trkpt>
      <trkpt lat="44.27509" lon="5.88597">
        <ele>553</ele>
        <time>2019-08-17T08:54:47Z</time>
      </trkpt>
      <trkpt lat="44.27502" lon="5.88597">
        <ele>553</ele>
        <time>2019-08-17T08:54:48Z</time>
      </trkpt>
      <trkpt lat="44.27494" lon="5.88597">
        <ele>553</ele>
        <time>2019-08-17T08:54:49Z</time>
      </trkpt>
      <trkpt lat="44.27487" lon="5.88597">
        <ele>553</ele>
        <time>2019-08-17T08:54:50Z</time>
      </trkpt>
      <trkpt lat="44.2748" lon="5.88597">
        <ele>553</ele>
        <time>2019-08-17T08:54:51Z</time>
      </trkpt>
      <trkpt lat="44.27473" lon="5.88597">
        <ele>553</ele>
        <time>2019-08-17T08:54:52Z</time>
      </trkpt>
      <trkpt lat="44.27467" lon="5.88597">
        <ele>553</ele>
        <time>2019-08-17T08:54:53Z</time>
      </trkpt>
      <trkpt lat="44.27459" lon="5.88595">
        <ele>553</ele>
        <time>2019-08-17T08:54:54Z</time>
      </trkpt>
      <trkpt lat="44.27452" lon="5.88594">
        <ele>553</ele>
        <time>2019-08-17T08:54:55Z</time>
      </trkpt>
      <trkpt lat="44.27446" lon="5.88592">
        <ele>553</ele>
        <time>2019-08-17T08:54:56Z</time>
      </trkpt>
      <trkpt lat="44.27439" lon="5.88589">
        <ele>553</ele>
        <time>2019-08-17T08:54:57Z</time>
      </trkpt>
      <trkpt lat="44.27432" lon="5.88587">
        <ele>553</ele>
        <time>2019-08-17T08:54:58Z</time>
      </trkpt>
      <trkpt lat="44.27425" lon="5.88584">
        <ele>553</ele>
        <time>2019-08-17T08:54:59Z</time>
      </trkpt>
      <trkpt lat="44.27419" lon="5.88582">
        <ele>553</ele>
        <time>2019-08-17T08:55:00Z</time>
      </trkpt>
      <trkpt lat="44.27412" lon="5.88581">
        <ele>553</ele>
        <time>2019-08-17T08:55:01Z</time>
      </trkpt>
      <trkpt lat="44.27405" lon="5.88578">
        <ele>553</ele>
        <time>2019-08-17T08:55:02Z</time>
      </trkpt>
      <trkpt lat="44.27398" lon="5.88575">
        <ele>553</ele>
        <time>2019-08-17T08:55:03Z</time>
      </trkpt>
      <trkpt lat="44.27391" lon="5.88572">
        <ele>553</ele>
        <time>2019-08-17T08:55:04Z</time>
      </trkpt>
      <trkpt lat="44.27384" lon="5.88568">
        <ele>553</ele>
        <time>2019-08-17T08:55:05Z</time>
      </trkpt>
      <trkpt lat="44.27378" lon="5.88565">
        <ele>552</ele>
        <time>2019-08-17T08:55:06Z</time>
      </trkpt>
      <trkpt lat="44.27371" lon="5.88562">
        <ele>552</ele>
        <time>2019-08-17T08:55:07Z</time>
      </trkpt>
      <trkpt lat="44.27364" lon="5.88558">
        <ele>552</ele>
        <time>2019-08-17T08:55:08Z</time>
      </trkpt>
      <trkpt lat="44.27358" lon="5.88555">
        <ele>552</ele>
        <time>2019-08-17T08:55:09Z</time>
      </trkpt>
      <trkpt lat="44.27351" lon="5.88552">
        <ele>552</ele>
        <time>2019-08-17T08:55:10Z</time>
      </trkpt>
      <trkpt lat="44.27345" lon="5.88548">
        <ele>552</ele>
        <time>2019-08-17T08:55:11Z</time>
      </trkpt>
      <trkpt lat="44.27338" lon="5.88545">
        <ele>552</ele>
        <time>2019-08-17T08:55:12Z</time>
      </trkpt>
      <trkpt lat="44.27332" lon="5.88542">
        <ele>552</ele>
        <time>2019-08-17T08:55:13Z</time>
      </trkpt>
      <trkpt lat="44.27325" lon="5.88539">
        <ele>552</ele>
        <time>2019-08-17T08:55:14Z</time>
      </trkpt>
      <trkpt lat="44.27318" lon="5.88537">
        <ele>552</ele>
        <time>2019-08-17T08:55:15Z</time>
      </trkpt>
      <trkpt lat="44.27312" lon="5.88534">
        <ele>552</ele>
        <time>2019-08-17T08:55:16Z</time>
      </trkpt>
      <trkpt lat="44.27306" lon="5.88532">
        <ele>552</ele>
        <time>2019-08-17T08:55:17Z</time>
      </trkpt>
      <trkpt lat="44.27299" lon="5.8853">
        <ele>552</ele>
        <time>2019-08-17T08:55:18Z</time>
      </trkpt>
      <trkpt lat="44.27293" lon="5.88528">
        <ele>551</ele>
        <time>2019-08-17T08:55:19Z</time>
      </trkpt>
      <trkpt lat="44.27286" lon="5.88527">
        <ele>551</ele>
        <time>2019-08-17T08:55:20Z</time>
      </trkpt>
      <trkpt lat="44.27279" lon="5.88525">
        <ele>551</ele>
        <time>2019-08-17T08:55:21Z</time>
      </trkpt>
      <trkpt lat="44.27272" lon="5.88523">
        <ele>551</ele>
        <time>2019-08-17T08:55:22Z</time>
      </trkpt>
      <trkpt lat="44.27264" lon="5.88521">
        <ele>551</ele>
        <time>2019-08-17T08:55:23Z</time>
      </trkpt>
      <trkpt lat="44.27257" lon="5.88519">
        <ele>551</ele>
        <time>2019-08-17T08:55:24Z</time>
      </trkpt>
      <trkpt lat="44.27249" lon="5.88517">
        <ele>551</ele>
        <time>2019-08-17T08:55:25Z</time>
      </trkpt>
      <trkpt lat="44.27242" lon="5.88515">
        <ele>551</ele>
        <time>2019-08-17T08:55:26Z</time>
      </trkpt>
      <trkpt lat="44.27234" lon="5.88514">
        <ele>551</ele>
        <time>2019-08-17T08:55:27Z</time>
      </trkpt>
      <trkpt lat="44.27226" lon="5.88512">
        <ele>550</ele>
        <time>2019-08-17T08:55:28Z</time>
      </trkpt>
      <trkpt lat="44.27219" lon="5.88511">
        <ele>550</ele>
        <time>2019-08-17T08:55:29Z</time>
      </trkpt>
      <trkpt lat="44.27211" lon="5.8851">
        <ele>550</ele>
        <time>2019-08-17T08:55:30Z</time>
      </trkpt>
      <trkpt lat="44.27204" lon="5.8851">
        <ele>550</ele>
        <time>2019-08-17T08:55:31Z</time>
      </trkpt>
      <trkpt lat="44.27197" lon="5.88509">
        <ele>550</ele>
        <time>2019-08-17T08:55:32Z</time>
      </trkpt>
      <trkpt lat="44.2719" lon="5.88509">
        <ele>550</ele>
        <time>2019-08-17T08:55:33Z</time>
      </trkpt>
      <trkpt lat="44.27183" lon="5.88508">
        <ele>550</ele>
        <time>2019-08-17T08:55:34Z</time>
      </trkpt>
      <trkpt lat="44.27176" lon="5.88508">
        <ele>550</ele>
        <time>2019-08-17T08:55:35Z</time>
      </trkpt>
      <trkpt lat="44.27169" lon="5.88507">
        <ele>550</ele>
        <time>2019-08-17T08:55:36Z</time>
      </trkpt>
      <trkpt lat="44.27162" lon="5.88506">
        <ele>550</ele>
        <time>2019-08-17T08:55:37Z</time>
      </trkpt>
      <trkpt lat="44.27155" lon="5.88505">
        <ele>550</ele>
        <time>2019-08-17T08:55:38Z</time>
      </trkpt>
      <trkpt lat="44.27149" lon="5.88505">
        <ele>550</ele>
        <time>2019-08-17T08:55:39Z</time>
      </trkpt>
      <trkpt lat="44.27142" lon="5.88503">
        <ele>550</ele>
        <time>2019-08-17T08:55:40Z</time>
      </trkpt>
      <trkpt lat="44.27136" lon="5.88501">
        <ele>550</ele>
        <time>2019-08-17T08:55:41Z</time>
      </trkpt>
      <trkpt lat="44.27129" lon="5.88498">
        <ele>550</ele>
        <time>2019-08-17T08:55:42Z</time>
      </trkpt>
      <trkpt lat="44.27123" lon="5.88496">
        <ele>550</ele>
        <time>2019-08-17T08:55:43Z</time>
      </trkpt>
      <trkpt lat="44.27117" lon="5.88493">
        <ele>550</ele>
        <time>2019-08-17T08:55:44Z</time>
      </trkpt>
      <trkpt lat="44.27111" lon="5.8849">
        <ele>550</ele>
        <time>2019-08-17T08:55:45Z</time>
      </trkpt>
      <trkpt lat="44.27105" lon="5.88487">
        <ele>550</ele>
        <time>2019-08-17T08:55:46Z</time>
      </trkpt>
      <trkpt lat="44.27099" lon="5.88484">
        <ele>550</ele>
        <time>2019-08-17T08:55:47Z</time>
      </trkpt>
      <trkpt lat="44.27092" lon="5.88481">
        <ele>550</ele>
        <time>2019-08-17T08:55:48Z</time>
      </trkpt>
      <trkpt lat="44.27087" lon="5.88478">
        <ele>550</ele>
        <time>2019-08-17T08:55:49Z</time>
      </trkpt>
      <trkpt lat="44.27081" lon="5.88475">
        <ele>550</ele>
        <time>2019-08-17T08:55:50Z</time>
      </trkpt>
      <trkpt lat="44.27075" lon="5.88472">
        <ele>550</ele>
        <time>2019-08-17T08:55:51Z</time>
      </trkpt>
      <trkpt lat="44.27069" lon="5.8847">
        <ele>550</ele>
        <time>2019-08-17T08:55:52Z</time>
      </trkpt>
      <trkpt lat="44.27063" lon="5.88468">
        <ele>550</ele>
        <time>2019-08-17T08:55:53Z</time>
      </trkpt>
      <trkpt lat="44.27058" lon="5.88465">
        <ele>550</ele>
        <time>2019-08-17T08:55:54Z</time>
      </trkpt>
      <trkpt lat="44.27053" lon="5.88462">
        <ele>550</ele>
        <time>2019-08-17T08:55:55Z</time>
      </trkpt>
      <trkpt lat="44.27047" lon="5.88461">
        <ele>550</ele>
        <time>2019-08-17T08:55:56Z</time>
      </trkpt>
      <trkpt lat="44.27042" lon="5.88459">
        <ele>550</ele>
        <time>2019-08-17T08:55:57Z</time>
      </trkpt>
      <trkpt lat="44.27037" lon="5.88458">
        <ele>550</ele>
        <time>2019-08-17T08:55:58Z</time>
      </trkpt>
      <trkpt lat="44.27032" lon="5.88456">
        <ele>550</ele>
        <time>2019-08-17T08:55:59Z</time>
      </trkpt>
      <trkpt lat="44.27026" lon="5.88455">
        <ele>550</ele>
        <time>2019-08-17T08:56:00Z</time>
      </trkpt>
      <trkpt lat="44.2702" lon="5.88455">
        <ele>550</ele>
        <time>2019-08-17T08:56:01Z</time>
      </trkpt>
      <trkpt lat="44.27013" lon="5.88454">
        <ele>550</ele>
        <time>2019-08-17T08:56:02Z</time>
      </trkpt>
      <trkpt lat="44.27008" lon="5.88453">
        <ele>550</ele>
        <time>2019-08-17T08:56:03Z</time>
      </trkpt>
      <trkpt lat="44.27002" lon="5.88452">
        <ele>550</ele>
        <time>2019-08-17T08:56:04Z</time>
      </trkpt>
      <trkpt lat="44.26995" lon="5.88451">
        <ele>550</ele>
        <time>2019-08-17T08:56:05Z</time>
      </trkpt>
      <trkpt lat="44.26989" lon="5.8845">
        <ele>550</ele>
        <time>2019-08-17T08:56:06Z</time>
      </trkpt>
      <trkpt lat="44.26982" lon="5.88449">
        <ele>550</ele>
        <time>2019-08-17T08:56:07Z</time>
      </trkpt>
      <trkpt lat="44.26976" lon="5.88448">
        <ele>550</ele>
        <time>2019-08-17T08:56:08Z</time>
      </trkpt>
      <trkpt lat="44.2697" lon="5.88447">
        <ele>550</ele>
        <time>2019-08-17T08:56:09Z</time>
      </trkpt>
      <trkpt lat="44.26963" lon="5.88446">
        <ele>550</ele>
        <time>2019-08-17T08:56:10Z</time>
      </trkpt>
      <trkpt lat="44.26957" lon="5.88445">
        <ele>550</ele>
        <time>2019-08-17T08:56:11Z</time>
      </trkpt>
      <trkpt lat="44.2695" lon="5.88444">
        <ele>550</ele>
        <time>2019-08-17T08:56:12Z</time>
      </trkpt>
      <trkpt lat="44.26944" lon="5.88442">
        <ele>550</ele>
        <time>2019-08-17T08:56:13Z</time>
      </trkpt>
      <trkpt lat="44.26937" lon="5.8844">
        <ele>550</ele>
        <time>2019-08-17T08:56:14Z</time>
      </trkpt>
      <trkpt lat="44.26931" lon="5.88438">
        <ele>550</ele>
        <time>2019-08-17T08:56:15Z</time>
      </trkpt>
      <trkpt lat="44.26926" lon="5.88435">
        <ele>550</ele>
        <time>2019-08-17T08:56:16Z</time>
      </trkpt>
      <trkpt lat="44.2692" lon="5.88432">
        <ele>550</ele>
        <time>2019-08-17T08:56:17Z</time>
      </trkpt>
      <trkpt lat="44.26914" lon="5.88428">
        <ele>550</ele>
        <time>2019-08-17T08:56:18Z</time>
      </trkpt>
      <trkpt lat="44.26909" lon="5.88424">
        <ele>550</ele>
        <time>2019-08-17T08:56:19Z</time>
      </trkpt>
      <trkpt lat="44.26904" lon="5.88418">
        <ele>550</ele>
        <time>2019-08-17T08:56:20Z</time>
      </trkpt>
      <trkpt lat="44.269" lon="5.88413">
        <ele>550</ele>
        <time>2019-08-17T08:56:21Z</time>
      </trkpt>
      <trkpt lat="44.26895" lon="5.88409">
        <ele>550</ele>
        <time>2019-08-17T08:56:22Z</time>
      </trkpt>
      <trkpt lat="44.2689" lon="5.88404">
        <ele>550</ele>
        <time>2019-08-17T08:56:23Z</time>
      </trkpt>
      <trkpt lat="44.26886" lon="5.88399">
        <ele>550</ele>
        <time>2019-08-17T08:56:24Z</time>
      </trkpt>
      <trkpt lat="44.26882" lon="5.88395">
        <ele>550</ele>
        <time>2019-08-17T08:56:25Z</time>
      </trkpt>
      <trkpt lat="44.26878" lon="5.88391">
        <ele>550</ele>
        <time>2019-08-17T08:56:26Z</time>
      </trkpt>
      <trkpt lat="44.26874" lon="5.88388">
        <ele>550</ele>
        <time>2019-08-17T08:56:27Z</time>
      </trkpt>
      <trkpt lat="44.2687" lon="5.88385">
        <ele>550</ele>
        <time>2019-08-17T08:56:28Z</time>
      </trkpt>
      <trkpt lat="44.26867" lon="5.88383">
        <ele>550</ele>
        <time>2019-08-17T08:56:29Z</time>
      </trkpt>
      <trkpt lat="44.26862" lon="5.8838">
        <ele>550</ele>
        <time>2019-08-17T08:56:30Z</time>
      </trkpt>
      <trkpt lat="44.26858" lon="5.88378">
        <ele>550</ele>
        <time>2019-08-17T08:56:31Z</time>
      </trkpt>
      <trkpt lat="44.26853" lon="5.88375">
        <ele>550</ele>
        <time>2019-08-17T08:56:32Z</time>
      </trkpt>
      <trkpt lat="44.26849" lon="5.88373">
        <ele>550</ele>
        <time>2019-08-17T08:56:33Z</time>
      </trkpt>
      <trkpt lat="44.26844" lon="5.88371">
        <ele>550</ele>
        <time>2019-08-17T08:56:34Z</time>
      </trkpt>
      <trkpt lat="44.2684" lon="5.88369">
        <ele>550</ele>
        <time>2019-08-17T08:56:35Z</time>
      </trkpt>
      <trkpt lat="44.26835" lon="5.88367">
        <ele>550</ele>
        <time>2019-08-17T08:56:36Z</time>
      </trkpt>
      <trkpt lat="44.26831" lon="5.88364">
        <ele>550</ele>
        <time>2019-08-17T08:56:37Z</time>
      </trkpt>
      <trkpt lat="44.26826" lon="5.88361">
        <ele>550</ele>
        <time>2019-08-17T08:56:38Z</time>
      </trkpt>
      <trkpt lat="44.26822" lon="5.88358">
        <ele>550</ele>
        <time>2019-08-17T08:56:39Z</time>
      </trkpt>
      <trkpt lat="44.26817" lon="5.88355">
        <ele>550</ele>
        <time>2019-08-17T08:56:40Z</time>
      </trkpt>
      <trkpt lat="44.26812" lon="5.88352">
        <ele>550</ele>
        <time>2019-08-17T08:56:41Z</time>
      </trkpt>
      <trkpt lat="44.26808" lon="5.88348">
        <ele>550</ele>
        <time>2019-08-17T08:56:42Z</time>
      </trkpt>
      <trkpt lat="44.26803" lon="5.88344">
        <ele>550</ele>
        <time>2019-08-17T08:56:43Z</time>
      </trkpt>
      <trkpt lat="44.26799" lon="5.8834">
        <ele>550</ele>
        <time>2019-08-17T08:56:44Z</time>
      </trkpt>
      <trkpt lat="44.26795" lon="5.88336">
        <ele>550</ele>
        <time>2019-08-17T08:56:45Z</time>
      </trkpt>
      <trkpt lat="44.26791" lon="5.88332">
        <ele>550</ele>
        <time>2019-08-17T08:56:46Z</time>
      </trkpt>
      <trkpt lat="44.26786" lon="5.88327">
        <ele>550</ele>
        <time>2019-08-17T08:56:47Z</time>
      </trkpt>
      <trkpt lat="44.26781" lon="5.88324">
        <ele>550</ele>
        <time>2019-08-17T08:56:48Z</time>
      </trkpt>
      <trkpt lat="44.26776" lon="5.8832">
        <ele>550</ele>
        <time>2019-08-17T08:56:49Z</time>
      </trkpt>
      <trkpt lat="44.26771" lon="5.88317">
        <ele>550</ele>
        <time>2019-08-17T08:56:50Z</time>
      </trkpt>
      <trkpt lat="44.26766" lon="5.88315">
        <ele>550</ele>
        <time>2019-08-17T08:56:51Z</time>
      </trkpt>
      <trkpt lat="44.26761" lon="5.88313">
        <ele>550</ele>
        <time>2019-08-17T08:56:52Z</time>
      </trkpt>
      <trkpt lat="44.26756" lon="5.88311">
        <ele>550</ele>
        <time>2019-08-17T08:56:53Z</time>
      </trkpt>
      <trkpt lat="44.26751" lon="5.88309">
        <ele>550</ele>
        <time>2019-08-17T08:56:54Z</time>
      </trkpt>
      <trkpt lat="44.26746" lon="5.88306">
        <ele>550</ele>
        <time>2019-08-17T08:56:55Z</time>
      </trkpt>
      <trkpt lat="44.26741" lon="5.88304">
        <ele>550</ele>
        <time>2019-08-17T08:56:56Z</time>
      </trkpt>
      <trkpt lat="44.26736" lon="5.883">
        <ele>550</ele>
        <time>2019-08-17T08:56:57Z</time>
      </trkpt>
      <trkpt lat="44.26731" lon="5.88298">
        <ele>550</ele>
        <time>2019-08-17T08:56:58Z</time>
      </trkpt>
      <trkpt lat="44.26725" lon="5.88295">
        <ele>550</ele>
        <time>2019-08-17T08:56:59Z</time>
      </trkpt>
      <trkpt lat="44.2672" lon="5.88292">
        <ele>550</ele>
        <time>2019-08-17T08:57:00Z</time>
      </trkpt>
      <trkpt lat="44.26714" lon="5.88289">
        <ele>550</ele>
        <time>2019-08-17T08:57:01Z</time>
      </trkpt>
      <trkpt lat="44.26709" lon="5.88286">
        <ele>550</ele>
        <time>2019-08-17T08:57:02Z</time>
      </trkpt>
      <trkpt lat="44.26703" lon="5.88283">
        <ele>550</ele>
        <time>2019-08-17T08:57:03Z</time>
      </trkpt>
      <trkpt lat="44.26698" lon="5.88279">
        <ele>550</ele>
        <time>2019-08-17T08:57:04Z</time>
      </trkpt>
      <trkpt lat="44.26692" lon="5.88276">
        <ele>550</ele>
        <time>2019-08-17T08:57:05Z</time>
      </trkpt>
      <trkpt lat="44.26687" lon="5.88272">
        <ele>550</ele>
        <time>2019-08-17T08:57:06Z</time>
      </trkpt>
      <trkpt lat="44.26682" lon="5.88268">
        <ele>550</ele>
        <time>2019-08-17T08:57:07Z</time>
      </trkpt>
      <trkpt lat="44.26676" lon="5.88264">
        <ele>550</ele>
        <time>2019-08-17T08:57:08Z</time>
      </trkpt>
      <trkpt lat="44.26671" lon="5.88259">
        <ele>550</ele>
        <time>2019-08-17T08:57:09Z</time>
      </trkpt>
      <trkpt lat="44.26666" lon="5.88254">
        <ele>550</ele>
        <time>2019-08-17T08:57:10Z</time>
      </trkpt>
      <trkpt lat="44.26661" lon="5.88249">
        <ele>550</ele>
        <time>2019-08-17T08:57:11Z</time>
      </trkpt>
      <trkpt lat="44.26656" lon="5.88244">
        <ele>550</ele>
        <time>2019-08-17T08:57:12Z</time>
      </trkpt>
      <trkpt lat="44.26651" lon="5.88238">
        <ele>550</ele>
        <time>2019-08-17T08:57:13Z</time>
      </trkpt>
      <trkpt lat="44.26647" lon="5.88233">
        <ele>550</ele>
        <time>2019-08-17T08:57:14Z</time>
      </trkpt>
      <trkpt lat="44.26642" lon="5.88227">
        <ele>550</ele>
        <time>2019-08-17T08:57:15Z</time>
      </trkpt>
      <trkpt lat="44.26638" lon="5.88221">
        <ele>550</ele>
        <time>2019-08-17T08:57:16Z</time>
      </trkpt>
      <trkpt lat="44.26633" lon="5.88215">
        <ele>550</ele>
        <time>2019-08-17T08:57:17Z</time>
      </trkpt>
      <trkpt lat="44.26629" lon="5.88209">
        <ele>550</ele>
        <time>2019-08-17T08:57:18Z</time>
      </trkpt>
      <trkpt lat="44.26625" lon="5.88203">
        <ele>550</ele>
        <time>2019-08-17T08:57:19Z</time>
      </trkpt>
      <trkpt lat="44.2662" lon="5.88197">
        <ele>550</ele>
        <time>2019-08-17T08:57:20Z</time>
      </trkpt>
      <trkpt lat="44.26616" lon="5.88191">
        <ele>550</ele>
        <time>2019-08-17T08:57:21Z</time>
      </trkpt>
      <trkpt lat="44.26612" lon="5.88186">
        <ele>550</ele>
        <time>2019-08-17T08:57:22Z</time>
      </trkpt>
      <trkpt lat="44.26608" lon="5.8818">
        <ele>550</ele>
        <time>2019-08-17T08:57:23Z</time>
      </trkpt>
      <trkpt lat="44.26604" lon="5.88175">
        <ele>550</ele>
        <time>2019-08-17T08:57:24Z</time>
      </trkpt>
      <trkpt lat="44.266" lon="5.88169">
        <ele>550</ele>
        <time>2019-08-17T08:57:25Z</time>
      </trkpt>
      <trkpt lat="44.26596" lon="5.88164">
        <ele>550</ele>
        <time>2019-08-17T08:57:26Z</time>
      </trkpt>
      <trkpt lat="44.26592" lon="5.88159">
        <ele>550</ele>
        <time>2019-08-17T08:57:27Z</time>
      </trkpt>
      <trkpt lat="44.26588" lon="5.88154">
        <ele>550</ele>
        <time>2019-08-17T08:57:28Z</time>
      </trkpt>
      <trkpt lat="44.26584" lon="5.88149">
        <ele>550</ele>
        <time>2019-08-17T08:57:29Z</time>
      </trkpt>
      <trkpt lat="44.2658" lon="5.88143">
        <ele>550</ele>
        <time>2019-08-17T08:57:30Z</time>
      </trkpt>
      <trkpt lat="44.26577" lon="5.88137">
        <ele>550</ele>
        <time>2019-08-17T08:57:31Z</time>
      </trkpt>
      <trkpt lat="44.26573" lon="5.88132">
        <ele>550</ele>
        <time>2019-08-17T08:57:32Z</time>
      </trkpt>
      <trkpt lat="44.26569" lon="5.88127">
        <ele>550</ele>
        <time>2019-08-17T08:57:33Z</time>
      </trkpt>
      <trkpt lat="44.26565" lon="5.88121">
        <ele>551</ele>
        <time>2019-08-17T08:57:34Z</time>
      </trkpt>
      <trkpt lat="44.26561" lon="5.88116">
        <ele>551</ele>
        <time>2019-08-17T08:57:35Z</time>
      </trkpt>
      <trkpt lat="44.26557" lon="5.88111">
        <ele>551</ele>
        <time>2019-08-17T08:57:36Z</time>
      </trkpt>
      <trkpt lat="44.26553" lon="5.88106">
        <ele>551</ele>
        <time>2019-08-17T08:57:37Z</time>
      </trkpt>
      <trkpt lat="44.26549" lon="5.88101">
        <ele>552</ele>
        <time>2019-08-17T08:57:38Z</time>
      </trkpt>
      <trkpt lat="44.26545" lon="5.88097">
        <ele>552</ele>
        <time>2019-08-17T08:57:39Z</time>
      </trkpt>
      <trkpt lat="44.26541" lon="5.88092">
        <ele>552</ele>
        <time>2019-08-17T08:57:40Z</time>
      </trkpt>
      <trkpt lat="44.26537" lon="5.88088">
        <ele>553</ele>
        <time>2019-08-17T08:57:41Z</time>
      </trkpt>
      <trkpt lat="44.26533" lon="5.88084">
        <ele>553</ele>
        <time>2019-08-17T08:57:42Z</time>
      </trkpt>
      <trkpt lat="44.26529" lon="5.88081">
        <ele>553</ele>
        <time>2019-08-17T08:57:43Z</time>
      </trkpt>
      <trkpt lat="44.26524" lon="5.88078">
        <ele>554</ele>
        <time>2019-08-17T08:57:44Z</time>
      </trkpt>
      <trkpt lat="44.26521" lon="5.88075">
        <ele>554</ele>
        <time>2019-08-17T08:57:45Z</time>
      </trkpt>
      <trkpt lat="44.26517" lon="5.88073">
        <ele>554</ele>
        <time>2019-08-17T08:57:46Z</time>
      </trkpt>
      <trkpt lat="44.26514" lon="5.8807">
        <ele>555</ele>
        <time>2019-08-17T08:57:47Z</time>
      </trkpt>
      <trkpt lat="44.2651" lon="5.88067">
        <ele>555</ele>
        <time>2019-08-17T08:57:48Z</time>
      </trkpt>
      <trkpt lat="44.26506" lon="5.88064">
        <ele>555</ele>
        <time>2019-08-17T08:57:49Z</time>
      </trkpt>
      <trkpt lat="44.26503" lon="5.88061">
        <ele>556</ele>
        <time>2019-08-17T08:57:50Z</time>
      </trkpt>
      <trkpt lat="44.265" lon="5.88059">
        <ele>556</ele>
        <time>2019-08-17T08:57:51Z</time>
      </trkpt>
      <trkpt lat="44.26497" lon="5.88057">
        <ele>556</ele>
        <time>2019-08-17T08:57:52Z</time>
      </trkpt>
      <trkpt lat="44.26493" lon="5.88054">
        <ele>557</ele>
        <time>2019-08-17T08:57:53Z</time>
      </trkpt>
      <trkpt lat="44.2649" lon="5.88052">
        <ele>557</ele>
        <time>2019-08-17T08:57:54Z</time>
      </trkpt>
      <trkpt lat="44.26487" lon="5.8805">
        <ele>558</ele>
        <time>2019-08-17T08:57:55Z</time>
      </trkpt>
      <trkpt lat="44.26483" lon="5.88048">
        <ele>558</ele>
        <time>2019-08-17T08:57:56Z</time>
      </trkpt>
      <trkpt lat="44.26479" lon="5.88047">
        <ele>558</ele>
        <time>2019-08-17T08:57:57Z</time>
      </trkpt>
      <trkpt lat="44.26476" lon="5.88045">
        <ele>559</ele>
        <time>2019-08-17T08:57:58Z</time>
      </trkpt>
      <trkpt lat="44.26473" lon="5.88044">
        <ele>559</ele>
        <time>2019-08-17T08:57:59Z</time>
      </trkpt>
      <trkpt lat="44.26469" lon="5.88043">
        <ele>560</ele>
        <time>2019-08-17T08:58:00Z</time>
      </trkpt>
      <trkpt lat="44.26466" lon="5.88042">
        <ele>560</ele>
        <time>2019-08-17T08:58:01Z</time>
      </trkpt>
      <trkpt lat="44.26463" lon="5.88041">
        <ele>560</ele>
        <time>2019-08-17T08:58:02Z</time>
      </trkpt>
      <trkpt lat="44.26459" lon="5.8804">
        <ele>561</ele>
        <time>2019-08-17T08:58:03Z</time>
      </trkpt>
      <trkpt lat="44.26456" lon="5.88039">
        <ele>561</ele>
        <time>2019-08-17T08:58:04Z</time>
      </trkpt>
      <trkpt lat="44.26453" lon="5.88038">
        <ele>561</ele>
        <time>2019-08-17T08:58:05Z</time>
      </trkpt>
      <trkpt lat="44.2645" lon="5.88038">
        <ele>561</ele>
        <time>2019-08-17T08:58:06Z</time>
      </trkpt>
      <trkpt lat="44.26446" lon="5.88037">
        <ele>562</ele>
        <time>2019-08-17T08:58:07Z</time>
      </trkpt>
      <trkpt lat="44.26443" lon="5.88036">
        <ele>562</ele>
        <time>2019-08-17T08:58:08Z</time>
      </trkpt>
      <trkpt lat="44.2644" lon="5.88035">
        <ele>562</ele>
        <time>2019-08-17T08:58:09Z</time>
      </trkpt>
      <trkpt lat="44.26437" lon="5.88034">
        <ele>562</ele>
        <time>2019-08-17T08:58:10Z</time>
      </trkpt>
      <trkpt lat="44.26434" lon="5.88034">
        <ele>562</ele>
        <time>2019-08-17T08:58:11Z</time>
      </trkpt>
      <trkpt lat="44.26431" lon="5.88033">
        <ele>562</ele>
        <time>2019-08-17T08:58:12Z</time>
      </trkpt>
      <trkpt lat="44.26428" lon="5.88032">
        <ele>562</ele>
        <time>2019-08-17T08:58:13Z</time>
      </trkpt>
      <trkpt lat="44.26425" lon="5.88032">
        <ele>562</ele>
        <time>2019-08-17T08:58:14Z</time>
      </trkpt>
      <trkpt lat="44.26422" lon="5.88031">
        <ele>563</ele>
        <time>2019-08-17T08:58:15Z</time>
      </trkpt>
      <trkpt lat="44.26419" lon="5.8803">
        <ele>563</ele>
        <time>2019-08-17T08:58:16Z</time>
      </trkpt>
      <trkpt lat="44.26416" lon="5.88029">
        <ele>563</ele>
        <time>2019-08-17T08:58:17Z</time>
      </trkpt>
      <trkpt lat="44.26413" lon="5.88028">
        <ele>563</ele>
        <time>2019-08-17T08:58:18Z</time>
      </trkpt>
      <trkpt lat="44.26411" lon="5.88027">
        <ele>563</ele>
        <time>2019-08-17T08:58:19Z</time>
      </trkpt>
      <trkpt lat="44.26408" lon="5.88027">
        <ele>563</ele>
        <time>2019-08-17T08:58:20Z</time>
      </trkpt>
      <trkpt lat="44.26405" lon="5.88026">
        <ele>563</ele>
        <time>2019-08-17T08:58:21Z</time>
      </trkpt>
      <trkpt lat="44.26402" lon="5.88025">
        <ele>563</ele>
        <time>2019-08-17T08:58:22Z</time>
      </trkpt>
      <trkpt lat="44.26398" lon="5.88023">
        <ele>563</ele>
        <time>2019-08-17T08:58:23Z</time>
      </trkpt>
      <trkpt lat="44.26395" lon="5.88022">
        <ele>563</ele>
        <time>2019-08-17T08:58:24Z</time>
      </trkpt>
      <trkpt lat="44.26392" lon="5.88021">
        <ele>563</ele>
        <time>2019-08-17T08:58:25Z</time>
      </trkpt>
      <trkpt lat="44.2639" lon="5.88019">
        <ele>563</ele>
        <time>2019-08-17T08:58:26Z</time>
      </trkpt>
      <trkpt lat="44.26387" lon="5.88018">
        <ele>563</ele>
        <time>2019-08-17T08:58:27Z</time>
      </trkpt>
      <trkpt lat="44.26385" lon="5.88017">
        <ele>563</ele>
        <time>2019-08-17T08:58:28Z</time>
      </trkpt>
      <trkpt lat="44.26382" lon="5.88015">
        <ele>563</ele>
        <time>2019-08-17T08:58:29Z</time>
      </trkpt>
      <trkpt lat="44.2638" lon="5.88012">
        <ele>563</ele>
        <time>2019-08-17T08:58:30Z</time>
      </trkpt>
      <trkpt lat="44.26378" lon="5.8801">
        <ele>563</ele>
        <time>2019-08-17T08:58:31Z</time>
      </trkpt>
      <trkpt lat="44.26376" lon="5.88007">
        <ele>564</ele>
        <time>2019-08-17T08:58:32Z</time>
      </trkpt>
      <trkpt lat="44.26375" lon="5.88005">
        <ele>564</ele>
        <time>2019-08-17T08:58:33Z</time>
      </trkpt>
      <trkpt lat="44.26373" lon="5.88003">
        <ele>564</ele>
        <time>2019-08-17T08:58:34Z</time>
      </trkpt>
      <trkpt lat="44.26372" lon="5.88">
        <ele>564</ele>
        <time>2019-08-17T08:58:35Z</time>
      </trkpt>
      <trkpt lat="44.2637" lon="5.87997">
        <ele>564</ele>
        <time>2019-08-17T08:58:36Z</time>
      </trkpt>
      <trkpt lat="44.26368" lon="5.87994">
        <ele>564</ele>
        <time>2019-08-17T08:58:37Z</time>
      </trkpt>
      <trkpt lat="44.26366" lon="5.87991">
        <ele>565</ele>
        <time>2019-08-17T08:58:38Z</time>
      </trkpt>
      <trkpt lat="44.26365" lon="5.87989">
        <ele>565</ele>
        <time>2019-08-17T08:58:39Z</time>
      </trkpt>
      <trkpt lat="44.26363" lon="5.87986">
        <ele>565</ele>
        <time>2019-08-17T08:58:40Z</time>
      </trkpt>
      <trkpt lat="44.26361" lon="5.87983">
        <ele>565</ele>
        <time>2019-08-17T08:58:41Z</time>
      </trkpt>
      <trkpt lat="44.2636" lon="5.8798">
        <ele>565</ele>
        <time>2019-08-17T08:58:42Z</time>
      </trkpt>
      <trkpt lat="44.26358" lon="5.87976">
        <ele>565</ele>
        <time>2019-08-17T08:58:43Z</time>
      </trkpt>
      <trkpt lat="44.26356" lon="5.87973">
        <ele>565</ele>
        <time>2019-08-17T08:58:44Z</time>
      </trkpt>
      <trkpt lat="44.26354" lon="5.87969">
        <ele>566</ele>
        <time>2019-08-17T08:58:45Z</time>
      </trkpt>
      <trkpt lat="44.26352" lon="5.87966">
        <ele>566</ele>
        <time>2019-08-17T08:58:46Z</time>
      </trkpt>
      <trkpt lat="44.26351" lon="5.87962">
        <ele>566</ele>
        <time>2019-08-17T08:58:47Z</time>
      </trkpt>
      <trkpt lat="44.26349" lon="5.87958">
        <ele>566</ele>
        <time>2019-08-17T08:58:48Z</time>
      </trkpt>
      <trkpt lat="44.26347" lon="5.87954">
        <ele>567</ele>
        <time>2019-08-17T08:58:49Z</time>
      </trkpt>
      <trkpt lat="44.26346" lon="5.8795">
        <ele>567</ele>
        <time>2019-08-17T08:58:50Z</time>
      </trkpt>
      <trkpt lat="44.26345" lon="5.87946">
        <ele>567</ele>
        <time>2019-08-17T08:58:51Z</time>
      </trkpt>
      <trkpt lat="44.26345" lon="5.87942">
        <ele>567</ele>
        <time>2019-08-17T08:58:52Z</time>
      </trkpt>
      <trkpt lat="44.26344" lon="5.87937">
        <ele>568</ele>
        <time>2019-08-17T08:58:53Z</time>
      </trkpt>
      <trkpt lat="44.26344" lon="5.87933">
        <ele>568</ele>
        <time>2019-08-17T08:58:54Z</time>
      </trkpt>
      <trkpt lat="44.26343" lon="5.87929">
        <ele>568</ele>
        <time>2019-08-17T08:58:55Z</time>
      </trkpt>
      <trkpt lat="44.26343" lon="5.87925">
        <ele>568</ele>
        <time>2019-08-17T08:58:56Z</time>
      </trkpt>
      <trkpt lat="44.26343" lon="5.87921">
        <ele>568</ele>
        <time>2019-08-17T08:58:57Z</time>
      </trkpt>
      <trkpt lat="44.26344" lon="5.87916">
        <ele>569</ele>
        <time>2019-08-17T08:58:58Z</time>
      </trkpt>
      <trkpt lat="44.26344" lon="5.87912">
        <ele>569</ele>
        <time>2019-08-17T08:58:59Z</time>
      </trkpt>
      <trkpt lat="44.26345" lon="5.87908">
        <ele>569</ele>
        <time>2019-08-17T08:59:00Z</time>
      </trkpt>
      <trkpt lat="44.26345" lon="5.87904">
        <ele>569</ele>
        <time>2019-08-17T08:59:01Z</time>
      </trkpt>
      <trkpt lat="44.26345" lon="5.879">
        <ele>569</ele>
        <time>2019-08-17T08:59:02Z</time>
      </trkpt>
      <trkpt lat="44.26346" lon="5.87895">
        <ele>570</ele>
        <time>2019-08-17T08:59:03Z</time>
      </trkpt>
      <trkpt lat="44.26347" lon="5.87891">
        <ele>570</ele>
        <time>2019-08-17T08:59:04Z</time>
      </trkpt>
      <trkpt lat="44.26347" lon="5.87886">
        <ele>570</ele>
        <time>2019-08-17T08:59:05Z</time>
      </trkpt>
      <trkpt lat="44.26347" lon="5.87882">
        <ele>570</ele>
        <time>2019-08-17T08:59:06Z</time>
      </trkpt>
      <trkpt lat="44.26348" lon="5.87877">
        <ele>570</ele>
        <time>2019-08-17T08:59:07Z</time>
      </trkpt>
      <trkpt lat="44.26348" lon="5.87872">
        <ele>571</ele>
        <time>2019-08-17T08:59:08Z</time>
      </trkpt>
      <trkpt lat="44.26348" lon="5.87867">
        <ele>571</ele>
        <time>2019-08-17T08:59:09Z</time>
      </trkpt>
      <trkpt lat="44.26348" lon="5.87862">
        <ele>571</ele>
        <time>2019-08-17T08:59:10Z</time>
      </trkpt>
      <trkpt lat="44.26348" lon="5.87857">
        <ele>571</ele>
        <time>2019-08-17T08:59:11Z</time>
      </trkpt>
      <trkpt lat="44.26347" lon="5.87853">
        <ele>571</ele>
        <time>2019-08-17T08:59:12Z</time>
      </trkpt>
      <trkpt lat="44.26346" lon="5.87848">
        <ele>571</ele>
        <time>2019-08-17T08:59:13Z</time>
      </trkpt>
      <trkpt lat="44.26345" lon="5.87843">
        <ele>571</ele>
        <time>2019-08-17T08:59:14Z</time>
      </trkpt>
      <trkpt lat="44.26344" lon="5.87839">
        <ele>572</ele>
        <time>2019-08-17T08:59:15Z</time>
      </trkpt>
      <trkpt lat="44.26342" lon="5.87834">
        <ele>572</ele>
        <time>2019-08-17T08:59:16Z</time>
      </trkpt>
      <trkpt lat="44.2634" lon="5.87829">
        <ele>572</ele>
        <time>2019-08-17T08:59:17Z</time>
      </trkpt>
      <trkpt lat="44.26338" lon="5.87825">
        <ele>572</ele>
        <time>2019-08-17T08:59:18Z</time>
      </trkpt>
      <trkpt lat="44.26336" lon="5.87821">
        <ele>572</ele>
        <time>2019-08-17T08:59:19Z</time>
      </trkpt>
      <trkpt lat="44.26333" lon="5.87817">
        <ele>572</ele>
        <time>2019-08-17T08:59:20Z</time>
      </trkpt>
      <trkpt lat="44.2633" lon="5.87814">
        <ele>572</ele>
        <time>2019-08-17T08:59:21Z</time>
      </trkpt>
      <trkpt lat="44.26327" lon="5.8781">
        <ele>572</ele>
        <time>2019-08-17T08:59:22Z</time>
      </trkpt>
      <trkpt lat="44.26324" lon="5.87807">
        <ele>572</ele>
        <time>2019-08-17T08:59:23Z</time>
      </trkpt>
      <trkpt lat="44.26321" lon="5.87803">
        <ele>572</ele>
        <time>2019-08-17T08:59:24Z</time>
      </trkpt>
      <trkpt lat="44.26318" lon="5.878">
        <ele>572</ele>
        <time>2019-08-17T08:59:25Z</time>
      </trkpt>
      <trkpt lat="44.26315" lon="5.87797">
        <ele>572</ele>
        <time>2019-08-17T08:59:26Z</time>
      </trkpt>
      <trkpt lat="44.26311" lon="5.87794">
        <ele>572</ele>
        <time>2019-08-17T08:59:27Z</time>
      </trkpt>
      <trkpt lat="44.26308" lon="5.87791">
        <ele>572</ele>
        <time>2019-08-17T08:59:28Z</time>
      </trkpt>
      <trkpt lat="44.26304" lon="5.87788">
        <ele>572</ele>
        <time>2019-08-17T08:59:29Z</time>
      </trkpt>
      <trkpt lat="44.263" lon="5.87785">
        <ele>573</ele>
        <time>2019-08-17T08:59:30Z</time>
      </trkpt>
      <trkpt lat="44.26297" lon="5.87782">
        <ele>573</ele>
        <time>2019-08-17T08:59:31Z</time>
      </trkpt>
      <trkpt lat="44.26293" lon="5.8778">
        <ele>573</ele>
        <time>2019-08-17T08:59:32Z</time>
      </trkpt>
      <trkpt lat="44.2629" lon="5.87777">
        <ele>573</ele>
        <time>2019-08-17T08:59:33Z</time>
      </trkpt>
      <trkpt lat="44.26286" lon="5.87774">
        <ele>573</ele>
        <time>2019-08-17T08:59:34Z</time>
      </trkpt>
      <trkpt lat="44.26283" lon="5.87771">
        <ele>573</ele>
        <time>2019-08-17T08:59:35Z</time>
      </trkpt>
      <trkpt lat="44.26279" lon="5.87768">
        <ele>573</ele>
        <time>2019-08-17T08:59:36Z</time>
      </trkpt>
      <trkpt lat="44.26275" lon="5.87766">
        <ele>573</ele>
        <time>2019-08-17T08:59:37Z</time>
      </trkpt>
      <trkpt lat="44.26272" lon="5.87762">
        <ele>573</ele>
        <time>2019-08-17T08:59:38Z</time>
      </trkpt>
      <trkpt lat="44.26268" lon="5.87759">
        <ele>574</ele>
        <time>2019-08-17T08:59:39Z</time>
      </trkpt>
      <trkpt lat="44.26264" lon="5.87756">
        <ele>574</ele>
        <time>2019-08-17T08:59:40Z</time>
      </trkpt>
      <trkpt lat="44.2626" lon="5.87754">
        <ele>574</ele>
        <time>2019-08-17T08:59:41Z</time>
      </trkpt>
      <trkpt lat="44.26257" lon="5.87751">
        <ele>574</ele>
        <time>2019-08-17T08:59:42Z</time>
      </trkpt>
      <trkpt lat="44.26253" lon="5.87748">
        <ele>574</ele>
        <time>2019-08-17T08:59:43Z</time>
      </trkpt>
      <trkpt lat="44.26249" lon="5.87745">
        <ele>574</ele>
        <time>2019-08-17T08:59:44Z</time>
      </trkpt>
      <trkpt lat="44.26245" lon="5.87742">
        <ele>574</ele>
        <time>2019-08-17T08:59:45Z</time>
      </trkpt>
      <trkpt lat="44.26242" lon="5.8774">
        <ele>574</ele>
        <time>2019-08-17T08:59:46Z</time>
      </trkpt>
      <trkpt lat="44.26238" lon="5.87737">
        <ele>574</ele>
        <time>2019-08-17T08:59:47Z</time>
      </trkpt>
      <trkpt lat="44.26234" lon="5.87735">
        <ele>574</ele>
        <time>2019-08-17T08:59:48Z</time>
      </trkpt>
      <trkpt lat="44.2623" lon="5.87732">
        <ele>574</ele>
        <time>2019-08-17T08:59:49Z</time>
      </trkpt>
      <trkpt lat="44.26226" lon="5.87729">
        <ele>574</ele>
        <time>2019-08-17T08:59:50Z</time>
      </trkpt>
      <trkpt lat="44.26223" lon="5.87726">
        <ele>575</ele>
        <time>2019-08-17T08:59:51Z</time>
      </trkpt>
      <trkpt lat="44.26219" lon="5.87724">
        <ele>575</ele>
        <time>2019-08-17T08:59:52Z</time>
      </trkpt>
      <trkpt lat="44.26215" lon="5.87721">
        <ele>575</ele>
        <time>2019-08-17T08:59:53Z</time>
      </trkpt>
      <trkpt lat="44.26211" lon="5.87719">
        <ele>575</ele>
        <time>2019-08-17T08:59:54Z</time>
      </trkpt>
      <trkpt lat="44.26207" lon="5.87716">
        <ele>575</ele>
        <time>2019-08-17T08:59:55Z</time>
      </trkpt>
      <trkpt lat="44.26203" lon="5.87714">
        <ele>575</ele>
        <time>2019-08-17T08:59:56Z</time>
      </trkpt>
      <trkpt lat="44.26199" lon="5.87712">
        <ele>575</ele>
        <time>2019-08-17T08:59:57Z</time>
      </trkpt>
      <trkpt lat="44.26195" lon="5.8771">
        <ele>576</ele>
        <time>2019-08-17T08:59:58Z</time>
      </trkpt>
      <trkpt lat="44.26191" lon="5.87707">
        <ele>576</ele>
        <time>2019-08-17T08:59:59Z</time>
      </trkpt>
      <trkpt lat="44.26187" lon="5.87705">
        <ele>576</ele>
        <time>2019-08-17T09:00:00Z</time>
      </trkpt>
      <trkpt lat="44.26183" lon="5.87704">
        <ele>576</ele>
        <time>2019-08-17T09:00:01Z</time>
      </trkpt>
      <trkpt lat="44.26179" lon="5.87702">
        <ele>576</ele>
        <time>2019-08-17T09:00:02Z</time>
      </trkpt>
      <trkpt lat="44.26175" lon="5.877">
        <ele>576</ele>
        <time>2019-08-17T09:00:03Z</time>
      </trkpt>
      <trkpt lat="44.26171" lon="5.87698">
        <ele>576</ele>
        <time>2019-08-17T09:00:04Z</time>
      </trkpt>
      <trkpt lat="44.26167" lon="5.87696">
        <ele>576</ele>
        <time>2019-08-17T09:00:05Z</time>
      </trkpt>
      <trkpt lat="44.26163" lon="5.87694">
        <ele>576</ele>
        <time>2019-08-17T09:00:06Z</time>
      </trkpt>
      <trkpt lat="44.26159" lon="5.87692">
        <ele>576</ele>
        <time>2019-08-17T09:00:07Z</time>
      </trkpt>
      <trkpt lat="44.26155" lon="5.87691">
        <ele>576</ele>
        <time>2019-08-17T09:00:08Z</time>
      </trkpt>
      <trkpt lat="44.26151" lon="5.87689">
        <ele>576</ele>
        <time>2019-08-17T09:00:09Z</time>
      </trkpt>
      <trkpt lat="44.26147" lon="5.87687">
        <ele>576</ele>
        <time>2019-08-17T09:00:10Z</time>
      </trkpt>
      <trkpt lat="44.26143" lon="5.87685">
        <ele>576</ele>
        <time>2019-08-17T09:00:11Z</time>
      </trkpt>
      <trkpt lat="44.26139" lon="5.87682">
        <ele>576</ele>
        <time>2019-08-17T09:00:12Z</time>
      </trkpt>
      <trkpt lat="44.26136" lon="5.87679">
        <ele>576</ele>
        <time>2019-08-17T09:00:13Z</time>
      </trkpt>
      <trkpt lat="44.26132" lon="5.87676">
        <ele>576</ele>
        <time>2019-08-17T09:00:14Z</time>
      </trkpt>
      <trkpt lat="44.26128" lon="5.87675">
        <ele>576</ele>
        <time>2019-08-17T09:00:15Z</time>
      </trkpt>
      <trkpt lat="44.26125" lon="5.87675">
        <ele>577</ele>
        <time>2019-08-17T09:00:16Z</time>
      </trkpt>
      <trkpt lat="44.26121" lon="5.87675">
        <ele>577</ele>
        <time>2019-08-17T09:00:17Z</time>
      </trkpt>
      <trkpt lat="44.26117" lon="5.87676">
        <ele>577</ele>
        <time>2019-08-17T09:00:18Z</time>
      </trkpt>
      <trkpt lat="44.26113" lon="5.87678">
        <ele>577</ele>
        <time>2019-08-17T09:00:19Z</time>
      </trkpt>
      <trkpt lat="44.26109" lon="5.87679">
        <ele>577</ele>
        <time>2019-08-17T09:00:20Z</time>
      </trkpt>
      <trkpt lat="44.26104" lon="5.8768">
        <ele>577</ele>
        <time>2019-08-17T09:00:21Z</time>
      </trkpt>
      <trkpt lat="44.261" lon="5.87682">
        <ele>577</ele>
        <time>2019-08-17T09:00:22Z</time>
      </trkpt>
      <trkpt lat="44.26095" lon="5.87683">
        <ele>577</ele>
        <time>2019-08-17T09:00:23Z</time>
      </trkpt>
      <trkpt lat="44.26091" lon="5.87684">
        <ele>577</ele>
        <time>2019-08-17T09:00:24Z</time>
      </trkpt>
      <trkpt lat="44.26086" lon="5.87686">
        <ele>577</ele>
        <time>2019-08-17T09:00:25Z</time>
      </trkpt>
      <trkpt lat="44.26081" lon="5.87687">
        <ele>577</ele>
        <time>2019-08-17T09:00:26Z</time>
      </trkpt>
      <trkpt lat="44.26076" lon="5.87688">
        <ele>577</ele>
        <time>2019-08-17T09:00:27Z</time>
      </trkpt>
      <trkpt lat="44.2607" lon="5.87688">
        <ele>577</ele>
        <time>2019-08-17T09:00:28Z</time>
      </trkpt>
      <trkpt lat="44.26065" lon="5.87689">
        <ele>577</ele>
        <time>2019-08-17T09:00:29Z</time>
      </trkpt>
      <trkpt lat="44.26059" lon="5.87689">
        <ele>577</ele>
        <time>2019-08-17T09:00:30Z</time>
      </trkpt>
      <trkpt lat="44.26053" lon="5.87689">
        <ele>577</ele>
        <time>2019-08-17T09:00:31Z</time>
      </trkpt>
      <trkpt lat="44.26046" lon="5.87688">
        <ele>577</ele>
        <time>2019-08-17T09:00:32Z</time>
      </trkpt>
      <trkpt lat="44.26041" lon="5.87688">
        <ele>577</ele>
        <time>2019-08-17T09:00:33Z</time>
      </trkpt>
      <trkpt lat="44.26034" lon="5.87689">
        <ele>577</ele>
        <time>2019-08-17T09:00:34Z</time>
      </trkpt>
      <trkpt lat="44.26028" lon="5.87689">
        <ele>577</ele>
        <time>2019-08-17T09:00:35Z</time>
      </trkpt>
      <trkpt lat="44.26022" lon="5.8769">
        <ele>577</ele>
        <time>2019-08-17T09:00:36Z</time>
      </trkpt>
      <trkpt lat="44.26015" lon="5.87691">
        <ele>577</ele>
        <time>2019-08-17T09:00:37Z</time>
      </trkpt>
      <trkpt lat="44.26008" lon="5.87692">
        <ele>577</ele>
        <time>2019-08-17T09:00:38Z</time>
      </trkpt>
      <trkpt lat="44.26001" lon="5.87694">
        <ele>577</ele>
        <time>2019-08-17T09:00:39Z</time>
      </trkpt>
      <trkpt lat="44.25994" lon="5.87695">
        <ele>577</ele>
        <time>2019-08-17T09:00:40Z</time>
      </trkpt>
      <trkpt lat="44.25987" lon="5.87697">
        <ele>577</ele>
        <time>2019-08-17T09:00:41Z</time>
      </trkpt>
      <trkpt lat="44.2598" lon="5.87699">
        <ele>577</ele>
        <time>2019-08-17T09:00:42Z</time>
      </trkpt>
      <trkpt lat="44.25973" lon="5.87701">
        <ele>577</ele>
        <time>2019-08-17T09:00:43Z</time>
      </trkpt>
      <trkpt lat="44.25965" lon="5.87703">
        <ele>576</ele>
        <time>2019-08-17T09:00:44Z</time>
      </trkpt>
      <trkpt lat="44.25958" lon="5.87705">
        <ele>576</ele>
        <time>2019-08-17T09:00:45Z</time>
      </trkpt>
      <trkpt lat="44.25951" lon="5.87708">
        <ele>576</ele>
        <time>2019-08-17T09:00:46Z</time>
      </trkpt>
      <trkpt lat="44.25944" lon="5.87711">
        <ele>576</ele>
        <time>2019-08-17T09:00:47Z</time>
      </trkpt>
      <trkpt lat="44.25937" lon="5.87714">
        <ele>576</ele>
        <time>2019-08-17T09:00:48Z</time>
      </trkpt>
      <trkpt lat="44.2593" lon="5.87718">
        <ele>576</ele>
        <time>2019-08-17T09:00:49Z</time>
      </trkpt>
      <trkpt lat="44.25923" lon="5.87722">
        <ele>576</ele>
        <time>2019-08-17T09:00:50Z</time>
      </trkpt>
      <trkpt lat="44.25916" lon="5.87726">
        <ele>576</ele>
        <time>2019-08-17T09:00:51Z</time>
      </trkpt>
      <trkpt lat="44.25909" lon="5.87731">
        <ele>575</ele>
        <time>2019-08-17T09:00:52Z</time>
      </trkpt>
      <trkpt lat="44.25902" lon="5.87735">
        <ele>575</ele>
        <time>2019-08-17T09:00:53Z</time>
      </trkpt>
      <trkpt lat="44.25895" lon="5.87739">
        <ele>575</ele>
        <time>2019-08-17T09:00:54Z</time>
      </trkpt>
      <trkpt lat="44.25887" lon="5.87742">
        <ele>575</ele>
        <time>2019-08-17T09:00:55Z</time>
      </trkpt>
      <trkpt lat="44.2588" lon="5.87745">
        <ele>574</ele>
        <time>2019-08-17T09:00:56Z</time>
      </trkpt>
      <trkpt lat="44.25873" lon="5.87748">
        <ele>574</ele>
        <time>2019-08-17T09:00:57Z</time>
      </trkpt>
      <trkpt lat="44.25865" lon="5.87751">
        <ele>574</ele>
        <time>2019-08-17T09:00:58Z</time>
      </trkpt>
      <trkpt lat="44.25858" lon="5.87755">
        <ele>574</ele>
        <time>2019-08-17T09:00:59Z</time>
      </trkpt>
      <trkpt lat="44.2585" lon="5.8776">
        <ele>573</ele>
        <time>2019-08-17T09:01:00Z</time>
      </trkpt>
      <trkpt lat="44.25843" lon="5.87766">
        <ele>573</ele>
        <time>2019-08-17T09:01:01Z</time>
      </trkpt>
      <trkpt lat="44.25837" lon="5.87773">
        <ele>573</ele>
        <time>2019-08-17T09:01:02Z</time>
      </trkpt>
      <trkpt lat="44.25831" lon="5.87781">
        <ele>573</ele>
        <time>2019-08-17T09:01:03Z</time>
      </trkpt>
      <trkpt lat="44.25825" lon="5.8779">
        <ele>572</ele>
        <time>2019-08-17T09:01:04Z</time>
      </trkpt>
      <trkpt lat="44.2582" lon="5.87799">
        <ele>572</ele>
        <time>2019-08-17T09:01:05Z</time>
      </trkpt>
      <trkpt lat="44.25815" lon="5.87808">
        <ele>572</ele>
        <time>2019-08-17T09:01:06Z</time>
      </trkpt>
      <trkpt lat="44.25809" lon="5.87817">
        <ele>572</ele>
        <time>2019-08-17T09:01:07Z</time>
      </trkpt>
      <trkpt lat="44.25804" lon="5.87825">
        <ele>572</ele>
        <time>2019-08-17T09:01:08Z</time>
      </trkpt>
      <trkpt lat="44.25799" lon="5.87833">
        <ele>571</ele>
        <time>2019-08-17T09:01:09Z</time>
      </trkpt>
      <trkpt lat="44.25793" lon="5.87841">
        <ele>571</ele>
        <time>2019-08-17T09:01:10Z</time>
      </trkpt>
      <trkpt lat="44.25787" lon="5.87849">
        <ele>571</ele>
        <time>2019-08-17T09:01:11Z</time>
      </trkpt>
      <trkpt lat="44.25782" lon="5.87856">
        <ele>571</ele>
        <time>2019-08-17T09:01:12Z</time>
      </trkpt>
      <trkpt lat="44.25776" lon="5.87863">
        <ele>570</ele>
        <time>2019-08-17T09:01:13Z</time>
      </trkpt>
      <trkpt lat="44.2577" lon="5.8787">
        <ele>570</ele>
        <time>2019-08-17T09:01:14Z</time>
      </trkpt>
      <trkpt lat="44.25763" lon="5.87877">
        <ele>570</ele>
        <time>2019-08-17T09:01:15Z</time>
      </trkpt>
      <trkpt lat="44.25758" lon="5.87883">
        <ele>570</ele>
        <time>2019-08-17T09:01:16Z</time>
      </trkpt>
      <trkpt lat="44.25751" lon="5.8789">
        <ele>570</ele>
        <time>2019-08-17T09:01:17Z</time>
      </trkpt>
      <trkpt lat="44.25746" lon="5.87898">
        <ele>570</ele>
        <time>2019-08-17T09:01:18Z</time>
      </trkpt>
      <trkpt lat="44.2574" lon="5.87906">
        <ele>570</ele>
        <time>2019-08-17T09:01:19Z</time>
      </trkpt>
      <trkpt lat="44.25735" lon="5.87913">
        <ele>570</ele>
        <time>2019-08-17T09:01:20Z</time>
      </trkpt>
      <trkpt lat="44.2573" lon="5.87921">
        <ele>570</ele>
        <time>2019-08-17T09:01:21Z</time>
      </trkpt>
      <trkpt lat="44.25725" lon="5.87928">
        <ele>570</ele>
        <time>2019-08-17T09:01:22Z</time>
      </trkpt>
      <trkpt lat="44.2572" lon="5.87935">
        <ele>570</ele>
        <time>2019-08-17T09:01:23Z</time>
      </trkpt>
      <trkpt lat="44.25714" lon="5.87942">
        <ele>569</ele>
        <time>2019-08-17T09:01:24Z</time>
      </trkpt>
      <trkpt lat="44.25709" lon="5.87948">
        <ele>569</ele>
        <time>2019-08-17T09:01:25Z</time>
      </trkpt>
      <trkpt lat="44.25703" lon="5.87954">
        <ele>569</ele>
        <time>2019-08-17T09:01:26Z</time>
      </trkpt>
      <trkpt lat="44.25698" lon="5.8796">
        <ele>569</ele>
        <time>2019-08-17T09:01:27Z</time>
      </trkpt>
      <trkpt lat="44.25692" lon="5.87966">
        <ele>569</ele>
        <time>2019-08-17T09:01:28Z</time>
      </trkpt>
      <trkpt lat="44.25687" lon="5.87972">
        <ele>569</ele>
        <time>2019-08-17T09:01:29Z</time>
      </trkpt>
      <trkpt lat="44.25681" lon="5.87977">
        <ele>569</ele>
        <time>2019-08-17T09:01:30Z</time>
      </trkpt>
      <trkpt lat="44.25676" lon="5.87982">
        <ele>569</ele>
        <time>2019-08-17T09:01:31Z</time>
      </trkpt>
      <trkpt lat="44.25671" lon="5.87987">
        <ele>569</ele>
        <time>2019-08-17T09:01:32Z</time>
      </trkpt>
      <trkpt lat="44.25666" lon="5.87992">
        <ele>569</ele>
        <time>2019-08-17T09:01:33Z</time>
      </trkpt>
      <trkpt lat="44.25662" lon="5.87997">
        <ele>569</ele>
        <time>2019-08-17T09:01:34Z</time>
      </trkpt>
      <trkpt lat="44.25657" lon="5.88002">
        <ele>569</ele>
        <time>2019-08-17T09:01:35Z</time>
      </trkpt>
      <trkpt lat="44.25653" lon="5.88008">
        <ele>569</ele>
        <time>2019-08-17T09:01:36Z</time>
      </trkpt>
      <trkpt lat="44.25649" lon="5.88013">
        <ele>569</ele>
        <time>2019-08-17T09:01:37Z</time>
      </trkpt>
      <trkpt lat="44.25645" lon="5.88019">
        <ele>569</ele>
        <time>2019-08-17T09:01:38Z</time>
      </trkpt>
      <trkpt lat="44.2564" lon="5.88024">
        <ele>569</ele>
        <time>2019-08-17T09:01:39Z</time>
      </trkpt>
      <trkpt lat="44.25636" lon="5.88029">
        <ele>569</ele>
        <time>2019-08-17T09:01:40Z</time>
      </trkpt>
      <trkpt lat="44.25631" lon="5.88034">
        <ele>569</ele>
        <time>2019-08-17T09:01:41Z</time>
      </trkpt>
      <trkpt lat="44.25627" lon="5.8804">
        <ele>569</ele>
        <time>2019-08-17T09:01:42Z</time>
      </trkpt>
      <trkpt lat="44.25622" lon="5.88046">
        <ele>569</ele>
        <time>2019-08-17T09:01:43Z</time>
      </trkpt>
      <trkpt lat="44.25618" lon="5.88051">
        <ele>569</ele>
        <time>2019-08-17T09:01:44Z</time>
      </trkpt>
      <trkpt lat="44.25613" lon="5.88057">
        <ele>569</ele>
        <time>2019-08-17T09:01:45Z</time>
      </trkpt>
      <trkpt lat="44.25609" lon="5.88062">
        <ele>569</ele>
        <time>2019-08-17T09:01:46Z</time>
      </trkpt>
      <trkpt lat="44.25604" lon="5.88067">
        <ele>569</ele>
        <time>2019-08-17T09:01:47Z</time>
      </trkpt>
      <trkpt lat="44.256" lon="5.88072">
        <ele>569</ele>
        <time>2019-08-17T09:01:48Z</time>
      </trkpt>
      <trkpt lat="44.25595" lon="5.88077">
        <ele>569</ele>
        <time>2019-08-17T09:01:49Z</time>
      </trkpt>
      <trkpt lat="44.25591" lon="5.88083">
        <ele>569</ele>
        <time>2019-08-17T09:01:50Z</time>
      </trkpt>
      <trkpt lat="44.25587" lon="5.88088">
        <ele>569</ele>
        <time>2019-08-17T09:01:51Z</time>
      </trkpt>
      <trkpt lat="44.25584" lon="5.88094">
        <ele>569</ele>
        <time>2019-08-17T09:01:52Z</time>
      </trkpt>
      <trkpt lat="44.2558" lon="5.88099">
        <ele>569</ele>
        <time>2019-08-17T09:01:53Z</time>
      </trkpt>
      <trkpt lat="44.25576" lon="5.88105">
        <ele>569</ele>
        <time>2019-08-17T09:01:54Z</time>
      </trkpt>
      <trkpt lat="44.25573" lon="5.88111">
        <ele>569</ele>
        <time>2019-08-17T09:01:55Z</time>
      </trkpt>
      <trkpt lat="44.2557" lon="5.88117">
        <ele>569</ele>
        <time>2019-08-17T09:01:56Z</time>
      </trkpt>
      <trkpt lat="44.25567" lon="5.88124">
        <ele>569</ele>
        <time>2019-08-17T09:01:57Z</time>
      </trkpt>
      <trkpt lat="44.25565" lon="5.88131">
        <ele>569</ele>
        <time>2019-08-17T09:01:58Z</time>
      </trkpt>
      <trkpt lat="44.25562" lon="5.88137">
        <ele>569</ele>
        <time>2019-08-17T09:01:59Z</time>
      </trkpt>
      <trkpt lat="44.2556" lon="5.88143">
        <ele>569</ele>
        <time>2019-08-17T09:02:00Z</time>
      </trkpt>
      <trkpt lat="44.25558" lon="5.88149">
        <ele>569</ele>
        <time>2019-08-17T09:02:01Z</time>
      </trkpt>
      <trkpt lat="44.25556" lon="5.88154">
        <ele>569</ele>
        <time>2019-08-17T09:02:02Z</time>
      </trkpt>
      <trkpt lat="44.25553" lon="5.88158">
        <ele>569</ele>
        <time>2019-08-17T09:02:03Z</time>
      </trkpt>
      <trkpt lat="44.2555" lon="5.88158">
        <ele>569</ele>
        <time>2019-08-17T09:02:04Z</time>
      </trkpt>
      <trkpt lat="44.25546" lon="5.88157">
        <ele>569</ele>
        <time>2019-08-17T09:02:05Z</time>
      </trkpt>
      <trkpt lat="44.25543" lon="5.88154">
        <ele>569</ele>
        <time>2019-08-17T09:02:06Z</time>
      </trkpt>
      <trkpt lat="44.2554" lon="5.88149">
        <ele>569</ele>
        <time>2019-08-17T09:02:07Z</time>
      </trkpt>
      <trkpt lat="44.25536" lon="5.88144">
        <ele>569</ele>
        <time>2019-08-17T09:02:08Z</time>
      </trkpt>
      <trkpt lat="44.25533" lon="5.88138">
        <ele>569</ele>
        <time>2019-08-17T09:02:09Z</time>
      </trkpt>
      <trkpt lat="44.2553" lon="5.88132">
        <ele>569</ele>
        <time>2019-08-17T09:02:10Z</time>
      </trkpt>
      <trkpt lat="44.25528" lon="5.88126">
        <ele>569</ele>
        <time>2019-08-17T09:02:11Z</time>
      </trkpt>
      <trkpt lat="44.25525" lon="5.8812">
        <ele>569</ele>
        <time>2019-08-17T09:02:12Z</time>
      </trkpt>
      <trkpt lat="44.25522" lon="5.88113">
        <ele>569</ele>
        <time>2019-08-17T09:02:13Z</time>
      </trkpt>
      <trkpt lat="44.25519" lon="5.88105">
        <ele>568</ele>
        <time>2019-08-17T09:02:14Z</time>
      </trkpt>
      <trkpt lat="44.25516" lon="5.88097">
        <ele>568</ele>
        <time>2019-08-17T09:02:15Z</time>
      </trkpt>
      <trkpt lat="44.25514" lon="5.88088">
        <ele>568</ele>
        <time>2019-08-17T09:02:16Z</time>
      </trkpt>
      <trkpt lat="44.25511" lon="5.88078">
        <ele>568</ele>
        <time>2019-08-17T09:02:17Z</time>
      </trkpt>
      <trkpt lat="44.25509" lon="5.88069">
        <ele>568</ele>
        <time>2019-08-17T09:02:18Z</time>
      </trkpt>
      <trkpt lat="44.25506" lon="5.8806">
        <ele>568</ele>
        <time>2019-08-17T09:02:19Z</time>
      </trkpt>
      <trkpt lat="44.25504" lon="5.88051">
        <ele>568</ele>
        <time>2019-08-17T09:02:20Z</time>
      </trkpt>
      <trkpt lat="44.25501" lon="5.88043">
        <ele>568</ele>
        <time>2019-08-17T09:02:21Z</time>
      </trkpt>
      <trkpt lat="44.25499" lon="5.88036">
        <ele>567</ele>
        <time>2019-08-17T09:02:22Z</time>
      </trkpt>
      <trkpt lat="44.25497" lon="5.8803">
        <ele>567</ele>
        <time>2019-08-17T09:02:23Z</time>
      </trkpt>
      <trkpt lat="44.25496" lon="5.88025">
        <ele>567</ele>
        <time>2019-08-17T09:02:24Z</time>
      </trkpt>
      <trkpt lat="44.25494" lon="5.88019">
        <ele>567</ele>
        <time>2019-08-17T09:02:25Z</time>
      </trkpt>
      <trkpt lat="44.25492" lon="5.88014">
        <ele>567</ele>
        <time>2019-08-17T09:02:26Z</time>
      </trkpt>
      <trkpt lat="44.25491" lon="5.88008">
        <ele>567</ele>
        <time>2019-08-17T09:02:27Z</time>
      </trkpt>
      <trkpt lat="44.25489" lon="5.88002">
        <ele>567</ele>
        <time>2019-08-17T09:02:28Z</time>
      </trkpt>
      <trkpt lat="44.25488" lon="5.87995">
        <ele>567</ele>
        <time>2019-08-17T09:02:29Z</time>
      </trkpt>
      <trkpt lat="44.25486" lon="5.87988">
        <ele>567</ele>
        <time>2019-08-17T09:02:30Z</time>
      </trkpt>
      <trkpt lat="44.25483" lon="5.87981">
        <ele>567</ele>
        <time>2019-08-17T09:02:31Z</time>
      </trkpt>
      <trkpt lat="44.25481" lon="5.87974">
        <ele>567</ele>
        <time>2019-08-17T09:02:32Z</time>
      </trkpt>
      <trkpt lat="44.2548" lon="5.87968">
        <ele>567</ele>
        <time>2019-08-17T09:02:33Z</time>
      </trkpt>
      <trkpt lat="44.25478" lon="5.87961">
        <ele>567</ele>
        <time>2019-08-17T09:02:34Z</time>
      </trkpt>
      <trkpt lat="44.25476" lon="5.87954">
        <ele>567</ele>
        <time>2019-08-17T09:02:35Z</time>
      </trkpt>
      <trkpt lat="44.25474" lon="5.87948">
        <ele>567</ele>
        <time>2019-08-17T09:02:36Z</time>
      </trkpt>
      <trkpt lat="44.25472" lon="5.87941">
        <ele>567</ele>
        <time>2019-08-17T09:02:37Z</time>
      </trkpt>
      <trkpt lat="44.2547" lon="5.87935">
        <ele>567</ele>
        <time>2019-08-17T09:02:38Z</time>
      </trkpt>
      <trkpt lat="44.25469" lon="5.87929">
        <ele>567</ele>
        <time>2019-08-17T09:02:39Z</time>
      </trkpt>
      <trkpt lat="44.25467" lon="5.87923">
        <ele>567</ele>
        <time>2019-08-17T09:02:40Z</time>
      </trkpt>
      <trkpt lat="44.25466" lon="5.87918">
        <ele>567</ele>
        <time>2019-08-17T09:02:41Z</time>
      </trkpt>
      <trkpt lat="44.25464" lon="5.87912">
        <ele>567</ele>
        <time>2019-08-17T09:02:42Z</time>
      </trkpt>
      <trkpt lat="44.25462" lon="5.87906">
        <ele>567</ele>
        <time>2019-08-17T09:02:43Z</time>
      </trkpt>
      <trkpt lat="44.25461" lon="5.879">
        <ele>567</ele>
        <time>2019-08-17T09:02:44Z</time>
      </trkpt>
      <trkpt lat="44.2546" lon="5.87894">
        <ele>567</ele>
        <time>2019-08-17T09:02:45Z</time>
      </trkpt>
      <trkpt lat="44.25459" lon="5.87889">
        <ele>567</ele>
        <time>2019-08-17T09:02:46Z</time>
      </trkpt>
      <trkpt lat="44.25458" lon="5.87883">
        <ele>567</ele>
        <time>2019-08-17T09:02:47Z</time>
      </trkpt>
      <trkpt lat="44.25457" lon="5.87878">
        <ele>567</ele>
        <time>2019-08-17T09:02:48Z</time>
      </trkpt>
      <trkpt lat="44.25455" lon="5.87872">
        <ele>567</ele>
        <time>2019-08-17T09:02:49Z</time>
      </trkpt>
      <trkpt lat="44.25454" lon="5.87866">
        <ele>567</ele>
        <time>2019-08-17T09:02:50Z</time>
      </trkpt>
      <trkpt lat="44.25454" lon="5.87861">
        <ele>567</ele>
        <time>2019-08-17T09:02:51Z</time>
      </trkpt>
      <trkpt lat="44.25453" lon="5.87856">
        <ele>567</ele>
        <time>2019-08-17T09:02:52Z</time>
      </trkpt>
      <trkpt lat="44.25452" lon="5.8785">
        <ele>567</ele>
        <time>2019-08-17T09:02:53Z</time>
      </trkpt>
      <trkpt lat="44.25451" lon="5.87845">
        <ele>567</ele>
        <time>2019-08-17T09:02:54Z</time>
      </trkpt>
      <trkpt lat="44.25449" lon="5.8784">
        <ele>567</ele>
        <time>2019-08-17T09:02:55Z</time>
      </trkpt>
      <trkpt lat="44.25448" lon="5.87835">
        <ele>567</ele>
        <time>2019-08-17T09:02:56Z</time>
      </trkpt>
      <trkpt lat="44.25447" lon="5.8783">
        <ele>567</ele>
        <time>2019-08-17T09:02:57Z</time>
      </trkpt>
      <trkpt lat="44.25446" lon="5.87825">
        <ele>568</ele>
        <time>2019-08-17T09:02:58Z</time>
      </trkpt>
      <trkpt lat="44.25445" lon="5.8782">
        <ele>568</ele>
        <time>2019-08-17T09:02:59Z</time>
      </trkpt>
      <trkpt lat="44.25445" lon="5.87815">
        <ele>568</ele>
        <time>2019-08-17T09:03:00Z</time>
      </trkpt>
      <trkpt lat="44.25444" lon="5.87811">
        <ele>568</ele>
        <time>2019-08-17T09:03:01Z</time>
      </trkpt>
      <trkpt lat="44.25443" lon="5.87806">
        <ele>569</ele>
        <time>2019-08-17T09:03:02Z</time>
      </trkpt>
      <trkpt lat="44.25442" lon="5.87801">
        <ele>569</ele>
        <time>2019-08-17T09:03:03Z</time>
      </trkpt>
      <trkpt lat="44.25441" lon="5.87796">
        <ele>570</ele>
        <time>2019-08-17T09:03:04Z</time>
      </trkpt>
      <trkpt lat="44.25439" lon="5.87792">
        <ele>570</ele>
        <time>2019-08-17T09:03:05Z</time>
      </trkpt>
      <trkpt lat="44.25438" lon="5.87787">
        <ele>570</ele>
        <time>2019-08-17T09:03:06Z</time>
      </trkpt>
      <trkpt lat="44.25436" lon="5.87781">
        <ele>570</ele>
        <time>2019-08-17T09:03:07Z</time>
      </trkpt>
      <trkpt lat="44.25434" lon="5.87777">
        <ele>570</ele>
        <time>2019-08-17T09:03:08Z</time>
      </trkpt>
      <trkpt lat="44.25433" lon="5.87772">
        <ele>570</ele>
        <time>2019-08-17T09:03:09Z</time>
      </trkpt>
      <trkpt lat="44.25432" lon="5.87768">
        <ele>570</ele>
        <time>2019-08-17T09:03:10Z</time>
      </trkpt>
      <trkpt lat="44.25431" lon="5.87764">
        <ele>570</ele>
        <time>2019-08-17T09:03:11Z</time>
      </trkpt>
      <trkpt lat="44.25429" lon="5.87759">
        <ele>571</ele>
        <time>2019-08-17T09:03:12Z</time>
      </trkpt>
      <trkpt lat="44.25427" lon="5.87754">
        <ele>571</ele>
        <time>2019-08-17T09:03:13Z</time>
      </trkpt>
      <trkpt lat="44.25426" lon="5.8775">
        <ele>571</ele>
        <time>2019-08-17T09:03:14Z</time>
      </trkpt>
      <trkpt lat="44.25424" lon="5.87745">
        <ele>571</ele>
        <time>2019-08-17T09:03:15Z</time>
      </trkpt>
      <trkpt lat="44.25422" lon="5.87741">
        <ele>571</ele>
        <time>2019-08-17T09:03:16Z</time>
      </trkpt>
      <trkpt lat="44.2542" lon="5.87736">
        <ele>571</ele>
        <time>2019-08-17T09:03:17Z</time>
      </trkpt>
      <trkpt lat="44.25418" lon="5.87732">
        <ele>571</ele>
        <time>2019-08-17T09:03:18Z</time>
      </trkpt>
      <trkpt lat="44.25417" lon="5.87727">
        <ele>571</ele>
        <time>2019-08-17T09:03:19Z</time>
      </trkpt>
      <trkpt lat="44.25415" lon="5.87723">
        <ele>571</ele>
        <time>2019-08-17T09:03:20Z</time>
      </trkpt>
      <trkpt lat="44.25413" lon="5.87718">
        <ele>571</ele>
        <time>2019-08-17T09:03:21Z</time>
      </trkpt>
      <trkpt lat="44.25411" lon="5.87714">
        <ele>571</ele>
        <time>2019-08-17T09:03:22Z</time>
      </trkpt>
      <trkpt lat="44.25409" lon="5.87709">
        <ele>571</ele>
        <time>2019-08-17T09:03:23Z</time>
      </trkpt>
      <trkpt lat="44.25407" lon="5.87704">
        <ele>572</ele>
        <time>2019-08-17T09:03:24Z</time>
      </trkpt>
      <trkpt lat="44.25404" lon="5.877">
        <ele>572</ele>
        <time>2019-08-17T09:03:25Z</time>
      </trkpt>
      <trkpt lat="44.25402" lon="5.87695">
        <ele>572</ele>
        <time>2019-08-17T09:03:26Z</time>
      </trkpt>
      <trkpt lat="44.25399" lon="5.8769">
        <ele>572</ele>
        <time>2019-08-17T09:03:27Z</time>
      </trkpt>
      <trkpt lat="44.25397" lon="5.87686">
        <ele>572</ele>
        <time>2019-08-17T09:03:28Z</time>
      </trkpt>
      <trkpt lat="44.25395" lon="5.87681">
        <ele>572</ele>
        <time>2019-08-17T09:03:29Z</time>
      </trkpt>
      <trkpt lat="44.25393" lon="5.87676">
        <ele>572</ele>
        <time>2019-08-17T09:03:30Z</time>
      </trkpt>
      <trkpt lat="44.2539" lon="5.87672">
        <ele>572</ele>
        <time>2019-08-17T09:03:31Z</time>
      </trkpt>
      <trkpt lat="44.25388" lon="5.87667">
        <ele>572</ele>
        <time>2019-08-17T09:03:32Z</time>
      </trkpt>
      <trkpt lat="44.25386" lon="5.87663">
        <ele>572</ele>
        <time>2019-08-17T09:03:33Z</time>
      </trkpt>
      <trkpt lat="44.25383" lon="5.87657">
        <ele>572</ele>
        <time>2019-08-17T09:03:34Z</time>
      </trkpt>
      <trkpt lat="44.25381" lon="5.87653">
        <ele>572</ele>
        <time>2019-08-17T09:03:35Z</time>
      </trkpt>
      <trkpt lat="44.25379" lon="5.87648">
        <ele>572</ele>
        <time>2019-08-17T09:03:36Z</time>
      </trkpt>
      <trkpt lat="44.25377" lon="5.87643">
        <ele>572</ele>
        <time>2019-08-17T09:03:37Z</time>
      </trkpt>
      <trkpt lat="44.25374" lon="5.87638">
        <ele>572</ele>
        <time>2019-08-17T09:03:38Z</time>
      </trkpt>
      <trkpt lat="44.25373" lon="5.87633">
        <ele>572</ele>
        <time>2019-08-17T09:03:39Z</time>
      </trkpt>
      <trkpt lat="44.25371" lon="5.87629">
        <ele>572</ele>
        <time>2019-08-17T09:03:40Z</time>
      </trkpt>
      <trkpt lat="44.2537" lon="5.87625">
        <ele>572</ele>
        <time>2019-08-17T09:03:41Z</time>
      </trkpt>
      <trkpt lat="44.25368" lon="5.87621">
        <ele>572</ele>
        <time>2019-08-17T09:03:42Z</time>
      </trkpt>
      <trkpt lat="44.25366" lon="5.87619">
        <ele>572</ele>
        <time>2019-08-17T09:03:43Z</time>
      </trkpt>
      <trkpt lat="44.25365" lon="5.87617">
        <ele>572</ele>
        <time>2019-08-17T09:03:44Z</time>
      </trkpt>
      <trkpt lat="44.25363" lon="5.87615">
        <ele>572</ele>
        <time>2019-08-17T09:03:45Z</time>
      </trkpt>
      <trkpt lat="44.25362" lon="5.87614">
        <ele>572</ele>
        <time>2019-08-17T09:03:46Z</time>
      </trkpt>
      <trkpt lat="44.25361" lon="5.87611">
        <ele>572</ele>
        <time>2019-08-17T09:03:47Z</time>
      </trkpt>
      <trkpt lat="44.25359" lon="5.87608">
        <ele>572</ele>
        <time>2019-08-17T09:03:48Z</time>
      </trkpt>
      <trkpt lat="44.25357" lon="5.87605">
        <ele>572</ele>
        <time>2019-08-17T09:03:49Z</time>
      </trkpt>
      <trkpt lat="44.25357" lon="5.87604">
        <ele>572</ele>
        <time>2019-08-17T09:03:50Z</time>
      </trkpt>
      <trkpt lat="44.25356" lon="5.87602">
        <ele>572</ele>
        <time>2019-08-17T09:03:52Z</time>
      </trkpt>
      <trkpt lat="44.25355" lon="5.876">
        <ele>572</ele>
        <time>2019-08-17T09:03:56Z</time>
      </trkpt>
      <trkpt lat="44.25356" lon="5.87598">
        <ele>572</ele>
        <time>2019-08-17T09:03:59Z</time>
      </trkpt>
      <trkpt lat="44.25355" lon="5.87595">
        <ele>572</ele>
        <time>2019-08-17T09:04:00Z</time>
      </trkpt>
      <trkpt lat="44.25354" lon="5.87593">
        <ele>572</ele>
        <time>2019-08-17T09:04:01Z</time>
      </trkpt>
      <trkpt lat="44.25352" lon="5.87591">
        <ele>572</ele>
        <time>2019-08-17T09:04:02Z</time>
      </trkpt>
      <trkpt lat="44.2535" lon="5.87589">
        <ele>572</ele>
        <time>2019-08-17T09:04:03Z</time>
      </trkpt>
      <trkpt lat="44.25347" lon="5.87586">
        <ele>572</ele>
        <time>2019-08-17T09:04:04Z</time>
      </trkpt>
      <trkpt lat="44.25343" lon="5.87584">
        <ele>572</ele>
        <time>2019-08-17T09:04:05Z</time>
      </trkpt>
      <trkpt lat="44.2534" lon="5.87581">
        <ele>572</ele>
        <time>2019-08-17T09:04:06Z</time>
      </trkpt>
      <trkpt lat="44.25337" lon="5.87578">
        <ele>572</ele>
        <time>2019-08-17T09:04:07Z</time>
      </trkpt>
      <trkpt lat="44.25334" lon="5.87574">
        <ele>572</ele>
        <time>2019-08-17T09:04:08Z</time>
      </trkpt>
      <trkpt lat="44.2533" lon="5.87569">
        <ele>572</ele>
        <time>2019-08-17T09:04:09Z</time>
      </trkpt>
      <trkpt lat="44.25327" lon="5.87565">
        <ele>572</ele>
        <time>2019-08-17T09:04:10Z</time>
      </trkpt>
      <trkpt lat="44.25323" lon="5.8756">
        <ele>572</ele>
        <time>2019-08-17T09:04:11Z</time>
      </trkpt>
      <trkpt lat="44.25319" lon="5.87556">
        <ele>572</ele>
        <time>2019-08-17T09:04:12Z</time>
      </trkpt>
      <trkpt lat="44.25315" lon="5.87551">
        <ele>572</ele>
        <time>2019-08-17T09:04:13Z</time>
      </trkpt>
      <trkpt lat="44.25311" lon="5.87546">
        <ele>572</ele>
        <time>2019-08-17T09:04:14Z</time>
      </trkpt>
      <trkpt lat="44.25306" lon="5.87541">
        <ele>572</ele>
        <time>2019-08-17T09:04:15Z</time>
      </trkpt>
      <trkpt lat="44.25302" lon="5.87537">
        <ele>572</ele>
        <time>2019-08-17T09:04:16Z</time>
      </trkpt>
      <trkpt lat="44.25297" lon="5.87532">
        <ele>572</ele>
        <time>2019-08-17T09:04:17Z</time>
      </trkpt>
      <trkpt lat="44.25293" lon="5.87527">
        <ele>572</ele>
        <time>2019-08-17T09:04:18Z</time>
      </trkpt>
      <trkpt lat="44.25288" lon="5.87522">
        <ele>572</ele>
        <time>2019-08-17T09:04:19Z</time>
      </trkpt>
      <trkpt lat="44.25284" lon="5.87516">
        <ele>572</ele>
        <time>2019-08-17T09:04:20Z</time>
      </trkpt>
      <trkpt lat="44.25279" lon="5.87511">
        <ele>572</ele>
        <time>2019-08-17T09:04:21Z</time>
      </trkpt>
      <trkpt lat="44.25275" lon="5.87506">
        <ele>572</ele>
        <time>2019-08-17T09:04:22Z</time>
      </trkpt>
      <trkpt lat="44.2527" lon="5.875">
        <ele>572</ele>
        <time>2019-08-17T09:04:23Z</time>
      </trkpt>
      <trkpt lat="44.25264" lon="5.87494">
        <ele>572</ele>
        <time>2019-08-17T09:04:24Z</time>
      </trkpt>
      <trkpt lat="44.2526" lon="5.87489">
        <ele>572</ele>
        <time>2019-08-17T09:04:25Z</time>
      </trkpt>
      <trkpt lat="44.25254" lon="5.87483">
        <ele>572</ele>
        <time>2019-08-17T09:04:26Z</time>
      </trkpt>
      <trkpt lat="44.2525" lon="5.87478">
        <ele>572</ele>
        <time>2019-08-17T09:04:27Z</time>
      </trkpt>
      <trkpt lat="44.25245" lon="5.87472">
        <ele>572</ele>
        <time>2019-08-17T09:04:28Z</time>
      </trkpt>
      <trkpt lat="44.2524" lon="5.87466">
        <ele>572</ele>
        <time>2019-08-17T09:04:29Z</time>
      </trkpt>
      <trkpt lat="44.25235" lon="5.8746">
        <ele>572</ele>
        <time>2019-08-17T09:04:30Z</time>
      </trkpt>
      <trkpt lat="44.2523" lon="5.87454">
        <ele>572</ele>
        <time>2019-08-17T09:04:31Z</time>
      </trkpt>
      <trkpt lat="44.25225" lon="5.87449">
        <ele>572</ele>
        <time>2019-08-17T09:04:32Z</time>
      </trkpt>
      <trkpt lat="44.25221" lon="5.87443">
        <ele>572</ele>
        <time>2019-08-17T09:04:33Z</time>
      </trkpt>
      <trkpt lat="44.25216" lon="5.87437">
        <ele>572</ele>
        <time>2019-08-17T09:04:34Z</time>
      </trkpt>
      <trkpt lat="44.25211" lon="5.87432">
        <ele>572</ele>
        <time>2019-08-17T09:04:35Z</time>
      </trkpt>
      <trkpt lat="44.25207" lon="5.87428">
        <ele>572</ele>
        <time>2019-08-17T09:04:36Z</time>
      </trkpt>
      <trkpt lat="44.25203" lon="5.87423">
        <ele>572</ele>
        <time>2019-08-17T09:04:37Z</time>
      </trkpt>
      <trkpt lat="44.25198" lon="5.87419">
        <ele>572</ele>
        <time>2019-08-17T09:04:38Z</time>
      </trkpt>
      <trkpt lat="44.25195" lon="5.87414">
        <ele>572</ele>
        <time>2019-08-17T09:04:39Z</time>
      </trkpt>
      <trkpt lat="44.2519" lon="5.8741">
        <ele>572</ele>
        <time>2019-08-17T09:04:40Z</time>
      </trkpt>
      <trkpt lat="44.25186" lon="5.87405">
        <ele>572</ele>
        <time>2019-08-17T09:04:41Z</time>
      </trkpt>
      <trkpt lat="44.25182" lon="5.874">
        <ele>572</ele>
        <time>2019-08-17T09:04:42Z</time>
      </trkpt>
      <trkpt lat="44.25178" lon="5.87396">
        <ele>572</ele>
        <time>2019-08-17T09:04:43Z</time>
      </trkpt>
      <trkpt lat="44.25174" lon="5.87392">
        <ele>572</ele>
        <time>2019-08-17T09:04:44Z</time>
      </trkpt>
      <trkpt lat="44.25171" lon="5.87387">
        <ele>572</ele>
        <time>2019-08-17T09:04:45Z</time>
      </trkpt>
      <trkpt lat="44.25167" lon="5.87383">
        <ele>572</ele>
        <time>2019-08-17T09:04:46Z</time>
      </trkpt>
      <trkpt lat="44.25164" lon="5.87379">
        <ele>572</ele>
        <time>2019-08-17T09:04:47Z</time>
      </trkpt>
      <trkpt lat="44.25161" lon="5.87375">
        <ele>572</ele>
        <time>2019-08-17T09:04:48Z</time>
      </trkpt>
      <trkpt lat="44.25158" lon="5.87371">
        <ele>573</ele>
        <time>2019-08-17T09:04:49Z</time>
      </trkpt>
      <trkpt lat="44.25154" lon="5.87367">
        <ele>573</ele>
        <time>2019-08-17T09:04:50Z</time>
      </trkpt>
      <trkpt lat="44.25151" lon="5.87363">
        <ele>573</ele>
        <time>2019-08-17T09:04:51Z</time>
      </trkpt>
      <trkpt lat="44.25147" lon="5.87359">
        <ele>573</ele>
        <time>2019-08-17T09:04:52Z</time>
      </trkpt>
      <trkpt lat="44.25144" lon="5.87355">
        <ele>574</ele>
        <time>2019-08-17T09:04:53Z</time>
      </trkpt>
      <trkpt lat="44.25141" lon="5.87352">
        <ele>574</ele>
        <time>2019-08-17T09:04:54Z</time>
      </trkpt>
      <trkpt lat="44.25138" lon="5.87348">
        <ele>574</ele>
        <time>2019-08-17T09:04:55Z</time>
      </trkpt>
      <trkpt lat="44.25135" lon="5.87344">
        <ele>574</ele>
        <time>2019-08-17T09:04:56Z</time>
      </trkpt>
      <trkpt lat="44.25132" lon="5.8734">
        <ele>575</ele>
        <time>2019-08-17T09:04:57Z</time>
      </trkpt>
      <trkpt lat="44.25129" lon="5.87337">
        <ele>575</ele>
        <time>2019-08-17T09:04:58Z</time>
      </trkpt>
      <trkpt lat="44.25125" lon="5.87333">
        <ele>575</ele>
        <time>2019-08-17T09:04:59Z</time>
      </trkpt>
      <trkpt lat="44.25122" lon="5.87329">
        <ele>575</ele>
        <time>2019-08-17T09:05:00Z</time>
      </trkpt>
      <trkpt lat="44.25119" lon="5.87325">
        <ele>575</ele>
        <time>2019-08-17T09:05:01Z</time>
      </trkpt>
      <trkpt lat="44.25116" lon="5.87321">
        <ele>576</ele>
        <time>2019-08-17T09:05:02Z</time>
      </trkpt>
      <trkpt lat="44.25113" lon="5.87316">
        <ele>576</ele>
        <time>2019-08-17T09:05:03Z</time>
      </trkpt>
      <trkpt lat="44.25111" lon="5.87311">
        <ele>576</ele>
        <time>2019-08-17T09:05:04Z</time>
      </trkpt>
      <trkpt lat="44.25108" lon="5.87306">
        <ele>576</ele>
        <time>2019-08-17T09:05:05Z</time>
      </trkpt>
      <trkpt lat="44.25105" lon="5.87301">
        <ele>576</ele>
        <time>2019-08-17T09:05:06Z</time>
      </trkpt>
      <trkpt lat="44.25103" lon="5.87296">
        <ele>576</ele>
        <time>2019-08-17T09:05:07Z</time>
      </trkpt>
      <trkpt lat="44.251" lon="5.87291">
        <ele>576</ele>
        <time>2019-08-17T09:05:08Z</time>
      </trkpt>
      <trkpt lat="44.25097" lon="5.87287">
        <ele>576</ele>
        <time>2019-08-17T09:05:09Z</time>
      </trkpt>
      <trkpt lat="44.25094" lon="5.87282">
        <ele>577</ele>
        <time>2019-08-17T09:05:10Z</time>
      </trkpt>
      <trkpt lat="44.25092" lon="5.87276">
        <ele>577</ele>
        <time>2019-08-17T09:05:11Z</time>
      </trkpt>
      <trkpt lat="44.25089" lon="5.87271">
        <ele>577</ele>
        <time>2019-08-17T09:05:12Z</time>
      </trkpt>
      <trkpt lat="44.25086" lon="5.87266">
        <ele>577</ele>
        <time>2019-08-17T09:05:13Z</time>
      </trkpt>
      <trkpt lat="44.25083" lon="5.87261">
        <ele>577</ele>
        <time>2019-08-17T09:05:14Z</time>
      </trkpt>
      <trkpt lat="44.2508" lon="5.87255">
        <ele>577</ele>
        <time>2019-08-17T09:05:15Z</time>
      </trkpt>
      <trkpt lat="44.25077" lon="5.8725">
        <ele>577</ele>
        <time>2019-08-17T09:05:16Z</time>
      </trkpt>
      <trkpt lat="44.25074" lon="5.87245">
        <ele>577</ele>
        <time>2019-08-17T09:05:17Z</time>
      </trkpt>
      <trkpt lat="44.25071" lon="5.8724">
        <ele>577</ele>
        <time>2019-08-17T09:05:18Z</time>
      </trkpt>
      <trkpt lat="44.25069" lon="5.87234">
        <ele>577</ele>
        <time>2019-08-17T09:05:19Z</time>
      </trkpt>
      <trkpt lat="44.25066" lon="5.87229">
        <ele>577</ele>
        <time>2019-08-17T09:05:20Z</time>
      </trkpt>
      <trkpt lat="44.25063" lon="5.87223">
        <ele>577</ele>
        <time>2019-08-17T09:05:21Z</time>
      </trkpt>
      <trkpt lat="44.2506" lon="5.87218">
        <ele>577</ele>
        <time>2019-08-17T09:05:22Z</time>
      </trkpt>
      <trkpt lat="44.25056" lon="5.87212">
        <ele>577</ele>
        <time>2019-08-17T09:05:23Z</time>
      </trkpt>
      <trkpt lat="44.25053" lon="5.87206">
        <ele>577</ele>
        <time>2019-08-17T09:05:24Z</time>
      </trkpt>
      <trkpt lat="44.2505" lon="5.872">
        <ele>577</ele>
        <time>2019-08-17T09:05:25Z</time>
      </trkpt>
      <trkpt lat="44.25046" lon="5.87194">
        <ele>577</ele>
        <time>2019-08-17T09:05:26Z</time>
      </trkpt>
      <trkpt lat="44.25043" lon="5.87188">
        <ele>577</ele>
        <time>2019-08-17T09:05:27Z</time>
      </trkpt>
      <trkpt lat="44.25039" lon="5.87181">
        <ele>577</ele>
        <time>2019-08-17T09:05:28Z</time>
      </trkpt>
      <trkpt lat="44.25036" lon="5.87174">
        <ele>577</ele>
        <time>2019-08-17T09:05:29Z</time>
      </trkpt>
      <trkpt lat="44.25032" lon="5.87167">
        <ele>577</ele>
        <time>2019-08-17T09:05:30Z</time>
      </trkpt>
      <trkpt lat="44.25028" lon="5.8716">
        <ele>577</ele>
        <time>2019-08-17T09:05:31Z</time>
      </trkpt>
      <trkpt lat="44.25024" lon="5.87152">
        <ele>577</ele>
        <time>2019-08-17T09:05:32Z</time>
      </trkpt>
      <trkpt lat="44.25019" lon="5.87144">
        <ele>577</ele>
        <time>2019-08-17T09:05:33Z</time>
      </trkpt>
      <trkpt lat="44.25014" lon="5.87136">
        <ele>577</ele>
        <time>2019-08-17T09:05:34Z</time>
      </trkpt>
      <trkpt lat="44.2501" lon="5.87127">
        <ele>577</ele>
        <time>2019-08-17T09:05:35Z</time>
      </trkpt>
      <trkpt lat="44.25005" lon="5.87118">
        <ele>577</ele>
        <time>2019-08-17T09:05:36Z</time>
      </trkpt>
      <trkpt lat="44.24999" lon="5.8711">
        <ele>577</ele>
        <time>2019-08-17T09:05:37Z</time>
      </trkpt>
      <trkpt lat="44.24993" lon="5.87102">
        <ele>577</ele>
        <time>2019-08-17T09:05:38Z</time>
      </trkpt>
      <trkpt lat="44.24986" lon="5.87095">
        <ele>576</ele>
        <time>2019-08-17T09:05:39Z</time>
      </trkpt>
      <trkpt lat="44.24978" lon="5.87089">
        <ele>576</ele>
        <time>2019-08-17T09:05:40Z</time>
      </trkpt>
      <trkpt lat="44.24969" lon="5.87085">
        <ele>575</ele>
        <time>2019-08-17T09:05:41Z</time>
      </trkpt>
      <trkpt lat="44.24961" lon="5.87083">
        <ele>575</ele>
        <time>2019-08-17T09:05:42Z</time>
      </trkpt>
      <trkpt lat="44.24952" lon="5.87082">
        <ele>574</ele>
        <time>2019-08-17T09:05:43Z</time>
      </trkpt>
      <trkpt lat="44.24944" lon="5.87081">
        <ele>574</ele>
        <time>2019-08-17T09:05:44Z</time>
      </trkpt>
      <trkpt lat="44.24936" lon="5.87079">
        <ele>574</ele>
        <time>2019-08-17T09:05:45Z</time>
      </trkpt>
      <trkpt lat="44.24929" lon="5.87079">
        <ele>574</ele>
        <time>2019-08-17T09:05:46Z</time>
      </trkpt>
      <trkpt lat="44.24921" lon="5.87077">
        <ele>574</ele>
        <time>2019-08-17T09:05:47Z</time>
      </trkpt>
      <trkpt lat="44.24914" lon="5.87075">
        <ele>574</ele>
        <time>2019-08-17T09:05:48Z</time>
      </trkpt>
      <trkpt lat="44.24907" lon="5.87072">
        <ele>574</ele>
        <time>2019-08-17T09:05:49Z</time>
      </trkpt>
      <trkpt lat="44.24901" lon="5.8707">
        <ele>574</ele>
        <time>2019-08-17T09:05:50Z</time>
      </trkpt>
      <trkpt lat="44.24894" lon="5.87067">
        <ele>574</ele>
        <time>2019-08-17T09:05:51Z</time>
      </trkpt>
      <trkpt lat="44.24888" lon="5.87064">
        <ele>574</ele>
        <time>2019-08-17T09:05:52Z</time>
      </trkpt>
      <trkpt lat="44.24882" lon="5.87061">
        <ele>574</ele>
        <time>2019-08-17T09:05:53Z</time>
      </trkpt>
      <trkpt lat="44.24876" lon="5.87057">
        <ele>574</ele>
        <time>2019-08-17T09:05:54Z</time>
      </trkpt>
      <trkpt lat="44.24869" lon="5.87054">
        <ele>574</ele>
        <time>2019-08-17T09:05:55Z</time>
      </trkpt>
      <trkpt lat="44.24863" lon="5.87051">
        <ele>574</ele>
        <time>2019-08-17T09:05:56Z</time>
      </trkpt>
      <trkpt lat="44.24857" lon="5.87048">
        <ele>574</ele>
        <time>2019-08-17T09:05:57Z</time>
      </trkpt>
      <trkpt lat="44.2485" lon="5.87045">
        <ele>574</ele>
        <time>2019-08-17T09:05:58Z</time>
      </trkpt>
      <trkpt lat="44.24844" lon="5.87042">
        <ele>574</ele>
        <time>2019-08-17T09:05:59Z</time>
      </trkpt>
      <trkpt lat="44.24838" lon="5.87038">
        <ele>574</ele>
        <time>2019-08-17T09:06:00Z</time>
      </trkpt>
      <trkpt lat="44.24832" lon="5.87035">
        <ele>574</ele>
        <time>2019-08-17T09:06:01Z</time>
      </trkpt>
      <trkpt lat="44.24826" lon="5.87032">
        <ele>574</ele>
        <time>2019-08-17T09:06:02Z</time>
      </trkpt>
      <trkpt lat="44.2482" lon="5.87029">
        <ele>574</ele>
        <time>2019-08-17T09:06:03Z</time>
      </trkpt>
      <trkpt lat="44.24815" lon="5.87025">
        <ele>574</ele>
        <time>2019-08-17T09:06:04Z</time>
      </trkpt>
      <trkpt lat="44.24809" lon="5.87022">
        <ele>574</ele>
        <time>2019-08-17T09:06:05Z</time>
      </trkpt>
      <trkpt lat="44.24803" lon="5.87019">
        <ele>574</ele>
        <time>2019-08-17T09:06:06Z</time>
      </trkpt>
      <trkpt lat="44.24797" lon="5.87016">
        <ele>574</ele>
        <time>2019-08-17T09:06:07Z</time>
      </trkpt>
      <trkpt lat="44.24791" lon="5.87013">
        <ele>574</ele>
        <time>2019-08-17T09:06:08Z</time>
      </trkpt>
      <trkpt lat="44.24784" lon="5.87011">
        <ele>574</ele>
        <time>2019-08-17T09:06:09Z</time>
      </trkpt>
      <trkpt lat="44.24778" lon="5.87008">
        <ele>574</ele>
        <time>2019-08-17T09:06:10Z</time>
      </trkpt>
      <trkpt lat="44.24771" lon="5.87004">
        <ele>574</ele>
        <time>2019-08-17T09:06:11Z</time>
      </trkpt>
      <trkpt lat="44.24765" lon="5.87002">
        <ele>574</ele>
        <time>2019-08-17T09:06:12Z</time>
      </trkpt>
      <trkpt lat="44.24759" lon="5.87">
        <ele>574</ele>
        <time>2019-08-17T09:06:13Z</time>
      </trkpt>
      <trkpt lat="44.24752" lon="5.86999">
        <ele>574</ele>
        <time>2019-08-17T09:06:14Z</time>
      </trkpt>
      <trkpt lat="44.24746" lon="5.86998">
        <ele>574</ele>
        <time>2019-08-17T09:06:15Z</time>
      </trkpt>
      <trkpt lat="44.24739" lon="5.86998">
        <ele>574</ele>
        <time>2019-08-17T09:06:16Z</time>
      </trkpt>
      <trkpt lat="44.24733" lon="5.86999">
        <ele>574</ele>
        <time>2019-08-17T09:06:17Z</time>
      </trkpt>
      <trkpt lat="44.24728" lon="5.87001">
        <ele>574</ele>
        <time>2019-08-17T09:06:18Z</time>
      </trkpt>
      <trkpt lat="44.24722" lon="5.87003">
        <ele>574</ele>
        <time>2019-08-17T09:06:19Z</time>
      </trkpt>
      <trkpt lat="44.24717" lon="5.87005">
        <ele>574</ele>
        <time>2019-08-17T09:06:20Z</time>
      </trkpt>
      <trkpt lat="44.24711" lon="5.87007">
        <ele>574</ele>
        <time>2019-08-17T09:06:21Z</time>
      </trkpt>
      <trkpt lat="44.24706" lon="5.87008">
        <ele>574</ele>
        <time>2019-08-17T09:06:22Z</time>
      </trkpt>
      <trkpt lat="44.247" lon="5.87011">
        <ele>574</ele>
        <time>2019-08-17T09:06:23Z</time>
      </trkpt>
      <trkpt lat="44.24694" lon="5.87012">
        <ele>574</ele>
        <time>2019-08-17T09:06:24Z</time>
      </trkpt>
      <trkpt lat="44.24688" lon="5.87013">
        <ele>574</ele>
        <time>2019-08-17T09:06:25Z</time>
      </trkpt>
      <trkpt lat="44.24682" lon="5.87013">
        <ele>574</ele>
        <time>2019-08-17T09:06:26Z</time>
      </trkpt>
      <trkpt lat="44.24676" lon="5.87011">
        <ele>574</ele>
        <time>2019-08-17T09:06:27Z</time>
      </trkpt>
      <trkpt lat="44.2467" lon="5.87008">
        <ele>574</ele>
        <time>2019-08-17T09:06:28Z</time>
      </trkpt>
      <trkpt lat="44.24664" lon="5.87003">
        <ele>574</ele>
        <time>2019-08-17T09:06:29Z</time>
      </trkpt>
      <trkpt lat="44.24659" lon="5.86998">
        <ele>574</ele>
        <time>2019-08-17T09:06:30Z</time>
      </trkpt>
      <trkpt lat="44.24654" lon="5.86992">
        <ele>574</ele>
        <time>2019-08-17T09:06:31Z</time>
      </trkpt>
      <trkpt lat="44.24649" lon="5.86985">
        <ele>574</ele>
        <time>2019-08-17T09:06:32Z</time>
      </trkpt>
      <trkpt lat="44.24645" lon="5.86979">
        <ele>574</ele>
        <time>2019-08-17T09:06:33Z</time>
      </trkpt>
      <trkpt lat="44.2464" lon="5.86972">
        <ele>574</ele>
        <time>2019-08-17T09:06:34Z</time>
      </trkpt>
      <trkpt lat="44.24636" lon="5.86966">
        <ele>574</ele>
        <time>2019-08-17T09:06:35Z</time>
      </trkpt>
      <trkpt lat="44.24631" lon="5.8696">
        <ele>574</ele>
        <time>2019-08-17T09:06:36Z</time>
      </trkpt>
      <trkpt lat="44.24627" lon="5.86954">
        <ele>574</ele>
        <time>2019-08-17T09:06:37Z</time>
      </trkpt>
      <trkpt lat="44.24622" lon="5.86948">
        <ele>573</ele>
        <time>2019-08-17T09:06:38Z</time>
      </trkpt>
      <trkpt lat="44.24616" lon="5.86943">
        <ele>573</ele>
        <time>2019-08-17T09:06:39Z</time>
      </trkpt>
      <trkpt lat="44.24611" lon="5.86939">
        <ele>573</ele>
        <time>2019-08-17T09:06:40Z</time>
      </trkpt>
      <trkpt lat="44.24605" lon="5.86936">
        <ele>573</ele>
        <time>2019-08-17T09:06:41Z</time>
      </trkpt>
      <trkpt lat="44.24599" lon="5.86933">
        <ele>572</ele>
        <time>2019-08-17T09:06:42Z</time>
      </trkpt>
      <trkpt lat="44.24592" lon="5.86932">
        <ele>572</ele>
        <time>2019-08-17T09:06:43Z</time>
      </trkpt>
      <trkpt lat="44.24585" lon="5.86932">
        <ele>572</ele>
        <time>2019-08-17T09:06:44Z</time>
      </trkpt>
      <trkpt lat="44.24578" lon="5.86932">
        <ele>572</ele>
        <time>2019-08-17T09:06:45Z</time>
      </trkpt>
      <trkpt lat="44.2457" lon="5.86933">
        <ele>572</ele>
        <time>2019-08-17T09:06:46Z</time>
      </trkpt>
      <trkpt lat="44.24563" lon="5.86934">
        <ele>572</ele>
        <time>2019-08-17T09:06:47Z</time>
      </trkpt>
      <trkpt lat="44.24555" lon="5.86937">
        <ele>572</ele>
        <time>2019-08-17T09:06:48Z</time>
      </trkpt>
      <trkpt lat="44.24547" lon="5.86941">
        <ele>571</ele>
        <time>2019-08-17T09:06:49Z</time>
      </trkpt>
      <trkpt lat="44.2454" lon="5.86946">
        <ele>570</ele>
        <time>2019-08-17T09:06:50Z</time>
      </trkpt>
      <trkpt lat="44.24531" lon="5.86951">
        <ele>570</ele>
        <time>2019-08-17T09:06:51Z</time>
      </trkpt>
      <trkpt lat="44.24522" lon="5.86954">
        <ele>569</ele>
        <time>2019-08-17T09:06:52Z</time>
      </trkpt>
      <trkpt lat="44.24514" lon="5.86958">
        <ele>568</ele>
        <time>2019-08-17T09:06:53Z</time>
      </trkpt>
      <trkpt lat="44.24506" lon="5.86962">
        <ele>567</ele>
        <time>2019-08-17T09:06:54Z</time>
      </trkpt>
      <trkpt lat="44.24497" lon="5.86965">
        <ele>566</ele>
        <time>2019-08-17T09:06:55Z</time>
      </trkpt>
      <trkpt lat="44.24488" lon="5.86966">
        <ele>566</ele>
        <time>2019-08-17T09:06:56Z</time>
      </trkpt>
      <trkpt lat="44.2448" lon="5.86966">
        <ele>565</ele>
        <time>2019-08-17T09:06:57Z</time>
      </trkpt>
      <trkpt lat="44.24471" lon="5.86964">
        <ele>565</ele>
        <time>2019-08-17T09:06:58Z</time>
      </trkpt>
      <trkpt lat="44.24461" lon="5.86961">
        <ele>564</ele>
        <time>2019-08-17T09:06:59Z</time>
      </trkpt>
      <trkpt lat="44.24452" lon="5.86959">
        <ele>564</ele>
        <time>2019-08-17T09:07:00Z</time>
      </trkpt>
      <trkpt lat="44.24442" lon="5.86957">
        <ele>563</ele>
        <time>2019-08-17T09:07:01Z</time>
      </trkpt>
      <trkpt lat="44.24432" lon="5.86956">
        <ele>563</ele>
        <time>2019-08-17T09:07:02Z</time>
      </trkpt>
      <trkpt lat="44.24423" lon="5.86955">
        <ele>563</ele>
        <time>2019-08-17T09:07:03Z</time>
      </trkpt>
      <trkpt lat="44.24414" lon="5.86954">
        <ele>562</ele>
        <time>2019-08-17T09:07:04Z</time>
      </trkpt>
      <trkpt lat="44.24405" lon="5.86952">
        <ele>561</ele>
        <time>2019-08-17T09:07:05Z</time>
      </trkpt>
      <trkpt lat="44.24396" lon="5.86951">
        <ele>561</ele>
        <time>2019-08-17T09:07:06Z</time>
      </trkpt>
      <trkpt lat="44.24386" lon="5.86948">
        <ele>560</ele>
        <time>2019-08-17T09:07:07Z</time>
      </trkpt>
      <trkpt lat="44.24376" lon="5.86946">
        <ele>559</ele>
        <time>2019-08-17T09:07:08Z</time>
      </trkpt>
      <trkpt lat="44.24366" lon="5.86942">
        <ele>559</ele>
        <time>2019-08-17T09:07:09Z</time>
      </trkpt>
      <trkpt lat="44.24356" lon="5.86938">
        <ele>558</ele>
        <time>2019-08-17T09:07:10Z</time>
      </trkpt>
      <trkpt lat="44.24346" lon="5.86935">
        <ele>558</ele>
        <time>2019-08-17T09:07:11Z</time>
      </trkpt>
      <trkpt lat="44.24336" lon="5.86932">
        <ele>557</ele>
        <time>2019-08-17T09:07:12Z</time>
      </trkpt>
      <trkpt lat="44.24326" lon="5.86929">
        <ele>556</ele>
        <time>2019-08-17T09:07:13Z</time>
      </trkpt>
      <trkpt lat="44.24316" lon="5.86925">
        <ele>556</ele>
        <time>2019-08-17T09:07:14Z</time>
      </trkpt>
      <trkpt lat="44.24305" lon="5.8692">
        <ele>555</ele>
        <time>2019-08-17T09:07:15Z</time>
      </trkpt>
      <trkpt lat="44.24295" lon="5.86915">
        <ele>554</ele>
        <time>2019-08-17T09:07:16Z</time>
      </trkpt>
      <trkpt lat="44.24284" lon="5.8691">
        <ele>553</ele>
        <time>2019-08-17T09:07:17Z</time>
      </trkpt>
      <trkpt lat="44.24274" lon="5.86905">
        <ele>553</ele>
        <time>2019-08-17T09:07:18Z</time>
      </trkpt>
      <trkpt lat="44.24263" lon="5.86899">
        <ele>552</ele>
        <time>2019-08-17T09:07:19Z</time>
      </trkpt>
      <trkpt lat="44.24253" lon="5.86892">
        <ele>551</ele>
        <time>2019-08-17T09:07:20Z</time>
      </trkpt>
      <trkpt lat="44.24244" lon="5.86884">
        <ele>550</ele>
        <time>2019-08-17T09:07:21Z</time>
      </trkpt>
      <trkpt lat="44.24234" lon="5.86876">
        <ele>549</ele>
        <time>2019-08-17T09:07:22Z</time>
      </trkpt>
      <trkpt lat="44.24225" lon="5.86869">
        <ele>549</ele>
        <time>2019-08-17T09:07:23Z</time>
      </trkpt>
      <trkpt lat="44.24216" lon="5.86861">
        <ele>548</ele>
        <time>2019-08-17T09:07:24Z</time>
      </trkpt>
      <trkpt lat="44.24207" lon="5.86854">
        <ele>547</ele>
        <time>2019-08-17T09:07:25Z</time>
      </trkpt>
      <trkpt lat="44.24199" lon="5.86846">
        <ele>547</ele>
        <time>2019-08-17T09:07:26Z</time>
      </trkpt>
      <trkpt lat="44.24191" lon="5.86838">
        <ele>546</ele>
        <time>2019-08-17T09:07:27Z</time>
      </trkpt>
      <trkpt lat="44.24182" lon="5.8683">
        <ele>545</ele>
        <time>2019-08-17T09:07:28Z</time>
      </trkpt>
      <trkpt lat="44.24175" lon="5.86821">
        <ele>544</ele>
        <time>2019-08-17T09:07:29Z</time>
      </trkpt>
      <trkpt lat="44.24169" lon="5.86812">
        <ele>544</ele>
        <time>2019-08-17T09:07:30Z</time>
      </trkpt>
      <trkpt lat="44.24164" lon="5.868">
        <ele>543</ele>
        <time>2019-08-17T09:07:31Z</time>
      </trkpt>
      <trkpt lat="44.24162" lon="5.86788">
        <ele>542</ele>
        <time>2019-08-17T09:07:32Z</time>
      </trkpt>
      <trkpt lat="44.2416" lon="5.86775">
        <ele>542</ele>
        <time>2019-08-17T09:07:33Z</time>
      </trkpt>
      <trkpt lat="44.24161" lon="5.86761">
        <ele>541</ele>
        <time>2019-08-17T09:07:34Z</time>
      </trkpt>
      <trkpt lat="44.24163" lon="5.86748">
        <ele>541</ele>
        <time>2019-08-17T09:07:35Z</time>
      </trkpt>
      <trkpt lat="44.24167" lon="5.86737">
        <ele>541</ele>
        <time>2019-08-17T09:07:36Z</time>
      </trkpt>
      <trkpt lat="44.24171" lon="5.86726">
        <ele>541</ele>
        <time>2019-08-17T09:07:37Z</time>
      </trkpt>
      <trkpt lat="44.24174" lon="5.86715">
        <ele>541</ele>
        <time>2019-08-17T09:07:38Z</time>
      </trkpt>
      <trkpt lat="44.24175" lon="5.86703">
        <ele>541</ele>
        <time>2019-08-17T09:07:39Z</time>
      </trkpt>
      <trkpt lat="44.24176" lon="5.86693">
        <ele>540</ele>
        <time>2019-08-17T09:07:40Z</time>
      </trkpt>
      <trkpt lat="44.24176" lon="5.86683">
        <ele>540</ele>
        <time>2019-08-17T09:07:41Z</time>
      </trkpt>
      <trkpt lat="44.24175" lon="5.86673">
        <ele>540</ele>
        <time>2019-08-17T09:07:42Z</time>
      </trkpt>
      <trkpt lat="44.24174" lon="5.86663">
        <ele>539</ele>
        <time>2019-08-17T09:07:43Z</time>
      </trkpt>
      <trkpt lat="44.24172" lon="5.86654">
        <ele>539</ele>
        <time>2019-08-17T09:07:44Z</time>
      </trkpt>
      <trkpt lat="44.24168" lon="5.86645">
        <ele>538</ele>
        <time>2019-08-17T09:07:45Z</time>
      </trkpt>
      <trkpt lat="44.24162" lon="5.86639">
        <ele>538</ele>
        <time>2019-08-17T09:07:46Z</time>
      </trkpt>
      <trkpt lat="44.24155" lon="5.86636">
        <ele>537</ele>
        <time>2019-08-17T09:07:47Z</time>
      </trkpt>
      <trkpt lat="44.24147" lon="5.86636">
        <ele>536</ele>
        <time>2019-08-17T09:07:48Z</time>
      </trkpt>
      <trkpt lat="44.24139" lon="5.86638">
        <ele>536</ele>
        <time>2019-08-17T09:07:49Z</time>
      </trkpt>
      <trkpt lat="44.24131" lon="5.86642">
        <ele>536</ele>
        <time>2019-08-17T09:07:50Z</time>
      </trkpt>
      <trkpt lat="44.24124" lon="5.86646">
        <ele>536</ele>
        <time>2019-08-17T09:07:51Z</time>
      </trkpt>
      <trkpt lat="44.24116" lon="5.8665">
        <ele>536</ele>
        <time>2019-08-17T09:07:52Z</time>
      </trkpt>
      <trkpt lat="44.24109" lon="5.86655">
        <ele>535</ele>
        <time>2019-08-17T09:07:53Z</time>
      </trkpt>
      <trkpt lat="44.24101" lon="5.8666">
        <ele>535</ele>
        <time>2019-08-17T09:07:54Z</time>
      </trkpt>
      <trkpt lat="44.24093" lon="5.86665">
        <ele>535</ele>
        <time>2019-08-17T09:07:55Z</time>
      </trkpt>
      <trkpt lat="44.24085" lon="5.86669">
        <ele>535</ele>
        <time>2019-08-17T09:07:56Z</time>
      </trkpt>
      <trkpt lat="44.24076" lon="5.86674">
        <ele>534</ele>
        <time>2019-08-17T09:07:58Z</time>
      </trkpt>
      <trkpt lat="44.24068" lon="5.86679">
        <ele>534</ele>
        <time>2019-08-17T09:07:58Z</time>
      </trkpt>
      <trkpt lat="44.2406" lon="5.86685">
        <ele>534</ele>
        <time>2019-08-17T09:07:59Z</time>
      </trkpt>
      <trkpt lat="44.24052" lon="5.86691">
        <ele>534</ele>
        <time>2019-08-17T09:08:00Z</time>
      </trkpt>
      <trkpt lat="44.24044" lon="5.86696">
        <ele>533</ele>
        <time>2019-08-17T09:08:01Z</time>
      </trkpt>
      <trkpt lat="44.24035" lon="5.86701">
        <ele>533</ele>
        <time>2019-08-17T09:08:02Z</time>
      </trkpt>
      <trkpt lat="44.24026" lon="5.86702">
        <ele>532</ele>
        <time>2019-08-17T09:08:03Z</time>
      </trkpt>
      <trkpt lat="44.24016" lon="5.86702">
        <ele>532</ele>
        <time>2019-08-17T09:08:04Z</time>
      </trkpt>
      <trkpt lat="44.24006" lon="5.86698">
        <ele>531</ele>
        <time>2019-08-17T09:08:05Z</time>
      </trkpt>
      <trkpt lat="44.23997" lon="5.86692">
        <ele>531</ele>
        <time>2019-08-17T09:08:06Z</time>
      </trkpt>
      <trkpt lat="44.23989" lon="5.86684">
        <ele>530</ele>
        <time>2019-08-17T09:08:07Z</time>
      </trkpt>
      <trkpt lat="44.23981" lon="5.86674">
        <ele>529</ele>
        <time>2019-08-17T09:08:08Z</time>
      </trkpt>
      <trkpt lat="44.23973" lon="5.86665">
        <ele>529</ele>
        <time>2019-08-17T09:08:09Z</time>
      </trkpt>
      <trkpt lat="44.23965" lon="5.86655">
        <ele>529</ele>
        <time>2019-08-17T09:08:10Z</time>
      </trkpt>
      <trkpt lat="44.23957" lon="5.86646">
        <ele>528</ele>
        <time>2019-08-17T09:08:11Z</time>
      </trkpt>
      <trkpt lat="44.23949" lon="5.86636">
        <ele>528</ele>
        <time>2019-08-17T09:08:12Z</time>
      </trkpt>
      <trkpt lat="44.23941" lon="5.86627">
        <ele>527</ele>
        <time>2019-08-17T09:08:13Z</time>
      </trkpt>
      <trkpt lat="44.23933" lon="5.86618">
        <ele>527</ele>
        <time>2019-08-17T09:08:14Z</time>
      </trkpt>
      <trkpt lat="44.23925" lon="5.86609">
        <ele>526</ele>
        <time>2019-08-17T09:08:15Z</time>
      </trkpt>
      <trkpt lat="44.23917" lon="5.866">
        <ele>526</ele>
        <time>2019-08-17T09:08:16Z</time>
      </trkpt>
      <trkpt lat="44.2391" lon="5.86591">
        <ele>525</ele>
        <time>2019-08-17T09:08:17Z</time>
      </trkpt>
      <trkpt lat="44.23902" lon="5.86582">
        <ele>525</ele>
        <time>2019-08-17T09:08:18Z</time>
      </trkpt>
      <trkpt lat="44.23894" lon="5.86573">
        <ele>524</ele>
        <time>2019-08-17T09:08:19Z</time>
      </trkpt>
      <trkpt lat="44.23886" lon="5.86564">
        <ele>524</ele>
        <time>2019-08-17T09:08:20Z</time>
      </trkpt>
      <trkpt lat="44.23878" lon="5.86555">
        <ele>523</ele>
        <time>2019-08-17T09:08:21Z</time>
      </trkpt>
      <trkpt lat="44.2387" lon="5.86546">
        <ele>522</ele>
        <time>2019-08-17T09:08:22Z</time>
      </trkpt>
      <trkpt lat="44.23862" lon="5.86536">
        <ele>522</ele>
        <time>2019-08-17T09:08:23Z</time>
      </trkpt>
      <trkpt lat="44.23854" lon="5.86527">
        <ele>521</ele>
        <time>2019-08-17T09:08:24Z</time>
      </trkpt>
      <trkpt lat="44.23846" lon="5.86517">
        <ele>520</ele>
        <time>2019-08-17T09:08:25Z</time>
      </trkpt>
      <trkpt lat="44.23837" lon="5.86508">
        <ele>519</ele>
        <time>2019-08-17T09:08:26Z</time>
      </trkpt>
      <trkpt lat="44.23829" lon="5.86499">
        <ele>519</ele>
        <time>2019-08-17T09:08:27Z</time>
      </trkpt>
      <trkpt lat="44.2382" lon="5.86489">
        <ele>518</ele>
        <time>2019-08-17T09:08:28Z</time>
      </trkpt>
      <trkpt lat="44.23811" lon="5.8648">
        <ele>517</ele>
        <time>2019-08-17T09:08:29Z</time>
      </trkpt>
      <trkpt lat="44.23802" lon="5.8647">
        <ele>516</ele>
        <time>2019-08-17T09:08:30Z</time>
      </trkpt>
      <trkpt lat="44.23793" lon="5.86459">
        <ele>515</ele>
        <time>2019-08-17T09:08:31Z</time>
      </trkpt>
      <trkpt lat="44.23784" lon="5.86449">
        <ele>514</ele>
        <time>2019-08-17T09:08:32Z</time>
      </trkpt>
      <trkpt lat="44.23775" lon="5.86438">
        <ele>513</ele>
        <time>2019-08-17T09:08:33Z</time>
      </trkpt>
      <trkpt lat="44.23766" lon="5.86427">
        <ele>512</ele>
        <time>2019-08-17T09:08:34Z</time>
      </trkpt>
      <trkpt lat="44.23756" lon="5.86417">
        <ele>511</ele>
        <time>2019-08-17T09:08:35Z</time>
      </trkpt>
      <trkpt lat="44.23748" lon="5.86407">
        <ele>511</ele>
        <time>2019-08-17T09:08:36Z</time>
      </trkpt>
      <trkpt lat="44.23739" lon="5.86397">
        <ele>510</ele>
        <time>2019-08-17T09:08:37Z</time>
      </trkpt>
      <trkpt lat="44.23731" lon="5.86387">
        <ele>510</ele>
        <time>2019-08-17T09:08:38Z</time>
      </trkpt>
      <trkpt lat="44.23723" lon="5.86378">
        <ele>509</ele>
        <time>2019-08-17T09:08:39Z</time>
      </trkpt>
      <trkpt lat="44.23715" lon="5.86369">
        <ele>509</ele>
        <time>2019-08-17T09:08:40Z</time>
      </trkpt>
      <trkpt lat="44.23708" lon="5.86361">
        <ele>509</ele>
        <time>2019-08-17T09:08:41Z</time>
      </trkpt>
      <trkpt lat="44.237" lon="5.86352">
        <ele>509</ele>
        <time>2019-08-17T09:08:42Z</time>
      </trkpt>
      <trkpt lat="44.23693" lon="5.86344">
        <ele>509</ele>
        <time>2019-08-17T09:08:43Z</time>
      </trkpt>
      <trkpt lat="44.23686" lon="5.86337">
        <ele>509</ele>
        <time>2019-08-17T09:08:44Z</time>
      </trkpt>
      <trkpt lat="44.23679" lon="5.8633">
        <ele>509</ele>
        <time>2019-08-17T09:08:45Z</time>
      </trkpt>
      <trkpt lat="44.23671" lon="5.86324">
        <ele>508</ele>
        <time>2019-08-17T09:08:46Z</time>
      </trkpt>
      <trkpt lat="44.23664" lon="5.8632">
        <ele>508</ele>
        <time>2019-08-17T09:08:47Z</time>
      </trkpt>
      <trkpt lat="44.23655" lon="5.86319">
        <ele>508</ele>
        <time>2019-08-17T09:08:48Z</time>
      </trkpt>
      <trkpt lat="44.23648" lon="5.86319">
        <ele>508</ele>
        <time>2019-08-17T09:08:49Z</time>
      </trkpt>
      <trkpt lat="44.2364" lon="5.86321">
        <ele>508</ele>
        <time>2019-08-17T09:08:50Z</time>
      </trkpt>
      <trkpt lat="44.23632" lon="5.86322">
        <ele>508</ele>
        <time>2019-08-17T09:08:51Z</time>
      </trkpt>
      <trkpt lat="44.23624" lon="5.86323">
        <ele>508</ele>
        <time>2019-08-17T09:08:52Z</time>
      </trkpt>
      <trkpt lat="44.23617" lon="5.86325">
        <ele>507</ele>
        <time>2019-08-17T09:08:53Z</time>
      </trkpt>
      <trkpt lat="44.2361" lon="5.86326">
        <ele>507</ele>
        <time>2019-08-17T09:08:54Z</time>
      </trkpt>
      <trkpt lat="44.23602" lon="5.86328">
        <ele>507</ele>
        <time>2019-08-17T09:08:55Z</time>
      </trkpt>
      <trkpt lat="44.23595" lon="5.86329">
        <ele>507</ele>
        <time>2019-08-17T09:08:56Z</time>
      </trkpt>
      <trkpt lat="44.23588" lon="5.86331">
        <ele>506</ele>
        <time>2019-08-17T09:08:57Z</time>
      </trkpt>
      <trkpt lat="44.23581" lon="5.86332">
        <ele>506</ele>
        <time>2019-08-17T09:08:58Z</time>
      </trkpt>
      <trkpt lat="44.23574" lon="5.86334">
        <ele>506</ele>
        <time>2019-08-17T09:08:59Z</time>
      </trkpt>
      <trkpt lat="44.23567" lon="5.86336">
        <ele>506</ele>
        <time>2019-08-17T09:09:00Z</time>
      </trkpt>
      <trkpt lat="44.2356" lon="5.86337">
        <ele>505</ele>
        <time>2019-08-17T09:09:01Z</time>
      </trkpt>
      <trkpt lat="44.23552" lon="5.86338">
        <ele>505</ele>
        <time>2019-08-17T09:09:02Z</time>
      </trkpt>
      <trkpt lat="44.23545" lon="5.86339">
        <ele>505</ele>
        <time>2019-08-17T09:09:03Z</time>
      </trkpt>
      <trkpt lat="44.23539" lon="5.86339">
        <ele>505</ele>
        <time>2019-08-17T09:09:04Z</time>
      </trkpt>
      <trkpt lat="44.23532" lon="5.86337">
        <ele>505</ele>
        <time>2019-08-17T09:09:05Z</time>
      </trkpt>
      <trkpt lat="44.23525" lon="5.86335">
        <ele>505</ele>
        <time>2019-08-17T09:09:06Z</time>
      </trkpt>
      <trkpt lat="44.23518" lon="5.86332">
        <ele>505</ele>
        <time>2019-08-17T09:09:07Z</time>
      </trkpt>
      <trkpt lat="44.23512" lon="5.86329">
        <ele>505</ele>
        <time>2019-08-17T09:09:08Z</time>
      </trkpt>
      <trkpt lat="44.23506" lon="5.86326">
        <ele>505</ele>
        <time>2019-08-17T09:09:09Z</time>
      </trkpt>
      <trkpt lat="44.235" lon="5.86323">
        <ele>505</ele>
        <time>2019-08-17T09:09:10Z</time>
      </trkpt>
      <trkpt lat="44.23494" lon="5.8632">
        <ele>505</ele>
        <time>2019-08-17T09:09:11Z</time>
      </trkpt>
      <trkpt lat="44.23489" lon="5.86316">
        <ele>505</ele>
        <time>2019-08-17T09:09:12Z</time>
      </trkpt>
      <trkpt lat="44.23485" lon="5.86311">
        <ele>505</ele>
        <time>2019-08-17T09:09:13Z</time>
      </trkpt>
      <trkpt lat="44.23481" lon="5.86306">
        <ele>505</ele>
        <time>2019-08-17T09:09:14Z</time>
      </trkpt>
      <trkpt lat="44.23477" lon="5.86301">
        <ele>505</ele>
        <time>2019-08-17T09:09:15Z</time>
      </trkpt>
      <trkpt lat="44.23473" lon="5.86296">
        <ele>505</ele>
        <time>2019-08-17T09:09:16Z</time>
      </trkpt>
      <trkpt lat="44.23469" lon="5.8629">
        <ele>505</ele>
        <time>2019-08-17T09:09:17Z</time>
      </trkpt>
      <trkpt lat="44.23465" lon="5.86285">
        <ele>505</ele>
        <time>2019-08-17T09:09:18Z</time>
      </trkpt>
      <trkpt lat="44.23461" lon="5.8628">
        <ele>505</ele>
        <time>2019-08-17T09:09:19Z</time>
      </trkpt>
      <trkpt lat="44.23457" lon="5.86274">
        <ele>505</ele>
        <time>2019-08-17T09:09:20Z</time>
      </trkpt>
      <trkpt lat="44.23453" lon="5.86269">
        <ele>505</ele>
        <time>2019-08-17T09:09:21Z</time>
      </trkpt>
      <trkpt lat="44.23449" lon="5.86264">
        <ele>505</ele>
        <time>2019-08-17T09:09:22Z</time>
      </trkpt>
      <trkpt lat="44.23444" lon="5.86259">
        <ele>505</ele>
        <time>2019-08-17T09:09:23Z</time>
      </trkpt>
      <trkpt lat="44.2344" lon="5.86253">
        <ele>505</ele>
        <time>2019-08-17T09:09:24Z</time>
      </trkpt>
      <trkpt lat="44.23436" lon="5.86248">
        <ele>505</ele>
        <time>2019-08-17T09:09:25Z</time>
      </trkpt>
      <trkpt lat="44.23432" lon="5.86242">
        <ele>505</ele>
        <time>2019-08-17T09:09:26Z</time>
      </trkpt>
      <trkpt lat="44.23428" lon="5.86237">
        <ele>505</ele>
        <time>2019-08-17T09:09:27Z</time>
      </trkpt>
      <trkpt lat="44.23423" lon="5.86232">
        <ele>505</ele>
        <time>2019-08-17T09:09:28Z</time>
      </trkpt>
      <trkpt lat="44.23419" lon="5.86226">
        <ele>505</ele>
        <time>2019-08-17T09:09:29Z</time>
      </trkpt>
      <trkpt lat="44.23415" lon="5.8622">
        <ele>505</ele>
        <time>2019-08-17T09:09:30Z</time>
      </trkpt>
      <trkpt lat="44.2341" lon="5.86215">
        <ele>505</ele>
        <time>2019-08-17T09:09:31Z</time>
      </trkpt>
      <trkpt lat="44.23406" lon="5.86208">
        <ele>505</ele>
        <time>2019-08-17T09:09:32Z</time>
      </trkpt>
      <trkpt lat="44.23402" lon="5.86201">
        <ele>505</ele>
        <time>2019-08-17T09:09:33Z</time>
      </trkpt>
      <trkpt lat="44.23399" lon="5.86194">
        <ele>505</ele>
        <time>2019-08-17T09:09:34Z</time>
      </trkpt>
      <trkpt lat="44.23398" lon="5.86185">
        <ele>505</ele>
        <time>2019-08-17T09:09:35Z</time>
      </trkpt>
      <trkpt lat="44.23397" lon="5.86176">
        <ele>505</ele>
        <time>2019-08-17T09:09:36Z</time>
      </trkpt>
      <trkpt lat="44.23399" lon="5.86167">
        <ele>505</ele>
        <time>2019-08-17T09:09:37Z</time>
      </trkpt>
      <trkpt lat="44.234" lon="5.86158">
        <ele>505</ele>
        <time>2019-08-17T09:09:38Z</time>
      </trkpt>
      <trkpt lat="44.23402" lon="5.86149">
        <ele>505</ele>
        <time>2019-08-17T09:09:39Z</time>
      </trkpt>
      <trkpt lat="44.23404" lon="5.8614">
        <ele>505</ele>
        <time>2019-08-17T09:09:40Z</time>
      </trkpt>
      <trkpt lat="44.23405" lon="5.86131">
        <ele>505</ele>
        <time>2019-08-17T09:09:41Z</time>
      </trkpt>
      <trkpt lat="44.23406" lon="5.86122">
        <ele>505</ele>
        <time>2019-08-17T09:09:42Z</time>
      </trkpt>
      <trkpt lat="44.23407" lon="5.86112">
        <ele>505</ele>
        <time>2019-08-17T09:09:43Z</time>
      </trkpt>
      <trkpt lat="44.23408" lon="5.86103">
        <ele>505</ele>
        <time>2019-08-17T09:09:44Z</time>
      </trkpt>
      <trkpt lat="44.23409" lon="5.86094">
        <ele>505</ele>
        <time>2019-08-17T09:09:45Z</time>
      </trkpt>
      <trkpt lat="44.23409" lon="5.86085">
        <ele>505</ele>
        <time>2019-08-17T09:09:46Z</time>
      </trkpt>
      <trkpt lat="44.23409" lon="5.86076">
        <ele>505</ele>
        <time>2019-08-17T09:09:47Z</time>
      </trkpt>
      <trkpt lat="44.23408" lon="5.86067">
        <ele>505</ele>
        <time>2019-08-17T09:09:48Z</time>
      </trkpt>
      <trkpt lat="44.23407" lon="5.86058">
        <ele>505</ele>
        <time>2019-08-17T09:09:49Z</time>
      </trkpt>
      <trkpt lat="44.23406" lon="5.86049">
        <ele>505</ele>
        <time>2019-08-17T09:09:50Z</time>
      </trkpt>
      <trkpt lat="44.23404" lon="5.8604">
        <ele>505</ele>
        <time>2019-08-17T09:09:51Z</time>
      </trkpt>
      <trkpt lat="44.23402" lon="5.86032">
        <ele>505</ele>
        <time>2019-08-17T09:09:52Z</time>
      </trkpt>
      <trkpt lat="44.234" lon="5.86024">
        <ele>505</ele>
        <time>2019-08-17T09:09:53Z</time>
      </trkpt>
      <trkpt lat="44.23397" lon="5.86015">
        <ele>505</ele>
        <time>2019-08-17T09:09:54Z</time>
      </trkpt>
      <trkpt lat="44.23393" lon="5.86007">
        <ele>505</ele>
        <time>2019-08-17T09:09:55Z</time>
      </trkpt>
      <trkpt lat="44.2339" lon="5.85999">
        <ele>505</ele>
        <time>2019-08-17T09:09:56Z</time>
      </trkpt>
      <trkpt lat="44.23388" lon="5.85991">
        <ele>505</ele>
        <time>2019-08-17T09:09:57Z</time>
      </trkpt>
      <trkpt lat="44.23386" lon="5.85983">
        <ele>505</ele>
        <time>2019-08-17T09:09:58Z</time>
      </trkpt>
      <trkpt lat="44.23383" lon="5.85975">
        <ele>505</ele>
        <time>2019-08-17T09:09:59Z</time>
      </trkpt>
      <trkpt lat="44.23381" lon="5.85968">
        <ele>505</ele>
        <time>2019-08-17T09:10:00Z</time>
      </trkpt>
      <trkpt lat="44.23379" lon="5.8596">
        <ele>505</ele>
        <time>2019-08-17T09:10:01Z</time>
      </trkpt>
      <trkpt lat="44.23377" lon="5.85953">
        <ele>505</ele>
        <time>2019-08-17T09:10:02Z</time>
      </trkpt>
      <trkpt lat="44.23374" lon="5.85944">
        <ele>505</ele>
        <time>2019-08-17T09:10:03Z</time>
      </trkpt>
      <trkpt lat="44.23372" lon="5.85936">
        <ele>505</ele>
        <time>2019-08-17T09:10:04Z</time>
      </trkpt>
      <trkpt lat="44.2337" lon="5.85929">
        <ele>505</ele>
        <time>2019-08-17T09:10:05Z</time>
      </trkpt>
      <trkpt lat="44.23367" lon="5.85921">
        <ele>505</ele>
        <time>2019-08-17T09:10:06Z</time>
      </trkpt>
      <trkpt lat="44.23365" lon="5.85913">
        <ele>505</ele>
        <time>2019-08-17T09:10:07Z</time>
      </trkpt>
      <trkpt lat="44.23362" lon="5.85906">
        <ele>505</ele>
        <time>2019-08-17T09:10:08Z</time>
      </trkpt>
      <trkpt lat="44.2336" lon="5.85898">
        <ele>505</ele>
        <time>2019-08-17T09:10:09Z</time>
      </trkpt>
      <trkpt lat="44.23358" lon="5.8589">
        <ele>505</ele>
        <time>2019-08-17T09:10:10Z</time>
      </trkpt>
      <trkpt lat="44.23355" lon="5.85883">
        <ele>505</ele>
        <time>2019-08-17T09:10:11Z</time>
      </trkpt>
      <trkpt lat="44.23353" lon="5.85875">
        <ele>505</ele>
        <time>2019-08-17T09:10:12Z</time>
      </trkpt>
      <trkpt lat="44.23351" lon="5.85868">
        <ele>505</ele>
        <time>2019-08-17T09:10:13Z</time>
      </trkpt>
      <trkpt lat="44.23348" lon="5.8586">
        <ele>505</ele>
        <time>2019-08-17T09:10:14Z</time>
      </trkpt>
      <trkpt lat="44.23346" lon="5.85853">
        <ele>505</ele>
        <time>2019-08-17T09:10:15Z</time>
      </trkpt>
      <trkpt lat="44.23344" lon="5.85847">
        <ele>505</ele>
        <time>2019-08-17T09:10:16Z</time>
      </trkpt>
      <trkpt lat="44.23342" lon="5.8584">
        <ele>505</ele>
        <time>2019-08-17T09:10:17Z</time>
      </trkpt>
      <trkpt lat="44.2334" lon="5.85834">
        <ele>505</ele>
        <time>2019-08-17T09:10:18Z</time>
      </trkpt>
      <trkpt lat="44.23337" lon="5.85827">
        <ele>505</ele>
        <time>2019-08-17T09:10:19Z</time>
      </trkpt>
      <trkpt lat="44.23335" lon="5.85821">
        <ele>505</ele>
        <time>2019-08-17T09:10:20Z</time>
      </trkpt>
      <trkpt lat="44.23332" lon="5.85814">
        <ele>505</ele>
        <time>2019-08-17T09:10:21Z</time>
      </trkpt>
      <trkpt lat="44.2333" lon="5.85808">
        <ele>505</ele>
        <time>2019-08-17T09:10:22Z</time>
      </trkpt>
      <trkpt lat="44.23328" lon="5.85802">
        <ele>505</ele>
        <time>2019-08-17T09:10:23Z</time>
      </trkpt>
      <trkpt lat="44.23325" lon="5.85795">
        <ele>505</ele>
        <time>2019-08-17T09:10:24Z</time>
      </trkpt>
      <trkpt lat="44.23323" lon="5.85789">
        <ele>505</ele>
        <time>2019-08-17T09:10:25Z</time>
      </trkpt>
      <trkpt lat="44.23321" lon="5.85783">
        <ele>505</ele>
        <time>2019-08-17T09:10:26Z</time>
      </trkpt>
      <trkpt lat="44.23318" lon="5.85777">
        <ele>505</ele>
        <time>2019-08-17T09:10:27Z</time>
      </trkpt>
      <trkpt lat="44.23316" lon="5.85771">
        <ele>505</ele>
        <time>2019-08-17T09:10:28Z</time>
      </trkpt>
      <trkpt lat="44.23314" lon="5.85764">
        <ele>505</ele>
        <time>2019-08-17T09:10:29Z</time>
      </trkpt>
      <trkpt lat="44.23312" lon="5.85758">
        <ele>505</ele>
        <time>2019-08-17T09:10:30Z</time>
      </trkpt>
      <trkpt lat="44.23309" lon="5.85752">
        <ele>505</ele>
        <time>2019-08-17T09:10:31Z</time>
      </trkpt>
      <trkpt lat="44.23307" lon="5.85746">
        <ele>505</ele>
        <time>2019-08-17T09:10:32Z</time>
      </trkpt>
      <trkpt lat="44.23304" lon="5.8574">
        <ele>505</ele>
        <time>2019-08-17T09:10:33Z</time>
      </trkpt>
      <trkpt lat="44.23302" lon="5.85734">
        <ele>505</ele>
        <time>2019-08-17T09:10:34Z</time>
      </trkpt>
      <trkpt lat="44.233" lon="5.85729">
        <ele>505</ele>
        <time>2019-08-17T09:10:35Z</time>
      </trkpt>
      <trkpt lat="44.23298" lon="5.85723">
        <ele>505</ele>
        <time>2019-08-17T09:10:36Z</time>
      </trkpt>
      <trkpt lat="44.23295" lon="5.85717">
        <ele>505</ele>
        <time>2019-08-17T09:10:37Z</time>
      </trkpt>
      <trkpt lat="44.23293" lon="5.85712">
        <ele>505</ele>
        <time>2019-08-17T09:10:38Z</time>
      </trkpt>
      <trkpt lat="44.23291" lon="5.85706">
        <ele>505</ele>
        <time>2019-08-17T09:10:39Z</time>
      </trkpt>
      <trkpt lat="44.23288" lon="5.85701">
        <ele>505</ele>
        <time>2019-08-17T09:10:40Z</time>
      </trkpt>
      <trkpt lat="44.23285" lon="5.85696">
        <ele>505</ele>
        <time>2019-08-17T09:10:41Z</time>
      </trkpt>
      <trkpt lat="44.23282" lon="5.85691">
        <ele>505</ele>
        <time>2019-08-17T09:10:42Z</time>
      </trkpt>
      <trkpt lat="44.23279" lon="5.85688">
        <ele>505</ele>
        <time>2019-08-17T09:10:43Z</time>
      </trkpt>
      <trkpt lat="44.23276" lon="5.85684">
        <ele>505</ele>
        <time>2019-08-17T09:10:44Z</time>
      </trkpt>
      <trkpt lat="44.23272" lon="5.85681">
        <ele>505</ele>
        <time>2019-08-17T09:10:45Z</time>
      </trkpt>
      <trkpt lat="44.23268" lon="5.85679">
        <ele>505</ele>
        <time>2019-08-17T09:10:46Z</time>
      </trkpt>
      <trkpt lat="44.23264" lon="5.85678">
        <ele>505</ele>
        <time>2019-08-17T09:10:47Z</time>
      </trkpt>
      <trkpt lat="44.23259" lon="5.85678">
        <ele>505</ele>
        <time>2019-08-17T09:10:48Z</time>
      </trkpt>
      <trkpt lat="44.23255" lon="5.85677">
        <ele>505</ele>
        <time>2019-08-17T09:10:49Z</time>
      </trkpt>
      <trkpt lat="44.23251" lon="5.85677">
        <ele>505</ele>
        <time>2019-08-17T09:10:50Z</time>
      </trkpt>
      <trkpt lat="44.23246" lon="5.85676">
        <ele>505</ele>
        <time>2019-08-17T09:10:51Z</time>
      </trkpt>
      <trkpt lat="44.23241" lon="5.85676">
        <ele>505</ele>
        <time>2019-08-17T09:10:52Z</time>
      </trkpt>
      <trkpt lat="44.23237" lon="5.85675">
        <ele>505</ele>
        <time>2019-08-17T09:10:53Z</time>
      </trkpt>
      <trkpt lat="44.23233" lon="5.85675">
        <ele>505</ele>
        <time>2019-08-17T09:10:54Z</time>
      </trkpt>
      <trkpt lat="44.23228" lon="5.85674">
        <ele>505</ele>
        <time>2019-08-17T09:10:55Z</time>
      </trkpt>
      <trkpt lat="44.23224" lon="5.85674">
        <ele>505</ele>
        <time>2019-08-17T09:10:56Z</time>
      </trkpt>
      <trkpt lat="44.2322" lon="5.85674">
        <ele>505</ele>
        <time>2019-08-17T09:10:57Z</time>
      </trkpt>
      <trkpt lat="44.23216" lon="5.85673">
        <ele>506</ele>
        <time>2019-08-17T09:10:58Z</time>
      </trkpt>
      <trkpt lat="44.23212" lon="5.85673">
        <ele>506</ele>
        <time>2019-08-17T09:10:59Z</time>
      </trkpt>
      <trkpt lat="44.23208" lon="5.85673">
        <ele>506</ele>
        <time>2019-08-17T09:11:00Z</time>
      </trkpt>
      <trkpt lat="44.23204" lon="5.85674">
        <ele>507</ele>
        <time>2019-08-17T09:11:01Z</time>
      </trkpt>
      <trkpt lat="44.23199" lon="5.85675">
        <ele>507</ele>
        <time>2019-08-17T09:11:02Z</time>
      </trkpt>
      <trkpt lat="44.23196" lon="5.85677">
        <ele>508</ele>
        <time>2019-08-17T09:11:03Z</time>
      </trkpt>
      <trkpt lat="44.23192" lon="5.85679">
        <ele>508</ele>
        <time>2019-08-17T09:11:04Z</time>
      </trkpt>
      <trkpt lat="44.23189" lon="5.85682">
        <ele>509</ele>
        <time>2019-08-17T09:11:05Z</time>
      </trkpt>
      <trkpt lat="44.23186" lon="5.85685">
        <ele>509</ele>
        <time>2019-08-17T09:11:06Z</time>
      </trkpt>
      <trkpt lat="44.23183" lon="5.85689">
        <ele>510</ele>
        <time>2019-08-17T09:11:07Z</time>
      </trkpt>
      <trkpt lat="44.23181" lon="5.85692">
        <ele>510</ele>
        <time>2019-08-17T09:11:08Z</time>
      </trkpt>
      <trkpt lat="44.23178" lon="5.85696">
        <ele>510</ele>
        <time>2019-08-17T09:11:09Z</time>
      </trkpt>
      <trkpt lat="44.23176" lon="5.857">
        <ele>510</ele>
        <time>2019-08-17T09:11:10Z</time>
      </trkpt>
      <trkpt lat="44.23173" lon="5.85703">
        <ele>511</ele>
        <time>2019-08-17T09:11:11Z</time>
      </trkpt>
      <trkpt lat="44.23171" lon="5.85707">
        <ele>511</ele>
        <time>2019-08-17T09:11:12Z</time>
      </trkpt>
      <trkpt lat="44.23168" lon="5.85711">
        <ele>511</ele>
        <time>2019-08-17T09:11:13Z</time>
      </trkpt>
      <trkpt lat="44.23165" lon="5.85715">
        <ele>511</ele>
        <time>2019-08-17T09:11:14Z</time>
      </trkpt>
      <trkpt lat="44.23163" lon="5.85719">
        <ele>511</ele>
        <time>2019-08-17T09:11:15Z</time>
      </trkpt>
      <trkpt lat="44.2316" lon="5.85724">
        <ele>511</ele>
        <time>2019-08-17T09:11:16Z</time>
      </trkpt>
      <trkpt lat="44.23158" lon="5.8573">
        <ele>512</ele>
        <time>2019-08-17T09:11:17Z</time>
      </trkpt>
      <trkpt lat="44.23156" lon="5.85735">
        <ele>512</ele>
        <time>2019-08-17T09:11:18Z</time>
      </trkpt>
      <trkpt lat="44.23154" lon="5.85741">
        <ele>513</ele>
        <time>2019-08-17T09:11:19Z</time>
      </trkpt>
      <trkpt lat="44.23152" lon="5.85746">
        <ele>514</ele>
        <time>2019-08-17T09:11:20Z</time>
      </trkpt>
      <trkpt lat="44.2315" lon="5.85752">
        <ele>515</ele>
        <time>2019-08-17T09:11:21Z</time>
      </trkpt>
      <trkpt lat="44.23148" lon="5.85757">
        <ele>515</ele>
        <time>2019-08-17T09:11:22Z</time>
      </trkpt>
      <trkpt lat="44.23147" lon="5.85763">
        <ele>516</ele>
        <time>2019-08-17T09:11:23Z</time>
      </trkpt>
      <trkpt lat="44.23146" lon="5.85769">
        <ele>517</ele>
        <time>2019-08-17T09:11:24Z</time>
      </trkpt>
      <trkpt lat="44.23145" lon="5.85775">
        <ele>517</ele>
        <time>2019-08-17T09:11:25Z</time>
      </trkpt>
      <trkpt lat="44.23143" lon="5.8578">
        <ele>517</ele>
        <time>2019-08-17T09:11:26Z</time>
      </trkpt>
      <trkpt lat="44.23141" lon="5.85785">
        <ele>518</ele>
        <time>2019-08-17T09:11:27Z</time>
      </trkpt>
      <trkpt lat="44.2314" lon="5.8579">
        <ele>518</ele>
        <time>2019-08-17T09:11:28Z</time>
      </trkpt>
      <trkpt lat="44.23137" lon="5.85794">
        <ele>519</ele>
        <time>2019-08-17T09:11:29Z</time>
      </trkpt>
      <trkpt lat="44.23133" lon="5.85797">
        <ele>519</ele>
        <time>2019-08-17T09:11:30Z</time>
      </trkpt>
      <trkpt lat="44.2313" lon="5.85797">
        <ele>520</ele>
        <time>2019-08-17T09:11:31Z</time>
      </trkpt>
      <trkpt lat="44.23126" lon="5.85796">
        <ele>520</ele>
        <time>2019-08-17T09:11:32Z</time>
      </trkpt>
      <trkpt lat="44.23123" lon="5.85792">
        <ele>520</ele>
        <time>2019-08-17T09:11:33Z</time>
      </trkpt>
      <trkpt lat="44.23121" lon="5.85788">
        <ele>521</ele>
        <time>2019-08-17T09:11:34Z</time>
      </trkpt>
      <trkpt lat="44.23119" lon="5.85785">
        <ele>521</ele>
        <time>2019-08-17T09:11:35Z</time>
      </trkpt>
      <trkpt lat="44.23117" lon="5.85781">
        <ele>521</ele>
        <time>2019-08-17T09:11:36Z</time>
      </trkpt>
      <trkpt lat="44.23116" lon="5.85776">
        <ele>521</ele>
        <time>2019-08-17T09:11:37Z</time>
      </trkpt>
      <trkpt lat="44.23116" lon="5.85772">
        <ele>521</ele>
        <time>2019-08-17T09:11:38Z</time>
      </trkpt>
      <trkpt lat="44.23117" lon="5.85768">
        <ele>521</ele>
        <time>2019-08-17T09:11:39Z</time>
      </trkpt>
      <trkpt lat="44.23117" lon="5.85765">
        <ele>521</ele>
        <time>2019-08-17T09:11:40Z</time>
      </trkpt>
      <trkpt lat="44.23118" lon="5.85761">
        <ele>521</ele>
        <time>2019-08-17T09:11:41Z</time>
      </trkpt>
      <trkpt lat="44.23118" lon="5.85757">
        <ele>521</ele>
        <time>2019-08-17T09:11:42Z</time>
      </trkpt>
      <trkpt lat="44.23118" lon="5.85752">
        <ele>521</ele>
        <time>2019-08-17T09:11:43Z</time>
      </trkpt>
      <trkpt lat="44.2312" lon="5.85749">
        <ele>521</ele>
        <time>2019-08-17T09:11:44Z</time>
      </trkpt>
      <trkpt lat="44.2312" lon="5.85744">
        <ele>521</ele>
        <time>2019-08-17T09:11:45Z</time>
      </trkpt>
      <trkpt lat="44.23122" lon="5.85741">
        <ele>521</ele>
        <time>2019-08-17T09:11:46Z</time>
      </trkpt>
      <trkpt lat="44.23122" lon="5.85737">
        <ele>521</ele>
        <time>2019-08-17T09:11:47Z</time>
      </trkpt>
      <trkpt lat="44.23123" lon="5.85733">
        <ele>521</ele>
        <time>2019-08-17T09:11:48Z</time>
      </trkpt>
      <trkpt lat="44.23124" lon="5.85728">
        <ele>521</ele>
        <time>2019-08-17T09:11:49Z</time>
      </trkpt>
      <trkpt lat="44.23124" lon="5.85724">
        <ele>521</ele>
        <time>2019-08-17T09:11:50Z</time>
      </trkpt>
      <trkpt lat="44.23125" lon="5.8572">
        <ele>521</ele>
        <time>2019-08-17T09:11:51Z</time>
      </trkpt>
      <trkpt lat="44.23127" lon="5.85717">
        <ele>521</ele>
        <time>2019-08-17T09:11:52Z</time>
      </trkpt>
      <trkpt lat="44.23127" lon="5.85713">
        <ele>521</ele>
        <time>2019-08-17T09:11:53Z</time>
      </trkpt>
      <trkpt lat="44.23127" lon="5.8571">
        <ele>521</ele>
        <time>2019-08-17T09:11:54Z</time>
      </trkpt>
      <trkpt lat="44.23128" lon="5.85706">
        <ele>521</ele>
        <time>2019-08-17T09:11:55Z</time>
      </trkpt>
      <trkpt lat="44.23129" lon="5.85702">
        <ele>521</ele>
        <time>2019-08-17T09:11:56Z</time>
      </trkpt>
      <trkpt lat="44.23129" lon="5.85698">
        <ele>521</ele>
        <time>2019-08-17T09:11:57Z</time>
      </trkpt>
      <trkpt lat="44.23129" lon="5.85695">
        <ele>521</ele>
        <time>2019-08-17T09:11:58Z</time>
      </trkpt>
      <trkpt lat="44.23129" lon="5.85691">
        <ele>521</ele>
        <time>2019-08-17T09:11:59Z</time>
      </trkpt>
      <trkpt lat="44.23129" lon="5.85687">
        <ele>521</ele>
        <time>2019-08-17T09:12:00Z</time>
      </trkpt>
      <trkpt lat="44.2313" lon="5.85683">
        <ele>521</ele>
        <time>2019-08-17T09:12:01Z</time>
      </trkpt>
      <trkpt lat="44.2313" lon="5.85679">
        <ele>521</ele>
        <time>2019-08-17T09:12:02Z</time>
      </trkpt>
      <trkpt lat="44.23131" lon="5.85674">
        <ele>521</ele>
        <time>2019-08-17T09:12:03Z</time>
      </trkpt>
      <trkpt lat="44.23131" lon="5.8567">
        <ele>521</ele>
        <time>2019-08-17T09:12:04Z</time>
      </trkpt>
      <trkpt lat="44.23132" lon="5.85666">
        <ele>521</ele>
        <time>2019-08-17T09:12:05Z</time>
      </trkpt>
      <trkpt lat="44.23133" lon="5.85662">
        <ele>521</ele>
        <time>2019-08-17T09:12:06Z</time>
      </trkpt>
      <trkpt lat="44.23133" lon="5.85657">
        <ele>521</ele>
        <time>2019-08-17T09:12:07Z</time>
      </trkpt>
      <trkpt lat="44.23133" lon="5.85652">
        <ele>521</ele>
        <time>2019-08-17T09:12:08Z</time>
      </trkpt>
      <trkpt lat="44.23133" lon="5.85648">
        <ele>521</ele>
        <time>2019-08-17T09:12:09Z</time>
      </trkpt>
      <trkpt lat="44.23134" lon="5.85644">
        <ele>521</ele>
        <time>2019-08-17T09:12:10Z</time>
      </trkpt>
      <trkpt lat="44.23134" lon="5.8564">
        <ele>521</ele>
        <time>2019-08-17T09:12:11Z</time>
      </trkpt>
      <trkpt lat="44.23135" lon="5.85636">
        <ele>521</ele>
        <time>2019-08-17T09:12:12Z</time>
      </trkpt>
      <trkpt lat="44.23137" lon="5.85633">
        <ele>521</ele>
        <time>2019-08-17T09:12:13Z</time>
      </trkpt>
      <trkpt lat="44.2314" lon="5.85629">
        <ele>521</ele>
        <time>2019-08-17T09:12:14Z</time>
      </trkpt>
      <trkpt lat="44.23142" lon="5.85626">
        <ele>521</ele>
        <time>2019-08-17T09:12:15Z</time>
      </trkpt>
      <trkpt lat="44.23145" lon="5.85623">
        <ele>521</ele>
        <time>2019-08-17T09:12:16Z</time>
      </trkpt>
      <trkpt lat="44.23149" lon="5.8562">
        <ele>521</ele>
        <time>2019-08-17T09:12:17Z</time>
      </trkpt>
      <trkpt lat="44.23153" lon="5.85619">
        <ele>521</ele>
        <time>2019-08-17T09:12:18Z</time>
      </trkpt>
      <trkpt lat="44.23157" lon="5.85617">
        <ele>521</ele>
        <time>2019-08-17T09:12:19Z</time>
      </trkpt>
      <trkpt lat="44.23161" lon="5.85613">
        <ele>521</ele>
        <time>2019-08-17T09:12:20Z</time>
      </trkpt>
      <trkpt lat="44.23165" lon="5.8561">
        <ele>521</ele>
        <time>2019-08-17T09:12:21Z</time>
      </trkpt>
      <trkpt lat="44.23168" lon="5.85605">
        <ele>521</ele>
        <time>2019-08-17T09:12:22Z</time>
      </trkpt>
      <trkpt lat="44.2317" lon="5.85597">
        <ele>521</ele>
        <time>2019-08-17T09:12:23Z</time>
      </trkpt>
      <trkpt lat="44.23172" lon="5.85589">
        <ele>521</ele>
        <time>2019-08-17T09:12:24Z</time>
      </trkpt>
      <trkpt lat="44.23177" lon="5.85583">
        <ele>521</ele>
        <time>2019-08-17T09:12:25Z</time>
      </trkpt>
      <trkpt lat="44.23179" lon="5.85573">
        <ele>521</ele>
        <time>2019-08-17T09:12:26Z</time>
      </trkpt>
      <trkpt lat="44.23183" lon="5.85565">
        <ele>521</ele>
        <time>2019-08-17T09:12:27Z</time>
      </trkpt>
      <trkpt lat="44.23188" lon="5.85557">
        <ele>521</ele>
        <time>2019-08-17T09:12:28Z</time>
      </trkpt>
      <trkpt lat="44.23194" lon="5.8555">
        <ele>521</ele>
        <time>2019-08-17T09:12:29Z</time>
      </trkpt>
      <trkpt lat="44.23201" lon="5.85543">
        <ele>521</ele>
        <time>2019-08-17T09:12:30Z</time>
      </trkpt>
      <trkpt lat="44.23207" lon="5.85537">
        <ele>521</ele>
        <time>2019-08-17T09:12:31Z</time>
      </trkpt>
      <trkpt lat="44.23214" lon="5.8553">
        <ele>521</ele>
        <time>2019-08-17T09:12:32Z</time>
      </trkpt>
      <trkpt lat="44.23222" lon="5.85524">
        <ele>521</ele>
        <time>2019-08-17T09:12:33Z</time>
      </trkpt>
      <trkpt lat="44.2323" lon="5.85519">
        <ele>521</ele>
        <time>2019-08-17T09:12:34Z</time>
      </trkpt>
      <trkpt lat="44.23238" lon="5.85515">
        <ele>521</ele>
        <time>2019-08-17T09:12:35Z</time>
      </trkpt>
      <trkpt lat="44.23246" lon="5.85513">
        <ele>521</ele>
        <time>2019-08-17T09:12:36Z</time>
      </trkpt>
      <trkpt lat="44.23254" lon="5.85511">
        <ele>521</ele>
        <time>2019-08-17T09:12:37Z</time>
      </trkpt>
      <trkpt lat="44.23261" lon="5.8551">
        <ele>521</ele>
        <time>2019-08-17T09:12:38Z</time>
      </trkpt>
      <trkpt lat="44.23269" lon="5.85509">
        <ele>521</ele>
        <time>2019-08-17T09:12:39Z</time>
      </trkpt>
      <trkpt lat="44.23277" lon="5.85508">
        <ele>521</ele>
        <time>2019-08-17T09:12:40Z</time>
      </trkpt>
      <trkpt lat="44.23284" lon="5.85507">
        <ele>521</ele>
        <time>2019-08-17T09:12:41Z</time>
      </trkpt>
      <trkpt lat="44.23291" lon="5.85505">
        <ele>521</ele>
        <time>2019-08-17T09:12:42Z</time>
      </trkpt>
      <trkpt lat="44.23297" lon="5.85504">
        <ele>521</ele>
        <time>2019-08-17T09:12:43Z</time>
      </trkpt>
      <trkpt lat="44.23303" lon="5.85503">
        <ele>521</ele>
        <time>2019-08-17T09:12:44Z</time>
      </trkpt>
      <trkpt lat="44.23309" lon="5.85502">
        <ele>521</ele>
        <time>2019-08-17T09:12:45Z</time>
      </trkpt>
      <trkpt lat="44.23315" lon="5.85502">
        <ele>521</ele>
        <time>2019-08-17T09:12:46Z</time>
      </trkpt>
      <trkpt lat="44.2332" lon="5.85501">
        <ele>521</ele>
        <time>2019-08-17T09:12:47Z</time>
      </trkpt>
      <trkpt lat="44.23326" lon="5.85501">
        <ele>521</ele>
        <time>2019-08-17T09:12:48Z</time>
      </trkpt>
      <trkpt lat="44.23331" lon="5.85501">
        <ele>521</ele>
        <time>2019-08-17T09:12:49Z</time>
      </trkpt>
      <trkpt lat="44.23336" lon="5.85501">
        <ele>521</ele>
        <time>2019-08-17T09:12:50Z</time>
      </trkpt>
      <trkpt lat="44.23342" lon="5.85501">
        <ele>521</ele>
        <time>2019-08-17T09:12:51Z</time>
      </trkpt>
      <trkpt lat="44.23347" lon="5.85501">
        <ele>521</ele>
        <time>2019-08-17T09:12:52Z</time>
      </trkpt>
      <trkpt lat="44.23352" lon="5.85502">
        <ele>521</ele>
        <time>2019-08-17T09:12:53Z</time>
      </trkpt>
      <trkpt lat="44.23357" lon="5.85502">
        <ele>521</ele>
        <time>2019-08-17T09:12:54Z</time>
      </trkpt>
      <trkpt lat="44.23362" lon="5.85503">
        <ele>521</ele>
        <time>2019-08-17T09:12:55Z</time>
      </trkpt>
      <trkpt lat="44.23367" lon="5.85503">
        <ele>521</ele>
        <time>2019-08-17T09:12:56Z</time>
      </trkpt>
      <trkpt lat="44.23372" lon="5.85503">
        <ele>521</ele>
        <time>2019-08-17T09:12:57Z</time>
      </trkpt>
      <trkpt lat="44.23376" lon="5.85504">
        <ele>521</ele>
        <time>2019-08-17T09:12:58Z</time>
      </trkpt>
      <trkpt lat="44.23381" lon="5.85505">
        <ele>521</ele>
        <time>2019-08-17T09:12:59Z</time>
      </trkpt>
      <trkpt lat="44.23385" lon="5.85505">
        <ele>521</ele>
        <time>2019-08-17T09:13:00Z</time>
      </trkpt>
      <trkpt lat="44.23389" lon="5.85505">
        <ele>521</ele>
        <time>2019-08-17T09:13:01Z</time>
      </trkpt>
      <trkpt lat="44.23394" lon="5.85506">
        <ele>521</ele>
        <time>2019-08-17T09:13:02Z</time>
      </trkpt>
      <trkpt lat="44.23398" lon="5.85506">
        <ele>521</ele>
        <time>2019-08-17T09:13:03Z</time>
      </trkpt>
      <trkpt lat="44.23402" lon="5.85507">
        <ele>521</ele>
        <time>2019-08-17T09:13:04Z</time>
      </trkpt>
      <trkpt lat="44.23406" lon="5.85507">
        <ele>521</ele>
        <time>2019-08-17T09:13:05Z</time>
      </trkpt>
      <trkpt lat="44.2341" lon="5.85507">
        <ele>521</ele>
        <time>2019-08-17T09:13:06Z</time>
      </trkpt>
      <trkpt lat="44.23415" lon="5.85507">
        <ele>521</ele>
        <time>2019-08-17T09:13:07Z</time>
      </trkpt>
      <trkpt lat="44.23419" lon="5.85507">
        <ele>521</ele>
        <time>2019-08-17T09:13:08Z</time>
      </trkpt>
      <trkpt lat="44.23423" lon="5.85507">
        <ele>521</ele>
        <time>2019-08-17T09:13:09Z</time>
      </trkpt>
      <trkpt lat="44.23428" lon="5.85506">
        <ele>522</ele>
        <time>2019-08-17T09:13:10Z</time>
      </trkpt>
      <trkpt lat="44.23432" lon="5.85505">
        <ele>522</ele>
        <time>2019-08-17T09:13:11Z</time>
      </trkpt>
      <trkpt lat="44.23436" lon="5.85504">
        <ele>522</ele>
        <time>2019-08-17T09:13:12Z</time>
      </trkpt>
      <trkpt lat="44.2344" lon="5.85504">
        <ele>523</ele>
        <time>2019-08-17T09:13:13Z</time>
      </trkpt>
      <trkpt lat="44.23445" lon="5.85503">
        <ele>523</ele>
        <time>2019-08-17T09:13:14Z</time>
      </trkpt>
      <trkpt lat="44.23449" lon="5.85502">
        <ele>523</ele>
        <time>2019-08-17T09:13:15Z</time>
      </trkpt>
      <trkpt lat="44.23453" lon="5.85501">
        <ele>524</ele>
        <time>2019-08-17T09:13:16Z</time>
      </trkpt>
      <trkpt lat="44.23457" lon="5.855">
        <ele>524</ele>
        <time>2019-08-17T09:13:17Z</time>
      </trkpt>
      <trkpt lat="44.23462" lon="5.85499">
        <ele>524</ele>
        <time>2019-08-17T09:13:18Z</time>
      </trkpt>
      <trkpt lat="44.23466" lon="5.85498">
        <ele>525</ele>
        <time>2019-08-17T09:13:19Z</time>
      </trkpt>
      <trkpt lat="44.2347" lon="5.85497">
        <ele>525</ele>
        <time>2019-08-17T09:13:20Z</time>
      </trkpt>
      <trkpt lat="44.23474" lon="5.85496">
        <ele>525</ele>
        <time>2019-08-17T09:13:21Z</time>
      </trkpt>
      <trkpt lat="44.23478" lon="5.85495">
        <ele>526</ele>
        <time>2019-08-17T09:13:22Z</time>
      </trkpt>
      <trkpt lat="44.23482" lon="5.85493">
        <ele>526</ele>
        <time>2019-08-17T09:13:23Z</time>
      </trkpt>
      <trkpt lat="44.23486" lon="5.85491">
        <ele>526</ele>
        <time>2019-08-17T09:13:24Z</time>
      </trkpt>
      <trkpt lat="44.2349" lon="5.85489">
        <ele>527</ele>
        <time>2019-08-17T09:13:25Z</time>
      </trkpt>
      <trkpt lat="44.23494" lon="5.85487">
        <ele>527</ele>
        <time>2019-08-17T09:13:26Z</time>
      </trkpt>
      <trkpt lat="44.23498" lon="5.85485">
        <ele>527</ele>
        <time>2019-08-17T09:13:27Z</time>
      </trkpt>
      <trkpt lat="44.23502" lon="5.85482">
        <ele>527</ele>
        <time>2019-08-17T09:13:28Z</time>
      </trkpt>
      <trkpt lat="44.23506" lon="5.85479">
        <ele>528</ele>
        <time>2019-08-17T09:13:29Z</time>
      </trkpt>
      <trkpt lat="44.2351" lon="5.85476">
        <ele>528</ele>
        <time>2019-08-17T09:13:30Z</time>
      </trkpt>
      <trkpt lat="44.23514" lon="5.85472">
        <ele>528</ele>
        <time>2019-08-17T09:13:31Z</time>
      </trkpt>
      <trkpt lat="44.23518" lon="5.85469">
        <ele>528</ele>
        <time>2019-08-17T09:13:32Z</time>
      </trkpt>
      <trkpt lat="44.23521" lon="5.85465">
        <ele>528</ele>
        <time>2019-08-17T09:13:33Z</time>
      </trkpt>
      <trkpt lat="44.23526" lon="5.85461">
        <ele>528</ele>
        <time>2019-08-17T09:13:34Z</time>
      </trkpt>
      <trkpt lat="44.23529" lon="5.85457">
        <ele>528</ele>
        <time>2019-08-17T09:13:35Z</time>
      </trkpt>
      <trkpt lat="44.23533" lon="5.85452">
        <ele>528</ele>
        <time>2019-08-17T09:13:36Z</time>
      </trkpt>
      <trkpt lat="44.23537" lon="5.85448">
        <ele>528</ele>
        <time>2019-08-17T09:13:37Z</time>
      </trkpt>
      <trkpt lat="44.2354" lon="5.85443">
        <ele>528</ele>
        <time>2019-08-17T09:13:38Z</time>
      </trkpt>
      <trkpt lat="44.23544" lon="5.85437">
        <ele>528</ele>
        <time>2019-08-17T09:13:39Z</time>
      </trkpt>
      <trkpt lat="44.23547" lon="5.85432">
        <ele>528</ele>
        <time>2019-08-17T09:13:40Z</time>
      </trkpt>
      <trkpt lat="44.2355" lon="5.85426">
        <ele>528</ele>
        <time>2019-08-17T09:13:41Z</time>
      </trkpt>
      <trkpt lat="44.23553" lon="5.8542">
        <ele>528</ele>
        <time>2019-08-17T09:13:42Z</time>
      </trkpt>
      <trkpt lat="44.23555" lon="5.85413">
        <ele>528</ele>
        <time>2019-08-17T09:13:43Z</time>
      </trkpt>
      <trkpt lat="44.23558" lon="5.85407">
        <ele>528</ele>
        <time>2019-08-17T09:13:44Z</time>
      </trkpt>
      <trkpt lat="44.23561" lon="5.854">
        <ele>528</ele>
        <time>2019-08-17T09:13:45Z</time>
      </trkpt>
      <trkpt lat="44.23563" lon="5.85393">
        <ele>528</ele>
        <time>2019-08-17T09:13:46Z</time>
      </trkpt>
      <trkpt lat="44.23566" lon="5.85386">
        <ele>528</ele>
        <time>2019-08-17T09:13:47Z</time>
      </trkpt>
      <trkpt lat="44.23568" lon="5.85379">
        <ele>528</ele>
        <time>2019-08-17T09:13:48Z</time>
      </trkpt>
      <trkpt lat="44.23569" lon="5.85372">
        <ele>528</ele>
        <time>2019-08-17T09:13:49Z</time>
      </trkpt>
      <trkpt lat="44.23571" lon="5.85364">
        <ele>528</ele>
        <time>2019-08-17T09:13:50Z</time>
      </trkpt>
      <trkpt lat="44.23573" lon="5.85357">
        <ele>528</ele>
        <time>2019-08-17T09:13:51Z</time>
      </trkpt>
      <trkpt lat="44.23575" lon="5.85349">
        <ele>528</ele>
        <time>2019-08-17T09:13:52Z</time>
      </trkpt>
      <trkpt lat="44.23577" lon="5.85341">
        <ele>528</ele>
        <time>2019-08-17T09:13:53Z</time>
      </trkpt>
      <trkpt lat="44.23579" lon="5.85333">
        <ele>528</ele>
        <time>2019-08-17T09:13:54Z</time>
      </trkpt>
      <trkpt lat="44.2358" lon="5.85325">
        <ele>528</ele>
        <time>2019-08-17T09:13:55Z</time>
      </trkpt>
      <trkpt lat="44.23582" lon="5.85317">
        <ele>528</ele>
        <time>2019-08-17T09:13:56Z</time>
      </trkpt>
      <trkpt lat="44.23584" lon="5.8531">
        <ele>528</ele>
        <time>2019-08-17T09:13:57Z</time>
      </trkpt>
      <trkpt lat="44.23586" lon="5.85301">
        <ele>528</ele>
        <time>2019-08-17T09:13:58Z</time>
      </trkpt>
      <trkpt lat="44.23588" lon="5.85293">
        <ele>528</ele>
        <time>2019-08-17T09:13:59Z</time>
      </trkpt>
      <trkpt lat="44.23589" lon="5.85285">
        <ele>528</ele>
        <time>2019-08-17T09:14:00Z</time>
      </trkpt>
      <trkpt lat="44.23591" lon="5.85277">
        <ele>528</ele>
        <time>2019-08-17T09:14:01Z</time>
      </trkpt>
      <trkpt lat="44.23593" lon="5.85269">
        <ele>528</ele>
        <time>2019-08-17T09:14:02Z</time>
      </trkpt>
      <trkpt lat="44.23595" lon="5.85261">
        <ele>528</ele>
        <time>2019-08-17T09:14:03Z</time>
      </trkpt>
      <trkpt lat="44.23597" lon="5.85253">
        <ele>528</ele>
        <time>2019-08-17T09:14:04Z</time>
      </trkpt>
      <trkpt lat="44.23598" lon="5.85245">
        <ele>528</ele>
        <time>2019-08-17T09:14:05Z</time>
      </trkpt>
      <trkpt lat="44.236" lon="5.85237">
        <ele>528</ele>
        <time>2019-08-17T09:14:06Z</time>
      </trkpt>
      <trkpt lat="44.23602" lon="5.85229">
        <ele>528</ele>
        <time>2019-08-17T09:14:07Z</time>
      </trkpt>
      <trkpt lat="44.23604" lon="5.85221">
        <ele>528</ele>
        <time>2019-08-17T09:14:08Z</time>
      </trkpt>
      <trkpt lat="44.23605" lon="5.85213">
        <ele>528</ele>
        <time>2019-08-17T09:14:09Z</time>
      </trkpt>
      <trkpt lat="44.23607" lon="5.85205">
        <ele>528</ele>
        <time>2019-08-17T09:14:10Z</time>
      </trkpt>
      <trkpt lat="44.23609" lon="5.85197">
        <ele>528</ele>
        <time>2019-08-17T09:14:11Z</time>
      </trkpt>
      <trkpt lat="44.23611" lon="5.85189">
        <ele>528</ele>
        <time>2019-08-17T09:14:12Z</time>
      </trkpt>
      <trkpt lat="44.23613" lon="5.85181">
        <ele>528</ele>
        <time>2019-08-17T09:14:13Z</time>
      </trkpt>
      <trkpt lat="44.23615" lon="5.85173">
        <ele>528</ele>
        <time>2019-08-17T09:14:14Z</time>
      </trkpt>
      <trkpt lat="44.23616" lon="5.85165">
        <ele>528</ele>
        <time>2019-08-17T09:14:15Z</time>
      </trkpt>
      <trkpt lat="44.23618" lon="5.85157">
        <ele>528</ele>
        <time>2019-08-17T09:14:16Z</time>
      </trkpt>
      <trkpt lat="44.23621" lon="5.85149">
        <ele>528</ele>
        <time>2019-08-17T09:14:17Z</time>
      </trkpt>
      <trkpt lat="44.23623" lon="5.85141">
        <ele>528</ele>
        <time>2019-08-17T09:14:18Z</time>
      </trkpt>
      <trkpt lat="44.23625" lon="5.85132">
        <ele>528</ele>
        <time>2019-08-17T09:14:19Z</time>
      </trkpt>
      <trkpt lat="44.23628" lon="5.85124">
        <ele>528</ele>
        <time>2019-08-17T09:14:20Z</time>
      </trkpt>
      <trkpt lat="44.23631" lon="5.85116">
        <ele>528</ele>
        <time>2019-08-17T09:14:21Z</time>
      </trkpt>
      <trkpt lat="44.23634" lon="5.85109">
        <ele>528</ele>
        <time>2019-08-17T09:14:22Z</time>
      </trkpt>
      <trkpt lat="44.23638" lon="5.85101">
        <ele>528</ele>
        <time>2019-08-17T09:14:23Z</time>
      </trkpt>
      <trkpt lat="44.23642" lon="5.85094">
        <ele>528</ele>
        <time>2019-08-17T09:14:24Z</time>
      </trkpt>
      <trkpt lat="44.23647" lon="5.85087">
        <ele>528</ele>
        <time>2019-08-17T09:14:25Z</time>
      </trkpt>
      <trkpt lat="44.23651" lon="5.85081">
        <ele>528</ele>
        <time>2019-08-17T09:14:26Z</time>
      </trkpt>
      <trkpt lat="44.23656" lon="5.85075">
        <ele>528</ele>
        <time>2019-08-17T09:14:27Z</time>
      </trkpt>
      <trkpt lat="44.23661" lon="5.8507">
        <ele>528</ele>
        <time>2019-08-17T09:14:28Z</time>
      </trkpt>
      <trkpt lat="44.23667" lon="5.85065">
        <ele>528</ele>
        <time>2019-08-17T09:14:29Z</time>
      </trkpt>
      <trkpt lat="44.23672" lon="5.8506">
        <ele>528</ele>
        <time>2019-08-17T09:14:30Z</time>
      </trkpt>
      <trkpt lat="44.23678" lon="5.85055">
        <ele>528</ele>
        <time>2019-08-17T09:14:31Z</time>
      </trkpt>
      <trkpt lat="44.23684" lon="5.8505">
        <ele>528</ele>
        <time>2019-08-17T09:14:32Z</time>
      </trkpt>
      <trkpt lat="44.23689" lon="5.85045">
        <ele>528</ele>
        <time>2019-08-17T09:14:33Z</time>
      </trkpt>
      <trkpt lat="44.23695" lon="5.85041">
        <ele>528</ele>
        <time>2019-08-17T09:14:34Z</time>
      </trkpt>
      <trkpt lat="44.237" lon="5.85036">
        <ele>528</ele>
        <time>2019-08-17T09:14:35Z</time>
      </trkpt>
      <trkpt lat="44.23706" lon="5.85032">
        <ele>528</ele>
        <time>2019-08-17T09:14:36Z</time>
      </trkpt>
      <trkpt lat="44.23712" lon="5.85027">
        <ele>528</ele>
        <time>2019-08-17T09:14:37Z</time>
      </trkpt>
      <trkpt lat="44.23718" lon="5.85022">
        <ele>528</ele>
        <time>2019-08-17T09:14:38Z</time>
      </trkpt>
      <trkpt lat="44.23724" lon="5.85017">
        <ele>528</ele>
        <time>2019-08-17T09:14:39Z</time>
      </trkpt>
      <trkpt lat="44.2373" lon="5.85012">
        <ele>528</ele>
        <time>2019-08-17T09:14:40Z</time>
      </trkpt>
      <trkpt lat="44.23736" lon="5.85008">
        <ele>528</ele>
        <time>2019-08-17T09:14:41Z</time>
      </trkpt>
      <trkpt lat="44.23742" lon="5.85003">
        <ele>528</ele>
        <time>2019-08-17T09:14:42Z</time>
      </trkpt>
      <trkpt lat="44.23748" lon="5.84998">
        <ele>528</ele>
        <time>2019-08-17T09:14:43Z</time>
      </trkpt>
      <trkpt lat="44.23754" lon="5.84993">
        <ele>528</ele>
        <time>2019-08-17T09:14:44Z</time>
      </trkpt>
      <trkpt lat="44.2376" lon="5.84988">
        <ele>528</ele>
        <time>2019-08-17T09:14:45Z</time>
      </trkpt>
      <trkpt lat="44.23766" lon="5.84984">
        <ele>528</ele>
        <time>2019-08-17T09:14:46Z</time>
      </trkpt>
      <trkpt lat="44.23772" lon="5.84979">
        <ele>528</ele>
        <time>2019-08-17T09:14:47Z</time>
      </trkpt>
      <trkpt lat="44.23778" lon="5.84974">
        <ele>528</ele>
        <time>2019-08-17T09:14:48Z</time>
      </trkpt>
      <trkpt lat="44.23784" lon="5.8497">
        <ele>528</ele>
        <time>2019-08-17T09:14:49Z</time>
      </trkpt>
      <trkpt lat="44.2379" lon="5.84965">
        <ele>528</ele>
        <time>2019-08-17T09:14:50Z</time>
      </trkpt>
      <trkpt lat="44.23795" lon="5.8496">
        <ele>528</ele>
        <time>2019-08-17T09:14:51Z</time>
      </trkpt>
      <trkpt lat="44.23801" lon="5.84955">
        <ele>528</ele>
        <time>2019-08-17T09:14:52Z</time>
      </trkpt>
      <trkpt lat="44.23807" lon="5.84951">
        <ele>528</ele>
        <time>2019-08-17T09:14:53Z</time>
      </trkpt>
      <trkpt lat="44.23813" lon="5.84946">
        <ele>528</ele>
        <time>2019-08-17T09:14:54Z</time>
      </trkpt>
      <trkpt lat="44.23819" lon="5.84941">
        <ele>528</ele>
        <time>2019-08-17T09:14:55Z</time>
      </trkpt>
      <trkpt lat="44.23825" lon="5.84937">
        <ele>528</ele>
        <time>2019-08-17T09:14:56Z</time>
      </trkpt>
      <trkpt lat="44.23831" lon="5.84932">
        <ele>528</ele>
        <time>2019-08-17T09:14:57Z</time>
      </trkpt>
      <trkpt lat="44.23836" lon="5.84927">
        <ele>528</ele>
        <time>2019-08-17T09:14:58Z</time>
      </trkpt>
      <trkpt lat="44.23842" lon="5.84923">
        <ele>528</ele>
        <time>2019-08-17T09:14:59Z</time>
      </trkpt>
      <trkpt lat="44.23848" lon="5.84918">
        <ele>528</ele>
        <time>2019-08-17T09:15:00Z</time>
      </trkpt>
      <trkpt lat="44.23854" lon="5.84913">
        <ele>528</ele>
        <time>2019-08-17T09:15:01Z</time>
      </trkpt>
      <trkpt lat="44.23859" lon="5.84909">
        <ele>528</ele>
        <time>2019-08-17T09:15:02Z</time>
      </trkpt>
      <trkpt lat="44.23865" lon="5.84904">
        <ele>528</ele>
        <time>2019-08-17T09:15:03Z</time>
      </trkpt>
      <trkpt lat="44.2387" lon="5.849">
        <ele>528</ele>
        <time>2019-08-17T09:15:04Z</time>
      </trkpt>
      <trkpt lat="44.23876" lon="5.84895">
        <ele>528</ele>
        <time>2019-08-17T09:15:05Z</time>
      </trkpt>
      <trkpt lat="44.23882" lon="5.84891">
        <ele>528</ele>
        <time>2019-08-17T09:15:06Z</time>
      </trkpt>
      <trkpt lat="44.23888" lon="5.84886">
        <ele>528</ele>
        <time>2019-08-17T09:15:07Z</time>
      </trkpt>
      <trkpt lat="44.23893" lon="5.84882">
        <ele>528</ele>
        <time>2019-08-17T09:15:08Z</time>
      </trkpt>
      <trkpt lat="44.23899" lon="5.84877">
        <ele>528</ele>
        <time>2019-08-17T09:15:09Z</time>
      </trkpt>
      <trkpt lat="44.23904" lon="5.84872">
        <ele>528</ele>
        <time>2019-08-17T09:15:10Z</time>
      </trkpt>
      <trkpt lat="44.2391" lon="5.84868">
        <ele>528</ele>
        <time>2019-08-17T09:15:11Z</time>
      </trkpt>
      <trkpt lat="44.23916" lon="5.84863">
        <ele>528</ele>
        <time>2019-08-17T09:15:12Z</time>
      </trkpt>
      <trkpt lat="44.23922" lon="5.84859">
        <ele>528</ele>
        <time>2019-08-17T09:15:13Z</time>
      </trkpt>
      <trkpt lat="44.23927" lon="5.84854">
        <ele>528</ele>
        <time>2019-08-17T09:15:14Z</time>
      </trkpt>
      <trkpt lat="44.23933" lon="5.8485">
        <ele>528</ele>
        <time>2019-08-17T09:15:15Z</time>
      </trkpt>
      <trkpt lat="44.23939" lon="5.84845">
        <ele>528</ele>
        <time>2019-08-17T09:15:16Z</time>
      </trkpt>
      <trkpt lat="44.23945" lon="5.84841">
        <ele>528</ele>
        <time>2019-08-17T09:15:17Z</time>
      </trkpt>
      <trkpt lat="44.2395" lon="5.84837">
        <ele>528</ele>
        <time>2019-08-17T09:15:18Z</time>
      </trkpt>
      <trkpt lat="44.23956" lon="5.84833">
        <ele>528</ele>
        <time>2019-08-17T09:15:19Z</time>
      </trkpt>
      <trkpt lat="44.23961" lon="5.84828">
        <ele>528</ele>
        <time>2019-08-17T09:15:20Z</time>
      </trkpt>
      <trkpt lat="44.23967" lon="5.84824">
        <ele>528</ele>
        <time>2019-08-17T09:15:21Z</time>
      </trkpt>
      <trkpt lat="44.23972" lon="5.8482">
        <ele>528</ele>
        <time>2019-08-17T09:15:22Z</time>
      </trkpt>
      <trkpt lat="44.23978" lon="5.84815">
        <ele>528</ele>
        <time>2019-08-17T09:15:23Z</time>
      </trkpt>
      <trkpt lat="44.23983" lon="5.84811">
        <ele>528</ele>
        <time>2019-08-17T09:15:24Z</time>
      </trkpt>
      <trkpt lat="44.23989" lon="5.84807">
        <ele>528</ele>
        <time>2019-08-17T09:15:25Z</time>
      </trkpt>
      <trkpt lat="44.23994" lon="5.84802">
        <ele>528</ele>
        <time>2019-08-17T09:15:26Z</time>
      </trkpt>
      <trkpt lat="44.23999" lon="5.84798">
        <ele>528</ele>
        <time>2019-08-17T09:15:27Z</time>
      </trkpt>
      <trkpt lat="44.24005" lon="5.84794">
        <ele>528</ele>
        <time>2019-08-17T09:15:28Z</time>
      </trkpt>
      <trkpt lat="44.2401" lon="5.8479">
        <ele>528</ele>
        <time>2019-08-17T09:15:29Z</time>
      </trkpt>
      <trkpt lat="44.24015" lon="5.84786">
        <ele>528</ele>
        <time>2019-08-17T09:15:30Z</time>
      </trkpt>
      <trkpt lat="44.24021" lon="5.84781">
        <ele>528</ele>
        <time>2019-08-17T09:15:31Z</time>
      </trkpt>
      <trkpt lat="44.24026" lon="5.84777">
        <ele>528</ele>
        <time>2019-08-17T09:15:32Z</time>
      </trkpt>
      <trkpt lat="44.24031" lon="5.84772">
        <ele>528</ele>
        <time>2019-08-17T09:15:33Z</time>
      </trkpt>
      <trkpt lat="44.24037" lon="5.84768">
        <ele>528</ele>
        <time>2019-08-17T09:15:34Z</time>
      </trkpt>
      <trkpt lat="44.24042" lon="5.84764">
        <ele>528</ele>
        <time>2019-08-17T09:15:35Z</time>
      </trkpt>
      <trkpt lat="44.24047" lon="5.8476">
        <ele>528</ele>
        <time>2019-08-17T09:15:36Z</time>
      </trkpt>
      <trkpt lat="44.24053" lon="5.84756">
        <ele>528</ele>
        <time>2019-08-17T09:15:37Z</time>
      </trkpt>
      <trkpt lat="44.24058" lon="5.84751">
        <ele>528</ele>
        <time>2019-08-17T09:15:38Z</time>
      </trkpt>
      <trkpt lat="44.24063" lon="5.84747">
        <ele>528</ele>
        <time>2019-08-17T09:15:39Z</time>
      </trkpt>
      <trkpt lat="44.24069" lon="5.84743">
        <ele>528</ele>
        <time>2019-08-17T09:15:40Z</time>
      </trkpt>
      <trkpt lat="44.24074" lon="5.84739">
        <ele>528</ele>
        <time>2019-08-17T09:15:41Z</time>
      </trkpt>
      <trkpt lat="44.2408" lon="5.84734">
        <ele>528</ele>
        <time>2019-08-17T09:15:42Z</time>
      </trkpt>
      <trkpt lat="44.24085" lon="5.8473">
        <ele>528</ele>
        <time>2019-08-17T09:15:43Z</time>
      </trkpt>
      <trkpt lat="44.2409" lon="5.84726">
        <ele>528</ele>
        <time>2019-08-17T09:15:44Z</time>
      </trkpt>
      <trkpt lat="44.24096" lon="5.84722">
        <ele>528</ele>
        <time>2019-08-17T09:15:45Z</time>
      </trkpt>
      <trkpt lat="44.24101" lon="5.84717">
        <ele>529</ele>
        <time>2019-08-17T09:15:46Z</time>
      </trkpt>
      <trkpt lat="44.24107" lon="5.84713">
        <ele>529</ele>
        <time>2019-08-17T09:15:47Z</time>
      </trkpt>
      <trkpt lat="44.24112" lon="5.84708">
        <ele>529</ele>
        <time>2019-08-17T09:15:48Z</time>
      </trkpt>
      <trkpt lat="44.24117" lon="5.84704">
        <ele>529</ele>
        <time>2019-08-17T09:15:49Z</time>
      </trkpt>
      <trkpt lat="44.24122" lon="5.847">
        <ele>529</ele>
        <time>2019-08-17T09:15:50Z</time>
      </trkpt>
      <trkpt lat="44.24128" lon="5.84696">
        <ele>529</ele>
        <time>2019-08-17T09:15:51Z</time>
      </trkpt>
      <trkpt lat="44.24133" lon="5.84691">
        <ele>529</ele>
        <time>2019-08-17T09:15:52Z</time>
      </trkpt>
      <trkpt lat="44.24138" lon="5.84687">
        <ele>530</ele>
        <time>2019-08-17T09:15:53Z</time>
      </trkpt>
      <trkpt lat="44.24143" lon="5.84682">
        <ele>530</ele>
        <time>2019-08-17T09:15:54Z</time>
      </trkpt>
      <trkpt lat="44.24149" lon="5.84678">
        <ele>530</ele>
        <time>2019-08-17T09:15:55Z</time>
      </trkpt>
      <trkpt lat="44.24154" lon="5.84674">
        <ele>530</ele>
        <time>2019-08-17T09:15:56Z</time>
      </trkpt>
      <trkpt lat="44.24159" lon="5.84669">
        <ele>530</ele>
        <time>2019-08-17T09:15:57Z</time>
      </trkpt>
      <trkpt lat="44.24164" lon="5.84665">
        <ele>530</ele>
        <time>2019-08-17T09:15:58Z</time>
      </trkpt>
      <trkpt lat="44.24169" lon="5.84661">
        <ele>530</ele>
        <time>2019-08-17T09:15:59Z</time>
      </trkpt>
      <trkpt lat="44.24174" lon="5.84657">
        <ele>530</ele>
        <time>2019-08-17T09:16:00Z</time>
      </trkpt>
      <trkpt lat="44.2418" lon="5.84653">
        <ele>531</ele>
        <time>2019-08-17T09:16:01Z</time>
      </trkpt>
      <trkpt lat="44.24185" lon="5.84648">
        <ele>531</ele>
        <time>2019-08-17T09:16:02Z</time>
      </trkpt>
      <trkpt lat="44.2419" lon="5.84644">
        <ele>531</ele>
        <time>2019-08-17T09:16:03Z</time>
      </trkpt>
      <trkpt lat="44.24195" lon="5.8464">
        <ele>531</ele>
        <time>2019-08-17T09:16:04Z</time>
      </trkpt>
      <trkpt lat="44.242" lon="5.84635">
        <ele>531</ele>
        <time>2019-08-17T09:16:05Z</time>
      </trkpt>
      <trkpt lat="44.24205" lon="5.84631">
        <ele>531</ele>
        <time>2019-08-17T09:16:06Z</time>
      </trkpt>
      <trkpt lat="44.2421" lon="5.84627">
        <ele>531</ele>
        <time>2019-08-17T09:16:07Z</time>
      </trkpt>
      <trkpt lat="44.24215" lon="5.84623">
        <ele>532</ele>
        <time>2019-08-17T09:16:08Z</time>
      </trkpt>
      <trkpt lat="44.2422" lon="5.84619">
        <ele>532</ele>
        <time>2019-08-17T09:16:09Z</time>
      </trkpt>
      <trkpt lat="44.24225" lon="5.84615">
        <ele>532</ele>
        <time>2019-08-17T09:16:10Z</time>
      </trkpt>
      <trkpt lat="44.2423" lon="5.84611">
        <ele>532</ele>
        <time>2019-08-17T09:16:11Z</time>
      </trkpt>
      <trkpt lat="44.24234" lon="5.84607">
        <ele>532</ele>
        <time>2019-08-17T09:16:12Z</time>
      </trkpt>
      <trkpt lat="44.24239" lon="5.84603">
        <ele>532</ele>
        <time>2019-08-17T09:16:13Z</time>
      </trkpt>
      <trkpt lat="44.24244" lon="5.84599">
        <ele>532</ele>
        <time>2019-08-17T09:16:14Z</time>
      </trkpt>
      <trkpt lat="44.24249" lon="5.84595">
        <ele>533</ele>
        <time>2019-08-17T09:16:15Z</time>
      </trkpt>
      <trkpt lat="44.24253" lon="5.84592">
        <ele>533</ele>
        <time>2019-08-17T09:16:16Z</time>
      </trkpt>
      <trkpt lat="44.24258" lon="5.84588">
        <ele>533</ele>
        <time>2019-08-17T09:16:17Z</time>
      </trkpt>
      <trkpt lat="44.24263" lon="5.84585">
        <ele>533</ele>
        <time>2019-08-17T09:16:18Z</time>
      </trkpt>
      <trkpt lat="44.24267" lon="5.84581">
        <ele>533</ele>
        <time>2019-08-17T09:16:19Z</time>
      </trkpt>
      <trkpt lat="44.24272" lon="5.84577">
        <ele>533</ele>
        <time>2019-08-17T09:16:20Z</time>
      </trkpt>
      <trkpt lat="44.24276" lon="5.84574">
        <ele>533</ele>
        <time>2019-08-17T09:16:21Z</time>
      </trkpt>
      <trkpt lat="44.24281" lon="5.8457">
        <ele>533</ele>
        <time>2019-08-17T09:16:22Z</time>
      </trkpt>
      <trkpt lat="44.24286" lon="5.84566">
        <ele>534</ele>
        <time>2019-08-17T09:16:23Z</time>
      </trkpt>
      <trkpt lat="44.2429" lon="5.84562">
        <ele>534</ele>
        <time>2019-08-17T09:16:24Z</time>
      </trkpt>
      <trkpt lat="44.24295" lon="5.84558">
        <ele>534</ele>
        <time>2019-08-17T09:16:25Z</time>
      </trkpt>
      <trkpt lat="44.243" lon="5.84555">
        <ele>534</ele>
        <time>2019-08-17T09:16:26Z</time>
      </trkpt>
      <trkpt lat="44.24304" lon="5.84551">
        <ele>534</ele>
        <time>2019-08-17T09:16:27Z</time>
      </trkpt>
      <trkpt lat="44.24309" lon="5.84547">
        <ele>534</ele>
        <time>2019-08-17T09:16:28Z</time>
      </trkpt>
      <trkpt lat="44.24313" lon="5.84544">
        <ele>534</ele>
        <time>2019-08-17T09:16:29Z</time>
      </trkpt>
      <trkpt lat="44.24318" lon="5.8454">
        <ele>535</ele>
        <time>2019-08-17T09:16:30Z</time>
      </trkpt>
      <trkpt lat="44.24322" lon="5.84537">
        <ele>535</ele>
        <time>2019-08-17T09:16:31Z</time>
      </trkpt>
      <trkpt lat="44.24326" lon="5.84533">
        <ele>535</ele>
        <time>2019-08-17T09:16:32Z</time>
      </trkpt>
      <trkpt lat="44.24331" lon="5.84529">
        <ele>535</ele>
        <time>2019-08-17T09:16:33Z</time>
      </trkpt>
      <trkpt lat="44.24335" lon="5.84525">
        <ele>535</ele>
        <time>2019-08-17T09:16:34Z</time>
      </trkpt>
      <trkpt lat="44.24339" lon="5.84522">
        <ele>536</ele>
        <time>2019-08-17T09:16:35Z</time>
      </trkpt>
      <trkpt lat="44.24344" lon="5.84518">
        <ele>536</ele>
        <time>2019-08-17T09:16:36Z</time>
      </trkpt>
      <trkpt lat="44.24348" lon="5.84515">
        <ele>536</ele>
        <time>2019-08-17T09:16:37Z</time>
      </trkpt>
      <trkpt lat="44.24352" lon="5.84511">
        <ele>536</ele>
        <time>2019-08-17T09:16:38Z</time>
      </trkpt>
      <trkpt lat="44.24357" lon="5.84508">
        <ele>536</ele>
        <time>2019-08-17T09:16:39Z</time>
      </trkpt>
      <trkpt lat="44.24361" lon="5.84504">
        <ele>536</ele>
        <time>2019-08-17T09:16:40Z</time>
      </trkpt>
      <trkpt lat="44.24366" lon="5.84501">
        <ele>536</ele>
        <time>2019-08-17T09:16:41Z</time>
      </trkpt>
      <trkpt lat="44.2437" lon="5.84497">
        <ele>537</ele>
        <time>2019-08-17T09:16:42Z</time>
      </trkpt>
      <trkpt lat="44.24374" lon="5.84494">
        <ele>537</ele>
        <time>2019-08-17T09:16:43Z</time>
      </trkpt>
      <trkpt lat="44.24379" lon="5.84491">
        <ele>537</ele>
        <time>2019-08-17T09:16:44Z</time>
      </trkpt>
      <trkpt lat="44.24383" lon="5.84487">
        <ele>537</ele>
        <time>2019-08-17T09:16:45Z</time>
      </trkpt>
      <trkpt lat="44.24387" lon="5.84484">
        <ele>537</ele>
        <time>2019-08-17T09:16:46Z</time>
      </trkpt>
      <trkpt lat="44.24392" lon="5.8448">
        <ele>537</ele>
        <time>2019-08-17T09:16:47Z</time>
      </trkpt>
      <trkpt lat="44.24396" lon="5.84477">
        <ele>537</ele>
        <time>2019-08-17T09:16:48Z</time>
      </trkpt>
      <trkpt lat="44.244" lon="5.84474">
        <ele>537</ele>
        <time>2019-08-17T09:16:49Z</time>
      </trkpt>
      <trkpt lat="44.24405" lon="5.8447">
        <ele>538</ele>
        <time>2019-08-17T09:16:50Z</time>
      </trkpt>
      <trkpt lat="44.24409" lon="5.84467">
        <ele>538</ele>
        <time>2019-08-17T09:16:51Z</time>
      </trkpt>
      <trkpt lat="44.24414" lon="5.84463">
        <ele>538</ele>
        <time>2019-08-17T09:16:52Z</time>
      </trkpt>
      <trkpt lat="44.24418" lon="5.84459">
        <ele>538</ele>
        <time>2019-08-17T09:16:53Z</time>
      </trkpt>
      <trkpt lat="44.24422" lon="5.84456">
        <ele>538</ele>
        <time>2019-08-17T09:16:54Z</time>
      </trkpt>
      <trkpt lat="44.24427" lon="5.84452">
        <ele>538</ele>
        <time>2019-08-17T09:16:55Z</time>
      </trkpt>
      <trkpt lat="44.24431" lon="5.84449">
        <ele>538</ele>
        <time>2019-08-17T09:16:56Z</time>
      </trkpt>
      <trkpt lat="44.24436" lon="5.84445">
        <ele>539</ele>
        <time>2019-08-17T09:16:57Z</time>
      </trkpt>
      <trkpt lat="44.2444" lon="5.84442">
        <ele>539</ele>
        <time>2019-08-17T09:16:58Z</time>
      </trkpt>
      <trkpt lat="44.24445" lon="5.84439">
        <ele>539</ele>
        <time>2019-08-17T09:16:59Z</time>
      </trkpt>
      <trkpt lat="44.24449" lon="5.84435">
        <ele>539</ele>
        <time>2019-08-17T09:17:00Z</time>
      </trkpt>
      <trkpt lat="44.24454" lon="5.84432">
        <ele>539</ele>
        <time>2019-08-17T09:17:01Z</time>
      </trkpt>
      <trkpt lat="44.24458" lon="5.84428">
        <ele>540</ele>
        <time>2019-08-17T09:17:02Z</time>
      </trkpt>
      <trkpt lat="44.24463" lon="5.84424">
        <ele>540</ele>
        <time>2019-08-17T09:17:03Z</time>
      </trkpt>
      <trkpt lat="44.24467" lon="5.84421">
        <ele>540</ele>
        <time>2019-08-17T09:17:04Z</time>
      </trkpt>
      <trkpt lat="44.24472" lon="5.84417">
        <ele>540</ele>
        <time>2019-08-17T09:17:05Z</time>
      </trkpt>
      <trkpt lat="44.24476" lon="5.84414">
        <ele>540</ele>
        <time>2019-08-17T09:17:06Z</time>
      </trkpt>
      <trkpt lat="44.24481" lon="5.8441">
        <ele>540</ele>
        <time>2019-08-17T09:17:07Z</time>
      </trkpt>
      <trkpt lat="44.24485" lon="5.84407">
        <ele>540</ele>
        <time>2019-08-17T09:17:08Z</time>
      </trkpt>
      <trkpt lat="44.2449" lon="5.84403">
        <ele>540</ele>
        <time>2019-08-17T09:17:09Z</time>
      </trkpt>
      <trkpt lat="44.24495" lon="5.84399">
        <ele>540</ele>
        <time>2019-08-17T09:17:10Z</time>
      </trkpt>
      <trkpt lat="44.24499" lon="5.84396">
        <ele>540</ele>
        <time>2019-08-17T09:17:11Z</time>
      </trkpt>
      <trkpt lat="44.24504" lon="5.84392">
        <ele>540</ele>
        <time>2019-08-17T09:17:12Z</time>
      </trkpt>
      <trkpt lat="44.24508" lon="5.84388">
        <ele>541</ele>
        <time>2019-08-17T09:17:13Z</time>
      </trkpt>
      <trkpt lat="44.24513" lon="5.84385">
        <ele>541</ele>
        <time>2019-08-17T09:17:14Z</time>
      </trkpt>
      <trkpt lat="44.24517" lon="5.84381">
        <ele>541</ele>
        <time>2019-08-17T09:17:15Z</time>
      </trkpt>
      <trkpt lat="44.24522" lon="5.84377">
        <ele>541</ele>
        <time>2019-08-17T09:17:16Z</time>
      </trkpt>
      <trkpt lat="44.24527" lon="5.84374">
        <ele>541</ele>
        <time>2019-08-17T09:17:17Z</time>
      </trkpt>
      <trkpt lat="44.24532" lon="5.8437">
        <ele>541</ele>
        <time>2019-08-17T09:17:18Z</time>
      </trkpt>
      <trkpt lat="44.24536" lon="5.84367">
        <ele>541</ele>
        <time>2019-08-17T09:17:19Z</time>
      </trkpt>
      <trkpt lat="44.24541" lon="5.84363">
        <ele>541</ele>
        <time>2019-08-17T09:17:20Z</time>
      </trkpt>
      <trkpt lat="44.24545" lon="5.84359">
        <ele>541</ele>
        <time>2019-08-17T09:17:21Z</time>
      </trkpt>
      <trkpt lat="44.2455" lon="5.84355">
        <ele>541</ele>
        <time>2019-08-17T09:17:22Z</time>
      </trkpt>
      <trkpt lat="44.24554" lon="5.84352">
        <ele>541</ele>
        <time>2019-08-17T09:17:23Z</time>
      </trkpt>
      <trkpt lat="44.24559" lon="5.84348">
        <ele>541</ele>
        <time>2019-08-17T09:17:24Z</time>
      </trkpt>
      <trkpt lat="44.24564" lon="5.84344">
        <ele>541</ele>
        <time>2019-08-17T09:17:25Z</time>
      </trkpt>
      <trkpt lat="44.24568" lon="5.84341">
        <ele>541</ele>
        <time>2019-08-17T09:17:26Z</time>
      </trkpt>
      <trkpt lat="44.24573" lon="5.84337">
        <ele>541</ele>
        <time>2019-08-17T09:17:27Z</time>
      </trkpt>
      <trkpt lat="44.24577" lon="5.84334">
        <ele>541</ele>
        <time>2019-08-17T09:17:28Z</time>
      </trkpt>
      <trkpt lat="44.24582" lon="5.8433">
        <ele>541</ele>
        <time>2019-08-17T09:17:29Z</time>
      </trkpt>
      <trkpt lat="44.24586" lon="5.84326">
        <ele>541</ele>
        <time>2019-08-17T09:17:30Z</time>
      </trkpt>
      <trkpt lat="44.24591" lon="5.84323">
        <ele>541</ele>
        <time>2019-08-17T09:17:31Z</time>
      </trkpt>
      <trkpt lat="44.24596" lon="5.84319">
        <ele>541</ele>
        <time>2019-08-17T09:17:32Z</time>
      </trkpt>
      <trkpt lat="44.246" lon="5.84315">
        <ele>541</ele>
        <time>2019-08-17T09:17:33Z</time>
      </trkpt>
      <trkpt lat="44.24605" lon="5.84311">
        <ele>541</ele>
        <time>2019-08-17T09:17:34Z</time>
      </trkpt>
      <trkpt lat="44.24609" lon="5.84308">
        <ele>541</ele>
        <time>2019-08-17T09:17:35Z</time>
      </trkpt>
      <trkpt lat="44.24614" lon="5.84304">
        <ele>541</ele>
        <time>2019-08-17T09:17:36Z</time>
      </trkpt>
      <trkpt lat="44.24619" lon="5.843">
        <ele>541</ele>
        <time>2019-08-17T09:17:37Z</time>
      </trkpt>
      <trkpt lat="44.24623" lon="5.84296">
        <ele>541</ele>
        <time>2019-08-17T09:17:38Z</time>
      </trkpt>
      <trkpt lat="44.24628" lon="5.84292">
        <ele>541</ele>
        <time>2019-08-17T09:17:39Z</time>
      </trkpt>
      <trkpt lat="44.24633" lon="5.84288">
        <ele>541</ele>
        <time>2019-08-17T09:17:40Z</time>
      </trkpt>
      <trkpt lat="44.24638" lon="5.84284">
        <ele>541</ele>
        <time>2019-08-17T09:17:41Z</time>
      </trkpt>
      <trkpt lat="44.24643" lon="5.8428">
        <ele>541</ele>
        <time>2019-08-17T09:17:42Z</time>
      </trkpt>
      <trkpt lat="44.24648" lon="5.84277">
        <ele>541</ele>
        <time>2019-08-17T09:17:43Z</time>
      </trkpt>
      <trkpt lat="44.24652" lon="5.84273">
        <ele>541</ele>
        <time>2019-08-17T09:17:44Z</time>
      </trkpt>
      <trkpt lat="44.24657" lon="5.84269">
        <ele>541</ele>
        <time>2019-08-17T09:17:45Z</time>
      </trkpt>
      <trkpt lat="44.24662" lon="5.84265">
        <ele>541</ele>
        <time>2019-08-17T09:17:46Z</time>
      </trkpt>
      <trkpt lat="44.24667" lon="5.84261">
        <ele>541</ele>
        <time>2019-08-17T09:17:47Z</time>
      </trkpt>
      <trkpt lat="44.24672" lon="5.84257">
        <ele>541</ele>
        <time>2019-08-17T09:17:48Z</time>
      </trkpt>
      <trkpt lat="44.24677" lon="5.84253">
        <ele>541</ele>
        <time>2019-08-17T09:17:49Z</time>
      </trkpt>
      <trkpt lat="44.24682" lon="5.84249">
        <ele>541</ele>
        <time>2019-08-17T09:17:50Z</time>
      </trkpt>
      <trkpt lat="44.24687" lon="5.84244">
        <ele>541</ele>
        <time>2019-08-17T09:17:51Z</time>
      </trkpt>
      <trkpt lat="44.24692" lon="5.8424">
        <ele>541</ele>
        <time>2019-08-17T09:17:52Z</time>
      </trkpt>
      <trkpt lat="44.24697" lon="5.84236">
        <ele>541</ele>
        <time>2019-08-17T09:17:53Z</time>
      </trkpt>
      <trkpt lat="44.24702" lon="5.84232">
        <ele>541</ele>
        <time>2019-08-17T09:17:54Z</time>
      </trkpt>
      <trkpt lat="44.24707" lon="5.84229">
        <ele>541</ele>
        <time>2019-08-17T09:17:55Z</time>
      </trkpt>
      <trkpt lat="44.24712" lon="5.84225">
        <ele>541</ele>
        <time>2019-08-17T09:17:56Z</time>
      </trkpt>
      <trkpt lat="44.24717" lon="5.84221">
        <ele>541</ele>
        <time>2019-08-17T09:17:57Z</time>
      </trkpt>
      <trkpt lat="44.24722" lon="5.84217">
        <ele>541</ele>
        <time>2019-08-17T09:17:58Z</time>
      </trkpt>
      <trkpt lat="44.24727" lon="5.84213">
        <ele>541</ele>
        <time>2019-08-17T09:17:59Z</time>
      </trkpt>
      <trkpt lat="44.24732" lon="5.84209">
        <ele>541</ele>
        <time>2019-08-17T09:18:00Z</time>
      </trkpt>
      <trkpt lat="44.24737" lon="5.84205">
        <ele>541</ele>
        <time>2019-08-17T09:18:01Z</time>
      </trkpt>
      <trkpt lat="44.24742" lon="5.84201">
        <ele>541</ele>
        <time>2019-08-17T09:18:02Z</time>
      </trkpt>
      <trkpt lat="44.24747" lon="5.84197">
        <ele>541</ele>
        <time>2019-08-17T09:18:03Z</time>
      </trkpt>
      <trkpt lat="44.24752" lon="5.84193">
        <ele>541</ele>
        <time>2019-08-17T09:18:04Z</time>
      </trkpt>
      <trkpt lat="44.24757" lon="5.84189">
        <ele>542</ele>
        <time>2019-08-17T09:18:05Z</time>
      </trkpt>
      <trkpt lat="44.24762" lon="5.84185">
        <ele>542</ele>
        <time>2019-08-17T09:18:06Z</time>
      </trkpt>
      <trkpt lat="44.24767" lon="5.84181">
        <ele>542</ele>
        <time>2019-08-17T09:18:07Z</time>
      </trkpt>
      <trkpt lat="44.24772" lon="5.84177">
        <ele>542</ele>
        <time>2019-08-17T09:18:08Z</time>
      </trkpt>
      <trkpt lat="44.24776" lon="5.84173">
        <ele>542</ele>
        <time>2019-08-17T09:18:09Z</time>
      </trkpt>
      <trkpt lat="44.24781" lon="5.84169">
        <ele>542</ele>
        <time>2019-08-17T09:18:10Z</time>
      </trkpt>
      <trkpt lat="44.24786" lon="5.84166">
        <ele>542</ele>
        <time>2019-08-17T09:18:11Z</time>
      </trkpt>
      <trkpt lat="44.24791" lon="5.84162">
        <ele>542</ele>
        <time>2019-08-17T09:18:12Z</time>
      </trkpt>
      <trkpt lat="44.24796" lon="5.84158">
        <ele>542</ele>
        <time>2019-08-17T09:18:13Z</time>
      </trkpt>
      <trkpt lat="44.24801" lon="5.84154">
        <ele>542</ele>
        <time>2019-08-17T09:18:14Z</time>
      </trkpt>
      <trkpt lat="44.24806" lon="5.84149">
        <ele>542</ele>
        <time>2019-08-17T09:18:15Z</time>
      </trkpt>
      <trkpt lat="44.24812" lon="5.84145">
        <ele>542</ele>
        <time>2019-08-17T09:18:16Z</time>
      </trkpt>
      <trkpt lat="44.24817" lon="5.84141">
        <ele>542</ele>
        <time>2019-08-17T09:18:17Z</time>
      </trkpt>
      <trkpt lat="44.24822" lon="5.84137">
        <ele>542</ele>
        <time>2019-08-17T09:18:18Z</time>
      </trkpt>
      <trkpt lat="44.24827" lon="5.84132">
        <ele>542</ele>
        <time>2019-08-17T09:18:19Z</time>
      </trkpt>
      <trkpt lat="44.24833" lon="5.84128">
        <ele>542</ele>
        <time>2019-08-17T09:18:20Z</time>
      </trkpt>
      <trkpt lat="44.24838" lon="5.84124">
        <ele>542</ele>
        <time>2019-08-17T09:18:21Z</time>
      </trkpt>
      <trkpt lat="44.24844" lon="5.8412">
        <ele>542</ele>
        <time>2019-08-17T09:18:22Z</time>
      </trkpt>
      <trkpt lat="44.24849" lon="5.84115">
        <ele>542</ele>
        <time>2019-08-17T09:18:23Z</time>
      </trkpt>
      <trkpt lat="44.24855" lon="5.84111">
        <ele>542</ele>
        <time>2019-08-17T09:18:24Z</time>
      </trkpt>
      <trkpt lat="44.2486" lon="5.84106">
        <ele>542</ele>
        <time>2019-08-17T09:18:25Z</time>
      </trkpt>
      <trkpt lat="44.24866" lon="5.84101">
        <ele>542</ele>
        <time>2019-08-17T09:18:26Z</time>
      </trkpt>
      <trkpt lat="44.24871" lon="5.84097">
        <ele>542</ele>
        <time>2019-08-17T09:18:27Z</time>
      </trkpt>
      <trkpt lat="44.24877" lon="5.84093">
        <ele>542</ele>
        <time>2019-08-17T09:18:28Z</time>
      </trkpt>
      <trkpt lat="44.24883" lon="5.84088">
        <ele>542</ele>
        <time>2019-08-17T09:18:29Z</time>
      </trkpt>
      <trkpt lat="44.24889" lon="5.84083">
        <ele>542</ele>
        <time>2019-08-17T09:18:30Z</time>
      </trkpt>
      <trkpt lat="44.24895" lon="5.84078">
        <ele>542</ele>
        <time>2019-08-17T09:18:31Z</time>
      </trkpt>
      <trkpt lat="44.24901" lon="5.84074">
        <ele>542</ele>
        <time>2019-08-17T09:18:32Z</time>
      </trkpt>
      <trkpt lat="44.24907" lon="5.84069">
        <ele>542</ele>
        <time>2019-08-17T09:18:33Z</time>
      </trkpt>
      <trkpt lat="44.24913" lon="5.84064">
        <ele>542</ele>
        <time>2019-08-17T09:18:34Z</time>
      </trkpt>
      <trkpt lat="44.24919" lon="5.84059">
        <ele>542</ele>
        <time>2019-08-17T09:18:35Z</time>
      </trkpt>
      <trkpt lat="44.24925" lon="5.84053">
        <ele>542</ele>
        <time>2019-08-17T09:18:36Z</time>
      </trkpt>
      <trkpt lat="44.24931" lon="5.84048">
        <ele>542</ele>
        <time>2019-08-17T09:18:37Z</time>
      </trkpt>
      <trkpt lat="44.24937" lon="5.84043">
        <ele>542</ele>
        <time>2019-08-17T09:18:38Z</time>
      </trkpt>
      <trkpt lat="44.24944" lon="5.84038">
        <ele>542</ele>
        <time>2019-08-17T09:18:39Z</time>
      </trkpt>
      <trkpt lat="44.2495" lon="5.84033">
        <ele>542</ele>
        <time>2019-08-17T09:18:40Z</time>
      </trkpt>
      <trkpt lat="44.24955" lon="5.84027">
        <ele>542</ele>
        <time>2019-08-17T09:18:41Z</time>
      </trkpt>
      <trkpt lat="44.24961" lon="5.84021">
        <ele>542</ele>
        <time>2019-08-17T09:18:42Z</time>
      </trkpt>
      <trkpt lat="44.24966" lon="5.84015">
        <ele>542</ele>
        <time>2019-08-17T09:18:43Z</time>
      </trkpt>
      <trkpt lat="44.24971" lon="5.84009">
        <ele>542</ele>
        <time>2019-08-17T09:18:44Z</time>
      </trkpt>
      <trkpt lat="44.24976" lon="5.84001">
        <ele>542</ele>
        <time>2019-08-17T09:18:45Z</time>
      </trkpt>
      <trkpt lat="44.24981" lon="5.83994">
        <ele>542</ele>
        <time>2019-08-17T09:18:46Z</time>
      </trkpt>
      <trkpt lat="44.24985" lon="5.83987">
        <ele>542</ele>
        <time>2019-08-17T09:18:47Z</time>
      </trkpt>
      <trkpt lat="44.24989" lon="5.83978">
        <ele>542</ele>
        <time>2019-08-17T09:18:48Z</time>
      </trkpt>
      <trkpt lat="44.24993" lon="5.8397">
        <ele>542</ele>
        <time>2019-08-17T09:18:49Z</time>
      </trkpt>
      <trkpt lat="44.24997" lon="5.83961">
        <ele>542</ele>
        <time>2019-08-17T09:18:50Z</time>
      </trkpt>
      <trkpt lat="44.25" lon="5.83951">
        <ele>542</ele>
        <time>2019-08-17T09:18:51Z</time>
      </trkpt>
      <trkpt lat="44.25003" lon="5.83942">
        <ele>542</ele>
        <time>2019-08-17T09:18:52Z</time>
      </trkpt>
      <trkpt lat="44.25005" lon="5.83932">
        <ele>542</ele>
        <time>2019-08-17T09:18:53Z</time>
      </trkpt>
      <trkpt lat="44.25008" lon="5.83921">
        <ele>542</ele>
        <time>2019-08-17T09:18:54Z</time>
      </trkpt>
      <trkpt lat="44.25011" lon="5.83911">
        <ele>542</ele>
        <time>2019-08-17T09:18:55Z</time>
      </trkpt>
      <trkpt lat="44.25013" lon="5.83901">
        <ele>542</ele>
        <time>2019-08-17T09:18:56Z</time>
      </trkpt>
      <trkpt lat="44.25015" lon="5.8389">
        <ele>542</ele>
        <time>2019-08-17T09:18:57Z</time>
      </trkpt>
      <trkpt lat="44.25017" lon="5.83879">
        <ele>542</ele>
        <time>2019-08-17T09:18:58Z</time>
      </trkpt>
      <trkpt lat="44.25019" lon="5.83868">
        <ele>542</ele>
        <time>2019-08-17T09:18:59Z</time>
      </trkpt>
      <trkpt lat="44.25021" lon="5.83856">
        <ele>542</ele>
        <time>2019-08-17T09:19:00Z</time>
      </trkpt>
      <trkpt lat="44.25023" lon="5.83846">
        <ele>542</ele>
        <time>2019-08-17T09:19:01Z</time>
      </trkpt>
      <trkpt lat="44.25025" lon="5.83834">
        <ele>542</ele>
        <time>2019-08-17T09:19:02Z</time>
      </trkpt>
      <trkpt lat="44.25027" lon="5.83822">
        <ele>542</ele>
        <time>2019-08-17T09:19:03Z</time>
      </trkpt>
      <trkpt lat="44.25029" lon="5.83811">
        <ele>542</ele>
        <time>2019-08-17T09:19:04Z</time>
      </trkpt>
      <trkpt lat="44.25031" lon="5.838">
        <ele>541</ele>
        <time>2019-08-17T09:19:05Z</time>
      </trkpt>
      <trkpt lat="44.25034" lon="5.83788">
        <ele>541</ele>
        <time>2019-08-17T09:19:06Z</time>
      </trkpt>
      <trkpt lat="44.25036" lon="5.83777">
        <ele>541</ele>
        <time>2019-08-17T09:19:07Z</time>
      </trkpt>
      <trkpt lat="44.25038" lon="5.83765">
        <ele>541</ele>
        <time>2019-08-17T09:19:08Z</time>
      </trkpt>
      <trkpt lat="44.2504" lon="5.83754">
        <ele>540</ele>
        <time>2019-08-17T09:19:09Z</time>
      </trkpt>
      <trkpt lat="44.25043" lon="5.83742">
        <ele>540</ele>
        <time>2019-08-17T09:19:10Z</time>
      </trkpt>
      <trkpt lat="44.25045" lon="5.83731">
        <ele>539</ele>
        <time>2019-08-17T09:19:11Z</time>
      </trkpt>
      <trkpt lat="44.25047" lon="5.83719">
        <ele>539</ele>
        <time>2019-08-17T09:19:12Z</time>
      </trkpt>
      <trkpt lat="44.2505" lon="5.83708">
        <ele>539</ele>
        <time>2019-08-17T09:19:13Z</time>
      </trkpt>
      <trkpt lat="44.25052" lon="5.83696">
        <ele>538</ele>
        <time>2019-08-17T09:19:14Z</time>
      </trkpt>
      <trkpt lat="44.25054" lon="5.83684">
        <ele>538</ele>
        <time>2019-08-17T09:19:15Z</time>
      </trkpt>
      <trkpt lat="44.25056" lon="5.83672">
        <ele>538</ele>
        <time>2019-08-17T09:19:16Z</time>
      </trkpt>
      <trkpt lat="44.25058" lon="5.83661">
        <ele>538</ele>
        <time>2019-08-17T09:19:17Z</time>
      </trkpt>
      <trkpt lat="44.2506" lon="5.83649">
        <ele>537</ele>
        <time>2019-08-17T09:19:18Z</time>
      </trkpt>
      <trkpt lat="44.25062" lon="5.83638">
        <ele>537</ele>
        <time>2019-08-17T09:19:19Z</time>
      </trkpt>
      <trkpt lat="44.25064" lon="5.83627">
        <ele>537</ele>
        <time>2019-08-17T09:19:20Z</time>
      </trkpt>
      <trkpt lat="44.25067" lon="5.83616">
        <ele>537</ele>
        <time>2019-08-17T09:19:21Z</time>
      </trkpt>
      <trkpt lat="44.25069" lon="5.83605">
        <ele>537</ele>
        <time>2019-08-17T09:19:22Z</time>
      </trkpt>
      <trkpt lat="44.25071" lon="5.83594">
        <ele>537</ele>
        <time>2019-08-17T09:19:23Z</time>
      </trkpt>
      <trkpt lat="44.25073" lon="5.83582">
        <ele>537</ele>
        <time>2019-08-17T09:19:24Z</time>
      </trkpt>
      <trkpt lat="44.25075" lon="5.83572">
        <ele>537</ele>
        <time>2019-08-17T09:19:25Z</time>
      </trkpt>
      <trkpt lat="44.25077" lon="5.83561">
        <ele>537</ele>
        <time>2019-08-17T09:19:26Z</time>
      </trkpt>
      <trkpt lat="44.25079" lon="5.8355">
        <ele>537</ele>
        <time>2019-08-17T09:19:27Z</time>
      </trkpt>
      <trkpt lat="44.25082" lon="5.83539">
        <ele>537</ele>
        <time>2019-08-17T09:19:28Z</time>
      </trkpt>
      <trkpt lat="44.25084" lon="5.83529">
        <ele>537</ele>
        <time>2019-08-17T09:19:29Z</time>
      </trkpt>
      <trkpt lat="44.25086" lon="5.83518">
        <ele>537</ele>
        <time>2019-08-17T09:19:30Z</time>
      </trkpt>
      <trkpt lat="44.25089" lon="5.83507">
        <ele>537</ele>
        <time>2019-08-17T09:19:31Z</time>
      </trkpt>
      <trkpt lat="44.25092" lon="5.83497">
        <ele>537</ele>
        <time>2019-08-17T09:19:32Z</time>
      </trkpt>
      <trkpt lat="44.25096" lon="5.83486">
        <ele>536</ele>
        <time>2019-08-17T09:19:33Z</time>
      </trkpt>
      <trkpt lat="44.251" lon="5.83476">
        <ele>536</ele>
        <time>2019-08-17T09:19:34Z</time>
      </trkpt>
      <trkpt lat="44.25104" lon="5.83466">
        <ele>536</ele>
        <time>2019-08-17T09:19:35Z</time>
      </trkpt>
      <trkpt lat="44.25108" lon="5.83457">
        <ele>536</ele>
        <time>2019-08-17T09:19:36Z</time>
      </trkpt>
      <trkpt lat="44.25113" lon="5.83448">
        <ele>536</ele>
        <time>2019-08-17T09:19:37Z</time>
      </trkpt>
      <trkpt lat="44.25118" lon="5.83439">
        <ele>536</ele>
        <time>2019-08-17T09:19:38Z</time>
      </trkpt>
      <trkpt lat="44.25123" lon="5.8343">
        <ele>536</ele>
        <time>2019-08-17T09:19:39Z</time>
      </trkpt>
      <trkpt lat="44.25129" lon="5.83422">
        <ele>536</ele>
        <time>2019-08-17T09:19:40Z</time>
      </trkpt>
      <trkpt lat="44.25135" lon="5.83414">
        <ele>536</ele>
        <time>2019-08-17T09:19:41Z</time>
      </trkpt>
      <trkpt lat="44.25141" lon="5.83406">
        <ele>535</ele>
        <time>2019-08-17T09:19:42Z</time>
      </trkpt>
      <trkpt lat="44.25147" lon="5.83399">
        <ele>535</ele>
        <time>2019-08-17T09:19:43Z</time>
      </trkpt>
      <trkpt lat="44.25154" lon="5.83392">
        <ele>535</ele>
        <time>2019-08-17T09:19:44Z</time>
      </trkpt>
      <trkpt lat="44.25161" lon="5.83385">
        <ele>535</ele>
        <time>2019-08-17T09:19:45Z</time>
      </trkpt>
      <trkpt lat="44.25168" lon="5.83379">
        <ele>534</ele>
        <time>2019-08-17T09:19:46Z</time>
      </trkpt>
      <trkpt lat="44.25175" lon="5.83373">
        <ele>534</ele>
        <time>2019-08-17T09:19:47Z</time>
      </trkpt>
      <trkpt lat="44.25182" lon="5.83367">
        <ele>534</ele>
        <time>2019-08-17T09:19:48Z</time>
      </trkpt>
      <trkpt lat="44.2519" lon="5.83361">
        <ele>534</ele>
        <time>2019-08-17T09:19:49Z</time>
      </trkpt>
      <trkpt lat="44.25198" lon="5.83355">
        <ele>534</ele>
        <time>2019-08-17T09:19:50Z</time>
      </trkpt>
      <trkpt lat="44.25205" lon="5.8335">
        <ele>534</ele>
        <time>2019-08-17T09:19:51Z</time>
      </trkpt>
      <trkpt lat="44.25213" lon="5.83344">
        <ele>533</ele>
        <time>2019-08-17T09:19:52Z</time>
      </trkpt>
      <trkpt lat="44.25221" lon="5.83338">
        <ele>533</ele>
        <time>2019-08-17T09:19:53Z</time>
      </trkpt>
      <trkpt lat="44.25229" lon="5.83332">
        <ele>533</ele>
        <time>2019-08-17T09:19:54Z</time>
      </trkpt>
      <trkpt lat="44.25236" lon="5.83326">
        <ele>533</ele>
        <time>2019-08-17T09:19:55Z</time>
      </trkpt>
      <trkpt lat="44.25244" lon="5.8332">
        <ele>532</ele>
        <time>2019-08-17T09:19:56Z</time>
      </trkpt>
      <trkpt lat="44.25252" lon="5.83313">
        <ele>532</ele>
        <time>2019-08-17T09:19:57Z</time>
      </trkpt>
      <trkpt lat="44.2526" lon="5.83307">
        <ele>532</ele>
        <time>2019-08-17T09:19:58Z</time>
      </trkpt>
      <trkpt lat="44.25268" lon="5.833">
        <ele>532</ele>
        <time>2019-08-17T09:19:59Z</time>
      </trkpt>
      <trkpt lat="44.25276" lon="5.83293">
        <ele>531</ele>
        <time>2019-08-17T09:20:00Z</time>
      </trkpt>
      <trkpt lat="44.25284" lon="5.83285">
        <ele>531</ele>
        <time>2019-08-17T09:20:01Z</time>
      </trkpt>
      <trkpt lat="44.25291" lon="5.83278">
        <ele>531</ele>
        <time>2019-08-17T09:20:02Z</time>
      </trkpt>
      <trkpt lat="44.25299" lon="5.8327">
        <ele>530</ele>
        <time>2019-08-17T09:20:03Z</time>
      </trkpt>
      <trkpt lat="44.25307" lon="5.83262">
        <ele>530</ele>
        <time>2019-08-17T09:20:04Z</time>
      </trkpt>
      <trkpt lat="44.25315" lon="5.83254">
        <ele>529</ele>
        <time>2019-08-17T09:20:05Z</time>
      </trkpt>
      <trkpt lat="44.25323" lon="5.83247">
        <ele>529</ele>
        <time>2019-08-17T09:20:06Z</time>
      </trkpt>
      <trkpt lat="44.25331" lon="5.83239">
        <ele>528</ele>
        <time>2019-08-17T09:20:07Z</time>
      </trkpt>
      <trkpt lat="44.25338" lon="5.83231">
        <ele>528</ele>
        <time>2019-08-17T09:20:08Z</time>
      </trkpt>
      <trkpt lat="44.25346" lon="5.83223">
        <ele>528</ele>
        <time>2019-08-17T09:20:09Z</time>
      </trkpt>
      <trkpt lat="44.25354" lon="5.83216">
        <ele>527</ele>
        <time>2019-08-17T09:20:10Z</time>
      </trkpt>
      <trkpt lat="44.25362" lon="5.83208">
        <ele>527</ele>
        <time>2019-08-17T09:20:11Z</time>
      </trkpt>
      <trkpt lat="44.25369" lon="5.83201">
        <ele>527</ele>
        <time>2019-08-17T09:20:12Z</time>
      </trkpt>
      <trkpt lat="44.25377" lon="5.83193">
        <ele>527</ele>
        <time>2019-08-17T09:20:13Z</time>
      </trkpt>
      <trkpt lat="44.25384" lon="5.83185">
        <ele>527</ele>
        <time>2019-08-17T09:20:14Z</time>
      </trkpt>
      <trkpt lat="44.25391" lon="5.83177">
        <ele>527</ele>
        <time>2019-08-17T09:20:15Z</time>
      </trkpt>
      <trkpt lat="44.25398" lon="5.83169">
        <ele>527</ele>
        <time>2019-08-17T09:20:16Z</time>
      </trkpt>
      <trkpt lat="44.25405" lon="5.83161">
        <ele>527</ele>
        <time>2019-08-17T09:20:17Z</time>
      </trkpt>
      <trkpt lat="44.25412" lon="5.83153">
        <ele>527</ele>
        <time>2019-08-17T09:20:18Z</time>
      </trkpt>
      <trkpt lat="44.25418" lon="5.83144">
        <ele>527</ele>
        <time>2019-08-17T09:20:19Z</time>
      </trkpt>
      <trkpt lat="44.25424" lon="5.83136">
        <ele>527</ele>
        <time>2019-08-17T09:20:20Z</time>
      </trkpt>
      <trkpt lat="44.2543" lon="5.83127">
        <ele>527</ele>
        <time>2019-08-17T09:20:21Z</time>
      </trkpt>
      <trkpt lat="44.25436" lon="5.83117">
        <ele>527</ele>
        <time>2019-08-17T09:20:22Z</time>
      </trkpt>
      <trkpt lat="44.25441" lon="5.83108">
        <ele>527</ele>
        <time>2019-08-17T09:20:23Z</time>
      </trkpt>
      <trkpt lat="44.25447" lon="5.83099">
        <ele>527</ele>
        <time>2019-08-17T09:20:24Z</time>
      </trkpt>
      <trkpt lat="44.25452" lon="5.83089">
        <ele>527</ele>
        <time>2019-08-17T09:20:25Z</time>
      </trkpt>
      <trkpt lat="44.25457" lon="5.83079">
        <ele>526</ele>
        <time>2019-08-17T09:20:26Z</time>
      </trkpt>
      <trkpt lat="44.25461" lon="5.83068">
        <ele>526</ele>
        <time>2019-08-17T09:20:27Z</time>
      </trkpt>
      <trkpt lat="44.25465" lon="5.83058">
        <ele>526</ele>
        <time>2019-08-17T09:20:28Z</time>
      </trkpt>
      <trkpt lat="44.2547" lon="5.83048">
        <ele>526</ele>
        <time>2019-08-17T09:20:29Z</time>
      </trkpt>
      <trkpt lat="44.25473" lon="5.83037">
        <ele>526</ele>
        <time>2019-08-17T09:20:30Z</time>
      </trkpt>
      <trkpt lat="44.25477" lon="5.83026">
        <ele>526</ele>
        <time>2019-08-17T09:20:31Z</time>
      </trkpt>
      <trkpt lat="44.25481" lon="5.83015">
        <ele>526</ele>
        <time>2019-08-17T09:20:32Z</time>
      </trkpt>
      <trkpt lat="44.25484" lon="5.83005">
        <ele>526</ele>
        <time>2019-08-17T09:20:33Z</time>
      </trkpt>
      <trkpt lat="44.25487" lon="5.82995">
        <ele>526</ele>
        <time>2019-08-17T09:20:34Z</time>
      </trkpt>
      <trkpt lat="44.2549" lon="5.82984">
        <ele>526</ele>
        <time>2019-08-17T09:20:35Z</time>
      </trkpt>
      <trkpt lat="44.25492" lon="5.82974">
        <ele>526</ele>
        <time>2019-08-17T09:20:36Z</time>
      </trkpt>
      <trkpt lat="44.25495" lon="5.82964">
        <ele>526</ele>
        <time>2019-08-17T09:20:37Z</time>
      </trkpt>
      <trkpt lat="44.25498" lon="5.82954">
        <ele>526</ele>
        <time>2019-08-17T09:20:38Z</time>
      </trkpt>
      <trkpt lat="44.25501" lon="5.82944">
        <ele>526</ele>
        <time>2019-08-17T09:20:39Z</time>
      </trkpt>
      <trkpt lat="44.25503" lon="5.82934">
        <ele>526</ele>
        <time>2019-08-17T09:20:40Z</time>
      </trkpt>
      <trkpt lat="44.25506" lon="5.82924">
        <ele>526</ele>
        <time>2019-08-17T09:20:41Z</time>
      </trkpt>
      <trkpt lat="44.25508" lon="5.82914">
        <ele>526</ele>
        <time>2019-08-17T09:20:42Z</time>
      </trkpt>
      <trkpt lat="44.2551" lon="5.82905">
        <ele>526</ele>
        <time>2019-08-17T09:20:43Z</time>
      </trkpt>
      <trkpt lat="44.25512" lon="5.82895">
        <ele>526</ele>
        <time>2019-08-17T09:20:44Z</time>
      </trkpt>
      <trkpt lat="44.25514" lon="5.82886">
        <ele>526</ele>
        <time>2019-08-17T09:20:45Z</time>
      </trkpt>
      <trkpt lat="44.25517" lon="5.82876">
        <ele>526</ele>
        <time>2019-08-17T09:20:46Z</time>
      </trkpt>
      <trkpt lat="44.25519" lon="5.82867">
        <ele>526</ele>
        <time>2019-08-17T09:20:47Z</time>
      </trkpt>
      <trkpt lat="44.25521" lon="5.82859">
        <ele>526</ele>
        <time>2019-08-17T09:20:48Z</time>
      </trkpt>
      <trkpt lat="44.25523" lon="5.82849">
        <ele>526</ele>
        <time>2019-08-17T09:20:49Z</time>
      </trkpt>
      <trkpt lat="44.25524" lon="5.82838">
        <ele>526</ele>
        <time>2019-08-17T09:20:50Z</time>
      </trkpt>
      <trkpt lat="44.25526" lon="5.82828">
        <ele>526</ele>
        <time>2019-08-17T09:20:51Z</time>
      </trkpt>
      <trkpt lat="44.25529" lon="5.8282">
        <ele>526</ele>
        <time>2019-08-17T09:20:52Z</time>
      </trkpt>
      <trkpt lat="44.25531" lon="5.82811">
        <ele>526</ele>
        <time>2019-08-17T09:20:53Z</time>
      </trkpt>
      <trkpt lat="44.25534" lon="5.82803">
        <ele>526</ele>
        <time>2019-08-17T09:20:54Z</time>
      </trkpt>
      <trkpt lat="44.25536" lon="5.82794">
        <ele>526</ele>
        <time>2019-08-17T09:20:55Z</time>
      </trkpt>
      <trkpt lat="44.25539" lon="5.82786">
        <ele>526</ele>
        <time>2019-08-17T09:20:56Z</time>
      </trkpt>
      <trkpt lat="44.2554" lon="5.82776">
        <ele>526</ele>
        <time>2019-08-17T09:20:57Z</time>
      </trkpt>
      <trkpt lat="44.25542" lon="5.82768">
        <ele>526</ele>
        <time>2019-08-17T09:20:58Z</time>
      </trkpt>
      <trkpt lat="44.25546" lon="5.82761">
        <ele>526</ele>
        <time>2019-08-17T09:20:59Z</time>
      </trkpt>
      <trkpt lat="44.25548" lon="5.82753">
        <ele>527</ele>
        <time>2019-08-17T09:21:00Z</time>
      </trkpt>
      <trkpt lat="44.25551" lon="5.82746">
        <ele>527</ele>
        <time>2019-08-17T09:21:01Z</time>
      </trkpt>
      <trkpt lat="44.25554" lon="5.82739">
        <ele>527</ele>
        <time>2019-08-17T09:21:02Z</time>
      </trkpt>
      <trkpt lat="44.25556" lon="5.82731">
        <ele>527</ele>
        <time>2019-08-17T09:21:03Z</time>
      </trkpt>
      <trkpt lat="44.25559" lon="5.82724">
        <ele>528</ele>
        <time>2019-08-17T09:21:04Z</time>
      </trkpt>
      <trkpt lat="44.25562" lon="5.82717">
        <ele>528</ele>
        <time>2019-08-17T09:21:05Z</time>
      </trkpt>
      <trkpt lat="44.25564" lon="5.82709">
        <ele>528</ele>
        <time>2019-08-17T09:21:06Z</time>
      </trkpt>
      <trkpt lat="44.25567" lon="5.82702">
        <ele>528</ele>
        <time>2019-08-17T09:21:07Z</time>
      </trkpt>
      <trkpt lat="44.2557" lon="5.82695">
        <ele>528</ele>
        <time>2019-08-17T09:21:08Z</time>
      </trkpt>
      <trkpt lat="44.25573" lon="5.82689">
        <ele>529</ele>
        <time>2019-08-17T09:21:09Z</time>
      </trkpt>
      <trkpt lat="44.25576" lon="5.82682">
        <ele>529</ele>
        <time>2019-08-17T09:21:10Z</time>
      </trkpt>
      <trkpt lat="44.2558" lon="5.82675">
        <ele>529</ele>
        <time>2019-08-17T09:21:11Z</time>
      </trkpt>
      <trkpt lat="44.25583" lon="5.82668">
        <ele>529</ele>
        <time>2019-08-17T09:21:12Z</time>
      </trkpt>
      <trkpt lat="44.25587" lon="5.82663">
        <ele>529</ele>
        <time>2019-08-17T09:21:13Z</time>
      </trkpt>
      <trkpt lat="44.25591" lon="5.82656">
        <ele>529</ele>
        <time>2019-08-17T09:21:14Z</time>
      </trkpt>
      <trkpt lat="44.25594" lon="5.82649">
        <ele>529</ele>
        <time>2019-08-17T09:21:15Z</time>
      </trkpt>
      <trkpt lat="44.25597" lon="5.82642">
        <ele>529</ele>
        <time>2019-08-17T09:21:16Z</time>
      </trkpt>
      <trkpt lat="44.256" lon="5.82636">
        <ele>530</ele>
        <time>2019-08-17T09:21:17Z</time>
      </trkpt>
      <trkpt lat="44.25605" lon="5.8263">
        <ele>530</ele>
        <time>2019-08-17T09:21:18Z</time>
      </trkpt>
      <trkpt lat="44.25608" lon="5.82624">
        <ele>530</ele>
        <time>2019-08-17T09:21:19Z</time>
      </trkpt>
      <trkpt lat="44.25612" lon="5.82618">
        <ele>530</ele>
        <time>2019-08-17T09:21:20Z</time>
      </trkpt>
      <trkpt lat="44.25616" lon="5.82612">
        <ele>530</ele>
        <time>2019-08-17T09:21:21Z</time>
      </trkpt>
      <trkpt lat="44.2562" lon="5.82606">
        <ele>531</ele>
        <time>2019-08-17T09:21:22Z</time>
      </trkpt>
      <trkpt lat="44.25623" lon="5.826">
        <ele>531</ele>
        <time>2019-08-17T09:21:23Z</time>
      </trkpt>
      <trkpt lat="44.25627" lon="5.82593">
        <ele>531</ele>
        <time>2019-08-17T09:21:24Z</time>
      </trkpt>
      <trkpt lat="44.2563" lon="5.82587">
        <ele>532</ele>
        <time>2019-08-17T09:21:25Z</time>
      </trkpt>
      <trkpt lat="44.25634" lon="5.82581">
        <ele>532</ele>
        <time>2019-08-17T09:21:26Z</time>
      </trkpt>
      <trkpt lat="44.25637" lon="5.82575">
        <ele>532</ele>
        <time>2019-08-17T09:21:27Z</time>
      </trkpt>
      <trkpt lat="44.25642" lon="5.8257">
        <ele>532</ele>
        <time>2019-08-17T09:21:28Z</time>
      </trkpt>
      <trkpt lat="44.25645" lon="5.82564">
        <ele>533</ele>
        <time>2019-08-17T09:21:29Z</time>
      </trkpt>
      <trkpt lat="44.25649" lon="5.82559">
        <ele>533</ele>
        <time>2019-08-17T09:21:30Z</time>
      </trkpt>
      <trkpt lat="44.25653" lon="5.82553">
        <ele>533</ele>
        <time>2019-08-17T09:21:31Z</time>
      </trkpt>
      <trkpt lat="44.25657" lon="5.82548">
        <ele>533</ele>
        <time>2019-08-17T09:21:32Z</time>
      </trkpt>
      <trkpt lat="44.25661" lon="5.82543">
        <ele>534</ele>
        <time>2019-08-17T09:21:33Z</time>
      </trkpt>
      <trkpt lat="44.25665" lon="5.82538">
        <ele>534</ele>
        <time>2019-08-17T09:21:34Z</time>
      </trkpt>
      <trkpt lat="44.25669" lon="5.82534">
        <ele>534</ele>
        <time>2019-08-17T09:21:35Z</time>
      </trkpt>
      <trkpt lat="44.25673" lon="5.82528">
        <ele>534</ele>
        <time>2019-08-17T09:21:36Z</time>
      </trkpt>
      <trkpt lat="44.25676" lon="5.82524">
        <ele>535</ele>
        <time>2019-08-17T09:21:37Z</time>
      </trkpt>
      <trkpt lat="44.25681" lon="5.82519">
        <ele>535</ele>
        <time>2019-08-17T09:21:38Z</time>
      </trkpt>
      <trkpt lat="44.25685" lon="5.82515">
        <ele>535</ele>
        <time>2019-08-17T09:21:39Z</time>
      </trkpt>
      <trkpt lat="44.25689" lon="5.82511">
        <ele>535</ele>
        <time>2019-08-17T09:21:40Z</time>
      </trkpt>
      <trkpt lat="44.25693" lon="5.82507">
        <ele>535</ele>
        <time>2019-08-17T09:21:41Z</time>
      </trkpt>
      <trkpt lat="44.25697" lon="5.82502">
        <ele>535</ele>
        <time>2019-08-17T09:21:42Z</time>
      </trkpt>
      <trkpt lat="44.25701" lon="5.82498">
        <ele>535</ele>
        <time>2019-08-17T09:21:43Z</time>
      </trkpt>
      <trkpt lat="44.25705" lon="5.82493">
        <ele>536</ele>
        <time>2019-08-17T09:21:44Z</time>
      </trkpt>
      <trkpt lat="44.2571" lon="5.82489">
        <ele>536</ele>
        <time>2019-08-17T09:21:45Z</time>
      </trkpt>
      <trkpt lat="44.25714" lon="5.82484">
        <ele>536</ele>
        <time>2019-08-17T09:21:46Z</time>
      </trkpt>
      <trkpt lat="44.25718" lon="5.8248">
        <ele>536</ele>
        <time>2019-08-17T09:21:47Z</time>
      </trkpt>
      <trkpt lat="44.25723" lon="5.82475">
        <ele>536</ele>
        <time>2019-08-17T09:21:48Z</time>
      </trkpt>
      <trkpt lat="44.25727" lon="5.82471">
        <ele>537</ele>
        <time>2019-08-17T09:21:49Z</time>
      </trkpt>
      <trkpt lat="44.25732" lon="5.82466">
        <ele>537</ele>
        <time>2019-08-17T09:21:50Z</time>
      </trkpt>
      <trkpt lat="44.25736" lon="5.82462">
        <ele>537</ele>
        <time>2019-08-17T09:21:51Z</time>
      </trkpt>
      <trkpt lat="44.25741" lon="5.82457">
        <ele>537</ele>
        <time>2019-08-17T09:21:52Z</time>
      </trkpt>
      <trkpt lat="44.25745" lon="5.82453">
        <ele>537</ele>
        <time>2019-08-17T09:21:53Z</time>
      </trkpt>
      <trkpt lat="44.2575" lon="5.82448">
        <ele>537</ele>
        <time>2019-08-17T09:21:54Z</time>
      </trkpt>
      <trkpt lat="44.25754" lon="5.82444">
        <ele>537</ele>
        <time>2019-08-17T09:21:55Z</time>
      </trkpt>
      <trkpt lat="44.25759" lon="5.82439">
        <ele>537</ele>
        <time>2019-08-17T09:21:56Z</time>
      </trkpt>
      <trkpt lat="44.25763" lon="5.82435">
        <ele>537</ele>
        <time>2019-08-17T09:21:57Z</time>
      </trkpt>
      <trkpt lat="44.25768" lon="5.82431">
        <ele>537</ele>
        <time>2019-08-17T09:21:58Z</time>
      </trkpt>
      <trkpt lat="44.25773" lon="5.82426">
        <ele>537</ele>
        <time>2019-08-17T09:21:59Z</time>
      </trkpt>
      <trkpt lat="44.25777" lon="5.82422">
        <ele>537</ele>
        <time>2019-08-17T09:22:00Z</time>
      </trkpt>
      <trkpt lat="44.25782" lon="5.82418">
        <ele>537</ele>
        <time>2019-08-17T09:22:01Z</time>
      </trkpt>
      <trkpt lat="44.25787" lon="5.82414">
        <ele>537</ele>
        <time>2019-08-17T09:22:02Z</time>
      </trkpt>
      <trkpt lat="44.25792" lon="5.8241">
        <ele>538</ele>
        <time>2019-08-17T09:22:03Z</time>
      </trkpt>
      <trkpt lat="44.25796" lon="5.82406">
        <ele>538</ele>
        <time>2019-08-17T09:22:04Z</time>
      </trkpt>
      <trkpt lat="44.25801" lon="5.82403">
        <ele>538</ele>
        <time>2019-08-17T09:22:05Z</time>
      </trkpt>
      <trkpt lat="44.25806" lon="5.82399">
        <ele>539</ele>
        <time>2019-08-17T09:22:06Z</time>
      </trkpt>
      <trkpt lat="44.25811" lon="5.82396">
        <ele>539</ele>
        <time>2019-08-17T09:22:07Z</time>
      </trkpt>
      <trkpt lat="44.25816" lon="5.82392">
        <ele>539</ele>
        <time>2019-08-17T09:22:08Z</time>
      </trkpt>
      <trkpt lat="44.25821" lon="5.82389">
        <ele>539</ele>
        <time>2019-08-17T09:22:09Z</time>
      </trkpt>
      <trkpt lat="44.25826" lon="5.82385">
        <ele>540</ele>
        <time>2019-08-17T09:22:10Z</time>
      </trkpt>
      <trkpt lat="44.25831" lon="5.82382">
        <ele>540</ele>
        <time>2019-08-17T09:22:11Z</time>
      </trkpt>
      <trkpt lat="44.25837" lon="5.82379">
        <ele>540</ele>
        <time>2019-08-17T09:22:12Z</time>
      </trkpt>
      <trkpt lat="44.25842" lon="5.82377">
        <ele>541</ele>
        <time>2019-08-17T09:22:13Z</time>
      </trkpt>
      <trkpt lat="44.25847" lon="5.82374">
        <ele>541</ele>
        <time>2019-08-17T09:22:14Z</time>
      </trkpt>
      <trkpt lat="44.25852" lon="5.82372">
        <ele>541</ele>
        <time>2019-08-17T09:22:15Z</time>
      </trkpt>
      <trkpt lat="44.25857" lon="5.8237">
        <ele>542</ele>
        <time>2019-08-17T09:22:16Z</time>
      </trkpt>
      <trkpt lat="44.25862" lon="5.82368">
        <ele>542</ele>
        <time>2019-08-17T09:22:17Z</time>
      </trkpt>
      <trkpt lat="44.25868" lon="5.82366">
        <ele>542</ele>
        <time>2019-08-17T09:22:18Z</time>
      </trkpt>
      <trkpt lat="44.25873" lon="5.82364">
        <ele>542</ele>
        <time>2019-08-17T09:22:19Z</time>
      </trkpt>
      <trkpt lat="44.25878" lon="5.82362">
        <ele>543</ele>
        <time>2019-08-17T09:22:20Z</time>
      </trkpt>
      <trkpt lat="44.25884" lon="5.8236">
        <ele>543</ele>
        <time>2019-08-17T09:22:21Z</time>
      </trkpt>
      <trkpt lat="44.2589" lon="5.82359">
        <ele>543</ele>
        <time>2019-08-17T09:22:22Z</time>
      </trkpt>
      <trkpt lat="44.25895" lon="5.82357">
        <ele>543</ele>
        <time>2019-08-17T09:22:23Z</time>
      </trkpt>
      <trkpt lat="44.25901" lon="5.82356">
        <ele>543</ele>
        <time>2019-08-17T09:22:24Z</time>
      </trkpt>
      <trkpt lat="44.25906" lon="5.82355">
        <ele>543</ele>
        <time>2019-08-17T09:22:25Z</time>
      </trkpt>
      <trkpt lat="44.25912" lon="5.82353">
        <ele>544</ele>
        <time>2019-08-17T09:22:26Z</time>
      </trkpt>
      <trkpt lat="44.25918" lon="5.82352">
        <ele>544</ele>
        <time>2019-08-17T09:22:27Z</time>
      </trkpt>
      <trkpt lat="44.25924" lon="5.82352">
        <ele>545</ele>
        <time>2019-08-17T09:22:28Z</time>
      </trkpt>
      <trkpt lat="44.2593" lon="5.82351">
        <ele>545</ele>
        <time>2019-08-17T09:22:29Z</time>
      </trkpt>
      <trkpt lat="44.25935" lon="5.8235">
        <ele>545</ele>
        <time>2019-08-17T09:22:30Z</time>
      </trkpt>
      <trkpt lat="44.25941" lon="5.82349">
        <ele>546</ele>
        <time>2019-08-17T09:22:31Z</time>
      </trkpt>
      <trkpt lat="44.25947" lon="5.82349">
        <ele>546</ele>
        <time>2019-08-17T09:22:32Z</time>
      </trkpt>
      <trkpt lat="44.25953" lon="5.82348">
        <ele>546</ele>
        <time>2019-08-17T09:22:33Z</time>
      </trkpt>
      <trkpt lat="44.25959" lon="5.82348">
        <ele>547</ele>
        <time>2019-08-17T09:22:34Z</time>
      </trkpt>
      <trkpt lat="44.25965" lon="5.82347">
        <ele>547</ele>
        <time>2019-08-17T09:22:35Z</time>
      </trkpt>
      <trkpt lat="44.25971" lon="5.82346">
        <ele>547</ele>
        <time>2019-08-17T09:22:36Z</time>
      </trkpt>
      <trkpt lat="44.25977" lon="5.82346">
        <ele>548</ele>
        <time>2019-08-17T09:22:37Z</time>
      </trkpt>
      <trkpt lat="44.25984" lon="5.82345">
        <ele>548</ele>
        <time>2019-08-17T09:22:38Z</time>
      </trkpt>
      <trkpt lat="44.2599" lon="5.82345">
        <ele>548</ele>
        <time>2019-08-17T09:22:39Z</time>
      </trkpt>
      <trkpt lat="44.25996" lon="5.82344">
        <ele>549</ele>
        <time>2019-08-17T09:22:40Z</time>
      </trkpt>
      <trkpt lat="44.26002" lon="5.82344">
        <ele>549</ele>
        <time>2019-08-17T09:22:41Z</time>
      </trkpt>
      <trkpt lat="44.26008" lon="5.82343">
        <ele>549</ele>
        <time>2019-08-17T09:22:42Z</time>
      </trkpt>
      <trkpt lat="44.26014" lon="5.82342">
        <ele>549</ele>
        <time>2019-08-17T09:22:43Z</time>
      </trkpt>
      <trkpt lat="44.26021" lon="5.82342">
        <ele>549</ele>
        <time>2019-08-17T09:22:44Z</time>
      </trkpt>
      <trkpt lat="44.26027" lon="5.82341">
        <ele>549</ele>
        <time>2019-08-17T09:22:45Z</time>
      </trkpt>
      <trkpt lat="44.26034" lon="5.8234">
        <ele>549</ele>
        <time>2019-08-17T09:22:46Z</time>
      </trkpt>
      <trkpt lat="44.26041" lon="5.82339">
        <ele>549</ele>
        <time>2019-08-17T09:22:47Z</time>
      </trkpt>
      <trkpt lat="44.26047" lon="5.82338">
        <ele>549</ele>
        <time>2019-08-17T09:22:48Z</time>
      </trkpt>
      <trkpt lat="44.26054" lon="5.82338">
        <ele>550</ele>
        <time>2019-08-17T09:22:49Z</time>
      </trkpt>
      <trkpt lat="44.2606" lon="5.82336">
        <ele>550</ele>
        <time>2019-08-17T09:22:50Z</time>
      </trkpt>
      <trkpt lat="44.26067" lon="5.82335">
        <ele>550</ele>
        <time>2019-08-17T09:22:51Z</time>
      </trkpt>
      <trkpt lat="44.26074" lon="5.82333">
        <ele>550</ele>
        <time>2019-08-17T09:22:52Z</time>
      </trkpt>
      <trkpt lat="44.2608" lon="5.82331">
        <ele>550</ele>
        <time>2019-08-17T09:22:53Z</time>
      </trkpt>
      <trkpt lat="44.26086" lon="5.82329">
        <ele>550</ele>
        <time>2019-08-17T09:22:54Z</time>
      </trkpt>
      <trkpt lat="44.26093" lon="5.82326">
        <ele>550</ele>
        <time>2019-08-17T09:22:55Z</time>
      </trkpt>
      <trkpt lat="44.261" lon="5.82324">
        <ele>550</ele>
        <time>2019-08-17T09:22:56Z</time>
      </trkpt>
      <trkpt lat="44.26107" lon="5.8232">
        <ele>550</ele>
        <time>2019-08-17T09:22:57Z</time>
      </trkpt>
      <trkpt lat="44.26113" lon="5.82317">
        <ele>550</ele>
        <time>2019-08-17T09:22:58Z</time>
      </trkpt>
      <trkpt lat="44.2612" lon="5.82314">
        <ele>550</ele>
        <time>2019-08-17T09:22:59Z</time>
      </trkpt>
      <trkpt lat="44.26126" lon="5.8231">
        <ele>550</ele>
        <time>2019-08-17T09:23:00Z</time>
      </trkpt>
      <trkpt lat="44.26133" lon="5.82307">
        <ele>549</ele>
        <time>2019-08-17T09:23:01Z</time>
      </trkpt>
      <trkpt lat="44.2614" lon="5.82304">
        <ele>548</ele>
        <time>2019-08-17T09:23:02Z</time>
      </trkpt>
      <trkpt lat="44.26147" lon="5.82301">
        <ele>547</ele>
        <time>2019-08-17T09:23:03Z</time>
      </trkpt>
      <trkpt lat="44.26153" lon="5.82297">
        <ele>546</ele>
        <time>2019-08-17T09:23:04Z</time>
      </trkpt>
      <trkpt lat="44.2616" lon="5.82294">
        <ele>546</ele>
        <time>2019-08-17T09:23:05Z</time>
      </trkpt>
      <trkpt lat="44.26167" lon="5.82291">
        <ele>545</ele>
        <time>2019-08-17T09:23:06Z</time>
      </trkpt>
      <trkpt lat="44.26173" lon="5.82288">
        <ele>545</ele>
        <time>2019-08-17T09:23:07Z</time>
      </trkpt>
      <trkpt lat="44.2618" lon="5.82284">
        <ele>545</ele>
        <time>2019-08-17T09:23:08Z</time>
      </trkpt>
      <trkpt lat="44.26187" lon="5.82281">
        <ele>544</ele>
        <time>2019-08-17T09:23:09Z</time>
      </trkpt>
      <trkpt lat="44.26193" lon="5.82278">
        <ele>544</ele>
        <time>2019-08-17T09:23:10Z</time>
      </trkpt>
      <trkpt lat="44.262" lon="5.82274">
        <ele>543</ele>
        <time>2019-08-17T09:23:11Z</time>
      </trkpt>
      <trkpt lat="44.26206" lon="5.82271">
        <ele>543</ele>
        <time>2019-08-17T09:23:12Z</time>
      </trkpt>
      <trkpt lat="44.26212" lon="5.82268">
        <ele>542</ele>
        <time>2019-08-17T09:23:13Z</time>
      </trkpt>
      <trkpt lat="44.26219" lon="5.82264">
        <ele>542</ele>
        <time>2019-08-17T09:23:14Z</time>
      </trkpt>
      <trkpt lat="44.26226" lon="5.82261">
        <ele>542</ele>
        <time>2019-08-17T09:23:15Z</time>
      </trkpt>
      <trkpt lat="44.26232" lon="5.82258">
        <ele>541</ele>
        <time>2019-08-17T09:23:16Z</time>
      </trkpt>
      <trkpt lat="44.26239" lon="5.82254">
        <ele>541</ele>
        <time>2019-08-17T09:23:17Z</time>
      </trkpt>
      <trkpt lat="44.26245" lon="5.82251">
        <ele>541</ele>
        <time>2019-08-17T09:23:18Z</time>
      </trkpt>
      <trkpt lat="44.26252" lon="5.82247">
        <ele>541</ele>
        <time>2019-08-17T09:23:19Z</time>
      </trkpt>
      <trkpt lat="44.26258" lon="5.82244">
        <ele>540</ele>
        <time>2019-08-17T09:23:20Z</time>
      </trkpt>
      <trkpt lat="44.26265" lon="5.82241">
        <ele>540</ele>
        <time>2019-08-17T09:23:21Z</time>
      </trkpt>
      <trkpt lat="44.26271" lon="5.82237">
        <ele>540</ele>
        <time>2019-08-17T09:23:22Z</time>
      </trkpt>
      <trkpt lat="44.26278" lon="5.82234">
        <ele>539</ele>
        <time>2019-08-17T09:23:23Z</time>
      </trkpt>
      <trkpt lat="44.26284" lon="5.8223">
        <ele>539</ele>
        <time>2019-08-17T09:23:24Z</time>
      </trkpt>
      <trkpt lat="44.26291" lon="5.82226">
        <ele>538</ele>
        <time>2019-08-17T09:23:25Z</time>
      </trkpt>
      <trkpt lat="44.26297" lon="5.82223">
        <ele>538</ele>
        <time>2019-08-17T09:23:26Z</time>
      </trkpt>
      <trkpt lat="44.26304" lon="5.82219">
        <ele>538</ele>
        <time>2019-08-17T09:23:27Z</time>
      </trkpt>
      <trkpt lat="44.2631" lon="5.82215">
        <ele>537</ele>
        <time>2019-08-17T09:23:28Z</time>
      </trkpt>
      <trkpt lat="44.26317" lon="5.82211">
        <ele>537</ele>
        <time>2019-08-17T09:23:29Z</time>
      </trkpt>
      <trkpt lat="44.26324" lon="5.82207">
        <ele>537</ele>
        <time>2019-08-17T09:23:30Z</time>
      </trkpt>
      <trkpt lat="44.2633" lon="5.82204">
        <ele>537</ele>
        <time>2019-08-17T09:23:31Z</time>
      </trkpt>
      <trkpt lat="44.26337" lon="5.822">
        <ele>537</ele>
        <time>2019-08-17T09:23:32Z</time>
      </trkpt>
      <trkpt lat="44.26344" lon="5.82197">
        <ele>537</ele>
        <time>2019-08-17T09:23:33Z</time>
      </trkpt>
      <trkpt lat="44.2635" lon="5.82194">
        <ele>537</ele>
        <time>2019-08-17T09:23:34Z</time>
      </trkpt>
      <trkpt lat="44.26357" lon="5.82191">
        <ele>537</ele>
        <time>2019-08-17T09:23:35Z</time>
      </trkpt>
      <trkpt lat="44.26364" lon="5.82188">
        <ele>537</ele>
        <time>2019-08-17T09:23:36Z</time>
      </trkpt>
      <trkpt lat="44.26371" lon="5.82185">
        <ele>537</ele>
        <time>2019-08-17T09:23:37Z</time>
      </trkpt>
      <trkpt lat="44.26377" lon="5.82182">
        <ele>537</ele>
        <time>2019-08-17T09:23:38Z</time>
      </trkpt>
      <trkpt lat="44.26384" lon="5.82179">
        <ele>536</ele>
        <time>2019-08-17T09:23:39Z</time>
      </trkpt>
      <trkpt lat="44.26391" lon="5.82176">
        <ele>536</ele>
        <time>2019-08-17T09:23:40Z</time>
      </trkpt>
      <trkpt lat="44.26397" lon="5.82173">
        <ele>536</ele>
        <time>2019-08-17T09:23:41Z</time>
      </trkpt>
      <trkpt lat="44.26404" lon="5.82171">
        <ele>536</ele>
        <time>2019-08-17T09:23:42Z</time>
      </trkpt>
      <trkpt lat="44.26411" lon="5.82168">
        <ele>536</ele>
        <time>2019-08-17T09:23:43Z</time>
      </trkpt>
      <trkpt lat="44.26418" lon="5.82165">
        <ele>536</ele>
        <time>2019-08-17T09:23:44Z</time>
      </trkpt>
      <trkpt lat="44.26424" lon="5.82163">
        <ele>536</ele>
        <time>2019-08-17T09:23:45Z</time>
      </trkpt>
      <trkpt lat="44.26431" lon="5.82161">
        <ele>536</ele>
        <time>2019-08-17T09:23:46Z</time>
      </trkpt>
      <trkpt lat="44.26438" lon="5.82159">
        <ele>536</ele>
        <time>2019-08-17T09:23:47Z</time>
      </trkpt>
      <trkpt lat="44.26445" lon="5.82157">
        <ele>536</ele>
        <time>2019-08-17T09:23:48Z</time>
      </trkpt>
      <trkpt lat="44.26451" lon="5.82155">
        <ele>536</ele>
        <time>2019-08-17T09:23:49Z</time>
      </trkpt>
      <trkpt lat="44.26458" lon="5.82153">
        <ele>536</ele>
        <time>2019-08-17T09:23:50Z</time>
      </trkpt>
      <trkpt lat="44.26464" lon="5.82151">
        <ele>536</ele>
        <time>2019-08-17T09:23:51Z</time>
      </trkpt>
      <trkpt lat="44.2647" lon="5.82149">
        <ele>536</ele>
        <time>2019-08-17T09:23:52Z</time>
      </trkpt>
      <trkpt lat="44.26477" lon="5.82147">
        <ele>536</ele>
        <time>2019-08-17T09:23:53Z</time>
      </trkpt>
      <trkpt lat="44.26483" lon="5.82144">
        <ele>536</ele>
        <time>2019-08-17T09:23:54Z</time>
      </trkpt>
      <trkpt lat="44.26489" lon="5.82142">
        <ele>536</ele>
        <time>2019-08-17T09:23:55Z</time>
      </trkpt>
      <trkpt lat="44.26495" lon="5.8214">
        <ele>536</ele>
        <time>2019-08-17T09:23:56Z</time>
      </trkpt>
      <trkpt lat="44.26501" lon="5.82137">
        <ele>536</ele>
        <time>2019-08-17T09:23:57Z</time>
      </trkpt>
      <trkpt lat="44.26507" lon="5.82135">
        <ele>536</ele>
        <time>2019-08-17T09:23:58Z</time>
      </trkpt>
      <trkpt lat="44.26513" lon="5.82133">
        <ele>536</ele>
        <time>2019-08-17T09:23:59Z</time>
      </trkpt>
      <trkpt lat="44.26519" lon="5.8213">
        <ele>536</ele>
        <time>2019-08-17T09:24:00Z</time>
      </trkpt>
      <trkpt lat="44.26525" lon="5.82128">
        <ele>536</ele>
        <time>2019-08-17T09:24:01Z</time>
      </trkpt>
      <trkpt lat="44.2653" lon="5.82126">
        <ele>536</ele>
        <time>2019-08-17T09:24:02Z</time>
      </trkpt>
      <trkpt lat="44.26536" lon="5.82124">
        <ele>536</ele>
        <time>2019-08-17T09:24:03Z</time>
      </trkpt>
      <trkpt lat="44.26542" lon="5.82121">
        <ele>536</ele>
        <time>2019-08-17T09:24:04Z</time>
      </trkpt>
      <trkpt lat="44.26547" lon="5.82119">
        <ele>536</ele>
        <time>2019-08-17T09:24:05Z</time>
      </trkpt>
      <trkpt lat="44.26553" lon="5.82117">
        <ele>536</ele>
        <time>2019-08-17T09:24:06Z</time>
      </trkpt>
      <trkpt lat="44.26559" lon="5.82115">
        <ele>536</ele>
        <time>2019-08-17T09:24:07Z</time>
      </trkpt>
      <trkpt lat="44.26564" lon="5.82112">
        <ele>536</ele>
        <time>2019-08-17T09:24:08Z</time>
      </trkpt>
      <trkpt lat="44.26569" lon="5.8211">
        <ele>536</ele>
        <time>2019-08-17T09:24:09Z</time>
      </trkpt>
      <trkpt lat="44.26575" lon="5.82108">
        <ele>536</ele>
        <time>2019-08-17T09:24:10Z</time>
      </trkpt>
      <trkpt lat="44.2658" lon="5.82106">
        <ele>536</ele>
        <time>2019-08-17T09:24:11Z</time>
      </trkpt>
      <trkpt lat="44.26586" lon="5.82104">
        <ele>536</ele>
        <time>2019-08-17T09:24:12Z</time>
      </trkpt>
      <trkpt lat="44.26591" lon="5.82102">
        <ele>536</ele>
        <time>2019-08-17T09:24:13Z</time>
      </trkpt>
      <trkpt lat="44.26596" lon="5.821">
        <ele>536</ele>
        <time>2019-08-17T09:24:14Z</time>
      </trkpt>
      <trkpt lat="44.26602" lon="5.82098">
        <ele>536</ele>
        <time>2019-08-17T09:24:15Z</time>
      </trkpt>
      <trkpt lat="44.26607" lon="5.82095">
        <ele>536</ele>
        <time>2019-08-17T09:24:16Z</time>
      </trkpt>
      <trkpt lat="44.26612" lon="5.82093">
        <ele>536</ele>
        <time>2019-08-17T09:24:17Z</time>
      </trkpt>
      <trkpt lat="44.26618" lon="5.82092">
        <ele>536</ele>
        <time>2019-08-17T09:24:18Z</time>
      </trkpt>
      <trkpt lat="44.26623" lon="5.8209">
        <ele>536</ele>
        <time>2019-08-17T09:24:19Z</time>
      </trkpt>
      <trkpt lat="44.26629" lon="5.82087">
        <ele>536</ele>
        <time>2019-08-17T09:24:20Z</time>
      </trkpt>
      <trkpt lat="44.26634" lon="5.82085">
        <ele>536</ele>
        <time>2019-08-17T09:24:21Z</time>
      </trkpt>
      <trkpt lat="44.2664" lon="5.82083">
        <ele>536</ele>
        <time>2019-08-17T09:24:22Z</time>
      </trkpt>
      <trkpt lat="44.26645" lon="5.82081">
        <ele>536</ele>
        <time>2019-08-17T09:24:23Z</time>
      </trkpt>
      <trkpt lat="44.26651" lon="5.82079">
        <ele>536</ele>
        <time>2019-08-17T09:24:24Z</time>
      </trkpt>
      <trkpt lat="44.26656" lon="5.82076">
        <ele>536</ele>
        <time>2019-08-17T09:24:25Z</time>
      </trkpt>
      <trkpt lat="44.26662" lon="5.82074">
        <ele>536</ele>
        <time>2019-08-17T09:24:26Z</time>
      </trkpt>
      <trkpt lat="44.26668" lon="5.82072">
        <ele>536</ele>
        <time>2019-08-17T09:24:27Z</time>
      </trkpt>
      <trkpt lat="44.26673" lon="5.8207">
        <ele>536</ele>
        <time>2019-08-17T09:24:28Z</time>
      </trkpt>
      <trkpt lat="44.26679" lon="5.82067">
        <ele>536</ele>
        <time>2019-08-17T09:24:29Z</time>
      </trkpt>
      <trkpt lat="44.26685" lon="5.82065">
        <ele>536</ele>
        <time>2019-08-17T09:24:30Z</time>
      </trkpt>
      <trkpt lat="44.2669" lon="5.82063">
        <ele>536</ele>
        <time>2019-08-17T09:24:31Z</time>
      </trkpt>
      <trkpt lat="44.26696" lon="5.82061">
        <ele>536</ele>
        <time>2019-08-17T09:24:32Z</time>
      </trkpt>
      <trkpt lat="44.26701" lon="5.82059">
        <ele>536</ele>
        <time>2019-08-17T09:24:33Z</time>
      </trkpt>
      <trkpt lat="44.26707" lon="5.82057">
        <ele>536</ele>
        <time>2019-08-17T09:24:34Z</time>
      </trkpt>
      <trkpt lat="44.26713" lon="5.82055">
        <ele>536</ele>
        <time>2019-08-17T09:24:35Z</time>
      </trkpt>
      <trkpt lat="44.26718" lon="5.82052">
        <ele>536</ele>
        <time>2019-08-17T09:24:36Z</time>
      </trkpt>
      <trkpt lat="44.26724" lon="5.8205">
        <ele>536</ele>
        <time>2019-08-17T09:24:37Z</time>
      </trkpt>
      <trkpt lat="44.2673" lon="5.82048">
        <ele>536</ele>
        <time>2019-08-17T09:24:38Z</time>
      </trkpt>
      <trkpt lat="44.26735" lon="5.82046">
        <ele>536</ele>
        <time>2019-08-17T09:24:39Z</time>
      </trkpt>
      <trkpt lat="44.26741" lon="5.82044">
        <ele>536</ele>
        <time>2019-08-17T09:24:40Z</time>
      </trkpt>
      <trkpt lat="44.26746" lon="5.82042">
        <ele>536</ele>
        <time>2019-08-17T09:24:41Z</time>
      </trkpt>
      <trkpt lat="44.26751" lon="5.82039">
        <ele>536</ele>
        <time>2019-08-17T09:24:42Z</time>
      </trkpt>
      <trkpt lat="44.26757" lon="5.82037">
        <ele>536</ele>
        <time>2019-08-17T09:24:43Z</time>
      </trkpt>
      <trkpt lat="44.26762" lon="5.82035">
        <ele>536</ele>
        <time>2019-08-17T09:24:44Z</time>
      </trkpt>
      <trkpt lat="44.26768" lon="5.82033">
        <ele>536</ele>
        <time>2019-08-17T09:24:45Z</time>
      </trkpt>
      <trkpt lat="44.26773" lon="5.82031">
        <ele>536</ele>
        <time>2019-08-17T09:24:46Z</time>
      </trkpt>
      <trkpt lat="44.26779" lon="5.82029">
        <ele>536</ele>
        <time>2019-08-17T09:24:47Z</time>
      </trkpt>
      <trkpt lat="44.26785" lon="5.82027">
        <ele>536</ele>
        <time>2019-08-17T09:24:48Z</time>
      </trkpt>
      <trkpt lat="44.2679" lon="5.82025">
        <ele>536</ele>
        <time>2019-08-17T09:24:49Z</time>
      </trkpt>
      <trkpt lat="44.26796" lon="5.82023">
        <ele>536</ele>
        <time>2019-08-17T09:24:50Z</time>
      </trkpt>
      <trkpt lat="44.26801" lon="5.82021">
        <ele>536</ele>
        <time>2019-08-17T09:24:51Z</time>
      </trkpt>
      <trkpt lat="44.26807" lon="5.82018">
        <ele>536</ele>
        <time>2019-08-17T09:24:52Z</time>
      </trkpt>
      <trkpt lat="44.26812" lon="5.82016">
        <ele>536</ele>
        <time>2019-08-17T09:24:53Z</time>
      </trkpt>
      <trkpt lat="44.26818" lon="5.82014">
        <ele>536</ele>
        <time>2019-08-17T09:24:54Z</time>
      </trkpt>
      <trkpt lat="44.26823" lon="5.82012">
        <ele>536</ele>
        <time>2019-08-17T09:24:55Z</time>
      </trkpt>
      <trkpt lat="44.26829" lon="5.8201">
        <ele>536</ele>
        <time>2019-08-17T09:24:56Z</time>
      </trkpt>
      <trkpt lat="44.26834" lon="5.82008">
        <ele>536</ele>
        <time>2019-08-17T09:24:57Z</time>
      </trkpt>
      <trkpt lat="44.2684" lon="5.82006">
        <ele>536</ele>
        <time>2019-08-17T09:24:58Z</time>
      </trkpt>
      <trkpt lat="44.26845" lon="5.82003">
        <ele>536</ele>
        <time>2019-08-17T09:24:59Z</time>
      </trkpt>
      <trkpt lat="44.26851" lon="5.82001">
        <ele>536</ele>
        <time>2019-08-17T09:25:00Z</time>
      </trkpt>
      <trkpt lat="44.26856" lon="5.81999">
        <ele>536</ele>
        <time>2019-08-17T09:25:01Z</time>
      </trkpt>
      <trkpt lat="44.26862" lon="5.81997">
        <ele>536</ele>
        <time>2019-08-17T09:25:02Z</time>
      </trkpt>
      <trkpt lat="44.26867" lon="5.81995">
        <ele>536</ele>
        <time>2019-08-17T09:25:03Z</time>
      </trkpt>
      <trkpt lat="44.26873" lon="5.81993">
        <ele>536</ele>
        <time>2019-08-17T09:25:04Z</time>
      </trkpt>
      <trkpt lat="44.26878" lon="5.81991">
        <ele>536</ele>
        <time>2019-08-17T09:25:05Z</time>
      </trkpt>
      <trkpt lat="44.26884" lon="5.81989">
        <ele>536</ele>
        <time>2019-08-17T09:25:06Z</time>
      </trkpt>
      <trkpt lat="44.26889" lon="5.81987">
        <ele>536</ele>
        <time>2019-08-17T09:25:07Z</time>
      </trkpt>
      <trkpt lat="44.26895" lon="5.81984">
        <ele>536</ele>
        <time>2019-08-17T09:25:08Z</time>
      </trkpt>
      <trkpt lat="44.269" lon="5.81982">
        <ele>536</ele>
        <time>2019-08-17T09:25:09Z</time>
      </trkpt>
      <trkpt lat="44.26906" lon="5.8198">
        <ele>536</ele>
        <time>2019-08-17T09:25:10Z</time>
      </trkpt>
      <trkpt lat="44.26911" lon="5.81978">
        <ele>536</ele>
        <time>2019-08-17T09:25:11Z</time>
      </trkpt>
      <trkpt lat="44.26917" lon="5.81976">
        <ele>536</ele>
        <time>2019-08-17T09:25:12Z</time>
      </trkpt>
      <trkpt lat="44.26923" lon="5.81973">
        <ele>536</ele>
        <time>2019-08-17T09:25:13Z</time>
      </trkpt>
      <trkpt lat="44.26928" lon="5.81971">
        <ele>536</ele>
        <time>2019-08-17T09:25:14Z</time>
      </trkpt>
      <trkpt lat="44.26934" lon="5.81969">
        <ele>536</ele>
        <time>2019-08-17T09:25:15Z</time>
      </trkpt>
      <trkpt lat="44.26939" lon="5.81967">
        <ele>536</ele>
        <time>2019-08-17T09:25:16Z</time>
      </trkpt>
      <trkpt lat="44.26944" lon="5.81965">
        <ele>536</ele>
        <time>2019-08-17T09:25:17Z</time>
      </trkpt>
      <trkpt lat="44.2695" lon="5.81963">
        <ele>536</ele>
        <time>2019-08-17T09:25:18Z</time>
      </trkpt>
      <trkpt lat="44.26955" lon="5.8196">
        <ele>536</ele>
        <time>2019-08-17T09:25:19Z</time>
      </trkpt>
      <trkpt lat="44.26961" lon="5.81958">
        <ele>536</ele>
        <time>2019-08-17T09:25:20Z</time>
      </trkpt>
      <trkpt lat="44.26966" lon="5.81956">
        <ele>536</ele>
        <time>2019-08-17T09:25:21Z</time>
      </trkpt>
      <trkpt lat="44.26972" lon="5.81954">
        <ele>536</ele>
        <time>2019-08-17T09:25:22Z</time>
      </trkpt>
      <trkpt lat="44.26978" lon="5.81952">
        <ele>536</ele>
        <time>2019-08-17T09:25:23Z</time>
      </trkpt>
      <trkpt lat="44.26983" lon="5.8195">
        <ele>536</ele>
        <time>2019-08-17T09:25:24Z</time>
      </trkpt>
      <trkpt lat="44.26989" lon="5.81948">
        <ele>536</ele>
        <time>2019-08-17T09:25:25Z</time>
      </trkpt>
      <trkpt lat="44.26995" lon="5.81946">
        <ele>536</ele>
        <time>2019-08-17T09:25:26Z</time>
      </trkpt>
      <trkpt lat="44.27" lon="5.81943">
        <ele>536</ele>
        <time>2019-08-17T09:25:27Z</time>
      </trkpt>
      <trkpt lat="44.27006" lon="5.81941">
        <ele>536</ele>
        <time>2019-08-17T09:25:28Z</time>
      </trkpt>
      <trkpt lat="44.27012" lon="5.81939">
        <ele>536</ele>
        <time>2019-08-17T09:25:29Z</time>
      </trkpt>
      <trkpt lat="44.27018" lon="5.81936">
        <ele>536</ele>
        <time>2019-08-17T09:25:30Z</time>
      </trkpt>
      <trkpt lat="44.27024" lon="5.81934">
        <ele>536</ele>
        <time>2019-08-17T09:25:31Z</time>
      </trkpt>
      <trkpt lat="44.2703" lon="5.81932">
        <ele>536</ele>
        <time>2019-08-17T09:25:32Z</time>
      </trkpt>
      <trkpt lat="44.27036" lon="5.81929">
        <ele>536</ele>
        <time>2019-08-17T09:25:33Z</time>
      </trkpt>
      <trkpt lat="44.27042" lon="5.81927">
        <ele>536</ele>
        <time>2019-08-17T09:25:34Z</time>
      </trkpt>
      <trkpt lat="44.27048" lon="5.81925">
        <ele>536</ele>
        <time>2019-08-17T09:25:35Z</time>
      </trkpt>
      <trkpt lat="44.27054" lon="5.81923">
        <ele>536</ele>
        <time>2019-08-17T09:25:36Z</time>
      </trkpt>
      <trkpt lat="44.2706" lon="5.8192">
        <ele>536</ele>
        <time>2019-08-17T09:25:37Z</time>
      </trkpt>
      <trkpt lat="44.27066" lon="5.81918">
        <ele>536</ele>
        <time>2019-08-17T09:25:38Z</time>
      </trkpt>
      <trkpt lat="44.27073" lon="5.81915">
        <ele>536</ele>
        <time>2019-08-17T09:25:39Z</time>
      </trkpt>
      <trkpt lat="44.27079" lon="5.81913">
        <ele>536</ele>
        <time>2019-08-17T09:25:40Z</time>
      </trkpt>
      <trkpt lat="44.27085" lon="5.81911">
        <ele>536</ele>
        <time>2019-08-17T09:25:41Z</time>
      </trkpt>
      <trkpt lat="44.27091" lon="5.81908">
        <ele>536</ele>
        <time>2019-08-17T09:25:42Z</time>
      </trkpt>
      <trkpt lat="44.27097" lon="5.81906">
        <ele>536</ele>
        <time>2019-08-17T09:25:43Z</time>
      </trkpt>
      <trkpt lat="44.27104" lon="5.81903">
        <ele>536</ele>
        <time>2019-08-17T09:25:44Z</time>
      </trkpt>
      <trkpt lat="44.2711" lon="5.819">
        <ele>536</ele>
        <time>2019-08-17T09:25:45Z</time>
      </trkpt>
      <trkpt lat="44.27116" lon="5.81898">
        <ele>536</ele>
        <time>2019-08-17T09:25:46Z</time>
      </trkpt>
      <trkpt lat="44.27122" lon="5.81895">
        <ele>536</ele>
        <time>2019-08-17T09:25:47Z</time>
      </trkpt>
      <trkpt lat="44.27129" lon="5.81893">
        <ele>536</ele>
        <time>2019-08-17T09:25:48Z</time>
      </trkpt>
      <trkpt lat="44.27135" lon="5.81891">
        <ele>536</ele>
        <time>2019-08-17T09:25:49Z</time>
      </trkpt>
      <trkpt lat="44.27141" lon="5.81889">
        <ele>536</ele>
        <time>2019-08-17T09:25:50Z</time>
      </trkpt>
      <trkpt lat="44.27147" lon="5.81886">
        <ele>536</ele>
        <time>2019-08-17T09:25:51Z</time>
      </trkpt>
      <trkpt lat="44.27153" lon="5.81884">
        <ele>536</ele>
        <time>2019-08-17T09:25:52Z</time>
      </trkpt>
      <trkpt lat="44.2716" lon="5.81882">
        <ele>536</ele>
        <time>2019-08-17T09:25:53Z</time>
      </trkpt>
      <trkpt lat="44.27166" lon="5.81879">
        <ele>536</ele>
        <time>2019-08-17T09:25:54Z</time>
      </trkpt>
      <trkpt lat="44.27172" lon="5.81877">
        <ele>537</ele>
        <time>2019-08-17T09:25:55Z</time>
      </trkpt>
      <trkpt lat="44.27178" lon="5.81874">
        <ele>537</ele>
        <time>2019-08-17T09:25:56Z</time>
      </trkpt>
      <trkpt lat="44.27184" lon="5.81872">
        <ele>537</ele>
        <time>2019-08-17T09:25:57Z</time>
      </trkpt>
      <trkpt lat="44.2719" lon="5.8187">
        <ele>537</ele>
        <time>2019-08-17T09:25:58Z</time>
      </trkpt>
      <trkpt lat="44.27196" lon="5.81867">
        <ele>537</ele>
        <time>2019-08-17T09:25:59Z</time>
      </trkpt>
      <trkpt lat="44.27202" lon="5.81865">
        <ele>537</ele>
        <time>2019-08-17T09:26:00Z</time>
      </trkpt>
      <trkpt lat="44.27208" lon="5.81862">
        <ele>537</ele>
        <time>2019-08-17T09:26:01Z</time>
      </trkpt>
      <trkpt lat="44.27214" lon="5.8186">
        <ele>537</ele>
        <time>2019-08-17T09:26:02Z</time>
      </trkpt>
      <trkpt lat="44.2722" lon="5.81858">
        <ele>537</ele>
        <time>2019-08-17T09:26:03Z</time>
      </trkpt>
      <trkpt lat="44.27226" lon="5.81855">
        <ele>537</ele>
        <time>2019-08-17T09:26:04Z</time>
      </trkpt>
      <trkpt lat="44.27232" lon="5.81853">
        <ele>537</ele>
        <time>2019-08-17T09:26:05Z</time>
      </trkpt>
      <trkpt lat="44.27238" lon="5.81851">
        <ele>538</ele>
        <time>2019-08-17T09:26:06Z</time>
      </trkpt>
      <trkpt lat="44.27244" lon="5.81848">
        <ele>538</ele>
        <time>2019-08-17T09:26:07Z</time>
      </trkpt>
      <trkpt lat="44.2725" lon="5.81846">
        <ele>538</ele>
        <time>2019-08-17T09:26:08Z</time>
      </trkpt>
      <trkpt lat="44.27256" lon="5.81844">
        <ele>538</ele>
        <time>2019-08-17T09:26:09Z</time>
      </trkpt>
      <trkpt lat="44.27262" lon="5.81841">
        <ele>538</ele>
        <time>2019-08-17T09:26:10Z</time>
      </trkpt>
      <trkpt lat="44.27269" lon="5.81839">
        <ele>538</ele>
        <time>2019-08-17T09:26:11Z</time>
      </trkpt>
      <trkpt lat="44.27274" lon="5.81837">
        <ele>538</ele>
        <time>2019-08-17T09:26:12Z</time>
      </trkpt>
      <trkpt lat="44.2728" lon="5.81834">
        <ele>538</ele>
        <time>2019-08-17T09:26:13Z</time>
      </trkpt>
      <trkpt lat="44.27287" lon="5.81832">
        <ele>538</ele>
        <time>2019-08-17T09:26:14Z</time>
      </trkpt>
      <trkpt lat="44.27293" lon="5.8183">
        <ele>538</ele>
        <time>2019-08-17T09:26:15Z</time>
      </trkpt>
      <trkpt lat="44.27298" lon="5.81827">
        <ele>538</ele>
        <time>2019-08-17T09:26:16Z</time>
      </trkpt>
      <trkpt lat="44.27304" lon="5.81825">
        <ele>538</ele>
        <time>2019-08-17T09:26:17Z</time>
      </trkpt>
      <trkpt lat="44.2731" lon="5.81822">
        <ele>538</ele>
        <time>2019-08-17T09:26:18Z</time>
      </trkpt>
      <trkpt lat="44.27316" lon="5.8182">
        <ele>538</ele>
        <time>2019-08-17T09:26:19Z</time>
      </trkpt>
      <trkpt lat="44.27322" lon="5.81818">
        <ele>539</ele>
        <time>2019-08-17T09:26:20Z</time>
      </trkpt>
      <trkpt lat="44.27328" lon="5.81815">
        <ele>539</ele>
        <time>2019-08-17T09:26:21Z</time>
      </trkpt>
      <trkpt lat="44.27334" lon="5.81813">
        <ele>539</ele>
        <time>2019-08-17T09:26:22Z</time>
      </trkpt>
      <trkpt lat="44.2734" lon="5.81811">
        <ele>539</ele>
        <time>2019-08-17T09:26:23Z</time>
      </trkpt>
      <trkpt lat="44.27346" lon="5.81808">
        <ele>539</ele>
        <time>2019-08-17T09:26:24Z</time>
      </trkpt>
      <trkpt lat="44.27352" lon="5.81806">
        <ele>539</ele>
        <time>2019-08-17T09:26:25Z</time>
      </trkpt>
      <trkpt lat="44.27358" lon="5.81804">
        <ele>539</ele>
        <time>2019-08-17T09:26:26Z</time>
      </trkpt>
      <trkpt lat="44.27364" lon="5.81802">
        <ele>539</ele>
        <time>2019-08-17T09:26:27Z</time>
      </trkpt>
      <trkpt lat="44.2737" lon="5.81799">
        <ele>539</ele>
        <time>2019-08-17T09:26:28Z</time>
      </trkpt>
      <trkpt lat="44.27375" lon="5.81797">
        <ele>539</ele>
        <time>2019-08-17T09:26:29Z</time>
      </trkpt>
      <trkpt lat="44.27381" lon="5.81794">
        <ele>539</ele>
        <time>2019-08-17T09:26:30Z</time>
      </trkpt>
      <trkpt lat="44.27387" lon="5.81792">
        <ele>539</ele>
        <time>2019-08-17T09:26:31Z</time>
      </trkpt>
      <trkpt lat="44.27393" lon="5.81789">
        <ele>539</ele>
        <time>2019-08-17T09:26:32Z</time>
      </trkpt>
      <trkpt lat="44.27399" lon="5.81787">
        <ele>540</ele>
        <time>2019-08-17T09:26:33Z</time>
      </trkpt>
      <trkpt lat="44.27405" lon="5.81785">
        <ele>540</ele>
        <time>2019-08-17T09:26:34Z</time>
      </trkpt>
      <trkpt lat="44.27411" lon="5.81782">
        <ele>540</ele>
        <time>2019-08-17T09:26:35Z</time>
      </trkpt>
      <trkpt lat="44.27416" lon="5.8178">
        <ele>540</ele>
        <time>2019-08-17T09:26:36Z</time>
      </trkpt>
      <trkpt lat="44.27422" lon="5.81778">
        <ele>540</ele>
        <time>2019-08-17T09:26:37Z</time>
      </trkpt>
      <trkpt lat="44.27428" lon="5.81776">
        <ele>540</ele>
        <time>2019-08-17T09:26:38Z</time>
      </trkpt>
      <trkpt lat="44.27434" lon="5.81774">
        <ele>540</ele>
        <time>2019-08-17T09:26:39Z</time>
      </trkpt>
      <trkpt lat="44.27439" lon="5.81771">
        <ele>540</ele>
        <time>2019-08-17T09:26:40Z</time>
      </trkpt>
      <trkpt lat="44.27445" lon="5.81769">
        <ele>541</ele>
        <time>2019-08-17T09:26:41Z</time>
      </trkpt>
      <trkpt lat="44.27451" lon="5.81767">
        <ele>541</ele>
        <time>2019-08-17T09:26:42Z</time>
      </trkpt>
      <trkpt lat="44.27457" lon="5.81765">
        <ele>541</ele>
        <time>2019-08-17T09:26:43Z</time>
      </trkpt>
      <trkpt lat="44.27462" lon="5.81762">
        <ele>541</ele>
        <time>2019-08-17T09:26:44Z</time>
      </trkpt>
      <trkpt lat="44.27468" lon="5.8176">
        <ele>541</ele>
        <time>2019-08-17T09:26:45Z</time>
      </trkpt>
      <trkpt lat="44.27473" lon="5.81758">
        <ele>541</ele>
        <time>2019-08-17T09:26:46Z</time>
      </trkpt>
      <trkpt lat="44.27479" lon="5.81756">
        <ele>542</ele>
        <time>2019-08-17T09:26:47Z</time>
      </trkpt>
      <trkpt lat="44.27485" lon="5.81753">
        <ele>542</ele>
        <time>2019-08-17T09:26:48Z</time>
      </trkpt>
      <trkpt lat="44.2749" lon="5.81751">
        <ele>542</ele>
        <time>2019-08-17T09:26:49Z</time>
      </trkpt>
      <trkpt lat="44.27496" lon="5.81749">
        <ele>542</ele>
        <time>2019-08-17T09:26:50Z</time>
      </trkpt>
      <trkpt lat="44.27501" lon="5.81747">
        <ele>542</ele>
        <time>2019-08-17T09:26:51Z</time>
      </trkpt>
      <trkpt lat="44.27507" lon="5.81744">
        <ele>542</ele>
        <time>2019-08-17T09:26:52Z</time>
      </trkpt>
      <trkpt lat="44.27512" lon="5.81742">
        <ele>542</ele>
        <time>2019-08-17T09:26:53Z</time>
      </trkpt>
      <trkpt lat="44.27518" lon="5.8174">
        <ele>542</ele>
        <time>2019-08-17T09:26:54Z</time>
      </trkpt>
      <trkpt lat="44.27523" lon="5.81738">
        <ele>542</ele>
        <time>2019-08-17T09:26:55Z</time>
      </trkpt>
      <trkpt lat="44.27528" lon="5.81736">
        <ele>542</ele>
        <time>2019-08-17T09:26:56Z</time>
      </trkpt>
      <trkpt lat="44.27534" lon="5.81734">
        <ele>543</ele>
        <time>2019-08-17T09:26:57Z</time>
      </trkpt>
      <trkpt lat="44.27539" lon="5.81732">
        <ele>543</ele>
        <time>2019-08-17T09:26:58Z</time>
      </trkpt>
      <trkpt lat="44.27544" lon="5.8173">
        <ele>543</ele>
        <time>2019-08-17T09:26:59Z</time>
      </trkpt>
      <trkpt lat="44.2755" lon="5.81728">
        <ele>544</ele>
        <time>2019-08-17T09:27:00Z</time>
      </trkpt>
      <trkpt lat="44.27555" lon="5.81726">
        <ele>544</ele>
        <time>2019-08-17T09:27:01Z</time>
      </trkpt>
      <trkpt lat="44.2756" lon="5.81723">
        <ele>544</ele>
        <time>2019-08-17T09:27:02Z</time>
      </trkpt>
      <trkpt lat="44.27565" lon="5.81721">
        <ele>545</ele>
        <time>2019-08-17T09:27:03Z</time>
      </trkpt>
      <trkpt lat="44.2757" lon="5.81719">
        <ele>545</ele>
        <time>2019-08-17T09:27:04Z</time>
      </trkpt>
      <trkpt lat="44.27576" lon="5.81717">
        <ele>545</ele>
        <time>2019-08-17T09:27:05Z</time>
      </trkpt>
      <trkpt lat="44.27581" lon="5.81715">
        <ele>546</ele>
        <time>2019-08-17T09:27:06Z</time>
      </trkpt>
      <trkpt lat="44.27586" lon="5.81713">
        <ele>546</ele>
        <time>2019-08-17T09:27:07Z</time>
      </trkpt>
      <trkpt lat="44.27591" lon="5.81711">
        <ele>546</ele>
        <time>2019-08-17T09:27:08Z</time>
      </trkpt>
      <trkpt lat="44.27597" lon="5.81709">
        <ele>547</ele>
        <time>2019-08-17T09:27:09Z</time>
      </trkpt>
      <trkpt lat="44.27602" lon="5.81707">
        <ele>547</ele>
        <time>2019-08-17T09:27:10Z</time>
      </trkpt>
      <trkpt lat="44.27608" lon="5.81705">
        <ele>547</ele>
        <time>2019-08-17T09:27:11Z</time>
      </trkpt>
      <trkpt lat="44.27613" lon="5.81703">
        <ele>548</ele>
        <time>2019-08-17T09:27:12Z</time>
      </trkpt>
      <trkpt lat="44.27619" lon="5.81701">
        <ele>548</ele>
        <time>2019-08-17T09:27:13Z</time>
      </trkpt>
      <trkpt lat="44.27624" lon="5.81699">
        <ele>548</ele>
        <time>2019-08-17T09:27:14Z</time>
      </trkpt>
      <trkpt lat="44.27629" lon="5.81696">
        <ele>549</ele>
        <time>2019-08-17T09:27:15Z</time>
      </trkpt>
      <trkpt lat="44.27635" lon="5.81694">
        <ele>549</ele>
        <time>2019-08-17T09:27:16Z</time>
      </trkpt>
      <trkpt lat="44.27641" lon="5.81692">
        <ele>549</ele>
        <time>2019-08-17T09:27:17Z</time>
      </trkpt>
      <trkpt lat="44.27647" lon="5.8169">
        <ele>550</ele>
        <time>2019-08-17T09:27:18Z</time>
      </trkpt>
      <trkpt lat="44.27652" lon="5.81688">
        <ele>550</ele>
        <time>2019-08-17T09:27:19Z</time>
      </trkpt>
      <trkpt lat="44.27658" lon="5.81686">
        <ele>550</ele>
        <time>2019-08-17T09:27:20Z</time>
      </trkpt>
      <trkpt lat="44.27664" lon="5.81685">
        <ele>551</ele>
        <time>2019-08-17T09:27:21Z</time>
      </trkpt>
      <trkpt lat="44.2767" lon="5.81684">
        <ele>551</ele>
        <time>2019-08-17T09:27:22Z</time>
      </trkpt>
      <trkpt lat="44.27676" lon="5.81683">
        <ele>552</ele>
        <time>2019-08-17T09:27:23Z</time>
      </trkpt>
      <trkpt lat="44.27682" lon="5.81683">
        <ele>552</ele>
        <time>2019-08-17T09:27:24Z</time>
      </trkpt>
      <trkpt lat="44.27687" lon="5.81683">
        <ele>552</ele>
        <time>2019-08-17T09:27:25Z</time>
      </trkpt>
      <trkpt lat="44.27692" lon="5.81684">
        <ele>552</ele>
        <time>2019-08-17T09:27:26Z</time>
      </trkpt>
      <trkpt lat="44.27697" lon="5.81684">
        <ele>552</ele>
        <time>2019-08-17T09:27:27Z</time>
      </trkpt>
      <trkpt lat="44.27703" lon="5.81685">
        <ele>552</ele>
        <time>2019-08-17T09:27:28Z</time>
      </trkpt>
      <trkpt lat="44.27708" lon="5.81687">
        <ele>552</ele>
        <time>2019-08-17T09:27:29Z</time>
      </trkpt>
      <trkpt lat="44.27713" lon="5.81689">
        <ele>552</ele>
        <time>2019-08-17T09:27:30Z</time>
      </trkpt>
      <trkpt lat="44.27718" lon="5.81691">
        <ele>552</ele>
        <time>2019-08-17T09:27:31Z</time>
      </trkpt>
      <trkpt lat="44.27723" lon="5.81694">
        <ele>552</ele>
        <time>2019-08-17T09:27:32Z</time>
      </trkpt>
      <trkpt lat="44.27727" lon="5.81697">
        <ele>552</ele>
        <time>2019-08-17T09:27:33Z</time>
      </trkpt>
      <trkpt lat="44.27732" lon="5.817">
        <ele>551</ele>
        <time>2019-08-17T09:27:34Z</time>
      </trkpt>
      <trkpt lat="44.27737" lon="5.81703">
        <ele>551</ele>
        <time>2019-08-17T09:27:35Z</time>
      </trkpt>
      <trkpt lat="44.27742" lon="5.81706">
        <ele>551</ele>
        <time>2019-08-17T09:27:36Z</time>
      </trkpt>
      <trkpt lat="44.27746" lon="5.81709">
        <ele>550</ele>
        <time>2019-08-17T09:27:37Z</time>
      </trkpt>
      <trkpt lat="44.27751" lon="5.81713">
        <ele>550</ele>
        <time>2019-08-17T09:27:38Z</time>
      </trkpt>
      <trkpt lat="44.27756" lon="5.81716">
        <ele>550</ele>
        <time>2019-08-17T09:27:39Z</time>
      </trkpt>
      <trkpt lat="44.27761" lon="5.81719">
        <ele>550</ele>
        <time>2019-08-17T09:27:40Z</time>
      </trkpt>
      <trkpt lat="44.27765" lon="5.81722">
        <ele>550</ele>
        <time>2019-08-17T09:27:41Z</time>
      </trkpt>
      <trkpt lat="44.2777" lon="5.81726">
        <ele>550</ele>
        <time>2019-08-17T09:27:42Z</time>
      </trkpt>
      <trkpt lat="44.27775" lon="5.81729">
        <ele>550</ele>
        <time>2019-08-17T09:27:43Z</time>
      </trkpt>
      <trkpt lat="44.2778" lon="5.81732">
        <ele>550</ele>
        <time>2019-08-17T09:27:44Z</time>
      </trkpt>
      <trkpt lat="44.27784" lon="5.81735">
        <ele>550</ele>
        <time>2019-08-17T09:27:45Z</time>
      </trkpt>
      <trkpt lat="44.27789" lon="5.81739">
        <ele>550</ele>
        <time>2019-08-17T09:27:46Z</time>
      </trkpt>
      <trkpt lat="44.27794" lon="5.81742">
        <ele>550</ele>
        <time>2019-08-17T09:27:47Z</time>
      </trkpt>
      <trkpt lat="44.27799" lon="5.81745">
        <ele>550</ele>
        <time>2019-08-17T09:27:48Z</time>
      </trkpt>
      <trkpt lat="44.27804" lon="5.81748">
        <ele>550</ele>
        <time>2019-08-17T09:27:49Z</time>
      </trkpt>
      <trkpt lat="44.27809" lon="5.81752">
        <ele>550</ele>
        <time>2019-08-17T09:27:50Z</time>
      </trkpt>
      <trkpt lat="44.27814" lon="5.81755">
        <ele>550</ele>
        <time>2019-08-17T09:27:51Z</time>
      </trkpt>
      <trkpt lat="44.27819" lon="5.81758">
        <ele>550</ele>
        <time>2019-08-17T09:27:52Z</time>
      </trkpt>
      <trkpt lat="44.27824" lon="5.81762">
        <ele>550</ele>
        <time>2019-08-17T09:27:53Z</time>
      </trkpt>
      <trkpt lat="44.27829" lon="5.81765">
        <ele>550</ele>
        <time>2019-08-17T09:27:54Z</time>
      </trkpt>
      <trkpt lat="44.27833" lon="5.81769">
        <ele>550</ele>
        <time>2019-08-17T09:27:55Z</time>
      </trkpt>
      <trkpt lat="44.27838" lon="5.81772">
        <ele>550</ele>
        <time>2019-08-17T09:27:56Z</time>
      </trkpt>
      <trkpt lat="44.27843" lon="5.81775">
        <ele>550</ele>
        <time>2019-08-17T09:27:57Z</time>
      </trkpt>
      <trkpt lat="44.27848" lon="5.81778">
        <ele>550</ele>
        <time>2019-08-17T09:27:58Z</time>
      </trkpt>
      <trkpt lat="44.27853" lon="5.81781">
        <ele>550</ele>
        <time>2019-08-17T09:27:59Z</time>
      </trkpt>
      <trkpt lat="44.27858" lon="5.81784">
        <ele>550</ele>
        <time>2019-08-17T09:28:00Z</time>
      </trkpt>
      <trkpt lat="44.27863" lon="5.81788">
        <ele>550</ele>
        <time>2019-08-17T09:28:01Z</time>
      </trkpt>
      <trkpt lat="44.27868" lon="5.81791">
        <ele>550</ele>
        <time>2019-08-17T09:28:02Z</time>
      </trkpt>
      <trkpt lat="44.27873" lon="5.81795">
        <ele>550</ele>
        <time>2019-08-17T09:28:03Z</time>
      </trkpt>
      <trkpt lat="44.27879" lon="5.81798">
        <ele>550</ele>
        <time>2019-08-17T09:28:04Z</time>
      </trkpt>
      <trkpt lat="44.27884" lon="5.81802">
        <ele>550</ele>
        <time>2019-08-17T09:28:05Z</time>
      </trkpt>
      <trkpt lat="44.27889" lon="5.81805">
        <ele>550</ele>
        <time>2019-08-17T09:28:06Z</time>
      </trkpt>
      <trkpt lat="44.27895" lon="5.81808">
        <ele>550</ele>
        <time>2019-08-17T09:28:07Z</time>
      </trkpt>
      <trkpt lat="44.279" lon="5.81812">
        <ele>550</ele>
        <time>2019-08-17T09:28:08Z</time>
      </trkpt>
      <trkpt lat="44.27906" lon="5.81815">
        <ele>550</ele>
        <time>2019-08-17T09:28:09Z</time>
      </trkpt>
      <trkpt lat="44.27911" lon="5.81819">
        <ele>550</ele>
        <time>2019-08-17T09:28:10Z</time>
      </trkpt>
      <trkpt lat="44.27916" lon="5.81822">
        <ele>550</ele>
        <time>2019-08-17T09:28:11Z</time>
      </trkpt>
      <trkpt lat="44.27922" lon="5.81826">
        <ele>550</ele>
        <time>2019-08-17T09:28:12Z</time>
      </trkpt>
      <trkpt lat="44.27927" lon="5.81829">
        <ele>550</ele>
        <time>2019-08-17T09:28:13Z</time>
      </trkpt>
      <trkpt lat="44.27932" lon="5.81833">
        <ele>550</ele>
        <time>2019-08-17T09:28:14Z</time>
      </trkpt>
      <trkpt lat="44.27938" lon="5.81836">
        <ele>550</ele>
        <time>2019-08-17T09:28:15Z</time>
      </trkpt>
      <trkpt lat="44.27943" lon="5.8184">
        <ele>550</ele>
        <time>2019-08-17T09:28:16Z</time>
      </trkpt>
      <trkpt lat="44.27949" lon="5.81844">
        <ele>550</ele>
        <time>2019-08-17T09:28:17Z</time>
      </trkpt>
      <trkpt lat="44.27954" lon="5.81847">
        <ele>550</ele>
        <time>2019-08-17T09:28:18Z</time>
      </trkpt>
      <trkpt lat="44.2796" lon="5.8185">
        <ele>550</ele>
        <time>2019-08-17T09:28:19Z</time>
      </trkpt>
      <trkpt lat="44.27965" lon="5.81854">
        <ele>550</ele>
        <time>2019-08-17T09:28:20Z</time>
      </trkpt>
      <trkpt lat="44.27971" lon="5.81857">
        <ele>550</ele>
        <time>2019-08-17T09:28:21Z</time>
      </trkpt>
      <trkpt lat="44.27976" lon="5.81861">
        <ele>550</ele>
        <time>2019-08-17T09:28:22Z</time>
      </trkpt>
      <trkpt lat="44.27981" lon="5.81865">
        <ele>550</ele>
        <time>2019-08-17T09:28:23Z</time>
      </trkpt>
      <trkpt lat="44.27987" lon="5.81868">
        <ele>550</ele>
        <time>2019-08-17T09:28:24Z</time>
      </trkpt>
      <trkpt lat="44.27993" lon="5.81872">
        <ele>550</ele>
        <time>2019-08-17T09:28:25Z</time>
      </trkpt>
      <trkpt lat="44.27998" lon="5.81875">
        <ele>550</ele>
        <time>2019-08-17T09:28:26Z</time>
      </trkpt>
      <trkpt lat="44.28004" lon="5.81879">
        <ele>550</ele>
        <time>2019-08-17T09:28:27Z</time>
      </trkpt>
      <trkpt lat="44.28009" lon="5.81882">
        <ele>550</ele>
        <time>2019-08-17T09:28:28Z</time>
      </trkpt>
      <trkpt lat="44.28015" lon="5.81886">
        <ele>550</ele>
        <time>2019-08-17T09:28:29Z</time>
      </trkpt>
      <trkpt lat="44.28021" lon="5.8189">
        <ele>550</ele>
        <time>2019-08-17T09:28:30Z</time>
      </trkpt>
      <trkpt lat="44.28027" lon="5.81893">
        <ele>550</ele>
        <time>2019-08-17T09:28:31Z</time>
      </trkpt>
      <trkpt lat="44.28032" lon="5.81897">
        <ele>550</ele>
        <time>2019-08-17T09:28:32Z</time>
      </trkpt>
      <trkpt lat="44.28038" lon="5.81901">
        <ele>550</ele>
        <time>2019-08-17T09:28:33Z</time>
      </trkpt>
      <trkpt lat="44.28043" lon="5.81904">
        <ele>550</ele>
        <time>2019-08-17T09:28:34Z</time>
      </trkpt>
      <trkpt lat="44.28049" lon="5.81908">
        <ele>550</ele>
        <time>2019-08-17T09:28:35Z</time>
      </trkpt>
      <trkpt lat="44.28055" lon="5.81911">
        <ele>550</ele>
        <time>2019-08-17T09:28:36Z</time>
      </trkpt>
      <trkpt lat="44.2806" lon="5.81915">
        <ele>550</ele>
        <time>2019-08-17T09:28:37Z</time>
      </trkpt>
      <trkpt lat="44.28066" lon="5.81919">
        <ele>550</ele>
        <time>2019-08-17T09:28:38Z</time>
      </trkpt>
      <trkpt lat="44.28071" lon="5.81922">
        <ele>550</ele>
        <time>2019-08-17T09:28:39Z</time>
      </trkpt>
      <trkpt lat="44.28077" lon="5.81926">
        <ele>550</ele>
        <time>2019-08-17T09:28:40Z</time>
      </trkpt>
      <trkpt lat="44.28083" lon="5.81929">
        <ele>550</ele>
        <time>2019-08-17T09:28:41Z</time>
      </trkpt>
      <trkpt lat="44.28088" lon="5.81933">
        <ele>550</ele>
        <time>2019-08-17T09:28:42Z</time>
      </trkpt>
      <trkpt lat="44.28094" lon="5.81937">
        <ele>550</ele>
        <time>2019-08-17T09:28:43Z</time>
      </trkpt>
      <trkpt lat="44.281" lon="5.8194">
        <ele>550</ele>
        <time>2019-08-17T09:28:44Z</time>
      </trkpt>
      <trkpt lat="44.28105" lon="5.81944">
        <ele>550</ele>
        <time>2019-08-17T09:28:45Z</time>
      </trkpt>
      <trkpt lat="44.28111" lon="5.81947">
        <ele>550</ele>
        <time>2019-08-17T09:28:46Z</time>
      </trkpt>
      <trkpt lat="44.28116" lon="5.81951">
        <ele>550</ele>
        <time>2019-08-17T09:28:47Z</time>
      </trkpt>
      <trkpt lat="44.28122" lon="5.81955">
        <ele>550</ele>
        <time>2019-08-17T09:28:48Z</time>
      </trkpt>
      <trkpt lat="44.28128" lon="5.81958">
        <ele>550</ele>
        <time>2019-08-17T09:28:49Z</time>
      </trkpt>
      <trkpt lat="44.28133" lon="5.81962">
        <ele>551</ele>
        <time>2019-08-17T09:28:50Z</time>
      </trkpt>
      <trkpt lat="44.28139" lon="5.81965">
        <ele>551</ele>
        <time>2019-08-17T09:28:51Z</time>
      </trkpt>
      <trkpt lat="44.28144" lon="5.81969">
        <ele>551</ele>
        <time>2019-08-17T09:28:52Z</time>
      </trkpt>
      <trkpt lat="44.2815" lon="5.81973">
        <ele>551</ele>
        <time>2019-08-17T09:28:53Z</time>
      </trkpt>
      <trkpt lat="44.28155" lon="5.81976">
        <ele>551</ele>
        <time>2019-08-17T09:28:54Z</time>
      </trkpt>
      <trkpt lat="44.28161" lon="5.8198">
        <ele>551</ele>
        <time>2019-08-17T09:28:55Z</time>
      </trkpt>
      <trkpt lat="44.28167" lon="5.81983">
        <ele>551</ele>
        <time>2019-08-17T09:28:56Z</time>
      </trkpt>
      <trkpt lat="44.28173" lon="5.81987">
        <ele>551</ele>
        <time>2019-08-17T09:28:57Z</time>
      </trkpt>
      <trkpt lat="44.28178" lon="5.8199">
        <ele>551</ele>
        <time>2019-08-17T09:28:58Z</time>
      </trkpt>
      <trkpt lat="44.28184" lon="5.81994">
        <ele>551</ele>
        <time>2019-08-17T09:28:59Z</time>
      </trkpt>
      <trkpt lat="44.2819" lon="5.81998">
        <ele>551</ele>
        <time>2019-08-17T09:29:00Z</time>
      </trkpt>
      <trkpt lat="44.28196" lon="5.82001">
        <ele>551</ele>
        <time>2019-08-17T09:29:01Z</time>
      </trkpt>
      <trkpt lat="44.28202" lon="5.82005">
        <ele>551</ele>
        <time>2019-08-17T09:29:02Z</time>
      </trkpt>
      <trkpt lat="44.28208" lon="5.82008">
        <ele>551</ele>
        <time>2019-08-17T09:29:03Z</time>
      </trkpt>
      <trkpt lat="44.28214" lon="5.82011">
        <ele>551</ele>
        <time>2019-08-17T09:29:04Z</time>
      </trkpt>
      <trkpt lat="44.2822" lon="5.82014">
        <ele>551</ele>
        <time>2019-08-17T09:29:05Z</time>
      </trkpt>
      <trkpt lat="44.28225" lon="5.82017">
        <ele>551</ele>
        <time>2019-08-17T09:29:06Z</time>
      </trkpt>
      <trkpt lat="44.28231" lon="5.82019">
        <ele>551</ele>
        <time>2019-08-17T09:29:07Z</time>
      </trkpt>
      <trkpt lat="44.28238" lon="5.82021">
        <ele>551</ele>
        <time>2019-08-17T09:29:08Z</time>
      </trkpt>
      <trkpt lat="44.28243" lon="5.82023">
        <ele>551</ele>
        <time>2019-08-17T09:29:09Z</time>
      </trkpt>
      <trkpt lat="44.28249" lon="5.82024">
        <ele>552</ele>
        <time>2019-08-17T09:29:10Z</time>
      </trkpt>
      <trkpt lat="44.28255" lon="5.82025">
        <ele>552</ele>
        <time>2019-08-17T09:29:11Z</time>
      </trkpt>
      <trkpt lat="44.28261" lon="5.82026">
        <ele>552</ele>
        <time>2019-08-17T09:29:12Z</time>
      </trkpt>
      <trkpt lat="44.28267" lon="5.82026">
        <ele>552</ele>
        <time>2019-08-17T09:29:13Z</time>
      </trkpt>
      <trkpt lat="44.28273" lon="5.82027">
        <ele>553</ele>
        <time>2019-08-17T09:29:14Z</time>
      </trkpt>
      <trkpt lat="44.28279" lon="5.82027">
        <ele>553</ele>
        <time>2019-08-17T09:29:15Z</time>
      </trkpt>
      <trkpt lat="44.28285" lon="5.82027">
        <ele>553</ele>
        <time>2019-08-17T09:29:16Z</time>
      </trkpt>
      <trkpt lat="44.28291" lon="5.82027">
        <ele>553</ele>
        <time>2019-08-17T09:29:17Z</time>
      </trkpt>
      <trkpt lat="44.28297" lon="5.82027">
        <ele>553</ele>
        <time>2019-08-17T09:29:18Z</time>
      </trkpt>
      <trkpt lat="44.28303" lon="5.82027">
        <ele>553</ele>
        <time>2019-08-17T09:29:19Z</time>
      </trkpt>
      <trkpt lat="44.28309" lon="5.82027">
        <ele>553</ele>
        <time>2019-08-17T09:29:20Z</time>
      </trkpt>
      <trkpt lat="44.28315" lon="5.82027">
        <ele>554</ele>
        <time>2019-08-17T09:29:21Z</time>
      </trkpt>
      <trkpt lat="44.28322" lon="5.82027">
        <ele>554</ele>
        <time>2019-08-17T09:29:22Z</time>
      </trkpt>
      <trkpt lat="44.28328" lon="5.82027">
        <ele>554</ele>
        <time>2019-08-17T09:29:23Z</time>
      </trkpt>
      <trkpt lat="44.28334" lon="5.82027">
        <ele>554</ele>
        <time>2019-08-17T09:29:24Z</time>
      </trkpt>
      <trkpt lat="44.28341" lon="5.82028">
        <ele>554</ele>
        <time>2019-08-17T09:29:25Z</time>
      </trkpt>
      <trkpt lat="44.28347" lon="5.82028">
        <ele>554</ele>
        <time>2019-08-17T09:29:26Z</time>
      </trkpt>
      <trkpt lat="44.28353" lon="5.82028">
        <ele>554</ele>
        <time>2019-08-17T09:29:27Z</time>
      </trkpt>
      <trkpt lat="44.2836" lon="5.82028">
        <ele>554</ele>
        <time>2019-08-17T09:29:28Z</time>
      </trkpt>
      <trkpt lat="44.28366" lon="5.82028">
        <ele>554</ele>
        <time>2019-08-17T09:29:29Z</time>
      </trkpt>
      <trkpt lat="44.28372" lon="5.82028">
        <ele>554</ele>
        <time>2019-08-17T09:29:30Z</time>
      </trkpt>
      <trkpt lat="44.28379" lon="5.82028">
        <ele>554</ele>
        <time>2019-08-17T09:29:31Z</time>
      </trkpt>
      <trkpt lat="44.28385" lon="5.82029">
        <ele>554</ele>
        <time>2019-08-17T09:29:32Z</time>
      </trkpt>
      <trkpt lat="44.28392" lon="5.8203">
        <ele>554</ele>
        <time>2019-08-17T09:29:33Z</time>
      </trkpt>
      <trkpt lat="44.28399" lon="5.82031">
        <ele>554</ele>
        <time>2019-08-17T09:29:34Z</time>
      </trkpt>
      <trkpt lat="44.28405" lon="5.82032">
        <ele>554</ele>
        <time>2019-08-17T09:29:35Z</time>
      </trkpt>
      <trkpt lat="44.28411" lon="5.82033">
        <ele>554</ele>
        <time>2019-08-17T09:29:36Z</time>
      </trkpt>
      <trkpt lat="44.28418" lon="5.82034">
        <ele>554</ele>
        <time>2019-08-17T09:29:37Z</time>
      </trkpt>
      <trkpt lat="44.28424" lon="5.82036">
        <ele>554</ele>
        <time>2019-08-17T09:29:38Z</time>
      </trkpt>
      <trkpt lat="44.28431" lon="5.82037">
        <ele>554</ele>
        <time>2019-08-17T09:29:39Z</time>
      </trkpt>
      <trkpt lat="44.28437" lon="5.82039">
        <ele>554</ele>
        <time>2019-08-17T09:29:40Z</time>
      </trkpt>
      <trkpt lat="44.28443" lon="5.82042">
        <ele>554</ele>
        <time>2019-08-17T09:29:41Z</time>
      </trkpt>
      <trkpt lat="44.28449" lon="5.82044">
        <ele>554</ele>
        <time>2019-08-17T09:29:42Z</time>
      </trkpt>
      <trkpt lat="44.28455" lon="5.82047">
        <ele>554</ele>
        <time>2019-08-17T09:29:43Z</time>
      </trkpt>
      <trkpt lat="44.28461" lon="5.82049">
        <ele>554</ele>
        <time>2019-08-17T09:29:44Z</time>
      </trkpt>
      <trkpt lat="44.28467" lon="5.82052">
        <ele>554</ele>
        <time>2019-08-17T09:29:45Z</time>
      </trkpt>
      <trkpt lat="44.28473" lon="5.82054">
        <ele>554</ele>
        <time>2019-08-17T09:29:46Z</time>
      </trkpt>
      <trkpt lat="44.28479" lon="5.82057">
        <ele>554</ele>
        <time>2019-08-17T09:29:47Z</time>
      </trkpt>
      <trkpt lat="44.28485" lon="5.8206">
        <ele>554</ele>
        <time>2019-08-17T09:29:48Z</time>
      </trkpt>
      <trkpt lat="44.28491" lon="5.82063">
        <ele>554</ele>
        <time>2019-08-17T09:29:49Z</time>
      </trkpt>
      <trkpt lat="44.28497" lon="5.82066">
        <ele>554</ele>
        <time>2019-08-17T09:29:50Z</time>
      </trkpt>
      <trkpt lat="44.28502" lon="5.82068">
        <ele>555</ele>
        <time>2019-08-17T09:29:51Z</time>
      </trkpt>
      <trkpt lat="44.28508" lon="5.82071">
        <ele>555</ele>
        <time>2019-08-17T09:29:52Z</time>
      </trkpt>
      <trkpt lat="44.28514" lon="5.82074">
        <ele>555</ele>
        <time>2019-08-17T09:29:53Z</time>
      </trkpt>
      <trkpt lat="44.28519" lon="5.82078">
        <ele>555</ele>
        <time>2019-08-17T09:29:54Z</time>
      </trkpt>
      <trkpt lat="44.28525" lon="5.82081">
        <ele>556</ele>
        <time>2019-08-17T09:29:55Z</time>
      </trkpt>
      <trkpt lat="44.28531" lon="5.82083">
        <ele>556</ele>
        <time>2019-08-17T09:29:56Z</time>
      </trkpt>
      <trkpt lat="44.28536" lon="5.82086">
        <ele>556</ele>
        <time>2019-08-17T09:29:57Z</time>
      </trkpt>
      <trkpt lat="44.28542" lon="5.82089">
        <ele>557</ele>
        <time>2019-08-17T09:29:58Z</time>
      </trkpt>
      <trkpt lat="44.28547" lon="5.82092">
        <ele>557</ele>
        <time>2019-08-17T09:29:59Z</time>
      </trkpt>
      <trkpt lat="44.28553" lon="5.82094">
        <ele>557</ele>
        <time>2019-08-17T09:30:00Z</time>
      </trkpt>
      <trkpt lat="44.28558" lon="5.82097">
        <ele>558</ele>
        <time>2019-08-17T09:30:01Z</time>
      </trkpt>
      <trkpt lat="44.28563" lon="5.82099">
        <ele>558</ele>
        <time>2019-08-17T09:30:02Z</time>
      </trkpt>
      <trkpt lat="44.28569" lon="5.82102">
        <ele>558</ele>
        <time>2019-08-17T09:30:03Z</time>
      </trkpt>
      <trkpt lat="44.28574" lon="5.82104">
        <ele>559</ele>
        <time>2019-08-17T09:30:04Z</time>
      </trkpt>
      <trkpt lat="44.28579" lon="5.82107">
        <ele>559</ele>
        <time>2019-08-17T09:30:05Z</time>
      </trkpt>
      <trkpt lat="44.28584" lon="5.82109">
        <ele>559</ele>
        <time>2019-08-17T09:30:06Z</time>
      </trkpt>
      <trkpt lat="44.2859" lon="5.82112">
        <ele>559</ele>
        <time>2019-08-17T09:30:07Z</time>
      </trkpt>
      <trkpt lat="44.28595" lon="5.82114">
        <ele>560</ele>
        <time>2019-08-17T09:30:08Z</time>
      </trkpt>
      <trkpt lat="44.286" lon="5.82116">
        <ele>560</ele>
        <time>2019-08-17T09:30:09Z</time>
      </trkpt>
      <trkpt lat="44.28605" lon="5.82118">
        <ele>560</ele>
        <time>2019-08-17T09:30:10Z</time>
      </trkpt>
      <trkpt lat="44.2861" lon="5.8212">
        <ele>561</ele>
        <time>2019-08-17T09:30:11Z</time>
      </trkpt>
      <trkpt lat="44.28615" lon="5.82122">
        <ele>561</ele>
        <time>2019-08-17T09:30:12Z</time>
      </trkpt>
      <trkpt lat="44.2862" lon="5.82124">
        <ele>561</ele>
        <time>2019-08-17T09:30:13Z</time>
      </trkpt>
      <trkpt lat="44.28625" lon="5.82126">
        <ele>561</ele>
        <time>2019-08-17T09:30:14Z</time>
      </trkpt>
      <trkpt lat="44.2863" lon="5.82127">
        <ele>562</ele>
        <time>2019-08-17T09:30:15Z</time>
      </trkpt>
      <trkpt lat="44.28635" lon="5.82129">
        <ele>562</ele>
        <time>2019-08-17T09:30:16Z</time>
      </trkpt>
      <trkpt lat="44.2864" lon="5.8213">
        <ele>562</ele>
        <time>2019-08-17T09:30:17Z</time>
      </trkpt>
      <trkpt lat="44.28645" lon="5.82132">
        <ele>562</ele>
        <time>2019-08-17T09:30:18Z</time>
      </trkpt>
      <trkpt lat="44.2865" lon="5.82133">
        <ele>563</ele>
        <time>2019-08-17T09:30:19Z</time>
      </trkpt>
      <trkpt lat="44.28655" lon="5.82134">
        <ele>563</ele>
        <time>2019-08-17T09:30:20Z</time>
      </trkpt>
      <trkpt lat="44.28659" lon="5.82136">
        <ele>563</ele>
        <time>2019-08-17T09:30:21Z</time>
      </trkpt>
      <trkpt lat="44.28664" lon="5.82138">
        <ele>563</ele>
        <time>2019-08-17T09:30:22Z</time>
      </trkpt>
      <trkpt lat="44.28669" lon="5.82139">
        <ele>563</ele>
        <time>2019-08-17T09:30:23Z</time>
      </trkpt>
      <trkpt lat="44.28674" lon="5.82141">
        <ele>563</ele>
        <time>2019-08-17T09:30:24Z</time>
      </trkpt>
      <trkpt lat="44.2868" lon="5.82143">
        <ele>563</ele>
        <time>2019-08-17T09:30:25Z</time>
      </trkpt>
      <trkpt lat="44.28685" lon="5.82144">
        <ele>563</ele>
        <time>2019-08-17T09:30:26Z</time>
      </trkpt>
      <trkpt lat="44.2869" lon="5.82145">
        <ele>563</ele>
        <time>2019-08-17T09:30:27Z</time>
      </trkpt>
      <trkpt lat="44.28695" lon="5.82147">
        <ele>563</ele>
        <time>2019-08-17T09:30:28Z</time>
      </trkpt>
      <trkpt lat="44.287" lon="5.82148">
        <ele>563</ele>
        <time>2019-08-17T09:30:29Z</time>
      </trkpt>
      <trkpt lat="44.28704" lon="5.8215">
        <ele>563</ele>
        <time>2019-08-17T09:30:30Z</time>
      </trkpt>
      <trkpt lat="44.28709" lon="5.82151">
        <ele>563</ele>
        <time>2019-08-17T09:30:31Z</time>
      </trkpt>
      <trkpt lat="44.28714" lon="5.82152">
        <ele>563</ele>
        <time>2019-08-17T09:30:32Z</time>
      </trkpt>
      <trkpt lat="44.28719" lon="5.82154">
        <ele>563</ele>
        <time>2019-08-17T09:30:33Z</time>
      </trkpt>
      <trkpt lat="44.28724" lon="5.82156">
        <ele>563</ele>
        <time>2019-08-17T09:30:34Z</time>
      </trkpt>
      <trkpt lat="44.28728" lon="5.82157">
        <ele>563</ele>
        <time>2019-08-17T09:30:35Z</time>
      </trkpt>
      <trkpt lat="44.28733" lon="5.82159">
        <ele>563</ele>
        <time>2019-08-17T09:30:36Z</time>
      </trkpt>
      <trkpt lat="44.28738" lon="5.82162">
        <ele>563</ele>
        <time>2019-08-17T09:30:37Z</time>
      </trkpt>
      <trkpt lat="44.28743" lon="5.82164">
        <ele>563</ele>
        <time>2019-08-17T09:30:38Z</time>
      </trkpt>
      <trkpt lat="44.28747" lon="5.82166">
        <ele>563</ele>
        <time>2019-08-17T09:30:39Z</time>
      </trkpt>
      <trkpt lat="44.28752" lon="5.82169">
        <ele>563</ele>
        <time>2019-08-17T09:30:40Z</time>
      </trkpt>
      <trkpt lat="44.28756" lon="5.82171">
        <ele>563</ele>
        <time>2019-08-17T09:30:41Z</time>
      </trkpt>
      <trkpt lat="44.28761" lon="5.82174">
        <ele>563</ele>
        <time>2019-08-17T09:30:42Z</time>
      </trkpt>
      <trkpt lat="44.28765" lon="5.82176">
        <ele>563</ele>
        <time>2019-08-17T09:30:43Z</time>
      </trkpt>
      <trkpt lat="44.2877" lon="5.82179">
        <ele>564</ele>
        <time>2019-08-17T09:30:44Z</time>
      </trkpt>
      <trkpt lat="44.28775" lon="5.82183">
        <ele>564</ele>
        <time>2019-08-17T09:30:45Z</time>
      </trkpt>
      <trkpt lat="44.28779" lon="5.82185">
        <ele>565</ele>
        <time>2019-08-17T09:30:46Z</time>
      </trkpt>
      <trkpt lat="44.28783" lon="5.82188">
        <ele>565</ele>
        <time>2019-08-17T09:30:47Z</time>
      </trkpt>
      <trkpt lat="44.28788" lon="5.82191">
        <ele>566</ele>
        <time>2019-08-17T09:30:48Z</time>
      </trkpt>
      <trkpt lat="44.28792" lon="5.82194">
        <ele>566</ele>
        <time>2019-08-17T09:30:49Z</time>
      </trkpt>
      <trkpt lat="44.28796" lon="5.82197">
        <ele>567</ele>
        <time>2019-08-17T09:30:50Z</time>
      </trkpt>
      <trkpt lat="44.288" lon="5.822">
        <ele>567</ele>
        <time>2019-08-17T09:30:51Z</time>
      </trkpt>
      <trkpt lat="44.28804" lon="5.82203">
        <ele>568</ele>
        <time>2019-08-17T09:30:52Z</time>
      </trkpt>
      <trkpt lat="44.28808" lon="5.82206">
        <ele>568</ele>
        <time>2019-08-17T09:30:53Z</time>
      </trkpt>
      <trkpt lat="44.28812" lon="5.82209">
        <ele>568</ele>
        <time>2019-08-17T09:30:54Z</time>
      </trkpt>
      <trkpt lat="44.28816" lon="5.82212">
        <ele>569</ele>
        <time>2019-08-17T09:30:55Z</time>
      </trkpt>
      <trkpt lat="44.2882" lon="5.82216">
        <ele>569</ele>
        <time>2019-08-17T09:30:56Z</time>
      </trkpt>
      <trkpt lat="44.28824" lon="5.8222">
        <ele>569</ele>
        <time>2019-08-17T09:30:57Z</time>
      </trkpt>
      <trkpt lat="44.28828" lon="5.82223">
        <ele>569</ele>
        <time>2019-08-17T09:30:58Z</time>
      </trkpt>
      <trkpt lat="44.28833" lon="5.82227">
        <ele>570</ele>
        <time>2019-08-17T09:30:59Z</time>
      </trkpt>
      <trkpt lat="44.28837" lon="5.82231">
        <ele>570</ele>
        <time>2019-08-17T09:31:00Z</time>
      </trkpt>
      <trkpt lat="44.28841" lon="5.82235">
        <ele>570</ele>
        <time>2019-08-17T09:31:01Z</time>
      </trkpt>
      <trkpt lat="44.28846" lon="5.82239">
        <ele>570</ele>
        <time>2019-08-17T09:31:02Z</time>
      </trkpt>
      <trkpt lat="44.2885" lon="5.82244">
        <ele>571</ele>
        <time>2019-08-17T09:31:03Z</time>
      </trkpt>
      <trkpt lat="44.28854" lon="5.82248">
        <ele>571</ele>
        <time>2019-08-17T09:31:04Z</time>
      </trkpt>
      <trkpt lat="44.28859" lon="5.82253">
        <ele>571</ele>
        <time>2019-08-17T09:31:05Z</time>
      </trkpt>
      <trkpt lat="44.28864" lon="5.82257">
        <ele>572</ele>
        <time>2019-08-17T09:31:06Z</time>
      </trkpt>
      <trkpt lat="44.28868" lon="5.82262">
        <ele>572</ele>
        <time>2019-08-17T09:31:07Z</time>
      </trkpt>
      <trkpt lat="44.28872" lon="5.82266">
        <ele>572</ele>
        <time>2019-08-17T09:31:08Z</time>
      </trkpt>
      <trkpt lat="44.28877" lon="5.8227">
        <ele>572</ele>
        <time>2019-08-17T09:31:09Z</time>
      </trkpt>
      <trkpt lat="44.28882" lon="5.82274">
        <ele>572</ele>
        <time>2019-08-17T09:31:10Z</time>
      </trkpt>
      <trkpt lat="44.28887" lon="5.82277">
        <ele>572</ele>
        <time>2019-08-17T09:31:11Z</time>
      </trkpt>
      <trkpt lat="44.28893" lon="5.8228">
        <ele>572</ele>
        <time>2019-08-17T09:31:12Z</time>
      </trkpt>
      <trkpt lat="44.28898" lon="5.82283">
        <ele>572</ele>
        <time>2019-08-17T09:31:13Z</time>
      </trkpt>
      <trkpt lat="44.28904" lon="5.82286">
        <ele>573</ele>
        <time>2019-08-17T09:31:14Z</time>
      </trkpt>
      <trkpt lat="44.28909" lon="5.82288">
        <ele>573</ele>
        <time>2019-08-17T09:31:15Z</time>
      </trkpt>
      <trkpt lat="44.28915" lon="5.82289">
        <ele>573</ele>
        <time>2019-08-17T09:31:16Z</time>
      </trkpt>
      <trkpt lat="44.28922" lon="5.82291">
        <ele>573</ele>
        <time>2019-08-17T09:31:17Z</time>
      </trkpt>
      <trkpt lat="44.28928" lon="5.82291">
        <ele>573</ele>
        <time>2019-08-17T09:31:18Z</time>
      </trkpt>
      <trkpt lat="44.28934" lon="5.82291">
        <ele>573</ele>
        <time>2019-08-17T09:31:19Z</time>
      </trkpt>
      <trkpt lat="44.28941" lon="5.82291">
        <ele>573</ele>
        <time>2019-08-17T09:31:20Z</time>
      </trkpt>
      <trkpt lat="44.28948" lon="5.82291">
        <ele>573</ele>
        <time>2019-08-17T09:31:21Z</time>
      </trkpt>
      <trkpt lat="44.28956" lon="5.82291">
        <ele>573</ele>
        <time>2019-08-17T09:31:22Z</time>
      </trkpt>
      <trkpt lat="44.28963" lon="5.8229">
        <ele>573</ele>
        <time>2019-08-17T09:31:23Z</time>
      </trkpt>
      <trkpt lat="44.28971" lon="5.8229">
        <ele>573</ele>
        <time>2019-08-17T09:31:24Z</time>
      </trkpt>
      <trkpt lat="44.28979" lon="5.82289">
        <ele>573</ele>
        <time>2019-08-17T09:31:25Z</time>
      </trkpt>
      <trkpt lat="44.28987" lon="5.82289">
        <ele>573</ele>
        <time>2019-08-17T09:31:26Z</time>
      </trkpt>
      <trkpt lat="44.28995" lon="5.82289">
        <ele>573</ele>
        <time>2019-08-17T09:31:27Z</time>
      </trkpt>
      <trkpt lat="44.29003" lon="5.82288">
        <ele>573</ele>
        <time>2019-08-17T09:31:28Z</time>
      </trkpt>
      <trkpt lat="44.29012" lon="5.82287">
        <ele>573</ele>
        <time>2019-08-17T09:31:29Z</time>
      </trkpt>
      <trkpt lat="44.2902" lon="5.82287">
        <ele>573</ele>
        <time>2019-08-17T09:31:30Z</time>
      </trkpt>
      <trkpt lat="44.29028" lon="5.82286">
        <ele>573</ele>
        <time>2019-08-17T09:31:31Z</time>
      </trkpt>
      <trkpt lat="44.29037" lon="5.82286">
        <ele>573</ele>
        <time>2019-08-17T09:31:32Z</time>
      </trkpt>
      <trkpt lat="44.29045" lon="5.82285">
        <ele>573</ele>
        <time>2019-08-17T09:31:33Z</time>
      </trkpt>
      <trkpt lat="44.29054" lon="5.82284">
        <ele>573</ele>
        <time>2019-08-17T09:31:34Z</time>
      </trkpt>
      <trkpt lat="44.29062" lon="5.82284">
        <ele>573</ele>
        <time>2019-08-17T09:31:35Z</time>
      </trkpt>
      <trkpt lat="44.29071" lon="5.82283">
        <ele>573</ele>
        <time>2019-08-17T09:31:36Z</time>
      </trkpt>
      <trkpt lat="44.2908" lon="5.82282">
        <ele>573</ele>
        <time>2019-08-17T09:31:37Z</time>
      </trkpt>
      <trkpt lat="44.29089" lon="5.82281">
        <ele>573</ele>
        <time>2019-08-17T09:31:38Z</time>
      </trkpt>
      <trkpt lat="44.29097" lon="5.8228">
        <ele>573</ele>
        <time>2019-08-17T09:31:39Z</time>
      </trkpt>
      <trkpt lat="44.29106" lon="5.82279">
        <ele>573</ele>
        <time>2019-08-17T09:31:40Z</time>
      </trkpt>
      <trkpt lat="44.29115" lon="5.82278">
        <ele>573</ele>
        <time>2019-08-17T09:31:41Z</time>
      </trkpt>
      <trkpt lat="44.29123" lon="5.82277">
        <ele>573</ele>
        <time>2019-08-17T09:31:42Z</time>
      </trkpt>
      <trkpt lat="44.29132" lon="5.82276">
        <ele>572</ele>
        <time>2019-08-17T09:31:43Z</time>
      </trkpt>
      <trkpt lat="44.29141" lon="5.82275">
        <ele>571</ele>
        <time>2019-08-17T09:31:44Z</time>
      </trkpt>
      <trkpt lat="44.2915" lon="5.82274">
        <ele>571</ele>
        <time>2019-08-17T09:31:45Z</time>
      </trkpt>
      <trkpt lat="44.29158" lon="5.82273">
        <ele>570</ele>
        <time>2019-08-17T09:31:46Z</time>
      </trkpt>
      <trkpt lat="44.29167" lon="5.82272">
        <ele>569</ele>
        <time>2019-08-17T09:31:47Z</time>
      </trkpt>
      <trkpt lat="44.29176" lon="5.82271">
        <ele>569</ele>
        <time>2019-08-17T09:31:48Z</time>
      </trkpt>
      <trkpt lat="44.29184" lon="5.8227">
        <ele>569</ele>
        <time>2019-08-17T09:31:49Z</time>
      </trkpt>
      <trkpt lat="44.29192" lon="5.82269">
        <ele>568</ele>
        <time>2019-08-17T09:31:50Z</time>
      </trkpt>
      <trkpt lat="44.29201" lon="5.82268">
        <ele>568</ele>
        <time>2019-08-17T09:31:51Z</time>
      </trkpt>
      <trkpt lat="44.29209" lon="5.82267">
        <ele>568</ele>
        <time>2019-08-17T09:31:52Z</time>
      </trkpt>
      <trkpt lat="44.29217" lon="5.82266">
        <ele>568</ele>
        <time>2019-08-17T09:31:53Z</time>
      </trkpt>
      <trkpt lat="44.29226" lon="5.82265">
        <ele>568</ele>
        <time>2019-08-17T09:31:54Z</time>
      </trkpt>
      <trkpt lat="44.29234" lon="5.82264">
        <ele>568</ele>
        <time>2019-08-17T09:31:55Z</time>
      </trkpt>
      <trkpt lat="44.29242" lon="5.82262">
        <ele>568</ele>
        <time>2019-08-17T09:31:56Z</time>
      </trkpt>
      <trkpt lat="44.2925" lon="5.8226">
        <ele>568</ele>
        <time>2019-08-17T09:31:57Z</time>
      </trkpt>
      <trkpt lat="44.29258" lon="5.82258">
        <ele>568</ele>
        <time>2019-08-17T09:31:58Z</time>
      </trkpt>
      <trkpt lat="44.29266" lon="5.82255">
        <ele>568</ele>
        <time>2019-08-17T09:31:59Z</time>
      </trkpt>
      <trkpt lat="44.29274" lon="5.82252">
        <ele>568</ele>
        <time>2019-08-17T09:32:00Z</time>
      </trkpt>
      <trkpt lat="44.29281" lon="5.82249">
        <ele>568</ele>
        <time>2019-08-17T09:32:01Z</time>
      </trkpt>
      <trkpt lat="44.29289" lon="5.82246">
        <ele>568</ele>
        <time>2019-08-17T09:32:02Z</time>
      </trkpt>
      <trkpt lat="44.29296" lon="5.82243">
        <ele>568</ele>
        <time>2019-08-17T09:32:03Z</time>
      </trkpt>
      <trkpt lat="44.29304" lon="5.8224">
        <ele>568</ele>
        <time>2019-08-17T09:32:04Z</time>
      </trkpt>
      <trkpt lat="44.29311" lon="5.82236">
        <ele>568</ele>
        <time>2019-08-17T09:32:05Z</time>
      </trkpt>
      <trkpt lat="44.29319" lon="5.82233">
        <ele>568</ele>
        <time>2019-08-17T09:32:06Z</time>
      </trkpt>
      <trkpt lat="44.29326" lon="5.8223">
        <ele>568</ele>
        <time>2019-08-17T09:32:07Z</time>
      </trkpt>
      <trkpt lat="44.29333" lon="5.82227">
        <ele>568</ele>
        <time>2019-08-17T09:32:08Z</time>
      </trkpt>
      <trkpt lat="44.2934" lon="5.82224">
        <ele>568</ele>
        <time>2019-08-17T09:32:09Z</time>
      </trkpt>
      <trkpt lat="44.29347" lon="5.8222">
        <ele>568</ele>
        <time>2019-08-17T09:32:10Z</time>
      </trkpt>
      <trkpt lat="44.29354" lon="5.82216">
        <ele>568</ele>
        <time>2019-08-17T09:32:11Z</time>
      </trkpt>
      <trkpt lat="44.29362" lon="5.82212">
        <ele>568</ele>
        <time>2019-08-17T09:32:12Z</time>
      </trkpt>
      <trkpt lat="44.29369" lon="5.82207">
        <ele>568</ele>
        <time>2019-08-17T09:32:13Z</time>
      </trkpt>
      <trkpt lat="44.29375" lon="5.82202">
        <ele>568</ele>
        <time>2019-08-17T09:32:14Z</time>
      </trkpt>
      <trkpt lat="44.29382" lon="5.82196">
        <ele>568</ele>
        <time>2019-08-17T09:32:15Z</time>
      </trkpt>
      <trkpt lat="44.29388" lon="5.8219">
        <ele>568</ele>
        <time>2019-08-17T09:32:16Z</time>
      </trkpt>
      <trkpt lat="44.29394" lon="5.82183">
        <ele>568</ele>
        <time>2019-08-17T09:32:17Z</time>
      </trkpt>
      <trkpt lat="44.294" lon="5.82176">
        <ele>568</ele>
        <time>2019-08-17T09:32:18Z</time>
      </trkpt>
      <trkpt lat="44.29406" lon="5.82169">
        <ele>568</ele>
        <time>2019-08-17T09:32:19Z</time>
      </trkpt>
      <trkpt lat="44.29412" lon="5.82162">
        <ele>568</ele>
        <time>2019-08-17T09:32:20Z</time>
      </trkpt>
      <trkpt lat="44.29419" lon="5.82154">
        <ele>568</ele>
        <time>2019-08-17T09:32:21Z</time>
      </trkpt>
      <trkpt lat="44.29425" lon="5.82147">
        <ele>568</ele>
        <time>2019-08-17T09:32:22Z</time>
      </trkpt>
      <trkpt lat="44.29431" lon="5.8214">
        <ele>568</ele>
        <time>2019-08-17T09:32:23Z</time>
      </trkpt>
      <trkpt lat="44.29438" lon="5.82133">
        <ele>568</ele>
        <time>2019-08-17T09:32:24Z</time>
      </trkpt>
      <trkpt lat="44.29445" lon="5.82127">
        <ele>568</ele>
        <time>2019-08-17T09:32:25Z</time>
      </trkpt>
      <trkpt lat="44.29452" lon="5.82121">
        <ele>568</ele>
        <time>2019-08-17T09:32:26Z</time>
      </trkpt>
      <trkpt lat="44.29459" lon="5.82116">
        <ele>568</ele>
        <time>2019-08-17T09:32:27Z</time>
      </trkpt>
      <trkpt lat="44.29467" lon="5.82112">
        <ele>568</ele>
        <time>2019-08-17T09:32:28Z</time>
      </trkpt>
      <trkpt lat="44.29475" lon="5.82108">
        <ele>568</ele>
        <time>2019-08-17T09:32:29Z</time>
      </trkpt>
      <trkpt lat="44.29483" lon="5.82105">
        <ele>569</ele>
        <time>2019-08-17T09:32:30Z</time>
      </trkpt>
      <trkpt lat="44.29491" lon="5.82104">
        <ele>569</ele>
        <time>2019-08-17T09:32:31Z</time>
      </trkpt>
      <trkpt lat="44.29499" lon="5.82103">
        <ele>569</ele>
        <time>2019-08-17T09:32:32Z</time>
      </trkpt>
      <trkpt lat="44.29507" lon="5.82103">
        <ele>569</ele>
        <time>2019-08-17T09:32:33Z</time>
      </trkpt>
      <trkpt lat="44.29515" lon="5.82103">
        <ele>569</ele>
        <time>2019-08-17T09:32:34Z</time>
      </trkpt>
      <trkpt lat="44.29522" lon="5.82104">
        <ele>569</ele>
        <time>2019-08-17T09:32:35Z</time>
      </trkpt>
      <trkpt lat="44.2953" lon="5.82105">
        <ele>569</ele>
        <time>2019-08-17T09:32:36Z</time>
      </trkpt>
      <trkpt lat="44.29539" lon="5.82107">
        <ele>569</ele>
        <time>2019-08-17T09:32:37Z</time>
      </trkpt>
      <trkpt lat="44.29547" lon="5.82108">
        <ele>569</ele>
        <time>2019-08-17T09:32:38Z</time>
      </trkpt>
      <trkpt lat="44.29555" lon="5.8211">
        <ele>569</ele>
        <time>2019-08-17T09:32:39Z</time>
      </trkpt>
      <trkpt lat="44.29563" lon="5.82112">
        <ele>569</ele>
        <time>2019-08-17T09:32:40Z</time>
      </trkpt>
      <trkpt lat="44.29571" lon="5.82114">
        <ele>569</ele>
        <time>2019-08-17T09:32:41Z</time>
      </trkpt>
      <trkpt lat="44.29579" lon="5.82118">
        <ele>569</ele>
        <time>2019-08-17T09:32:42Z</time>
      </trkpt>
      <trkpt lat="44.29587" lon="5.82121">
        <ele>569</ele>
        <time>2019-08-17T09:32:43Z</time>
      </trkpt>
      <trkpt lat="44.29595" lon="5.82124">
        <ele>569</ele>
        <time>2019-08-17T09:32:44Z</time>
      </trkpt>
      <trkpt lat="44.29602" lon="5.82128">
        <ele>569</ele>
        <time>2019-08-17T09:32:45Z</time>
      </trkpt>
      <trkpt lat="44.2961" lon="5.82133">
        <ele>569</ele>
        <time>2019-08-17T09:32:46Z</time>
      </trkpt>
      <trkpt lat="44.29617" lon="5.82138">
        <ele>569</ele>
        <time>2019-08-17T09:32:47Z</time>
      </trkpt>
      <trkpt lat="44.29624" lon="5.82143">
        <ele>569</ele>
        <time>2019-08-17T09:32:48Z</time>
      </trkpt>
      <trkpt lat="44.29631" lon="5.82149">
        <ele>569</ele>
        <time>2019-08-17T09:32:49Z</time>
      </trkpt>
      <trkpt lat="44.29639" lon="5.82155">
        <ele>569</ele>
        <time>2019-08-17T09:32:50Z</time>
      </trkpt>
      <trkpt lat="44.29645" lon="5.82161">
        <ele>569</ele>
        <time>2019-08-17T09:32:51Z</time>
      </trkpt>
      <trkpt lat="44.29652" lon="5.82168">
        <ele>569</ele>
        <time>2019-08-17T09:32:52Z</time>
      </trkpt>
      <trkpt lat="44.29659" lon="5.82175">
        <ele>569</ele>
        <time>2019-08-17T09:32:53Z</time>
      </trkpt>
      <trkpt lat="44.29665" lon="5.82182">
        <ele>569</ele>
        <time>2019-08-17T09:32:54Z</time>
      </trkpt>
      <trkpt lat="44.29671" lon="5.82189">
        <ele>569</ele>
        <time>2019-08-17T09:32:55Z</time>
      </trkpt>
      <trkpt lat="44.29678" lon="5.82196">
        <ele>569</ele>
        <time>2019-08-17T09:32:56Z</time>
      </trkpt>
      <trkpt lat="44.29684" lon="5.82202">
        <ele>569</ele>
        <time>2019-08-17T09:32:57Z</time>
      </trkpt>
      <trkpt lat="44.29691" lon="5.82208">
        <ele>569</ele>
        <time>2019-08-17T09:32:58Z</time>
      </trkpt>
      <trkpt lat="44.29697" lon="5.82214">
        <ele>569</ele>
        <time>2019-08-17T09:32:59Z</time>
      </trkpt>
      <trkpt lat="44.29704" lon="5.82219">
        <ele>569</ele>
        <time>2019-08-17T09:33:00Z</time>
      </trkpt>
      <trkpt lat="44.29711" lon="5.82224">
        <ele>569</ele>
        <time>2019-08-17T09:33:01Z</time>
      </trkpt>
      <trkpt lat="44.29718" lon="5.82229">
        <ele>569</ele>
        <time>2019-08-17T09:33:02Z</time>
      </trkpt>
      <trkpt lat="44.29725" lon="5.82233">
        <ele>569</ele>
        <time>2019-08-17T09:33:03Z</time>
      </trkpt>
      <trkpt lat="44.29732" lon="5.82237">
        <ele>569</ele>
        <time>2019-08-17T09:33:04Z</time>
      </trkpt>
      <trkpt lat="44.29739" lon="5.8224">
        <ele>569</ele>
        <time>2019-08-17T09:33:05Z</time>
      </trkpt>
      <trkpt lat="44.29746" lon="5.82243">
        <ele>569</ele>
        <time>2019-08-17T09:33:06Z</time>
      </trkpt>
      <trkpt lat="44.29754" lon="5.82246">
        <ele>569</ele>
        <time>2019-08-17T09:33:07Z</time>
      </trkpt>
      <trkpt lat="44.29761" lon="5.82248">
        <ele>569</ele>
        <time>2019-08-17T09:33:08Z</time>
      </trkpt>
      <trkpt lat="44.29768" lon="5.8225">
        <ele>569</ele>
        <time>2019-08-17T09:33:09Z</time>
      </trkpt>
      <trkpt lat="44.29776" lon="5.82252">
        <ele>569</ele>
        <time>2019-08-17T09:33:10Z</time>
      </trkpt>
      <trkpt lat="44.29783" lon="5.82253">
        <ele>569</ele>
        <time>2019-08-17T09:33:11Z</time>
      </trkpt>
      <trkpt lat="44.29791" lon="5.82255">
        <ele>569</ele>
        <time>2019-08-17T09:33:12Z</time>
      </trkpt>
      <trkpt lat="44.29799" lon="5.82256">
        <ele>569</ele>
        <time>2019-08-17T09:33:13Z</time>
      </trkpt>
      <trkpt lat="44.29806" lon="5.82257">
        <ele>569</ele>
        <time>2019-08-17T09:33:14Z</time>
      </trkpt>
      <trkpt lat="44.29814" lon="5.82259">
        <ele>569</ele>
        <time>2019-08-17T09:33:15Z</time>
      </trkpt>
      <trkpt lat="44.29822" lon="5.8226">
        <ele>569</ele>
        <time>2019-08-17T09:33:16Z</time>
      </trkpt>
      <trkpt lat="44.2983" lon="5.82262">
        <ele>569</ele>
        <time>2019-08-17T09:33:17Z</time>
      </trkpt>
      <trkpt lat="44.29838" lon="5.82264">
        <ele>569</ele>
        <time>2019-08-17T09:33:18Z</time>
      </trkpt>
      <trkpt lat="44.29845" lon="5.82267">
        <ele>569</ele>
        <time>2019-08-17T09:33:19Z</time>
      </trkpt>
      <trkpt lat="44.29853" lon="5.82269">
        <ele>569</ele>
        <time>2019-08-17T09:33:20Z</time>
      </trkpt>
      <trkpt lat="44.29861" lon="5.82273">
        <ele>569</ele>
        <time>2019-08-17T09:33:21Z</time>
      </trkpt>
      <trkpt lat="44.29869" lon="5.82276">
        <ele>569</ele>
        <time>2019-08-17T09:33:22Z</time>
      </trkpt>
      <trkpt lat="44.29876" lon="5.8228">
        <ele>569</ele>
        <time>2019-08-17T09:33:23Z</time>
      </trkpt>
      <trkpt lat="44.29884" lon="5.82284">
        <ele>569</ele>
        <time>2019-08-17T09:33:24Z</time>
      </trkpt>
      <trkpt lat="44.29891" lon="5.82289">
        <ele>569</ele>
        <time>2019-08-17T09:33:25Z</time>
      </trkpt>
      <trkpt lat="44.29898" lon="5.82293">
        <ele>569</ele>
        <time>2019-08-17T09:33:26Z</time>
      </trkpt>
      <trkpt lat="44.29905" lon="5.82297">
        <ele>569</ele>
        <time>2019-08-17T09:33:27Z</time>
      </trkpt>
      <trkpt lat="44.29912" lon="5.82301">
        <ele>569</ele>
        <time>2019-08-17T09:33:28Z</time>
      </trkpt>
      <trkpt lat="44.29919" lon="5.82305">
        <ele>569</ele>
        <time>2019-08-17T09:33:29Z</time>
      </trkpt>
      <trkpt lat="44.29927" lon="5.82308">
        <ele>569</ele>
        <time>2019-08-17T09:33:30Z</time>
      </trkpt>
      <trkpt lat="44.29934" lon="5.82312">
        <ele>569</ele>
        <time>2019-08-17T09:33:31Z</time>
      </trkpt>
      <trkpt lat="44.2994" lon="5.82315">
        <ele>569</ele>
        <time>2019-08-17T09:33:32Z</time>
      </trkpt>
      <trkpt lat="44.29947" lon="5.82318">
        <ele>569</ele>
        <time>2019-08-17T09:33:33Z</time>
      </trkpt>
      <trkpt lat="44.29954" lon="5.8232">
        <ele>569</ele>
        <time>2019-08-17T09:33:34Z</time>
      </trkpt>
      <trkpt lat="44.29961" lon="5.82323">
        <ele>569</ele>
        <time>2019-08-17T09:33:35Z</time>
      </trkpt>
      <trkpt lat="44.29968" lon="5.82326">
        <ele>569</ele>
        <time>2019-08-17T09:33:36Z</time>
      </trkpt>
      <trkpt lat="44.29975" lon="5.82329">
        <ele>569</ele>
        <time>2019-08-17T09:33:37Z</time>
      </trkpt>
      <trkpt lat="44.29982" lon="5.82331">
        <ele>569</ele>
        <time>2019-08-17T09:33:38Z</time>
      </trkpt>
      <trkpt lat="44.29989" lon="5.82334">
        <ele>569</ele>
        <time>2019-08-17T09:33:39Z</time>
      </trkpt>
      <trkpt lat="44.29996" lon="5.82336">
        <ele>569</ele>
        <time>2019-08-17T09:33:40Z</time>
      </trkpt>
      <trkpt lat="44.30003" lon="5.82338">
        <ele>569</ele>
        <time>2019-08-17T09:33:41Z</time>
      </trkpt>
      <trkpt lat="44.3001" lon="5.82339">
        <ele>569</ele>
        <time>2019-08-17T09:33:42Z</time>
      </trkpt>
      <trkpt lat="44.30017" lon="5.82341">
        <ele>569</ele>
        <time>2019-08-17T09:33:43Z</time>
      </trkpt>
      <trkpt lat="44.30024" lon="5.82342">
        <ele>569</ele>
        <time>2019-08-17T09:33:44Z</time>
      </trkpt>
      <trkpt lat="44.30031" lon="5.82344">
        <ele>569</ele>
        <time>2019-08-17T09:33:45Z</time>
      </trkpt>
      <trkpt lat="44.30038" lon="5.82345">
        <ele>569</ele>
        <time>2019-08-17T09:33:46Z</time>
      </trkpt>
      <trkpt lat="44.30046" lon="5.82346">
        <ele>569</ele>
        <time>2019-08-17T09:33:47Z</time>
      </trkpt>
      <trkpt lat="44.30053" lon="5.82347">
        <ele>569</ele>
        <time>2019-08-17T09:33:48Z</time>
      </trkpt>
      <trkpt lat="44.3006" lon="5.82348">
        <ele>569</ele>
        <time>2019-08-17T09:33:49Z</time>
      </trkpt>
      <trkpt lat="44.30067" lon="5.82349">
        <ele>569</ele>
        <time>2019-08-17T09:33:50Z</time>
      </trkpt>
      <trkpt lat="44.30075" lon="5.8235">
        <ele>569</ele>
        <time>2019-08-17T09:33:51Z</time>
      </trkpt>
      <trkpt lat="44.30082" lon="5.8235">
        <ele>569</ele>
        <time>2019-08-17T09:33:52Z</time>
      </trkpt>
      <trkpt lat="44.30089" lon="5.82351">
        <ele>569</ele>
        <time>2019-08-17T09:33:53Z</time>
      </trkpt>
      <trkpt lat="44.30097" lon="5.82351">
        <ele>569</ele>
        <time>2019-08-17T09:33:54Z</time>
      </trkpt>
      <trkpt lat="44.30104" lon="5.82351">
        <ele>569</ele>
        <time>2019-08-17T09:33:55Z</time>
      </trkpt>
      <trkpt lat="44.30111" lon="5.82351">
        <ele>569</ele>
        <time>2019-08-17T09:33:56Z</time>
      </trkpt>
      <trkpt lat="44.30119" lon="5.82351">
        <ele>569</ele>
        <time>2019-08-17T09:33:57Z</time>
      </trkpt>
      <trkpt lat="44.30126" lon="5.82351">
        <ele>569</ele>
        <time>2019-08-17T09:33:58Z</time>
      </trkpt>
      <trkpt lat="44.30134" lon="5.82351">
        <ele>569</ele>
        <time>2019-08-17T09:33:59Z</time>
      </trkpt>
      <trkpt lat="44.30141" lon="5.82352">
        <ele>569</ele>
        <time>2019-08-17T09:34:00Z</time>
      </trkpt>
      <trkpt lat="44.30149" lon="5.82352">
        <ele>569</ele>
        <time>2019-08-17T09:34:01Z</time>
      </trkpt>
      <trkpt lat="44.30156" lon="5.82353">
        <ele>569</ele>
        <time>2019-08-17T09:34:02Z</time>
      </trkpt>
      <trkpt lat="44.30164" lon="5.82354">
        <ele>569</ele>
        <time>2019-08-17T09:34:03Z</time>
      </trkpt>
      <trkpt lat="44.30171" lon="5.82355">
        <ele>569</ele>
        <time>2019-08-17T09:34:04Z</time>
      </trkpt>
      <trkpt lat="44.30178" lon="5.82355">
        <ele>569</ele>
        <time>2019-08-17T09:34:05Z</time>
      </trkpt>
      <trkpt lat="44.30186" lon="5.82355">
        <ele>569</ele>
        <time>2019-08-17T09:34:06Z</time>
      </trkpt>
      <trkpt lat="44.30193" lon="5.82356">
        <ele>569</ele>
        <time>2019-08-17T09:34:07Z</time>
      </trkpt>
      <trkpt lat="44.302" lon="5.82356">
        <ele>569</ele>
        <time>2019-08-17T09:34:08Z</time>
      </trkpt>
      <trkpt lat="44.30208" lon="5.82357">
        <ele>569</ele>
        <time>2019-08-17T09:34:09Z</time>
      </trkpt>
      <trkpt lat="44.30215" lon="5.82357">
        <ele>569</ele>
        <time>2019-08-17T09:34:10Z</time>
      </trkpt>
      <trkpt lat="44.30222" lon="5.82357">
        <ele>569</ele>
        <time>2019-08-17T09:34:11Z</time>
      </trkpt>
      <trkpt lat="44.3023" lon="5.82356">
        <ele>569</ele>
        <time>2019-08-17T09:34:12Z</time>
      </trkpt>
      <trkpt lat="44.30237" lon="5.82355">
        <ele>569</ele>
        <time>2019-08-17T09:34:13Z</time>
      </trkpt>
      <trkpt lat="44.30244" lon="5.82354">
        <ele>569</ele>
        <time>2019-08-17T09:34:14Z</time>
      </trkpt>
      <trkpt lat="44.30251" lon="5.82353">
        <ele>569</ele>
        <time>2019-08-17T09:34:15Z</time>
      </trkpt>
      <trkpt lat="44.30259" lon="5.82352">
        <ele>569</ele>
        <time>2019-08-17T09:34:16Z</time>
      </trkpt>
      <trkpt lat="44.30266" lon="5.82351">
        <ele>569</ele>
        <time>2019-08-17T09:34:17Z</time>
      </trkpt>
      <trkpt lat="44.30273" lon="5.8235">
        <ele>569</ele>
        <time>2019-08-17T09:34:18Z</time>
      </trkpt>
      <trkpt lat="44.30281" lon="5.82349">
        <ele>569</ele>
        <time>2019-08-17T09:34:19Z</time>
      </trkpt>
      <trkpt lat="44.30288" lon="5.82347">
        <ele>569</ele>
        <time>2019-08-17T09:34:20Z</time>
      </trkpt>
      <trkpt lat="44.30296" lon="5.82346">
        <ele>569</ele>
        <time>2019-08-17T09:34:21Z</time>
      </trkpt>
      <trkpt lat="44.30303" lon="5.82345">
        <ele>569</ele>
        <time>2019-08-17T09:34:22Z</time>
      </trkpt>
      <trkpt lat="44.30311" lon="5.82343">
        <ele>569</ele>
        <time>2019-08-17T09:34:23Z</time>
      </trkpt>
      <trkpt lat="44.30318" lon="5.82342">
        <ele>569</ele>
        <time>2019-08-17T09:34:24Z</time>
      </trkpt>
      <trkpt lat="44.30326" lon="5.82341">
        <ele>569</ele>
        <time>2019-08-17T09:34:25Z</time>
      </trkpt>
      <trkpt lat="44.30334" lon="5.82339">
        <ele>569</ele>
        <time>2019-08-17T09:34:26Z</time>
      </trkpt>
      <trkpt lat="44.30341" lon="5.82338">
        <ele>569</ele>
        <time>2019-08-17T09:34:27Z</time>
      </trkpt>
      <trkpt lat="44.30349" lon="5.82336">
        <ele>569</ele>
        <time>2019-08-17T09:34:28Z</time>
      </trkpt>
      <trkpt lat="44.30357" lon="5.82335">
        <ele>569</ele>
        <time>2019-08-17T09:34:29Z</time>
      </trkpt>
      <trkpt lat="44.30364" lon="5.82333">
        <ele>569</ele>
        <time>2019-08-17T09:34:30Z</time>
      </trkpt>
      <trkpt lat="44.30372" lon="5.82332">
        <ele>569</ele>
        <time>2019-08-17T09:34:31Z</time>
      </trkpt>
      <trkpt lat="44.3038" lon="5.8233">
        <ele>569</ele>
        <time>2019-08-17T09:34:32Z</time>
      </trkpt>
      <trkpt lat="44.30387" lon="5.82329">
        <ele>570</ele>
        <time>2019-08-17T09:34:33Z</time>
      </trkpt>
      <trkpt lat="44.30395" lon="5.82328">
        <ele>570</ele>
        <time>2019-08-17T09:34:34Z</time>
      </trkpt>
      <trkpt lat="44.30403" lon="5.82327">
        <ele>570</ele>
        <time>2019-08-17T09:34:35Z</time>
      </trkpt>
      <trkpt lat="44.3041" lon="5.82327">
        <ele>570</ele>
        <time>2019-08-17T09:34:36Z</time>
      </trkpt>
      <trkpt lat="44.30418" lon="5.82326">
        <ele>571</ele>
        <time>2019-08-17T09:34:37Z</time>
      </trkpt>
      <trkpt lat="44.30426" lon="5.82325">
        <ele>571</ele>
        <time>2019-08-17T09:34:38Z</time>
      </trkpt>
      <trkpt lat="44.30433" lon="5.82325">
        <ele>571</ele>
        <time>2019-08-17T09:34:39Z</time>
      </trkpt>
      <trkpt lat="44.30441" lon="5.82325">
        <ele>571</ele>
        <time>2019-08-17T09:34:40Z</time>
      </trkpt>
      <trkpt lat="44.30448" lon="5.82325">
        <ele>572</ele>
        <time>2019-08-17T09:34:41Z</time>
      </trkpt>
      <trkpt lat="44.30456" lon="5.82325">
        <ele>572</ele>
        <time>2019-08-17T09:34:42Z</time>
      </trkpt>
      <trkpt lat="44.30464" lon="5.82325">
        <ele>572</ele>
        <time>2019-08-17T09:34:43Z</time>
      </trkpt>
      <trkpt lat="44.30471" lon="5.82325">
        <ele>572</ele>
        <time>2019-08-17T09:34:44Z</time>
      </trkpt>
      <trkpt lat="44.30479" lon="5.82325">
        <ele>572</ele>
        <time>2019-08-17T09:34:45Z</time>
      </trkpt>
      <trkpt lat="44.30486" lon="5.82324">
        <ele>572</ele>
        <time>2019-08-17T09:34:46Z</time>
      </trkpt>
      <trkpt lat="44.30493" lon="5.82324">
        <ele>572</ele>
        <time>2019-08-17T09:34:47Z</time>
      </trkpt>
      <trkpt lat="44.30501" lon="5.82324">
        <ele>572</ele>
        <time>2019-08-17T09:34:48Z</time>
      </trkpt>
      <trkpt lat="44.30508" lon="5.82323">
        <ele>572</ele>
        <time>2019-08-17T09:34:49Z</time>
      </trkpt>
      <trkpt lat="44.30515" lon="5.82322">
        <ele>572</ele>
        <time>2019-08-17T09:34:50Z</time>
      </trkpt>
      <trkpt lat="44.30523" lon="5.82322">
        <ele>572</ele>
        <time>2019-08-17T09:34:51Z</time>
      </trkpt>
      <trkpt lat="44.30531" lon="5.82321">
        <ele>572</ele>
        <time>2019-08-17T09:34:52Z</time>
      </trkpt>
      <trkpt lat="44.30538" lon="5.8232">
        <ele>572</ele>
        <time>2019-08-17T09:34:53Z</time>
      </trkpt>
      <trkpt lat="44.30546" lon="5.82318">
        <ele>572</ele>
        <time>2019-08-17T09:34:54Z</time>
      </trkpt>
      <trkpt lat="44.30553" lon="5.82317">
        <ele>572</ele>
        <time>2019-08-17T09:34:55Z</time>
      </trkpt>
      <trkpt lat="44.30561" lon="5.82316">
        <ele>572</ele>
        <time>2019-08-17T09:34:56Z</time>
      </trkpt>
      <trkpt lat="44.30568" lon="5.82315">
        <ele>572</ele>
        <time>2019-08-17T09:34:57Z</time>
      </trkpt>
      <trkpt lat="44.30576" lon="5.82313">
        <ele>571</ele>
        <time>2019-08-17T09:34:58Z</time>
      </trkpt>
      <trkpt lat="44.30583" lon="5.82312">
        <ele>570</ele>
        <time>2019-08-17T09:34:59Z</time>
      </trkpt>
      <trkpt lat="44.30591" lon="5.82311">
        <ele>569</ele>
        <time>2019-08-17T09:35:00Z</time>
      </trkpt>
      <trkpt lat="44.30598" lon="5.8231">
        <ele>568</ele>
        <time>2019-08-17T09:35:01Z</time>
      </trkpt>
      <trkpt lat="44.30606" lon="5.82309">
        <ele>567</ele>
        <time>2019-08-17T09:35:02Z</time>
      </trkpt>
      <trkpt lat="44.30613" lon="5.82307">
        <ele>567</ele>
        <time>2019-08-17T09:35:03Z</time>
      </trkpt>
      <trkpt lat="44.30621" lon="5.82305">
        <ele>567</ele>
        <time>2019-08-17T09:35:04Z</time>
      </trkpt>
      <trkpt lat="44.30628" lon="5.82302">
        <ele>566</ele>
        <time>2019-08-17T09:35:05Z</time>
      </trkpt>
      <trkpt lat="44.30635" lon="5.82298">
        <ele>566</ele>
        <time>2019-08-17T09:35:06Z</time>
      </trkpt>
      <trkpt lat="44.30642" lon="5.82294">
        <ele>566</ele>
        <time>2019-08-17T09:35:07Z</time>
      </trkpt>
      <trkpt lat="44.30649" lon="5.8229">
        <ele>565</ele>
        <time>2019-08-17T09:35:08Z</time>
      </trkpt>
      <trkpt lat="44.30656" lon="5.82285">
        <ele>565</ele>
        <time>2019-08-17T09:35:09Z</time>
      </trkpt>
      <trkpt lat="44.30663" lon="5.82279">
        <ele>565</ele>
        <time>2019-08-17T09:35:10Z</time>
      </trkpt>
      <trkpt lat="44.30669" lon="5.82273">
        <ele>565</ele>
        <time>2019-08-17T09:35:11Z</time>
      </trkpt>
      <trkpt lat="44.30675" lon="5.82267">
        <ele>565</ele>
        <time>2019-08-17T09:35:12Z</time>
      </trkpt>
      <trkpt lat="44.30681" lon="5.82261">
        <ele>565</ele>
        <time>2019-08-17T09:35:13Z</time>
      </trkpt>
      <trkpt lat="44.30687" lon="5.82254">
        <ele>565</ele>
        <time>2019-08-17T09:35:14Z</time>
      </trkpt>
      <trkpt lat="44.30693" lon="5.82246">
        <ele>565</ele>
        <time>2019-08-17T09:35:15Z</time>
      </trkpt>
      <trkpt lat="44.30698" lon="5.82239">
        <ele>565</ele>
        <time>2019-08-17T09:35:16Z</time>
      </trkpt>
      <trkpt lat="44.30703" lon="5.82231">
        <ele>565</ele>
        <time>2019-08-17T09:35:17Z</time>
      </trkpt>
      <trkpt lat="44.30708" lon="5.82223">
        <ele>565</ele>
        <time>2019-08-17T09:35:18Z</time>
      </trkpt>
      <trkpt lat="44.30713" lon="5.82214">
        <ele>565</ele>
        <time>2019-08-17T09:35:19Z</time>
      </trkpt>
      <trkpt lat="44.30717" lon="5.82205">
        <ele>565</ele>
        <time>2019-08-17T09:35:20Z</time>
      </trkpt>
      <trkpt lat="44.30721" lon="5.82196">
        <ele>565</ele>
        <time>2019-08-17T09:35:21Z</time>
      </trkpt>
      <trkpt lat="44.30725" lon="5.82186">
        <ele>565</ele>
        <time>2019-08-17T09:35:22Z</time>
      </trkpt>
      <trkpt lat="44.30728" lon="5.82176">
        <ele>565</ele>
        <time>2019-08-17T09:35:23Z</time>
      </trkpt>
      <trkpt lat="44.30732" lon="5.82166">
        <ele>565</ele>
        <time>2019-08-17T09:35:24Z</time>
      </trkpt>
      <trkpt lat="44.30735" lon="5.82155">
        <ele>565</ele>
        <time>2019-08-17T09:35:25Z</time>
      </trkpt>
      <trkpt lat="44.30738" lon="5.82144">
        <ele>565</ele>
        <time>2019-08-17T09:35:26Z</time>
      </trkpt>
      <trkpt lat="44.30742" lon="5.82133">
        <ele>565</ele>
        <time>2019-08-17T09:35:27Z</time>
      </trkpt>
      <trkpt lat="44.30746" lon="5.82123">
        <ele>565</ele>
        <time>2019-08-17T09:35:28Z</time>
      </trkpt>
      <trkpt lat="44.30751" lon="5.82113">
        <ele>565</ele>
        <time>2019-08-17T09:35:29Z</time>
      </trkpt>
      <trkpt lat="44.30756" lon="5.82103">
        <ele>565</ele>
        <time>2019-08-17T09:35:30Z</time>
      </trkpt>
      <trkpt lat="44.30762" lon="5.82094">
        <ele>565</ele>
        <time>2019-08-17T09:35:31Z</time>
      </trkpt>
      <trkpt lat="44.30769" lon="5.82087">
        <ele>565</ele>
        <time>2019-08-17T09:35:32Z</time>
      </trkpt>
      <trkpt lat="44.30777" lon="5.82082">
        <ele>565</ele>
        <time>2019-08-17T09:35:33Z</time>
      </trkpt>
      <trkpt lat="44.30785" lon="5.82078">
        <ele>565</ele>
        <time>2019-08-17T09:35:34Z</time>
      </trkpt>
      <trkpt lat="44.30793" lon="5.82076">
        <ele>565</ele>
        <time>2019-08-17T09:35:35Z</time>
      </trkpt>
      <trkpt lat="44.30802" lon="5.82073">
        <ele>565</ele>
        <time>2019-08-17T09:35:36Z</time>
      </trkpt>
      <trkpt lat="44.3081" lon="5.82071">
        <ele>565</ele>
        <time>2019-08-17T09:35:37Z</time>
      </trkpt>
      <trkpt lat="44.30818" lon="5.82069">
        <ele>565</ele>
        <time>2019-08-17T09:35:38Z</time>
      </trkpt>
      <trkpt lat="44.30826" lon="5.82067">
        <ele>565</ele>
        <time>2019-08-17T09:35:39Z</time>
      </trkpt>
      <trkpt lat="44.30834" lon="5.82065">
        <ele>565</ele>
        <time>2019-08-17T09:35:40Z</time>
      </trkpt>
      <trkpt lat="44.30843" lon="5.82063">
        <ele>565</ele>
        <time>2019-08-17T09:35:41Z</time>
      </trkpt>
      <trkpt lat="44.30851" lon="5.8206">
        <ele>565</ele>
        <time>2019-08-17T09:35:42Z</time>
      </trkpt>
      <trkpt lat="44.30859" lon="5.82058">
        <ele>565</ele>
        <time>2019-08-17T09:35:43Z</time>
      </trkpt>
      <trkpt lat="44.30867" lon="5.82055">
        <ele>565</ele>
        <time>2019-08-17T09:35:44Z</time>
      </trkpt>
      <trkpt lat="44.30876" lon="5.82052">
        <ele>565</ele>
        <time>2019-08-17T09:35:45Z</time>
      </trkpt>
      <trkpt lat="44.30884" lon="5.82049">
        <ele>565</ele>
        <time>2019-08-17T09:35:46Z</time>
      </trkpt>
      <trkpt lat="44.30893" lon="5.82046">
        <ele>565</ele>
        <time>2019-08-17T09:35:47Z</time>
      </trkpt>
      <trkpt lat="44.30902" lon="5.82043">
        <ele>565</ele>
        <time>2019-08-17T09:35:48Z</time>
      </trkpt>
      <trkpt lat="44.30912" lon="5.82041">
        <ele>564</ele>
        <time>2019-08-17T09:35:49Z</time>
      </trkpt>
      <trkpt lat="44.30921" lon="5.8204">
        <ele>564</ele>
        <time>2019-08-17T09:35:50Z</time>
      </trkpt>
      <trkpt lat="44.3093" lon="5.8204">
        <ele>564</ele>
        <time>2019-08-17T09:35:51Z</time>
      </trkpt>
      <trkpt lat="44.30939" lon="5.82041">
        <ele>563</ele>
        <time>2019-08-17T09:35:52Z</time>
      </trkpt>
      <trkpt lat="44.30949" lon="5.82044">
        <ele>563</ele>
        <time>2019-08-17T09:35:53Z</time>
      </trkpt>
      <trkpt lat="44.30957" lon="5.82048">
        <ele>563</ele>
        <time>2019-08-17T09:35:54Z</time>
      </trkpt>
      <trkpt lat="44.30966" lon="5.82053">
        <ele>562</ele>
        <time>2019-08-17T09:35:55Z</time>
      </trkpt>
      <trkpt lat="44.30974" lon="5.82058">
        <ele>562</ele>
        <time>2019-08-17T09:35:56Z</time>
      </trkpt>
      <trkpt lat="44.30983" lon="5.82064">
        <ele>561</ele>
        <time>2019-08-17T09:35:57Z</time>
      </trkpt>
      <trkpt lat="44.3099" lon="5.82071">
        <ele>561</ele>
        <time>2019-08-17T09:35:58Z</time>
      </trkpt>
      <trkpt lat="44.30997" lon="5.82078">
        <ele>561</ele>
        <time>2019-08-17T09:35:59Z</time>
      </trkpt>
      <trkpt lat="44.31004" lon="5.82087">
        <ele>560</ele>
        <time>2019-08-17T09:36:00Z</time>
      </trkpt>
      <trkpt lat="44.3101" lon="5.82094">
        <ele>560</ele>
        <time>2019-08-17T09:36:01Z</time>
      </trkpt>
      <trkpt lat="44.31017" lon="5.82102">
        <ele>560</ele>
        <time>2019-08-17T09:36:02Z</time>
      </trkpt>
      <trkpt lat="44.31023" lon="5.82111">
        <ele>560</ele>
        <time>2019-08-17T09:36:03Z</time>
      </trkpt>
      <trkpt lat="44.31029" lon="5.82119">
        <ele>559</ele>
        <time>2019-08-17T09:36:04Z</time>
      </trkpt>
      <trkpt lat="44.31034" lon="5.82126">
        <ele>559</ele>
        <time>2019-08-17T09:36:05Z</time>
      </trkpt>
      <trkpt lat="44.3104" lon="5.82134">
        <ele>559</ele>
        <time>2019-08-17T09:36:06Z</time>
      </trkpt>
      <trkpt lat="44.31046" lon="5.82141">
        <ele>559</ele>
        <time>2019-08-17T09:36:07Z</time>
      </trkpt>
      <trkpt lat="44.31052" lon="5.82149">
        <ele>558</ele>
        <time>2019-08-17T09:36:08Z</time>
      </trkpt>
      <trkpt lat="44.31057" lon="5.82156">
        <ele>558</ele>
        <time>2019-08-17T09:36:09Z</time>
      </trkpt>
      <trkpt lat="44.31063" lon="5.82163">
        <ele>558</ele>
        <time>2019-08-17T09:36:10Z</time>
      </trkpt>
      <trkpt lat="44.31068" lon="5.8217">
        <ele>558</ele>
        <time>2019-08-17T09:36:11Z</time>
      </trkpt>
      <trkpt lat="44.31073" lon="5.82177">
        <ele>558</ele>
        <time>2019-08-17T09:36:12Z</time>
      </trkpt>
      <trkpt lat="44.31079" lon="5.82184">
        <ele>558</ele>
        <time>2019-08-17T09:36:13Z</time>
      </trkpt>
      <trkpt lat="44.31084" lon="5.82191">
        <ele>558</ele>
        <time>2019-08-17T09:36:14Z</time>
      </trkpt>
      <trkpt lat="44.31089" lon="5.82198">
        <ele>558</ele>
        <time>2019-08-17T09:36:15Z</time>
      </trkpt>
      <trkpt lat="44.31094" lon="5.82205">
        <ele>558</ele>
        <time>2019-08-17T09:36:16Z</time>
      </trkpt>
      <trkpt lat="44.31099" lon="5.82212">
        <ele>558</ele>
        <time>2019-08-17T09:36:17Z</time>
      </trkpt>
      <trkpt lat="44.31105" lon="5.82219">
        <ele>558</ele>
        <time>2019-08-17T09:36:18Z</time>
      </trkpt>
      <trkpt lat="44.3111" lon="5.82226">
        <ele>558</ele>
        <time>2019-08-17T09:36:19Z</time>
      </trkpt>
      <trkpt lat="44.31115" lon="5.82232">
        <ele>558</ele>
        <time>2019-08-17T09:36:20Z</time>
      </trkpt>
      <trkpt lat="44.31119" lon="5.82239">
        <ele>558</ele>
        <time>2019-08-17T09:36:21Z</time>
      </trkpt>
      <trkpt lat="44.31124" lon="5.82245">
        <ele>558</ele>
        <time>2019-08-17T09:36:22Z</time>
      </trkpt>
      <trkpt lat="44.31128" lon="5.82251">
        <ele>558</ele>
        <time>2019-08-17T09:36:23Z</time>
      </trkpt>
      <trkpt lat="44.31133" lon="5.82257">
        <ele>558</ele>
        <time>2019-08-17T09:36:24Z</time>
      </trkpt>
      <trkpt lat="44.31138" lon="5.82262">
        <ele>558</ele>
        <time>2019-08-17T09:36:25Z</time>
      </trkpt>
      <trkpt lat="44.31142" lon="5.82268">
        <ele>558</ele>
        <time>2019-08-17T09:36:26Z</time>
      </trkpt>
      <trkpt lat="44.31147" lon="5.82274">
        <ele>558</ele>
        <time>2019-08-17T09:36:27Z</time>
      </trkpt>
      <trkpt lat="44.31149" lon="5.82281">
        <ele>558</ele>
        <time>2019-08-17T09:36:28Z</time>
      </trkpt>
      <trkpt lat="44.31149" lon="5.82289">
        <ele>558</ele>
        <time>2019-08-17T09:36:29Z</time>
      </trkpt>
      <trkpt lat="44.31147" lon="5.82297">
        <ele>558</ele>
        <time>2019-08-17T09:36:30Z</time>
      </trkpt>
      <trkpt lat="44.31144" lon="5.82304">
        <ele>558</ele>
        <time>2019-08-17T09:36:31Z</time>
      </trkpt>
      <trkpt lat="44.3114" lon="5.8231">
        <ele>558</ele>
        <time>2019-08-17T09:36:32Z</time>
      </trkpt>
      <trkpt lat="44.31135" lon="5.82317">
        <ele>558</ele>
        <time>2019-08-17T09:36:33Z</time>
      </trkpt>
      <trkpt lat="44.31131" lon="5.82323">
        <ele>558</ele>
        <time>2019-08-17T09:36:34Z</time>
      </trkpt>
      <trkpt lat="44.31126" lon="5.8233">
        <ele>558</ele>
        <time>2019-08-17T09:36:35Z</time>
      </trkpt>
      <trkpt lat="44.31121" lon="5.82336">
        <ele>558</ele>
        <time>2019-08-17T09:36:36Z</time>
      </trkpt>
      <trkpt lat="44.31116" lon="5.82343">
        <ele>558</ele>
        <time>2019-08-17T09:36:37Z</time>
      </trkpt>
      <trkpt lat="44.31112" lon="5.8235">
        <ele>558</ele>
        <time>2019-08-17T09:36:38Z</time>
      </trkpt>
      <trkpt lat="44.31108" lon="5.82357">
        <ele>558</ele>
        <time>2019-08-17T09:36:39Z</time>
      </trkpt>
      <trkpt lat="44.31106" lon="5.82366">
        <ele>558</ele>
        <time>2019-08-17T09:36:40Z</time>
      </trkpt>
      <trkpt lat="44.31105" lon="5.82375">
        <ele>558</ele>
        <time>2019-08-17T09:36:41Z</time>
      </trkpt>
      <trkpt lat="44.31104" lon="5.82384">
        <ele>558</ele>
        <time>2019-08-17T09:36:42Z</time>
      </trkpt>
      <trkpt lat="44.31104" lon="5.82393">
        <ele>558</ele>
        <time>2019-08-17T09:36:43Z</time>
      </trkpt>
      <trkpt lat="44.31104" lon="5.82402">
        <ele>558</ele>
        <time>2019-08-17T09:36:44Z</time>
      </trkpt>
      <trkpt lat="44.31102" lon="5.8241">
        <ele>558</ele>
        <time>2019-08-17T09:36:45Z</time>
      </trkpt>
      <trkpt lat="44.31099" lon="5.82418">
        <ele>558</ele>
        <time>2019-08-17T09:36:46Z</time>
      </trkpt>
      <trkpt lat="44.31096" lon="5.82425">
        <ele>558</ele>
        <time>2019-08-17T09:36:47Z</time>
      </trkpt>
      <trkpt lat="44.31093" lon="5.82432">
        <ele>558</ele>
        <time>2019-08-17T09:36:48Z</time>
      </trkpt>
      <trkpt lat="44.3109" lon="5.82439">
        <ele>558</ele>
        <time>2019-08-17T09:36:49Z</time>
      </trkpt>
      <trkpt lat="44.31087" lon="5.82445">
        <ele>558</ele>
        <time>2019-08-17T09:36:50Z</time>
      </trkpt>
      <trkpt lat="44.31084" lon="5.82452">
        <ele>558</ele>
        <time>2019-08-17T09:36:51Z</time>
      </trkpt>
      <trkpt lat="44.31081" lon="5.82459">
        <ele>558</ele>
        <time>2019-08-17T09:36:52Z</time>
      </trkpt>
      <trkpt lat="44.31078" lon="5.82467">
        <ele>558</ele>
        <time>2019-08-17T09:36:53Z</time>
      </trkpt>
      <trkpt lat="44.31076" lon="5.82475">
        <ele>558</ele>
        <time>2019-08-17T09:36:54Z</time>
      </trkpt>
      <trkpt lat="44.31074" lon="5.82485">
        <ele>558</ele>
        <time>2019-08-17T09:36:55Z</time>
      </trkpt>
      <trkpt lat="44.31073" lon="5.82495">
        <ele>558</ele>
        <time>2019-08-17T09:36:56Z</time>
      </trkpt>
      <trkpt lat="44.31074" lon="5.82504">
        <ele>558</ele>
        <time>2019-08-17T09:36:57Z</time>
      </trkpt>
      <trkpt lat="44.31076" lon="5.82513">
        <ele>558</ele>
        <time>2019-08-17T09:36:58Z</time>
      </trkpt>
      <trkpt lat="44.3108" lon="5.82521">
        <ele>558</ele>
        <time>2019-08-17T09:36:59Z</time>
      </trkpt>
      <trkpt lat="44.31085" lon="5.82528">
        <ele>558</ele>
        <time>2019-08-17T09:37:00Z</time>
      </trkpt>
      <trkpt lat="44.31091" lon="5.82533">
        <ele>558</ele>
        <time>2019-08-17T09:37:01Z</time>
      </trkpt>
      <trkpt lat="44.31097" lon="5.82538">
        <ele>558</ele>
        <time>2019-08-17T09:37:02Z</time>
      </trkpt>
      <trkpt lat="44.31103" lon="5.82542">
        <ele>558</ele>
        <time>2019-08-17T09:37:03Z</time>
      </trkpt>
      <trkpt lat="44.3111" lon="5.82546">
        <ele>558</ele>
        <time>2019-08-17T09:37:04Z</time>
      </trkpt>
      <trkpt lat="44.31116" lon="5.82549">
        <ele>558</ele>
        <time>2019-08-17T09:37:05Z</time>
      </trkpt>
      <trkpt lat="44.31123" lon="5.82552">
        <ele>558</ele>
        <time>2019-08-17T09:37:06Z</time>
      </trkpt>
      <trkpt lat="44.31129" lon="5.82556">
        <ele>558</ele>
        <time>2019-08-17T09:37:07Z</time>
      </trkpt>
      <trkpt lat="44.31136" lon="5.82559">
        <ele>558</ele>
        <time>2019-08-17T09:37:08Z</time>
      </trkpt>
      <trkpt lat="44.31142" lon="5.82563">
        <ele>558</ele>
        <time>2019-08-17T09:37:09Z</time>
      </trkpt>
      <trkpt lat="44.31149" lon="5.82567">
        <ele>559</ele>
        <time>2019-08-17T09:37:10Z</time>
      </trkpt>
      <trkpt lat="44.31155" lon="5.8257">
        <ele>559</ele>
        <time>2019-08-17T09:37:11Z</time>
      </trkpt>
      <trkpt lat="44.31161" lon="5.82574">
        <ele>559</ele>
        <time>2019-08-17T09:37:12Z</time>
      </trkpt>
      <trkpt lat="44.31168" lon="5.82577">
        <ele>559</ele>
        <time>2019-08-17T09:37:13Z</time>
      </trkpt>
      <trkpt lat="44.31174" lon="5.82581">
        <ele>559</ele>
        <time>2019-08-17T09:37:14Z</time>
      </trkpt>
      <trkpt lat="44.3118" lon="5.82584">
        <ele>560</ele>
        <time>2019-08-17T09:37:15Z</time>
      </trkpt>
      <trkpt lat="44.31186" lon="5.82588">
        <ele>560</ele>
        <time>2019-08-17T09:37:16Z</time>
      </trkpt>
      <trkpt lat="44.31192" lon="5.82591">
        <ele>560</ele>
        <time>2019-08-17T09:37:17Z</time>
      </trkpt>
      <trkpt lat="44.31198" lon="5.82594">
        <ele>560</ele>
        <time>2019-08-17T09:37:18Z</time>
      </trkpt>
      <trkpt lat="44.31204" lon="5.82598">
        <ele>561</ele>
        <time>2019-08-17T09:37:19Z</time>
      </trkpt>
      <trkpt lat="44.31211" lon="5.82601">
        <ele>561</ele>
        <time>2019-08-17T09:37:20Z</time>
      </trkpt>
      <trkpt lat="44.31217" lon="5.82604">
        <ele>561</ele>
        <time>2019-08-17T09:37:21Z</time>
      </trkpt>
      <trkpt lat="44.31223" lon="5.82608">
        <ele>561</ele>
        <time>2019-08-17T09:37:22Z</time>
      </trkpt>
      <trkpt lat="44.31229" lon="5.82611">
        <ele>561</ele>
        <time>2019-08-17T09:37:23Z</time>
      </trkpt>
      <trkpt lat="44.31235" lon="5.82615">
        <ele>561</ele>
        <time>2019-08-17T09:37:24Z</time>
      </trkpt>
      <trkpt lat="44.31241" lon="5.82618">
        <ele>561</ele>
        <time>2019-08-17T09:37:25Z</time>
      </trkpt>
      <trkpt lat="44.31247" lon="5.82621">
        <ele>561</ele>
        <time>2019-08-17T09:37:26Z</time>
      </trkpt>
      <trkpt lat="44.31253" lon="5.82624">
        <ele>561</ele>
        <time>2019-08-17T09:37:27Z</time>
      </trkpt>
      <trkpt lat="44.31258" lon="5.82628">
        <ele>561</ele>
        <time>2019-08-17T09:37:28Z</time>
      </trkpt>
      <trkpt lat="44.31264" lon="5.82631">
        <ele>561</ele>
        <time>2019-08-17T09:37:29Z</time>
      </trkpt>
      <trkpt lat="44.3127" lon="5.82634">
        <ele>561</ele>
        <time>2019-08-17T09:37:30Z</time>
      </trkpt>
      <trkpt lat="44.31275" lon="5.82637">
        <ele>562</ele>
        <time>2019-08-17T09:37:31Z</time>
      </trkpt>
      <trkpt lat="44.31281" lon="5.8264">
        <ele>562</ele>
        <time>2019-08-17T09:37:32Z</time>
      </trkpt>
      <trkpt lat="44.31285" lon="5.82643">
        <ele>562</ele>
        <time>2019-08-17T09:37:33Z</time>
      </trkpt>
      <trkpt lat="44.3129" lon="5.82646">
        <ele>562</ele>
        <time>2019-08-17T09:37:34Z</time>
      </trkpt>
      <trkpt lat="44.31295" lon="5.82649">
        <ele>562</ele>
        <time>2019-08-17T09:37:35Z</time>
      </trkpt>
      <trkpt lat="44.313" lon="5.82653">
        <ele>563</ele>
        <time>2019-08-17T09:37:36Z</time>
      </trkpt>
      <trkpt lat="44.31304" lon="5.82656">
        <ele>563</ele>
        <time>2019-08-17T09:37:37Z</time>
      </trkpt>
      <trkpt lat="44.31308" lon="5.82659">
        <ele>563</ele>
        <time>2019-08-17T09:37:38Z</time>
      </trkpt>
      <trkpt lat="44.31313" lon="5.82661">
        <ele>563</ele>
        <time>2019-08-17T09:37:39Z</time>
      </trkpt>
      <trkpt lat="44.31316" lon="5.82664">
        <ele>563</ele>
        <time>2019-08-17T09:37:40Z</time>
      </trkpt>
      <trkpt lat="44.31319" lon="5.82666">
        <ele>563</ele>
        <time>2019-08-17T09:37:41Z</time>
      </trkpt>
      <trkpt lat="44.31321" lon="5.82667">
        <ele>563</ele>
        <time>2019-08-17T09:37:42Z</time>
      </trkpt>
      <trkpt lat="44.31324" lon="5.82669">
        <ele>563</ele>
        <time>2019-08-17T09:37:43Z</time>
      </trkpt>
      <trkpt lat="44.31327" lon="5.82671">
        <ele>563</ele>
        <time>2019-08-17T09:37:44Z</time>
      </trkpt>
      <trkpt lat="44.3133" lon="5.82673">
        <ele>563</ele>
        <time>2019-08-17T09:37:45Z</time>
      </trkpt>
      <trkpt lat="44.31334" lon="5.82674">
        <ele>563</ele>
        <time>2019-08-17T09:37:46Z</time>
      </trkpt>
      <trkpt lat="44.31338" lon="5.82676">
        <ele>563</ele>
        <time>2019-08-17T09:37:47Z</time>
      </trkpt>
      <trkpt lat="44.31342" lon="5.82678">
        <ele>564</ele>
        <time>2019-08-17T09:37:48Z</time>
      </trkpt>
      <trkpt lat="44.31345" lon="5.82679">
        <ele>564</ele>
        <time>2019-08-17T09:37:49Z</time>
      </trkpt>
      <trkpt lat="44.31349" lon="5.82681">
        <ele>564</ele>
        <time>2019-08-17T09:37:50Z</time>
      </trkpt>
      <trkpt lat="44.31351" lon="5.82684">
        <ele>564</ele>
        <time>2019-08-17T09:37:51Z</time>
      </trkpt>
      <trkpt lat="44.31354" lon="5.82689">
        <ele>564</ele>
        <time>2019-08-17T09:37:52Z</time>
      </trkpt>
      <trkpt lat="44.31356" lon="5.82694">
        <ele>564</ele>
        <time>2019-08-17T09:37:53Z</time>
      </trkpt>
      <trkpt lat="44.31358" lon="5.82699">
        <ele>564</ele>
        <time>2019-08-17T09:37:54Z</time>
      </trkpt>
      <trkpt lat="44.3136" lon="5.82704">
        <ele>564</ele>
        <time>2019-08-17T09:37:55Z</time>
      </trkpt>
      <trkpt lat="44.31364" lon="5.82708">
        <ele>565</ele>
        <time>2019-08-17T09:37:56Z</time>
      </trkpt>
      <trkpt lat="44.31368" lon="5.82711">
        <ele>565</ele>
        <time>2019-08-17T09:37:57Z</time>
      </trkpt>
      <trkpt lat="44.31372" lon="5.82716">
        <ele>565</ele>
        <time>2019-08-17T09:37:58Z</time>
      </trkpt>
      <trkpt lat="44.31374" lon="5.82722">
        <ele>565</ele>
        <time>2019-08-17T09:37:59Z</time>
      </trkpt>
      <trkpt lat="44.31375" lon="5.82728">
        <ele>565</ele>
        <time>2019-08-17T09:38:00Z</time>
      </trkpt>
      <trkpt lat="44.31376" lon="5.82735">
        <ele>565</ele>
        <time>2019-08-17T09:38:01Z</time>
      </trkpt>
      <trkpt lat="44.31376" lon="5.82742">
        <ele>565</ele>
        <time>2019-08-17T09:38:02Z</time>
      </trkpt>
      <trkpt lat="44.31376" lon="5.82749">
        <ele>566</ele>
        <time>2019-08-17T09:38:03Z</time>
      </trkpt>
      <trkpt lat="44.31376" lon="5.82756">
        <ele>566</ele>
        <time>2019-08-17T09:38:04Z</time>
      </trkpt>
      <trkpt lat="44.31376" lon="5.82763">
        <ele>566</ele>
        <time>2019-08-17T09:38:05Z</time>
      </trkpt>
      <trkpt lat="44.31376" lon="5.8277">
        <ele>566</ele>
        <time>2019-08-17T09:38:06Z</time>
      </trkpt>
      <trkpt lat="44.31376" lon="5.82778">
        <ele>566</ele>
        <time>2019-08-17T09:38:07Z</time>
      </trkpt>
      <trkpt lat="44.31375" lon="5.82785">
        <ele>566</ele>
        <time>2019-08-17T09:38:08Z</time>
      </trkpt>
      <trkpt lat="44.31375" lon="5.82793">
        <ele>566</ele>
        <time>2019-08-17T09:38:09Z</time>
      </trkpt>
      <trkpt lat="44.31375" lon="5.828">
        <ele>566</ele>
        <time>2019-08-17T09:38:10Z</time>
      </trkpt>
      <trkpt lat="44.31375" lon="5.82807">
        <ele>566</ele>
        <time>2019-08-17T09:38:11Z</time>
      </trkpt>
      <trkpt lat="44.31374" lon="5.82815">
        <ele>566</ele>
        <time>2019-08-17T09:38:12Z</time>
      </trkpt>
      <trkpt lat="44.31374" lon="5.82822">
        <ele>566</ele>
        <time>2019-08-17T09:38:13Z</time>
      </trkpt>
      <trkpt lat="44.31373" lon="5.82829">
        <ele>566</ele>
        <time>2019-08-17T09:38:14Z</time>
      </trkpt>
      <trkpt lat="44.31372" lon="5.82836">
        <ele>566</ele>
        <time>2019-08-17T09:38:15Z</time>
      </trkpt>
      <trkpt lat="44.31371" lon="5.82844">
        <ele>566</ele>
        <time>2019-08-17T09:38:16Z</time>
      </trkpt>
      <trkpt lat="44.3137" lon="5.82851">
        <ele>566</ele>
        <time>2019-08-17T09:38:17Z</time>
      </trkpt>
      <trkpt lat="44.3137" lon="5.82859">
        <ele>566</ele>
        <time>2019-08-17T09:38:18Z</time>
      </trkpt>
      <trkpt lat="44.31369" lon="5.82866">
        <ele>566</ele>
        <time>2019-08-17T09:38:19Z</time>
      </trkpt>
      <trkpt lat="44.31368" lon="5.82874">
        <ele>566</ele>
        <time>2019-08-17T09:38:20Z</time>
      </trkpt>
      <trkpt lat="44.31367" lon="5.82882">
        <ele>566</ele>
        <time>2019-08-17T09:38:21Z</time>
      </trkpt>
      <trkpt lat="44.31366" lon="5.82889">
        <ele>566</ele>
        <time>2019-08-17T09:38:22Z</time>
      </trkpt>
      <trkpt lat="44.31366" lon="5.82897">
        <ele>566</ele>
        <time>2019-08-17T09:38:23Z</time>
      </trkpt>
      <trkpt lat="44.31365" lon="5.82904">
        <ele>566</ele>
        <time>2019-08-17T09:38:24Z</time>
      </trkpt>
      <trkpt lat="44.31364" lon="5.82912">
        <ele>566</ele>
        <time>2019-08-17T09:38:25Z</time>
      </trkpt>
      <trkpt lat="44.31363" lon="5.82919">
        <ele>566</ele>
        <time>2019-08-17T09:38:26Z</time>
      </trkpt>
      <trkpt lat="44.31363" lon="5.82926">
        <ele>566</ele>
        <time>2019-08-17T09:38:27Z</time>
      </trkpt>
      <trkpt lat="44.31363" lon="5.82933">
        <ele>566</ele>
        <time>2019-08-17T09:38:28Z</time>
      </trkpt>
      <trkpt lat="44.31363" lon="5.8294">
        <ele>566</ele>
        <time>2019-08-17T09:38:29Z</time>
      </trkpt>
      <trkpt lat="44.31363" lon="5.82947">
        <ele>566</ele>
        <time>2019-08-17T09:38:30Z</time>
      </trkpt>
      <trkpt lat="44.31361" lon="5.82954">
        <ele>566</ele>
        <time>2019-08-17T09:38:31Z</time>
      </trkpt>
      <trkpt lat="44.3136" lon="5.82962">
        <ele>566</ele>
        <time>2019-08-17T09:38:32Z</time>
      </trkpt>
      <trkpt lat="44.31358" lon="5.8297">
        <ele>566</ele>
        <time>2019-08-17T09:38:33Z</time>
      </trkpt>
      <trkpt lat="44.31357" lon="5.82977">
        <ele>566</ele>
        <time>2019-08-17T09:38:34Z</time>
      </trkpt>
      <trkpt lat="44.31355" lon="5.82985">
        <ele>566</ele>
        <time>2019-08-17T09:38:35Z</time>
      </trkpt>
      <trkpt lat="44.31353" lon="5.82993">
        <ele>566</ele>
        <time>2019-08-17T09:38:36Z</time>
      </trkpt>
      <trkpt lat="44.31353" lon="5.83001">
        <ele>567</ele>
        <time>2019-08-17T09:38:37Z</time>
      </trkpt>
      <trkpt lat="44.31351" lon="5.83009">
        <ele>567</ele>
        <time>2019-08-17T09:38:38Z</time>
      </trkpt>
      <trkpt lat="44.3135" lon="5.83017">
        <ele>567</ele>
        <time>2019-08-17T09:38:39Z</time>
      </trkpt>
      <trkpt lat="44.31349" lon="5.83025">
        <ele>567</ele>
        <time>2019-08-17T09:38:40Z</time>
      </trkpt>
      <trkpt lat="44.31348" lon="5.83033">
        <ele>568</ele>
        <time>2019-08-17T09:38:41Z</time>
      </trkpt>
      <trkpt lat="44.31347" lon="5.83041">
        <ele>568</ele>
        <time>2019-08-17T09:38:42Z</time>
      </trkpt>
      <trkpt lat="44.31345" lon="5.83049">
        <ele>568</ele>
        <time>2019-08-17T09:38:43Z</time>
      </trkpt>
      <trkpt lat="44.31344" lon="5.83056">
        <ele>568</ele>
        <time>2019-08-17T09:38:44Z</time>
      </trkpt>
      <trkpt lat="44.31343" lon="5.83064">
        <ele>568</ele>
        <time>2019-08-17T09:38:45Z</time>
      </trkpt>
      <trkpt lat="44.31342" lon="5.83071">
        <ele>568</ele>
        <time>2019-08-17T09:38:46Z</time>
      </trkpt>
      <trkpt lat="44.31342" lon="5.83078">
        <ele>568</ele>
        <time>2019-08-17T09:38:47Z</time>
      </trkpt>
      <trkpt lat="44.31341" lon="5.83084">
        <ele>568</ele>
        <time>2019-08-17T09:38:48Z</time>
      </trkpt>
      <trkpt lat="44.31341" lon="5.8309">
        <ele>568</ele>
        <time>2019-08-17T09:38:49Z</time>
      </trkpt>
      <trkpt lat="44.31342" lon="5.83096">
        <ele>568</ele>
        <time>2019-08-17T09:38:50Z</time>
      </trkpt>
      <trkpt lat="44.31343" lon="5.83101">
        <ele>568</ele>
        <time>2019-08-17T09:38:51Z</time>
      </trkpt>
      <trkpt lat="44.31346" lon="5.83104">
        <ele>568</ele>
        <time>2019-08-17T09:38:52Z</time>
      </trkpt>
      <trkpt lat="44.3135" lon="5.83104">
        <ele>568</ele>
        <time>2019-08-17T09:38:53Z</time>
      </trkpt>
      <trkpt lat="44.31355" lon="5.83102">
        <ele>568</ele>
        <time>2019-08-17T09:38:54Z</time>
      </trkpt>
      <trkpt lat="44.31358" lon="5.83099">
        <ele>568</ele>
        <time>2019-08-17T09:38:55Z</time>
      </trkpt>
      <trkpt lat="44.31361" lon="5.83096">
        <ele>568</ele>
        <time>2019-08-17T09:38:56Z</time>
      </trkpt>
      <trkpt lat="44.31362" lon="5.8309">
        <ele>568</ele>
        <time>2019-08-17T09:38:57Z</time>
      </trkpt>
      <trkpt lat="44.31364" lon="5.83085">
        <ele>568</ele>
        <time>2019-08-17T09:38:58Z</time>
      </trkpt>
      <trkpt lat="44.31366" lon="5.83079">
        <ele>568</ele>
        <time>2019-08-17T09:38:59Z</time>
      </trkpt>
      <trkpt lat="44.31369" lon="5.83074">
        <ele>568</ele>
        <time>2019-08-17T09:39:00Z</time>
      </trkpt>
      <trkpt lat="44.31371" lon="5.83068">
        <ele>568</ele>
        <time>2019-08-17T09:39:01Z</time>
      </trkpt>
      <trkpt lat="44.31374" lon="5.83062">
        <ele>568</ele>
        <time>2019-08-17T09:39:02Z</time>
      </trkpt>
      <trkpt lat="44.31377" lon="5.83055">
        <ele>568</ele>
        <time>2019-08-17T09:39:03Z</time>
      </trkpt>
      <trkpt lat="44.3138" lon="5.8305">
        <ele>568</ele>
        <time>2019-08-17T09:39:04Z</time>
      </trkpt>
      <trkpt lat="44.31384" lon="5.83044">
        <ele>568</ele>
        <time>2019-08-17T09:39:05Z</time>
      </trkpt>
      <trkpt lat="44.31388" lon="5.83038">
        <ele>568</ele>
        <time>2019-08-17T09:39:06Z</time>
      </trkpt>
      <trkpt lat="44.31392" lon="5.83032">
        <ele>568</ele>
        <time>2019-08-17T09:39:07Z</time>
      </trkpt>
      <trkpt lat="44.31396" lon="5.83026">
        <ele>568</ele>
        <time>2019-08-17T09:39:08Z</time>
      </trkpt>
      <trkpt lat="44.314" lon="5.8302">
        <ele>568</ele>
        <time>2019-08-17T09:39:09Z</time>
      </trkpt>
      <trkpt lat="44.31404" lon="5.83014">
        <ele>568</ele>
        <time>2019-08-17T09:39:10Z</time>
      </trkpt>
      <trkpt lat="44.31409" lon="5.83009">
        <ele>568</ele>
        <time>2019-08-17T09:39:11Z</time>
      </trkpt>
      <trkpt lat="44.31413" lon="5.83003">
        <ele>568</ele>
        <time>2019-08-17T09:39:12Z</time>
      </trkpt>
      <trkpt lat="44.31417" lon="5.82997">
        <ele>568</ele>
        <time>2019-08-17T09:39:13Z</time>
      </trkpt>
      <trkpt lat="44.31422" lon="5.82991">
        <ele>568</ele>
        <time>2019-08-17T09:39:14Z</time>
      </trkpt>
      <trkpt lat="44.31425" lon="5.82985">
        <ele>568</ele>
        <time>2019-08-17T09:39:15Z</time>
      </trkpt>
      <trkpt lat="44.31429" lon="5.82978">
        <ele>568</ele>
        <time>2019-08-17T09:39:16Z</time>
      </trkpt>
      <trkpt lat="44.31433" lon="5.82972">
        <ele>568</ele>
        <time>2019-08-17T09:39:17Z</time>
      </trkpt>
      <trkpt lat="44.31437" lon="5.82967">
        <ele>568</ele>
        <time>2019-08-17T09:39:18Z</time>
      </trkpt>
      <trkpt lat="44.3144" lon="5.82961">
        <ele>568</ele>
        <time>2019-08-17T09:39:19Z</time>
      </trkpt>
      <trkpt lat="44.31444" lon="5.82956">
        <ele>568</ele>
        <time>2019-08-17T09:39:20Z</time>
      </trkpt>
      <trkpt lat="44.31448" lon="5.8295">
        <ele>569</ele>
        <time>2019-08-17T09:39:21Z</time>
      </trkpt>
      <trkpt lat="44.31452" lon="5.82944">
        <ele>569</ele>
        <time>2019-08-17T09:39:22Z</time>
      </trkpt>
      <trkpt lat="44.31456" lon="5.82939">
        <ele>569</ele>
        <time>2019-08-17T09:39:23Z</time>
      </trkpt>
      <trkpt lat="44.3146" lon="5.82933">
        <ele>569</ele>
        <time>2019-08-17T09:39:24Z</time>
      </trkpt>
      <trkpt lat="44.31464" lon="5.82928">
        <ele>569</ele>
        <time>2019-08-17T09:39:25Z</time>
      </trkpt>
      <trkpt lat="44.31468" lon="5.82923">
        <ele>569</ele>
        <time>2019-08-17T09:39:26Z</time>
      </trkpt>
      <trkpt lat="44.31472" lon="5.82918">
        <ele>569</ele>
        <time>2019-08-17T09:39:27Z</time>
      </trkpt>
      <trkpt lat="44.31475" lon="5.82913">
        <ele>569</ele>
        <time>2019-08-17T09:39:28Z</time>
      </trkpt>
      <trkpt lat="44.31479" lon="5.82907">
        <ele>569</ele>
        <time>2019-08-17T09:39:29Z</time>
      </trkpt>
      <trkpt lat="44.31482" lon="5.82902">
        <ele>569</ele>
        <time>2019-08-17T09:39:30Z</time>
      </trkpt>
      <trkpt lat="44.31485" lon="5.82896">
        <ele>569</ele>
        <time>2019-08-17T09:39:31Z</time>
      </trkpt>
      <trkpt lat="44.31488" lon="5.82891">
        <ele>569</ele>
        <time>2019-08-17T09:39:32Z</time>
      </trkpt>
      <trkpt lat="44.31493" lon="5.82885">
        <ele>569</ele>
        <time>2019-08-17T09:39:33Z</time>
      </trkpt>
      <trkpt lat="44.31497" lon="5.8288">
        <ele>569</ele>
        <time>2019-08-17T09:39:34Z</time>
      </trkpt>
      <trkpt lat="44.31501" lon="5.82877">
        <ele>569</ele>
        <time>2019-08-17T09:39:35Z</time>
      </trkpt>
      <trkpt lat="44.31506" lon="5.82875">
        <ele>569</ele>
        <time>2019-08-17T09:39:36Z</time>
      </trkpt>
      <trkpt lat="44.31511" lon="5.82876">
        <ele>569</ele>
        <time>2019-08-17T09:39:37Z</time>
      </trkpt>
      <trkpt lat="44.31514" lon="5.82879">
        <ele>569</ele>
        <time>2019-08-17T09:39:38Z</time>
      </trkpt>
      <trkpt lat="44.31518" lon="5.82883">
        <ele>569</ele>
        <time>2019-08-17T09:39:39Z</time>
      </trkpt>
      <trkpt lat="44.31521" lon="5.82888">
        <ele>569</ele>
        <time>2019-08-17T09:39:40Z</time>
      </trkpt>
      <trkpt lat="44.31525" lon="5.82892">
        <ele>569</ele>
        <time>2019-08-17T09:39:41Z</time>
      </trkpt>
      <trkpt lat="44.31528" lon="5.82895">
        <ele>569</ele>
        <time>2019-08-17T09:39:42Z</time>
      </trkpt>
      <trkpt lat="44.31532" lon="5.82898">
        <ele>569</ele>
        <time>2019-08-17T09:39:43Z</time>
      </trkpt>
      <trkpt lat="44.31535" lon="5.82901">
        <ele>569</ele>
        <time>2019-08-17T09:39:44Z</time>
      </trkpt>
      <trkpt lat="44.31539" lon="5.82905">
        <ele>569</ele>
        <time>2019-08-17T09:39:45Z</time>
      </trkpt>
      <trkpt lat="44.31543" lon="5.82909">
        <ele>569</ele>
        <time>2019-08-17T09:39:46Z</time>
      </trkpt>
      <trkpt lat="44.31547" lon="5.82912">
        <ele>569</ele>
        <time>2019-08-17T09:39:47Z</time>
      </trkpt>
      <trkpt lat="44.31551" lon="5.82916">
        <ele>569</ele>
        <time>2019-08-17T09:39:48Z</time>
      </trkpt>
      <trkpt lat="44.31556" lon="5.82919">
        <ele>569</ele>
        <time>2019-08-17T09:39:49Z</time>
      </trkpt>
      <trkpt lat="44.31559" lon="5.82921">
        <ele>569</ele>
        <time>2019-08-17T09:39:50Z</time>
      </trkpt>
      <trkpt lat="44.31564" lon="5.82923">
        <ele>570</ele>
        <time>2019-08-17T09:39:51Z</time>
      </trkpt>
      <trkpt lat="44.31568" lon="5.82926">
        <ele>570</ele>
        <time>2019-08-17T09:39:52Z</time>
      </trkpt>
      <trkpt lat="44.31572" lon="5.82928">
        <ele>570</ele>
        <time>2019-08-17T09:39:53Z</time>
      </trkpt>
      <trkpt lat="44.31577" lon="5.82931">
        <ele>571</ele>
        <time>2019-08-17T09:39:54Z</time>
      </trkpt>
      <trkpt lat="44.31581" lon="5.82934">
        <ele>571</ele>
        <time>2019-08-17T09:39:55Z</time>
      </trkpt>
      <trkpt lat="44.31584" lon="5.82936">
        <ele>571</ele>
        <time>2019-08-17T09:39:56Z</time>
      </trkpt>
      <trkpt lat="44.31588" lon="5.82938">
        <ele>571</ele>
        <time>2019-08-17T09:39:57Z</time>
      </trkpt>
      <trkpt lat="44.3159" lon="5.82941">
        <ele>571</ele>
        <time>2019-08-17T09:39:58Z</time>
      </trkpt>
      <trkpt lat="44.31593" lon="5.82943">
        <ele>571</ele>
        <time>2019-08-17T09:39:59Z</time>
      </trkpt>
      <trkpt lat="44.31595" lon="5.82945">
        <ele>572</ele>
        <time>2019-08-17T09:40:00Z</time>
      </trkpt>
      <trkpt lat="44.31597" lon="5.82946">
        <ele>572</ele>
        <time>2019-08-17T09:40:01Z</time>
      </trkpt>
      <trkpt lat="44.31599" lon="5.82947">
        <ele>572</ele>
        <time>2019-08-17T09:40:02Z</time>
      </trkpt>
      <trkpt lat="44.316" lon="5.82948">
        <ele>572</ele>
        <time>2019-08-17T09:40:03Z</time>
      </trkpt>
      <trkpt lat="44.31601" lon="5.82951">
        <ele>572</ele>
        <time>2019-08-17T09:40:04Z</time>
      </trkpt>
      <trkpt lat="44.31602" lon="5.82954">
        <ele>572</ele>
        <time>2019-08-17T09:40:05Z</time>
      </trkpt>
      <trkpt lat="44.31602" lon="5.82958">
        <ele>572</ele>
        <time>2019-08-17T09:40:06Z</time>
      </trkpt>
      <trkpt lat="44.31602" lon="5.82961">
        <ele>572</ele>
        <time>2019-08-17T09:40:07Z</time>
      </trkpt>
      <trkpt lat="44.31602" lon="5.82963">
        <ele>572</ele>
        <time>2019-08-17T09:40:08Z</time>
      </trkpt>
      <trkpt lat="44.31603" lon="5.82965">
        <ele>572</ele>
        <time>2019-08-17T09:40:09Z</time>
      </trkpt>
      <trkpt lat="44.31603" lon="5.82968">
        <ele>573</ele>
        <time>2019-08-17T09:40:11Z</time>
      </trkpt>
      <trkpt lat="44.31603" lon="5.8297">
        <ele>573</ele>
        <time>2019-08-17T09:40:14Z</time>
      </trkpt>
      <trkpt lat="44.31602" lon="5.8297">
        <ele>577</ele>
        <time>2019-08-17T09:40:29Z</time>
      </trkpt>
    </trkseg>
  </trk>
</gpx>